<?xml version="1.0" encoding="UTF-8" standalone="no" ?>
<gpx xmlns="http://www.topografix.com/GPX/1/1" xmlns:xsi="http://www.w3.org/2001/XMLSchema-instance" xsi:schemaLocation="http://www.topografix.com/GPX/1/1 http://www.topografix.com/GPX/1/1/gpx.xsd" version="1.1" creator="VisuGPX - https://www.visugpx.com">
  <metadata>
    <name>CMC Aurignac</name>
    <desc><![CDATA[Sortie printanière. Vue superbe sur le Pyrénées au départ et à l'arrivée.]]></desc>
  </metadata>
  <trk>
    <name><![CDATA[Boussan Marche à pied]]></name>
    <trkseg>
      <trkpt lat="43.23131" lon="0.88389">
        <ele>404</ele>
        <time>2019-02-17T09:18:53.000Z</time>
      </trkpt>
      <trkpt lat="43.23133" lon="0.8839">
        <ele>404</ele>
        <time>2019-02-17T09:18:55.000Z</time>
      </trkpt>
      <trkpt lat="43.23134" lon="0.88391">
        <ele>403</ele>
        <time>2019-02-17T09:18:57.000Z</time>
      </trkpt>
      <trkpt lat="43.23136" lon="0.88392">
        <ele>403</ele>
        <time>2019-02-17T09:18:59.000Z</time>
      </trkpt>
      <trkpt lat="43.23137" lon="0.88393">
        <ele>403</ele>
        <time>2019-02-17T09:19:01.000Z</time>
      </trkpt>
      <trkpt lat="43.23139" lon="0.88396">
        <ele>403</ele>
        <time>2019-02-17T09:19:03.000Z</time>
      </trkpt>
      <trkpt lat="43.2314" lon="0.88397">
        <ele>403</ele>
        <time>2019-02-17T09:19:05.000Z</time>
      </trkpt>
      <trkpt lat="43.23141" lon="0.88399">
        <ele>403</ele>
        <time>2019-02-17T09:19:07.000Z</time>
      </trkpt>
      <trkpt lat="43.23143" lon="0.88401">
        <ele>403</ele>
        <time>2019-02-17T09:19:09.000Z</time>
      </trkpt>
      <trkpt lat="43.23143" lon="0.88403">
        <ele>403</ele>
        <time>2019-02-17T09:19:11.000Z</time>
      </trkpt>
      <trkpt lat="43.23145" lon="0.88405">
        <ele>403</ele>
        <time>2019-02-17T09:19:13.000Z</time>
      </trkpt>
      <trkpt lat="43.23146" lon="0.88406">
        <ele>403</ele>
        <time>2019-02-17T09:19:15.000Z</time>
      </trkpt>
      <trkpt lat="43.23148" lon="0.88408">
        <ele>403</ele>
        <time>2019-02-17T09:19:17.000Z</time>
      </trkpt>
      <trkpt lat="43.2315" lon="0.88409">
        <ele>403</ele>
        <time>2019-02-17T09:19:19.000Z</time>
      </trkpt>
      <trkpt lat="43.23152" lon="0.88411">
        <ele>402</ele>
        <time>2019-02-17T09:19:21.000Z</time>
      </trkpt>
      <trkpt lat="43.23154" lon="0.88412">
        <ele>402</ele>
        <time>2019-02-17T09:19:23.000Z</time>
      </trkpt>
      <trkpt lat="43.23156" lon="0.88414">
        <ele>402</ele>
        <time>2019-02-17T09:19:25.000Z</time>
      </trkpt>
      <trkpt lat="43.23158" lon="0.88415">
        <ele>402</ele>
        <time>2019-02-17T09:19:27.000Z</time>
      </trkpt>
      <trkpt lat="43.2316" lon="0.88417">
        <ele>402</ele>
        <time>2019-02-17T09:19:29.000Z</time>
      </trkpt>
      <trkpt lat="43.23161" lon="0.88418">
        <ele>402</ele>
        <time>2019-02-17T09:19:31.000Z</time>
      </trkpt>
      <trkpt lat="43.23161" lon="0.8842">
        <ele>402</ele>
        <time>2019-02-17T09:19:33.000Z</time>
      </trkpt>
      <trkpt lat="43.23162" lon="0.88421">
        <ele>402</ele>
        <time>2019-02-17T09:19:35.000Z</time>
      </trkpt>
      <trkpt lat="43.23163" lon="0.88423">
        <ele>402</ele>
        <time>2019-02-17T09:19:37.000Z</time>
      </trkpt>
      <trkpt lat="43.23165" lon="0.88425">
        <ele>402</ele>
        <time>2019-02-17T09:19:39.000Z</time>
      </trkpt>
      <trkpt lat="43.23167" lon="0.88426">
        <ele>402</ele>
        <time>2019-02-17T09:19:41.000Z</time>
      </trkpt>
      <trkpt lat="43.2317" lon="0.88428">
        <ele>401</ele>
        <time>2019-02-17T09:19:43.000Z</time>
      </trkpt>
      <trkpt lat="43.23171" lon="0.88428">
        <ele>401</ele>
        <time>2019-02-17T09:19:45.000Z</time>
      </trkpt>
      <trkpt lat="43.23173" lon="0.88429">
        <ele>401</ele>
        <time>2019-02-17T09:19:47.000Z</time>
      </trkpt>
      <trkpt lat="43.23175" lon="0.88431">
        <ele>401</ele>
        <time>2019-02-17T09:19:49.000Z</time>
      </trkpt>
      <trkpt lat="43.23176" lon="0.88432">
        <ele>401</ele>
        <time>2019-02-17T09:19:51.000Z</time>
      </trkpt>
      <trkpt lat="43.23177" lon="0.88434">
        <ele>401</ele>
        <time>2019-02-17T09:19:53.000Z</time>
      </trkpt>
      <trkpt lat="43.23179" lon="0.88435">
        <ele>401</ele>
        <time>2019-02-17T09:19:55.000Z</time>
      </trkpt>
      <trkpt lat="43.23181" lon="0.88437">
        <ele>401</ele>
        <time>2019-02-17T09:19:57.000Z</time>
      </trkpt>
      <trkpt lat="43.23183" lon="0.88439">
        <ele>400</ele>
        <time>2019-02-17T09:19:59.000Z</time>
      </trkpt>
      <trkpt lat="43.23186" lon="0.8844">
        <ele>400</ele>
        <time>2019-02-17T09:20:01.000Z</time>
      </trkpt>
      <trkpt lat="43.23188" lon="0.88442">
        <ele>400</ele>
        <time>2019-02-17T09:20:03.000Z</time>
      </trkpt>
      <trkpt lat="43.23189" lon="0.88443">
        <ele>399</ele>
        <time>2019-02-17T09:20:05.000Z</time>
      </trkpt>
      <trkpt lat="43.23192" lon="0.88444">
        <ele>399</ele>
        <time>2019-02-17T09:20:07.000Z</time>
      </trkpt>
      <trkpt lat="43.23195" lon="0.88445">
        <ele>399</ele>
        <time>2019-02-17T09:20:09.000Z</time>
      </trkpt>
      <trkpt lat="43.23198" lon="0.88446">
        <ele>398</ele>
        <time>2019-02-17T09:20:11.000Z</time>
      </trkpt>
      <trkpt lat="43.23198" lon="0.88447">
        <ele>398</ele>
        <time>2019-02-17T09:20:13.000Z</time>
      </trkpt>
      <trkpt lat="43.232" lon="0.88448">
        <ele>398</ele>
        <time>2019-02-17T09:20:15.000Z</time>
      </trkpt>
      <trkpt lat="43.23202" lon="0.88449">
        <ele>398</ele>
        <time>2019-02-17T09:20:17.000Z</time>
      </trkpt>
      <trkpt lat="43.23204" lon="0.8845">
        <ele>397</ele>
        <time>2019-02-17T09:20:19.000Z</time>
      </trkpt>
      <trkpt lat="43.23206" lon="0.88451">
        <ele>397</ele>
        <time>2019-02-17T09:20:21.000Z</time>
      </trkpt>
      <trkpt lat="43.23207" lon="0.88451">
        <ele>397</ele>
        <time>2019-02-17T09:20:23.000Z</time>
      </trkpt>
      <trkpt lat="43.23208" lon="0.88452">
        <ele>397</ele>
        <time>2019-02-17T09:20:25.000Z</time>
      </trkpt>
      <trkpt lat="43.23209" lon="0.88452">
        <ele>397</ele>
        <time>2019-02-17T09:20:27.000Z</time>
      </trkpt>
      <trkpt lat="43.23211" lon="0.88452">
        <ele>396</ele>
        <time>2019-02-17T09:20:29.000Z</time>
      </trkpt>
      <trkpt lat="43.23213" lon="0.88452">
        <ele>396</ele>
        <time>2019-02-17T09:20:31.000Z</time>
      </trkpt>
      <trkpt lat="43.23213" lon="0.88452">
        <ele>396</ele>
        <time>2019-02-17T09:20:33.000Z</time>
      </trkpt>
      <trkpt lat="43.23214" lon="0.88451">
        <ele>396</ele>
        <time>2019-02-17T09:20:35.000Z</time>
      </trkpt>
      <trkpt lat="43.23216" lon="0.8845">
        <ele>395</ele>
        <time>2019-02-17T09:20:37.000Z</time>
      </trkpt>
      <trkpt lat="43.23216" lon="0.88449">
        <ele>395</ele>
        <time>2019-02-17T09:20:39.000Z</time>
      </trkpt>
      <trkpt lat="43.23216" lon="0.88447">
        <ele>395</ele>
        <time>2019-02-17T09:20:41.000Z</time>
      </trkpt>
      <trkpt lat="43.23216" lon="0.88445">
        <ele>395</ele>
        <time>2019-02-17T09:20:43.000Z</time>
      </trkpt>
      <trkpt lat="43.23217" lon="0.88444">
        <ele>395</ele>
        <time>2019-02-17T09:20:45.000Z</time>
      </trkpt>
      <trkpt lat="43.23218" lon="0.88442">
        <ele>395</ele>
        <time>2019-02-17T09:20:47.000Z</time>
      </trkpt>
      <trkpt lat="43.23218" lon="0.88439">
        <ele>394</ele>
        <time>2019-02-17T09:20:49.000Z</time>
      </trkpt>
      <trkpt lat="43.23218" lon="0.88438">
        <ele>394</ele>
        <time>2019-02-17T09:20:51.000Z</time>
      </trkpt>
      <trkpt lat="43.23217" lon="0.88436">
        <ele>394</ele>
        <time>2019-02-17T09:20:53.000Z</time>
      </trkpt>
      <trkpt lat="43.23217" lon="0.88435">
        <ele>394</ele>
        <time>2019-02-17T09:20:55.000Z</time>
      </trkpt>
      <trkpt lat="43.23217" lon="0.88435">
        <ele>394</ele>
        <time>2019-02-17T09:20:57.000Z</time>
      </trkpt>
      <trkpt lat="43.23218" lon="0.88434">
        <ele>394</ele>
        <time>2019-02-17T09:20:59.000Z</time>
      </trkpt>
      <trkpt lat="43.23227" lon="0.88437">
        <ele>393</ele>
        <time>2019-02-17T09:21:01.000Z</time>
      </trkpt>
      <trkpt lat="43.23223" lon="0.8843">
        <ele>393</ele>
        <time>2019-02-17T09:21:03.000Z</time>
      </trkpt>
      <trkpt lat="43.23223" lon="0.88429">
        <ele>393</ele>
        <time>2019-02-17T09:21:05.000Z</time>
      </trkpt>
      <trkpt lat="43.23222" lon="0.8843">
        <ele>393</ele>
        <time>2019-02-17T09:21:07.000Z</time>
      </trkpt>
      <trkpt lat="43.23222" lon="0.88431">
        <ele>393</ele>
        <time>2019-02-17T09:21:09.000Z</time>
      </trkpt>
      <trkpt lat="43.23222" lon="0.88433">
        <ele>393</ele>
        <time>2019-02-17T09:21:11.000Z</time>
      </trkpt>
      <trkpt lat="43.23223" lon="0.88434">
        <ele>393</ele>
        <time>2019-02-17T09:21:13.000Z</time>
      </trkpt>
      <trkpt lat="43.23223" lon="0.88436">
        <ele>393</ele>
        <time>2019-02-17T09:21:15.000Z</time>
      </trkpt>
      <trkpt lat="43.23224" lon="0.88437">
        <ele>393</ele>
        <time>2019-02-17T09:21:17.000Z</time>
      </trkpt>
      <trkpt lat="43.23224" lon="0.88438">
        <ele>393</ele>
        <time>2019-02-17T09:21:19.000Z</time>
      </trkpt>
      <trkpt lat="43.23224" lon="0.88439">
        <ele>393</ele>
        <time>2019-02-17T09:21:21.000Z</time>
      </trkpt>
      <trkpt lat="43.23225" lon="0.88439">
        <ele>393</ele>
        <time>2019-02-17T09:21:23.000Z</time>
      </trkpt>
      <trkpt lat="43.23225" lon="0.8844">
        <ele>393</ele>
        <time>2019-02-17T09:21:25.000Z</time>
      </trkpt>
      <trkpt lat="43.23226" lon="0.8844">
        <ele>393</ele>
        <time>2019-02-17T09:21:27.000Z</time>
      </trkpt>
      <trkpt lat="43.23226" lon="0.88441">
        <ele>393</ele>
        <time>2019-02-17T09:21:29.000Z</time>
      </trkpt>
      <trkpt lat="43.23226" lon="0.88441">
        <ele>393</ele>
        <time>2019-02-17T09:21:31.000Z</time>
      </trkpt>
      <trkpt lat="43.23226" lon="0.88441">
        <ele>393</ele>
        <time>2019-02-17T09:21:33.000Z</time>
      </trkpt>
      <trkpt lat="43.23225" lon="0.88441">
        <ele>393</ele>
        <time>2019-02-17T09:21:35.000Z</time>
      </trkpt>
      <trkpt lat="43.23224" lon="0.88441">
        <ele>393</ele>
        <time>2019-02-17T09:21:37.000Z</time>
      </trkpt>
      <trkpt lat="43.23222" lon="0.8844">
        <ele>394</ele>
        <time>2019-02-17T09:21:39.000Z</time>
      </trkpt>
      <trkpt lat="43.23221" lon="0.88439">
        <ele>394</ele>
        <time>2019-02-17T09:21:41.000Z</time>
      </trkpt>
      <trkpt lat="43.23221" lon="0.88438">
        <ele>394</ele>
        <time>2019-02-17T09:21:43.000Z</time>
      </trkpt>
      <trkpt lat="43.2322" lon="0.88437">
        <ele>394</ele>
        <time>2019-02-17T09:21:45.000Z</time>
      </trkpt>
      <trkpt lat="43.2322" lon="0.88436">
        <ele>394</ele>
        <time>2019-02-17T09:21:47.000Z</time>
      </trkpt>
      <trkpt lat="43.23221" lon="0.88434">
        <ele>394</ele>
        <time>2019-02-17T09:21:49.000Z</time>
      </trkpt>
      <trkpt lat="43.23222" lon="0.88433">
        <ele>393</ele>
        <time>2019-02-17T09:21:51.000Z</time>
      </trkpt>
      <trkpt lat="43.23223" lon="0.88431">
        <ele>393</ele>
        <time>2019-02-17T09:21:53.000Z</time>
      </trkpt>
      <trkpt lat="43.23224" lon="0.88431">
        <ele>393</ele>
        <time>2019-02-17T09:21:55.000Z</time>
      </trkpt>
      <trkpt lat="43.23224" lon="0.88429">
        <ele>393</ele>
        <time>2019-02-17T09:21:57.000Z</time>
      </trkpt>
      <trkpt lat="43.23224" lon="0.88427">
        <ele>393</ele>
        <time>2019-02-17T09:21:59.000Z</time>
      </trkpt>
      <trkpt lat="43.23224" lon="0.88427">
        <ele>393</ele>
        <time>2019-02-17T09:22:01.000Z</time>
      </trkpt>
      <trkpt lat="43.23224" lon="0.88427">
        <ele>393</ele>
        <time>2019-02-17T09:22:03.000Z</time>
      </trkpt>
      <trkpt lat="43.23225" lon="0.88427">
        <ele>393</ele>
        <time>2019-02-17T09:22:05.000Z</time>
      </trkpt>
      <trkpt lat="43.23225" lon="0.88428">
        <ele>393</ele>
        <time>2019-02-17T09:22:07.000Z</time>
      </trkpt>
      <trkpt lat="43.23227" lon="0.88429">
        <ele>393</ele>
        <time>2019-02-17T09:22:09.000Z</time>
      </trkpt>
      <trkpt lat="43.23227" lon="0.88432">
        <ele>393</ele>
        <time>2019-02-17T09:22:11.000Z</time>
      </trkpt>
      <trkpt lat="43.23227" lon="0.88435">
        <ele>393</ele>
        <time>2019-02-17T09:22:13.000Z</time>
      </trkpt>
      <trkpt lat="43.23227" lon="0.88438">
        <ele>393</ele>
        <time>2019-02-17T09:22:15.000Z</time>
      </trkpt>
      <trkpt lat="43.23228" lon="0.88442">
        <ele>393</ele>
        <time>2019-02-17T09:22:17.000Z</time>
      </trkpt>
      <trkpt lat="43.23228" lon="0.88446">
        <ele>393</ele>
        <time>2019-02-17T09:22:19.000Z</time>
      </trkpt>
      <trkpt lat="43.23227" lon="0.88449">
        <ele>394</ele>
        <time>2019-02-17T09:22:21.000Z</time>
      </trkpt>
      <trkpt lat="43.23226" lon="0.88452">
        <ele>394</ele>
        <time>2019-02-17T09:22:23.000Z</time>
      </trkpt>
      <trkpt lat="43.23225" lon="0.88454">
        <ele>394</ele>
        <time>2019-02-17T09:22:25.000Z</time>
      </trkpt>
      <trkpt lat="43.23225" lon="0.88457">
        <ele>394</ele>
        <time>2019-02-17T09:22:27.000Z</time>
      </trkpt>
      <trkpt lat="43.23225" lon="0.88459">
        <ele>394</ele>
        <time>2019-02-17T09:22:29.000Z</time>
      </trkpt>
      <trkpt lat="43.23225" lon="0.8846">
        <ele>395</ele>
        <time>2019-02-17T09:22:31.000Z</time>
      </trkpt>
      <trkpt lat="43.23224" lon="0.8846">
        <ele>395</ele>
        <time>2019-02-17T09:22:33.000Z</time>
      </trkpt>
      <trkpt lat="43.23226" lon="0.8846">
        <ele>394</ele>
        <time>2019-02-17T09:22:35.000Z</time>
      </trkpt>
      <trkpt lat="43.23226" lon="0.88461">
        <ele>394</ele>
        <time>2019-02-17T09:22:37.000Z</time>
      </trkpt>
      <trkpt lat="43.23227" lon="0.88461">
        <ele>394</ele>
        <time>2019-02-17T09:22:39.000Z</time>
      </trkpt>
      <trkpt lat="43.23227" lon="0.88463">
        <ele>394</ele>
        <time>2019-02-17T09:22:41.000Z</time>
      </trkpt>
      <trkpt lat="43.23227" lon="0.88463">
        <ele>394</ele>
        <time>2019-02-17T09:22:43.000Z</time>
      </trkpt>
      <trkpt lat="43.23227" lon="0.88464">
        <ele>394</ele>
        <time>2019-02-17T09:22:45.000Z</time>
      </trkpt>
      <trkpt lat="43.23227" lon="0.88465">
        <ele>394</ele>
        <time>2019-02-17T09:22:47.000Z</time>
      </trkpt>
      <trkpt lat="43.23227" lon="0.88466">
        <ele>395</ele>
        <time>2019-02-17T09:22:49.000Z</time>
      </trkpt>
      <trkpt lat="43.23227" lon="0.88466">
        <ele>395</ele>
        <time>2019-02-17T09:22:51.000Z</time>
      </trkpt>
      <trkpt lat="43.23227" lon="0.88467">
        <ele>395</ele>
        <time>2019-02-17T09:22:53.000Z</time>
      </trkpt>
      <trkpt lat="43.23227" lon="0.88467">
        <ele>395</ele>
        <time>2019-02-17T09:22:55.000Z</time>
      </trkpt>
      <trkpt lat="43.23228" lon="0.88467">
        <ele>394</ele>
        <time>2019-02-17T09:22:57.000Z</time>
      </trkpt>
      <trkpt lat="43.23227" lon="0.88467">
        <ele>395</ele>
        <time>2019-02-17T09:22:59.000Z</time>
      </trkpt>
      <trkpt lat="43.23227" lon="0.88467">
        <ele>395</ele>
        <time>2019-02-17T09:23:01.000Z</time>
      </trkpt>
      <trkpt lat="43.23227" lon="0.88468">
        <ele>395</ele>
        <time>2019-02-17T09:23:03.000Z</time>
      </trkpt>
      <trkpt lat="43.23227" lon="0.88467">
        <ele>395</ele>
        <time>2019-02-17T09:23:05.000Z</time>
      </trkpt>
      <trkpt lat="43.23227" lon="0.88467">
        <ele>395</ele>
        <time>2019-02-17T09:23:07.000Z</time>
      </trkpt>
      <trkpt lat="43.23227" lon="0.88467">
        <ele>395</ele>
        <time>2019-02-17T09:23:09.000Z</time>
      </trkpt>
      <trkpt lat="43.23227" lon="0.88467">
        <ele>395</ele>
        <time>2019-02-17T09:23:11.000Z</time>
      </trkpt>
      <trkpt lat="43.23227" lon="0.88467">
        <ele>395</ele>
        <time>2019-02-17T09:23:13.000Z</time>
      </trkpt>
      <trkpt lat="43.23227" lon="0.88467">
        <ele>394</ele>
        <time>2019-02-17T09:23:15.000Z</time>
      </trkpt>
      <trkpt lat="43.23228" lon="0.88467">
        <ele>394</ele>
        <time>2019-02-17T09:23:17.000Z</time>
      </trkpt>
      <trkpt lat="43.23228" lon="0.88467">
        <ele>394</ele>
        <time>2019-02-17T09:23:19.000Z</time>
      </trkpt>
      <trkpt lat="43.23229" lon="0.88467">
        <ele>394</ele>
        <time>2019-02-17T09:23:21.000Z</time>
      </trkpt>
      <trkpt lat="43.2323" lon="0.88468">
        <ele>394</ele>
        <time>2019-02-17T09:23:23.000Z</time>
      </trkpt>
      <trkpt lat="43.2323" lon="0.88469">
        <ele>394</ele>
        <time>2019-02-17T09:23:25.000Z</time>
      </trkpt>
      <trkpt lat="43.2323" lon="0.8847">
        <ele>394</ele>
        <time>2019-02-17T09:23:27.000Z</time>
      </trkpt>
      <trkpt lat="43.23231" lon="0.8847">
        <ele>394</ele>
        <time>2019-02-17T09:23:29.000Z</time>
      </trkpt>
      <trkpt lat="43.23232" lon="0.88471">
        <ele>394</ele>
        <time>2019-02-17T09:23:31.000Z</time>
      </trkpt>
      <trkpt lat="43.23232" lon="0.88471">
        <ele>394</ele>
        <time>2019-02-17T09:23:33.000Z</time>
      </trkpt>
      <trkpt lat="43.23233" lon="0.88471">
        <ele>394</ele>
        <time>2019-02-17T09:23:35.000Z</time>
      </trkpt>
      <trkpt lat="43.23232" lon="0.88471">
        <ele>394</ele>
        <time>2019-02-17T09:23:37.000Z</time>
      </trkpt>
      <trkpt lat="43.23233" lon="0.8847">
        <ele>394</ele>
        <time>2019-02-17T09:23:39.000Z</time>
      </trkpt>
      <trkpt lat="43.23232" lon="0.8847">
        <ele>394</ele>
        <time>2019-02-17T09:23:41.000Z</time>
      </trkpt>
      <trkpt lat="43.23233" lon="0.88471">
        <ele>394</ele>
        <time>2019-02-17T09:23:43.000Z</time>
      </trkpt>
      <trkpt lat="43.23232" lon="0.88472">
        <ele>394</ele>
        <time>2019-02-17T09:23:45.000Z</time>
      </trkpt>
      <trkpt lat="43.23233" lon="0.88472">
        <ele>394</ele>
        <time>2019-02-17T09:23:47.000Z</time>
      </trkpt>
      <trkpt lat="43.23234" lon="0.88472">
        <ele>394</ele>
        <time>2019-02-17T09:23:49.000Z</time>
      </trkpt>
      <trkpt lat="43.23234" lon="0.88473">
        <ele>394</ele>
        <time>2019-02-17T09:23:51.000Z</time>
      </trkpt>
      <trkpt lat="43.23235" lon="0.88474">
        <ele>394</ele>
        <time>2019-02-17T09:23:53.000Z</time>
      </trkpt>
      <trkpt lat="43.23235" lon="0.88475">
        <ele>394</ele>
        <time>2019-02-17T09:23:55.000Z</time>
      </trkpt>
      <trkpt lat="43.23236" lon="0.88476">
        <ele>393</ele>
        <time>2019-02-17T09:23:57.000Z</time>
      </trkpt>
      <trkpt lat="43.23237" lon="0.88477">
        <ele>393</ele>
        <time>2019-02-17T09:23:59.000Z</time>
      </trkpt>
      <trkpt lat="43.23238" lon="0.88477">
        <ele>393</ele>
        <time>2019-02-17T09:24:01.000Z</time>
      </trkpt>
      <trkpt lat="43.23239" lon="0.88478">
        <ele>393</ele>
        <time>2019-02-17T09:24:03.000Z</time>
      </trkpt>
      <trkpt lat="43.23239" lon="0.8848">
        <ele>393</ele>
        <time>2019-02-17T09:24:05.000Z</time>
      </trkpt>
      <trkpt lat="43.23241" lon="0.88481">
        <ele>393</ele>
        <time>2019-02-17T09:24:07.000Z</time>
      </trkpt>
      <trkpt lat="43.23243" lon="0.88482">
        <ele>393</ele>
        <time>2019-02-17T09:24:09.000Z</time>
      </trkpt>
      <trkpt lat="43.23244" lon="0.88483">
        <ele>392</ele>
        <time>2019-02-17T09:24:11.000Z</time>
      </trkpt>
      <trkpt lat="43.23246" lon="0.88483">
        <ele>392</ele>
        <time>2019-02-17T09:24:13.000Z</time>
      </trkpt>
      <trkpt lat="43.23247" lon="0.88484">
        <ele>392</ele>
        <time>2019-02-17T09:24:15.000Z</time>
      </trkpt>
      <trkpt lat="43.23249" lon="0.88484">
        <ele>392</ele>
        <time>2019-02-17T09:24:17.000Z</time>
      </trkpt>
      <trkpt lat="43.23249" lon="0.88486">
        <ele>392</ele>
        <time>2019-02-17T09:24:19.000Z</time>
      </trkpt>
      <trkpt lat="43.23251" lon="0.88487">
        <ele>391</ele>
        <time>2019-02-17T09:24:21.000Z</time>
      </trkpt>
      <trkpt lat="43.23251" lon="0.88489">
        <ele>391</ele>
        <time>2019-02-17T09:24:23.000Z</time>
      </trkpt>
      <trkpt lat="43.23252" lon="0.88491">
        <ele>391</ele>
        <time>2019-02-17T09:24:25.000Z</time>
      </trkpt>
      <trkpt lat="43.23254" lon="0.88492">
        <ele>391</ele>
        <time>2019-02-17T09:24:27.000Z</time>
      </trkpt>
      <trkpt lat="43.23254" lon="0.88494">
        <ele>391</ele>
        <time>2019-02-17T09:24:29.000Z</time>
      </trkpt>
      <trkpt lat="43.23254" lon="0.88495">
        <ele>391</ele>
        <time>2019-02-17T09:24:31.000Z</time>
      </trkpt>
      <trkpt lat="43.23255" lon="0.88496">
        <ele>391</ele>
        <time>2019-02-17T09:24:33.000Z</time>
      </trkpt>
      <trkpt lat="43.23256" lon="0.88497">
        <ele>391</ele>
        <time>2019-02-17T09:24:35.000Z</time>
      </trkpt>
      <trkpt lat="43.23256" lon="0.88497">
        <ele>391</ele>
        <time>2019-02-17T09:24:37.000Z</time>
      </trkpt>
      <trkpt lat="43.23257" lon="0.88498">
        <ele>391</ele>
        <time>2019-02-17T09:24:39.000Z</time>
      </trkpt>
      <trkpt lat="43.23258" lon="0.885">
        <ele>391</ele>
        <time>2019-02-17T09:24:41.000Z</time>
      </trkpt>
      <trkpt lat="43.23259" lon="0.88501">
        <ele>391</ele>
        <time>2019-02-17T09:24:43.000Z</time>
      </trkpt>
      <trkpt lat="43.23259" lon="0.88502">
        <ele>391</ele>
        <time>2019-02-17T09:24:45.000Z</time>
      </trkpt>
      <trkpt lat="43.23261" lon="0.88503">
        <ele>390</ele>
        <time>2019-02-17T09:24:47.000Z</time>
      </trkpt>
      <trkpt lat="43.23263" lon="0.88504">
        <ele>390</ele>
        <time>2019-02-17T09:24:49.000Z</time>
      </trkpt>
      <trkpt lat="43.23264" lon="0.88505">
        <ele>390</ele>
        <time>2019-02-17T09:24:51.000Z</time>
      </trkpt>
      <trkpt lat="43.23266" lon="0.88505">
        <ele>389</ele>
        <time>2019-02-17T09:24:53.000Z</time>
      </trkpt>
      <trkpt lat="43.23267" lon="0.88506">
        <ele>389</ele>
        <time>2019-02-17T09:24:55.000Z</time>
      </trkpt>
      <trkpt lat="43.23269" lon="0.88506">
        <ele>389</ele>
        <time>2019-02-17T09:24:57.000Z</time>
      </trkpt>
      <trkpt lat="43.2327" lon="0.88504">
        <ele>389</ele>
        <time>2019-02-17T09:24:59.000Z</time>
      </trkpt>
      <trkpt lat="43.23271" lon="0.88503">
        <ele>388</ele>
        <time>2019-02-17T09:25:01.000Z</time>
      </trkpt>
      <trkpt lat="43.23273" lon="0.88502">
        <ele>388</ele>
        <time>2019-02-17T09:25:03.000Z</time>
      </trkpt>
      <trkpt lat="43.23274" lon="0.88501">
        <ele>388</ele>
        <time>2019-02-17T09:25:05.000Z</time>
      </trkpt>
      <trkpt lat="43.23275" lon="0.885">
        <ele>388</ele>
        <time>2019-02-17T09:25:07.000Z</time>
      </trkpt>
      <trkpt lat="43.23276" lon="0.88499">
        <ele>387</ele>
        <time>2019-02-17T09:25:09.000Z</time>
      </trkpt>
      <trkpt lat="43.23277" lon="0.88497">
        <ele>387</ele>
        <time>2019-02-17T09:25:11.000Z</time>
      </trkpt>
      <trkpt lat="43.23278" lon="0.88496">
        <ele>387</ele>
        <time>2019-02-17T09:25:13.000Z</time>
      </trkpt>
      <trkpt lat="43.23279" lon="0.88495">
        <ele>387</ele>
        <time>2019-02-17T09:25:15.000Z</time>
      </trkpt>
      <trkpt lat="43.2328" lon="0.88494">
        <ele>386</ele>
        <time>2019-02-17T09:25:17.000Z</time>
      </trkpt>
      <trkpt lat="43.2328" lon="0.88492">
        <ele>386</ele>
        <time>2019-02-17T09:25:19.000Z</time>
      </trkpt>
      <trkpt lat="43.2328" lon="0.88491">
        <ele>386</ele>
        <time>2019-02-17T09:25:21.000Z</time>
      </trkpt>
      <trkpt lat="43.23281" lon="0.88489">
        <ele>386</ele>
        <time>2019-02-17T09:25:23.000Z</time>
      </trkpt>
      <trkpt lat="43.23283" lon="0.88485">
        <ele>385</ele>
        <time>2019-02-17T09:25:25.000Z</time>
      </trkpt>
      <trkpt lat="43.23285" lon="0.88483">
        <ele>385</ele>
        <time>2019-02-17T09:25:27.000Z</time>
      </trkpt>
      <trkpt lat="43.23287" lon="0.8848">
        <ele>384</ele>
        <time>2019-02-17T09:25:29.000Z</time>
      </trkpt>
      <trkpt lat="43.23289" lon="0.88478">
        <ele>384</ele>
        <time>2019-02-17T09:25:31.000Z</time>
      </trkpt>
      <trkpt lat="43.2329" lon="0.88476">
        <ele>384</ele>
        <time>2019-02-17T09:25:33.000Z</time>
      </trkpt>
      <trkpt lat="43.23292" lon="0.88474">
        <ele>383</ele>
        <time>2019-02-17T09:25:35.000Z</time>
      </trkpt>
      <trkpt lat="43.23293" lon="0.88472">
        <ele>383</ele>
        <time>2019-02-17T09:25:37.000Z</time>
      </trkpt>
      <trkpt lat="43.23294" lon="0.8847">
        <ele>383</ele>
        <time>2019-02-17T09:25:39.000Z</time>
      </trkpt>
      <trkpt lat="43.23296" lon="0.88468">
        <ele>383</ele>
        <time>2019-02-17T09:25:41.000Z</time>
      </trkpt>
      <trkpt lat="43.23297" lon="0.88466">
        <ele>382</ele>
        <time>2019-02-17T09:25:43.000Z</time>
      </trkpt>
      <trkpt lat="43.23298" lon="0.88464">
        <ele>382</ele>
        <time>2019-02-17T09:25:45.000Z</time>
      </trkpt>
      <trkpt lat="43.23299" lon="0.88464">
        <ele>382</ele>
        <time>2019-02-17T09:25:47.000Z</time>
      </trkpt>
      <trkpt lat="43.233" lon="0.88463">
        <ele>382</ele>
        <time>2019-02-17T09:25:49.000Z</time>
      </trkpt>
      <trkpt lat="43.233" lon="0.88463">
        <ele>382</ele>
        <time>2019-02-17T09:25:51.000Z</time>
      </trkpt>
      <trkpt lat="43.233" lon="0.88463">
        <ele>382</ele>
        <time>2019-02-17T09:25:53.000Z</time>
      </trkpt>
      <trkpt lat="43.23302" lon="0.88463">
        <ele>382</ele>
        <time>2019-02-17T09:25:55.000Z</time>
      </trkpt>
      <trkpt lat="43.23305" lon="0.88463">
        <ele>381</ele>
        <time>2019-02-17T09:25:57.000Z</time>
      </trkpt>
      <trkpt lat="43.23308" lon="0.88462">
        <ele>380</ele>
        <time>2019-02-17T09:25:59.000Z</time>
      </trkpt>
      <trkpt lat="43.2331" lon="0.88462">
        <ele>380</ele>
        <time>2019-02-17T09:26:01.000Z</time>
      </trkpt>
      <trkpt lat="43.2331" lon="0.88463">
        <ele>380</ele>
        <time>2019-02-17T09:26:03.000Z</time>
      </trkpt>
      <trkpt lat="43.23311" lon="0.88464">
        <ele>380</ele>
        <time>2019-02-17T09:26:05.000Z</time>
      </trkpt>
      <trkpt lat="43.23312" lon="0.88464">
        <ele>380</ele>
        <time>2019-02-17T09:26:07.000Z</time>
      </trkpt>
      <trkpt lat="43.23313" lon="0.88463">
        <ele>379</ele>
        <time>2019-02-17T09:26:09.000Z</time>
      </trkpt>
      <trkpt lat="43.23313" lon="0.88462">
        <ele>379</ele>
        <time>2019-02-17T09:26:11.000Z</time>
      </trkpt>
      <trkpt lat="43.23314" lon="0.88462">
        <ele>379</ele>
        <time>2019-02-17T09:26:13.000Z</time>
      </trkpt>
      <trkpt lat="43.23315" lon="0.88462">
        <ele>379</ele>
        <time>2019-02-17T09:26:15.000Z</time>
      </trkpt>
      <trkpt lat="43.23316" lon="0.88462">
        <ele>379</ele>
        <time>2019-02-17T09:26:17.000Z</time>
      </trkpt>
      <trkpt lat="43.23318" lon="0.88462">
        <ele>378</ele>
        <time>2019-02-17T09:26:19.000Z</time>
      </trkpt>
      <trkpt lat="43.2332" lon="0.88462">
        <ele>378</ele>
        <time>2019-02-17T09:26:21.000Z</time>
      </trkpt>
      <trkpt lat="43.2332" lon="0.88462">
        <ele>378</ele>
        <time>2019-02-17T09:26:23.000Z</time>
      </trkpt>
      <trkpt lat="43.23321" lon="0.88462">
        <ele>378</ele>
        <time>2019-02-17T09:26:25.000Z</time>
      </trkpt>
      <trkpt lat="43.23321" lon="0.88461">
        <ele>378</ele>
        <time>2019-02-17T09:26:27.000Z</time>
      </trkpt>
      <trkpt lat="43.23322" lon="0.88461">
        <ele>378</ele>
        <time>2019-02-17T09:26:29.000Z</time>
      </trkpt>
      <trkpt lat="43.23324" lon="0.88461">
        <ele>377</ele>
        <time>2019-02-17T09:26:31.000Z</time>
      </trkpt>
      <trkpt lat="43.23325" lon="0.88461">
        <ele>377</ele>
        <time>2019-02-17T09:26:33.000Z</time>
      </trkpt>
      <trkpt lat="43.23328" lon="0.88461">
        <ele>377</ele>
        <time>2019-02-17T09:26:35.000Z</time>
      </trkpt>
      <trkpt lat="43.23329" lon="0.88461">
        <ele>376</ele>
        <time>2019-02-17T09:26:37.000Z</time>
      </trkpt>
      <trkpt lat="43.2333" lon="0.88462">
        <ele>376</ele>
        <time>2019-02-17T09:26:39.000Z</time>
      </trkpt>
      <trkpt lat="43.23332" lon="0.88462">
        <ele>376</ele>
        <time>2019-02-17T09:26:41.000Z</time>
      </trkpt>
      <trkpt lat="43.23334" lon="0.88462">
        <ele>375</ele>
        <time>2019-02-17T09:26:43.000Z</time>
      </trkpt>
      <trkpt lat="43.23337" lon="0.88463">
        <ele>375</ele>
        <time>2019-02-17T09:26:45.000Z</time>
      </trkpt>
      <trkpt lat="43.2334" lon="0.88464">
        <ele>375</ele>
        <time>2019-02-17T09:26:47.000Z</time>
      </trkpt>
      <trkpt lat="43.23341" lon="0.88465">
        <ele>374</ele>
        <time>2019-02-17T09:26:49.000Z</time>
      </trkpt>
      <trkpt lat="43.23344" lon="0.88465">
        <ele>374</ele>
        <time>2019-02-17T09:26:51.000Z</time>
      </trkpt>
      <trkpt lat="43.23346" lon="0.88466">
        <ele>374</ele>
        <time>2019-02-17T09:26:53.000Z</time>
      </trkpt>
      <trkpt lat="43.23347" lon="0.88467">
        <ele>374</ele>
        <time>2019-02-17T09:26:55.000Z</time>
      </trkpt>
      <trkpt lat="43.23349" lon="0.88468">
        <ele>373</ele>
        <time>2019-02-17T09:26:57.000Z</time>
      </trkpt>
      <trkpt lat="43.23351" lon="0.88468">
        <ele>373</ele>
        <time>2019-02-17T09:26:59.000Z</time>
      </trkpt>
      <trkpt lat="43.23353" lon="0.88469">
        <ele>373</ele>
        <time>2019-02-17T09:27:01.000Z</time>
      </trkpt>
      <trkpt lat="43.23355" lon="0.88471">
        <ele>373</ele>
        <time>2019-02-17T09:27:03.000Z</time>
      </trkpt>
      <trkpt lat="43.23356" lon="0.88472">
        <ele>372</ele>
        <time>2019-02-17T09:27:05.000Z</time>
      </trkpt>
      <trkpt lat="43.23358" lon="0.88474">
        <ele>372</ele>
        <time>2019-02-17T09:27:07.000Z</time>
      </trkpt>
      <trkpt lat="43.2336" lon="0.88475">
        <ele>372</ele>
        <time>2019-02-17T09:27:09.000Z</time>
      </trkpt>
      <trkpt lat="43.23361" lon="0.88475">
        <ele>372</ele>
        <time>2019-02-17T09:27:11.000Z</time>
      </trkpt>
      <trkpt lat="43.23363" lon="0.88476">
        <ele>372</ele>
        <time>2019-02-17T09:27:13.000Z</time>
      </trkpt>
      <trkpt lat="43.23364" lon="0.88476">
        <ele>372</ele>
        <time>2019-02-17T09:27:15.000Z</time>
      </trkpt>
      <trkpt lat="43.23366" lon="0.88477">
        <ele>372</ele>
        <time>2019-02-17T09:27:17.000Z</time>
      </trkpt>
      <trkpt lat="43.23367" lon="0.88477">
        <ele>371</ele>
        <time>2019-02-17T09:27:19.000Z</time>
      </trkpt>
      <trkpt lat="43.23368" lon="0.88479">
        <ele>371</ele>
        <time>2019-02-17T09:27:21.000Z</time>
      </trkpt>
      <trkpt lat="43.23369" lon="0.88479">
        <ele>371</ele>
        <time>2019-02-17T09:27:23.000Z</time>
      </trkpt>
      <trkpt lat="43.2337" lon="0.88479">
        <ele>371</ele>
        <time>2019-02-17T09:27:25.000Z</time>
      </trkpt>
      <trkpt lat="43.23373" lon="0.8848">
        <ele>371</ele>
        <time>2019-02-17T09:27:27.000Z</time>
      </trkpt>
      <trkpt lat="43.23374" lon="0.8848">
        <ele>371</ele>
        <time>2019-02-17T09:27:29.000Z</time>
      </trkpt>
      <trkpt lat="43.23376" lon="0.8848">
        <ele>371</ele>
        <time>2019-02-17T09:27:31.000Z</time>
      </trkpt>
      <trkpt lat="43.23378" lon="0.8848">
        <ele>371</ele>
        <time>2019-02-17T09:27:33.000Z</time>
      </trkpt>
      <trkpt lat="43.2338" lon="0.88481">
        <ele>370</ele>
        <time>2019-02-17T09:27:35.000Z</time>
      </trkpt>
      <trkpt lat="43.23382" lon="0.88481">
        <ele>370</ele>
        <time>2019-02-17T09:27:37.000Z</time>
      </trkpt>
      <trkpt lat="43.23383" lon="0.8848">
        <ele>370</ele>
        <time>2019-02-17T09:27:39.000Z</time>
      </trkpt>
      <trkpt lat="43.23385" lon="0.88479">
        <ele>370</ele>
        <time>2019-02-17T09:27:41.000Z</time>
      </trkpt>
      <trkpt lat="43.23387" lon="0.88477">
        <ele>370</ele>
        <time>2019-02-17T09:27:43.000Z</time>
      </trkpt>
      <trkpt lat="43.2339" lon="0.88477">
        <ele>370</ele>
        <time>2019-02-17T09:27:45.000Z</time>
      </trkpt>
      <trkpt lat="43.23394" lon="0.88477">
        <ele>370</ele>
        <time>2019-02-17T09:27:47.000Z</time>
      </trkpt>
      <trkpt lat="43.23395" lon="0.88477">
        <ele>370</ele>
        <time>2019-02-17T09:27:49.000Z</time>
      </trkpt>
      <trkpt lat="43.23397" lon="0.88476">
        <ele>370</ele>
        <time>2019-02-17T09:27:51.000Z</time>
      </trkpt>
      <trkpt lat="43.23398" lon="0.88476">
        <ele>370</ele>
        <time>2019-02-17T09:27:53.000Z</time>
      </trkpt>
      <trkpt lat="43.234" lon="0.88476">
        <ele>370</ele>
        <time>2019-02-17T09:27:55.000Z</time>
      </trkpt>
      <trkpt lat="43.23401" lon="0.88476">
        <ele>370</ele>
        <time>2019-02-17T09:27:57.000Z</time>
      </trkpt>
      <trkpt lat="43.23403" lon="0.88476">
        <ele>369</ele>
        <time>2019-02-17T09:27:59.000Z</time>
      </trkpt>
      <trkpt lat="43.23405" lon="0.88476">
        <ele>369</ele>
        <time>2019-02-17T09:28:01.000Z</time>
      </trkpt>
      <trkpt lat="43.23406" lon="0.88476">
        <ele>369</ele>
        <time>2019-02-17T09:28:03.000Z</time>
      </trkpt>
      <trkpt lat="43.23408" lon="0.88475">
        <ele>369</ele>
        <time>2019-02-17T09:28:05.000Z</time>
      </trkpt>
      <trkpt lat="43.2341" lon="0.88475">
        <ele>369</ele>
        <time>2019-02-17T09:28:07.000Z</time>
      </trkpt>
      <trkpt lat="43.23412" lon="0.88474">
        <ele>369</ele>
        <time>2019-02-17T09:28:09.000Z</time>
      </trkpt>
      <trkpt lat="43.23414" lon="0.88474">
        <ele>369</ele>
        <time>2019-02-17T09:28:11.000Z</time>
      </trkpt>
      <trkpt lat="43.23416" lon="0.88473">
        <ele>369</ele>
        <time>2019-02-17T09:28:13.000Z</time>
      </trkpt>
      <trkpt lat="43.23417" lon="0.88473">
        <ele>369</ele>
        <time>2019-02-17T09:28:15.000Z</time>
      </trkpt>
      <trkpt lat="43.23418" lon="0.88471">
        <ele>369</ele>
        <time>2019-02-17T09:28:17.000Z</time>
      </trkpt>
      <trkpt lat="43.23419" lon="0.88471">
        <ele>369</ele>
        <time>2019-02-17T09:28:19.000Z</time>
      </trkpt>
      <trkpt lat="43.23421" lon="0.8847">
        <ele>369</ele>
        <time>2019-02-17T09:28:21.000Z</time>
      </trkpt>
      <trkpt lat="43.23423" lon="0.88469">
        <ele>369</ele>
        <time>2019-02-17T09:28:23.000Z</time>
      </trkpt>
      <trkpt lat="43.23425" lon="0.88469">
        <ele>369</ele>
        <time>2019-02-17T09:28:25.000Z</time>
      </trkpt>
      <trkpt lat="43.23428" lon="0.88468">
        <ele>368</ele>
        <time>2019-02-17T09:28:27.000Z</time>
      </trkpt>
      <trkpt lat="43.2343" lon="0.88467">
        <ele>368</ele>
        <time>2019-02-17T09:28:29.000Z</time>
      </trkpt>
      <trkpt lat="43.23433" lon="0.88467">
        <ele>368</ele>
        <time>2019-02-17T09:28:31.000Z</time>
      </trkpt>
      <trkpt lat="43.23433" lon="0.88466">
        <ele>368</ele>
        <time>2019-02-17T09:28:33.000Z</time>
      </trkpt>
      <trkpt lat="43.23435" lon="0.88464">
        <ele>368</ele>
        <time>2019-02-17T09:28:35.000Z</time>
      </trkpt>
      <trkpt lat="43.23435" lon="0.88464">
        <ele>368</ele>
        <time>2019-02-17T09:28:37.000Z</time>
      </trkpt>
      <trkpt lat="43.23436" lon="0.88463">
        <ele>368</ele>
        <time>2019-02-17T09:28:39.000Z</time>
      </trkpt>
      <trkpt lat="43.23437" lon="0.88462">
        <ele>367</ele>
        <time>2019-02-17T09:28:41.000Z</time>
      </trkpt>
      <trkpt lat="43.2344" lon="0.88462">
        <ele>367</ele>
        <time>2019-02-17T09:28:43.000Z</time>
      </trkpt>
      <trkpt lat="43.23442" lon="0.88461">
        <ele>367</ele>
        <time>2019-02-17T09:28:45.000Z</time>
      </trkpt>
      <trkpt lat="43.23445" lon="0.8846">
        <ele>366</ele>
        <time>2019-02-17T09:28:47.000Z</time>
      </trkpt>
      <trkpt lat="43.23447" lon="0.88459">
        <ele>366</ele>
        <time>2019-02-17T09:28:49.000Z</time>
      </trkpt>
      <trkpt lat="43.23449" lon="0.88458">
        <ele>366</ele>
        <time>2019-02-17T09:28:51.000Z</time>
      </trkpt>
      <trkpt lat="43.23449" lon="0.88456">
        <ele>366</ele>
        <time>2019-02-17T09:28:53.000Z</time>
      </trkpt>
      <trkpt lat="43.23449" lon="0.88454">
        <ele>366</ele>
        <time>2019-02-17T09:28:55.000Z</time>
      </trkpt>
      <trkpt lat="43.23451" lon="0.88453">
        <ele>366</ele>
        <time>2019-02-17T09:28:57.000Z</time>
      </trkpt>
      <trkpt lat="43.23452" lon="0.88452">
        <ele>366</ele>
        <time>2019-02-17T09:28:59.000Z</time>
      </trkpt>
      <trkpt lat="43.23453" lon="0.88451">
        <ele>366</ele>
        <time>2019-02-17T09:29:01.000Z</time>
      </trkpt>
      <trkpt lat="43.23455" lon="0.88449">
        <ele>366</ele>
        <time>2019-02-17T09:29:03.000Z</time>
      </trkpt>
      <trkpt lat="43.23456" lon="0.88448">
        <ele>366</ele>
        <time>2019-02-17T09:29:05.000Z</time>
      </trkpt>
      <trkpt lat="43.23458" lon="0.88446">
        <ele>365</ele>
        <time>2019-02-17T09:29:07.000Z</time>
      </trkpt>
      <trkpt lat="43.23459" lon="0.88445">
        <ele>365</ele>
        <time>2019-02-17T09:29:09.000Z</time>
      </trkpt>
      <trkpt lat="43.2346" lon="0.88445">
        <ele>365</ele>
        <time>2019-02-17T09:29:11.000Z</time>
      </trkpt>
      <trkpt lat="43.23461" lon="0.88443">
        <ele>365</ele>
        <time>2019-02-17T09:29:13.000Z</time>
      </trkpt>
      <trkpt lat="43.23462" lon="0.88442">
        <ele>365</ele>
        <time>2019-02-17T09:29:15.000Z</time>
      </trkpt>
      <trkpt lat="43.23464" lon="0.88441">
        <ele>365</ele>
        <time>2019-02-17T09:29:17.000Z</time>
      </trkpt>
      <trkpt lat="43.23466" lon="0.8844">
        <ele>365</ele>
        <time>2019-02-17T09:29:19.000Z</time>
      </trkpt>
      <trkpt lat="43.23467" lon="0.88439">
        <ele>364</ele>
        <time>2019-02-17T09:29:21.000Z</time>
      </trkpt>
      <trkpt lat="43.23469" lon="0.88439">
        <ele>364</ele>
        <time>2019-02-17T09:29:23.000Z</time>
      </trkpt>
      <trkpt lat="43.2347" lon="0.88439">
        <ele>364</ele>
        <time>2019-02-17T09:29:25.000Z</time>
      </trkpt>
      <trkpt lat="43.23471" lon="0.88438">
        <ele>364</ele>
        <time>2019-02-17T09:29:27.000Z</time>
      </trkpt>
      <trkpt lat="43.23472" lon="0.88438">
        <ele>364</ele>
        <time>2019-02-17T09:29:29.000Z</time>
      </trkpt>
      <trkpt lat="43.23473" lon="0.88438">
        <ele>364</ele>
        <time>2019-02-17T09:29:31.000Z</time>
      </trkpt>
      <trkpt lat="43.23475" lon="0.88439">
        <ele>363</ele>
        <time>2019-02-17T09:29:33.000Z</time>
      </trkpt>
      <trkpt lat="43.23476" lon="0.88439">
        <ele>363</ele>
        <time>2019-02-17T09:29:35.000Z</time>
      </trkpt>
      <trkpt lat="43.2348" lon="0.88439">
        <ele>363</ele>
        <time>2019-02-17T09:29:37.000Z</time>
      </trkpt>
      <trkpt lat="43.23483" lon="0.88439">
        <ele>362</ele>
        <time>2019-02-17T09:29:39.000Z</time>
      </trkpt>
      <trkpt lat="43.23485" lon="0.88441">
        <ele>362</ele>
        <time>2019-02-17T09:29:41.000Z</time>
      </trkpt>
      <trkpt lat="43.23487" lon="0.88442">
        <ele>361</ele>
        <time>2019-02-17T09:29:43.000Z</time>
      </trkpt>
      <trkpt lat="43.2349" lon="0.88444">
        <ele>361</ele>
        <time>2019-02-17T09:29:45.000Z</time>
      </trkpt>
      <trkpt lat="43.23492" lon="0.88445">
        <ele>360</ele>
        <time>2019-02-17T09:29:47.000Z</time>
      </trkpt>
      <trkpt lat="43.23493" lon="0.88446">
        <ele>360</ele>
        <time>2019-02-17T09:29:49.000Z</time>
      </trkpt>
      <trkpt lat="43.23494" lon="0.88447">
        <ele>360</ele>
        <time>2019-02-17T09:29:51.000Z</time>
      </trkpt>
      <trkpt lat="43.23495" lon="0.88449">
        <ele>360</ele>
        <time>2019-02-17T09:29:53.000Z</time>
      </trkpt>
      <trkpt lat="43.23497" lon="0.88451">
        <ele>359</ele>
        <time>2019-02-17T09:29:55.000Z</time>
      </trkpt>
      <trkpt lat="43.23499" lon="0.88452">
        <ele>359</ele>
        <time>2019-02-17T09:29:57.000Z</time>
      </trkpt>
      <trkpt lat="43.235" lon="0.88453">
        <ele>359</ele>
        <time>2019-02-17T09:29:59.000Z</time>
      </trkpt>
      <trkpt lat="43.23501" lon="0.88454">
        <ele>359</ele>
        <time>2019-02-17T09:30:01.000Z</time>
      </trkpt>
      <trkpt lat="43.23502" lon="0.88454">
        <ele>358</ele>
        <time>2019-02-17T09:30:03.000Z</time>
      </trkpt>
      <trkpt lat="43.23504" lon="0.88455">
        <ele>358</ele>
        <time>2019-02-17T09:30:05.000Z</time>
      </trkpt>
      <trkpt lat="43.23504" lon="0.88456">
        <ele>358</ele>
        <time>2019-02-17T09:30:07.000Z</time>
      </trkpt>
      <trkpt lat="43.23506" lon="0.88458">
        <ele>358</ele>
        <time>2019-02-17T09:30:09.000Z</time>
      </trkpt>
      <trkpt lat="43.23507" lon="0.88458">
        <ele>357</ele>
        <time>2019-02-17T09:30:11.000Z</time>
      </trkpt>
      <trkpt lat="43.2351" lon="0.88459">
        <ele>357</ele>
        <time>2019-02-17T09:30:13.000Z</time>
      </trkpt>
      <trkpt lat="43.23512" lon="0.88461">
        <ele>357</ele>
        <time>2019-02-17T09:30:15.000Z</time>
      </trkpt>
      <trkpt lat="43.23513" lon="0.88461">
        <ele>356</ele>
        <time>2019-02-17T09:30:17.000Z</time>
      </trkpt>
      <trkpt lat="43.23514" lon="0.88462">
        <ele>356</ele>
        <time>2019-02-17T09:30:19.000Z</time>
      </trkpt>
      <trkpt lat="43.23516" lon="0.88462">
        <ele>356</ele>
        <time>2019-02-17T09:30:21.000Z</time>
      </trkpt>
      <trkpt lat="43.23518" lon="0.88461">
        <ele>356</ele>
        <time>2019-02-17T09:30:23.000Z</time>
      </trkpt>
      <trkpt lat="43.2352" lon="0.8846">
        <ele>356</ele>
        <time>2019-02-17T09:30:25.000Z</time>
      </trkpt>
      <trkpt lat="43.23522" lon="0.88459">
        <ele>357</ele>
        <time>2019-02-17T09:30:27.000Z</time>
      </trkpt>
      <trkpt lat="43.23524" lon="0.88459">
        <ele>357</ele>
        <time>2019-02-17T09:30:29.000Z</time>
      </trkpt>
      <trkpt lat="43.23524" lon="0.88458">
        <ele>357</ele>
        <time>2019-02-17T09:30:31.000Z</time>
      </trkpt>
      <trkpt lat="43.23525" lon="0.88457">
        <ele>357</ele>
        <time>2019-02-17T09:30:33.000Z</time>
      </trkpt>
      <trkpt lat="43.23527" lon="0.88455">
        <ele>357</ele>
        <time>2019-02-17T09:30:35.000Z</time>
      </trkpt>
      <trkpt lat="43.23527" lon="0.88453">
        <ele>357</ele>
        <time>2019-02-17T09:30:37.000Z</time>
      </trkpt>
      <trkpt lat="43.23528" lon="0.8845">
        <ele>357</ele>
        <time>2019-02-17T09:30:39.000Z</time>
      </trkpt>
      <trkpt lat="43.23529" lon="0.88448">
        <ele>357</ele>
        <time>2019-02-17T09:30:41.000Z</time>
      </trkpt>
      <trkpt lat="43.23529" lon="0.88447">
        <ele>357</ele>
        <time>2019-02-17T09:30:43.000Z</time>
      </trkpt>
      <trkpt lat="43.2353" lon="0.88447">
        <ele>357</ele>
        <time>2019-02-17T09:30:45.000Z</time>
      </trkpt>
      <trkpt lat="43.23532" lon="0.88446">
        <ele>357</ele>
        <time>2019-02-17T09:30:47.000Z</time>
      </trkpt>
      <trkpt lat="43.23534" lon="0.88445">
        <ele>357</ele>
        <time>2019-02-17T09:30:49.000Z</time>
      </trkpt>
      <trkpt lat="43.23536" lon="0.88444">
        <ele>357</ele>
        <time>2019-02-17T09:30:51.000Z</time>
      </trkpt>
      <trkpt lat="43.23537" lon="0.88443">
        <ele>357</ele>
        <time>2019-02-17T09:30:53.000Z</time>
      </trkpt>
      <trkpt lat="43.23537" lon="0.88442">
        <ele>357</ele>
        <time>2019-02-17T09:30:55.000Z</time>
      </trkpt>
      <trkpt lat="43.23539" lon="0.88442">
        <ele>357</ele>
        <time>2019-02-17T09:30:57.000Z</time>
      </trkpt>
      <trkpt lat="43.23541" lon="0.8844">
        <ele>357</ele>
        <time>2019-02-17T09:30:59.000Z</time>
      </trkpt>
      <trkpt lat="43.23541" lon="0.88439">
        <ele>357</ele>
        <time>2019-02-17T09:31:01.000Z</time>
      </trkpt>
      <trkpt lat="43.23542" lon="0.88437">
        <ele>357</ele>
        <time>2019-02-17T09:31:03.000Z</time>
      </trkpt>
      <trkpt lat="43.23543" lon="0.88436">
        <ele>357</ele>
        <time>2019-02-17T09:31:05.000Z</time>
      </trkpt>
      <trkpt lat="43.23543" lon="0.88435">
        <ele>357</ele>
        <time>2019-02-17T09:31:07.000Z</time>
      </trkpt>
      <trkpt lat="43.23544" lon="0.88435">
        <ele>357</ele>
        <time>2019-02-17T09:31:09.000Z</time>
      </trkpt>
      <trkpt lat="43.23545" lon="0.88434">
        <ele>357</ele>
        <time>2019-02-17T09:31:11.000Z</time>
      </trkpt>
      <trkpt lat="43.23547" lon="0.88433">
        <ele>357</ele>
        <time>2019-02-17T09:31:13.000Z</time>
      </trkpt>
      <trkpt lat="43.23548" lon="0.88432">
        <ele>357</ele>
        <time>2019-02-17T09:31:15.000Z</time>
      </trkpt>
      <trkpt lat="43.2355" lon="0.8843">
        <ele>358</ele>
        <time>2019-02-17T09:31:17.000Z</time>
      </trkpt>
      <trkpt lat="43.23553" lon="0.88429">
        <ele>357</ele>
        <time>2019-02-17T09:31:19.000Z</time>
      </trkpt>
      <trkpt lat="43.23555" lon="0.88428">
        <ele>357</ele>
        <time>2019-02-17T09:31:21.000Z</time>
      </trkpt>
      <trkpt lat="43.23558" lon="0.88426">
        <ele>356</ele>
        <time>2019-02-17T09:31:23.000Z</time>
      </trkpt>
      <trkpt lat="43.23561" lon="0.88425">
        <ele>356</ele>
        <time>2019-02-17T09:31:25.000Z</time>
      </trkpt>
      <trkpt lat="43.23563" lon="0.88424">
        <ele>355</ele>
        <time>2019-02-17T09:31:27.000Z</time>
      </trkpt>
      <trkpt lat="43.23566" lon="0.88424">
        <ele>354</ele>
        <time>2019-02-17T09:31:29.000Z</time>
      </trkpt>
      <trkpt lat="43.23568" lon="0.88423">
        <ele>354</ele>
        <time>2019-02-17T09:31:31.000Z</time>
      </trkpt>
      <trkpt lat="43.23571" lon="0.88422">
        <ele>353</ele>
        <time>2019-02-17T09:31:33.000Z</time>
      </trkpt>
      <trkpt lat="43.23573" lon="0.88421">
        <ele>353</ele>
        <time>2019-02-17T09:31:35.000Z</time>
      </trkpt>
      <trkpt lat="43.23575" lon="0.88421">
        <ele>353</ele>
        <time>2019-02-17T09:31:37.000Z</time>
      </trkpt>
      <trkpt lat="43.23578" lon="0.88421">
        <ele>352</ele>
        <time>2019-02-17T09:31:39.000Z</time>
      </trkpt>
      <trkpt lat="43.2358" lon="0.88421">
        <ele>352</ele>
        <time>2019-02-17T09:31:41.000Z</time>
      </trkpt>
      <trkpt lat="43.23583" lon="0.8842">
        <ele>351</ele>
        <time>2019-02-17T09:31:43.000Z</time>
      </trkpt>
      <trkpt lat="43.23584" lon="0.88419">
        <ele>351</ele>
        <time>2019-02-17T09:31:45.000Z</time>
      </trkpt>
      <trkpt lat="43.23586" lon="0.88418">
        <ele>350</ele>
        <time>2019-02-17T09:31:47.000Z</time>
      </trkpt>
      <trkpt lat="43.23587" lon="0.88417">
        <ele>350</ele>
        <time>2019-02-17T09:31:49.000Z</time>
      </trkpt>
      <trkpt lat="43.2359" lon="0.88417">
        <ele>350</ele>
        <time>2019-02-17T09:31:51.000Z</time>
      </trkpt>
      <trkpt lat="43.23592" lon="0.88416">
        <ele>349</ele>
        <time>2019-02-17T09:31:53.000Z</time>
      </trkpt>
      <trkpt lat="43.23594" lon="0.88416">
        <ele>349</ele>
        <time>2019-02-17T09:31:55.000Z</time>
      </trkpt>
      <trkpt lat="43.23596" lon="0.88417">
        <ele>349</ele>
        <time>2019-02-17T09:31:57.000Z</time>
      </trkpt>
      <trkpt lat="43.23598" lon="0.88417">
        <ele>348</ele>
        <time>2019-02-17T09:31:59.000Z</time>
      </trkpt>
      <trkpt lat="43.23601" lon="0.88417">
        <ele>348</ele>
        <time>2019-02-17T09:32:01.000Z</time>
      </trkpt>
      <trkpt lat="43.23603" lon="0.88416">
        <ele>348</ele>
        <time>2019-02-17T09:32:03.000Z</time>
      </trkpt>
      <trkpt lat="43.23604" lon="0.88416">
        <ele>348</ele>
        <time>2019-02-17T09:32:05.000Z</time>
      </trkpt>
      <trkpt lat="43.23606" lon="0.88417">
        <ele>347</ele>
        <time>2019-02-17T09:32:07.000Z</time>
      </trkpt>
      <trkpt lat="43.23608" lon="0.88418">
        <ele>347</ele>
        <time>2019-02-17T09:32:09.000Z</time>
      </trkpt>
      <trkpt lat="43.23609" lon="0.88418">
        <ele>347</ele>
        <time>2019-02-17T09:32:11.000Z</time>
      </trkpt>
      <trkpt lat="43.2361" lon="0.88418">
        <ele>347</ele>
        <time>2019-02-17T09:32:13.000Z</time>
      </trkpt>
      <trkpt lat="43.23611" lon="0.88418">
        <ele>347</ele>
        <time>2019-02-17T09:32:15.000Z</time>
      </trkpt>
      <trkpt lat="43.23614" lon="0.88418">
        <ele>347</ele>
        <time>2019-02-17T09:32:17.000Z</time>
      </trkpt>
      <trkpt lat="43.23616" lon="0.88419">
        <ele>347</ele>
        <time>2019-02-17T09:32:19.000Z</time>
      </trkpt>
      <trkpt lat="43.23617" lon="0.8842">
        <ele>347</ele>
        <time>2019-02-17T09:32:21.000Z</time>
      </trkpt>
      <trkpt lat="43.23619" lon="0.8842">
        <ele>346</ele>
        <time>2019-02-17T09:32:23.000Z</time>
      </trkpt>
      <trkpt lat="43.23621" lon="0.88421">
        <ele>346</ele>
        <time>2019-02-17T09:32:25.000Z</time>
      </trkpt>
      <trkpt lat="43.23622" lon="0.88422">
        <ele>346</ele>
        <time>2019-02-17T09:32:27.000Z</time>
      </trkpt>
      <trkpt lat="43.23624" lon="0.88423">
        <ele>346</ele>
        <time>2019-02-17T09:32:29.000Z</time>
      </trkpt>
      <trkpt lat="43.23626" lon="0.88424">
        <ele>346</ele>
        <time>2019-02-17T09:32:31.000Z</time>
      </trkpt>
      <trkpt lat="43.23627" lon="0.88425">
        <ele>346</ele>
        <time>2019-02-17T09:32:33.000Z</time>
      </trkpt>
      <trkpt lat="43.2363" lon="0.88426">
        <ele>346</ele>
        <time>2019-02-17T09:32:35.000Z</time>
      </trkpt>
      <trkpt lat="43.23635" lon="0.88426">
        <ele>345</ele>
        <time>2019-02-17T09:32:37.000Z</time>
      </trkpt>
      <trkpt lat="43.23637" lon="0.88426">
        <ele>345</ele>
        <time>2019-02-17T09:32:39.000Z</time>
      </trkpt>
      <trkpt lat="43.23639" lon="0.88426">
        <ele>345</ele>
        <time>2019-02-17T09:32:41.000Z</time>
      </trkpt>
      <trkpt lat="43.23641" lon="0.88427">
        <ele>345</ele>
        <time>2019-02-17T09:32:43.000Z</time>
      </trkpt>
      <trkpt lat="43.23644" lon="0.88428">
        <ele>345</ele>
        <time>2019-02-17T09:32:45.000Z</time>
      </trkpt>
      <trkpt lat="43.23646" lon="0.88429">
        <ele>345</ele>
        <time>2019-02-17T09:32:47.000Z</time>
      </trkpt>
      <trkpt lat="43.23647" lon="0.8843">
        <ele>345</ele>
        <time>2019-02-17T09:32:49.000Z</time>
      </trkpt>
      <trkpt lat="43.2365" lon="0.88431">
        <ele>344</ele>
        <time>2019-02-17T09:32:51.000Z</time>
      </trkpt>
      <trkpt lat="43.23651" lon="0.88432">
        <ele>345</ele>
        <time>2019-02-17T09:32:53.000Z</time>
      </trkpt>
      <trkpt lat="43.23652" lon="0.88433">
        <ele>344</ele>
        <time>2019-02-17T09:32:55.000Z</time>
      </trkpt>
      <trkpt lat="43.23655" lon="0.88436">
        <ele>345</ele>
        <time>2019-02-17T09:32:57.000Z</time>
      </trkpt>
      <trkpt lat="43.23657" lon="0.88438">
        <ele>345</ele>
        <time>2019-02-17T09:32:59.000Z</time>
      </trkpt>
      <trkpt lat="43.23658" lon="0.88439">
        <ele>345</ele>
        <time>2019-02-17T09:33:01.000Z</time>
      </trkpt>
      <trkpt lat="43.23659" lon="0.8844">
        <ele>345</ele>
        <time>2019-02-17T09:33:03.000Z</time>
      </trkpt>
      <trkpt lat="43.2366" lon="0.88442">
        <ele>345</ele>
        <time>2019-02-17T09:33:05.000Z</time>
      </trkpt>
      <trkpt lat="43.23661" lon="0.88443">
        <ele>345</ele>
        <time>2019-02-17T09:33:07.000Z</time>
      </trkpt>
      <trkpt lat="43.23662" lon="0.88445">
        <ele>345</ele>
        <time>2019-02-17T09:33:09.000Z</time>
      </trkpt>
      <trkpt lat="43.23663" lon="0.88447">
        <ele>345</ele>
        <time>2019-02-17T09:33:11.000Z</time>
      </trkpt>
      <trkpt lat="43.23663" lon="0.88448">
        <ele>345</ele>
        <time>2019-02-17T09:33:13.000Z</time>
      </trkpt>
      <trkpt lat="43.23663" lon="0.88449">
        <ele>345</ele>
        <time>2019-02-17T09:33:15.000Z</time>
      </trkpt>
      <trkpt lat="43.23663" lon="0.8845">
        <ele>346</ele>
        <time>2019-02-17T09:33:17.000Z</time>
      </trkpt>
      <trkpt lat="43.23664" lon="0.88452">
        <ele>346</ele>
        <time>2019-02-17T09:33:19.000Z</time>
      </trkpt>
      <trkpt lat="43.23664" lon="0.88455">
        <ele>346</ele>
        <time>2019-02-17T09:33:21.000Z</time>
      </trkpt>
      <trkpt lat="43.23664" lon="0.88457">
        <ele>346</ele>
        <time>2019-02-17T09:33:23.000Z</time>
      </trkpt>
      <trkpt lat="43.23666" lon="0.88459">
        <ele>347</ele>
        <time>2019-02-17T09:33:25.000Z</time>
      </trkpt>
      <trkpt lat="43.23667" lon="0.88461">
        <ele>347</ele>
        <time>2019-02-17T09:33:27.000Z</time>
      </trkpt>
      <trkpt lat="43.23669" lon="0.88463">
        <ele>347</ele>
        <time>2019-02-17T09:33:29.000Z</time>
      </trkpt>
      <trkpt lat="43.23671" lon="0.88465">
        <ele>347</ele>
        <time>2019-02-17T09:33:31.000Z</time>
      </trkpt>
      <trkpt lat="43.23672" lon="0.88467">
        <ele>347</ele>
        <time>2019-02-17T09:33:33.000Z</time>
      </trkpt>
      <trkpt lat="43.23673" lon="0.8847">
        <ele>347</ele>
        <time>2019-02-17T09:33:35.000Z</time>
      </trkpt>
      <trkpt lat="43.23674" lon="0.88473">
        <ele>348</ele>
        <time>2019-02-17T09:33:37.000Z</time>
      </trkpt>
      <trkpt lat="43.23675" lon="0.88475">
        <ele>348</ele>
        <time>2019-02-17T09:33:39.000Z</time>
      </trkpt>
      <trkpt lat="43.23676" lon="0.88477">
        <ele>348</ele>
        <time>2019-02-17T09:33:41.000Z</time>
      </trkpt>
      <trkpt lat="43.23678" lon="0.88479">
        <ele>348</ele>
        <time>2019-02-17T09:33:43.000Z</time>
      </trkpt>
      <trkpt lat="43.23679" lon="0.88482">
        <ele>349</ele>
        <time>2019-02-17T09:33:45.000Z</time>
      </trkpt>
      <trkpt lat="43.23681" lon="0.88483">
        <ele>348</ele>
        <time>2019-02-17T09:33:47.000Z</time>
      </trkpt>
      <trkpt lat="43.23683" lon="0.88483">
        <ele>348</ele>
        <time>2019-02-17T09:33:49.000Z</time>
      </trkpt>
      <trkpt lat="43.23683" lon="0.88485">
        <ele>348</ele>
        <time>2019-02-17T09:33:51.000Z</time>
      </trkpt>
      <trkpt lat="43.23685" lon="0.88485">
        <ele>348</ele>
        <time>2019-02-17T09:33:53.000Z</time>
      </trkpt>
      <trkpt lat="43.23687" lon="0.88485">
        <ele>347</ele>
        <time>2019-02-17T09:33:55.000Z</time>
      </trkpt>
      <trkpt lat="43.23689" lon="0.88486">
        <ele>346</ele>
        <time>2019-02-17T09:33:57.000Z</time>
      </trkpt>
      <trkpt lat="43.2369" lon="0.88489">
        <ele>347</ele>
        <time>2019-02-17T09:33:59.000Z</time>
      </trkpt>
      <trkpt lat="43.23691" lon="0.88492">
        <ele>347</ele>
        <time>2019-02-17T09:34:01.000Z</time>
      </trkpt>
      <trkpt lat="43.23693" lon="0.88494">
        <ele>347</ele>
        <time>2019-02-17T09:34:03.000Z</time>
      </trkpt>
      <trkpt lat="43.23695" lon="0.88496">
        <ele>346</ele>
        <time>2019-02-17T09:34:05.000Z</time>
      </trkpt>
      <trkpt lat="43.23697" lon="0.88497">
        <ele>346</ele>
        <time>2019-02-17T09:34:07.000Z</time>
      </trkpt>
      <trkpt lat="43.23697" lon="0.88498">
        <ele>346</ele>
        <time>2019-02-17T09:34:09.000Z</time>
      </trkpt>
      <trkpt lat="43.23698" lon="0.88498">
        <ele>346</ele>
        <time>2019-02-17T09:34:11.000Z</time>
      </trkpt>
      <trkpt lat="43.23699" lon="0.885">
        <ele>346</ele>
        <time>2019-02-17T09:34:13.000Z</time>
      </trkpt>
      <trkpt lat="43.237" lon="0.88502">
        <ele>346</ele>
        <time>2019-02-17T09:34:15.000Z</time>
      </trkpt>
      <trkpt lat="43.23702" lon="0.88504">
        <ele>346</ele>
        <time>2019-02-17T09:34:17.000Z</time>
      </trkpt>
      <trkpt lat="43.23703" lon="0.88506">
        <ele>346</ele>
        <time>2019-02-17T09:34:19.000Z</time>
      </trkpt>
      <trkpt lat="43.23703" lon="0.88508">
        <ele>346</ele>
        <time>2019-02-17T09:34:21.000Z</time>
      </trkpt>
      <trkpt lat="43.23704" lon="0.88509">
        <ele>346</ele>
        <time>2019-02-17T09:34:23.000Z</time>
      </trkpt>
      <trkpt lat="43.23704" lon="0.8851">
        <ele>346</ele>
        <time>2019-02-17T09:34:25.000Z</time>
      </trkpt>
      <trkpt lat="43.23704" lon="0.88512">
        <ele>347</ele>
        <time>2019-02-17T09:34:27.000Z</time>
      </trkpt>
      <trkpt lat="43.23704" lon="0.88513">
        <ele>347</ele>
        <time>2019-02-17T09:34:29.000Z</time>
      </trkpt>
      <trkpt lat="43.23704" lon="0.88515">
        <ele>347</ele>
        <time>2019-02-17T09:34:31.000Z</time>
      </trkpt>
      <trkpt lat="43.23704" lon="0.88517">
        <ele>348</ele>
        <time>2019-02-17T09:34:33.000Z</time>
      </trkpt>
      <trkpt lat="43.23703" lon="0.88519">
        <ele>348</ele>
        <time>2019-02-17T09:34:35.000Z</time>
      </trkpt>
      <trkpt lat="43.23703" lon="0.8852">
        <ele>348</ele>
        <time>2019-02-17T09:34:37.000Z</time>
      </trkpt>
      <trkpt lat="43.23705" lon="0.88522">
        <ele>348</ele>
        <time>2019-02-17T09:34:39.000Z</time>
      </trkpt>
      <trkpt lat="43.23708" lon="0.88524">
        <ele>348</ele>
        <time>2019-02-17T09:34:41.000Z</time>
      </trkpt>
      <trkpt lat="43.23709" lon="0.88527">
        <ele>348</ele>
        <time>2019-02-17T09:34:43.000Z</time>
      </trkpt>
      <trkpt lat="43.2371" lon="0.88529">
        <ele>348</ele>
        <time>2019-02-17T09:34:45.000Z</time>
      </trkpt>
      <trkpt lat="43.23713" lon="0.88531">
        <ele>348</ele>
        <time>2019-02-17T09:34:47.000Z</time>
      </trkpt>
      <trkpt lat="43.23715" lon="0.88534">
        <ele>347</ele>
        <time>2019-02-17T09:34:49.000Z</time>
      </trkpt>
      <trkpt lat="43.23714" lon="0.88537">
        <ele>348</ele>
        <time>2019-02-17T09:34:51.000Z</time>
      </trkpt>
      <trkpt lat="43.23714" lon="0.8854">
        <ele>349</ele>
        <time>2019-02-17T09:34:53.000Z</time>
      </trkpt>
      <trkpt lat="43.23714" lon="0.88542">
        <ele>349</ele>
        <time>2019-02-17T09:34:55.000Z</time>
      </trkpt>
      <trkpt lat="43.23714" lon="0.88544">
        <ele>350</ele>
        <time>2019-02-17T09:34:57.000Z</time>
      </trkpt>
      <trkpt lat="43.23717" lon="0.88545">
        <ele>349</ele>
        <time>2019-02-17T09:34:59.000Z</time>
      </trkpt>
      <trkpt lat="43.23719" lon="0.88546">
        <ele>349</ele>
        <time>2019-02-17T09:35:01.000Z</time>
      </trkpt>
      <trkpt lat="43.23719" lon="0.88549">
        <ele>349</ele>
        <time>2019-02-17T09:35:03.000Z</time>
      </trkpt>
      <trkpt lat="43.23719" lon="0.88553">
        <ele>350</ele>
        <time>2019-02-17T09:35:05.000Z</time>
      </trkpt>
      <trkpt lat="43.23719" lon="0.88556">
        <ele>351</ele>
        <time>2019-02-17T09:35:07.000Z</time>
      </trkpt>
      <trkpt lat="43.23719" lon="0.88559">
        <ele>351</ele>
        <time>2019-02-17T09:35:09.000Z</time>
      </trkpt>
      <trkpt lat="43.23721" lon="0.88561">
        <ele>350</ele>
        <time>2019-02-17T09:35:11.000Z</time>
      </trkpt>
      <trkpt lat="43.23724" lon="0.88562">
        <ele>350</ele>
        <time>2019-02-17T09:35:13.000Z</time>
      </trkpt>
      <trkpt lat="43.23725" lon="0.88564">
        <ele>349</ele>
        <time>2019-02-17T09:35:15.000Z</time>
      </trkpt>
      <trkpt lat="43.23727" lon="0.88567">
        <ele>349</ele>
        <time>2019-02-17T09:35:17.000Z</time>
      </trkpt>
      <trkpt lat="43.23729" lon="0.88569">
        <ele>349</ele>
        <time>2019-02-17T09:35:19.000Z</time>
      </trkpt>
      <trkpt lat="43.23731" lon="0.88572">
        <ele>349</ele>
        <time>2019-02-17T09:35:21.000Z</time>
      </trkpt>
      <trkpt lat="43.23732" lon="0.88573">
        <ele>348</ele>
        <time>2019-02-17T09:35:23.000Z</time>
      </trkpt>
      <trkpt lat="43.23735" lon="0.88574">
        <ele>348</ele>
        <time>2019-02-17T09:35:25.000Z</time>
      </trkpt>
      <trkpt lat="43.23735" lon="0.88576">
        <ele>348</ele>
        <time>2019-02-17T09:35:27.000Z</time>
      </trkpt>
      <trkpt lat="43.23735" lon="0.88579">
        <ele>348</ele>
        <time>2019-02-17T09:35:29.000Z</time>
      </trkpt>
      <trkpt lat="43.23735" lon="0.88582">
        <ele>349</ele>
        <time>2019-02-17T09:35:31.000Z</time>
      </trkpt>
      <trkpt lat="43.23735" lon="0.88582">
        <ele>349</ele>
        <time>2019-02-17T09:35:33.000Z</time>
      </trkpt>
      <trkpt lat="43.23735" lon="0.88584">
        <ele>349</ele>
        <time>2019-02-17T09:35:35.000Z</time>
      </trkpt>
      <trkpt lat="43.23735" lon="0.88587">
        <ele>349</ele>
        <time>2019-02-17T09:35:37.000Z</time>
      </trkpt>
      <trkpt lat="43.23735" lon="0.88589">
        <ele>350</ele>
        <time>2019-02-17T09:35:39.000Z</time>
      </trkpt>
      <trkpt lat="43.23736" lon="0.88591">
        <ele>349</ele>
        <time>2019-02-17T09:35:41.000Z</time>
      </trkpt>
      <trkpt lat="43.23736" lon="0.88593">
        <ele>350</ele>
        <time>2019-02-17T09:35:43.000Z</time>
      </trkpt>
      <trkpt lat="43.23736" lon="0.88594">
        <ele>350</ele>
        <time>2019-02-17T09:35:45.000Z</time>
      </trkpt>
      <trkpt lat="43.23737" lon="0.88596">
        <ele>350</ele>
        <time>2019-02-17T09:35:47.000Z</time>
      </trkpt>
      <trkpt lat="43.23737" lon="0.88598">
        <ele>350</ele>
        <time>2019-02-17T09:35:49.000Z</time>
      </trkpt>
      <trkpt lat="43.23738" lon="0.886">
        <ele>350</ele>
        <time>2019-02-17T09:35:51.000Z</time>
      </trkpt>
      <trkpt lat="43.2374" lon="0.886">
        <ele>349</ele>
        <time>2019-02-17T09:35:53.000Z</time>
      </trkpt>
      <trkpt lat="43.2374" lon="0.88601">
        <ele>349</ele>
        <time>2019-02-17T09:35:55.000Z</time>
      </trkpt>
      <trkpt lat="43.23741" lon="0.88603">
        <ele>349</ele>
        <time>2019-02-17T09:35:57.000Z</time>
      </trkpt>
      <trkpt lat="43.23741" lon="0.88604">
        <ele>349</ele>
        <time>2019-02-17T09:35:59.000Z</time>
      </trkpt>
      <trkpt lat="43.23742" lon="0.88604">
        <ele>349</ele>
        <time>2019-02-17T09:36:01.000Z</time>
      </trkpt>
      <trkpt lat="43.23742" lon="0.88605">
        <ele>349</ele>
        <time>2019-02-17T09:36:03.000Z</time>
      </trkpt>
      <trkpt lat="43.23743" lon="0.88605">
        <ele>349</ele>
        <time>2019-02-17T09:36:05.000Z</time>
      </trkpt>
      <trkpt lat="43.23745" lon="0.88607">
        <ele>349</ele>
        <time>2019-02-17T09:36:07.000Z</time>
      </trkpt>
      <trkpt lat="43.23747" lon="0.88608">
        <ele>348</ele>
        <time>2019-02-17T09:36:09.000Z</time>
      </trkpt>
      <trkpt lat="43.23748" lon="0.8861">
        <ele>348</ele>
        <time>2019-02-17T09:36:11.000Z</time>
      </trkpt>
      <trkpt lat="43.23748" lon="0.88611">
        <ele>348</ele>
        <time>2019-02-17T09:36:13.000Z</time>
      </trkpt>
      <trkpt lat="43.23751" lon="0.88612">
        <ele>347</ele>
        <time>2019-02-17T09:36:15.000Z</time>
      </trkpt>
      <trkpt lat="43.23755" lon="0.88613">
        <ele>346</ele>
        <time>2019-02-17T09:36:17.000Z</time>
      </trkpt>
      <trkpt lat="43.23758" lon="0.88614">
        <ele>345</ele>
        <time>2019-02-17T09:36:19.000Z</time>
      </trkpt>
      <trkpt lat="43.23764" lon="0.88614">
        <ele>343</ele>
        <time>2019-02-17T09:36:21.000Z</time>
      </trkpt>
      <trkpt lat="43.23767" lon="0.88614">
        <ele>342</ele>
        <time>2019-02-17T09:36:23.000Z</time>
      </trkpt>
      <trkpt lat="43.23771" lon="0.88614">
        <ele>341</ele>
        <time>2019-02-17T09:36:25.000Z</time>
      </trkpt>
      <trkpt lat="43.23774" lon="0.88614">
        <ele>340</ele>
        <time>2019-02-17T09:36:27.000Z</time>
      </trkpt>
      <trkpt lat="43.23775" lon="0.88616">
        <ele>340</ele>
        <time>2019-02-17T09:36:29.000Z</time>
      </trkpt>
      <trkpt lat="43.23776" lon="0.88617">
        <ele>340</ele>
        <time>2019-02-17T09:36:31.000Z</time>
      </trkpt>
      <trkpt lat="43.23778" lon="0.88618">
        <ele>339</ele>
        <time>2019-02-17T09:36:33.000Z</time>
      </trkpt>
      <trkpt lat="43.23779" lon="0.88619">
        <ele>339</ele>
        <time>2019-02-17T09:36:35.000Z</time>
      </trkpt>
      <trkpt lat="43.23781" lon="0.8862">
        <ele>338</ele>
        <time>2019-02-17T09:36:37.000Z</time>
      </trkpt>
      <trkpt lat="43.23781" lon="0.88621">
        <ele>338</ele>
        <time>2019-02-17T09:36:39.000Z</time>
      </trkpt>
      <trkpt lat="43.23783" lon="0.88622">
        <ele>338</ele>
        <time>2019-02-17T09:36:41.000Z</time>
      </trkpt>
      <trkpt lat="43.23783" lon="0.88624">
        <ele>338</ele>
        <time>2019-02-17T09:36:43.000Z</time>
      </trkpt>
      <trkpt lat="43.23783" lon="0.88627">
        <ele>338</ele>
        <time>2019-02-17T09:36:45.000Z</time>
      </trkpt>
      <trkpt lat="43.23784" lon="0.88628">
        <ele>338</ele>
        <time>2019-02-17T09:36:47.000Z</time>
      </trkpt>
      <trkpt lat="43.23786" lon="0.88629">
        <ele>338</ele>
        <time>2019-02-17T09:36:49.000Z</time>
      </trkpt>
      <trkpt lat="43.23787" lon="0.88629">
        <ele>337</ele>
        <time>2019-02-17T09:36:51.000Z</time>
      </trkpt>
      <trkpt lat="43.23788" lon="0.8863">
        <ele>337</ele>
        <time>2019-02-17T09:36:53.000Z</time>
      </trkpt>
      <trkpt lat="43.2379" lon="0.8863">
        <ele>337</ele>
        <time>2019-02-17T09:36:55.000Z</time>
      </trkpt>
      <trkpt lat="43.23791" lon="0.8863">
        <ele>336</ele>
        <time>2019-02-17T09:36:57.000Z</time>
      </trkpt>
      <trkpt lat="43.23792" lon="0.8863">
        <ele>336</ele>
        <time>2019-02-17T09:36:59.000Z</time>
      </trkpt>
      <trkpt lat="43.23792" lon="0.8863">
        <ele>336</ele>
        <time>2019-02-17T09:37:01.000Z</time>
      </trkpt>
      <trkpt lat="43.23793" lon="0.88632">
        <ele>336</ele>
        <time>2019-02-17T09:37:03.000Z</time>
      </trkpt>
      <trkpt lat="43.23794" lon="0.88632">
        <ele>335</ele>
        <time>2019-02-17T09:37:05.000Z</time>
      </trkpt>
      <trkpt lat="43.23794" lon="0.88633">
        <ele>335</ele>
        <time>2019-02-17T09:37:07.000Z</time>
      </trkpt>
      <trkpt lat="43.23794" lon="0.88634">
        <ele>336</ele>
        <time>2019-02-17T09:37:09.000Z</time>
      </trkpt>
      <trkpt lat="43.23796" lon="0.88635">
        <ele>335</ele>
        <time>2019-02-17T09:37:11.000Z</time>
      </trkpt>
      <trkpt lat="43.23797" lon="0.88636">
        <ele>335</ele>
        <time>2019-02-17T09:37:13.000Z</time>
      </trkpt>
      <trkpt lat="43.23798" lon="0.88636">
        <ele>335</ele>
        <time>2019-02-17T09:37:15.000Z</time>
      </trkpt>
      <trkpt lat="43.238" lon="0.88637">
        <ele>334</ele>
        <time>2019-02-17T09:37:17.000Z</time>
      </trkpt>
      <trkpt lat="43.23801" lon="0.88638">
        <ele>334</ele>
        <time>2019-02-17T09:37:19.000Z</time>
      </trkpt>
      <trkpt lat="43.23803" lon="0.88639">
        <ele>333</ele>
        <time>2019-02-17T09:37:21.000Z</time>
      </trkpt>
      <trkpt lat="43.23804" lon="0.8864">
        <ele>333</ele>
        <time>2019-02-17T09:37:23.000Z</time>
      </trkpt>
      <trkpt lat="43.23805" lon="0.88641">
        <ele>333</ele>
        <time>2019-02-17T09:37:25.000Z</time>
      </trkpt>
      <trkpt lat="43.23806" lon="0.88641">
        <ele>332</ele>
        <time>2019-02-17T09:37:27.000Z</time>
      </trkpt>
      <trkpt lat="43.23808" lon="0.88642">
        <ele>332</ele>
        <time>2019-02-17T09:37:29.000Z</time>
      </trkpt>
      <trkpt lat="43.23809" lon="0.88643">
        <ele>331</ele>
        <time>2019-02-17T09:37:31.000Z</time>
      </trkpt>
      <trkpt lat="43.23811" lon="0.88643">
        <ele>331</ele>
        <time>2019-02-17T09:37:33.000Z</time>
      </trkpt>
      <trkpt lat="43.23811" lon="0.88643">
        <ele>331</ele>
        <time>2019-02-17T09:37:35.000Z</time>
      </trkpt>
      <trkpt lat="43.23813" lon="0.88644">
        <ele>330</ele>
        <time>2019-02-17T09:37:37.000Z</time>
      </trkpt>
      <trkpt lat="43.23814" lon="0.88645">
        <ele>330</ele>
        <time>2019-02-17T09:37:39.000Z</time>
      </trkpt>
      <trkpt lat="43.23815" lon="0.88646">
        <ele>329</ele>
        <time>2019-02-17T09:37:41.000Z</time>
      </trkpt>
      <trkpt lat="43.23817" lon="0.88646">
        <ele>329</ele>
        <time>2019-02-17T09:37:43.000Z</time>
      </trkpt>
      <trkpt lat="43.23818" lon="0.88647">
        <ele>329</ele>
        <time>2019-02-17T09:37:45.000Z</time>
      </trkpt>
      <trkpt lat="43.23819" lon="0.88647">
        <ele>328</ele>
        <time>2019-02-17T09:37:47.000Z</time>
      </trkpt>
      <trkpt lat="43.23821" lon="0.88648">
        <ele>327</ele>
        <time>2019-02-17T09:37:49.000Z</time>
      </trkpt>
      <trkpt lat="43.23824" lon="0.88649">
        <ele>327</ele>
        <time>2019-02-17T09:37:51.000Z</time>
      </trkpt>
      <trkpt lat="43.23826" lon="0.8865">
        <ele>326</ele>
        <time>2019-02-17T09:37:53.000Z</time>
      </trkpt>
      <trkpt lat="43.23828" lon="0.88651">
        <ele>325</ele>
        <time>2019-02-17T09:37:55.000Z</time>
      </trkpt>
      <trkpt lat="43.23831" lon="0.88652">
        <ele>324</ele>
        <time>2019-02-17T09:37:57.000Z</time>
      </trkpt>
      <trkpt lat="43.23833" lon="0.88653">
        <ele>324</ele>
        <time>2019-02-17T09:37:59.000Z</time>
      </trkpt>
      <trkpt lat="43.23836" lon="0.88654">
        <ele>323</ele>
        <time>2019-02-17T09:38:01.000Z</time>
      </trkpt>
      <trkpt lat="43.23837" lon="0.88655">
        <ele>322</ele>
        <time>2019-02-17T09:38:03.000Z</time>
      </trkpt>
      <trkpt lat="43.23838" lon="0.88655">
        <ele>322</ele>
        <time>2019-02-17T09:38:05.000Z</time>
      </trkpt>
      <trkpt lat="43.2384" lon="0.88655">
        <ele>321</ele>
        <time>2019-02-17T09:38:07.000Z</time>
      </trkpt>
      <trkpt lat="43.23841" lon="0.88656">
        <ele>321</ele>
        <time>2019-02-17T09:38:09.000Z</time>
      </trkpt>
      <trkpt lat="43.23841" lon="0.88657">
        <ele>321</ele>
        <time>2019-02-17T09:38:11.000Z</time>
      </trkpt>
      <trkpt lat="43.23843" lon="0.88657">
        <ele>320</ele>
        <time>2019-02-17T09:38:13.000Z</time>
      </trkpt>
      <trkpt lat="43.23845" lon="0.88658">
        <ele>320</ele>
        <time>2019-02-17T09:38:15.000Z</time>
      </trkpt>
      <trkpt lat="43.23846" lon="0.88658">
        <ele>319</ele>
        <time>2019-02-17T09:38:17.000Z</time>
      </trkpt>
      <trkpt lat="43.23846" lon="0.88658">
        <ele>319</ele>
        <time>2019-02-17T09:38:19.000Z</time>
      </trkpt>
      <trkpt lat="43.23847" lon="0.88657">
        <ele>319</ele>
        <time>2019-02-17T09:38:21.000Z</time>
      </trkpt>
      <trkpt lat="43.23847" lon="0.88657">
        <ele>319</ele>
        <time>2019-02-17T09:38:23.000Z</time>
      </trkpt>
      <trkpt lat="43.23847" lon="0.88656">
        <ele>319</ele>
        <time>2019-02-17T09:38:25.000Z</time>
      </trkpt>
      <trkpt lat="43.23846" lon="0.88656">
        <ele>319</ele>
        <time>2019-02-17T09:38:27.000Z</time>
      </trkpt>
      <trkpt lat="43.23846" lon="0.88657">
        <ele>319</ele>
        <time>2019-02-17T09:38:29.000Z</time>
      </trkpt>
      <trkpt lat="43.23846" lon="0.88658">
        <ele>319</ele>
        <time>2019-02-17T09:38:31.000Z</time>
      </trkpt>
      <trkpt lat="43.23846" lon="0.88659">
        <ele>319</ele>
        <time>2019-02-17T09:38:33.000Z</time>
      </trkpt>
      <trkpt lat="43.23844" lon="0.88661">
        <ele>320</ele>
        <time>2019-02-17T09:38:35.000Z</time>
      </trkpt>
      <trkpt lat="43.23844" lon="0.8866">
        <ele>320</ele>
        <time>2019-02-17T09:38:37.000Z</time>
      </trkpt>
      <trkpt lat="43.23844" lon="0.8866">
        <ele>320</ele>
        <time>2019-02-17T09:38:39.000Z</time>
      </trkpt>
      <trkpt lat="43.23843" lon="0.8866">
        <ele>320</ele>
        <time>2019-02-17T09:38:41.000Z</time>
      </trkpt>
      <trkpt lat="43.2384" lon="0.88661">
        <ele>321</ele>
        <time>2019-02-17T09:38:43.000Z</time>
      </trkpt>
      <trkpt lat="43.23838" lon="0.88662">
        <ele>322</ele>
        <time>2019-02-17T09:38:45.000Z</time>
      </trkpt>
      <trkpt lat="43.23838" lon="0.88661">
        <ele>322</ele>
        <time>2019-02-17T09:38:47.000Z</time>
      </trkpt>
      <trkpt lat="43.23837" lon="0.88661">
        <ele>322</ele>
        <time>2019-02-17T09:38:49.000Z</time>
      </trkpt>
      <trkpt lat="43.23837" lon="0.88661">
        <ele>323</ele>
        <time>2019-02-17T09:38:51.000Z</time>
      </trkpt>
      <trkpt lat="43.23836" lon="0.88661">
        <ele>323</ele>
        <time>2019-02-17T09:38:53.000Z</time>
      </trkpt>
      <trkpt lat="43.23836" lon="0.88661">
        <ele>323</ele>
        <time>2019-02-17T09:38:55.000Z</time>
      </trkpt>
      <trkpt lat="43.23836" lon="0.8866">
        <ele>323</ele>
        <time>2019-02-17T09:38:57.000Z</time>
      </trkpt>
      <trkpt lat="43.23835" lon="0.8866">
        <ele>323</ele>
        <time>2019-02-17T09:38:59.000Z</time>
      </trkpt>
      <trkpt lat="43.23835" lon="0.8866">
        <ele>323</ele>
        <time>2019-02-17T09:39:01.000Z</time>
      </trkpt>
      <trkpt lat="43.23834" lon="0.88659">
        <ele>323</ele>
        <time>2019-02-17T09:39:03.000Z</time>
      </trkpt>
      <trkpt lat="43.23833" lon="0.88659">
        <ele>324</ele>
        <time>2019-02-17T09:39:05.000Z</time>
      </trkpt>
      <trkpt lat="43.23832" lon="0.88658">
        <ele>324</ele>
        <time>2019-02-17T09:39:07.000Z</time>
      </trkpt>
      <trkpt lat="43.23831" lon="0.88658">
        <ele>324</ele>
        <time>2019-02-17T09:39:09.000Z</time>
      </trkpt>
      <trkpt lat="43.23832" lon="0.88658">
        <ele>324</ele>
        <time>2019-02-17T09:39:11.000Z</time>
      </trkpt>
      <trkpt lat="43.23832" lon="0.88658">
        <ele>324</ele>
        <time>2019-02-17T09:39:13.000Z</time>
      </trkpt>
      <trkpt lat="43.23833" lon="0.88659">
        <ele>324</ele>
        <time>2019-02-17T09:39:15.000Z</time>
      </trkpt>
      <trkpt lat="43.23833" lon="0.88659">
        <ele>324</ele>
        <time>2019-02-17T09:39:17.000Z</time>
      </trkpt>
      <trkpt lat="43.23834" lon="0.88659">
        <ele>324</ele>
        <time>2019-02-17T09:39:19.000Z</time>
      </trkpt>
      <trkpt lat="43.23833" lon="0.88659">
        <ele>324</ele>
        <time>2019-02-17T09:39:21.000Z</time>
      </trkpt>
      <trkpt lat="43.23833" lon="0.88658">
        <ele>324</ele>
        <time>2019-02-17T09:39:23.000Z</time>
      </trkpt>
      <trkpt lat="43.23833" lon="0.88658">
        <ele>324</ele>
        <time>2019-02-17T09:39:25.000Z</time>
      </trkpt>
      <trkpt lat="43.23832" lon="0.88658">
        <ele>324</ele>
        <time>2019-02-17T09:39:27.000Z</time>
      </trkpt>
      <trkpt lat="43.23832" lon="0.88659">
        <ele>324</ele>
        <time>2019-02-17T09:39:29.000Z</time>
      </trkpt>
      <trkpt lat="43.23831" lon="0.88658">
        <ele>324</ele>
        <time>2019-02-17T09:39:31.000Z</time>
      </trkpt>
      <trkpt lat="43.2383" lon="0.88658">
        <ele>325</ele>
        <time>2019-02-17T09:39:33.000Z</time>
      </trkpt>
      <trkpt lat="43.2383" lon="0.88657">
        <ele>325</ele>
        <time>2019-02-17T09:39:35.000Z</time>
      </trkpt>
      <trkpt lat="43.23829" lon="0.88656">
        <ele>325</ele>
        <time>2019-02-17T09:39:37.000Z</time>
      </trkpt>
      <trkpt lat="43.23829" lon="0.88656">
        <ele>325</ele>
        <time>2019-02-17T09:39:39.000Z</time>
      </trkpt>
      <trkpt lat="43.23828" lon="0.88656">
        <ele>325</ele>
        <time>2019-02-17T09:39:41.000Z</time>
      </trkpt>
      <trkpt lat="43.23828" lon="0.88657">
        <ele>325</ele>
        <time>2019-02-17T09:39:43.000Z</time>
      </trkpt>
      <trkpt lat="43.23828" lon="0.88658">
        <ele>325</ele>
        <time>2019-02-17T09:39:45.000Z</time>
      </trkpt>
      <trkpt lat="43.23829" lon="0.88658">
        <ele>325</ele>
        <time>2019-02-17T09:39:47.000Z</time>
      </trkpt>
      <trkpt lat="43.2383" lon="0.88659">
        <ele>325</ele>
        <time>2019-02-17T09:39:49.000Z</time>
      </trkpt>
      <trkpt lat="43.23831" lon="0.8866">
        <ele>325</ele>
        <time>2019-02-17T09:39:51.000Z</time>
      </trkpt>
      <trkpt lat="43.23832" lon="0.8866">
        <ele>324</ele>
        <time>2019-02-17T09:39:53.000Z</time>
      </trkpt>
      <trkpt lat="43.23832" lon="0.8866">
        <ele>324</ele>
        <time>2019-02-17T09:39:55.000Z</time>
      </trkpt>
      <trkpt lat="43.23833" lon="0.8866">
        <ele>324</ele>
        <time>2019-02-17T09:39:57.000Z</time>
      </trkpt>
      <trkpt lat="43.23834" lon="0.88661">
        <ele>323</ele>
        <time>2019-02-17T09:39:59.000Z</time>
      </trkpt>
      <trkpt lat="43.23834" lon="0.88661">
        <ele>323</ele>
        <time>2019-02-17T09:40:01.000Z</time>
      </trkpt>
      <trkpt lat="43.23834" lon="0.88661">
        <ele>323</ele>
        <time>2019-02-17T09:40:03.000Z</time>
      </trkpt>
      <trkpt lat="43.23834" lon="0.88662">
        <ele>323</ele>
        <time>2019-02-17T09:40:05.000Z</time>
      </trkpt>
      <trkpt lat="43.23834" lon="0.88662">
        <ele>324</ele>
        <time>2019-02-17T09:40:07.000Z</time>
      </trkpt>
      <trkpt lat="43.23834" lon="0.88662">
        <ele>324</ele>
        <time>2019-02-17T09:40:09.000Z</time>
      </trkpt>
      <trkpt lat="43.23834" lon="0.88662">
        <ele>323</ele>
        <time>2019-02-17T09:40:11.000Z</time>
      </trkpt>
      <trkpt lat="43.23836" lon="0.88662">
        <ele>323</ele>
        <time>2019-02-17T09:40:13.000Z</time>
      </trkpt>
      <trkpt lat="43.23836" lon="0.88662">
        <ele>323</ele>
        <time>2019-02-17T09:40:15.000Z</time>
      </trkpt>
      <trkpt lat="43.23837" lon="0.88662">
        <ele>323</ele>
        <time>2019-02-17T09:40:17.000Z</time>
      </trkpt>
      <trkpt lat="43.23837" lon="0.88662">
        <ele>322</ele>
        <time>2019-02-17T09:40:19.000Z</time>
      </trkpt>
      <trkpt lat="43.23838" lon="0.88662">
        <ele>322</ele>
        <time>2019-02-17T09:40:21.000Z</time>
      </trkpt>
      <trkpt lat="43.23839" lon="0.88663">
        <ele>322</ele>
        <time>2019-02-17T09:40:23.000Z</time>
      </trkpt>
      <trkpt lat="43.23842" lon="0.88664">
        <ele>321</ele>
        <time>2019-02-17T09:40:25.000Z</time>
      </trkpt>
      <trkpt lat="43.23845" lon="0.88664">
        <ele>320</ele>
        <time>2019-02-17T09:40:27.000Z</time>
      </trkpt>
      <trkpt lat="43.23848" lon="0.88666">
        <ele>319</ele>
        <time>2019-02-17T09:40:29.000Z</time>
      </trkpt>
      <trkpt lat="43.23851" lon="0.88667">
        <ele>319</ele>
        <time>2019-02-17T09:40:31.000Z</time>
      </trkpt>
      <trkpt lat="43.23854" lon="0.88669">
        <ele>318</ele>
        <time>2019-02-17T09:40:33.000Z</time>
      </trkpt>
      <trkpt lat="43.23857" lon="0.88671">
        <ele>318</ele>
        <time>2019-02-17T09:40:35.000Z</time>
      </trkpt>
      <trkpt lat="43.23859" lon="0.88672">
        <ele>317</ele>
        <time>2019-02-17T09:40:37.000Z</time>
      </trkpt>
      <trkpt lat="43.23861" lon="0.88674">
        <ele>317</ele>
        <time>2019-02-17T09:40:39.000Z</time>
      </trkpt>
      <trkpt lat="43.23863" lon="0.88676">
        <ele>316</ele>
        <time>2019-02-17T09:40:41.000Z</time>
      </trkpt>
      <trkpt lat="43.23865" lon="0.88678">
        <ele>316</ele>
        <time>2019-02-17T09:40:43.000Z</time>
      </trkpt>
      <trkpt lat="43.23867" lon="0.88679">
        <ele>316</ele>
        <time>2019-02-17T09:40:45.000Z</time>
      </trkpt>
      <trkpt lat="43.23866" lon="0.88681">
        <ele>316</ele>
        <time>2019-02-17T09:40:47.000Z</time>
      </trkpt>
      <trkpt lat="43.23867" lon="0.88681">
        <ele>316</ele>
        <time>2019-02-17T09:40:49.000Z</time>
      </trkpt>
      <trkpt lat="43.23868" lon="0.88682">
        <ele>316</ele>
        <time>2019-02-17T09:40:51.000Z</time>
      </trkpt>
      <trkpt lat="43.2387" lon="0.88684">
        <ele>315</ele>
        <time>2019-02-17T09:40:53.000Z</time>
      </trkpt>
      <trkpt lat="43.23872" lon="0.88685">
        <ele>315</ele>
        <time>2019-02-17T09:40:55.000Z</time>
      </trkpt>
      <trkpt lat="43.23873" lon="0.88687">
        <ele>315</ele>
        <time>2019-02-17T09:40:57.000Z</time>
      </trkpt>
      <trkpt lat="43.23875" lon="0.88688">
        <ele>315</ele>
        <time>2019-02-17T09:40:59.000Z</time>
      </trkpt>
      <trkpt lat="43.23877" lon="0.8869">
        <ele>314</ele>
        <time>2019-02-17T09:41:01.000Z</time>
      </trkpt>
      <trkpt lat="43.23878" lon="0.88692">
        <ele>314</ele>
        <time>2019-02-17T09:41:03.000Z</time>
      </trkpt>
      <trkpt lat="43.23879" lon="0.88693">
        <ele>314</ele>
        <time>2019-02-17T09:41:05.000Z</time>
      </trkpt>
      <trkpt lat="43.23881" lon="0.88694">
        <ele>314</ele>
        <time>2019-02-17T09:41:07.000Z</time>
      </trkpt>
      <trkpt lat="43.23882" lon="0.88695">
        <ele>313</ele>
        <time>2019-02-17T09:41:09.000Z</time>
      </trkpt>
      <trkpt lat="43.23882" lon="0.88696">
        <ele>313</ele>
        <time>2019-02-17T09:41:11.000Z</time>
      </trkpt>
      <trkpt lat="43.23882" lon="0.88697">
        <ele>313</ele>
        <time>2019-02-17T09:41:13.000Z</time>
      </trkpt>
      <trkpt lat="43.23883" lon="0.88697">
        <ele>313</ele>
        <time>2019-02-17T09:41:15.000Z</time>
      </trkpt>
      <trkpt lat="43.23881" lon="0.88697">
        <ele>314</ele>
        <time>2019-02-17T09:41:17.000Z</time>
      </trkpt>
      <trkpt lat="43.23881" lon="0.88698">
        <ele>314</ele>
        <time>2019-02-17T09:41:19.000Z</time>
      </trkpt>
      <trkpt lat="43.2388" lon="0.88698">
        <ele>314</ele>
        <time>2019-02-17T09:41:21.000Z</time>
      </trkpt>
      <trkpt lat="43.23879" lon="0.88698">
        <ele>314</ele>
        <time>2019-02-17T09:41:23.000Z</time>
      </trkpt>
      <trkpt lat="43.23879" lon="0.88697">
        <ele>314</ele>
        <time>2019-02-17T09:41:25.000Z</time>
      </trkpt>
      <trkpt lat="43.23878" lon="0.88697">
        <ele>314</ele>
        <time>2019-02-17T09:41:27.000Z</time>
      </trkpt>
      <trkpt lat="43.23878" lon="0.88697">
        <ele>314</ele>
        <time>2019-02-17T09:41:29.000Z</time>
      </trkpt>
      <trkpt lat="43.23878" lon="0.88697">
        <ele>314</ele>
        <time>2019-02-17T09:41:31.000Z</time>
      </trkpt>
      <trkpt lat="43.23877" lon="0.88697">
        <ele>314</ele>
        <time>2019-02-17T09:41:33.000Z</time>
      </trkpt>
      <trkpt lat="43.23876" lon="0.88697">
        <ele>315</ele>
        <time>2019-02-17T09:41:35.000Z</time>
      </trkpt>
      <trkpt lat="43.23876" lon="0.88697">
        <ele>315</ele>
        <time>2019-02-17T09:41:37.000Z</time>
      </trkpt>
      <trkpt lat="43.23876" lon="0.88697">
        <ele>315</ele>
        <time>2019-02-17T09:41:39.000Z</time>
      </trkpt>
      <trkpt lat="43.23877" lon="0.88697">
        <ele>314</ele>
        <time>2019-02-17T09:41:41.000Z</time>
      </trkpt>
      <trkpt lat="43.23877" lon="0.88697">
        <ele>314</ele>
        <time>2019-02-17T09:41:43.000Z</time>
      </trkpt>
      <trkpt lat="43.23878" lon="0.88697">
        <ele>314</ele>
        <time>2019-02-17T09:41:45.000Z</time>
      </trkpt>
      <trkpt lat="43.23879" lon="0.88697">
        <ele>314</ele>
        <time>2019-02-17T09:41:47.000Z</time>
      </trkpt>
      <trkpt lat="43.2388" lon="0.88696">
        <ele>314</ele>
        <time>2019-02-17T09:41:49.000Z</time>
      </trkpt>
      <trkpt lat="43.23883" lon="0.88695">
        <ele>313</ele>
        <time>2019-02-17T09:41:51.000Z</time>
      </trkpt>
      <trkpt lat="43.23884" lon="0.88695">
        <ele>313</ele>
        <time>2019-02-17T09:41:53.000Z</time>
      </trkpt>
      <trkpt lat="43.23884" lon="0.88695">
        <ele>313</ele>
        <time>2019-02-17T09:41:55.000Z</time>
      </trkpt>
      <trkpt lat="43.23885" lon="0.88694">
        <ele>313</ele>
        <time>2019-02-17T09:41:57.000Z</time>
      </trkpt>
      <trkpt lat="43.23885" lon="0.88695">
        <ele>313</ele>
        <time>2019-02-17T09:41:59.000Z</time>
      </trkpt>
      <trkpt lat="43.23885" lon="0.88695">
        <ele>313</ele>
        <time>2019-02-17T09:42:01.000Z</time>
      </trkpt>
      <trkpt lat="43.23884" lon="0.88694">
        <ele>313</ele>
        <time>2019-02-17T09:42:03.000Z</time>
      </trkpt>
      <trkpt lat="43.23883" lon="0.88694">
        <ele>313</ele>
        <time>2019-02-17T09:42:05.000Z</time>
      </trkpt>
      <trkpt lat="43.23882" lon="0.88694">
        <ele>313</ele>
        <time>2019-02-17T09:42:07.000Z</time>
      </trkpt>
      <trkpt lat="43.23882" lon="0.88694">
        <ele>313</ele>
        <time>2019-02-17T09:42:09.000Z</time>
      </trkpt>
      <trkpt lat="43.23881" lon="0.88695">
        <ele>314</ele>
        <time>2019-02-17T09:42:11.000Z</time>
      </trkpt>
      <trkpt lat="43.2388" lon="0.88696">
        <ele>314</ele>
        <time>2019-02-17T09:42:13.000Z</time>
      </trkpt>
      <trkpt lat="43.2388" lon="0.88696">
        <ele>314</ele>
        <time>2019-02-17T09:42:15.000Z</time>
      </trkpt>
      <trkpt lat="43.2388" lon="0.88696">
        <ele>314</ele>
        <time>2019-02-17T09:42:17.000Z</time>
      </trkpt>
      <trkpt lat="43.2388" lon="0.88697">
        <ele>314</ele>
        <time>2019-02-17T09:42:19.000Z</time>
      </trkpt>
      <trkpt lat="43.2388" lon="0.88697">
        <ele>314</ele>
        <time>2019-02-17T09:42:21.000Z</time>
      </trkpt>
      <trkpt lat="43.2388" lon="0.88697">
        <ele>314</ele>
        <time>2019-02-17T09:42:23.000Z</time>
      </trkpt>
      <trkpt lat="43.23881" lon="0.88697">
        <ele>314</ele>
        <time>2019-02-17T09:42:25.000Z</time>
      </trkpt>
      <trkpt lat="43.23881" lon="0.88697">
        <ele>314</ele>
        <time>2019-02-17T09:42:27.000Z</time>
      </trkpt>
      <trkpt lat="43.23881" lon="0.88697">
        <ele>314</ele>
        <time>2019-02-17T09:42:29.000Z</time>
      </trkpt>
      <trkpt lat="43.2388" lon="0.88696">
        <ele>314</ele>
        <time>2019-02-17T09:42:31.000Z</time>
      </trkpt>
      <trkpt lat="43.2388" lon="0.88696">
        <ele>314</ele>
        <time>2019-02-17T09:42:33.000Z</time>
      </trkpt>
      <trkpt lat="43.2388" lon="0.88695">
        <ele>314</ele>
        <time>2019-02-17T09:42:35.000Z</time>
      </trkpt>
      <trkpt lat="43.2388" lon="0.88695">
        <ele>314</ele>
        <time>2019-02-17T09:42:37.000Z</time>
      </trkpt>
      <trkpt lat="43.23879" lon="0.88695">
        <ele>314</ele>
        <time>2019-02-17T09:42:39.000Z</time>
      </trkpt>
      <trkpt lat="43.23879" lon="0.88695">
        <ele>314</ele>
        <time>2019-02-17T09:42:41.000Z</time>
      </trkpt>
      <trkpt lat="43.23879" lon="0.88695">
        <ele>314</ele>
        <time>2019-02-17T09:42:43.000Z</time>
      </trkpt>
      <trkpt lat="43.2388" lon="0.88695">
        <ele>314</ele>
        <time>2019-02-17T09:42:45.000Z</time>
      </trkpt>
      <trkpt lat="43.2388" lon="0.88695">
        <ele>314</ele>
        <time>2019-02-17T09:42:47.000Z</time>
      </trkpt>
      <trkpt lat="43.2388" lon="0.88695">
        <ele>314</ele>
        <time>2019-02-17T09:42:49.000Z</time>
      </trkpt>
      <trkpt lat="43.23879" lon="0.88695">
        <ele>314</ele>
        <time>2019-02-17T09:42:51.000Z</time>
      </trkpt>
      <trkpt lat="43.23879" lon="0.88695">
        <ele>314</ele>
        <time>2019-02-17T09:42:53.000Z</time>
      </trkpt>
      <trkpt lat="43.2388" lon="0.88695">
        <ele>314</ele>
        <time>2019-02-17T09:42:55.000Z</time>
      </trkpt>
      <trkpt lat="43.2388" lon="0.88695">
        <ele>314</ele>
        <time>2019-02-17T09:42:57.000Z</time>
      </trkpt>
      <trkpt lat="43.2388" lon="0.88695">
        <ele>314</ele>
        <time>2019-02-17T09:42:59.000Z</time>
      </trkpt>
      <trkpt lat="43.2388" lon="0.88695">
        <ele>314</ele>
        <time>2019-02-17T09:43:01.000Z</time>
      </trkpt>
      <trkpt lat="43.2388" lon="0.88695">
        <ele>314</ele>
        <time>2019-02-17T09:43:03.000Z</time>
      </trkpt>
      <trkpt lat="43.2388" lon="0.88695">
        <ele>314</ele>
        <time>2019-02-17T09:43:05.000Z</time>
      </trkpt>
      <trkpt lat="43.23879" lon="0.88695">
        <ele>314</ele>
        <time>2019-02-17T09:43:07.000Z</time>
      </trkpt>
      <trkpt lat="43.2388" lon="0.88696">
        <ele>314</ele>
        <time>2019-02-17T09:43:09.000Z</time>
      </trkpt>
      <trkpt lat="43.23879" lon="0.88697">
        <ele>314</ele>
        <time>2019-02-17T09:43:11.000Z</time>
      </trkpt>
      <trkpt lat="43.23879" lon="0.88698">
        <ele>314</ele>
        <time>2019-02-17T09:43:13.000Z</time>
      </trkpt>
      <trkpt lat="43.23879" lon="0.88699">
        <ele>314</ele>
        <time>2019-02-17T09:43:15.000Z</time>
      </trkpt>
      <trkpt lat="43.23878" lon="0.887">
        <ele>314</ele>
        <time>2019-02-17T09:43:17.000Z</time>
      </trkpt>
      <trkpt lat="43.23878" lon="0.887">
        <ele>314</ele>
        <time>2019-02-17T09:43:19.000Z</time>
      </trkpt>
      <trkpt lat="43.23878" lon="0.88699">
        <ele>314</ele>
        <time>2019-02-17T09:43:21.000Z</time>
      </trkpt>
      <trkpt lat="43.23878" lon="0.88699">
        <ele>314</ele>
        <time>2019-02-17T09:43:23.000Z</time>
      </trkpt>
      <trkpt lat="43.23878" lon="0.887">
        <ele>314</ele>
        <time>2019-02-17T09:43:25.000Z</time>
      </trkpt>
      <trkpt lat="43.23879" lon="0.887">
        <ele>314</ele>
        <time>2019-02-17T09:43:27.000Z</time>
      </trkpt>
      <trkpt lat="43.23879" lon="0.88701">
        <ele>314</ele>
        <time>2019-02-17T09:43:29.000Z</time>
      </trkpt>
      <trkpt lat="43.23879" lon="0.88702">
        <ele>314</ele>
        <time>2019-02-17T09:43:31.000Z</time>
      </trkpt>
      <trkpt lat="43.23879" lon="0.88702">
        <ele>314</ele>
        <time>2019-02-17T09:43:33.000Z</time>
      </trkpt>
      <trkpt lat="43.23879" lon="0.88702">
        <ele>314</ele>
        <time>2019-02-17T09:43:35.000Z</time>
      </trkpt>
      <trkpt lat="43.23879" lon="0.88702">
        <ele>314</ele>
        <time>2019-02-17T09:43:37.000Z</time>
      </trkpt>
      <trkpt lat="43.23879" lon="0.88701">
        <ele>314</ele>
        <time>2019-02-17T09:43:39.000Z</time>
      </trkpt>
      <trkpt lat="43.23879" lon="0.88701">
        <ele>314</ele>
        <time>2019-02-17T09:43:41.000Z</time>
      </trkpt>
      <trkpt lat="43.23879" lon="0.88701">
        <ele>314</ele>
        <time>2019-02-17T09:43:43.000Z</time>
      </trkpt>
      <trkpt lat="43.23879" lon="0.88701">
        <ele>314</ele>
        <time>2019-02-17T09:43:45.000Z</time>
      </trkpt>
      <trkpt lat="43.23879" lon="0.887">
        <ele>314</ele>
        <time>2019-02-17T09:43:47.000Z</time>
      </trkpt>
      <trkpt lat="43.23879" lon="0.887">
        <ele>314</ele>
        <time>2019-02-17T09:43:49.000Z</time>
      </trkpt>
      <trkpt lat="43.23879" lon="0.88699">
        <ele>314</ele>
        <time>2019-02-17T09:43:51.000Z</time>
      </trkpt>
      <trkpt lat="43.23879" lon="0.88699">
        <ele>314</ele>
        <time>2019-02-17T09:43:53.000Z</time>
      </trkpt>
      <trkpt lat="43.23879" lon="0.88699">
        <ele>314</ele>
        <time>2019-02-17T09:43:55.000Z</time>
      </trkpt>
      <trkpt lat="43.23879" lon="0.88699">
        <ele>314</ele>
        <time>2019-02-17T09:43:57.000Z</time>
      </trkpt>
      <trkpt lat="43.23879" lon="0.887">
        <ele>314</ele>
        <time>2019-02-17T09:43:59.000Z</time>
      </trkpt>
      <trkpt lat="43.23879" lon="0.887">
        <ele>314</ele>
        <time>2019-02-17T09:44:01.000Z</time>
      </trkpt>
      <trkpt lat="43.23879" lon="0.887">
        <ele>314</ele>
        <time>2019-02-17T09:44:03.000Z</time>
      </trkpt>
      <trkpt lat="43.23879" lon="0.887">
        <ele>314</ele>
        <time>2019-02-17T09:44:05.000Z</time>
      </trkpt>
      <trkpt lat="43.2388" lon="0.887">
        <ele>314</ele>
        <time>2019-02-17T09:44:07.000Z</time>
      </trkpt>
      <trkpt lat="43.2388" lon="0.88699">
        <ele>314</ele>
        <time>2019-02-17T09:44:09.000Z</time>
      </trkpt>
      <trkpt lat="43.2388" lon="0.887">
        <ele>314</ele>
        <time>2019-02-17T09:44:11.000Z</time>
      </trkpt>
      <trkpt lat="43.2388" lon="0.887">
        <ele>314</ele>
        <time>2019-02-17T09:44:13.000Z</time>
      </trkpt>
      <trkpt lat="43.2388" lon="0.88699">
        <ele>314</ele>
        <time>2019-02-17T09:44:15.000Z</time>
      </trkpt>
      <trkpt lat="43.23879" lon="0.88699">
        <ele>314</ele>
        <time>2019-02-17T09:44:17.000Z</time>
      </trkpt>
      <trkpt lat="43.2388" lon="0.88698">
        <ele>314</ele>
        <time>2019-02-17T09:44:19.000Z</time>
      </trkpt>
      <trkpt lat="43.2388" lon="0.88698">
        <ele>314</ele>
        <time>2019-02-17T09:44:21.000Z</time>
      </trkpt>
      <trkpt lat="43.23879" lon="0.88698">
        <ele>314</ele>
        <time>2019-02-17T09:44:23.000Z</time>
      </trkpt>
      <trkpt lat="43.23879" lon="0.88698">
        <ele>314</ele>
        <time>2019-02-17T09:44:25.000Z</time>
      </trkpt>
      <trkpt lat="43.2388" lon="0.88697">
        <ele>314</ele>
        <time>2019-02-17T09:44:27.000Z</time>
      </trkpt>
      <trkpt lat="43.2388" lon="0.88697">
        <ele>314</ele>
        <time>2019-02-17T09:44:29.000Z</time>
      </trkpt>
      <trkpt lat="43.2388" lon="0.88697">
        <ele>314</ele>
        <time>2019-02-17T09:44:31.000Z</time>
      </trkpt>
      <trkpt lat="43.2388" lon="0.88697">
        <ele>314</ele>
        <time>2019-02-17T09:44:33.000Z</time>
      </trkpt>
      <trkpt lat="43.2388" lon="0.88697">
        <ele>314</ele>
        <time>2019-02-17T09:44:35.000Z</time>
      </trkpt>
      <trkpt lat="43.23879" lon="0.88697">
        <ele>314</ele>
        <time>2019-02-17T09:44:37.000Z</time>
      </trkpt>
      <trkpt lat="43.23879" lon="0.88697">
        <ele>314</ele>
        <time>2019-02-17T09:44:39.000Z</time>
      </trkpt>
      <trkpt lat="43.23879" lon="0.88697">
        <ele>314</ele>
        <time>2019-02-17T09:44:41.000Z</time>
      </trkpt>
      <trkpt lat="43.2388" lon="0.88696">
        <ele>314</ele>
        <time>2019-02-17T09:44:43.000Z</time>
      </trkpt>
      <trkpt lat="43.23881" lon="0.88696">
        <ele>314</ele>
        <time>2019-02-17T09:44:45.000Z</time>
      </trkpt>
      <trkpt lat="43.23881" lon="0.88696">
        <ele>314</ele>
        <time>2019-02-17T09:44:47.000Z</time>
      </trkpt>
      <trkpt lat="43.23881" lon="0.88696">
        <ele>314</ele>
        <time>2019-02-17T09:44:49.000Z</time>
      </trkpt>
      <trkpt lat="43.23881" lon="0.88697">
        <ele>314</ele>
        <time>2019-02-17T09:44:51.000Z</time>
      </trkpt>
      <trkpt lat="43.23881" lon="0.88698">
        <ele>314</ele>
        <time>2019-02-17T09:44:53.000Z</time>
      </trkpt>
      <trkpt lat="43.23881" lon="0.88698">
        <ele>314</ele>
        <time>2019-02-17T09:44:55.000Z</time>
      </trkpt>
      <trkpt lat="43.23882" lon="0.88698">
        <ele>313</ele>
        <time>2019-02-17T09:44:57.000Z</time>
      </trkpt>
      <trkpt lat="43.23882" lon="0.88697">
        <ele>313</ele>
        <time>2019-02-17T09:44:59.000Z</time>
      </trkpt>
      <trkpt lat="43.23881" lon="0.88697">
        <ele>314</ele>
        <time>2019-02-17T09:45:01.000Z</time>
      </trkpt>
      <trkpt lat="43.23882" lon="0.88698">
        <ele>313</ele>
        <time>2019-02-17T09:45:03.000Z</time>
      </trkpt>
      <trkpt lat="43.23881" lon="0.88697">
        <ele>314</ele>
        <time>2019-02-17T09:45:05.000Z</time>
      </trkpt>
      <trkpt lat="43.23882" lon="0.88698">
        <ele>313</ele>
        <time>2019-02-17T09:45:07.000Z</time>
      </trkpt>
      <trkpt lat="43.23882" lon="0.88698">
        <ele>313</ele>
        <time>2019-02-17T09:45:09.000Z</time>
      </trkpt>
      <trkpt lat="43.23882" lon="0.88697">
        <ele>313</ele>
        <time>2019-02-17T09:45:11.000Z</time>
      </trkpt>
      <trkpt lat="43.23883" lon="0.88697">
        <ele>313</ele>
        <time>2019-02-17T09:45:13.000Z</time>
      </trkpt>
      <trkpt lat="43.23883" lon="0.88697">
        <ele>313</ele>
        <time>2019-02-17T09:45:15.000Z</time>
      </trkpt>
      <trkpt lat="43.23883" lon="0.88697">
        <ele>313</ele>
        <time>2019-02-17T09:45:17.000Z</time>
      </trkpt>
      <trkpt lat="43.23883" lon="0.88697">
        <ele>313</ele>
        <time>2019-02-17T09:45:19.000Z</time>
      </trkpt>
      <trkpt lat="43.23882" lon="0.88697">
        <ele>313</ele>
        <time>2019-02-17T09:45:21.000Z</time>
      </trkpt>
      <trkpt lat="43.23883" lon="0.88697">
        <ele>313</ele>
        <time>2019-02-17T09:45:23.000Z</time>
      </trkpt>
      <trkpt lat="43.23883" lon="0.88698">
        <ele>313</ele>
        <time>2019-02-17T09:45:25.000Z</time>
      </trkpt>
      <trkpt lat="43.23884" lon="0.88697">
        <ele>313</ele>
        <time>2019-02-17T09:45:27.000Z</time>
      </trkpt>
      <trkpt lat="43.23884" lon="0.88697">
        <ele>313</ele>
        <time>2019-02-17T09:45:29.000Z</time>
      </trkpt>
      <trkpt lat="43.23885" lon="0.88697">
        <ele>313</ele>
        <time>2019-02-17T09:45:31.000Z</time>
      </trkpt>
      <trkpt lat="43.23884" lon="0.88696">
        <ele>313</ele>
        <time>2019-02-17T09:45:33.000Z</time>
      </trkpt>
      <trkpt lat="43.23885" lon="0.88696">
        <ele>313</ele>
        <time>2019-02-17T09:45:35.000Z</time>
      </trkpt>
      <trkpt lat="43.23884" lon="0.88696">
        <ele>313</ele>
        <time>2019-02-17T09:45:37.000Z</time>
      </trkpt>
      <trkpt lat="43.23883" lon="0.88696">
        <ele>313</ele>
        <time>2019-02-17T09:45:39.000Z</time>
      </trkpt>
      <trkpt lat="43.23882" lon="0.88696">
        <ele>313</ele>
        <time>2019-02-17T09:45:41.000Z</time>
      </trkpt>
      <trkpt lat="43.23881" lon="0.88695">
        <ele>314</ele>
        <time>2019-02-17T09:45:43.000Z</time>
      </trkpt>
      <trkpt lat="43.23879" lon="0.88695">
        <ele>314</ele>
        <time>2019-02-17T09:45:45.000Z</time>
      </trkpt>
      <trkpt lat="43.23877" lon="0.88693">
        <ele>314</ele>
        <time>2019-02-17T09:45:47.000Z</time>
      </trkpt>
      <trkpt lat="43.23876" lon="0.88691">
        <ele>315</ele>
        <time>2019-02-17T09:45:49.000Z</time>
      </trkpt>
      <trkpt lat="43.23874" lon="0.8869">
        <ele>315</ele>
        <time>2019-02-17T09:45:51.000Z</time>
      </trkpt>
      <trkpt lat="43.23872" lon="0.88688">
        <ele>315</ele>
        <time>2019-02-17T09:45:53.000Z</time>
      </trkpt>
      <trkpt lat="43.23871" lon="0.88687">
        <ele>315</ele>
        <time>2019-02-17T09:45:55.000Z</time>
      </trkpt>
      <trkpt lat="43.23869" lon="0.88686">
        <ele>316</ele>
        <time>2019-02-17T09:45:57.000Z</time>
      </trkpt>
      <trkpt lat="43.23867" lon="0.88686">
        <ele>316</ele>
        <time>2019-02-17T09:45:59.000Z</time>
      </trkpt>
      <trkpt lat="43.23866" lon="0.88684">
        <ele>316</ele>
        <time>2019-02-17T09:46:01.000Z</time>
      </trkpt>
      <trkpt lat="43.23864" lon="0.88683">
        <ele>316</ele>
        <time>2019-02-17T09:46:03.000Z</time>
      </trkpt>
      <trkpt lat="43.23863" lon="0.88682">
        <ele>317</ele>
        <time>2019-02-17T09:46:05.000Z</time>
      </trkpt>
      <trkpt lat="43.23861" lon="0.8868">
        <ele>317</ele>
        <time>2019-02-17T09:46:07.000Z</time>
      </trkpt>
      <trkpt lat="43.2386" lon="0.88679">
        <ele>317</ele>
        <time>2019-02-17T09:46:09.000Z</time>
      </trkpt>
      <trkpt lat="43.23858" lon="0.88677">
        <ele>317</ele>
        <time>2019-02-17T09:46:11.000Z</time>
      </trkpt>
      <trkpt lat="43.23857" lon="0.88676">
        <ele>318</ele>
        <time>2019-02-17T09:46:13.000Z</time>
      </trkpt>
      <trkpt lat="43.23855" lon="0.88675">
        <ele>318</ele>
        <time>2019-02-17T09:46:15.000Z</time>
      </trkpt>
      <trkpt lat="43.23853" lon="0.88673">
        <ele>318</ele>
        <time>2019-02-17T09:46:17.000Z</time>
      </trkpt>
      <trkpt lat="43.23852" lon="0.88672">
        <ele>319</ele>
        <time>2019-02-17T09:46:19.000Z</time>
      </trkpt>
      <trkpt lat="43.2385" lon="0.88671">
        <ele>319</ele>
        <time>2019-02-17T09:46:21.000Z</time>
      </trkpt>
      <trkpt lat="43.23849" lon="0.8867">
        <ele>319</ele>
        <time>2019-02-17T09:46:23.000Z</time>
      </trkpt>
      <trkpt lat="43.23847" lon="0.88669">
        <ele>319</ele>
        <time>2019-02-17T09:46:25.000Z</time>
      </trkpt>
      <trkpt lat="43.23846" lon="0.88668">
        <ele>320</ele>
        <time>2019-02-17T09:46:27.000Z</time>
      </trkpt>
      <trkpt lat="43.23845" lon="0.88667">
        <ele>320</ele>
        <time>2019-02-17T09:46:29.000Z</time>
      </trkpt>
      <trkpt lat="43.23843" lon="0.88666">
        <ele>321</ele>
        <time>2019-02-17T09:46:31.000Z</time>
      </trkpt>
      <trkpt lat="43.23842" lon="0.88665">
        <ele>321</ele>
        <time>2019-02-17T09:46:33.000Z</time>
      </trkpt>
      <trkpt lat="43.23841" lon="0.88666">
        <ele>321</ele>
        <time>2019-02-17T09:46:35.000Z</time>
      </trkpt>
      <trkpt lat="43.2384" lon="0.88667">
        <ele>322</ele>
        <time>2019-02-17T09:46:37.000Z</time>
      </trkpt>
      <trkpt lat="43.23839" lon="0.88668">
        <ele>322</ele>
        <time>2019-02-17T09:46:39.000Z</time>
      </trkpt>
      <trkpt lat="43.23838" lon="0.8867">
        <ele>322</ele>
        <time>2019-02-17T09:46:41.000Z</time>
      </trkpt>
      <trkpt lat="43.23837" lon="0.88673">
        <ele>323</ele>
        <time>2019-02-17T09:46:43.000Z</time>
      </trkpt>
      <trkpt lat="43.23835" lon="0.88675">
        <ele>323</ele>
        <time>2019-02-17T09:46:45.000Z</time>
      </trkpt>
      <trkpt lat="43.23835" lon="0.88677">
        <ele>324</ele>
        <time>2019-02-17T09:46:47.000Z</time>
      </trkpt>
      <trkpt lat="43.23835" lon="0.88678">
        <ele>324</ele>
        <time>2019-02-17T09:46:49.000Z</time>
      </trkpt>
      <trkpt lat="43.23835" lon="0.88679">
        <ele>324</ele>
        <time>2019-02-17T09:46:51.000Z</time>
      </trkpt>
      <trkpt lat="43.23834" lon="0.8868">
        <ele>324</ele>
        <time>2019-02-17T09:46:53.000Z</time>
      </trkpt>
      <trkpt lat="43.23835" lon="0.88681">
        <ele>324</ele>
        <time>2019-02-17T09:46:55.000Z</time>
      </trkpt>
      <trkpt lat="43.23834" lon="0.88681">
        <ele>324</ele>
        <time>2019-02-17T09:46:57.000Z</time>
      </trkpt>
      <trkpt lat="43.23833" lon="0.88682">
        <ele>324</ele>
        <time>2019-02-17T09:46:59.000Z</time>
      </trkpt>
      <trkpt lat="43.23833" lon="0.88683">
        <ele>324</ele>
        <time>2019-02-17T09:47:01.000Z</time>
      </trkpt>
      <trkpt lat="43.23833" lon="0.88683">
        <ele>324</ele>
        <time>2019-02-17T09:47:03.000Z</time>
      </trkpt>
      <trkpt lat="43.23833" lon="0.88683">
        <ele>324</ele>
        <time>2019-02-17T09:47:05.000Z</time>
      </trkpt>
      <trkpt lat="43.23832" lon="0.88683">
        <ele>325</ele>
        <time>2019-02-17T09:47:07.000Z</time>
      </trkpt>
      <trkpt lat="43.23832" lon="0.88683">
        <ele>325</ele>
        <time>2019-02-17T09:47:09.000Z</time>
      </trkpt>
      <trkpt lat="43.23832" lon="0.88683">
        <ele>325</ele>
        <time>2019-02-17T09:47:11.000Z</time>
      </trkpt>
      <trkpt lat="43.23831" lon="0.88684">
        <ele>325</ele>
        <time>2019-02-17T09:47:13.000Z</time>
      </trkpt>
      <trkpt lat="43.2383" lon="0.88684">
        <ele>325</ele>
        <time>2019-02-17T09:47:15.000Z</time>
      </trkpt>
      <trkpt lat="43.23831" lon="0.88684">
        <ele>325</ele>
        <time>2019-02-17T09:47:17.000Z</time>
      </trkpt>
      <trkpt lat="43.23831" lon="0.88684">
        <ele>325</ele>
        <time>2019-02-17T09:47:19.000Z</time>
      </trkpt>
      <trkpt lat="43.23832" lon="0.88684">
        <ele>325</ele>
        <time>2019-02-17T09:47:21.000Z</time>
      </trkpt>
      <trkpt lat="43.23832" lon="0.88685">
        <ele>325</ele>
        <time>2019-02-17T09:47:23.000Z</time>
      </trkpt>
      <trkpt lat="43.23832" lon="0.88685">
        <ele>325</ele>
        <time>2019-02-17T09:47:25.000Z</time>
      </trkpt>
      <trkpt lat="43.2383" lon="0.88686">
        <ele>325</ele>
        <time>2019-02-17T09:47:27.000Z</time>
      </trkpt>
      <trkpt lat="43.2383" lon="0.88686">
        <ele>325</ele>
        <time>2019-02-17T09:47:29.000Z</time>
      </trkpt>
      <trkpt lat="43.2383" lon="0.88685">
        <ele>325</ele>
        <time>2019-02-17T09:47:31.000Z</time>
      </trkpt>
      <trkpt lat="43.2383" lon="0.88685">
        <ele>325</ele>
        <time>2019-02-17T09:47:33.000Z</time>
      </trkpt>
      <trkpt lat="43.2383" lon="0.88685">
        <ele>325</ele>
        <time>2019-02-17T09:47:35.000Z</time>
      </trkpt>
      <trkpt lat="43.2383" lon="0.88685">
        <ele>325</ele>
        <time>2019-02-17T09:47:37.000Z</time>
      </trkpt>
      <trkpt lat="43.2383" lon="0.88685">
        <ele>325</ele>
        <time>2019-02-17T09:47:39.000Z</time>
      </trkpt>
      <trkpt lat="43.23831" lon="0.88685">
        <ele>325</ele>
        <time>2019-02-17T09:47:41.000Z</time>
      </trkpt>
      <trkpt lat="43.23832" lon="0.88685">
        <ele>325</ele>
        <time>2019-02-17T09:47:43.000Z</time>
      </trkpt>
      <trkpt lat="43.23832" lon="0.88685">
        <ele>325</ele>
        <time>2019-02-17T09:47:45.000Z</time>
      </trkpt>
      <trkpt lat="43.23831" lon="0.88686">
        <ele>325</ele>
        <time>2019-02-17T09:47:47.000Z</time>
      </trkpt>
      <trkpt lat="43.23831" lon="0.88686">
        <ele>325</ele>
        <time>2019-02-17T09:47:49.000Z</time>
      </trkpt>
      <trkpt lat="43.23831" lon="0.88686">
        <ele>325</ele>
        <time>2019-02-17T09:47:51.000Z</time>
      </trkpt>
      <trkpt lat="43.23832" lon="0.88685">
        <ele>325</ele>
        <time>2019-02-17T09:47:53.000Z</time>
      </trkpt>
      <trkpt lat="43.23831" lon="0.88684">
        <ele>325</ele>
        <time>2019-02-17T09:47:55.000Z</time>
      </trkpt>
      <trkpt lat="43.23833" lon="0.88685">
        <ele>324</ele>
        <time>2019-02-17T09:47:57.000Z</time>
      </trkpt>
      <trkpt lat="43.23833" lon="0.88686">
        <ele>324</ele>
        <time>2019-02-17T09:47:59.000Z</time>
      </trkpt>
      <trkpt lat="43.23832" lon="0.88687">
        <ele>325</ele>
        <time>2019-02-17T09:48:01.000Z</time>
      </trkpt>
      <trkpt lat="43.23832" lon="0.88688">
        <ele>325</ele>
        <time>2019-02-17T09:48:03.000Z</time>
      </trkpt>
      <trkpt lat="43.23832" lon="0.8869">
        <ele>325</ele>
        <time>2019-02-17T09:48:05.000Z</time>
      </trkpt>
      <trkpt lat="43.23831" lon="0.88691">
        <ele>325</ele>
        <time>2019-02-17T09:48:07.000Z</time>
      </trkpt>
      <trkpt lat="43.23831" lon="0.88693">
        <ele>325</ele>
        <time>2019-02-17T09:48:09.000Z</time>
      </trkpt>
      <trkpt lat="43.23831" lon="0.88695">
        <ele>325</ele>
        <time>2019-02-17T09:48:11.000Z</time>
      </trkpt>
      <trkpt lat="43.23831" lon="0.88696">
        <ele>325</ele>
        <time>2019-02-17T09:48:13.000Z</time>
      </trkpt>
      <trkpt lat="43.23832" lon="0.88698">
        <ele>325</ele>
        <time>2019-02-17T09:48:15.000Z</time>
      </trkpt>
      <trkpt lat="43.23831" lon="0.88699">
        <ele>325</ele>
        <time>2019-02-17T09:48:17.000Z</time>
      </trkpt>
      <trkpt lat="43.23831" lon="0.88701">
        <ele>325</ele>
        <time>2019-02-17T09:48:19.000Z</time>
      </trkpt>
      <trkpt lat="43.2383" lon="0.88702">
        <ele>326</ele>
        <time>2019-02-17T09:48:21.000Z</time>
      </trkpt>
      <trkpt lat="43.2383" lon="0.88704">
        <ele>326</ele>
        <time>2019-02-17T09:48:23.000Z</time>
      </trkpt>
      <trkpt lat="43.23829" lon="0.88706">
        <ele>326</ele>
        <time>2019-02-17T09:48:25.000Z</time>
      </trkpt>
      <trkpt lat="43.23829" lon="0.88707">
        <ele>326</ele>
        <time>2019-02-17T09:48:27.000Z</time>
      </trkpt>
      <trkpt lat="43.2383" lon="0.88709">
        <ele>326</ele>
        <time>2019-02-17T09:48:29.000Z</time>
      </trkpt>
      <trkpt lat="43.23828" lon="0.88711">
        <ele>327</ele>
        <time>2019-02-17T09:48:31.000Z</time>
      </trkpt>
      <trkpt lat="43.23827" lon="0.88714">
        <ele>327</ele>
        <time>2019-02-17T09:48:33.000Z</time>
      </trkpt>
      <trkpt lat="43.23826" lon="0.88716">
        <ele>328</ele>
        <time>2019-02-17T09:48:35.000Z</time>
      </trkpt>
      <trkpt lat="43.23825" lon="0.88718">
        <ele>329</ele>
        <time>2019-02-17T09:48:37.000Z</time>
      </trkpt>
      <trkpt lat="43.23826" lon="0.88721">
        <ele>329</ele>
        <time>2019-02-17T09:48:39.000Z</time>
      </trkpt>
      <trkpt lat="43.23826" lon="0.88724">
        <ele>329</ele>
        <time>2019-02-17T09:48:41.000Z</time>
      </trkpt>
      <trkpt lat="43.23825" lon="0.88726">
        <ele>329</ele>
        <time>2019-02-17T09:48:43.000Z</time>
      </trkpt>
      <trkpt lat="43.23826" lon="0.88729">
        <ele>329</ele>
        <time>2019-02-17T09:48:45.000Z</time>
      </trkpt>
      <trkpt lat="43.23825" lon="0.88732">
        <ele>329</ele>
        <time>2019-02-17T09:48:47.000Z</time>
      </trkpt>
      <trkpt lat="43.23825" lon="0.88734">
        <ele>329</ele>
        <time>2019-02-17T09:48:49.000Z</time>
      </trkpt>
      <trkpt lat="43.23825" lon="0.88736">
        <ele>329</ele>
        <time>2019-02-17T09:48:51.000Z</time>
      </trkpt>
      <trkpt lat="43.23824" lon="0.88738">
        <ele>330</ele>
        <time>2019-02-17T09:48:53.000Z</time>
      </trkpt>
      <trkpt lat="43.23823" lon="0.8874">
        <ele>330</ele>
        <time>2019-02-17T09:48:55.000Z</time>
      </trkpt>
      <trkpt lat="43.23822" lon="0.88742">
        <ele>330</ele>
        <time>2019-02-17T09:48:57.000Z</time>
      </trkpt>
      <trkpt lat="43.23822" lon="0.88744">
        <ele>331</ele>
        <time>2019-02-17T09:48:59.000Z</time>
      </trkpt>
      <trkpt lat="43.23821" lon="0.88746">
        <ele>331</ele>
        <time>2019-02-17T09:49:01.000Z</time>
      </trkpt>
      <trkpt lat="43.2382" lon="0.88747">
        <ele>331</ele>
        <time>2019-02-17T09:49:03.000Z</time>
      </trkpt>
      <trkpt lat="43.2382" lon="0.88749">
        <ele>332</ele>
        <time>2019-02-17T09:49:05.000Z</time>
      </trkpt>
      <trkpt lat="43.23819" lon="0.88751">
        <ele>332</ele>
        <time>2019-02-17T09:49:07.000Z</time>
      </trkpt>
      <trkpt lat="43.23818" lon="0.88753">
        <ele>332</ele>
        <time>2019-02-17T09:49:09.000Z</time>
      </trkpt>
      <trkpt lat="43.23818" lon="0.88754">
        <ele>332</ele>
        <time>2019-02-17T09:49:11.000Z</time>
      </trkpt>
      <trkpt lat="43.23817" lon="0.88756">
        <ele>333</ele>
        <time>2019-02-17T09:49:13.000Z</time>
      </trkpt>
      <trkpt lat="43.23817" lon="0.88757">
        <ele>333</ele>
        <time>2019-02-17T09:49:15.000Z</time>
      </trkpt>
      <trkpt lat="43.23816" lon="0.88759">
        <ele>333</ele>
        <time>2019-02-17T09:49:17.000Z</time>
      </trkpt>
      <trkpt lat="43.23816" lon="0.8876">
        <ele>333</ele>
        <time>2019-02-17T09:49:19.000Z</time>
      </trkpt>
      <trkpt lat="43.23816" lon="0.88762">
        <ele>333</ele>
        <time>2019-02-17T09:49:21.000Z</time>
      </trkpt>
      <trkpt lat="43.23815" lon="0.88764">
        <ele>333</ele>
        <time>2019-02-17T09:49:23.000Z</time>
      </trkpt>
      <trkpt lat="43.23816" lon="0.88766">
        <ele>333</ele>
        <time>2019-02-17T09:49:25.000Z</time>
      </trkpt>
      <trkpt lat="43.23815" lon="0.88767">
        <ele>334</ele>
        <time>2019-02-17T09:49:27.000Z</time>
      </trkpt>
      <trkpt lat="43.23815" lon="0.88768">
        <ele>334</ele>
        <time>2019-02-17T09:49:29.000Z</time>
      </trkpt>
      <trkpt lat="43.23814" lon="0.88769">
        <ele>334</ele>
        <time>2019-02-17T09:49:31.000Z</time>
      </trkpt>
      <trkpt lat="43.23814" lon="0.88769">
        <ele>334</ele>
        <time>2019-02-17T09:49:33.000Z</time>
      </trkpt>
      <trkpt lat="43.23813" lon="0.88771">
        <ele>334</ele>
        <time>2019-02-17T09:49:35.000Z</time>
      </trkpt>
      <trkpt lat="43.23813" lon="0.88773">
        <ele>334</ele>
        <time>2019-02-17T09:49:37.000Z</time>
      </trkpt>
      <trkpt lat="43.23813" lon="0.88774">
        <ele>335</ele>
        <time>2019-02-17T09:49:39.000Z</time>
      </trkpt>
      <trkpt lat="43.23812" lon="0.88776">
        <ele>335</ele>
        <time>2019-02-17T09:49:41.000Z</time>
      </trkpt>
      <trkpt lat="43.23812" lon="0.88776">
        <ele>335</ele>
        <time>2019-02-17T09:49:43.000Z</time>
      </trkpt>
      <trkpt lat="43.23812" lon="0.88776">
        <ele>335</ele>
        <time>2019-02-17T09:49:45.000Z</time>
      </trkpt>
      <trkpt lat="43.23812" lon="0.88777">
        <ele>335</ele>
        <time>2019-02-17T09:49:47.000Z</time>
      </trkpt>
      <trkpt lat="43.23812" lon="0.88778">
        <ele>335</ele>
        <time>2019-02-17T09:49:49.000Z</time>
      </trkpt>
      <trkpt lat="43.23812" lon="0.88779">
        <ele>336</ele>
        <time>2019-02-17T09:49:51.000Z</time>
      </trkpt>
      <trkpt lat="43.23811" lon="0.8878">
        <ele>336</ele>
        <time>2019-02-17T09:49:53.000Z</time>
      </trkpt>
      <trkpt lat="43.2381" lon="0.88781">
        <ele>336</ele>
        <time>2019-02-17T09:49:55.000Z</time>
      </trkpt>
      <trkpt lat="43.2381" lon="0.88782">
        <ele>337</ele>
        <time>2019-02-17T09:49:57.000Z</time>
      </trkpt>
      <trkpt lat="43.2381" lon="0.88782">
        <ele>337</ele>
        <time>2019-02-17T09:49:59.000Z</time>
      </trkpt>
      <trkpt lat="43.2381" lon="0.88782">
        <ele>337</ele>
        <time>2019-02-17T09:50:01.000Z</time>
      </trkpt>
      <trkpt lat="43.2381" lon="0.88782">
        <ele>337</ele>
        <time>2019-02-17T09:50:03.000Z</time>
      </trkpt>
      <trkpt lat="43.23809" lon="0.88782">
        <ele>337</ele>
        <time>2019-02-17T09:50:05.000Z</time>
      </trkpt>
      <trkpt lat="43.23809" lon="0.88782">
        <ele>337</ele>
        <time>2019-02-17T09:50:07.000Z</time>
      </trkpt>
      <trkpt lat="43.23809" lon="0.88783">
        <ele>337</ele>
        <time>2019-02-17T09:50:09.000Z</time>
      </trkpt>
      <trkpt lat="43.23809" lon="0.88783">
        <ele>337</ele>
        <time>2019-02-17T09:50:11.000Z</time>
      </trkpt>
      <trkpt lat="43.23809" lon="0.88783">
        <ele>337</ele>
        <time>2019-02-17T09:50:13.000Z</time>
      </trkpt>
      <trkpt lat="43.23808" lon="0.88783">
        <ele>338</ele>
        <time>2019-02-17T09:50:15.000Z</time>
      </trkpt>
      <trkpt lat="43.23808" lon="0.88783">
        <ele>338</ele>
        <time>2019-02-17T09:50:17.000Z</time>
      </trkpt>
      <trkpt lat="43.23808" lon="0.88783">
        <ele>338</ele>
        <time>2019-02-17T09:50:19.000Z</time>
      </trkpt>
      <trkpt lat="43.23808" lon="0.88783">
        <ele>338</ele>
        <time>2019-02-17T09:50:21.000Z</time>
      </trkpt>
      <trkpt lat="43.23808" lon="0.88783">
        <ele>338</ele>
        <time>2019-02-17T09:50:23.000Z</time>
      </trkpt>
      <trkpt lat="43.23808" lon="0.88783">
        <ele>338</ele>
        <time>2019-02-17T09:50:25.000Z</time>
      </trkpt>
      <trkpt lat="43.23808" lon="0.88783">
        <ele>338</ele>
        <time>2019-02-17T09:50:27.000Z</time>
      </trkpt>
      <trkpt lat="43.23808" lon="0.88782">
        <ele>338</ele>
        <time>2019-02-17T09:50:29.000Z</time>
      </trkpt>
      <trkpt lat="43.23808" lon="0.88782">
        <ele>338</ele>
        <time>2019-02-17T09:50:31.000Z</time>
      </trkpt>
      <trkpt lat="43.23807" lon="0.88782">
        <ele>338</ele>
        <time>2019-02-17T09:50:33.000Z</time>
      </trkpt>
      <trkpt lat="43.23807" lon="0.88782">
        <ele>338</ele>
        <time>2019-02-17T09:50:35.000Z</time>
      </trkpt>
      <trkpt lat="43.23808" lon="0.88781">
        <ele>338</ele>
        <time>2019-02-17T09:50:37.000Z</time>
      </trkpt>
      <trkpt lat="43.23808" lon="0.88782">
        <ele>338</ele>
        <time>2019-02-17T09:50:39.000Z</time>
      </trkpt>
      <trkpt lat="43.23808" lon="0.88782">
        <ele>338</ele>
        <time>2019-02-17T09:50:41.000Z</time>
      </trkpt>
      <trkpt lat="43.23808" lon="0.88782">
        <ele>338</ele>
        <time>2019-02-17T09:50:43.000Z</time>
      </trkpt>
      <trkpt lat="43.23809" lon="0.88782">
        <ele>338</ele>
        <time>2019-02-17T09:50:45.000Z</time>
      </trkpt>
      <trkpt lat="43.23809" lon="0.88782">
        <ele>337</ele>
        <time>2019-02-17T09:50:47.000Z</time>
      </trkpt>
      <trkpt lat="43.23808" lon="0.88783">
        <ele>338</ele>
        <time>2019-02-17T09:50:49.000Z</time>
      </trkpt>
      <trkpt lat="43.23808" lon="0.88783">
        <ele>338</ele>
        <time>2019-02-17T09:50:51.000Z</time>
      </trkpt>
      <trkpt lat="43.23808" lon="0.88783">
        <ele>338</ele>
        <time>2019-02-17T09:50:53.000Z</time>
      </trkpt>
      <trkpt lat="43.23808" lon="0.88784">
        <ele>338</ele>
        <time>2019-02-17T09:50:55.000Z</time>
      </trkpt>
      <trkpt lat="43.23808" lon="0.88783">
        <ele>338</ele>
        <time>2019-02-17T09:50:57.000Z</time>
      </trkpt>
      <trkpt lat="43.23808" lon="0.88783">
        <ele>338</ele>
        <time>2019-02-17T09:50:59.000Z</time>
      </trkpt>
      <trkpt lat="43.23808" lon="0.88784">
        <ele>338</ele>
        <time>2019-02-17T09:51:01.000Z</time>
      </trkpt>
      <trkpt lat="43.23807" lon="0.88784">
        <ele>338</ele>
        <time>2019-02-17T09:51:03.000Z</time>
      </trkpt>
      <trkpt lat="43.23807" lon="0.88785">
        <ele>338</ele>
        <time>2019-02-17T09:51:05.000Z</time>
      </trkpt>
      <trkpt lat="43.23806" lon="0.88785">
        <ele>339</ele>
        <time>2019-02-17T09:51:07.000Z</time>
      </trkpt>
      <trkpt lat="43.23806" lon="0.88785">
        <ele>339</ele>
        <time>2019-02-17T09:51:09.000Z</time>
      </trkpt>
      <trkpt lat="43.23805" lon="0.88786">
        <ele>340</ele>
        <time>2019-02-17T09:51:11.000Z</time>
      </trkpt>
      <trkpt lat="43.23805" lon="0.88787">
        <ele>340</ele>
        <time>2019-02-17T09:51:13.000Z</time>
      </trkpt>
      <trkpt lat="43.23804" lon="0.88787">
        <ele>340</ele>
        <time>2019-02-17T09:51:15.000Z</time>
      </trkpt>
      <trkpt lat="43.23803" lon="0.88788">
        <ele>340</ele>
        <time>2019-02-17T09:51:17.000Z</time>
      </trkpt>
      <trkpt lat="43.23802" lon="0.88787">
        <ele>341</ele>
        <time>2019-02-17T09:51:19.000Z</time>
      </trkpt>
      <trkpt lat="43.23802" lon="0.88788">
        <ele>341</ele>
        <time>2019-02-17T09:51:21.000Z</time>
      </trkpt>
      <trkpt lat="43.23801" lon="0.88789">
        <ele>342</ele>
        <time>2019-02-17T09:51:23.000Z</time>
      </trkpt>
      <trkpt lat="43.238" lon="0.8879">
        <ele>342</ele>
        <time>2019-02-17T09:51:25.000Z</time>
      </trkpt>
      <trkpt lat="43.23799" lon="0.88792">
        <ele>343</ele>
        <time>2019-02-17T09:51:27.000Z</time>
      </trkpt>
      <trkpt lat="43.23798" lon="0.88793">
        <ele>343</ele>
        <time>2019-02-17T09:51:29.000Z</time>
      </trkpt>
      <trkpt lat="43.23798" lon="0.88793">
        <ele>344</ele>
        <time>2019-02-17T09:51:31.000Z</time>
      </trkpt>
      <trkpt lat="43.23797" lon="0.88794">
        <ele>344</ele>
        <time>2019-02-17T09:51:33.000Z</time>
      </trkpt>
      <trkpt lat="43.23795" lon="0.88795">
        <ele>345</ele>
        <time>2019-02-17T09:51:35.000Z</time>
      </trkpt>
      <trkpt lat="43.23794" lon="0.88796">
        <ele>346</ele>
        <time>2019-02-17T09:51:37.000Z</time>
      </trkpt>
      <trkpt lat="43.23793" lon="0.88798">
        <ele>346</ele>
        <time>2019-02-17T09:51:39.000Z</time>
      </trkpt>
      <trkpt lat="43.23792" lon="0.88799">
        <ele>347</ele>
        <time>2019-02-17T09:51:41.000Z</time>
      </trkpt>
      <trkpt lat="43.2379" lon="0.888">
        <ele>348</ele>
        <time>2019-02-17T09:51:43.000Z</time>
      </trkpt>
      <trkpt lat="43.23788" lon="0.88801">
        <ele>349</ele>
        <time>2019-02-17T09:51:45.000Z</time>
      </trkpt>
      <trkpt lat="43.23788" lon="0.88802">
        <ele>349</ele>
        <time>2019-02-17T09:51:47.000Z</time>
      </trkpt>
      <trkpt lat="43.23786" lon="0.88804">
        <ele>350</ele>
        <time>2019-02-17T09:51:49.000Z</time>
      </trkpt>
      <trkpt lat="43.23785" lon="0.88805">
        <ele>351</ele>
        <time>2019-02-17T09:51:51.000Z</time>
      </trkpt>
      <trkpt lat="43.23783" lon="0.88807">
        <ele>352</ele>
        <time>2019-02-17T09:51:53.000Z</time>
      </trkpt>
      <trkpt lat="43.23782" lon="0.88808">
        <ele>353</ele>
        <time>2019-02-17T09:51:55.000Z</time>
      </trkpt>
      <trkpt lat="43.23782" lon="0.88809">
        <ele>353</ele>
        <time>2019-02-17T09:51:57.000Z</time>
      </trkpt>
      <trkpt lat="43.23781" lon="0.8881">
        <ele>353</ele>
        <time>2019-02-17T09:51:59.000Z</time>
      </trkpt>
      <trkpt lat="43.23781" lon="0.8881">
        <ele>354</ele>
        <time>2019-02-17T09:52:01.000Z</time>
      </trkpt>
      <trkpt lat="43.2378" lon="0.8881">
        <ele>354</ele>
        <time>2019-02-17T09:52:03.000Z</time>
      </trkpt>
      <trkpt lat="43.2378" lon="0.88811">
        <ele>354</ele>
        <time>2019-02-17T09:52:05.000Z</time>
      </trkpt>
      <trkpt lat="43.23779" lon="0.88812">
        <ele>355</ele>
        <time>2019-02-17T09:52:07.000Z</time>
      </trkpt>
      <trkpt lat="43.23778" lon="0.88813">
        <ele>355</ele>
        <time>2019-02-17T09:52:09.000Z</time>
      </trkpt>
      <trkpt lat="43.23778" lon="0.88814">
        <ele>356</ele>
        <time>2019-02-17T09:52:11.000Z</time>
      </trkpt>
      <trkpt lat="43.23777" lon="0.88814">
        <ele>356</ele>
        <time>2019-02-17T09:52:13.000Z</time>
      </trkpt>
      <trkpt lat="43.23778" lon="0.88814">
        <ele>356</ele>
        <time>2019-02-17T09:52:15.000Z</time>
      </trkpt>
      <trkpt lat="43.23777" lon="0.88815">
        <ele>356</ele>
        <time>2019-02-17T09:52:17.000Z</time>
      </trkpt>
      <trkpt lat="43.23777" lon="0.88816">
        <ele>356</ele>
        <time>2019-02-17T09:52:19.000Z</time>
      </trkpt>
      <trkpt lat="43.23777" lon="0.88817">
        <ele>357</ele>
        <time>2019-02-17T09:52:21.000Z</time>
      </trkpt>
      <trkpt lat="43.23776" lon="0.88818">
        <ele>357</ele>
        <time>2019-02-17T09:52:23.000Z</time>
      </trkpt>
      <trkpt lat="43.23776" lon="0.88818">
        <ele>357</ele>
        <time>2019-02-17T09:52:25.000Z</time>
      </trkpt>
      <trkpt lat="43.23776" lon="0.88818">
        <ele>357</ele>
        <time>2019-02-17T09:52:27.000Z</time>
      </trkpt>
      <trkpt lat="43.23775" lon="0.88818">
        <ele>358</ele>
        <time>2019-02-17T09:52:29.000Z</time>
      </trkpt>
      <trkpt lat="43.23774" lon="0.88819">
        <ele>358</ele>
        <time>2019-02-17T09:52:31.000Z</time>
      </trkpt>
      <trkpt lat="43.23773" lon="0.8882">
        <ele>359</ele>
        <time>2019-02-17T09:52:33.000Z</time>
      </trkpt>
      <trkpt lat="43.23773" lon="0.88821">
        <ele>359</ele>
        <time>2019-02-17T09:52:35.000Z</time>
      </trkpt>
      <trkpt lat="43.23772" lon="0.88822">
        <ele>360</ele>
        <time>2019-02-17T09:52:37.000Z</time>
      </trkpt>
      <trkpt lat="43.23772" lon="0.88824">
        <ele>359</ele>
        <time>2019-02-17T09:52:39.000Z</time>
      </trkpt>
      <trkpt lat="43.23772" lon="0.88825">
        <ele>360</ele>
        <time>2019-02-17T09:52:41.000Z</time>
      </trkpt>
      <trkpt lat="43.23771" lon="0.88828">
        <ele>360</ele>
        <time>2019-02-17T09:52:43.000Z</time>
      </trkpt>
      <trkpt lat="43.23772" lon="0.8883">
        <ele>360</ele>
        <time>2019-02-17T09:52:45.000Z</time>
      </trkpt>
      <trkpt lat="43.23771" lon="0.88831">
        <ele>360</ele>
        <time>2019-02-17T09:52:47.000Z</time>
      </trkpt>
      <trkpt lat="43.23771" lon="0.88832">
        <ele>361</ele>
        <time>2019-02-17T09:52:49.000Z</time>
      </trkpt>
      <trkpt lat="43.23771" lon="0.88833">
        <ele>361</ele>
        <time>2019-02-17T09:52:51.000Z</time>
      </trkpt>
      <trkpt lat="43.2377" lon="0.88834">
        <ele>361</ele>
        <time>2019-02-17T09:52:53.000Z</time>
      </trkpt>
      <trkpt lat="43.2377" lon="0.88834">
        <ele>361</ele>
        <time>2019-02-17T09:52:55.000Z</time>
      </trkpt>
      <trkpt lat="43.2377" lon="0.88836">
        <ele>361</ele>
        <time>2019-02-17T09:52:57.000Z</time>
      </trkpt>
      <trkpt lat="43.23771" lon="0.88837">
        <ele>361</ele>
        <time>2019-02-17T09:52:59.000Z</time>
      </trkpt>
      <trkpt lat="43.23771" lon="0.88839">
        <ele>362</ele>
        <time>2019-02-17T09:53:01.000Z</time>
      </trkpt>
      <trkpt lat="43.23772" lon="0.88841">
        <ele>361</ele>
        <time>2019-02-17T09:53:03.000Z</time>
      </trkpt>
      <trkpt lat="43.23772" lon="0.88843">
        <ele>361</ele>
        <time>2019-02-17T09:53:05.000Z</time>
      </trkpt>
      <trkpt lat="43.23773" lon="0.88845">
        <ele>361</ele>
        <time>2019-02-17T09:53:07.000Z</time>
      </trkpt>
      <trkpt lat="43.23774" lon="0.88847">
        <ele>361</ele>
        <time>2019-02-17T09:53:09.000Z</time>
      </trkpt>
      <trkpt lat="43.23775" lon="0.88848">
        <ele>361</ele>
        <time>2019-02-17T09:53:11.000Z</time>
      </trkpt>
      <trkpt lat="43.23775" lon="0.88849">
        <ele>360</ele>
        <time>2019-02-17T09:53:13.000Z</time>
      </trkpt>
      <trkpt lat="43.23776" lon="0.88851">
        <ele>360</ele>
        <time>2019-02-17T09:53:15.000Z</time>
      </trkpt>
      <trkpt lat="43.23777" lon="0.88853">
        <ele>360</ele>
        <time>2019-02-17T09:53:17.000Z</time>
      </trkpt>
      <trkpt lat="43.23778" lon="0.88855">
        <ele>360</ele>
        <time>2019-02-17T09:53:19.000Z</time>
      </trkpt>
      <trkpt lat="43.23779" lon="0.88857">
        <ele>360</ele>
        <time>2019-02-17T09:53:21.000Z</time>
      </trkpt>
      <trkpt lat="43.2378" lon="0.8886">
        <ele>359</ele>
        <time>2019-02-17T09:53:23.000Z</time>
      </trkpt>
      <trkpt lat="43.23781" lon="0.88861">
        <ele>359</ele>
        <time>2019-02-17T09:53:25.000Z</time>
      </trkpt>
      <trkpt lat="43.23783" lon="0.88863">
        <ele>359</ele>
        <time>2019-02-17T09:53:27.000Z</time>
      </trkpt>
      <trkpt lat="43.23784" lon="0.88866">
        <ele>359</ele>
        <time>2019-02-17T09:53:29.000Z</time>
      </trkpt>
      <trkpt lat="43.23784" lon="0.88868">
        <ele>358</ele>
        <time>2019-02-17T09:53:31.000Z</time>
      </trkpt>
      <trkpt lat="43.23785" lon="0.8887">
        <ele>358</ele>
        <time>2019-02-17T09:53:33.000Z</time>
      </trkpt>
      <trkpt lat="43.23787" lon="0.88873">
        <ele>358</ele>
        <time>2019-02-17T09:53:35.000Z</time>
      </trkpt>
      <trkpt lat="43.23788" lon="0.88874">
        <ele>357</ele>
        <time>2019-02-17T09:53:37.000Z</time>
      </trkpt>
      <trkpt lat="43.23789" lon="0.88877">
        <ele>357</ele>
        <time>2019-02-17T09:53:39.000Z</time>
      </trkpt>
      <trkpt lat="43.2379" lon="0.88879">
        <ele>357</ele>
        <time>2019-02-17T09:53:41.000Z</time>
      </trkpt>
      <trkpt lat="43.23792" lon="0.8888">
        <ele>356</ele>
        <time>2019-02-17T09:53:43.000Z</time>
      </trkpt>
      <trkpt lat="43.23794" lon="0.88881">
        <ele>356</ele>
        <time>2019-02-17T09:53:45.000Z</time>
      </trkpt>
      <trkpt lat="43.23794" lon="0.88882">
        <ele>356</ele>
        <time>2019-02-17T09:53:47.000Z</time>
      </trkpt>
      <trkpt lat="43.23795" lon="0.88884">
        <ele>355</ele>
        <time>2019-02-17T09:53:49.000Z</time>
      </trkpt>
      <trkpt lat="43.23797" lon="0.88885">
        <ele>355</ele>
        <time>2019-02-17T09:53:51.000Z</time>
      </trkpt>
      <trkpt lat="43.23798" lon="0.88887">
        <ele>354</ele>
        <time>2019-02-17T09:53:53.000Z</time>
      </trkpt>
      <trkpt lat="43.238" lon="0.88889">
        <ele>354</ele>
        <time>2019-02-17T09:53:55.000Z</time>
      </trkpt>
      <trkpt lat="43.23801" lon="0.88891">
        <ele>353</ele>
        <time>2019-02-17T09:53:57.000Z</time>
      </trkpt>
      <trkpt lat="43.23802" lon="0.88892">
        <ele>353</ele>
        <time>2019-02-17T09:53:59.000Z</time>
      </trkpt>
      <trkpt lat="43.23803" lon="0.88894">
        <ele>353</ele>
        <time>2019-02-17T09:54:01.000Z</time>
      </trkpt>
      <trkpt lat="43.23805" lon="0.88896">
        <ele>353</ele>
        <time>2019-02-17T09:54:03.000Z</time>
      </trkpt>
      <trkpt lat="43.23807" lon="0.88898">
        <ele>352</ele>
        <time>2019-02-17T09:54:05.000Z</time>
      </trkpt>
      <trkpt lat="43.23809" lon="0.889">
        <ele>352</ele>
        <time>2019-02-17T09:54:07.000Z</time>
      </trkpt>
      <trkpt lat="43.23811" lon="0.88902">
        <ele>351</ele>
        <time>2019-02-17T09:54:09.000Z</time>
      </trkpt>
      <trkpt lat="43.23812" lon="0.88904">
        <ele>351</ele>
        <time>2019-02-17T09:54:11.000Z</time>
      </trkpt>
      <trkpt lat="43.23814" lon="0.88907">
        <ele>350</ele>
        <time>2019-02-17T09:54:13.000Z</time>
      </trkpt>
      <trkpt lat="43.23816" lon="0.8891">
        <ele>350</ele>
        <time>2019-02-17T09:54:15.000Z</time>
      </trkpt>
      <trkpt lat="43.23818" lon="0.88913">
        <ele>350</ele>
        <time>2019-02-17T09:54:17.000Z</time>
      </trkpt>
      <trkpt lat="43.23819" lon="0.88916">
        <ele>350</ele>
        <time>2019-02-17T09:54:19.000Z</time>
      </trkpt>
      <trkpt lat="43.2382" lon="0.88919">
        <ele>350</ele>
        <time>2019-02-17T09:54:21.000Z</time>
      </trkpt>
      <trkpt lat="43.23822" lon="0.88922">
        <ele>349</ele>
        <time>2019-02-17T09:54:23.000Z</time>
      </trkpt>
      <trkpt lat="43.23824" lon="0.88924">
        <ele>349</ele>
        <time>2019-02-17T09:54:25.000Z</time>
      </trkpt>
      <trkpt lat="43.23826" lon="0.88926">
        <ele>348</ele>
        <time>2019-02-17T09:54:27.000Z</time>
      </trkpt>
      <trkpt lat="43.23829" lon="0.8893">
        <ele>347</ele>
        <time>2019-02-17T09:54:29.000Z</time>
      </trkpt>
      <trkpt lat="43.23831" lon="0.88935">
        <ele>347</ele>
        <time>2019-02-17T09:54:31.000Z</time>
      </trkpt>
      <trkpt lat="43.23834" lon="0.88939">
        <ele>347</ele>
        <time>2019-02-17T09:54:33.000Z</time>
      </trkpt>
      <trkpt lat="43.23835" lon="0.88942">
        <ele>347</ele>
        <time>2019-02-17T09:54:35.000Z</time>
      </trkpt>
      <trkpt lat="43.23836" lon="0.88945">
        <ele>347</ele>
        <time>2019-02-17T09:54:37.000Z</time>
      </trkpt>
      <trkpt lat="43.23837" lon="0.88948">
        <ele>347</ele>
        <time>2019-02-17T09:54:39.000Z</time>
      </trkpt>
      <trkpt lat="43.23838" lon="0.88951">
        <ele>347</ele>
        <time>2019-02-17T09:54:41.000Z</time>
      </trkpt>
      <trkpt lat="43.2384" lon="0.88954">
        <ele>347</ele>
        <time>2019-02-17T09:54:43.000Z</time>
      </trkpt>
      <trkpt lat="43.23841" lon="0.88956">
        <ele>346</ele>
        <time>2019-02-17T09:54:45.000Z</time>
      </trkpt>
      <trkpt lat="43.23842" lon="0.88958">
        <ele>346</ele>
        <time>2019-02-17T09:54:47.000Z</time>
      </trkpt>
      <trkpt lat="43.23843" lon="0.88959">
        <ele>346</ele>
        <time>2019-02-17T09:54:49.000Z</time>
      </trkpt>
      <trkpt lat="43.23844" lon="0.88961">
        <ele>346</ele>
        <time>2019-02-17T09:54:51.000Z</time>
      </trkpt>
      <trkpt lat="43.23845" lon="0.88963">
        <ele>346</ele>
        <time>2019-02-17T09:54:53.000Z</time>
      </trkpt>
      <trkpt lat="43.23846" lon="0.88964">
        <ele>346</ele>
        <time>2019-02-17T09:54:55.000Z</time>
      </trkpt>
      <trkpt lat="43.23847" lon="0.88965">
        <ele>345</ele>
        <time>2019-02-17T09:54:57.000Z</time>
      </trkpt>
      <trkpt lat="43.23848" lon="0.88965">
        <ele>345</ele>
        <time>2019-02-17T09:54:59.000Z</time>
      </trkpt>
      <trkpt lat="43.2385" lon="0.88966">
        <ele>345</ele>
        <time>2019-02-17T09:55:01.000Z</time>
      </trkpt>
      <trkpt lat="43.23851" lon="0.88966">
        <ele>344</ele>
        <time>2019-02-17T09:55:03.000Z</time>
      </trkpt>
      <trkpt lat="43.23852" lon="0.88965">
        <ele>344</ele>
        <time>2019-02-17T09:55:05.000Z</time>
      </trkpt>
      <trkpt lat="43.23853" lon="0.88965">
        <ele>344</ele>
        <time>2019-02-17T09:55:07.000Z</time>
      </trkpt>
      <trkpt lat="43.23854" lon="0.88965">
        <ele>343</ele>
        <time>2019-02-17T09:55:09.000Z</time>
      </trkpt>
      <trkpt lat="43.23855" lon="0.88965">
        <ele>343</ele>
        <time>2019-02-17T09:55:11.000Z</time>
      </trkpt>
      <trkpt lat="43.23857" lon="0.88965">
        <ele>343</ele>
        <time>2019-02-17T09:55:13.000Z</time>
      </trkpt>
      <trkpt lat="43.23858" lon="0.88965">
        <ele>342</ele>
        <time>2019-02-17T09:55:15.000Z</time>
      </trkpt>
      <trkpt lat="43.23858" lon="0.88965">
        <ele>342</ele>
        <time>2019-02-17T09:55:17.000Z</time>
      </trkpt>
      <trkpt lat="43.23858" lon="0.88965">
        <ele>342</ele>
        <time>2019-02-17T09:55:19.000Z</time>
      </trkpt>
      <trkpt lat="43.2386" lon="0.88965">
        <ele>342</ele>
        <time>2019-02-17T09:55:21.000Z</time>
      </trkpt>
      <trkpt lat="43.23861" lon="0.88965">
        <ele>341</ele>
        <time>2019-02-17T09:55:23.000Z</time>
      </trkpt>
      <trkpt lat="43.23862" lon="0.88965">
        <ele>341</ele>
        <time>2019-02-17T09:55:25.000Z</time>
      </trkpt>
      <trkpt lat="43.23864" lon="0.88965">
        <ele>341</ele>
        <time>2019-02-17T09:55:27.000Z</time>
      </trkpt>
      <trkpt lat="43.23864" lon="0.88965">
        <ele>341</ele>
        <time>2019-02-17T09:55:29.000Z</time>
      </trkpt>
      <trkpt lat="43.23867" lon="0.88965">
        <ele>340</ele>
        <time>2019-02-17T09:55:31.000Z</time>
      </trkpt>
      <trkpt lat="43.23868" lon="0.88965">
        <ele>339</ele>
        <time>2019-02-17T09:55:33.000Z</time>
      </trkpt>
      <trkpt lat="43.2387" lon="0.88966">
        <ele>339</ele>
        <time>2019-02-17T09:55:35.000Z</time>
      </trkpt>
      <trkpt lat="43.2387" lon="0.88966">
        <ele>339</ele>
        <time>2019-02-17T09:55:37.000Z</time>
      </trkpt>
      <trkpt lat="43.23872" lon="0.88966">
        <ele>339</ele>
        <time>2019-02-17T09:55:39.000Z</time>
      </trkpt>
      <trkpt lat="43.23873" lon="0.88967">
        <ele>339</ele>
        <time>2019-02-17T09:55:41.000Z</time>
      </trkpt>
      <trkpt lat="43.23874" lon="0.88967">
        <ele>338</ele>
        <time>2019-02-17T09:55:43.000Z</time>
      </trkpt>
      <trkpt lat="43.23875" lon="0.88967">
        <ele>338</ele>
        <time>2019-02-17T09:55:45.000Z</time>
      </trkpt>
      <trkpt lat="43.23876" lon="0.88966">
        <ele>337</ele>
        <time>2019-02-17T09:55:47.000Z</time>
      </trkpt>
      <trkpt lat="43.23877" lon="0.88966">
        <ele>337</ele>
        <time>2019-02-17T09:55:49.000Z</time>
      </trkpt>
      <trkpt lat="43.23878" lon="0.88966">
        <ele>337</ele>
        <time>2019-02-17T09:55:51.000Z</time>
      </trkpt>
      <trkpt lat="43.23879" lon="0.88966">
        <ele>337</ele>
        <time>2019-02-17T09:55:53.000Z</time>
      </trkpt>
      <trkpt lat="43.23881" lon="0.88967">
        <ele>336</ele>
        <time>2019-02-17T09:55:55.000Z</time>
      </trkpt>
      <trkpt lat="43.23882" lon="0.88967">
        <ele>336</ele>
        <time>2019-02-17T09:55:57.000Z</time>
      </trkpt>
      <trkpt lat="43.23883" lon="0.88967">
        <ele>336</ele>
        <time>2019-02-17T09:55:59.000Z</time>
      </trkpt>
      <trkpt lat="43.23885" lon="0.88967">
        <ele>335</ele>
        <time>2019-02-17T09:56:01.000Z</time>
      </trkpt>
      <trkpt lat="43.23888" lon="0.88967">
        <ele>334</ele>
        <time>2019-02-17T09:56:03.000Z</time>
      </trkpt>
      <trkpt lat="43.2389" lon="0.88968">
        <ele>334</ele>
        <time>2019-02-17T09:56:05.000Z</time>
      </trkpt>
      <trkpt lat="43.23891" lon="0.88968">
        <ele>334</ele>
        <time>2019-02-17T09:56:07.000Z</time>
      </trkpt>
      <trkpt lat="43.23893" lon="0.88968">
        <ele>333</ele>
        <time>2019-02-17T09:56:09.000Z</time>
      </trkpt>
      <trkpt lat="43.23895" lon="0.88969">
        <ele>333</ele>
        <time>2019-02-17T09:56:11.000Z</time>
      </trkpt>
      <trkpt lat="43.23897" lon="0.8897">
        <ele>332</ele>
        <time>2019-02-17T09:56:13.000Z</time>
      </trkpt>
      <trkpt lat="43.23899" lon="0.88971">
        <ele>332</ele>
        <time>2019-02-17T09:56:15.000Z</time>
      </trkpt>
      <trkpt lat="43.23901" lon="0.88971">
        <ele>331</ele>
        <time>2019-02-17T09:56:17.000Z</time>
      </trkpt>
      <trkpt lat="43.23904" lon="0.88972">
        <ele>331</ele>
        <time>2019-02-17T09:56:19.000Z</time>
      </trkpt>
      <trkpt lat="43.23906" lon="0.88973">
        <ele>330</ele>
        <time>2019-02-17T09:56:21.000Z</time>
      </trkpt>
      <trkpt lat="43.23909" lon="0.88974">
        <ele>330</ele>
        <time>2019-02-17T09:56:23.000Z</time>
      </trkpt>
      <trkpt lat="43.23911" lon="0.88975">
        <ele>329</ele>
        <time>2019-02-17T09:56:25.000Z</time>
      </trkpt>
      <trkpt lat="43.23912" lon="0.88975">
        <ele>329</ele>
        <time>2019-02-17T09:56:27.000Z</time>
      </trkpt>
      <trkpt lat="43.23914" lon="0.88975">
        <ele>328</ele>
        <time>2019-02-17T09:56:29.000Z</time>
      </trkpt>
      <trkpt lat="43.23916" lon="0.88975">
        <ele>328</ele>
        <time>2019-02-17T09:56:31.000Z</time>
      </trkpt>
      <trkpt lat="43.23918" lon="0.88974">
        <ele>327</ele>
        <time>2019-02-17T09:56:33.000Z</time>
      </trkpt>
      <trkpt lat="43.23921" lon="0.88973">
        <ele>326</ele>
        <time>2019-02-17T09:56:35.000Z</time>
      </trkpt>
      <trkpt lat="43.23923" lon="0.88972">
        <ele>326</ele>
        <time>2019-02-17T09:56:37.000Z</time>
      </trkpt>
      <trkpt lat="43.23924" lon="0.88971">
        <ele>325</ele>
        <time>2019-02-17T09:56:39.000Z</time>
      </trkpt>
      <trkpt lat="43.23926" lon="0.88971">
        <ele>324</ele>
        <time>2019-02-17T09:56:41.000Z</time>
      </trkpt>
      <trkpt lat="43.23928" lon="0.8897">
        <ele>324</ele>
        <time>2019-02-17T09:56:43.000Z</time>
      </trkpt>
      <trkpt lat="43.23929" lon="0.8897">
        <ele>324</ele>
        <time>2019-02-17T09:56:45.000Z</time>
      </trkpt>
      <trkpt lat="43.23931" lon="0.88971">
        <ele>324</ele>
        <time>2019-02-17T09:56:47.000Z</time>
      </trkpt>
      <trkpt lat="43.23932" lon="0.88971">
        <ele>325</ele>
        <time>2019-02-17T09:56:49.000Z</time>
      </trkpt>
      <trkpt lat="43.23932" lon="0.88972">
        <ele>325</ele>
        <time>2019-02-17T09:56:51.000Z</time>
      </trkpt>
      <trkpt lat="43.23933" lon="0.88973">
        <ele>325</ele>
        <time>2019-02-17T09:56:53.000Z</time>
      </trkpt>
      <trkpt lat="43.23935" lon="0.88973">
        <ele>326</ele>
        <time>2019-02-17T09:56:55.000Z</time>
      </trkpt>
      <trkpt lat="43.23934" lon="0.88972">
        <ele>325</ele>
        <time>2019-02-17T09:56:57.000Z</time>
      </trkpt>
      <trkpt lat="43.23935" lon="0.88973">
        <ele>326</ele>
        <time>2019-02-17T09:56:59.000Z</time>
      </trkpt>
      <trkpt lat="43.23935" lon="0.88973">
        <ele>326</ele>
        <time>2019-02-17T09:57:01.000Z</time>
      </trkpt>
      <trkpt lat="43.23936" lon="0.88974">
        <ele>326</ele>
        <time>2019-02-17T09:57:03.000Z</time>
      </trkpt>
      <trkpt lat="43.23937" lon="0.88975">
        <ele>326</ele>
        <time>2019-02-17T09:57:05.000Z</time>
      </trkpt>
      <trkpt lat="43.23938" lon="0.88975">
        <ele>326</ele>
        <time>2019-02-17T09:57:07.000Z</time>
      </trkpt>
      <trkpt lat="43.23938" lon="0.88976">
        <ele>326</ele>
        <time>2019-02-17T09:57:09.000Z</time>
      </trkpt>
      <trkpt lat="43.23938" lon="0.88976">
        <ele>326</ele>
        <time>2019-02-17T09:57:11.000Z</time>
      </trkpt>
      <trkpt lat="43.23938" lon="0.88976">
        <ele>326</ele>
        <time>2019-02-17T09:57:13.000Z</time>
      </trkpt>
      <trkpt lat="43.23938" lon="0.88977">
        <ele>326</ele>
        <time>2019-02-17T09:57:15.000Z</time>
      </trkpt>
      <trkpt lat="43.23938" lon="0.88977">
        <ele>326</ele>
        <time>2019-02-17T09:57:17.000Z</time>
      </trkpt>
      <trkpt lat="43.23938" lon="0.88977">
        <ele>326</ele>
        <time>2019-02-17T09:57:19.000Z</time>
      </trkpt>
      <trkpt lat="43.23937" lon="0.88977">
        <ele>326</ele>
        <time>2019-02-17T09:57:21.000Z</time>
      </trkpt>
      <trkpt lat="43.23938" lon="0.88977">
        <ele>326</ele>
        <time>2019-02-17T09:57:23.000Z</time>
      </trkpt>
      <trkpt lat="43.23938" lon="0.88977">
        <ele>326</ele>
        <time>2019-02-17T09:57:25.000Z</time>
      </trkpt>
      <trkpt lat="43.23938" lon="0.88977">
        <ele>327</ele>
        <time>2019-02-17T09:57:27.000Z</time>
      </trkpt>
      <trkpt lat="43.23939" lon="0.88978">
        <ele>327</ele>
        <time>2019-02-17T09:57:29.000Z</time>
      </trkpt>
      <trkpt lat="43.23939" lon="0.88977">
        <ele>327</ele>
        <time>2019-02-17T09:57:31.000Z</time>
      </trkpt>
      <trkpt lat="43.2394" lon="0.88978">
        <ele>327</ele>
        <time>2019-02-17T09:57:33.000Z</time>
      </trkpt>
      <trkpt lat="43.2394" lon="0.88978">
        <ele>327</ele>
        <time>2019-02-17T09:57:35.000Z</time>
      </trkpt>
      <trkpt lat="43.2394" lon="0.88979">
        <ele>327</ele>
        <time>2019-02-17T09:57:37.000Z</time>
      </trkpt>
      <trkpt lat="43.23941" lon="0.88978">
        <ele>327</ele>
        <time>2019-02-17T09:57:39.000Z</time>
      </trkpt>
      <trkpt lat="43.2394" lon="0.88978">
        <ele>327</ele>
        <time>2019-02-17T09:57:41.000Z</time>
      </trkpt>
      <trkpt lat="43.2394" lon="0.88978">
        <ele>327</ele>
        <time>2019-02-17T09:57:43.000Z</time>
      </trkpt>
      <trkpt lat="43.2394" lon="0.88978">
        <ele>327</ele>
        <time>2019-02-17T09:57:45.000Z</time>
      </trkpt>
      <trkpt lat="43.2394" lon="0.88978">
        <ele>327</ele>
        <time>2019-02-17T09:57:47.000Z</time>
      </trkpt>
      <trkpt lat="43.2394" lon="0.88978">
        <ele>327</ele>
        <time>2019-02-17T09:57:49.000Z</time>
      </trkpt>
      <trkpt lat="43.2394" lon="0.88978">
        <ele>327</ele>
        <time>2019-02-17T09:57:51.000Z</time>
      </trkpt>
      <trkpt lat="43.2394" lon="0.88979">
        <ele>327</ele>
        <time>2019-02-17T09:57:53.000Z</time>
      </trkpt>
      <trkpt lat="43.23941" lon="0.8898">
        <ele>327</ele>
        <time>2019-02-17T09:57:55.000Z</time>
      </trkpt>
      <trkpt lat="43.23941" lon="0.88982">
        <ele>327</ele>
        <time>2019-02-17T09:57:57.000Z</time>
      </trkpt>
      <trkpt lat="43.23941" lon="0.88983">
        <ele>327</ele>
        <time>2019-02-17T09:57:59.000Z</time>
      </trkpt>
      <trkpt lat="43.2394" lon="0.88985">
        <ele>327</ele>
        <time>2019-02-17T09:58:01.000Z</time>
      </trkpt>
      <trkpt lat="43.2394" lon="0.88986">
        <ele>327</ele>
        <time>2019-02-17T09:58:03.000Z</time>
      </trkpt>
      <trkpt lat="43.23939" lon="0.88988">
        <ele>327</ele>
        <time>2019-02-17T09:58:05.000Z</time>
      </trkpt>
      <trkpt lat="43.23939" lon="0.8899">
        <ele>327</ele>
        <time>2019-02-17T09:58:07.000Z</time>
      </trkpt>
      <trkpt lat="43.23938" lon="0.88991">
        <ele>327</ele>
        <time>2019-02-17T09:58:09.000Z</time>
      </trkpt>
      <trkpt lat="43.23938" lon="0.88993">
        <ele>328</ele>
        <time>2019-02-17T09:58:11.000Z</time>
      </trkpt>
      <trkpt lat="43.23939" lon="0.88996">
        <ele>328</ele>
        <time>2019-02-17T09:58:13.000Z</time>
      </trkpt>
      <trkpt lat="43.23939" lon="0.88999">
        <ele>328</ele>
        <time>2019-02-17T09:58:15.000Z</time>
      </trkpt>
      <trkpt lat="43.2394" lon="0.89002">
        <ele>329</ele>
        <time>2019-02-17T09:58:17.000Z</time>
      </trkpt>
      <trkpt lat="43.23941" lon="0.89005">
        <ele>329</ele>
        <time>2019-02-17T09:58:19.000Z</time>
      </trkpt>
      <trkpt lat="43.23941" lon="0.89007">
        <ele>330</ele>
        <time>2019-02-17T09:58:21.000Z</time>
      </trkpt>
      <trkpt lat="43.23941" lon="0.89009">
        <ele>330</ele>
        <time>2019-02-17T09:58:23.000Z</time>
      </trkpt>
      <trkpt lat="43.2394" lon="0.89012">
        <ele>330</ele>
        <time>2019-02-17T09:58:25.000Z</time>
      </trkpt>
      <trkpt lat="43.2394" lon="0.89014">
        <ele>330</ele>
        <time>2019-02-17T09:58:27.000Z</time>
      </trkpt>
      <trkpt lat="43.23941" lon="0.89017">
        <ele>331</ele>
        <time>2019-02-17T09:58:29.000Z</time>
      </trkpt>
      <trkpt lat="43.23942" lon="0.89019">
        <ele>331</ele>
        <time>2019-02-17T09:58:31.000Z</time>
      </trkpt>
      <trkpt lat="43.23943" lon="0.89022">
        <ele>332</ele>
        <time>2019-02-17T09:58:33.000Z</time>
      </trkpt>
      <trkpt lat="43.23943" lon="0.89025">
        <ele>332</ele>
        <time>2019-02-17T09:58:35.000Z</time>
      </trkpt>
      <trkpt lat="43.23944" lon="0.89027">
        <ele>332</ele>
        <time>2019-02-17T09:58:37.000Z</time>
      </trkpt>
      <trkpt lat="43.23945" lon="0.89028">
        <ele>333</ele>
        <time>2019-02-17T09:58:39.000Z</time>
      </trkpt>
      <trkpt lat="43.23946" lon="0.89029">
        <ele>333</ele>
        <time>2019-02-17T09:58:41.000Z</time>
      </trkpt>
      <trkpt lat="43.23945" lon="0.89029">
        <ele>333</ele>
        <time>2019-02-17T09:58:43.000Z</time>
      </trkpt>
      <trkpt lat="43.23945" lon="0.8903">
        <ele>333</ele>
        <time>2019-02-17T09:58:45.000Z</time>
      </trkpt>
      <trkpt lat="43.23945" lon="0.89032">
        <ele>333</ele>
        <time>2019-02-17T09:58:47.000Z</time>
      </trkpt>
      <trkpt lat="43.23945" lon="0.89033">
        <ele>333</ele>
        <time>2019-02-17T09:58:49.000Z</time>
      </trkpt>
      <trkpt lat="43.23944" lon="0.89034">
        <ele>333</ele>
        <time>2019-02-17T09:58:51.000Z</time>
      </trkpt>
      <trkpt lat="43.23944" lon="0.89034">
        <ele>333</ele>
        <time>2019-02-17T09:58:53.000Z</time>
      </trkpt>
      <trkpt lat="43.23944" lon="0.89034">
        <ele>333</ele>
        <time>2019-02-17T09:58:55.000Z</time>
      </trkpt>
      <trkpt lat="43.23943" lon="0.89034">
        <ele>333</ele>
        <time>2019-02-17T09:58:57.000Z</time>
      </trkpt>
      <trkpt lat="43.23943" lon="0.89035">
        <ele>333</ele>
        <time>2019-02-17T09:58:59.000Z</time>
      </trkpt>
      <trkpt lat="43.23943" lon="0.89035">
        <ele>333</ele>
        <time>2019-02-17T09:59:01.000Z</time>
      </trkpt>
      <trkpt lat="43.23944" lon="0.89036">
        <ele>333</ele>
        <time>2019-02-17T09:59:03.000Z</time>
      </trkpt>
      <trkpt lat="43.23944" lon="0.89036">
        <ele>333</ele>
        <time>2019-02-17T09:59:05.000Z</time>
      </trkpt>
      <trkpt lat="43.23944" lon="0.89037">
        <ele>334</ele>
        <time>2019-02-17T09:59:07.000Z</time>
      </trkpt>
      <trkpt lat="43.23944" lon="0.89037">
        <ele>334</ele>
        <time>2019-02-17T09:59:09.000Z</time>
      </trkpt>
      <trkpt lat="43.23944" lon="0.89036">
        <ele>334</ele>
        <time>2019-02-17T09:59:11.000Z</time>
      </trkpt>
      <trkpt lat="43.23944" lon="0.89037">
        <ele>334</ele>
        <time>2019-02-17T09:59:13.000Z</time>
      </trkpt>
      <trkpt lat="43.23944" lon="0.89038">
        <ele>334</ele>
        <time>2019-02-17T09:59:15.000Z</time>
      </trkpt>
      <trkpt lat="43.23944" lon="0.89038">
        <ele>334</ele>
        <time>2019-02-17T09:59:17.000Z</time>
      </trkpt>
      <trkpt lat="43.23944" lon="0.89037">
        <ele>334</ele>
        <time>2019-02-17T09:59:19.000Z</time>
      </trkpt>
      <trkpt lat="43.23944" lon="0.89038">
        <ele>334</ele>
        <time>2019-02-17T09:59:21.000Z</time>
      </trkpt>
      <trkpt lat="43.23943" lon="0.89039">
        <ele>334</ele>
        <time>2019-02-17T09:59:23.000Z</time>
      </trkpt>
      <trkpt lat="43.23943" lon="0.89039">
        <ele>334</ele>
        <time>2019-02-17T09:59:25.000Z</time>
      </trkpt>
      <trkpt lat="43.23943" lon="0.89039">
        <ele>334</ele>
        <time>2019-02-17T09:59:27.000Z</time>
      </trkpt>
      <trkpt lat="43.23943" lon="0.89039">
        <ele>334</ele>
        <time>2019-02-17T09:59:29.000Z</time>
      </trkpt>
      <trkpt lat="43.23944" lon="0.89039">
        <ele>334</ele>
        <time>2019-02-17T09:59:31.000Z</time>
      </trkpt>
      <trkpt lat="43.23944" lon="0.89039">
        <ele>334</ele>
        <time>2019-02-17T09:59:33.000Z</time>
      </trkpt>
      <trkpt lat="43.23944" lon="0.89038">
        <ele>334</ele>
        <time>2019-02-17T09:59:35.000Z</time>
      </trkpt>
      <trkpt lat="43.23945" lon="0.89038">
        <ele>334</ele>
        <time>2019-02-17T09:59:37.000Z</time>
      </trkpt>
      <trkpt lat="43.23945" lon="0.89038">
        <ele>334</ele>
        <time>2019-02-17T09:59:39.000Z</time>
      </trkpt>
      <trkpt lat="43.23946" lon="0.89038">
        <ele>334</ele>
        <time>2019-02-17T09:59:41.000Z</time>
      </trkpt>
      <trkpt lat="43.23946" lon="0.89039">
        <ele>334</ele>
        <time>2019-02-17T09:59:43.000Z</time>
      </trkpt>
      <trkpt lat="43.23946" lon="0.8904">
        <ele>334</ele>
        <time>2019-02-17T09:59:45.000Z</time>
      </trkpt>
      <trkpt lat="43.23946" lon="0.89041">
        <ele>334</ele>
        <time>2019-02-17T09:59:47.000Z</time>
      </trkpt>
      <trkpt lat="43.23945" lon="0.89042">
        <ele>334</ele>
        <time>2019-02-17T09:59:49.000Z</time>
      </trkpt>
      <trkpt lat="43.23945" lon="0.89042">
        <ele>334</ele>
        <time>2019-02-17T09:59:51.000Z</time>
      </trkpt>
      <trkpt lat="43.23945" lon="0.89041">
        <ele>334</ele>
        <time>2019-02-17T09:59:53.000Z</time>
      </trkpt>
      <trkpt lat="43.23945" lon="0.8904">
        <ele>334</ele>
        <time>2019-02-17T09:59:55.000Z</time>
      </trkpt>
      <trkpt lat="43.23946" lon="0.8904">
        <ele>334</ele>
        <time>2019-02-17T09:59:57.000Z</time>
      </trkpt>
      <trkpt lat="43.23946" lon="0.89039">
        <ele>334</ele>
        <time>2019-02-17T09:59:59.000Z</time>
      </trkpt>
      <trkpt lat="43.23946" lon="0.89039">
        <ele>334</ele>
        <time>2019-02-17T10:00:01.000Z</time>
      </trkpt>
      <trkpt lat="43.23946" lon="0.89038">
        <ele>334</ele>
        <time>2019-02-17T10:00:03.000Z</time>
      </trkpt>
      <trkpt lat="43.23946" lon="0.89037">
        <ele>334</ele>
        <time>2019-02-17T10:00:05.000Z</time>
      </trkpt>
      <trkpt lat="43.23946" lon="0.89037">
        <ele>334</ele>
        <time>2019-02-17T10:00:07.000Z</time>
      </trkpt>
      <trkpt lat="43.23946" lon="0.89036">
        <ele>334</ele>
        <time>2019-02-17T10:00:09.000Z</time>
      </trkpt>
      <trkpt lat="43.23946" lon="0.89036">
        <ele>334</ele>
        <time>2019-02-17T10:00:11.000Z</time>
      </trkpt>
      <trkpt lat="43.23947" lon="0.89035">
        <ele>334</ele>
        <time>2019-02-17T10:00:13.000Z</time>
      </trkpt>
      <trkpt lat="43.23947" lon="0.89034">
        <ele>334</ele>
        <time>2019-02-17T10:00:15.000Z</time>
      </trkpt>
      <trkpt lat="43.23947" lon="0.89034">
        <ele>334</ele>
        <time>2019-02-17T10:00:17.000Z</time>
      </trkpt>
      <trkpt lat="43.23947" lon="0.89033">
        <ele>334</ele>
        <time>2019-02-17T10:00:19.000Z</time>
      </trkpt>
      <trkpt lat="43.23946" lon="0.89033">
        <ele>333</ele>
        <time>2019-02-17T10:00:21.000Z</time>
      </trkpt>
      <trkpt lat="43.23946" lon="0.89033">
        <ele>333</ele>
        <time>2019-02-17T10:00:23.000Z</time>
      </trkpt>
      <trkpt lat="43.23946" lon="0.89034">
        <ele>334</ele>
        <time>2019-02-17T10:00:25.000Z</time>
      </trkpt>
      <trkpt lat="43.23946" lon="0.89034">
        <ele>334</ele>
        <time>2019-02-17T10:00:27.000Z</time>
      </trkpt>
      <trkpt lat="43.23946" lon="0.89035">
        <ele>334</ele>
        <time>2019-02-17T10:00:29.000Z</time>
      </trkpt>
      <trkpt lat="43.23946" lon="0.89036">
        <ele>334</ele>
        <time>2019-02-17T10:00:31.000Z</time>
      </trkpt>
      <trkpt lat="43.23946" lon="0.89036">
        <ele>334</ele>
        <time>2019-02-17T10:00:33.000Z</time>
      </trkpt>
      <trkpt lat="43.23945" lon="0.89037">
        <ele>334</ele>
        <time>2019-02-17T10:00:35.000Z</time>
      </trkpt>
      <trkpt lat="43.23945" lon="0.89037">
        <ele>334</ele>
        <time>2019-02-17T10:00:37.000Z</time>
      </trkpt>
      <trkpt lat="43.23945" lon="0.89038">
        <ele>334</ele>
        <time>2019-02-17T10:00:39.000Z</time>
      </trkpt>
      <trkpt lat="43.23945" lon="0.89039">
        <ele>334</ele>
        <time>2019-02-17T10:00:41.000Z</time>
      </trkpt>
      <trkpt lat="43.23945" lon="0.8904">
        <ele>334</ele>
        <time>2019-02-17T10:00:43.000Z</time>
      </trkpt>
      <trkpt lat="43.23946" lon="0.89042">
        <ele>334</ele>
        <time>2019-02-17T10:00:45.000Z</time>
      </trkpt>
      <trkpt lat="43.23945" lon="0.89043">
        <ele>334</ele>
        <time>2019-02-17T10:00:47.000Z</time>
      </trkpt>
      <trkpt lat="43.23944" lon="0.89044">
        <ele>335</ele>
        <time>2019-02-17T10:00:49.000Z</time>
      </trkpt>
      <trkpt lat="43.23944" lon="0.89046">
        <ele>335</ele>
        <time>2019-02-17T10:00:51.000Z</time>
      </trkpt>
      <trkpt lat="43.23943" lon="0.89048">
        <ele>335</ele>
        <time>2019-02-17T10:00:53.000Z</time>
      </trkpt>
      <trkpt lat="43.23941" lon="0.89049">
        <ele>335</ele>
        <time>2019-02-17T10:00:55.000Z</time>
      </trkpt>
      <trkpt lat="43.23941" lon="0.89051">
        <ele>335</ele>
        <time>2019-02-17T10:00:57.000Z</time>
      </trkpt>
      <trkpt lat="43.23941" lon="0.89052">
        <ele>335</ele>
        <time>2019-02-17T10:00:59.000Z</time>
      </trkpt>
      <trkpt lat="43.23941" lon="0.89053">
        <ele>335</ele>
        <time>2019-02-17T10:01:01.000Z</time>
      </trkpt>
      <trkpt lat="43.23942" lon="0.89056">
        <ele>336</ele>
        <time>2019-02-17T10:01:03.000Z</time>
      </trkpt>
      <trkpt lat="43.23942" lon="0.89057">
        <ele>336</ele>
        <time>2019-02-17T10:01:05.000Z</time>
      </trkpt>
      <trkpt lat="43.23942" lon="0.89059">
        <ele>336</ele>
        <time>2019-02-17T10:01:07.000Z</time>
      </trkpt>
      <trkpt lat="43.23942" lon="0.89062">
        <ele>335</ele>
        <time>2019-02-17T10:01:09.000Z</time>
      </trkpt>
      <trkpt lat="43.23942" lon="0.89066">
        <ele>335</ele>
        <time>2019-02-17T10:01:11.000Z</time>
      </trkpt>
      <trkpt lat="43.23943" lon="0.89068">
        <ele>335</ele>
        <time>2019-02-17T10:01:13.000Z</time>
      </trkpt>
      <trkpt lat="43.23943" lon="0.89071">
        <ele>335</ele>
        <time>2019-02-17T10:01:15.000Z</time>
      </trkpt>
      <trkpt lat="43.23943" lon="0.89074">
        <ele>336</ele>
        <time>2019-02-17T10:01:17.000Z</time>
      </trkpt>
      <trkpt lat="43.23944" lon="0.89077">
        <ele>336</ele>
        <time>2019-02-17T10:01:19.000Z</time>
      </trkpt>
      <trkpt lat="43.23944" lon="0.89079">
        <ele>336</ele>
        <time>2019-02-17T10:01:21.000Z</time>
      </trkpt>
      <trkpt lat="43.23944" lon="0.89082">
        <ele>337</ele>
        <time>2019-02-17T10:01:23.000Z</time>
      </trkpt>
      <trkpt lat="43.23944" lon="0.89084">
        <ele>337</ele>
        <time>2019-02-17T10:01:25.000Z</time>
      </trkpt>
      <trkpt lat="43.23944" lon="0.89086">
        <ele>337</ele>
        <time>2019-02-17T10:01:27.000Z</time>
      </trkpt>
      <trkpt lat="43.23944" lon="0.89089">
        <ele>338</ele>
        <time>2019-02-17T10:01:29.000Z</time>
      </trkpt>
      <trkpt lat="43.23944" lon="0.89091">
        <ele>338</ele>
        <time>2019-02-17T10:01:31.000Z</time>
      </trkpt>
      <trkpt lat="43.23944" lon="0.89093">
        <ele>338</ele>
        <time>2019-02-17T10:01:33.000Z</time>
      </trkpt>
      <trkpt lat="43.23945" lon="0.89096">
        <ele>339</ele>
        <time>2019-02-17T10:01:35.000Z</time>
      </trkpt>
      <trkpt lat="43.23946" lon="0.89098">
        <ele>339</ele>
        <time>2019-02-17T10:01:37.000Z</time>
      </trkpt>
      <trkpt lat="43.23946" lon="0.891">
        <ele>339</ele>
        <time>2019-02-17T10:01:39.000Z</time>
      </trkpt>
      <trkpt lat="43.23946" lon="0.89103">
        <ele>340</ele>
        <time>2019-02-17T10:01:41.000Z</time>
      </trkpt>
      <trkpt lat="43.23947" lon="0.89106">
        <ele>340</ele>
        <time>2019-02-17T10:01:43.000Z</time>
      </trkpt>
      <trkpt lat="43.23947" lon="0.89108">
        <ele>341</ele>
        <time>2019-02-17T10:01:45.000Z</time>
      </trkpt>
      <trkpt lat="43.23947" lon="0.8911">
        <ele>341</ele>
        <time>2019-02-17T10:01:47.000Z</time>
      </trkpt>
      <trkpt lat="43.23948" lon="0.89113">
        <ele>341</ele>
        <time>2019-02-17T10:01:49.000Z</time>
      </trkpt>
      <trkpt lat="43.23948" lon="0.89115">
        <ele>342</ele>
        <time>2019-02-17T10:01:51.000Z</time>
      </trkpt>
      <trkpt lat="43.23948" lon="0.89117">
        <ele>342</ele>
        <time>2019-02-17T10:01:53.000Z</time>
      </trkpt>
      <trkpt lat="43.23948" lon="0.89119">
        <ele>342</ele>
        <time>2019-02-17T10:01:55.000Z</time>
      </trkpt>
      <trkpt lat="43.2395" lon="0.89122">
        <ele>342</ele>
        <time>2019-02-17T10:01:57.000Z</time>
      </trkpt>
      <trkpt lat="43.23952" lon="0.89125">
        <ele>343</ele>
        <time>2019-02-17T10:01:59.000Z</time>
      </trkpt>
      <trkpt lat="43.23954" lon="0.89128">
        <ele>343</ele>
        <time>2019-02-17T10:02:01.000Z</time>
      </trkpt>
      <trkpt lat="43.23955" lon="0.89131">
        <ele>343</ele>
        <time>2019-02-17T10:02:03.000Z</time>
      </trkpt>
      <trkpt lat="43.23957" lon="0.89135">
        <ele>344</ele>
        <time>2019-02-17T10:02:05.000Z</time>
      </trkpt>
      <trkpt lat="43.23957" lon="0.89137">
        <ele>344</ele>
        <time>2019-02-17T10:02:07.000Z</time>
      </trkpt>
      <trkpt lat="43.23958" lon="0.8914">
        <ele>345</ele>
        <time>2019-02-17T10:02:09.000Z</time>
      </trkpt>
      <trkpt lat="43.23959" lon="0.89142">
        <ele>344</ele>
        <time>2019-02-17T10:02:11.000Z</time>
      </trkpt>
      <trkpt lat="43.23959" lon="0.89144">
        <ele>344</ele>
        <time>2019-02-17T10:02:13.000Z</time>
      </trkpt>
      <trkpt lat="43.2396" lon="0.89147">
        <ele>344</ele>
        <time>2019-02-17T10:02:15.000Z</time>
      </trkpt>
      <trkpt lat="43.23961" lon="0.89149">
        <ele>344</ele>
        <time>2019-02-17T10:02:17.000Z</time>
      </trkpt>
      <trkpt lat="43.23963" lon="0.89152">
        <ele>343</ele>
        <time>2019-02-17T10:02:19.000Z</time>
      </trkpt>
      <trkpt lat="43.23964" lon="0.89154">
        <ele>343</ele>
        <time>2019-02-17T10:02:21.000Z</time>
      </trkpt>
      <trkpt lat="43.23966" lon="0.89156">
        <ele>343</ele>
        <time>2019-02-17T10:02:23.000Z</time>
      </trkpt>
      <trkpt lat="43.23969" lon="0.89156">
        <ele>342</ele>
        <time>2019-02-17T10:02:25.000Z</time>
      </trkpt>
      <trkpt lat="43.23969" lon="0.89158">
        <ele>342</ele>
        <time>2019-02-17T10:02:27.000Z</time>
      </trkpt>
      <trkpt lat="43.23969" lon="0.89161">
        <ele>342</ele>
        <time>2019-02-17T10:02:29.000Z</time>
      </trkpt>
      <trkpt lat="43.23969" lon="0.89163">
        <ele>342</ele>
        <time>2019-02-17T10:02:31.000Z</time>
      </trkpt>
      <trkpt lat="43.23969" lon="0.89166">
        <ele>341</ele>
        <time>2019-02-17T10:02:33.000Z</time>
      </trkpt>
      <trkpt lat="43.23968" lon="0.89168">
        <ele>341</ele>
        <time>2019-02-17T10:02:35.000Z</time>
      </trkpt>
      <trkpt lat="43.23967" lon="0.8917">
        <ele>341</ele>
        <time>2019-02-17T10:02:37.000Z</time>
      </trkpt>
      <trkpt lat="43.23966" lon="0.89171">
        <ele>341</ele>
        <time>2019-02-17T10:02:39.000Z</time>
      </trkpt>
      <trkpt lat="43.23966" lon="0.89172">
        <ele>341</ele>
        <time>2019-02-17T10:02:41.000Z</time>
      </trkpt>
      <trkpt lat="43.23966" lon="0.89172">
        <ele>341</ele>
        <time>2019-02-17T10:02:43.000Z</time>
      </trkpt>
      <trkpt lat="43.23966" lon="0.89172">
        <ele>341</ele>
        <time>2019-02-17T10:02:45.000Z</time>
      </trkpt>
      <trkpt lat="43.23966" lon="0.89172">
        <ele>341</ele>
        <time>2019-02-17T10:02:47.000Z</time>
      </trkpt>
      <trkpt lat="43.23966" lon="0.89172">
        <ele>341</ele>
        <time>2019-02-17T10:02:49.000Z</time>
      </trkpt>
      <trkpt lat="43.23967" lon="0.89172">
        <ele>341</ele>
        <time>2019-02-17T10:02:51.000Z</time>
      </trkpt>
      <trkpt lat="43.23967" lon="0.89172">
        <ele>341</ele>
        <time>2019-02-17T10:02:53.000Z</time>
      </trkpt>
      <trkpt lat="43.23967" lon="0.89173">
        <ele>341</ele>
        <time>2019-02-17T10:02:55.000Z</time>
      </trkpt>
      <trkpt lat="43.23967" lon="0.89173">
        <ele>341</ele>
        <time>2019-02-17T10:02:57.000Z</time>
      </trkpt>
      <trkpt lat="43.23968" lon="0.89172">
        <ele>341</ele>
        <time>2019-02-17T10:02:59.000Z</time>
      </trkpt>
      <trkpt lat="43.23969" lon="0.89172">
        <ele>341</ele>
        <time>2019-02-17T10:03:01.000Z</time>
      </trkpt>
      <trkpt lat="43.23969" lon="0.89173">
        <ele>341</ele>
        <time>2019-02-17T10:03:03.000Z</time>
      </trkpt>
      <trkpt lat="43.2397" lon="0.89172">
        <ele>341</ele>
        <time>2019-02-17T10:03:05.000Z</time>
      </trkpt>
      <trkpt lat="43.23969" lon="0.89172">
        <ele>341</ele>
        <time>2019-02-17T10:03:07.000Z</time>
      </trkpt>
      <trkpt lat="43.23969" lon="0.89172">
        <ele>341</ele>
        <time>2019-02-17T10:03:09.000Z</time>
      </trkpt>
      <trkpt lat="43.23969" lon="0.89172">
        <ele>341</ele>
        <time>2019-02-17T10:03:11.000Z</time>
      </trkpt>
      <trkpt lat="43.23969" lon="0.89172">
        <ele>341</ele>
        <time>2019-02-17T10:03:13.000Z</time>
      </trkpt>
      <trkpt lat="43.23968" lon="0.89173">
        <ele>341</ele>
        <time>2019-02-17T10:03:15.000Z</time>
      </trkpt>
      <trkpt lat="43.23968" lon="0.89173">
        <ele>341</ele>
        <time>2019-02-17T10:03:17.000Z</time>
      </trkpt>
      <trkpt lat="43.23967" lon="0.89173">
        <ele>341</ele>
        <time>2019-02-17T10:03:19.000Z</time>
      </trkpt>
      <trkpt lat="43.23967" lon="0.89173">
        <ele>341</ele>
        <time>2019-02-17T10:03:21.000Z</time>
      </trkpt>
      <trkpt lat="43.23967" lon="0.89173">
        <ele>341</ele>
        <time>2019-02-17T10:03:23.000Z</time>
      </trkpt>
      <trkpt lat="43.23966" lon="0.89173">
        <ele>341</ele>
        <time>2019-02-17T10:03:25.000Z</time>
      </trkpt>
      <trkpt lat="43.23966" lon="0.89173">
        <ele>341</ele>
        <time>2019-02-17T10:03:27.000Z</time>
      </trkpt>
      <trkpt lat="43.23966" lon="0.89173">
        <ele>341</ele>
        <time>2019-02-17T10:03:29.000Z</time>
      </trkpt>
      <trkpt lat="43.23965" lon="0.89173">
        <ele>341</ele>
        <time>2019-02-17T10:03:31.000Z</time>
      </trkpt>
      <trkpt lat="43.23965" lon="0.89173">
        <ele>341</ele>
        <time>2019-02-17T10:03:33.000Z</time>
      </trkpt>
      <trkpt lat="43.23965" lon="0.89174">
        <ele>341</ele>
        <time>2019-02-17T10:03:35.000Z</time>
      </trkpt>
      <trkpt lat="43.23965" lon="0.89174">
        <ele>341</ele>
        <time>2019-02-17T10:03:37.000Z</time>
      </trkpt>
      <trkpt lat="43.23965" lon="0.89174">
        <ele>341</ele>
        <time>2019-02-17T10:03:39.000Z</time>
      </trkpt>
      <trkpt lat="43.23965" lon="0.89174">
        <ele>341</ele>
        <time>2019-02-17T10:03:41.000Z</time>
      </trkpt>
      <trkpt lat="43.23964" lon="0.89174">
        <ele>341</ele>
        <time>2019-02-17T10:03:43.000Z</time>
      </trkpt>
      <trkpt lat="43.23964" lon="0.89174">
        <ele>341</ele>
        <time>2019-02-17T10:03:45.000Z</time>
      </trkpt>
      <trkpt lat="43.23963" lon="0.89174">
        <ele>341</ele>
        <time>2019-02-17T10:03:47.000Z</time>
      </trkpt>
      <trkpt lat="43.23963" lon="0.89174">
        <ele>341</ele>
        <time>2019-02-17T10:03:49.000Z</time>
      </trkpt>
      <trkpt lat="43.23963" lon="0.89174">
        <ele>341</ele>
        <time>2019-02-17T10:03:51.000Z</time>
      </trkpt>
      <trkpt lat="43.23963" lon="0.89174">
        <ele>341</ele>
        <time>2019-02-17T10:03:53.000Z</time>
      </trkpt>
      <trkpt lat="43.23963" lon="0.89175">
        <ele>341</ele>
        <time>2019-02-17T10:03:55.000Z</time>
      </trkpt>
      <trkpt lat="43.23963" lon="0.89174">
        <ele>341</ele>
        <time>2019-02-17T10:03:57.000Z</time>
      </trkpt>
      <trkpt lat="43.23963" lon="0.89174">
        <ele>341</ele>
        <time>2019-02-17T10:03:59.000Z</time>
      </trkpt>
      <trkpt lat="43.23963" lon="0.89174">
        <ele>341</ele>
        <time>2019-02-17T10:04:01.000Z</time>
      </trkpt>
      <trkpt lat="43.23963" lon="0.89175">
        <ele>341</ele>
        <time>2019-02-17T10:04:03.000Z</time>
      </trkpt>
      <trkpt lat="43.23964" lon="0.89176">
        <ele>341</ele>
        <time>2019-02-17T10:04:05.000Z</time>
      </trkpt>
      <trkpt lat="43.23965" lon="0.89176">
        <ele>341</ele>
        <time>2019-02-17T10:04:07.000Z</time>
      </trkpt>
      <trkpt lat="43.23965" lon="0.89175">
        <ele>341</ele>
        <time>2019-02-17T10:04:09.000Z</time>
      </trkpt>
      <trkpt lat="43.23965" lon="0.89175">
        <ele>341</ele>
        <time>2019-02-17T10:04:11.000Z</time>
      </trkpt>
      <trkpt lat="43.23965" lon="0.89174">
        <ele>341</ele>
        <time>2019-02-17T10:04:13.000Z</time>
      </trkpt>
      <trkpt lat="43.23965" lon="0.89174">
        <ele>341</ele>
        <time>2019-02-17T10:04:15.000Z</time>
      </trkpt>
      <trkpt lat="43.23965" lon="0.89174">
        <ele>341</ele>
        <time>2019-02-17T10:04:17.000Z</time>
      </trkpt>
      <trkpt lat="43.23966" lon="0.89174">
        <ele>341</ele>
        <time>2019-02-17T10:04:19.000Z</time>
      </trkpt>
      <trkpt lat="43.23965" lon="0.89175">
        <ele>341</ele>
        <time>2019-02-17T10:04:21.000Z</time>
      </trkpt>
      <trkpt lat="43.23965" lon="0.89175">
        <ele>341</ele>
        <time>2019-02-17T10:04:23.000Z</time>
      </trkpt>
      <trkpt lat="43.23965" lon="0.89174">
        <ele>341</ele>
        <time>2019-02-17T10:04:25.000Z</time>
      </trkpt>
      <trkpt lat="43.23964" lon="0.89174">
        <ele>341</ele>
        <time>2019-02-17T10:04:27.000Z</time>
      </trkpt>
      <trkpt lat="43.23964" lon="0.89174">
        <ele>341</ele>
        <time>2019-02-17T10:04:29.000Z</time>
      </trkpt>
      <trkpt lat="43.23964" lon="0.89175">
        <ele>341</ele>
        <time>2019-02-17T10:04:31.000Z</time>
      </trkpt>
      <trkpt lat="43.23964" lon="0.89175">
        <ele>341</ele>
        <time>2019-02-17T10:04:33.000Z</time>
      </trkpt>
      <trkpt lat="43.23964" lon="0.89175">
        <ele>341</ele>
        <time>2019-02-17T10:04:35.000Z</time>
      </trkpt>
      <trkpt lat="43.23964" lon="0.89175">
        <ele>341</ele>
        <time>2019-02-17T10:04:37.000Z</time>
      </trkpt>
      <trkpt lat="43.23964" lon="0.89175">
        <ele>341</ele>
        <time>2019-02-17T10:04:39.000Z</time>
      </trkpt>
      <trkpt lat="43.23964" lon="0.89175">
        <ele>341</ele>
        <time>2019-02-17T10:04:41.000Z</time>
      </trkpt>
      <trkpt lat="43.23964" lon="0.89175">
        <ele>341</ele>
        <time>2019-02-17T10:04:43.000Z</time>
      </trkpt>
      <trkpt lat="43.23964" lon="0.89174">
        <ele>341</ele>
        <time>2019-02-17T10:04:45.000Z</time>
      </trkpt>
      <trkpt lat="43.23964" lon="0.89174">
        <ele>341</ele>
        <time>2019-02-17T10:04:47.000Z</time>
      </trkpt>
      <trkpt lat="43.23964" lon="0.89175">
        <ele>341</ele>
        <time>2019-02-17T10:04:49.000Z</time>
      </trkpt>
      <trkpt lat="43.23965" lon="0.89175">
        <ele>341</ele>
        <time>2019-02-17T10:04:51.000Z</time>
      </trkpt>
      <trkpt lat="43.23965" lon="0.89175">
        <ele>341</ele>
        <time>2019-02-17T10:04:53.000Z</time>
      </trkpt>
      <trkpt lat="43.23965" lon="0.89175">
        <ele>341</ele>
        <time>2019-02-17T10:04:55.000Z</time>
      </trkpt>
      <trkpt lat="43.23966" lon="0.89176">
        <ele>341</ele>
        <time>2019-02-17T10:04:57.000Z</time>
      </trkpt>
      <trkpt lat="43.23965" lon="0.89176">
        <ele>341</ele>
        <time>2019-02-17T10:04:59.000Z</time>
      </trkpt>
      <trkpt lat="43.23965" lon="0.89176">
        <ele>341</ele>
        <time>2019-02-17T10:05:01.000Z</time>
      </trkpt>
      <trkpt lat="43.23965" lon="0.89176">
        <ele>341</ele>
        <time>2019-02-17T10:05:03.000Z</time>
      </trkpt>
      <trkpt lat="43.23965" lon="0.89176">
        <ele>341</ele>
        <time>2019-02-17T10:05:05.000Z</time>
      </trkpt>
      <trkpt lat="43.23965" lon="0.89176">
        <ele>341</ele>
        <time>2019-02-17T10:05:07.000Z</time>
      </trkpt>
      <trkpt lat="43.23965" lon="0.89175">
        <ele>341</ele>
        <time>2019-02-17T10:05:09.000Z</time>
      </trkpt>
      <trkpt lat="43.23964" lon="0.89175">
        <ele>341</ele>
        <time>2019-02-17T10:05:11.000Z</time>
      </trkpt>
      <trkpt lat="43.23965" lon="0.89175">
        <ele>341</ele>
        <time>2019-02-17T10:05:13.000Z</time>
      </trkpt>
      <trkpt lat="43.23965" lon="0.89174">
        <ele>341</ele>
        <time>2019-02-17T10:05:15.000Z</time>
      </trkpt>
      <trkpt lat="43.23965" lon="0.89174">
        <ele>341</ele>
        <time>2019-02-17T10:05:17.000Z</time>
      </trkpt>
      <trkpt lat="43.23964" lon="0.89174">
        <ele>341</ele>
        <time>2019-02-17T10:05:19.000Z</time>
      </trkpt>
      <trkpt lat="43.23965" lon="0.89174">
        <ele>341</ele>
        <time>2019-02-17T10:05:21.000Z</time>
      </trkpt>
      <trkpt lat="43.23965" lon="0.89174">
        <ele>341</ele>
        <time>2019-02-17T10:05:23.000Z</time>
      </trkpt>
      <trkpt lat="43.23965" lon="0.89174">
        <ele>341</ele>
        <time>2019-02-17T10:05:25.000Z</time>
      </trkpt>
      <trkpt lat="43.23964" lon="0.89175">
        <ele>341</ele>
        <time>2019-02-17T10:05:27.000Z</time>
      </trkpt>
      <trkpt lat="43.23965" lon="0.89174">
        <ele>341</ele>
        <time>2019-02-17T10:05:29.000Z</time>
      </trkpt>
      <trkpt lat="43.23965" lon="0.89174">
        <ele>341</ele>
        <time>2019-02-17T10:05:31.000Z</time>
      </trkpt>
      <trkpt lat="43.23964" lon="0.89174">
        <ele>341</ele>
        <time>2019-02-17T10:05:33.000Z</time>
      </trkpt>
      <trkpt lat="43.23964" lon="0.89173">
        <ele>341</ele>
        <time>2019-02-17T10:05:35.000Z</time>
      </trkpt>
      <trkpt lat="43.23964" lon="0.89173">
        <ele>341</ele>
        <time>2019-02-17T10:05:37.000Z</time>
      </trkpt>
      <trkpt lat="43.23964" lon="0.89172">
        <ele>341</ele>
        <time>2019-02-17T10:05:39.000Z</time>
      </trkpt>
      <trkpt lat="43.23965" lon="0.89172">
        <ele>341</ele>
        <time>2019-02-17T10:05:41.000Z</time>
      </trkpt>
      <trkpt lat="43.23964" lon="0.89172">
        <ele>341</ele>
        <time>2019-02-17T10:05:43.000Z</time>
      </trkpt>
      <trkpt lat="43.23963" lon="0.89171">
        <ele>341</ele>
        <time>2019-02-17T10:05:45.000Z</time>
      </trkpt>
      <trkpt lat="43.23964" lon="0.89171">
        <ele>341</ele>
        <time>2019-02-17T10:05:47.000Z</time>
      </trkpt>
      <trkpt lat="43.23963" lon="0.89171">
        <ele>342</ele>
        <time>2019-02-17T10:05:49.000Z</time>
      </trkpt>
      <trkpt lat="43.23963" lon="0.89171">
        <ele>342</ele>
        <time>2019-02-17T10:05:51.000Z</time>
      </trkpt>
      <trkpt lat="43.23963" lon="0.8917">
        <ele>342</ele>
        <time>2019-02-17T10:05:53.000Z</time>
      </trkpt>
      <trkpt lat="43.23962" lon="0.8917">
        <ele>342</ele>
        <time>2019-02-17T10:05:55.000Z</time>
      </trkpt>
      <trkpt lat="43.23963" lon="0.8917">
        <ele>342</ele>
        <time>2019-02-17T10:05:57.000Z</time>
      </trkpt>
      <trkpt lat="43.23963" lon="0.89171">
        <ele>341</ele>
        <time>2019-02-17T10:05:59.000Z</time>
      </trkpt>
      <trkpt lat="43.23963" lon="0.89171">
        <ele>341</ele>
        <time>2019-02-17T10:06:01.000Z</time>
      </trkpt>
      <trkpt lat="43.23963" lon="0.89171">
        <ele>341</ele>
        <time>2019-02-17T10:06:03.000Z</time>
      </trkpt>
      <trkpt lat="43.23963" lon="0.89171">
        <ele>341</ele>
        <time>2019-02-17T10:06:05.000Z</time>
      </trkpt>
      <trkpt lat="43.23964" lon="0.89171">
        <ele>341</ele>
        <time>2019-02-17T10:06:07.000Z</time>
      </trkpt>
      <trkpt lat="43.23963" lon="0.89172">
        <ele>341</ele>
        <time>2019-02-17T10:06:09.000Z</time>
      </trkpt>
      <trkpt lat="43.23963" lon="0.89172">
        <ele>341</ele>
        <time>2019-02-17T10:06:11.000Z</time>
      </trkpt>
      <trkpt lat="43.23964" lon="0.89172">
        <ele>341</ele>
        <time>2019-02-17T10:06:13.000Z</time>
      </trkpt>
      <trkpt lat="43.23964" lon="0.89173">
        <ele>341</ele>
        <time>2019-02-17T10:06:15.000Z</time>
      </trkpt>
      <trkpt lat="43.23964" lon="0.89173">
        <ele>341</ele>
        <time>2019-02-17T10:06:17.000Z</time>
      </trkpt>
      <trkpt lat="43.23965" lon="0.89173">
        <ele>341</ele>
        <time>2019-02-17T10:06:19.000Z</time>
      </trkpt>
      <trkpt lat="43.23964" lon="0.89173">
        <ele>341</ele>
        <time>2019-02-17T10:06:21.000Z</time>
      </trkpt>
      <trkpt lat="43.23964" lon="0.89173">
        <ele>341</ele>
        <time>2019-02-17T10:06:23.000Z</time>
      </trkpt>
      <trkpt lat="43.23964" lon="0.89173">
        <ele>341</ele>
        <time>2019-02-17T10:06:25.000Z</time>
      </trkpt>
      <trkpt lat="43.23964" lon="0.89173">
        <ele>341</ele>
        <time>2019-02-17T10:06:27.000Z</time>
      </trkpt>
      <trkpt lat="43.23964" lon="0.89172">
        <ele>341</ele>
        <time>2019-02-17T10:06:29.000Z</time>
      </trkpt>
      <trkpt lat="43.23964" lon="0.89173">
        <ele>341</ele>
        <time>2019-02-17T10:06:31.000Z</time>
      </trkpt>
      <trkpt lat="43.23964" lon="0.89173">
        <ele>341</ele>
        <time>2019-02-17T10:06:33.000Z</time>
      </trkpt>
      <trkpt lat="43.23964" lon="0.89172">
        <ele>341</ele>
        <time>2019-02-17T10:06:35.000Z</time>
      </trkpt>
      <trkpt lat="43.23964" lon="0.89173">
        <ele>341</ele>
        <time>2019-02-17T10:06:37.000Z</time>
      </trkpt>
      <trkpt lat="43.23963" lon="0.89172">
        <ele>341</ele>
        <time>2019-02-17T10:06:39.000Z</time>
      </trkpt>
      <trkpt lat="43.23963" lon="0.89172">
        <ele>341</ele>
        <time>2019-02-17T10:06:41.000Z</time>
      </trkpt>
      <trkpt lat="43.23963" lon="0.89172">
        <ele>341</ele>
        <time>2019-02-17T10:06:43.000Z</time>
      </trkpt>
      <trkpt lat="43.23963" lon="0.89172">
        <ele>341</ele>
        <time>2019-02-17T10:06:45.000Z</time>
      </trkpt>
      <trkpt lat="43.23963" lon="0.89173">
        <ele>341</ele>
        <time>2019-02-17T10:06:47.000Z</time>
      </trkpt>
      <trkpt lat="43.23963" lon="0.89172">
        <ele>341</ele>
        <time>2019-02-17T10:06:49.000Z</time>
      </trkpt>
      <trkpt lat="43.23963" lon="0.89172">
        <ele>341</ele>
        <time>2019-02-17T10:06:51.000Z</time>
      </trkpt>
      <trkpt lat="43.23962" lon="0.89172">
        <ele>342</ele>
        <time>2019-02-17T10:06:53.000Z</time>
      </trkpt>
      <trkpt lat="43.23962" lon="0.89172">
        <ele>342</ele>
        <time>2019-02-17T10:06:55.000Z</time>
      </trkpt>
      <trkpt lat="43.23963" lon="0.89172">
        <ele>342</ele>
        <time>2019-02-17T10:06:57.000Z</time>
      </trkpt>
      <trkpt lat="43.23963" lon="0.89172">
        <ele>341</ele>
        <time>2019-02-17T10:06:59.000Z</time>
      </trkpt>
      <trkpt lat="43.23964" lon="0.89172">
        <ele>341</ele>
        <time>2019-02-17T10:07:01.000Z</time>
      </trkpt>
      <trkpt lat="43.23964" lon="0.89171">
        <ele>341</ele>
        <time>2019-02-17T10:07:03.000Z</time>
      </trkpt>
      <trkpt lat="43.23964" lon="0.89171">
        <ele>341</ele>
        <time>2019-02-17T10:07:05.000Z</time>
      </trkpt>
      <trkpt lat="43.23965" lon="0.89171">
        <ele>341</ele>
        <time>2019-02-17T10:07:07.000Z</time>
      </trkpt>
      <trkpt lat="43.23964" lon="0.89171">
        <ele>341</ele>
        <time>2019-02-17T10:07:09.000Z</time>
      </trkpt>
      <trkpt lat="43.23965" lon="0.89171">
        <ele>341</ele>
        <time>2019-02-17T10:07:11.000Z</time>
      </trkpt>
      <trkpt lat="43.23965" lon="0.89171">
        <ele>341</ele>
        <time>2019-02-17T10:07:13.000Z</time>
      </trkpt>
      <trkpt lat="43.23965" lon="0.89171">
        <ele>341</ele>
        <time>2019-02-17T10:07:15.000Z</time>
      </trkpt>
      <trkpt lat="43.23964" lon="0.89171">
        <ele>341</ele>
        <time>2019-02-17T10:07:17.000Z</time>
      </trkpt>
      <trkpt lat="43.23964" lon="0.8917">
        <ele>342</ele>
        <time>2019-02-17T10:07:19.000Z</time>
      </trkpt>
      <trkpt lat="43.23963" lon="0.89171">
        <ele>342</ele>
        <time>2019-02-17T10:07:21.000Z</time>
      </trkpt>
      <trkpt lat="43.23963" lon="0.89171">
        <ele>342</ele>
        <time>2019-02-17T10:07:23.000Z</time>
      </trkpt>
      <trkpt lat="43.23963" lon="0.89171">
        <ele>342</ele>
        <time>2019-02-17T10:07:25.000Z</time>
      </trkpt>
      <trkpt lat="43.23963" lon="0.89171">
        <ele>342</ele>
        <time>2019-02-17T10:07:27.000Z</time>
      </trkpt>
      <trkpt lat="43.23963" lon="0.89171">
        <ele>342</ele>
        <time>2019-02-17T10:07:29.000Z</time>
      </trkpt>
      <trkpt lat="43.23963" lon="0.89171">
        <ele>341</ele>
        <time>2019-02-17T10:07:31.000Z</time>
      </trkpt>
      <trkpt lat="43.23963" lon="0.89171">
        <ele>342</ele>
        <time>2019-02-17T10:07:33.000Z</time>
      </trkpt>
      <trkpt lat="43.23964" lon="0.89171">
        <ele>341</ele>
        <time>2019-02-17T10:07:35.000Z</time>
      </trkpt>
      <trkpt lat="43.23963" lon="0.89171">
        <ele>342</ele>
        <time>2019-02-17T10:07:37.000Z</time>
      </trkpt>
      <trkpt lat="43.23963" lon="0.89171">
        <ele>342</ele>
        <time>2019-02-17T10:07:39.000Z</time>
      </trkpt>
      <trkpt lat="43.23963" lon="0.89172">
        <ele>342</ele>
        <time>2019-02-17T10:07:41.000Z</time>
      </trkpt>
      <trkpt lat="43.23963" lon="0.89172">
        <ele>341</ele>
        <time>2019-02-17T10:07:43.000Z</time>
      </trkpt>
      <trkpt lat="43.23963" lon="0.89172">
        <ele>341</ele>
        <time>2019-02-17T10:07:45.000Z</time>
      </trkpt>
      <trkpt lat="43.23963" lon="0.89172">
        <ele>341</ele>
        <time>2019-02-17T10:07:47.000Z</time>
      </trkpt>
      <trkpt lat="43.23963" lon="0.89172">
        <ele>341</ele>
        <time>2019-02-17T10:07:49.000Z</time>
      </trkpt>
      <trkpt lat="43.23964" lon="0.89173">
        <ele>341</ele>
        <time>2019-02-17T10:07:51.000Z</time>
      </trkpt>
      <trkpt lat="43.23964" lon="0.89173">
        <ele>341</ele>
        <time>2019-02-17T10:07:53.000Z</time>
      </trkpt>
      <trkpt lat="43.23965" lon="0.89174">
        <ele>341</ele>
        <time>2019-02-17T10:07:55.000Z</time>
      </trkpt>
      <trkpt lat="43.23965" lon="0.89174">
        <ele>341</ele>
        <time>2019-02-17T10:07:57.000Z</time>
      </trkpt>
      <trkpt lat="43.23965" lon="0.89174">
        <ele>341</ele>
        <time>2019-02-17T10:07:59.000Z</time>
      </trkpt>
      <trkpt lat="43.23965" lon="0.89173">
        <ele>341</ele>
        <time>2019-02-17T10:08:01.000Z</time>
      </trkpt>
      <trkpt lat="43.23965" lon="0.89173">
        <ele>341</ele>
        <time>2019-02-17T10:08:03.000Z</time>
      </trkpt>
      <trkpt lat="43.23965" lon="0.89173">
        <ele>341</ele>
        <time>2019-02-17T10:08:05.000Z</time>
      </trkpt>
      <trkpt lat="43.23965" lon="0.89173">
        <ele>341</ele>
        <time>2019-02-17T10:08:07.000Z</time>
      </trkpt>
      <trkpt lat="43.23965" lon="0.89173">
        <ele>341</ele>
        <time>2019-02-17T10:08:09.000Z</time>
      </trkpt>
      <trkpt lat="43.23964" lon="0.89172">
        <ele>341</ele>
        <time>2019-02-17T10:08:11.000Z</time>
      </trkpt>
      <trkpt lat="43.23964" lon="0.89172">
        <ele>341</ele>
        <time>2019-02-17T10:08:13.000Z</time>
      </trkpt>
      <trkpt lat="43.23964" lon="0.89173">
        <ele>341</ele>
        <time>2019-02-17T10:08:15.000Z</time>
      </trkpt>
      <trkpt lat="43.23965" lon="0.89173">
        <ele>341</ele>
        <time>2019-02-17T10:08:17.000Z</time>
      </trkpt>
      <trkpt lat="43.23964" lon="0.89173">
        <ele>341</ele>
        <time>2019-02-17T10:08:19.000Z</time>
      </trkpt>
      <trkpt lat="43.23964" lon="0.89173">
        <ele>341</ele>
        <time>2019-02-17T10:08:21.000Z</time>
      </trkpt>
      <trkpt lat="43.23965" lon="0.89173">
        <ele>341</ele>
        <time>2019-02-17T10:08:23.000Z</time>
      </trkpt>
      <trkpt lat="43.23965" lon="0.89173">
        <ele>341</ele>
        <time>2019-02-17T10:08:25.000Z</time>
      </trkpt>
      <trkpt lat="43.23965" lon="0.89173">
        <ele>341</ele>
        <time>2019-02-17T10:08:27.000Z</time>
      </trkpt>
      <trkpt lat="43.23965" lon="0.89173">
        <ele>341</ele>
        <time>2019-02-17T10:08:29.000Z</time>
      </trkpt>
      <trkpt lat="43.23965" lon="0.89173">
        <ele>341</ele>
        <time>2019-02-17T10:08:31.000Z</time>
      </trkpt>
      <trkpt lat="43.23965" lon="0.89173">
        <ele>341</ele>
        <time>2019-02-17T10:08:33.000Z</time>
      </trkpt>
      <trkpt lat="43.23966" lon="0.89173">
        <ele>341</ele>
        <time>2019-02-17T10:08:35.000Z</time>
      </trkpt>
      <trkpt lat="43.23966" lon="0.89172">
        <ele>341</ele>
        <time>2019-02-17T10:08:37.000Z</time>
      </trkpt>
      <trkpt lat="43.23966" lon="0.89172">
        <ele>341</ele>
        <time>2019-02-17T10:08:39.000Z</time>
      </trkpt>
      <trkpt lat="43.23966" lon="0.89173">
        <ele>341</ele>
        <time>2019-02-17T10:08:41.000Z</time>
      </trkpt>
      <trkpt lat="43.23966" lon="0.89173">
        <ele>341</ele>
        <time>2019-02-17T10:08:43.000Z</time>
      </trkpt>
      <trkpt lat="43.23966" lon="0.89172">
        <ele>341</ele>
        <time>2019-02-17T10:08:45.000Z</time>
      </trkpt>
      <trkpt lat="43.23967" lon="0.89173">
        <ele>341</ele>
        <time>2019-02-17T10:08:47.000Z</time>
      </trkpt>
      <trkpt lat="43.23969" lon="0.89174">
        <ele>341</ele>
        <time>2019-02-17T10:08:49.000Z</time>
      </trkpt>
      <trkpt lat="43.23969" lon="0.89175">
        <ele>341</ele>
        <time>2019-02-17T10:08:51.000Z</time>
      </trkpt>
      <trkpt lat="43.2397" lon="0.89176">
        <ele>341</ele>
        <time>2019-02-17T10:08:53.000Z</time>
      </trkpt>
      <trkpt lat="43.2397" lon="0.89176">
        <ele>340</ele>
        <time>2019-02-17T10:08:55.000Z</time>
      </trkpt>
      <trkpt lat="43.2397" lon="0.89176">
        <ele>341</ele>
        <time>2019-02-17T10:08:57.000Z</time>
      </trkpt>
      <trkpt lat="43.2397" lon="0.89177">
        <ele>340</ele>
        <time>2019-02-17T10:08:59.000Z</time>
      </trkpt>
      <trkpt lat="43.23971" lon="0.89176">
        <ele>340</ele>
        <time>2019-02-17T10:09:01.000Z</time>
      </trkpt>
      <trkpt lat="43.23971" lon="0.89176">
        <ele>340</ele>
        <time>2019-02-17T10:09:03.000Z</time>
      </trkpt>
      <trkpt lat="43.23971" lon="0.89177">
        <ele>340</ele>
        <time>2019-02-17T10:09:05.000Z</time>
      </trkpt>
      <trkpt lat="43.23972" lon="0.89177">
        <ele>340</ele>
        <time>2019-02-17T10:09:07.000Z</time>
      </trkpt>
      <trkpt lat="43.23973" lon="0.89177">
        <ele>340</ele>
        <time>2019-02-17T10:09:09.000Z</time>
      </trkpt>
      <trkpt lat="43.23973" lon="0.89176">
        <ele>340</ele>
        <time>2019-02-17T10:09:11.000Z</time>
      </trkpt>
      <trkpt lat="43.23973" lon="0.89176">
        <ele>340</ele>
        <time>2019-02-17T10:09:13.000Z</time>
      </trkpt>
      <trkpt lat="43.23973" lon="0.89176">
        <ele>340</ele>
        <time>2019-02-17T10:09:15.000Z</time>
      </trkpt>
      <trkpt lat="43.23974" lon="0.89177">
        <ele>340</ele>
        <time>2019-02-17T10:09:17.000Z</time>
      </trkpt>
      <trkpt lat="43.23973" lon="0.89177">
        <ele>340</ele>
        <time>2019-02-17T10:09:19.000Z</time>
      </trkpt>
      <trkpt lat="43.23973" lon="0.89177">
        <ele>340</ele>
        <time>2019-02-17T10:09:21.000Z</time>
      </trkpt>
      <trkpt lat="43.23974" lon="0.89177">
        <ele>340</ele>
        <time>2019-02-17T10:09:23.000Z</time>
      </trkpt>
      <trkpt lat="43.23974" lon="0.89177">
        <ele>340</ele>
        <time>2019-02-17T10:09:25.000Z</time>
      </trkpt>
      <trkpt lat="43.23974" lon="0.89177">
        <ele>340</ele>
        <time>2019-02-17T10:09:27.000Z</time>
      </trkpt>
      <trkpt lat="43.23975" lon="0.89176">
        <ele>340</ele>
        <time>2019-02-17T10:09:29.000Z</time>
      </trkpt>
      <trkpt lat="43.23975" lon="0.89177">
        <ele>340</ele>
        <time>2019-02-17T10:09:31.000Z</time>
      </trkpt>
      <trkpt lat="43.23974" lon="0.89177">
        <ele>340</ele>
        <time>2019-02-17T10:09:33.000Z</time>
      </trkpt>
      <trkpt lat="43.23974" lon="0.89177">
        <ele>340</ele>
        <time>2019-02-17T10:09:35.000Z</time>
      </trkpt>
      <trkpt lat="43.23974" lon="0.89178">
        <ele>340</ele>
        <time>2019-02-17T10:09:37.000Z</time>
      </trkpt>
      <trkpt lat="43.23974" lon="0.89179">
        <ele>340</ele>
        <time>2019-02-17T10:09:39.000Z</time>
      </trkpt>
      <trkpt lat="43.23974" lon="0.89181">
        <ele>340</ele>
        <time>2019-02-17T10:09:41.000Z</time>
      </trkpt>
      <trkpt lat="43.23974" lon="0.89184">
        <ele>340</ele>
        <time>2019-02-17T10:09:43.000Z</time>
      </trkpt>
      <trkpt lat="43.23974" lon="0.89186">
        <ele>340</ele>
        <time>2019-02-17T10:09:45.000Z</time>
      </trkpt>
      <trkpt lat="43.23975" lon="0.89189">
        <ele>339</ele>
        <time>2019-02-17T10:09:47.000Z</time>
      </trkpt>
      <trkpt lat="43.23976" lon="0.89191">
        <ele>340</ele>
        <time>2019-02-17T10:09:49.000Z</time>
      </trkpt>
      <trkpt lat="43.23976" lon="0.89193">
        <ele>340</ele>
        <time>2019-02-17T10:09:51.000Z</time>
      </trkpt>
      <trkpt lat="43.23976" lon="0.89196">
        <ele>340</ele>
        <time>2019-02-17T10:09:53.000Z</time>
      </trkpt>
      <trkpt lat="43.23977" lon="0.89198">
        <ele>340</ele>
        <time>2019-02-17T10:09:55.000Z</time>
      </trkpt>
      <trkpt lat="43.23977" lon="0.89201">
        <ele>340</ele>
        <time>2019-02-17T10:09:57.000Z</time>
      </trkpt>
      <trkpt lat="43.23976" lon="0.89202">
        <ele>340</ele>
        <time>2019-02-17T10:09:59.000Z</time>
      </trkpt>
      <trkpt lat="43.23977" lon="0.89204">
        <ele>341</ele>
        <time>2019-02-17T10:10:01.000Z</time>
      </trkpt>
      <trkpt lat="43.23977" lon="0.89206">
        <ele>341</ele>
        <time>2019-02-17T10:10:03.000Z</time>
      </trkpt>
      <trkpt lat="43.23977" lon="0.89208">
        <ele>341</ele>
        <time>2019-02-17T10:10:05.000Z</time>
      </trkpt>
      <trkpt lat="43.23978" lon="0.89211">
        <ele>341</ele>
        <time>2019-02-17T10:10:07.000Z</time>
      </trkpt>
      <trkpt lat="43.23978" lon="0.89214">
        <ele>341</ele>
        <time>2019-02-17T10:10:09.000Z</time>
      </trkpt>
      <trkpt lat="43.23979" lon="0.89217">
        <ele>341</ele>
        <time>2019-02-17T10:10:11.000Z</time>
      </trkpt>
      <trkpt lat="43.2398" lon="0.8922">
        <ele>341</ele>
        <time>2019-02-17T10:10:13.000Z</time>
      </trkpt>
      <trkpt lat="43.23981" lon="0.89223">
        <ele>341</ele>
        <time>2019-02-17T10:10:15.000Z</time>
      </trkpt>
      <trkpt lat="43.23981" lon="0.89225">
        <ele>341</ele>
        <time>2019-02-17T10:10:17.000Z</time>
      </trkpt>
      <trkpt lat="43.23982" lon="0.89228">
        <ele>341</ele>
        <time>2019-02-17T10:10:19.000Z</time>
      </trkpt>
      <trkpt lat="43.23983" lon="0.89232">
        <ele>341</ele>
        <time>2019-02-17T10:10:21.000Z</time>
      </trkpt>
      <trkpt lat="43.23984" lon="0.89235">
        <ele>340</ele>
        <time>2019-02-17T10:10:23.000Z</time>
      </trkpt>
      <trkpt lat="43.23984" lon="0.89238">
        <ele>340</ele>
        <time>2019-02-17T10:10:25.000Z</time>
      </trkpt>
      <trkpt lat="43.23984" lon="0.89241">
        <ele>340</ele>
        <time>2019-02-17T10:10:27.000Z</time>
      </trkpt>
      <trkpt lat="43.23985" lon="0.89244">
        <ele>340</ele>
        <time>2019-02-17T10:10:29.000Z</time>
      </trkpt>
      <trkpt lat="43.23986" lon="0.89246">
        <ele>339</ele>
        <time>2019-02-17T10:10:31.000Z</time>
      </trkpt>
      <trkpt lat="43.23987" lon="0.89249">
        <ele>339</ele>
        <time>2019-02-17T10:10:33.000Z</time>
      </trkpt>
      <trkpt lat="43.23987" lon="0.89251">
        <ele>339</ele>
        <time>2019-02-17T10:10:35.000Z</time>
      </trkpt>
      <trkpt lat="43.23989" lon="0.89254">
        <ele>338</ele>
        <time>2019-02-17T10:10:37.000Z</time>
      </trkpt>
      <trkpt lat="43.2399" lon="0.89257">
        <ele>338</ele>
        <time>2019-02-17T10:10:39.000Z</time>
      </trkpt>
      <trkpt lat="43.2399" lon="0.8926">
        <ele>338</ele>
        <time>2019-02-17T10:10:41.000Z</time>
      </trkpt>
      <trkpt lat="43.23991" lon="0.89264">
        <ele>337</ele>
        <time>2019-02-17T10:10:43.000Z</time>
      </trkpt>
      <trkpt lat="43.23992" lon="0.89268">
        <ele>337</ele>
        <time>2019-02-17T10:10:45.000Z</time>
      </trkpt>
      <trkpt lat="43.23992" lon="0.8927">
        <ele>337</ele>
        <time>2019-02-17T10:10:47.000Z</time>
      </trkpt>
      <trkpt lat="43.23993" lon="0.89274">
        <ele>336</ele>
        <time>2019-02-17T10:10:49.000Z</time>
      </trkpt>
      <trkpt lat="43.23993" lon="0.89278">
        <ele>336</ele>
        <time>2019-02-17T10:10:51.000Z</time>
      </trkpt>
      <trkpt lat="43.23993" lon="0.89281">
        <ele>336</ele>
        <time>2019-02-17T10:10:53.000Z</time>
      </trkpt>
      <trkpt lat="43.23993" lon="0.89284">
        <ele>336</ele>
        <time>2019-02-17T10:10:55.000Z</time>
      </trkpt>
      <trkpt lat="43.23994" lon="0.89288">
        <ele>336</ele>
        <time>2019-02-17T10:10:57.000Z</time>
      </trkpt>
      <trkpt lat="43.23995" lon="0.89291">
        <ele>335</ele>
        <time>2019-02-17T10:10:59.000Z</time>
      </trkpt>
      <trkpt lat="43.23996" lon="0.89293">
        <ele>335</ele>
        <time>2019-02-17T10:11:01.000Z</time>
      </trkpt>
      <trkpt lat="43.23996" lon="0.89295">
        <ele>335</ele>
        <time>2019-02-17T10:11:03.000Z</time>
      </trkpt>
      <trkpt lat="43.23997" lon="0.89298">
        <ele>335</ele>
        <time>2019-02-17T10:11:05.000Z</time>
      </trkpt>
      <trkpt lat="43.23999" lon="0.893">
        <ele>334</ele>
        <time>2019-02-17T10:11:07.000Z</time>
      </trkpt>
      <trkpt lat="43.24" lon="0.89302">
        <ele>334</ele>
        <time>2019-02-17T10:11:09.000Z</time>
      </trkpt>
      <trkpt lat="43.24002" lon="0.89303">
        <ele>334</ele>
        <time>2019-02-17T10:11:11.000Z</time>
      </trkpt>
      <trkpt lat="43.24003" lon="0.89304">
        <ele>333</ele>
        <time>2019-02-17T10:11:13.000Z</time>
      </trkpt>
      <trkpt lat="43.24005" lon="0.89305">
        <ele>332</ele>
        <time>2019-02-17T10:11:15.000Z</time>
      </trkpt>
      <trkpt lat="43.24008" lon="0.89306">
        <ele>332</ele>
        <time>2019-02-17T10:11:17.000Z</time>
      </trkpt>
      <trkpt lat="43.2401" lon="0.89307">
        <ele>331</ele>
        <time>2019-02-17T10:11:19.000Z</time>
      </trkpt>
      <trkpt lat="43.24012" lon="0.89307">
        <ele>330</ele>
        <time>2019-02-17T10:11:21.000Z</time>
      </trkpt>
      <trkpt lat="43.24015" lon="0.89308">
        <ele>330</ele>
        <time>2019-02-17T10:11:23.000Z</time>
      </trkpt>
      <trkpt lat="43.24018" lon="0.89308">
        <ele>330</ele>
        <time>2019-02-17T10:11:25.000Z</time>
      </trkpt>
      <trkpt lat="43.24019" lon="0.89308">
        <ele>330</ele>
        <time>2019-02-17T10:11:27.000Z</time>
      </trkpt>
      <trkpt lat="43.24022" lon="0.89308">
        <ele>330</ele>
        <time>2019-02-17T10:11:29.000Z</time>
      </trkpt>
      <trkpt lat="43.24024" lon="0.89308">
        <ele>330</ele>
        <time>2019-02-17T10:11:31.000Z</time>
      </trkpt>
      <trkpt lat="43.24027" lon="0.89308">
        <ele>330</ele>
        <time>2019-02-17T10:11:33.000Z</time>
      </trkpt>
      <trkpt lat="43.24029" lon="0.89308">
        <ele>330</ele>
        <time>2019-02-17T10:11:35.000Z</time>
      </trkpt>
      <trkpt lat="43.24031" lon="0.89308">
        <ele>330</ele>
        <time>2019-02-17T10:11:37.000Z</time>
      </trkpt>
      <trkpt lat="43.24034" lon="0.89308">
        <ele>330</ele>
        <time>2019-02-17T10:11:39.000Z</time>
      </trkpt>
      <trkpt lat="43.24036" lon="0.89307">
        <ele>329</ele>
        <time>2019-02-17T10:11:41.000Z</time>
      </trkpt>
      <trkpt lat="43.24039" lon="0.89307">
        <ele>329</ele>
        <time>2019-02-17T10:11:43.000Z</time>
      </trkpt>
      <trkpt lat="43.24042" lon="0.89305">
        <ele>329</ele>
        <time>2019-02-17T10:11:45.000Z</time>
      </trkpt>
      <trkpt lat="43.24045" lon="0.89304">
        <ele>329</ele>
        <time>2019-02-17T10:11:47.000Z</time>
      </trkpt>
      <trkpt lat="43.24048" lon="0.89303">
        <ele>329</ele>
        <time>2019-02-17T10:11:49.000Z</time>
      </trkpt>
      <trkpt lat="43.24051" lon="0.89303">
        <ele>329</ele>
        <time>2019-02-17T10:11:51.000Z</time>
      </trkpt>
      <trkpt lat="43.24053" lon="0.89302">
        <ele>329</ele>
        <time>2019-02-17T10:11:53.000Z</time>
      </trkpt>
      <trkpt lat="43.24055" lon="0.893">
        <ele>329</ele>
        <time>2019-02-17T10:11:55.000Z</time>
      </trkpt>
      <trkpt lat="43.24057" lon="0.89299">
        <ele>329</ele>
        <time>2019-02-17T10:11:57.000Z</time>
      </trkpt>
      <trkpt lat="43.24059" lon="0.89297">
        <ele>329</ele>
        <time>2019-02-17T10:11:59.000Z</time>
      </trkpt>
      <trkpt lat="43.24061" lon="0.89296">
        <ele>329</ele>
        <time>2019-02-17T10:12:01.000Z</time>
      </trkpt>
      <trkpt lat="43.24064" lon="0.89294">
        <ele>329</ele>
        <time>2019-02-17T10:12:03.000Z</time>
      </trkpt>
      <trkpt lat="43.24067" lon="0.89293">
        <ele>329</ele>
        <time>2019-02-17T10:12:05.000Z</time>
      </trkpt>
      <trkpt lat="43.2407" lon="0.89292">
        <ele>329</ele>
        <time>2019-02-17T10:12:07.000Z</time>
      </trkpt>
      <trkpt lat="43.24073" lon="0.89292">
        <ele>329</ele>
        <time>2019-02-17T10:12:09.000Z</time>
      </trkpt>
      <trkpt lat="43.24075" lon="0.89291">
        <ele>329</ele>
        <time>2019-02-17T10:12:11.000Z</time>
      </trkpt>
      <trkpt lat="43.24078" lon="0.89288">
        <ele>329</ele>
        <time>2019-02-17T10:12:13.000Z</time>
      </trkpt>
      <trkpt lat="43.2408" lon="0.89286">
        <ele>328</ele>
        <time>2019-02-17T10:12:15.000Z</time>
      </trkpt>
      <trkpt lat="43.24082" lon="0.89284">
        <ele>328</ele>
        <time>2019-02-17T10:12:17.000Z</time>
      </trkpt>
      <trkpt lat="43.24084" lon="0.89281">
        <ele>327</ele>
        <time>2019-02-17T10:12:19.000Z</time>
      </trkpt>
      <trkpt lat="43.24086" lon="0.89278">
        <ele>327</ele>
        <time>2019-02-17T10:12:21.000Z</time>
      </trkpt>
      <trkpt lat="43.24087" lon="0.89275">
        <ele>326</ele>
        <time>2019-02-17T10:12:23.000Z</time>
      </trkpt>
      <trkpt lat="43.24089" lon="0.89273">
        <ele>326</ele>
        <time>2019-02-17T10:12:25.000Z</time>
      </trkpt>
      <trkpt lat="43.2409" lon="0.89271">
        <ele>325</ele>
        <time>2019-02-17T10:12:27.000Z</time>
      </trkpt>
      <trkpt lat="43.24092" lon="0.89269">
        <ele>325</ele>
        <time>2019-02-17T10:12:29.000Z</time>
      </trkpt>
      <trkpt lat="43.24094" lon="0.89267">
        <ele>325</ele>
        <time>2019-02-17T10:12:31.000Z</time>
      </trkpt>
      <trkpt lat="43.24096" lon="0.89266">
        <ele>324</ele>
        <time>2019-02-17T10:12:33.000Z</time>
      </trkpt>
      <trkpt lat="43.24097" lon="0.89264">
        <ele>324</ele>
        <time>2019-02-17T10:12:35.000Z</time>
      </trkpt>
      <trkpt lat="43.24099" lon="0.89262">
        <ele>324</ele>
        <time>2019-02-17T10:12:37.000Z</time>
      </trkpt>
      <trkpt lat="43.24101" lon="0.8926">
        <ele>325</ele>
        <time>2019-02-17T10:12:39.000Z</time>
      </trkpt>
      <trkpt lat="43.24103" lon="0.89259">
        <ele>325</ele>
        <time>2019-02-17T10:12:41.000Z</time>
      </trkpt>
      <trkpt lat="43.24105" lon="0.89256">
        <ele>325</ele>
        <time>2019-02-17T10:12:43.000Z</time>
      </trkpt>
      <trkpt lat="43.24106" lon="0.89254">
        <ele>325</ele>
        <time>2019-02-17T10:12:45.000Z</time>
      </trkpt>
      <trkpt lat="43.24108" lon="0.89251">
        <ele>325</ele>
        <time>2019-02-17T10:12:47.000Z</time>
      </trkpt>
      <trkpt lat="43.24109" lon="0.89248">
        <ele>325</ele>
        <time>2019-02-17T10:12:49.000Z</time>
      </trkpt>
      <trkpt lat="43.2411" lon="0.89244">
        <ele>325</ele>
        <time>2019-02-17T10:12:51.000Z</time>
      </trkpt>
      <trkpt lat="43.24112" lon="0.89241">
        <ele>325</ele>
        <time>2019-02-17T10:12:53.000Z</time>
      </trkpt>
      <trkpt lat="43.24113" lon="0.89239">
        <ele>325</ele>
        <time>2019-02-17T10:12:55.000Z</time>
      </trkpt>
      <trkpt lat="43.24115" lon="0.89238">
        <ele>325</ele>
        <time>2019-02-17T10:12:57.000Z</time>
      </trkpt>
      <trkpt lat="43.24117" lon="0.89236">
        <ele>325</ele>
        <time>2019-02-17T10:12:59.000Z</time>
      </trkpt>
      <trkpt lat="43.24119" lon="0.89235">
        <ele>325</ele>
        <time>2019-02-17T10:13:01.000Z</time>
      </trkpt>
      <trkpt lat="43.24121" lon="0.89233">
        <ele>325</ele>
        <time>2019-02-17T10:13:03.000Z</time>
      </trkpt>
      <trkpt lat="43.24122" lon="0.89229">
        <ele>324</ele>
        <time>2019-02-17T10:13:05.000Z</time>
      </trkpt>
      <trkpt lat="43.24124" lon="0.89226">
        <ele>324</ele>
        <time>2019-02-17T10:13:07.000Z</time>
      </trkpt>
      <trkpt lat="43.24127" lon="0.89224">
        <ele>324</ele>
        <time>2019-02-17T10:13:09.000Z</time>
      </trkpt>
      <trkpt lat="43.24129" lon="0.89222">
        <ele>325</ele>
        <time>2019-02-17T10:13:11.000Z</time>
      </trkpt>
      <trkpt lat="43.24131" lon="0.89219">
        <ele>325</ele>
        <time>2019-02-17T10:13:13.000Z</time>
      </trkpt>
      <trkpt lat="43.24132" lon="0.89215">
        <ele>326</ele>
        <time>2019-02-17T10:13:15.000Z</time>
      </trkpt>
      <trkpt lat="43.24133" lon="0.89213">
        <ele>326</ele>
        <time>2019-02-17T10:13:17.000Z</time>
      </trkpt>
      <trkpt lat="43.24135" lon="0.8921">
        <ele>326</ele>
        <time>2019-02-17T10:13:19.000Z</time>
      </trkpt>
      <trkpt lat="43.24136" lon="0.89206">
        <ele>327</ele>
        <time>2019-02-17T10:13:21.000Z</time>
      </trkpt>
      <trkpt lat="43.24138" lon="0.89202">
        <ele>328</ele>
        <time>2019-02-17T10:13:23.000Z</time>
      </trkpt>
      <trkpt lat="43.2414" lon="0.89199">
        <ele>328</ele>
        <time>2019-02-17T10:13:25.000Z</time>
      </trkpt>
      <trkpt lat="43.24142" lon="0.89196">
        <ele>329</ele>
        <time>2019-02-17T10:13:27.000Z</time>
      </trkpt>
      <trkpt lat="43.24145" lon="0.89194">
        <ele>329</ele>
        <time>2019-02-17T10:13:29.000Z</time>
      </trkpt>
      <trkpt lat="43.24148" lon="0.89192">
        <ele>330</ele>
        <time>2019-02-17T10:13:31.000Z</time>
      </trkpt>
      <trkpt lat="43.2415" lon="0.8919">
        <ele>329</ele>
        <time>2019-02-17T10:13:33.000Z</time>
      </trkpt>
      <trkpt lat="43.24153" lon="0.89188">
        <ele>329</ele>
        <time>2019-02-17T10:13:35.000Z</time>
      </trkpt>
      <trkpt lat="43.24155" lon="0.89187">
        <ele>328</ele>
        <time>2019-02-17T10:13:37.000Z</time>
      </trkpt>
      <trkpt lat="43.24157" lon="0.89187">
        <ele>328</ele>
        <time>2019-02-17T10:13:39.000Z</time>
      </trkpt>
      <trkpt lat="43.24159" lon="0.89184">
        <ele>327</ele>
        <time>2019-02-17T10:13:41.000Z</time>
      </trkpt>
      <trkpt lat="43.2416" lon="0.89182">
        <ele>327</ele>
        <time>2019-02-17T10:13:43.000Z</time>
      </trkpt>
      <trkpt lat="43.24162" lon="0.89179">
        <ele>326</ele>
        <time>2019-02-17T10:13:45.000Z</time>
      </trkpt>
      <trkpt lat="43.24164" lon="0.89176">
        <ele>325</ele>
        <time>2019-02-17T10:13:47.000Z</time>
      </trkpt>
      <trkpt lat="43.24165" lon="0.89173">
        <ele>324</ele>
        <time>2019-02-17T10:13:49.000Z</time>
      </trkpt>
      <trkpt lat="43.24168" lon="0.89172">
        <ele>324</ele>
        <time>2019-02-17T10:13:51.000Z</time>
      </trkpt>
      <trkpt lat="43.24169" lon="0.8917">
        <ele>323</ele>
        <time>2019-02-17T10:13:53.000Z</time>
      </trkpt>
      <trkpt lat="43.24171" lon="0.89167">
        <ele>323</ele>
        <time>2019-02-17T10:13:55.000Z</time>
      </trkpt>
      <trkpt lat="43.24173" lon="0.89165">
        <ele>322</ele>
        <time>2019-02-17T10:13:57.000Z</time>
      </trkpt>
      <trkpt lat="43.24175" lon="0.89163">
        <ele>321</ele>
        <time>2019-02-17T10:13:59.000Z</time>
      </trkpt>
      <trkpt lat="43.24177" lon="0.89162">
        <ele>321</ele>
        <time>2019-02-17T10:14:01.000Z</time>
      </trkpt>
      <trkpt lat="43.24179" lon="0.89159">
        <ele>320</ele>
        <time>2019-02-17T10:14:03.000Z</time>
      </trkpt>
      <trkpt lat="43.2418" lon="0.89157">
        <ele>320</ele>
        <time>2019-02-17T10:14:05.000Z</time>
      </trkpt>
      <trkpt lat="43.24182" lon="0.89154">
        <ele>319</ele>
        <time>2019-02-17T10:14:07.000Z</time>
      </trkpt>
      <trkpt lat="43.24183" lon="0.89152">
        <ele>319</ele>
        <time>2019-02-17T10:14:09.000Z</time>
      </trkpt>
      <trkpt lat="43.24186" lon="0.8915">
        <ele>318</ele>
        <time>2019-02-17T10:14:11.000Z</time>
      </trkpt>
      <trkpt lat="43.24188" lon="0.89149">
        <ele>318</ele>
        <time>2019-02-17T10:14:13.000Z</time>
      </trkpt>
      <trkpt lat="43.2419" lon="0.89147">
        <ele>318</ele>
        <time>2019-02-17T10:14:15.000Z</time>
      </trkpt>
      <trkpt lat="43.24192" lon="0.89146">
        <ele>318</ele>
        <time>2019-02-17T10:14:17.000Z</time>
      </trkpt>
      <trkpt lat="43.24194" lon="0.89143">
        <ele>318</ele>
        <time>2019-02-17T10:14:19.000Z</time>
      </trkpt>
      <trkpt lat="43.24195" lon="0.89142">
        <ele>317</ele>
        <time>2019-02-17T10:14:21.000Z</time>
      </trkpt>
      <trkpt lat="43.24196" lon="0.89139">
        <ele>317</ele>
        <time>2019-02-17T10:14:23.000Z</time>
      </trkpt>
      <trkpt lat="43.24197" lon="0.89136">
        <ele>317</ele>
        <time>2019-02-17T10:14:25.000Z</time>
      </trkpt>
      <trkpt lat="43.24198" lon="0.89134">
        <ele>318</ele>
        <time>2019-02-17T10:14:27.000Z</time>
      </trkpt>
      <trkpt lat="43.24201" lon="0.89132">
        <ele>318</ele>
        <time>2019-02-17T10:14:29.000Z</time>
      </trkpt>
      <trkpt lat="43.24203" lon="0.89131">
        <ele>318</ele>
        <time>2019-02-17T10:14:31.000Z</time>
      </trkpt>
      <trkpt lat="43.24205" lon="0.89129">
        <ele>318</ele>
        <time>2019-02-17T10:14:33.000Z</time>
      </trkpt>
      <trkpt lat="43.24208" lon="0.89126">
        <ele>318</ele>
        <time>2019-02-17T10:14:35.000Z</time>
      </trkpt>
      <trkpt lat="43.24211" lon="0.89124">
        <ele>319</ele>
        <time>2019-02-17T10:14:37.000Z</time>
      </trkpt>
      <trkpt lat="43.24214" lon="0.89122">
        <ele>319</ele>
        <time>2019-02-17T10:14:39.000Z</time>
      </trkpt>
      <trkpt lat="43.24216" lon="0.8912">
        <ele>319</ele>
        <time>2019-02-17T10:14:41.000Z</time>
      </trkpt>
      <trkpt lat="43.24218" lon="0.89118">
        <ele>319</ele>
        <time>2019-02-17T10:14:43.000Z</time>
      </trkpt>
      <trkpt lat="43.24221" lon="0.89116">
        <ele>319</ele>
        <time>2019-02-17T10:14:45.000Z</time>
      </trkpt>
      <trkpt lat="43.24222" lon="0.89114">
        <ele>319</ele>
        <time>2019-02-17T10:14:47.000Z</time>
      </trkpt>
      <trkpt lat="43.24224" lon="0.89111">
        <ele>320</ele>
        <time>2019-02-17T10:14:49.000Z</time>
      </trkpt>
      <trkpt lat="43.24225" lon="0.89108">
        <ele>320</ele>
        <time>2019-02-17T10:14:51.000Z</time>
      </trkpt>
      <trkpt lat="43.24227" lon="0.89106">
        <ele>320</ele>
        <time>2019-02-17T10:14:53.000Z</time>
      </trkpt>
      <trkpt lat="43.24228" lon="0.89104">
        <ele>320</ele>
        <time>2019-02-17T10:14:55.000Z</time>
      </trkpt>
      <trkpt lat="43.24229" lon="0.89101">
        <ele>319</ele>
        <time>2019-02-17T10:14:57.000Z</time>
      </trkpt>
      <trkpt lat="43.24231" lon="0.891">
        <ele>319</ele>
        <time>2019-02-17T10:14:59.000Z</time>
      </trkpt>
      <trkpt lat="43.24232" lon="0.89097">
        <ele>318</ele>
        <time>2019-02-17T10:15:01.000Z</time>
      </trkpt>
      <trkpt lat="43.24234" lon="0.89096">
        <ele>318</ele>
        <time>2019-02-17T10:15:03.000Z</time>
      </trkpt>
      <trkpt lat="43.24236" lon="0.89094">
        <ele>317</ele>
        <time>2019-02-17T10:15:05.000Z</time>
      </trkpt>
      <trkpt lat="43.24237" lon="0.89093">
        <ele>317</ele>
        <time>2019-02-17T10:15:07.000Z</time>
      </trkpt>
      <trkpt lat="43.24239" lon="0.89091">
        <ele>316</ele>
        <time>2019-02-17T10:15:09.000Z</time>
      </trkpt>
      <trkpt lat="43.2424" lon="0.89089">
        <ele>316</ele>
        <time>2019-02-17T10:15:11.000Z</time>
      </trkpt>
      <trkpt lat="43.24241" lon="0.89088">
        <ele>315</ele>
        <time>2019-02-17T10:15:13.000Z</time>
      </trkpt>
      <trkpt lat="43.24242" lon="0.89086">
        <ele>315</ele>
        <time>2019-02-17T10:15:15.000Z</time>
      </trkpt>
      <trkpt lat="43.24244" lon="0.89084">
        <ele>314</ele>
        <time>2019-02-17T10:15:17.000Z</time>
      </trkpt>
      <trkpt lat="43.24246" lon="0.89084">
        <ele>314</ele>
        <time>2019-02-17T10:15:19.000Z</time>
      </trkpt>
      <trkpt lat="43.24248" lon="0.89083">
        <ele>313</ele>
        <time>2019-02-17T10:15:21.000Z</time>
      </trkpt>
      <trkpt lat="43.2425" lon="0.89081">
        <ele>313</ele>
        <time>2019-02-17T10:15:23.000Z</time>
      </trkpt>
      <trkpt lat="43.2425" lon="0.89079">
        <ele>312</ele>
        <time>2019-02-17T10:15:25.000Z</time>
      </trkpt>
      <trkpt lat="43.24251" lon="0.89077">
        <ele>312</ele>
        <time>2019-02-17T10:15:27.000Z</time>
      </trkpt>
      <trkpt lat="43.24252" lon="0.89075">
        <ele>311</ele>
        <time>2019-02-17T10:15:29.000Z</time>
      </trkpt>
      <trkpt lat="43.24254" lon="0.89074">
        <ele>311</ele>
        <time>2019-02-17T10:15:31.000Z</time>
      </trkpt>
      <trkpt lat="43.24256" lon="0.89072">
        <ele>310</ele>
        <time>2019-02-17T10:15:33.000Z</time>
      </trkpt>
      <trkpt lat="43.24257" lon="0.8907">
        <ele>310</ele>
        <time>2019-02-17T10:15:35.000Z</time>
      </trkpt>
      <trkpt lat="43.2426" lon="0.89069">
        <ele>309</ele>
        <time>2019-02-17T10:15:37.000Z</time>
      </trkpt>
      <trkpt lat="43.24262" lon="0.89069">
        <ele>309</ele>
        <time>2019-02-17T10:15:39.000Z</time>
      </trkpt>
      <trkpt lat="43.24263" lon="0.89067">
        <ele>308</ele>
        <time>2019-02-17T10:15:41.000Z</time>
      </trkpt>
      <trkpt lat="43.24265" lon="0.89066">
        <ele>308</ele>
        <time>2019-02-17T10:15:43.000Z</time>
      </trkpt>
      <trkpt lat="43.24267" lon="0.89065">
        <ele>307</ele>
        <time>2019-02-17T10:15:45.000Z</time>
      </trkpt>
      <trkpt lat="43.24269" lon="0.89063">
        <ele>307</ele>
        <time>2019-02-17T10:15:47.000Z</time>
      </trkpt>
      <trkpt lat="43.24271" lon="0.89061">
        <ele>307</ele>
        <time>2019-02-17T10:15:49.000Z</time>
      </trkpt>
      <trkpt lat="43.24272" lon="0.8906">
        <ele>306</ele>
        <time>2019-02-17T10:15:51.000Z</time>
      </trkpt>
      <trkpt lat="43.24274" lon="0.89059">
        <ele>306</ele>
        <time>2019-02-17T10:15:53.000Z</time>
      </trkpt>
      <trkpt lat="43.24277" lon="0.89058">
        <ele>306</ele>
        <time>2019-02-17T10:15:55.000Z</time>
      </trkpt>
      <trkpt lat="43.24279" lon="0.89057">
        <ele>306</ele>
        <time>2019-02-17T10:15:57.000Z</time>
      </trkpt>
      <trkpt lat="43.2428" lon="0.89056">
        <ele>306</ele>
        <time>2019-02-17T10:15:59.000Z</time>
      </trkpt>
      <trkpt lat="43.24282" lon="0.89055">
        <ele>306</ele>
        <time>2019-02-17T10:16:01.000Z</time>
      </trkpt>
      <trkpt lat="43.24284" lon="0.89054">
        <ele>305</ele>
        <time>2019-02-17T10:16:03.000Z</time>
      </trkpt>
      <trkpt lat="43.24286" lon="0.89052">
        <ele>305</ele>
        <time>2019-02-17T10:16:05.000Z</time>
      </trkpt>
      <trkpt lat="43.24288" lon="0.8905">
        <ele>305</ele>
        <time>2019-02-17T10:16:07.000Z</time>
      </trkpt>
      <trkpt lat="43.2429" lon="0.89048">
        <ele>305</ele>
        <time>2019-02-17T10:16:09.000Z</time>
      </trkpt>
      <trkpt lat="43.24291" lon="0.89046">
        <ele>305</ele>
        <time>2019-02-17T10:16:11.000Z</time>
      </trkpt>
      <trkpt lat="43.24293" lon="0.89044">
        <ele>305</ele>
        <time>2019-02-17T10:16:13.000Z</time>
      </trkpt>
      <trkpt lat="43.24294" lon="0.89042">
        <ele>305</ele>
        <time>2019-02-17T10:16:15.000Z</time>
      </trkpt>
      <trkpt lat="43.24294" lon="0.8904">
        <ele>305</ele>
        <time>2019-02-17T10:16:17.000Z</time>
      </trkpt>
      <trkpt lat="43.24295" lon="0.89037">
        <ele>304</ele>
        <time>2019-02-17T10:16:19.000Z</time>
      </trkpt>
      <trkpt lat="43.24297" lon="0.89035">
        <ele>304</ele>
        <time>2019-02-17T10:16:21.000Z</time>
      </trkpt>
      <trkpt lat="43.24299" lon="0.89033">
        <ele>304</ele>
        <time>2019-02-17T10:16:23.000Z</time>
      </trkpt>
      <trkpt lat="43.24301" lon="0.89031">
        <ele>304</ele>
        <time>2019-02-17T10:16:25.000Z</time>
      </trkpt>
      <trkpt lat="43.24302" lon="0.8903">
        <ele>304</ele>
        <time>2019-02-17T10:16:27.000Z</time>
      </trkpt>
      <trkpt lat="43.24303" lon="0.89028">
        <ele>304</ele>
        <time>2019-02-17T10:16:29.000Z</time>
      </trkpt>
      <trkpt lat="43.24306" lon="0.89027">
        <ele>304</ele>
        <time>2019-02-17T10:16:31.000Z</time>
      </trkpt>
      <trkpt lat="43.24308" lon="0.89026">
        <ele>303</ele>
        <time>2019-02-17T10:16:33.000Z</time>
      </trkpt>
      <trkpt lat="43.24309" lon="0.89025">
        <ele>303</ele>
        <time>2019-02-17T10:16:35.000Z</time>
      </trkpt>
      <trkpt lat="43.24312" lon="0.89024">
        <ele>303</ele>
        <time>2019-02-17T10:16:37.000Z</time>
      </trkpt>
      <trkpt lat="43.24314" lon="0.89024">
        <ele>303</ele>
        <time>2019-02-17T10:16:39.000Z</time>
      </trkpt>
      <trkpt lat="43.24316" lon="0.89024">
        <ele>303</ele>
        <time>2019-02-17T10:16:41.000Z</time>
      </trkpt>
      <trkpt lat="43.24317" lon="0.89025">
        <ele>303</ele>
        <time>2019-02-17T10:16:43.000Z</time>
      </trkpt>
      <trkpt lat="43.24317" lon="0.89026">
        <ele>303</ele>
        <time>2019-02-17T10:16:45.000Z</time>
      </trkpt>
      <trkpt lat="43.24317" lon="0.89026">
        <ele>303</ele>
        <time>2019-02-17T10:16:47.000Z</time>
      </trkpt>
      <trkpt lat="43.24318" lon="0.89025">
        <ele>303</ele>
        <time>2019-02-17T10:16:49.000Z</time>
      </trkpt>
      <trkpt lat="43.2432" lon="0.89025">
        <ele>302</ele>
        <time>2019-02-17T10:16:51.000Z</time>
      </trkpt>
      <trkpt lat="43.2432" lon="0.89024">
        <ele>302</ele>
        <time>2019-02-17T10:16:53.000Z</time>
      </trkpt>
      <trkpt lat="43.24322" lon="0.89023">
        <ele>302</ele>
        <time>2019-02-17T10:16:55.000Z</time>
      </trkpt>
      <trkpt lat="43.24323" lon="0.89022">
        <ele>302</ele>
        <time>2019-02-17T10:16:57.000Z</time>
      </trkpt>
      <trkpt lat="43.24325" lon="0.89021">
        <ele>302</ele>
        <time>2019-02-17T10:16:59.000Z</time>
      </trkpt>
      <trkpt lat="43.24327" lon="0.8902">
        <ele>302</ele>
        <time>2019-02-17T10:17:01.000Z</time>
      </trkpt>
      <trkpt lat="43.24329" lon="0.89019">
        <ele>301</ele>
        <time>2019-02-17T10:17:03.000Z</time>
      </trkpt>
      <trkpt lat="43.24331" lon="0.89019">
        <ele>301</ele>
        <time>2019-02-17T10:17:05.000Z</time>
      </trkpt>
      <trkpt lat="43.24332" lon="0.89018">
        <ele>301</ele>
        <time>2019-02-17T10:17:07.000Z</time>
      </trkpt>
      <trkpt lat="43.24334" lon="0.89017">
        <ele>301</ele>
        <time>2019-02-17T10:17:09.000Z</time>
      </trkpt>
      <trkpt lat="43.24335" lon="0.89016">
        <ele>301</ele>
        <time>2019-02-17T10:17:11.000Z</time>
      </trkpt>
      <trkpt lat="43.24338" lon="0.89016">
        <ele>300</ele>
        <time>2019-02-17T10:17:13.000Z</time>
      </trkpt>
      <trkpt lat="43.2434" lon="0.89016">
        <ele>300</ele>
        <time>2019-02-17T10:17:15.000Z</time>
      </trkpt>
      <trkpt lat="43.24341" lon="0.89016">
        <ele>300</ele>
        <time>2019-02-17T10:17:17.000Z</time>
      </trkpt>
      <trkpt lat="43.24341" lon="0.89016">
        <ele>300</ele>
        <time>2019-02-17T10:17:19.000Z</time>
      </trkpt>
      <trkpt lat="43.24342" lon="0.89017">
        <ele>300</ele>
        <time>2019-02-17T10:17:21.000Z</time>
      </trkpt>
      <trkpt lat="43.24342" lon="0.89017">
        <ele>300</ele>
        <time>2019-02-17T10:17:23.000Z</time>
      </trkpt>
      <trkpt lat="43.24342" lon="0.89018">
        <ele>300</ele>
        <time>2019-02-17T10:17:25.000Z</time>
      </trkpt>
      <trkpt lat="43.24342" lon="0.89018">
        <ele>300</ele>
        <time>2019-02-17T10:17:27.000Z</time>
      </trkpt>
      <trkpt lat="43.24343" lon="0.89019">
        <ele>300</ele>
        <time>2019-02-17T10:17:29.000Z</time>
      </trkpt>
      <trkpt lat="43.24346" lon="0.8902">
        <ele>300</ele>
        <time>2019-02-17T10:17:31.000Z</time>
      </trkpt>
      <trkpt lat="43.24347" lon="0.89022">
        <ele>300</ele>
        <time>2019-02-17T10:17:33.000Z</time>
      </trkpt>
      <trkpt lat="43.24349" lon="0.89024">
        <ele>300</ele>
        <time>2019-02-17T10:17:35.000Z</time>
      </trkpt>
      <trkpt lat="43.24351" lon="0.89025">
        <ele>300</ele>
        <time>2019-02-17T10:17:37.000Z</time>
      </trkpt>
      <trkpt lat="43.24353" lon="0.89027">
        <ele>299</ele>
        <time>2019-02-17T10:17:39.000Z</time>
      </trkpt>
      <trkpt lat="43.24354" lon="0.89029">
        <ele>299</ele>
        <time>2019-02-17T10:17:41.000Z</time>
      </trkpt>
      <trkpt lat="43.24356" lon="0.8903">
        <ele>299</ele>
        <time>2019-02-17T10:17:43.000Z</time>
      </trkpt>
      <trkpt lat="43.24356" lon="0.89031">
        <ele>299</ele>
        <time>2019-02-17T10:17:45.000Z</time>
      </trkpt>
      <trkpt lat="43.24357" lon="0.89032">
        <ele>299</ele>
        <time>2019-02-17T10:17:47.000Z</time>
      </trkpt>
      <trkpt lat="43.24359" lon="0.89033">
        <ele>299</ele>
        <time>2019-02-17T10:17:49.000Z</time>
      </trkpt>
      <trkpt lat="43.2436" lon="0.89034">
        <ele>299</ele>
        <time>2019-02-17T10:17:51.000Z</time>
      </trkpt>
      <trkpt lat="43.24361" lon="0.89036">
        <ele>299</ele>
        <time>2019-02-17T10:17:53.000Z</time>
      </trkpt>
      <trkpt lat="43.24363" lon="0.89037">
        <ele>299</ele>
        <time>2019-02-17T10:17:55.000Z</time>
      </trkpt>
      <trkpt lat="43.24364" lon="0.89039">
        <ele>299</ele>
        <time>2019-02-17T10:17:57.000Z</time>
      </trkpt>
      <trkpt lat="43.24366" lon="0.8904">
        <ele>299</ele>
        <time>2019-02-17T10:17:59.000Z</time>
      </trkpt>
      <trkpt lat="43.24368" lon="0.89041">
        <ele>299</ele>
        <time>2019-02-17T10:18:01.000Z</time>
      </trkpt>
      <trkpt lat="43.24371" lon="0.89042">
        <ele>299</ele>
        <time>2019-02-17T10:18:03.000Z</time>
      </trkpt>
      <trkpt lat="43.24374" lon="0.89043">
        <ele>298</ele>
        <time>2019-02-17T10:18:05.000Z</time>
      </trkpt>
      <trkpt lat="43.24376" lon="0.89044">
        <ele>298</ele>
        <time>2019-02-17T10:18:07.000Z</time>
      </trkpt>
      <trkpt lat="43.24379" lon="0.89045">
        <ele>298</ele>
        <time>2019-02-17T10:18:09.000Z</time>
      </trkpt>
      <trkpt lat="43.24381" lon="0.89045">
        <ele>298</ele>
        <time>2019-02-17T10:18:11.000Z</time>
      </trkpt>
      <trkpt lat="43.24384" lon="0.89046">
        <ele>298</ele>
        <time>2019-02-17T10:18:13.000Z</time>
      </trkpt>
      <trkpt lat="43.24386" lon="0.89047">
        <ele>298</ele>
        <time>2019-02-17T10:18:15.000Z</time>
      </trkpt>
      <trkpt lat="43.24387" lon="0.89048">
        <ele>298</ele>
        <time>2019-02-17T10:18:17.000Z</time>
      </trkpt>
      <trkpt lat="43.2439" lon="0.89049">
        <ele>298</ele>
        <time>2019-02-17T10:18:19.000Z</time>
      </trkpt>
      <trkpt lat="43.24393" lon="0.89051">
        <ele>297</ele>
        <time>2019-02-17T10:18:21.000Z</time>
      </trkpt>
      <trkpt lat="43.24395" lon="0.89052">
        <ele>297</ele>
        <time>2019-02-17T10:18:23.000Z</time>
      </trkpt>
      <trkpt lat="43.24397" lon="0.89054">
        <ele>297</ele>
        <time>2019-02-17T10:18:25.000Z</time>
      </trkpt>
      <trkpt lat="43.244" lon="0.89055">
        <ele>297</ele>
        <time>2019-02-17T10:18:27.000Z</time>
      </trkpt>
      <trkpt lat="43.24402" lon="0.89056">
        <ele>297</ele>
        <time>2019-02-17T10:18:29.000Z</time>
      </trkpt>
      <trkpt lat="43.24404" lon="0.89059">
        <ele>297</ele>
        <time>2019-02-17T10:18:31.000Z</time>
      </trkpt>
      <trkpt lat="43.24406" lon="0.89061">
        <ele>297</ele>
        <time>2019-02-17T10:18:33.000Z</time>
      </trkpt>
      <trkpt lat="43.24408" lon="0.89063">
        <ele>297</ele>
        <time>2019-02-17T10:18:35.000Z</time>
      </trkpt>
      <trkpt lat="43.2441" lon="0.89065">
        <ele>297</ele>
        <time>2019-02-17T10:18:37.000Z</time>
      </trkpt>
      <trkpt lat="43.24412" lon="0.89066">
        <ele>297</ele>
        <time>2019-02-17T10:18:39.000Z</time>
      </trkpt>
      <trkpt lat="43.24413" lon="0.89069">
        <ele>297</ele>
        <time>2019-02-17T10:18:41.000Z</time>
      </trkpt>
      <trkpt lat="43.24416" lon="0.89071">
        <ele>298</ele>
        <time>2019-02-17T10:18:43.000Z</time>
      </trkpt>
      <trkpt lat="43.24419" lon="0.89073">
        <ele>298</ele>
        <time>2019-02-17T10:18:45.000Z</time>
      </trkpt>
      <trkpt lat="43.24421" lon="0.89075">
        <ele>298</ele>
        <time>2019-02-17T10:18:47.000Z</time>
      </trkpt>
      <trkpt lat="43.24423" lon="0.89077">
        <ele>298</ele>
        <time>2019-02-17T10:18:49.000Z</time>
      </trkpt>
      <trkpt lat="43.24425" lon="0.89078">
        <ele>298</ele>
        <time>2019-02-17T10:18:51.000Z</time>
      </trkpt>
      <trkpt lat="43.24427" lon="0.8908">
        <ele>298</ele>
        <time>2019-02-17T10:18:53.000Z</time>
      </trkpt>
      <trkpt lat="43.24429" lon="0.89081">
        <ele>298</ele>
        <time>2019-02-17T10:18:55.000Z</time>
      </trkpt>
      <trkpt lat="43.2443" lon="0.89082">
        <ele>298</ele>
        <time>2019-02-17T10:18:57.000Z</time>
      </trkpt>
      <trkpt lat="43.24431" lon="0.89083">
        <ele>298</ele>
        <time>2019-02-17T10:18:59.000Z</time>
      </trkpt>
      <trkpt lat="43.24434" lon="0.89084">
        <ele>298</ele>
        <time>2019-02-17T10:19:01.000Z</time>
      </trkpt>
      <trkpt lat="43.24436" lon="0.89085">
        <ele>297</ele>
        <time>2019-02-17T10:19:03.000Z</time>
      </trkpt>
      <trkpt lat="43.24439" lon="0.89086">
        <ele>297</ele>
        <time>2019-02-17T10:19:05.000Z</time>
      </trkpt>
      <trkpt lat="43.24441" lon="0.89087">
        <ele>297</ele>
        <time>2019-02-17T10:19:07.000Z</time>
      </trkpt>
      <trkpt lat="43.24444" lon="0.89088">
        <ele>297</ele>
        <time>2019-02-17T10:19:09.000Z</time>
      </trkpt>
      <trkpt lat="43.24447" lon="0.89088">
        <ele>297</ele>
        <time>2019-02-17T10:19:11.000Z</time>
      </trkpt>
      <trkpt lat="43.24449" lon="0.89089">
        <ele>297</ele>
        <time>2019-02-17T10:19:13.000Z</time>
      </trkpt>
      <trkpt lat="43.24451" lon="0.8909">
        <ele>297</ele>
        <time>2019-02-17T10:19:15.000Z</time>
      </trkpt>
      <trkpt lat="43.24453" lon="0.89091">
        <ele>296</ele>
        <time>2019-02-17T10:19:17.000Z</time>
      </trkpt>
      <trkpt lat="43.24454" lon="0.89092">
        <ele>296</ele>
        <time>2019-02-17T10:19:19.000Z</time>
      </trkpt>
      <trkpt lat="43.24456" lon="0.89093">
        <ele>296</ele>
        <time>2019-02-17T10:19:21.000Z</time>
      </trkpt>
      <trkpt lat="43.24458" lon="0.89093">
        <ele>296</ele>
        <time>2019-02-17T10:19:23.000Z</time>
      </trkpt>
      <trkpt lat="43.24459" lon="0.89094">
        <ele>296</ele>
        <time>2019-02-17T10:19:25.000Z</time>
      </trkpt>
      <trkpt lat="43.24461" lon="0.89094">
        <ele>296</ele>
        <time>2019-02-17T10:19:27.000Z</time>
      </trkpt>
      <trkpt lat="43.24462" lon="0.89095">
        <ele>296</ele>
        <time>2019-02-17T10:19:29.000Z</time>
      </trkpt>
      <trkpt lat="43.24465" lon="0.89095">
        <ele>296</ele>
        <time>2019-02-17T10:19:31.000Z</time>
      </trkpt>
      <trkpt lat="43.24466" lon="0.89095">
        <ele>296</ele>
        <time>2019-02-17T10:19:33.000Z</time>
      </trkpt>
      <trkpt lat="43.24468" lon="0.89095">
        <ele>295</ele>
        <time>2019-02-17T10:19:35.000Z</time>
      </trkpt>
      <trkpt lat="43.24469" lon="0.89095">
        <ele>295</ele>
        <time>2019-02-17T10:19:37.000Z</time>
      </trkpt>
      <trkpt lat="43.24471" lon="0.89096">
        <ele>295</ele>
        <time>2019-02-17T10:19:39.000Z</time>
      </trkpt>
      <trkpt lat="43.24472" lon="0.89097">
        <ele>295</ele>
        <time>2019-02-17T10:19:41.000Z</time>
      </trkpt>
      <trkpt lat="43.24474" lon="0.89097">
        <ele>295</ele>
        <time>2019-02-17T10:19:43.000Z</time>
      </trkpt>
      <trkpt lat="43.24477" lon="0.89098">
        <ele>295</ele>
        <time>2019-02-17T10:19:45.000Z</time>
      </trkpt>
      <trkpt lat="43.24479" lon="0.89098">
        <ele>295</ele>
        <time>2019-02-17T10:19:47.000Z</time>
      </trkpt>
      <trkpt lat="43.24482" lon="0.89099">
        <ele>295</ele>
        <time>2019-02-17T10:19:49.000Z</time>
      </trkpt>
      <trkpt lat="43.24484" lon="0.89099">
        <ele>295</ele>
        <time>2019-02-17T10:19:51.000Z</time>
      </trkpt>
      <trkpt lat="43.24487" lon="0.891">
        <ele>295</ele>
        <time>2019-02-17T10:19:53.000Z</time>
      </trkpt>
      <trkpt lat="43.24489" lon="0.891">
        <ele>295</ele>
        <time>2019-02-17T10:19:55.000Z</time>
      </trkpt>
      <trkpt lat="43.24491" lon="0.891">
        <ele>294</ele>
        <time>2019-02-17T10:19:57.000Z</time>
      </trkpt>
      <trkpt lat="43.24493" lon="0.891">
        <ele>294</ele>
        <time>2019-02-17T10:19:59.000Z</time>
      </trkpt>
      <trkpt lat="43.24494" lon="0.89099">
        <ele>294</ele>
        <time>2019-02-17T10:20:01.000Z</time>
      </trkpt>
      <trkpt lat="43.24495" lon="0.89099">
        <ele>294</ele>
        <time>2019-02-17T10:20:03.000Z</time>
      </trkpt>
      <trkpt lat="43.24497" lon="0.891">
        <ele>294</ele>
        <time>2019-02-17T10:20:05.000Z</time>
      </trkpt>
      <trkpt lat="43.24499" lon="0.891">
        <ele>294</ele>
        <time>2019-02-17T10:20:07.000Z</time>
      </trkpt>
      <trkpt lat="43.245" lon="0.891">
        <ele>294</ele>
        <time>2019-02-17T10:20:09.000Z</time>
      </trkpt>
      <trkpt lat="43.24502" lon="0.891">
        <ele>294</ele>
        <time>2019-02-17T10:20:11.000Z</time>
      </trkpt>
      <trkpt lat="43.24504" lon="0.89101">
        <ele>294</ele>
        <time>2019-02-17T10:20:13.000Z</time>
      </trkpt>
      <trkpt lat="43.24506" lon="0.89101">
        <ele>294</ele>
        <time>2019-02-17T10:20:15.000Z</time>
      </trkpt>
      <trkpt lat="43.24508" lon="0.89102">
        <ele>294</ele>
        <time>2019-02-17T10:20:17.000Z</time>
      </trkpt>
      <trkpt lat="43.2451" lon="0.89104">
        <ele>294</ele>
        <time>2019-02-17T10:20:19.000Z</time>
      </trkpt>
      <trkpt lat="43.24512" lon="0.89106">
        <ele>294</ele>
        <time>2019-02-17T10:20:21.000Z</time>
      </trkpt>
      <trkpt lat="43.24514" lon="0.89109">
        <ele>294</ele>
        <time>2019-02-17T10:20:23.000Z</time>
      </trkpt>
      <trkpt lat="43.24515" lon="0.89111">
        <ele>294</ele>
        <time>2019-02-17T10:20:25.000Z</time>
      </trkpt>
      <trkpt lat="43.24517" lon="0.89113">
        <ele>294</ele>
        <time>2019-02-17T10:20:27.000Z</time>
      </trkpt>
      <trkpt lat="43.24518" lon="0.89115">
        <ele>294</ele>
        <time>2019-02-17T10:20:29.000Z</time>
      </trkpt>
      <trkpt lat="43.24519" lon="0.89117">
        <ele>294</ele>
        <time>2019-02-17T10:20:31.000Z</time>
      </trkpt>
      <trkpt lat="43.24521" lon="0.89119">
        <ele>294</ele>
        <time>2019-02-17T10:20:33.000Z</time>
      </trkpt>
      <trkpt lat="43.24523" lon="0.89121">
        <ele>294</ele>
        <time>2019-02-17T10:20:35.000Z</time>
      </trkpt>
      <trkpt lat="43.24525" lon="0.89122">
        <ele>294</ele>
        <time>2019-02-17T10:20:37.000Z</time>
      </trkpt>
      <trkpt lat="43.24527" lon="0.89124">
        <ele>294</ele>
        <time>2019-02-17T10:20:39.000Z</time>
      </trkpt>
      <trkpt lat="43.24528" lon="0.89126">
        <ele>294</ele>
        <time>2019-02-17T10:20:41.000Z</time>
      </trkpt>
      <trkpt lat="43.2453" lon="0.89128">
        <ele>294</ele>
        <time>2019-02-17T10:20:43.000Z</time>
      </trkpt>
      <trkpt lat="43.24531" lon="0.89129">
        <ele>294</ele>
        <time>2019-02-17T10:20:45.000Z</time>
      </trkpt>
      <trkpt lat="43.24533" lon="0.89132">
        <ele>294</ele>
        <time>2019-02-17T10:20:47.000Z</time>
      </trkpt>
      <trkpt lat="43.24534" lon="0.89134">
        <ele>294</ele>
        <time>2019-02-17T10:20:49.000Z</time>
      </trkpt>
      <trkpt lat="43.24535" lon="0.89136">
        <ele>294</ele>
        <time>2019-02-17T10:20:51.000Z</time>
      </trkpt>
      <trkpt lat="43.24535" lon="0.89139">
        <ele>294</ele>
        <time>2019-02-17T10:20:53.000Z</time>
      </trkpt>
      <trkpt lat="43.24536" lon="0.89142">
        <ele>294</ele>
        <time>2019-02-17T10:20:55.000Z</time>
      </trkpt>
      <trkpt lat="43.24537" lon="0.89145">
        <ele>294</ele>
        <time>2019-02-17T10:20:57.000Z</time>
      </trkpt>
      <trkpt lat="43.24538" lon="0.89147">
        <ele>294</ele>
        <time>2019-02-17T10:20:59.000Z</time>
      </trkpt>
      <trkpt lat="43.24538" lon="0.8915">
        <ele>294</ele>
        <time>2019-02-17T10:21:01.000Z</time>
      </trkpt>
      <trkpt lat="43.24539" lon="0.89153">
        <ele>294</ele>
        <time>2019-02-17T10:21:03.000Z</time>
      </trkpt>
      <trkpt lat="43.2454" lon="0.89154">
        <ele>294</ele>
        <time>2019-02-17T10:21:05.000Z</time>
      </trkpt>
      <trkpt lat="43.24541" lon="0.89156">
        <ele>294</ele>
        <time>2019-02-17T10:21:07.000Z</time>
      </trkpt>
      <trkpt lat="43.24541" lon="0.89158">
        <ele>294</ele>
        <time>2019-02-17T10:21:09.000Z</time>
      </trkpt>
      <trkpt lat="43.24541" lon="0.89161">
        <ele>294</ele>
        <time>2019-02-17T10:21:11.000Z</time>
      </trkpt>
      <trkpt lat="43.24541" lon="0.89165">
        <ele>295</ele>
        <time>2019-02-17T10:21:13.000Z</time>
      </trkpt>
      <trkpt lat="43.24541" lon="0.89167">
        <ele>295</ele>
        <time>2019-02-17T10:21:15.000Z</time>
      </trkpt>
      <trkpt lat="43.2454" lon="0.8917">
        <ele>295</ele>
        <time>2019-02-17T10:21:17.000Z</time>
      </trkpt>
      <trkpt lat="43.24541" lon="0.89173">
        <ele>295</ele>
        <time>2019-02-17T10:21:19.000Z</time>
      </trkpt>
      <trkpt lat="43.2454" lon="0.89176">
        <ele>295</ele>
        <time>2019-02-17T10:21:21.000Z</time>
      </trkpt>
      <trkpt lat="43.24541" lon="0.89179">
        <ele>295</ele>
        <time>2019-02-17T10:21:23.000Z</time>
      </trkpt>
      <trkpt lat="43.2454" lon="0.89181">
        <ele>295</ele>
        <time>2019-02-17T10:21:25.000Z</time>
      </trkpt>
      <trkpt lat="43.2454" lon="0.89186">
        <ele>296</ele>
        <time>2019-02-17T10:21:28.000Z</time>
      </trkpt>
      <trkpt lat="43.2454" lon="0.8919">
        <ele>296</ele>
        <time>2019-02-17T10:21:30.000Z</time>
      </trkpt>
      <trkpt lat="43.2454" lon="0.89193">
        <ele>296</ele>
        <time>2019-02-17T10:21:32.000Z</time>
      </trkpt>
      <trkpt lat="43.2454" lon="0.89197">
        <ele>296</ele>
        <time>2019-02-17T10:21:34.000Z</time>
      </trkpt>
      <trkpt lat="43.2454" lon="0.89199">
        <ele>296</ele>
        <time>2019-02-17T10:21:36.000Z</time>
      </trkpt>
      <trkpt lat="43.2454" lon="0.89203">
        <ele>296</ele>
        <time>2019-02-17T10:21:38.000Z</time>
      </trkpt>
      <trkpt lat="43.2454" lon="0.89205">
        <ele>296</ele>
        <time>2019-02-17T10:21:40.000Z</time>
      </trkpt>
      <trkpt lat="43.24541" lon="0.89208">
        <ele>297</ele>
        <time>2019-02-17T10:21:42.000Z</time>
      </trkpt>
      <trkpt lat="43.24541" lon="0.8921">
        <ele>297</ele>
        <time>2019-02-17T10:21:44.000Z</time>
      </trkpt>
      <trkpt lat="43.24541" lon="0.89212">
        <ele>297</ele>
        <time>2019-02-17T10:21:46.000Z</time>
      </trkpt>
      <trkpt lat="43.24542" lon="0.89213">
        <ele>297</ele>
        <time>2019-02-17T10:21:48.000Z</time>
      </trkpt>
      <trkpt lat="43.24545" lon="0.89214">
        <ele>296</ele>
        <time>2019-02-17T10:21:50.000Z</time>
      </trkpt>
      <trkpt lat="43.24546" lon="0.89214">
        <ele>296</ele>
        <time>2019-02-17T10:21:52.000Z</time>
      </trkpt>
      <trkpt lat="43.24548" lon="0.89214">
        <ele>296</ele>
        <time>2019-02-17T10:21:54.000Z</time>
      </trkpt>
      <trkpt lat="43.2455" lon="0.89214">
        <ele>296</ele>
        <time>2019-02-17T10:21:56.000Z</time>
      </trkpt>
      <trkpt lat="43.24552" lon="0.89213">
        <ele>296</ele>
        <time>2019-02-17T10:21:58.000Z</time>
      </trkpt>
      <trkpt lat="43.24554" lon="0.89212">
        <ele>296</ele>
        <time>2019-02-17T10:22:00.000Z</time>
      </trkpt>
      <trkpt lat="43.24556" lon="0.89211">
        <ele>295</ele>
        <time>2019-02-17T10:22:02.000Z</time>
      </trkpt>
      <trkpt lat="43.24558" lon="0.8921">
        <ele>295</ele>
        <time>2019-02-17T10:22:04.000Z</time>
      </trkpt>
      <trkpt lat="43.24559" lon="0.8921">
        <ele>295</ele>
        <time>2019-02-17T10:22:06.000Z</time>
      </trkpt>
      <trkpt lat="43.24561" lon="0.8921">
        <ele>295</ele>
        <time>2019-02-17T10:22:08.000Z</time>
      </trkpt>
      <trkpt lat="43.24563" lon="0.8921">
        <ele>295</ele>
        <time>2019-02-17T10:22:10.000Z</time>
      </trkpt>
      <trkpt lat="43.24564" lon="0.8921">
        <ele>294</ele>
        <time>2019-02-17T10:22:12.000Z</time>
      </trkpt>
      <trkpt lat="43.24565" lon="0.89211">
        <ele>294</ele>
        <time>2019-02-17T10:22:14.000Z</time>
      </trkpt>
      <trkpt lat="43.24566" lon="0.89212">
        <ele>294</ele>
        <time>2019-02-17T10:22:16.000Z</time>
      </trkpt>
      <trkpt lat="43.24565" lon="0.89213">
        <ele>294</ele>
        <time>2019-02-17T10:22:18.000Z</time>
      </trkpt>
      <trkpt lat="43.24566" lon="0.89214">
        <ele>294</ele>
        <time>2019-02-17T10:22:20.000Z</time>
      </trkpt>
      <trkpt lat="43.24566" lon="0.89215">
        <ele>294</ele>
        <time>2019-02-17T10:22:22.000Z</time>
      </trkpt>
      <trkpt lat="43.24566" lon="0.89215">
        <ele>294</ele>
        <time>2019-02-17T10:22:24.000Z</time>
      </trkpt>
      <trkpt lat="43.24567" lon="0.89215">
        <ele>294</ele>
        <time>2019-02-17T10:22:26.000Z</time>
      </trkpt>
      <trkpt lat="43.24567" lon="0.89215">
        <ele>294</ele>
        <time>2019-02-17T10:22:28.000Z</time>
      </trkpt>
      <trkpt lat="43.24568" lon="0.89215">
        <ele>294</ele>
        <time>2019-02-17T10:22:30.000Z</time>
      </trkpt>
      <trkpt lat="43.24566" lon="0.89215">
        <ele>294</ele>
        <time>2019-02-17T10:22:32.000Z</time>
      </trkpt>
      <trkpt lat="43.24563" lon="0.89214">
        <ele>295</ele>
        <time>2019-02-17T10:22:34.000Z</time>
      </trkpt>
      <trkpt lat="43.24562" lon="0.89214">
        <ele>295</ele>
        <time>2019-02-17T10:22:36.000Z</time>
      </trkpt>
      <trkpt lat="43.2456" lon="0.89213">
        <ele>295</ele>
        <time>2019-02-17T10:22:38.000Z</time>
      </trkpt>
      <trkpt lat="43.24559" lon="0.89213">
        <ele>295</ele>
        <time>2019-02-17T10:22:40.000Z</time>
      </trkpt>
      <trkpt lat="43.24556" lon="0.89214">
        <ele>295</ele>
        <time>2019-02-17T10:22:42.000Z</time>
      </trkpt>
      <trkpt lat="43.24554" lon="0.89215">
        <ele>296</ele>
        <time>2019-02-17T10:22:44.000Z</time>
      </trkpt>
      <trkpt lat="43.24552" lon="0.89216">
        <ele>296</ele>
        <time>2019-02-17T10:22:46.000Z</time>
      </trkpt>
      <trkpt lat="43.24551" lon="0.89218">
        <ele>296</ele>
        <time>2019-02-17T10:22:48.000Z</time>
      </trkpt>
      <trkpt lat="43.24549" lon="0.89221">
        <ele>296</ele>
        <time>2019-02-17T10:22:50.000Z</time>
      </trkpt>
      <trkpt lat="43.24547" lon="0.89223">
        <ele>297</ele>
        <time>2019-02-17T10:22:52.000Z</time>
      </trkpt>
      <trkpt lat="43.24545" lon="0.89225">
        <ele>297</ele>
        <time>2019-02-17T10:22:54.000Z</time>
      </trkpt>
      <trkpt lat="43.24545" lon="0.89229">
        <ele>297</ele>
        <time>2019-02-17T10:22:56.000Z</time>
      </trkpt>
      <trkpt lat="43.24544" lon="0.89233">
        <ele>297</ele>
        <time>2019-02-17T10:22:58.000Z</time>
      </trkpt>
      <trkpt lat="43.24543" lon="0.89237">
        <ele>296</ele>
        <time>2019-02-17T10:23:00.000Z</time>
      </trkpt>
      <trkpt lat="43.24543" lon="0.8924">
        <ele>296</ele>
        <time>2019-02-17T10:23:02.000Z</time>
      </trkpt>
      <trkpt lat="43.24542" lon="0.89242">
        <ele>296</ele>
        <time>2019-02-17T10:23:04.000Z</time>
      </trkpt>
      <trkpt lat="43.24541" lon="0.89246">
        <ele>296</ele>
        <time>2019-02-17T10:23:06.000Z</time>
      </trkpt>
      <trkpt lat="43.24541" lon="0.89249">
        <ele>296</ele>
        <time>2019-02-17T10:23:08.000Z</time>
      </trkpt>
      <trkpt lat="43.2454" lon="0.89252">
        <ele>296</ele>
        <time>2019-02-17T10:23:10.000Z</time>
      </trkpt>
      <trkpt lat="43.2454" lon="0.89256">
        <ele>296</ele>
        <time>2019-02-17T10:23:12.000Z</time>
      </trkpt>
      <trkpt lat="43.2454" lon="0.8926">
        <ele>295</ele>
        <time>2019-02-17T10:23:14.000Z</time>
      </trkpt>
      <trkpt lat="43.2454" lon="0.89263">
        <ele>295</ele>
        <time>2019-02-17T10:23:16.000Z</time>
      </trkpt>
      <trkpt lat="43.24539" lon="0.89267">
        <ele>295</ele>
        <time>2019-02-17T10:23:18.000Z</time>
      </trkpt>
      <trkpt lat="43.24538" lon="0.8927">
        <ele>295</ele>
        <time>2019-02-17T10:23:20.000Z</time>
      </trkpt>
      <trkpt lat="43.24536" lon="0.89273">
        <ele>295</ele>
        <time>2019-02-17T10:23:22.000Z</time>
      </trkpt>
      <trkpt lat="43.24536" lon="0.89276">
        <ele>295</ele>
        <time>2019-02-17T10:23:24.000Z</time>
      </trkpt>
      <trkpt lat="43.24535" lon="0.8928">
        <ele>294</ele>
        <time>2019-02-17T10:23:26.000Z</time>
      </trkpt>
      <trkpt lat="43.24535" lon="0.89284">
        <ele>294</ele>
        <time>2019-02-17T10:23:28.000Z</time>
      </trkpt>
      <trkpt lat="43.24534" lon="0.89287">
        <ele>294</ele>
        <time>2019-02-17T10:23:30.000Z</time>
      </trkpt>
      <trkpt lat="43.24533" lon="0.8929">
        <ele>294</ele>
        <time>2019-02-17T10:23:32.000Z</time>
      </trkpt>
      <trkpt lat="43.24532" lon="0.89293">
        <ele>294</ele>
        <time>2019-02-17T10:23:34.000Z</time>
      </trkpt>
      <trkpt lat="43.2453" lon="0.89297">
        <ele>293</ele>
        <time>2019-02-17T10:23:36.000Z</time>
      </trkpt>
      <trkpt lat="43.24528" lon="0.89301">
        <ele>293</ele>
        <time>2019-02-17T10:23:38.000Z</time>
      </trkpt>
      <trkpt lat="43.24527" lon="0.89304">
        <ele>293</ele>
        <time>2019-02-17T10:23:40.000Z</time>
      </trkpt>
      <trkpt lat="43.24526" lon="0.89308">
        <ele>293</ele>
        <time>2019-02-17T10:23:42.000Z</time>
      </trkpt>
      <trkpt lat="43.24525" lon="0.89311">
        <ele>293</ele>
        <time>2019-02-17T10:23:44.000Z</time>
      </trkpt>
      <trkpt lat="43.24525" lon="0.89314">
        <ele>293</ele>
        <time>2019-02-17T10:23:46.000Z</time>
      </trkpt>
      <trkpt lat="43.24524" lon="0.89317">
        <ele>293</ele>
        <time>2019-02-17T10:23:48.000Z</time>
      </trkpt>
      <trkpt lat="43.24523" lon="0.89321">
        <ele>293</ele>
        <time>2019-02-17T10:23:50.000Z</time>
      </trkpt>
      <trkpt lat="43.24522" lon="0.89325">
        <ele>293</ele>
        <time>2019-02-17T10:23:52.000Z</time>
      </trkpt>
      <trkpt lat="43.24522" lon="0.89329">
        <ele>293</ele>
        <time>2019-02-17T10:23:54.000Z</time>
      </trkpt>
      <trkpt lat="43.24521" lon="0.89332">
        <ele>293</ele>
        <time>2019-02-17T10:23:56.000Z</time>
      </trkpt>
      <trkpt lat="43.24521" lon="0.89335">
        <ele>293</ele>
        <time>2019-02-17T10:23:58.000Z</time>
      </trkpt>
      <trkpt lat="43.24521" lon="0.89338">
        <ele>293</ele>
        <time>2019-02-17T10:24:00.000Z</time>
      </trkpt>
      <trkpt lat="43.2452" lon="0.89341">
        <ele>293</ele>
        <time>2019-02-17T10:24:02.000Z</time>
      </trkpt>
      <trkpt lat="43.2452" lon="0.89344">
        <ele>293</ele>
        <time>2019-02-17T10:24:04.000Z</time>
      </trkpt>
      <trkpt lat="43.24519" lon="0.89348">
        <ele>293</ele>
        <time>2019-02-17T10:24:06.000Z</time>
      </trkpt>
      <trkpt lat="43.24519" lon="0.89351">
        <ele>293</ele>
        <time>2019-02-17T10:24:08.000Z</time>
      </trkpt>
      <trkpt lat="43.24519" lon="0.89354">
        <ele>293</ele>
        <time>2019-02-17T10:24:10.000Z</time>
      </trkpt>
      <trkpt lat="43.24517" lon="0.89357">
        <ele>294</ele>
        <time>2019-02-17T10:24:12.000Z</time>
      </trkpt>
      <trkpt lat="43.24517" lon="0.8936">
        <ele>294</ele>
        <time>2019-02-17T10:24:14.000Z</time>
      </trkpt>
      <trkpt lat="43.24516" lon="0.89363">
        <ele>294</ele>
        <time>2019-02-17T10:24:16.000Z</time>
      </trkpt>
      <trkpt lat="43.24515" lon="0.89366">
        <ele>294</ele>
        <time>2019-02-17T10:24:18.000Z</time>
      </trkpt>
      <trkpt lat="43.24514" lon="0.89369">
        <ele>294</ele>
        <time>2019-02-17T10:24:20.000Z</time>
      </trkpt>
      <trkpt lat="43.24513" lon="0.89373">
        <ele>294</ele>
        <time>2019-02-17T10:24:22.000Z</time>
      </trkpt>
      <trkpt lat="43.24511" lon="0.89376">
        <ele>295</ele>
        <time>2019-02-17T10:24:24.000Z</time>
      </trkpt>
      <trkpt lat="43.2451" lon="0.89379">
        <ele>295</ele>
        <time>2019-02-17T10:24:26.000Z</time>
      </trkpt>
      <trkpt lat="43.24508" lon="0.89382">
        <ele>296</ele>
        <time>2019-02-17T10:24:28.000Z</time>
      </trkpt>
      <trkpt lat="43.24507" lon="0.89384">
        <ele>296</ele>
        <time>2019-02-17T10:24:30.000Z</time>
      </trkpt>
      <trkpt lat="43.24506" lon="0.89388">
        <ele>297</ele>
        <time>2019-02-17T10:24:32.000Z</time>
      </trkpt>
      <trkpt lat="43.24506" lon="0.89391">
        <ele>297</ele>
        <time>2019-02-17T10:24:34.000Z</time>
      </trkpt>
      <trkpt lat="43.24505" lon="0.89395">
        <ele>297</ele>
        <time>2019-02-17T10:24:36.000Z</time>
      </trkpt>
      <trkpt lat="43.24505" lon="0.89398">
        <ele>297</ele>
        <time>2019-02-17T10:24:38.000Z</time>
      </trkpt>
      <trkpt lat="43.24504" lon="0.89401">
        <ele>297</ele>
        <time>2019-02-17T10:24:40.000Z</time>
      </trkpt>
      <trkpt lat="43.24504" lon="0.89404">
        <ele>298</ele>
        <time>2019-02-17T10:24:42.000Z</time>
      </trkpt>
      <trkpt lat="43.24503" lon="0.89406">
        <ele>298</ele>
        <time>2019-02-17T10:24:44.000Z</time>
      </trkpt>
      <trkpt lat="43.24503" lon="0.89411">
        <ele>298</ele>
        <time>2019-02-17T10:24:46.000Z</time>
      </trkpt>
      <trkpt lat="43.24502" lon="0.89414">
        <ele>298</ele>
        <time>2019-02-17T10:24:48.000Z</time>
      </trkpt>
      <trkpt lat="43.24502" lon="0.89418">
        <ele>298</ele>
        <time>2019-02-17T10:24:50.000Z</time>
      </trkpt>
      <trkpt lat="43.24501" lon="0.89421">
        <ele>299</ele>
        <time>2019-02-17T10:24:52.000Z</time>
      </trkpt>
      <trkpt lat="43.245" lon="0.89424">
        <ele>299</ele>
        <time>2019-02-17T10:24:54.000Z</time>
      </trkpt>
      <trkpt lat="43.24499" lon="0.89427">
        <ele>299</ele>
        <time>2019-02-17T10:24:56.000Z</time>
      </trkpt>
      <trkpt lat="43.24499" lon="0.8943">
        <ele>299</ele>
        <time>2019-02-17T10:24:58.000Z</time>
      </trkpt>
      <trkpt lat="43.24498" lon="0.89433">
        <ele>300</ele>
        <time>2019-02-17T10:25:00.000Z</time>
      </trkpt>
      <trkpt lat="43.24497" lon="0.89436">
        <ele>300</ele>
        <time>2019-02-17T10:25:02.000Z</time>
      </trkpt>
      <trkpt lat="43.24497" lon="0.89439">
        <ele>300</ele>
        <time>2019-02-17T10:25:04.000Z</time>
      </trkpt>
      <trkpt lat="43.24495" lon="0.89442">
        <ele>301</ele>
        <time>2019-02-17T10:25:06.000Z</time>
      </trkpt>
      <trkpt lat="43.24494" lon="0.89446">
        <ele>301</ele>
        <time>2019-02-17T10:25:08.000Z</time>
      </trkpt>
      <trkpt lat="43.24492" lon="0.89449">
        <ele>302</ele>
        <time>2019-02-17T10:25:10.000Z</time>
      </trkpt>
      <trkpt lat="43.24492" lon="0.89451">
        <ele>302</ele>
        <time>2019-02-17T10:25:12.000Z</time>
      </trkpt>
      <trkpt lat="43.24491" lon="0.89454">
        <ele>302</ele>
        <time>2019-02-17T10:25:14.000Z</time>
      </trkpt>
      <trkpt lat="43.2449" lon="0.89458">
        <ele>303</ele>
        <time>2019-02-17T10:25:16.000Z</time>
      </trkpt>
      <trkpt lat="43.2449" lon="0.89461">
        <ele>303</ele>
        <time>2019-02-17T10:25:18.000Z</time>
      </trkpt>
      <trkpt lat="43.24489" lon="0.89464">
        <ele>303</ele>
        <time>2019-02-17T10:25:20.000Z</time>
      </trkpt>
      <trkpt lat="43.24489" lon="0.89467">
        <ele>303</ele>
        <time>2019-02-17T10:25:22.000Z</time>
      </trkpt>
      <trkpt lat="43.24489" lon="0.8947">
        <ele>303</ele>
        <time>2019-02-17T10:25:24.000Z</time>
      </trkpt>
      <trkpt lat="43.24488" lon="0.89473">
        <ele>303</ele>
        <time>2019-02-17T10:25:26.000Z</time>
      </trkpt>
      <trkpt lat="43.24488" lon="0.89476">
        <ele>303</ele>
        <time>2019-02-17T10:25:28.000Z</time>
      </trkpt>
      <trkpt lat="43.24488" lon="0.8948">
        <ele>303</ele>
        <time>2019-02-17T10:25:30.000Z</time>
      </trkpt>
      <trkpt lat="43.24487" lon="0.89483">
        <ele>303</ele>
        <time>2019-02-17T10:25:32.000Z</time>
      </trkpt>
      <trkpt lat="43.24486" lon="0.89485">
        <ele>303</ele>
        <time>2019-02-17T10:25:34.000Z</time>
      </trkpt>
      <trkpt lat="43.24485" lon="0.89488">
        <ele>304</ele>
        <time>2019-02-17T10:25:36.000Z</time>
      </trkpt>
      <trkpt lat="43.24484" lon="0.89491">
        <ele>304</ele>
        <time>2019-02-17T10:25:38.000Z</time>
      </trkpt>
      <trkpt lat="43.24483" lon="0.89493">
        <ele>304</ele>
        <time>2019-02-17T10:25:40.000Z</time>
      </trkpt>
      <trkpt lat="43.24483" lon="0.89495">
        <ele>304</ele>
        <time>2019-02-17T10:25:42.000Z</time>
      </trkpt>
      <trkpt lat="43.24482" lon="0.89498">
        <ele>304</ele>
        <time>2019-02-17T10:25:44.000Z</time>
      </trkpt>
      <trkpt lat="43.24481" lon="0.895">
        <ele>304</ele>
        <time>2019-02-17T10:25:46.000Z</time>
      </trkpt>
      <trkpt lat="43.24481" lon="0.89503">
        <ele>305</ele>
        <time>2019-02-17T10:25:48.000Z</time>
      </trkpt>
      <trkpt lat="43.2448" lon="0.89505">
        <ele>305</ele>
        <time>2019-02-17T10:25:50.000Z</time>
      </trkpt>
      <trkpt lat="43.24479" lon="0.89508">
        <ele>305</ele>
        <time>2019-02-17T10:25:52.000Z</time>
      </trkpt>
      <trkpt lat="43.24479" lon="0.8951">
        <ele>305</ele>
        <time>2019-02-17T10:25:54.000Z</time>
      </trkpt>
      <trkpt lat="43.24478" lon="0.89512">
        <ele>305</ele>
        <time>2019-02-17T10:25:56.000Z</time>
      </trkpt>
      <trkpt lat="43.24478" lon="0.89515">
        <ele>305</ele>
        <time>2019-02-17T10:25:58.000Z</time>
      </trkpt>
      <trkpt lat="43.24478" lon="0.89517">
        <ele>305</ele>
        <time>2019-02-17T10:26:00.000Z</time>
      </trkpt>
      <trkpt lat="43.24477" lon="0.89519">
        <ele>305</ele>
        <time>2019-02-17T10:26:02.000Z</time>
      </trkpt>
      <trkpt lat="43.24477" lon="0.89522">
        <ele>305</ele>
        <time>2019-02-17T10:26:04.000Z</time>
      </trkpt>
      <trkpt lat="43.24476" lon="0.89524">
        <ele>305</ele>
        <time>2019-02-17T10:26:06.000Z</time>
      </trkpt>
      <trkpt lat="43.24476" lon="0.89527">
        <ele>305</ele>
        <time>2019-02-17T10:26:08.000Z</time>
      </trkpt>
      <trkpt lat="43.24475" lon="0.89529">
        <ele>305</ele>
        <time>2019-02-17T10:26:10.000Z</time>
      </trkpt>
      <trkpt lat="43.24474" lon="0.89531">
        <ele>305</ele>
        <time>2019-02-17T10:26:12.000Z</time>
      </trkpt>
      <trkpt lat="43.24474" lon="0.89533">
        <ele>305</ele>
        <time>2019-02-17T10:26:14.000Z</time>
      </trkpt>
      <trkpt lat="43.24473" lon="0.89536">
        <ele>305</ele>
        <time>2019-02-17T10:26:16.000Z</time>
      </trkpt>
      <trkpt lat="43.24472" lon="0.89539">
        <ele>304</ele>
        <time>2019-02-17T10:26:18.000Z</time>
      </trkpt>
      <trkpt lat="43.24472" lon="0.89541">
        <ele>304</ele>
        <time>2019-02-17T10:26:20.000Z</time>
      </trkpt>
      <trkpt lat="43.24471" lon="0.89544">
        <ele>304</ele>
        <time>2019-02-17T10:26:22.000Z</time>
      </trkpt>
      <trkpt lat="43.24471" lon="0.89547">
        <ele>304</ele>
        <time>2019-02-17T10:26:24.000Z</time>
      </trkpt>
      <trkpt lat="43.2447" lon="0.8955">
        <ele>304</ele>
        <time>2019-02-17T10:26:26.000Z</time>
      </trkpt>
      <trkpt lat="43.2447" lon="0.89552">
        <ele>303</ele>
        <time>2019-02-17T10:26:28.000Z</time>
      </trkpt>
      <trkpt lat="43.2447" lon="0.89555">
        <ele>303</ele>
        <time>2019-02-17T10:26:30.000Z</time>
      </trkpt>
      <trkpt lat="43.24468" lon="0.89557">
        <ele>303</ele>
        <time>2019-02-17T10:26:32.000Z</time>
      </trkpt>
      <trkpt lat="43.24468" lon="0.89559">
        <ele>304</ele>
        <time>2019-02-17T10:26:34.000Z</time>
      </trkpt>
      <trkpt lat="43.24467" lon="0.89562">
        <ele>304</ele>
        <time>2019-02-17T10:26:36.000Z</time>
      </trkpt>
      <trkpt lat="43.24466" lon="0.89565">
        <ele>304</ele>
        <time>2019-02-17T10:26:38.000Z</time>
      </trkpt>
      <trkpt lat="43.24465" lon="0.89567">
        <ele>304</ele>
        <time>2019-02-17T10:26:40.000Z</time>
      </trkpt>
      <trkpt lat="43.24464" lon="0.8957">
        <ele>305</ele>
        <time>2019-02-17T10:26:42.000Z</time>
      </trkpt>
      <trkpt lat="43.24463" lon="0.89572">
        <ele>305</ele>
        <time>2019-02-17T10:26:44.000Z</time>
      </trkpt>
      <trkpt lat="43.24461" lon="0.89575">
        <ele>305</ele>
        <time>2019-02-17T10:26:46.000Z</time>
      </trkpt>
      <trkpt lat="43.24461" lon="0.89578">
        <ele>305</ele>
        <time>2019-02-17T10:26:48.000Z</time>
      </trkpt>
      <trkpt lat="43.24461" lon="0.89581">
        <ele>305</ele>
        <time>2019-02-17T10:26:50.000Z</time>
      </trkpt>
      <trkpt lat="43.24461" lon="0.89583">
        <ele>305</ele>
        <time>2019-02-17T10:26:52.000Z</time>
      </trkpt>
      <trkpt lat="43.2446" lon="0.89585">
        <ele>305</ele>
        <time>2019-02-17T10:26:54.000Z</time>
      </trkpt>
      <trkpt lat="43.2446" lon="0.89588">
        <ele>306</ele>
        <time>2019-02-17T10:26:56.000Z</time>
      </trkpt>
      <trkpt lat="43.24459" lon="0.89591">
        <ele>306</ele>
        <time>2019-02-17T10:26:58.000Z</time>
      </trkpt>
      <trkpt lat="43.24458" lon="0.89593">
        <ele>305</ele>
        <time>2019-02-17T10:27:00.000Z</time>
      </trkpt>
      <trkpt lat="43.24457" lon="0.89596">
        <ele>305</ele>
        <time>2019-02-17T10:27:02.000Z</time>
      </trkpt>
      <trkpt lat="43.24457" lon="0.89598">
        <ele>305</ele>
        <time>2019-02-17T10:27:04.000Z</time>
      </trkpt>
      <trkpt lat="43.24456" lon="0.89601">
        <ele>305</ele>
        <time>2019-02-17T10:27:06.000Z</time>
      </trkpt>
      <trkpt lat="43.24455" lon="0.89604">
        <ele>305</ele>
        <time>2019-02-17T10:27:08.000Z</time>
      </trkpt>
      <trkpt lat="43.24455" lon="0.89606">
        <ele>305</ele>
        <time>2019-02-17T10:27:10.000Z</time>
      </trkpt>
      <trkpt lat="43.24455" lon="0.89609">
        <ele>305</ele>
        <time>2019-02-17T10:27:12.000Z</time>
      </trkpt>
      <trkpt lat="43.24455" lon="0.89612">
        <ele>305</ele>
        <time>2019-02-17T10:27:14.000Z</time>
      </trkpt>
      <trkpt lat="43.24455" lon="0.89615">
        <ele>304</ele>
        <time>2019-02-17T10:27:16.000Z</time>
      </trkpt>
      <trkpt lat="43.24455" lon="0.89617">
        <ele>304</ele>
        <time>2019-02-17T10:27:18.000Z</time>
      </trkpt>
      <trkpt lat="43.24454" lon="0.89619">
        <ele>304</ele>
        <time>2019-02-17T10:27:20.000Z</time>
      </trkpt>
      <trkpt lat="43.24453" lon="0.89622">
        <ele>304</ele>
        <time>2019-02-17T10:27:22.000Z</time>
      </trkpt>
      <trkpt lat="43.24452" lon="0.89624">
        <ele>304</ele>
        <time>2019-02-17T10:27:24.000Z</time>
      </trkpt>
      <trkpt lat="43.24452" lon="0.89627">
        <ele>304</ele>
        <time>2019-02-17T10:27:26.000Z</time>
      </trkpt>
      <trkpt lat="43.2445" lon="0.8963">
        <ele>304</ele>
        <time>2019-02-17T10:27:28.000Z</time>
      </trkpt>
      <trkpt lat="43.24449" lon="0.89632">
        <ele>304</ele>
        <time>2019-02-17T10:27:30.000Z</time>
      </trkpt>
      <trkpt lat="43.24449" lon="0.89635">
        <ele>304</ele>
        <time>2019-02-17T10:27:32.000Z</time>
      </trkpt>
      <trkpt lat="43.24447" lon="0.89638">
        <ele>304</ele>
        <time>2019-02-17T10:27:34.000Z</time>
      </trkpt>
      <trkpt lat="43.24446" lon="0.8964">
        <ele>304</ele>
        <time>2019-02-17T10:27:36.000Z</time>
      </trkpt>
      <trkpt lat="43.24445" lon="0.89642">
        <ele>305</ele>
        <time>2019-02-17T10:27:38.000Z</time>
      </trkpt>
      <trkpt lat="43.24445" lon="0.89644">
        <ele>305</ele>
        <time>2019-02-17T10:27:40.000Z</time>
      </trkpt>
      <trkpt lat="43.24445" lon="0.89647">
        <ele>305</ele>
        <time>2019-02-17T10:27:42.000Z</time>
      </trkpt>
      <trkpt lat="43.24445" lon="0.89649">
        <ele>305</ele>
        <time>2019-02-17T10:27:44.000Z</time>
      </trkpt>
      <trkpt lat="43.24444" lon="0.89651">
        <ele>305</ele>
        <time>2019-02-17T10:27:46.000Z</time>
      </trkpt>
      <trkpt lat="43.24443" lon="0.89654">
        <ele>305</ele>
        <time>2019-02-17T10:27:48.000Z</time>
      </trkpt>
      <trkpt lat="43.24443" lon="0.89656">
        <ele>305</ele>
        <time>2019-02-17T10:27:50.000Z</time>
      </trkpt>
      <trkpt lat="43.24441" lon="0.89659">
        <ele>305</ele>
        <time>2019-02-17T10:27:52.000Z</time>
      </trkpt>
      <trkpt lat="43.24441" lon="0.89662">
        <ele>304</ele>
        <time>2019-02-17T10:27:54.000Z</time>
      </trkpt>
      <trkpt lat="43.2444" lon="0.89664">
        <ele>304</ele>
        <time>2019-02-17T10:27:56.000Z</time>
      </trkpt>
      <trkpt lat="43.2444" lon="0.89665">
        <ele>304</ele>
        <time>2019-02-17T10:27:58.000Z</time>
      </trkpt>
      <trkpt lat="43.24439" lon="0.89668">
        <ele>304</ele>
        <time>2019-02-17T10:28:00.000Z</time>
      </trkpt>
      <trkpt lat="43.2444" lon="0.8967">
        <ele>303</ele>
        <time>2019-02-17T10:28:02.000Z</time>
      </trkpt>
      <trkpt lat="43.24439" lon="0.89673">
        <ele>303</ele>
        <time>2019-02-17T10:28:04.000Z</time>
      </trkpt>
      <trkpt lat="43.24439" lon="0.89675">
        <ele>303</ele>
        <time>2019-02-17T10:28:06.000Z</time>
      </trkpt>
      <trkpt lat="43.2444" lon="0.89679">
        <ele>302</ele>
        <time>2019-02-17T10:28:08.000Z</time>
      </trkpt>
      <trkpt lat="43.24439" lon="0.89682">
        <ele>302</ele>
        <time>2019-02-17T10:28:10.000Z</time>
      </trkpt>
      <trkpt lat="43.24439" lon="0.89686">
        <ele>302</ele>
        <time>2019-02-17T10:28:12.000Z</time>
      </trkpt>
      <trkpt lat="43.24439" lon="0.89689">
        <ele>301</ele>
        <time>2019-02-17T10:28:14.000Z</time>
      </trkpt>
      <trkpt lat="43.24439" lon="0.89692">
        <ele>301</ele>
        <time>2019-02-17T10:28:16.000Z</time>
      </trkpt>
      <trkpt lat="43.24438" lon="0.89695">
        <ele>301</ele>
        <time>2019-02-17T10:28:18.000Z</time>
      </trkpt>
      <trkpt lat="43.24437" lon="0.89697">
        <ele>301</ele>
        <time>2019-02-17T10:28:20.000Z</time>
      </trkpt>
      <trkpt lat="43.24436" lon="0.897">
        <ele>301</ele>
        <time>2019-02-17T10:28:22.000Z</time>
      </trkpt>
      <trkpt lat="43.24436" lon="0.89702">
        <ele>300</ele>
        <time>2019-02-17T10:28:24.000Z</time>
      </trkpt>
      <trkpt lat="43.24436" lon="0.89704">
        <ele>300</ele>
        <time>2019-02-17T10:28:26.000Z</time>
      </trkpt>
      <trkpt lat="43.24435" lon="0.89706">
        <ele>300</ele>
        <time>2019-02-17T10:28:28.000Z</time>
      </trkpt>
      <trkpt lat="43.24435" lon="0.89709">
        <ele>300</ele>
        <time>2019-02-17T10:28:30.000Z</time>
      </trkpt>
      <trkpt lat="43.24434" lon="0.89711">
        <ele>300</ele>
        <time>2019-02-17T10:28:32.000Z</time>
      </trkpt>
      <trkpt lat="43.24433" lon="0.89714">
        <ele>299</ele>
        <time>2019-02-17T10:28:34.000Z</time>
      </trkpt>
      <trkpt lat="43.24433" lon="0.89716">
        <ele>299</ele>
        <time>2019-02-17T10:28:36.000Z</time>
      </trkpt>
      <trkpt lat="43.24432" lon="0.89719">
        <ele>299</ele>
        <time>2019-02-17T10:28:38.000Z</time>
      </trkpt>
      <trkpt lat="43.24432" lon="0.89722">
        <ele>299</ele>
        <time>2019-02-17T10:28:40.000Z</time>
      </trkpt>
      <trkpt lat="43.24432" lon="0.89725">
        <ele>299</ele>
        <time>2019-02-17T10:28:42.000Z</time>
      </trkpt>
      <trkpt lat="43.24432" lon="0.89728">
        <ele>298</ele>
        <time>2019-02-17T10:28:44.000Z</time>
      </trkpt>
      <trkpt lat="43.24432" lon="0.8973">
        <ele>298</ele>
        <time>2019-02-17T10:28:46.000Z</time>
      </trkpt>
      <trkpt lat="43.24432" lon="0.89733">
        <ele>298</ele>
        <time>2019-02-17T10:28:48.000Z</time>
      </trkpt>
      <trkpt lat="43.24432" lon="0.89736">
        <ele>298</ele>
        <time>2019-02-17T10:28:50.000Z</time>
      </trkpt>
      <trkpt lat="43.24432" lon="0.89739">
        <ele>298</ele>
        <time>2019-02-17T10:28:52.000Z</time>
      </trkpt>
      <trkpt lat="43.24432" lon="0.89742">
        <ele>298</ele>
        <time>2019-02-17T10:28:54.000Z</time>
      </trkpt>
      <trkpt lat="43.24433" lon="0.89744">
        <ele>298</ele>
        <time>2019-02-17T10:28:56.000Z</time>
      </trkpt>
      <trkpt lat="43.24433" lon="0.89747">
        <ele>297</ele>
        <time>2019-02-17T10:28:58.000Z</time>
      </trkpt>
      <trkpt lat="43.24432" lon="0.89749">
        <ele>297</ele>
        <time>2019-02-17T10:29:00.000Z</time>
      </trkpt>
      <trkpt lat="43.24431" lon="0.89751">
        <ele>297</ele>
        <time>2019-02-17T10:29:02.000Z</time>
      </trkpt>
      <trkpt lat="43.2443" lon="0.89753">
        <ele>297</ele>
        <time>2019-02-17T10:29:04.000Z</time>
      </trkpt>
      <trkpt lat="43.24428" lon="0.89756">
        <ele>298</ele>
        <time>2019-02-17T10:29:06.000Z</time>
      </trkpt>
      <trkpt lat="43.24428" lon="0.89759">
        <ele>298</ele>
        <time>2019-02-17T10:29:08.000Z</time>
      </trkpt>
      <trkpt lat="43.24427" lon="0.89762">
        <ele>298</ele>
        <time>2019-02-17T10:29:10.000Z</time>
      </trkpt>
      <trkpt lat="43.24427" lon="0.89765">
        <ele>298</ele>
        <time>2019-02-17T10:29:12.000Z</time>
      </trkpt>
      <trkpt lat="43.24426" lon="0.89767">
        <ele>298</ele>
        <time>2019-02-17T10:29:14.000Z</time>
      </trkpt>
      <trkpt lat="43.24427" lon="0.89769">
        <ele>298</ele>
        <time>2019-02-17T10:29:16.000Z</time>
      </trkpt>
      <trkpt lat="43.24427" lon="0.89771">
        <ele>298</ele>
        <time>2019-02-17T10:29:18.000Z</time>
      </trkpt>
      <trkpt lat="43.24425" lon="0.89773">
        <ele>298</ele>
        <time>2019-02-17T10:29:20.000Z</time>
      </trkpt>
      <trkpt lat="43.24424" lon="0.89776">
        <ele>299</ele>
        <time>2019-02-17T10:29:22.000Z</time>
      </trkpt>
      <trkpt lat="43.24422" lon="0.89778">
        <ele>299</ele>
        <time>2019-02-17T10:29:24.000Z</time>
      </trkpt>
      <trkpt lat="43.24422" lon="0.8978">
        <ele>299</ele>
        <time>2019-02-17T10:29:26.000Z</time>
      </trkpt>
      <trkpt lat="43.24421" lon="0.89783">
        <ele>300</ele>
        <time>2019-02-17T10:29:28.000Z</time>
      </trkpt>
      <trkpt lat="43.24421" lon="0.89786">
        <ele>300</ele>
        <time>2019-02-17T10:29:30.000Z</time>
      </trkpt>
      <trkpt lat="43.24421" lon="0.89789">
        <ele>299</ele>
        <time>2019-02-17T10:29:32.000Z</time>
      </trkpt>
      <trkpt lat="43.24421" lon="0.89793">
        <ele>299</ele>
        <time>2019-02-17T10:29:34.000Z</time>
      </trkpt>
      <trkpt lat="43.2442" lon="0.89795">
        <ele>299</ele>
        <time>2019-02-17T10:29:36.000Z</time>
      </trkpt>
      <trkpt lat="43.24419" lon="0.89797">
        <ele>300</ele>
        <time>2019-02-17T10:29:38.000Z</time>
      </trkpt>
      <trkpt lat="43.24418" lon="0.898">
        <ele>300</ele>
        <time>2019-02-17T10:29:40.000Z</time>
      </trkpt>
      <trkpt lat="43.24417" lon="0.89802">
        <ele>300</ele>
        <time>2019-02-17T10:29:42.000Z</time>
      </trkpt>
      <trkpt lat="43.24417" lon="0.89805">
        <ele>300</ele>
        <time>2019-02-17T10:29:44.000Z</time>
      </trkpt>
      <trkpt lat="43.24417" lon="0.89808">
        <ele>300</ele>
        <time>2019-02-17T10:29:46.000Z</time>
      </trkpt>
      <trkpt lat="43.24416" lon="0.8981">
        <ele>301</ele>
        <time>2019-02-17T10:29:48.000Z</time>
      </trkpt>
      <trkpt lat="43.24416" lon="0.89812">
        <ele>300</ele>
        <time>2019-02-17T10:29:50.000Z</time>
      </trkpt>
      <trkpt lat="43.24416" lon="0.89814">
        <ele>300</ele>
        <time>2019-02-17T10:29:52.000Z</time>
      </trkpt>
      <trkpt lat="43.24415" lon="0.89817">
        <ele>301</ele>
        <time>2019-02-17T10:29:54.000Z</time>
      </trkpt>
      <trkpt lat="43.24415" lon="0.89819">
        <ele>301</ele>
        <time>2019-02-17T10:29:56.000Z</time>
      </trkpt>
      <trkpt lat="43.24414" lon="0.89821">
        <ele>301</ele>
        <time>2019-02-17T10:29:58.000Z</time>
      </trkpt>
      <trkpt lat="43.24413" lon="0.89822">
        <ele>301</ele>
        <time>2019-02-17T10:30:00.000Z</time>
      </trkpt>
      <trkpt lat="43.24414" lon="0.89824">
        <ele>301</ele>
        <time>2019-02-17T10:30:02.000Z</time>
      </trkpt>
      <trkpt lat="43.24413" lon="0.89825">
        <ele>301</ele>
        <time>2019-02-17T10:30:04.000Z</time>
      </trkpt>
      <trkpt lat="43.24413" lon="0.89827">
        <ele>301</ele>
        <time>2019-02-17T10:30:06.000Z</time>
      </trkpt>
      <trkpt lat="43.24412" lon="0.89829">
        <ele>302</ele>
        <time>2019-02-17T10:30:08.000Z</time>
      </trkpt>
      <trkpt lat="43.24412" lon="0.89832">
        <ele>301</ele>
        <time>2019-02-17T10:30:10.000Z</time>
      </trkpt>
      <trkpt lat="43.24412" lon="0.89834">
        <ele>301</ele>
        <time>2019-02-17T10:30:12.000Z</time>
      </trkpt>
      <trkpt lat="43.24412" lon="0.89837">
        <ele>301</ele>
        <time>2019-02-17T10:30:14.000Z</time>
      </trkpt>
      <trkpt lat="43.24411" lon="0.89839">
        <ele>302</ele>
        <time>2019-02-17T10:30:16.000Z</time>
      </trkpt>
      <trkpt lat="43.24411" lon="0.89842">
        <ele>301</ele>
        <time>2019-02-17T10:30:18.000Z</time>
      </trkpt>
      <trkpt lat="43.24412" lon="0.89845">
        <ele>301</ele>
        <time>2019-02-17T10:30:20.000Z</time>
      </trkpt>
      <trkpt lat="43.24412" lon="0.89847">
        <ele>301</ele>
        <time>2019-02-17T10:30:22.000Z</time>
      </trkpt>
      <trkpt lat="43.24412" lon="0.89849">
        <ele>301</ele>
        <time>2019-02-17T10:30:24.000Z</time>
      </trkpt>
      <trkpt lat="43.24412" lon="0.89852">
        <ele>301</ele>
        <time>2019-02-17T10:30:26.000Z</time>
      </trkpt>
      <trkpt lat="43.24411" lon="0.89854">
        <ele>301</ele>
        <time>2019-02-17T10:30:28.000Z</time>
      </trkpt>
      <trkpt lat="43.2441" lon="0.89856">
        <ele>302</ele>
        <time>2019-02-17T10:30:30.000Z</time>
      </trkpt>
      <trkpt lat="43.24409" lon="0.89859">
        <ele>302</ele>
        <time>2019-02-17T10:30:32.000Z</time>
      </trkpt>
      <trkpt lat="43.24408" lon="0.89861">
        <ele>302</ele>
        <time>2019-02-17T10:30:34.000Z</time>
      </trkpt>
      <trkpt lat="43.24409" lon="0.89863">
        <ele>302</ele>
        <time>2019-02-17T10:30:36.000Z</time>
      </trkpt>
      <trkpt lat="43.24408" lon="0.89865">
        <ele>302</ele>
        <time>2019-02-17T10:30:38.000Z</time>
      </trkpt>
      <trkpt lat="43.24407" lon="0.89868">
        <ele>302</ele>
        <time>2019-02-17T10:30:40.000Z</time>
      </trkpt>
      <trkpt lat="43.24407" lon="0.89871">
        <ele>302</ele>
        <time>2019-02-17T10:30:42.000Z</time>
      </trkpt>
      <trkpt lat="43.24407" lon="0.89873">
        <ele>302</ele>
        <time>2019-02-17T10:30:44.000Z</time>
      </trkpt>
      <trkpt lat="43.24407" lon="0.89875">
        <ele>302</ele>
        <time>2019-02-17T10:30:46.000Z</time>
      </trkpt>
      <trkpt lat="43.24406" lon="0.89878">
        <ele>302</ele>
        <time>2019-02-17T10:30:48.000Z</time>
      </trkpt>
      <trkpt lat="43.24406" lon="0.89881">
        <ele>302</ele>
        <time>2019-02-17T10:30:50.000Z</time>
      </trkpt>
      <trkpt lat="43.24406" lon="0.89884">
        <ele>301</ele>
        <time>2019-02-17T10:30:52.000Z</time>
      </trkpt>
      <trkpt lat="43.24406" lon="0.89888">
        <ele>301</ele>
        <time>2019-02-17T10:30:54.000Z</time>
      </trkpt>
      <trkpt lat="43.24405" lon="0.89891">
        <ele>301</ele>
        <time>2019-02-17T10:30:56.000Z</time>
      </trkpt>
      <trkpt lat="43.24405" lon="0.89894">
        <ele>302</ele>
        <time>2019-02-17T10:30:58.000Z</time>
      </trkpt>
      <trkpt lat="43.24404" lon="0.89896">
        <ele>302</ele>
        <time>2019-02-17T10:31:00.000Z</time>
      </trkpt>
      <trkpt lat="43.24403" lon="0.89899">
        <ele>302</ele>
        <time>2019-02-17T10:31:02.000Z</time>
      </trkpt>
      <trkpt lat="43.24403" lon="0.89902">
        <ele>302</ele>
        <time>2019-02-17T10:31:04.000Z</time>
      </trkpt>
      <trkpt lat="43.24403" lon="0.89905">
        <ele>302</ele>
        <time>2019-02-17T10:31:06.000Z</time>
      </trkpt>
      <trkpt lat="43.24402" lon="0.89908">
        <ele>302</ele>
        <time>2019-02-17T10:31:08.000Z</time>
      </trkpt>
      <trkpt lat="43.24402" lon="0.89911">
        <ele>302</ele>
        <time>2019-02-17T10:31:10.000Z</time>
      </trkpt>
      <trkpt lat="43.24402" lon="0.89913">
        <ele>302</ele>
        <time>2019-02-17T10:31:12.000Z</time>
      </trkpt>
      <trkpt lat="43.24402" lon="0.89916">
        <ele>302</ele>
        <time>2019-02-17T10:31:14.000Z</time>
      </trkpt>
      <trkpt lat="43.24401" lon="0.89919">
        <ele>302</ele>
        <time>2019-02-17T10:31:16.000Z</time>
      </trkpt>
      <trkpt lat="43.244" lon="0.89921">
        <ele>302</ele>
        <time>2019-02-17T10:31:18.000Z</time>
      </trkpt>
      <trkpt lat="43.244" lon="0.89924">
        <ele>302</ele>
        <time>2019-02-17T10:31:20.000Z</time>
      </trkpt>
      <trkpt lat="43.24399" lon="0.89926">
        <ele>303</ele>
        <time>2019-02-17T10:31:22.000Z</time>
      </trkpt>
      <trkpt lat="43.24399" lon="0.89929">
        <ele>303</ele>
        <time>2019-02-17T10:31:24.000Z</time>
      </trkpt>
      <trkpt lat="43.24398" lon="0.89932">
        <ele>303</ele>
        <time>2019-02-17T10:31:26.000Z</time>
      </trkpt>
      <trkpt lat="43.24398" lon="0.89935">
        <ele>303</ele>
        <time>2019-02-17T10:31:28.000Z</time>
      </trkpt>
      <trkpt lat="43.24397" lon="0.89937">
        <ele>303</ele>
        <time>2019-02-17T10:31:30.000Z</time>
      </trkpt>
      <trkpt lat="43.24397" lon="0.8994">
        <ele>303</ele>
        <time>2019-02-17T10:31:32.000Z</time>
      </trkpt>
      <trkpt lat="43.24396" lon="0.89943">
        <ele>303</ele>
        <time>2019-02-17T10:31:34.000Z</time>
      </trkpt>
      <trkpt lat="43.24395" lon="0.89945">
        <ele>303</ele>
        <time>2019-02-17T10:31:36.000Z</time>
      </trkpt>
      <trkpt lat="43.24395" lon="0.89948">
        <ele>303</ele>
        <time>2019-02-17T10:31:38.000Z</time>
      </trkpt>
      <trkpt lat="43.24394" lon="0.8995">
        <ele>303</ele>
        <time>2019-02-17T10:31:40.000Z</time>
      </trkpt>
      <trkpt lat="43.24394" lon="0.89952">
        <ele>302</ele>
        <time>2019-02-17T10:31:42.000Z</time>
      </trkpt>
      <trkpt lat="43.24394" lon="0.89955">
        <ele>302</ele>
        <time>2019-02-17T10:31:44.000Z</time>
      </trkpt>
      <trkpt lat="43.24394" lon="0.89957">
        <ele>302</ele>
        <time>2019-02-17T10:31:46.000Z</time>
      </trkpt>
      <trkpt lat="43.24394" lon="0.8996">
        <ele>301</ele>
        <time>2019-02-17T10:31:48.000Z</time>
      </trkpt>
      <trkpt lat="43.24394" lon="0.89963">
        <ele>301</ele>
        <time>2019-02-17T10:31:50.000Z</time>
      </trkpt>
      <trkpt lat="43.24394" lon="0.89966">
        <ele>300</ele>
        <time>2019-02-17T10:31:52.000Z</time>
      </trkpt>
      <trkpt lat="43.24395" lon="0.89968">
        <ele>300</ele>
        <time>2019-02-17T10:31:54.000Z</time>
      </trkpt>
      <trkpt lat="43.24394" lon="0.89971">
        <ele>300</ele>
        <time>2019-02-17T10:31:56.000Z</time>
      </trkpt>
      <trkpt lat="43.24394" lon="0.89973">
        <ele>300</ele>
        <time>2019-02-17T10:31:58.000Z</time>
      </trkpt>
      <trkpt lat="43.24394" lon="0.89975">
        <ele>299</ele>
        <time>2019-02-17T10:32:00.000Z</time>
      </trkpt>
      <trkpt lat="43.24395" lon="0.89979">
        <ele>299</ele>
        <time>2019-02-17T10:32:02.000Z</time>
      </trkpt>
      <trkpt lat="43.24395" lon="0.89981">
        <ele>299</ele>
        <time>2019-02-17T10:32:04.000Z</time>
      </trkpt>
      <trkpt lat="43.24394" lon="0.89984">
        <ele>299</ele>
        <time>2019-02-17T10:32:06.000Z</time>
      </trkpt>
      <trkpt lat="43.24394" lon="0.89986">
        <ele>299</ele>
        <time>2019-02-17T10:32:08.000Z</time>
      </trkpt>
      <trkpt lat="43.24393" lon="0.89989">
        <ele>299</ele>
        <time>2019-02-17T10:32:10.000Z</time>
      </trkpt>
      <trkpt lat="43.24393" lon="0.89991">
        <ele>300</ele>
        <time>2019-02-17T10:32:12.000Z</time>
      </trkpt>
      <trkpt lat="43.24392" lon="0.89994">
        <ele>300</ele>
        <time>2019-02-17T10:32:14.000Z</time>
      </trkpt>
      <trkpt lat="43.24391" lon="0.89997">
        <ele>300</ele>
        <time>2019-02-17T10:32:16.000Z</time>
      </trkpt>
      <trkpt lat="43.24391" lon="0.9">
        <ele>300</ele>
        <time>2019-02-17T10:32:18.000Z</time>
      </trkpt>
      <trkpt lat="43.24389" lon="0.90003">
        <ele>300</ele>
        <time>2019-02-17T10:32:20.000Z</time>
      </trkpt>
      <trkpt lat="43.24389" lon="0.90006">
        <ele>300</ele>
        <time>2019-02-17T10:32:22.000Z</time>
      </trkpt>
      <trkpt lat="43.24388" lon="0.90009">
        <ele>301</ele>
        <time>2019-02-17T10:32:24.000Z</time>
      </trkpt>
      <trkpt lat="43.24387" lon="0.90011">
        <ele>301</ele>
        <time>2019-02-17T10:32:26.000Z</time>
      </trkpt>
      <trkpt lat="43.24385" lon="0.90013">
        <ele>301</ele>
        <time>2019-02-17T10:32:28.000Z</time>
      </trkpt>
      <trkpt lat="43.24384" lon="0.90016">
        <ele>302</ele>
        <time>2019-02-17T10:32:30.000Z</time>
      </trkpt>
      <trkpt lat="43.24383" lon="0.90017">
        <ele>302</ele>
        <time>2019-02-17T10:32:32.000Z</time>
      </trkpt>
      <trkpt lat="43.24383" lon="0.9002">
        <ele>302</ele>
        <time>2019-02-17T10:32:34.000Z</time>
      </trkpt>
      <trkpt lat="43.24382" lon="0.90023">
        <ele>302</ele>
        <time>2019-02-17T10:32:36.000Z</time>
      </trkpt>
      <trkpt lat="43.24381" lon="0.90024">
        <ele>302</ele>
        <time>2019-02-17T10:32:38.000Z</time>
      </trkpt>
      <trkpt lat="43.24379" lon="0.90027">
        <ele>303</ele>
        <time>2019-02-17T10:32:40.000Z</time>
      </trkpt>
      <trkpt lat="43.24378" lon="0.90029">
        <ele>303</ele>
        <time>2019-02-17T10:32:42.000Z</time>
      </trkpt>
      <trkpt lat="43.24377" lon="0.90032">
        <ele>303</ele>
        <time>2019-02-17T10:32:44.000Z</time>
      </trkpt>
      <trkpt lat="43.24376" lon="0.90034">
        <ele>304</ele>
        <time>2019-02-17T10:32:46.000Z</time>
      </trkpt>
      <trkpt lat="43.24375" lon="0.90036">
        <ele>304</ele>
        <time>2019-02-17T10:32:48.000Z</time>
      </trkpt>
      <trkpt lat="43.24375" lon="0.90038">
        <ele>304</ele>
        <time>2019-02-17T10:32:50.000Z</time>
      </trkpt>
      <trkpt lat="43.24376" lon="0.90042">
        <ele>304</ele>
        <time>2019-02-17T10:32:52.000Z</time>
      </trkpt>
      <trkpt lat="43.24376" lon="0.90045">
        <ele>304</ele>
        <time>2019-02-17T10:32:54.000Z</time>
      </trkpt>
      <trkpt lat="43.24376" lon="0.90047">
        <ele>304</ele>
        <time>2019-02-17T10:32:56.000Z</time>
      </trkpt>
      <trkpt lat="43.24376" lon="0.90049">
        <ele>304</ele>
        <time>2019-02-17T10:32:58.000Z</time>
      </trkpt>
      <trkpt lat="43.24376" lon="0.90051">
        <ele>304</ele>
        <time>2019-02-17T10:33:00.000Z</time>
      </trkpt>
      <trkpt lat="43.24375" lon="0.90054">
        <ele>304</ele>
        <time>2019-02-17T10:33:02.000Z</time>
      </trkpt>
      <trkpt lat="43.24375" lon="0.90056">
        <ele>304</ele>
        <time>2019-02-17T10:33:04.000Z</time>
      </trkpt>
      <trkpt lat="43.24375" lon="0.90058">
        <ele>304</ele>
        <time>2019-02-17T10:33:06.000Z</time>
      </trkpt>
      <trkpt lat="43.24375" lon="0.90061">
        <ele>304</ele>
        <time>2019-02-17T10:33:08.000Z</time>
      </trkpt>
      <trkpt lat="43.24375" lon="0.90063">
        <ele>304</ele>
        <time>2019-02-17T10:33:10.000Z</time>
      </trkpt>
      <trkpt lat="43.24375" lon="0.90066">
        <ele>304</ele>
        <time>2019-02-17T10:33:12.000Z</time>
      </trkpt>
      <trkpt lat="43.24374" lon="0.90067">
        <ele>304</ele>
        <time>2019-02-17T10:33:14.000Z</time>
      </trkpt>
      <trkpt lat="43.24374" lon="0.90071">
        <ele>304</ele>
        <time>2019-02-17T10:33:16.000Z</time>
      </trkpt>
      <trkpt lat="43.24373" lon="0.90073">
        <ele>304</ele>
        <time>2019-02-17T10:33:18.000Z</time>
      </trkpt>
      <trkpt lat="43.24373" lon="0.90076">
        <ele>305</ele>
        <time>2019-02-17T10:33:20.000Z</time>
      </trkpt>
      <trkpt lat="43.24373" lon="0.9008">
        <ele>305</ele>
        <time>2019-02-17T10:33:22.000Z</time>
      </trkpt>
      <trkpt lat="43.24372" lon="0.90082">
        <ele>305</ele>
        <time>2019-02-17T10:33:24.000Z</time>
      </trkpt>
      <trkpt lat="43.24372" lon="0.90084">
        <ele>305</ele>
        <time>2019-02-17T10:33:26.000Z</time>
      </trkpt>
      <trkpt lat="43.24371" lon="0.90087">
        <ele>305</ele>
        <time>2019-02-17T10:33:28.000Z</time>
      </trkpt>
      <trkpt lat="43.24371" lon="0.90089">
        <ele>305</ele>
        <time>2019-02-17T10:33:30.000Z</time>
      </trkpt>
      <trkpt lat="43.2437" lon="0.90091">
        <ele>305</ele>
        <time>2019-02-17T10:33:32.000Z</time>
      </trkpt>
      <trkpt lat="43.24369" lon="0.90093">
        <ele>305</ele>
        <time>2019-02-17T10:33:34.000Z</time>
      </trkpt>
      <trkpt lat="43.24368" lon="0.90096">
        <ele>305</ele>
        <time>2019-02-17T10:33:36.000Z</time>
      </trkpt>
      <trkpt lat="43.24367" lon="0.90098">
        <ele>305</ele>
        <time>2019-02-17T10:33:38.000Z</time>
      </trkpt>
      <trkpt lat="43.24366" lon="0.901">
        <ele>306</ele>
        <time>2019-02-17T10:33:40.000Z</time>
      </trkpt>
      <trkpt lat="43.24366" lon="0.90103">
        <ele>306</ele>
        <time>2019-02-17T10:33:42.000Z</time>
      </trkpt>
      <trkpt lat="43.24365" lon="0.90105">
        <ele>305</ele>
        <time>2019-02-17T10:33:44.000Z</time>
      </trkpt>
      <trkpt lat="43.24366" lon="0.90108">
        <ele>305</ele>
        <time>2019-02-17T10:33:46.000Z</time>
      </trkpt>
      <trkpt lat="43.24365" lon="0.9011">
        <ele>305</ele>
        <time>2019-02-17T10:33:48.000Z</time>
      </trkpt>
      <trkpt lat="43.24365" lon="0.90113">
        <ele>305</ele>
        <time>2019-02-17T10:33:50.000Z</time>
      </trkpt>
      <trkpt lat="43.24366" lon="0.90115">
        <ele>305</ele>
        <time>2019-02-17T10:33:52.000Z</time>
      </trkpt>
      <trkpt lat="43.24367" lon="0.90119">
        <ele>304</ele>
        <time>2019-02-17T10:33:54.000Z</time>
      </trkpt>
      <trkpt lat="43.24368" lon="0.90121">
        <ele>304</ele>
        <time>2019-02-17T10:33:56.000Z</time>
      </trkpt>
      <trkpt lat="43.24368" lon="0.90125">
        <ele>304</ele>
        <time>2019-02-17T10:33:58.000Z</time>
      </trkpt>
      <trkpt lat="43.24368" lon="0.90128">
        <ele>304</ele>
        <time>2019-02-17T10:34:00.000Z</time>
      </trkpt>
      <trkpt lat="43.24368" lon="0.90131">
        <ele>304</ele>
        <time>2019-02-17T10:34:02.000Z</time>
      </trkpt>
      <trkpt lat="43.24367" lon="0.90134">
        <ele>304</ele>
        <time>2019-02-17T10:34:04.000Z</time>
      </trkpt>
      <trkpt lat="43.24366" lon="0.90136">
        <ele>304</ele>
        <time>2019-02-17T10:34:06.000Z</time>
      </trkpt>
      <trkpt lat="43.24366" lon="0.9014">
        <ele>304</ele>
        <time>2019-02-17T10:34:08.000Z</time>
      </trkpt>
      <trkpt lat="43.24366" lon="0.90143">
        <ele>304</ele>
        <time>2019-02-17T10:34:10.000Z</time>
      </trkpt>
      <trkpt lat="43.24367" lon="0.90146">
        <ele>303</ele>
        <time>2019-02-17T10:34:12.000Z</time>
      </trkpt>
      <trkpt lat="43.24366" lon="0.90149">
        <ele>303</ele>
        <time>2019-02-17T10:34:14.000Z</time>
      </trkpt>
      <trkpt lat="43.24365" lon="0.90152">
        <ele>303</ele>
        <time>2019-02-17T10:34:16.000Z</time>
      </trkpt>
      <trkpt lat="43.24364" lon="0.90155">
        <ele>304</ele>
        <time>2019-02-17T10:34:18.000Z</time>
      </trkpt>
      <trkpt lat="43.24364" lon="0.90158">
        <ele>304</ele>
        <time>2019-02-17T10:34:20.000Z</time>
      </trkpt>
      <trkpt lat="43.24364" lon="0.9016">
        <ele>303</ele>
        <time>2019-02-17T10:34:22.000Z</time>
      </trkpt>
      <trkpt lat="43.24364" lon="0.90163">
        <ele>303</ele>
        <time>2019-02-17T10:34:24.000Z</time>
      </trkpt>
      <trkpt lat="43.24364" lon="0.90166">
        <ele>303</ele>
        <time>2019-02-17T10:34:26.000Z</time>
      </trkpt>
      <trkpt lat="43.24363" lon="0.90168">
        <ele>302</ele>
        <time>2019-02-17T10:34:28.000Z</time>
      </trkpt>
      <trkpt lat="43.24363" lon="0.90171">
        <ele>302</ele>
        <time>2019-02-17T10:34:30.000Z</time>
      </trkpt>
      <trkpt lat="43.24362" lon="0.90173">
        <ele>302</ele>
        <time>2019-02-17T10:34:32.000Z</time>
      </trkpt>
      <trkpt lat="43.24361" lon="0.90176">
        <ele>302</ele>
        <time>2019-02-17T10:34:34.000Z</time>
      </trkpt>
      <trkpt lat="43.2436" lon="0.90178">
        <ele>302</ele>
        <time>2019-02-17T10:34:36.000Z</time>
      </trkpt>
      <trkpt lat="43.2436" lon="0.90181">
        <ele>301</ele>
        <time>2019-02-17T10:34:38.000Z</time>
      </trkpt>
      <trkpt lat="43.24358" lon="0.90183">
        <ele>301</ele>
        <time>2019-02-17T10:34:40.000Z</time>
      </trkpt>
      <trkpt lat="43.24358" lon="0.90186">
        <ele>301</ele>
        <time>2019-02-17T10:34:42.000Z</time>
      </trkpt>
      <trkpt lat="43.24358" lon="0.90189">
        <ele>301</ele>
        <time>2019-02-17T10:34:44.000Z</time>
      </trkpt>
      <trkpt lat="43.24357" lon="0.90191">
        <ele>300</ele>
        <time>2019-02-17T10:34:46.000Z</time>
      </trkpt>
      <trkpt lat="43.24356" lon="0.90193">
        <ele>300</ele>
        <time>2019-02-17T10:34:48.000Z</time>
      </trkpt>
      <trkpt lat="43.24354" lon="0.90196">
        <ele>300</ele>
        <time>2019-02-17T10:34:50.000Z</time>
      </trkpt>
      <trkpt lat="43.24354" lon="0.90198">
        <ele>300</ele>
        <time>2019-02-17T10:34:52.000Z</time>
      </trkpt>
      <trkpt lat="43.24354" lon="0.90201">
        <ele>300</ele>
        <time>2019-02-17T10:34:54.000Z</time>
      </trkpt>
      <trkpt lat="43.24353" lon="0.90204">
        <ele>299</ele>
        <time>2019-02-17T10:34:56.000Z</time>
      </trkpt>
      <trkpt lat="43.24353" lon="0.90206">
        <ele>299</ele>
        <time>2019-02-17T10:34:58.000Z</time>
      </trkpt>
      <trkpt lat="43.24353" lon="0.90208">
        <ele>299</ele>
        <time>2019-02-17T10:35:00.000Z</time>
      </trkpt>
      <trkpt lat="43.24352" lon="0.90211">
        <ele>299</ele>
        <time>2019-02-17T10:35:02.000Z</time>
      </trkpt>
      <trkpt lat="43.24352" lon="0.90213">
        <ele>298</ele>
        <time>2019-02-17T10:35:04.000Z</time>
      </trkpt>
      <trkpt lat="43.24352" lon="0.90215">
        <ele>298</ele>
        <time>2019-02-17T10:35:06.000Z</time>
      </trkpt>
      <trkpt lat="43.24351" lon="0.90218">
        <ele>298</ele>
        <time>2019-02-17T10:35:08.000Z</time>
      </trkpt>
      <trkpt lat="43.24351" lon="0.9022">
        <ele>298</ele>
        <time>2019-02-17T10:35:10.000Z</time>
      </trkpt>
      <trkpt lat="43.24351" lon="0.90223">
        <ele>297</ele>
        <time>2019-02-17T10:35:12.000Z</time>
      </trkpt>
      <trkpt lat="43.2435" lon="0.90225">
        <ele>297</ele>
        <time>2019-02-17T10:35:14.000Z</time>
      </trkpt>
      <trkpt lat="43.24349" lon="0.90228">
        <ele>297</ele>
        <time>2019-02-17T10:35:16.000Z</time>
      </trkpt>
      <trkpt lat="43.24348" lon="0.9023">
        <ele>297</ele>
        <time>2019-02-17T10:35:18.000Z</time>
      </trkpt>
      <trkpt lat="43.24348" lon="0.90233">
        <ele>297</ele>
        <time>2019-02-17T10:35:20.000Z</time>
      </trkpt>
      <trkpt lat="43.24347" lon="0.90236">
        <ele>297</ele>
        <time>2019-02-17T10:35:22.000Z</time>
      </trkpt>
      <trkpt lat="43.24347" lon="0.90238">
        <ele>297</ele>
        <time>2019-02-17T10:35:24.000Z</time>
      </trkpt>
      <trkpt lat="43.24346" lon="0.9024">
        <ele>297</ele>
        <time>2019-02-17T10:35:26.000Z</time>
      </trkpt>
      <trkpt lat="43.24345" lon="0.90243">
        <ele>297</ele>
        <time>2019-02-17T10:35:28.000Z</time>
      </trkpt>
      <trkpt lat="43.24345" lon="0.90246">
        <ele>297</ele>
        <time>2019-02-17T10:35:30.000Z</time>
      </trkpt>
      <trkpt lat="43.24345" lon="0.90249">
        <ele>297</ele>
        <time>2019-02-17T10:35:32.000Z</time>
      </trkpt>
      <trkpt lat="43.24345" lon="0.90252">
        <ele>297</ele>
        <time>2019-02-17T10:35:34.000Z</time>
      </trkpt>
      <trkpt lat="43.24344" lon="0.90254">
        <ele>297</ele>
        <time>2019-02-17T10:35:36.000Z</time>
      </trkpt>
      <trkpt lat="43.24344" lon="0.90257">
        <ele>297</ele>
        <time>2019-02-17T10:35:38.000Z</time>
      </trkpt>
      <trkpt lat="43.24344" lon="0.9026">
        <ele>297</ele>
        <time>2019-02-17T10:35:40.000Z</time>
      </trkpt>
      <trkpt lat="43.24344" lon="0.90262">
        <ele>297</ele>
        <time>2019-02-17T10:35:42.000Z</time>
      </trkpt>
      <trkpt lat="43.24343" lon="0.90264">
        <ele>297</ele>
        <time>2019-02-17T10:35:44.000Z</time>
      </trkpt>
      <trkpt lat="43.24342" lon="0.90266">
        <ele>297</ele>
        <time>2019-02-17T10:35:46.000Z</time>
      </trkpt>
      <trkpt lat="43.24341" lon="0.90269">
        <ele>297</ele>
        <time>2019-02-17T10:35:48.000Z</time>
      </trkpt>
      <trkpt lat="43.2434" lon="0.90272">
        <ele>297</ele>
        <time>2019-02-17T10:35:50.000Z</time>
      </trkpt>
      <trkpt lat="43.24339" lon="0.90274">
        <ele>297</ele>
        <time>2019-02-17T10:35:52.000Z</time>
      </trkpt>
      <trkpt lat="43.24338" lon="0.90277">
        <ele>297</ele>
        <time>2019-02-17T10:35:54.000Z</time>
      </trkpt>
      <trkpt lat="43.24337" lon="0.90279">
        <ele>298</ele>
        <time>2019-02-17T10:35:56.000Z</time>
      </trkpt>
      <trkpt lat="43.24337" lon="0.90282">
        <ele>298</ele>
        <time>2019-02-17T10:35:58.000Z</time>
      </trkpt>
      <trkpt lat="43.24336" lon="0.90284">
        <ele>298</ele>
        <time>2019-02-17T10:36:00.000Z</time>
      </trkpt>
      <trkpt lat="43.24335" lon="0.90286">
        <ele>298</ele>
        <time>2019-02-17T10:36:02.000Z</time>
      </trkpt>
      <trkpt lat="43.24335" lon="0.90288">
        <ele>298</ele>
        <time>2019-02-17T10:36:04.000Z</time>
      </trkpt>
      <trkpt lat="43.24334" lon="0.9029">
        <ele>298</ele>
        <time>2019-02-17T10:36:06.000Z</time>
      </trkpt>
      <trkpt lat="43.24333" lon="0.90293">
        <ele>298</ele>
        <time>2019-02-17T10:36:08.000Z</time>
      </trkpt>
      <trkpt lat="43.24332" lon="0.90295">
        <ele>298</ele>
        <time>2019-02-17T10:36:10.000Z</time>
      </trkpt>
      <trkpt lat="43.2433" lon="0.90297">
        <ele>298</ele>
        <time>2019-02-17T10:36:12.000Z</time>
      </trkpt>
      <trkpt lat="43.24328" lon="0.90299">
        <ele>299</ele>
        <time>2019-02-17T10:36:14.000Z</time>
      </trkpt>
      <trkpt lat="43.24328" lon="0.90301">
        <ele>299</ele>
        <time>2019-02-17T10:36:16.000Z</time>
      </trkpt>
      <trkpt lat="43.24327" lon="0.90304">
        <ele>299</ele>
        <time>2019-02-17T10:36:18.000Z</time>
      </trkpt>
      <trkpt lat="43.24326" lon="0.90307">
        <ele>299</ele>
        <time>2019-02-17T10:36:20.000Z</time>
      </trkpt>
      <trkpt lat="43.24326" lon="0.9031">
        <ele>299</ele>
        <time>2019-02-17T10:36:22.000Z</time>
      </trkpt>
      <trkpt lat="43.24326" lon="0.90313">
        <ele>299</ele>
        <time>2019-02-17T10:36:24.000Z</time>
      </trkpt>
      <trkpt lat="43.24324" lon="0.90315">
        <ele>300</ele>
        <time>2019-02-17T10:36:26.000Z</time>
      </trkpt>
      <trkpt lat="43.24326" lon="0.90318">
        <ele>299</ele>
        <time>2019-02-17T10:36:28.000Z</time>
      </trkpt>
      <trkpt lat="43.24326" lon="0.90321">
        <ele>299</ele>
        <time>2019-02-17T10:36:30.000Z</time>
      </trkpt>
      <trkpt lat="43.24326" lon="0.90323">
        <ele>299</ele>
        <time>2019-02-17T10:36:32.000Z</time>
      </trkpt>
      <trkpt lat="43.24326" lon="0.90324">
        <ele>299</ele>
        <time>2019-02-17T10:36:34.000Z</time>
      </trkpt>
      <trkpt lat="43.24327" lon="0.90325">
        <ele>299</ele>
        <time>2019-02-17T10:36:36.000Z</time>
      </trkpt>
      <trkpt lat="43.24327" lon="0.90326">
        <ele>299</ele>
        <time>2019-02-17T10:36:38.000Z</time>
      </trkpt>
      <trkpt lat="43.24328" lon="0.90326">
        <ele>299</ele>
        <time>2019-02-17T10:36:40.000Z</time>
      </trkpt>
      <trkpt lat="43.24327" lon="0.90327">
        <ele>299</ele>
        <time>2019-02-17T10:36:42.000Z</time>
      </trkpt>
      <trkpt lat="43.24327" lon="0.90327">
        <ele>299</ele>
        <time>2019-02-17T10:36:44.000Z</time>
      </trkpt>
      <trkpt lat="43.24328" lon="0.90328">
        <ele>299</ele>
        <time>2019-02-17T10:36:46.000Z</time>
      </trkpt>
      <trkpt lat="43.24328" lon="0.90328">
        <ele>299</ele>
        <time>2019-02-17T10:36:48.000Z</time>
      </trkpt>
      <trkpt lat="43.24329" lon="0.90328">
        <ele>299</ele>
        <time>2019-02-17T10:36:50.000Z</time>
      </trkpt>
      <trkpt lat="43.2433" lon="0.90328">
        <ele>298</ele>
        <time>2019-02-17T10:36:52.000Z</time>
      </trkpt>
      <trkpt lat="43.24331" lon="0.90328">
        <ele>298</ele>
        <time>2019-02-17T10:36:54.000Z</time>
      </trkpt>
      <trkpt lat="43.2433" lon="0.90328">
        <ele>298</ele>
        <time>2019-02-17T10:36:56.000Z</time>
      </trkpt>
      <trkpt lat="43.2433" lon="0.90329">
        <ele>298</ele>
        <time>2019-02-17T10:36:58.000Z</time>
      </trkpt>
      <trkpt lat="43.2433" lon="0.9033">
        <ele>298</ele>
        <time>2019-02-17T10:37:00.000Z</time>
      </trkpt>
      <trkpt lat="43.2433" lon="0.9033">
        <ele>299</ele>
        <time>2019-02-17T10:37:02.000Z</time>
      </trkpt>
      <trkpt lat="43.2433" lon="0.9033">
        <ele>299</ele>
        <time>2019-02-17T10:37:04.000Z</time>
      </trkpt>
      <trkpt lat="43.24329" lon="0.9033">
        <ele>299</ele>
        <time>2019-02-17T10:37:06.000Z</time>
      </trkpt>
      <trkpt lat="43.24329" lon="0.90329">
        <ele>299</ele>
        <time>2019-02-17T10:37:08.000Z</time>
      </trkpt>
      <trkpt lat="43.24329" lon="0.90329">
        <ele>299</ele>
        <time>2019-02-17T10:37:10.000Z</time>
      </trkpt>
      <trkpt lat="43.24328" lon="0.90329">
        <ele>299</ele>
        <time>2019-02-17T10:37:12.000Z</time>
      </trkpt>
      <trkpt lat="43.24328" lon="0.90329">
        <ele>299</ele>
        <time>2019-02-17T10:37:14.000Z</time>
      </trkpt>
      <trkpt lat="43.24328" lon="0.90329">
        <ele>299</ele>
        <time>2019-02-17T10:37:16.000Z</time>
      </trkpt>
      <trkpt lat="43.24329" lon="0.90328">
        <ele>299</ele>
        <time>2019-02-17T10:37:18.000Z</time>
      </trkpt>
      <trkpt lat="43.24329" lon="0.90328">
        <ele>299</ele>
        <time>2019-02-17T10:37:20.000Z</time>
      </trkpt>
      <trkpt lat="43.24328" lon="0.90329">
        <ele>299</ele>
        <time>2019-02-17T10:37:22.000Z</time>
      </trkpt>
      <trkpt lat="43.24327" lon="0.90329">
        <ele>299</ele>
        <time>2019-02-17T10:37:24.000Z</time>
      </trkpt>
      <trkpt lat="43.24326" lon="0.90331">
        <ele>299</ele>
        <time>2019-02-17T10:37:26.000Z</time>
      </trkpt>
      <trkpt lat="43.24325" lon="0.90334">
        <ele>299</ele>
        <time>2019-02-17T10:37:28.000Z</time>
      </trkpt>
      <trkpt lat="43.24324" lon="0.90337">
        <ele>300</ele>
        <time>2019-02-17T10:37:30.000Z</time>
      </trkpt>
      <trkpt lat="43.24324" lon="0.9034">
        <ele>300</ele>
        <time>2019-02-17T10:37:32.000Z</time>
      </trkpt>
      <trkpt lat="43.24324" lon="0.90343">
        <ele>300</ele>
        <time>2019-02-17T10:37:34.000Z</time>
      </trkpt>
      <trkpt lat="43.24323" lon="0.90345">
        <ele>300</ele>
        <time>2019-02-17T10:37:36.000Z</time>
      </trkpt>
      <trkpt lat="43.24324" lon="0.90348">
        <ele>300</ele>
        <time>2019-02-17T10:37:38.000Z</time>
      </trkpt>
      <trkpt lat="43.24324" lon="0.9035">
        <ele>300</ele>
        <time>2019-02-17T10:37:40.000Z</time>
      </trkpt>
      <trkpt lat="43.24324" lon="0.90353">
        <ele>300</ele>
        <time>2019-02-17T10:37:42.000Z</time>
      </trkpt>
      <trkpt lat="43.24324" lon="0.90356">
        <ele>300</ele>
        <time>2019-02-17T10:37:44.000Z</time>
      </trkpt>
      <trkpt lat="43.24324" lon="0.90359">
        <ele>300</ele>
        <time>2019-02-17T10:37:46.000Z</time>
      </trkpt>
      <trkpt lat="43.24324" lon="0.90361">
        <ele>300</ele>
        <time>2019-02-17T10:37:48.000Z</time>
      </trkpt>
      <trkpt lat="43.24325" lon="0.90364">
        <ele>300</ele>
        <time>2019-02-17T10:37:50.000Z</time>
      </trkpt>
      <trkpt lat="43.24325" lon="0.90367">
        <ele>300</ele>
        <time>2019-02-17T10:37:52.000Z</time>
      </trkpt>
      <trkpt lat="43.24325" lon="0.90369">
        <ele>299</ele>
        <time>2019-02-17T10:37:54.000Z</time>
      </trkpt>
      <trkpt lat="43.24326" lon="0.90371">
        <ele>299</ele>
        <time>2019-02-17T10:37:56.000Z</time>
      </trkpt>
      <trkpt lat="43.24326" lon="0.90372">
        <ele>299</ele>
        <time>2019-02-17T10:37:58.000Z</time>
      </trkpt>
      <trkpt lat="43.24328" lon="0.90372">
        <ele>299</ele>
        <time>2019-02-17T10:38:00.000Z</time>
      </trkpt>
      <trkpt lat="43.24328" lon="0.90371">
        <ele>299</ele>
        <time>2019-02-17T10:38:02.000Z</time>
      </trkpt>
      <trkpt lat="43.24328" lon="0.90372">
        <ele>299</ele>
        <time>2019-02-17T10:38:04.000Z</time>
      </trkpt>
      <trkpt lat="43.24328" lon="0.90371">
        <ele>299</ele>
        <time>2019-02-17T10:38:06.000Z</time>
      </trkpt>
      <trkpt lat="43.24328" lon="0.90371">
        <ele>299</ele>
        <time>2019-02-17T10:38:08.000Z</time>
      </trkpt>
      <trkpt lat="43.24327" lon="0.9037">
        <ele>299</ele>
        <time>2019-02-17T10:38:10.000Z</time>
      </trkpt>
      <trkpt lat="43.24327" lon="0.9037">
        <ele>299</ele>
        <time>2019-02-17T10:38:12.000Z</time>
      </trkpt>
      <trkpt lat="43.24328" lon="0.90371">
        <ele>299</ele>
        <time>2019-02-17T10:38:14.000Z</time>
      </trkpt>
      <trkpt lat="43.24328" lon="0.90371">
        <ele>299</ele>
        <time>2019-02-17T10:38:16.000Z</time>
      </trkpt>
      <trkpt lat="43.24327" lon="0.90371">
        <ele>299</ele>
        <time>2019-02-17T10:38:18.000Z</time>
      </trkpt>
      <trkpt lat="43.24328" lon="0.90371">
        <ele>299</ele>
        <time>2019-02-17T10:38:20.000Z</time>
      </trkpt>
      <trkpt lat="43.24328" lon="0.90371">
        <ele>299</ele>
        <time>2019-02-17T10:38:22.000Z</time>
      </trkpt>
      <trkpt lat="43.24328" lon="0.90371">
        <ele>299</ele>
        <time>2019-02-17T10:38:24.000Z</time>
      </trkpt>
      <trkpt lat="43.24328" lon="0.90371">
        <ele>299</ele>
        <time>2019-02-17T10:38:26.000Z</time>
      </trkpt>
      <trkpt lat="43.24327" lon="0.90371">
        <ele>299</ele>
        <time>2019-02-17T10:38:28.000Z</time>
      </trkpt>
      <trkpt lat="43.24328" lon="0.90371">
        <ele>299</ele>
        <time>2019-02-17T10:38:30.000Z</time>
      </trkpt>
      <trkpt lat="43.24328" lon="0.90371">
        <ele>299</ele>
        <time>2019-02-17T10:38:32.000Z</time>
      </trkpt>
      <trkpt lat="43.24327" lon="0.90371">
        <ele>299</ele>
        <time>2019-02-17T10:38:34.000Z</time>
      </trkpt>
      <trkpt lat="43.24328" lon="0.90371">
        <ele>299</ele>
        <time>2019-02-17T10:38:36.000Z</time>
      </trkpt>
      <trkpt lat="43.24328" lon="0.90371">
        <ele>299</ele>
        <time>2019-02-17T10:38:38.000Z</time>
      </trkpt>
      <trkpt lat="43.24328" lon="0.90371">
        <ele>299</ele>
        <time>2019-02-17T10:38:40.000Z</time>
      </trkpt>
      <trkpt lat="43.24328" lon="0.9037">
        <ele>299</ele>
        <time>2019-02-17T10:38:42.000Z</time>
      </trkpt>
      <trkpt lat="43.24327" lon="0.90372">
        <ele>299</ele>
        <time>2019-02-17T10:38:44.000Z</time>
      </trkpt>
      <trkpt lat="43.24328" lon="0.90372">
        <ele>299</ele>
        <time>2019-02-17T10:38:46.000Z</time>
      </trkpt>
      <trkpt lat="43.24327" lon="0.90373">
        <ele>299</ele>
        <time>2019-02-17T10:38:48.000Z</time>
      </trkpt>
      <trkpt lat="43.24329" lon="0.90373">
        <ele>299</ele>
        <time>2019-02-17T10:38:50.000Z</time>
      </trkpt>
      <trkpt lat="43.24329" lon="0.90375">
        <ele>299</ele>
        <time>2019-02-17T10:38:52.000Z</time>
      </trkpt>
      <trkpt lat="43.24329" lon="0.90378">
        <ele>299</ele>
        <time>2019-02-17T10:38:54.000Z</time>
      </trkpt>
      <trkpt lat="43.24329" lon="0.9038">
        <ele>299</ele>
        <time>2019-02-17T10:38:56.000Z</time>
      </trkpt>
      <trkpt lat="43.24329" lon="0.90382">
        <ele>299</ele>
        <time>2019-02-17T10:38:58.000Z</time>
      </trkpt>
      <trkpt lat="43.24329" lon="0.90382">
        <ele>299</ele>
        <time>2019-02-17T10:39:00.000Z</time>
      </trkpt>
      <trkpt lat="43.24329" lon="0.90382">
        <ele>299</ele>
        <time>2019-02-17T10:39:02.000Z</time>
      </trkpt>
      <trkpt lat="43.24328" lon="0.90383">
        <ele>299</ele>
        <time>2019-02-17T10:39:04.000Z</time>
      </trkpt>
      <trkpt lat="43.24328" lon="0.90385">
        <ele>299</ele>
        <time>2019-02-17T10:39:06.000Z</time>
      </trkpt>
      <trkpt lat="43.24328" lon="0.90388">
        <ele>299</ele>
        <time>2019-02-17T10:39:08.000Z</time>
      </trkpt>
      <trkpt lat="43.24328" lon="0.90391">
        <ele>299</ele>
        <time>2019-02-17T10:39:10.000Z</time>
      </trkpt>
      <trkpt lat="43.24327" lon="0.90393">
        <ele>299</ele>
        <time>2019-02-17T10:39:12.000Z</time>
      </trkpt>
      <trkpt lat="43.24328" lon="0.90395">
        <ele>299</ele>
        <time>2019-02-17T10:39:14.000Z</time>
      </trkpt>
      <trkpt lat="43.24328" lon="0.90398">
        <ele>299</ele>
        <time>2019-02-17T10:39:16.000Z</time>
      </trkpt>
      <trkpt lat="43.24328" lon="0.90401">
        <ele>299</ele>
        <time>2019-02-17T10:39:18.000Z</time>
      </trkpt>
      <trkpt lat="43.24328" lon="0.90403">
        <ele>299</ele>
        <time>2019-02-17T10:39:20.000Z</time>
      </trkpt>
      <trkpt lat="43.24327" lon="0.90405">
        <ele>300</ele>
        <time>2019-02-17T10:39:22.000Z</time>
      </trkpt>
      <trkpt lat="43.24327" lon="0.90408">
        <ele>300</ele>
        <time>2019-02-17T10:39:24.000Z</time>
      </trkpt>
      <trkpt lat="43.24327" lon="0.90411">
        <ele>300</ele>
        <time>2019-02-17T10:39:26.000Z</time>
      </trkpt>
      <trkpt lat="43.24327" lon="0.90413">
        <ele>300</ele>
        <time>2019-02-17T10:39:28.000Z</time>
      </trkpt>
      <trkpt lat="43.24328" lon="0.90416">
        <ele>300</ele>
        <time>2019-02-17T10:39:30.000Z</time>
      </trkpt>
      <trkpt lat="43.24328" lon="0.90419">
        <ele>300</ele>
        <time>2019-02-17T10:39:32.000Z</time>
      </trkpt>
      <trkpt lat="43.24328" lon="0.90421">
        <ele>300</ele>
        <time>2019-02-17T10:39:34.000Z</time>
      </trkpt>
      <trkpt lat="43.24326" lon="0.90423">
        <ele>300</ele>
        <time>2019-02-17T10:39:36.000Z</time>
      </trkpt>
      <trkpt lat="43.24326" lon="0.90426">
        <ele>300</ele>
        <time>2019-02-17T10:39:38.000Z</time>
      </trkpt>
      <trkpt lat="43.24326" lon="0.90429">
        <ele>300</ele>
        <time>2019-02-17T10:39:40.000Z</time>
      </trkpt>
      <trkpt lat="43.24327" lon="0.90433">
        <ele>300</ele>
        <time>2019-02-17T10:39:42.000Z</time>
      </trkpt>
      <trkpt lat="43.24327" lon="0.90436">
        <ele>300</ele>
        <time>2019-02-17T10:39:44.000Z</time>
      </trkpt>
      <trkpt lat="43.24327" lon="0.9044">
        <ele>301</ele>
        <time>2019-02-17T10:39:46.000Z</time>
      </trkpt>
      <trkpt lat="43.24326" lon="0.90443">
        <ele>301</ele>
        <time>2019-02-17T10:39:48.000Z</time>
      </trkpt>
      <trkpt lat="43.24326" lon="0.90445">
        <ele>301</ele>
        <time>2019-02-17T10:39:50.000Z</time>
      </trkpt>
      <trkpt lat="43.24326" lon="0.90448">
        <ele>301</ele>
        <time>2019-02-17T10:39:52.000Z</time>
      </trkpt>
      <trkpt lat="43.24326" lon="0.90451">
        <ele>301</ele>
        <time>2019-02-17T10:39:54.000Z</time>
      </trkpt>
      <trkpt lat="43.24326" lon="0.90453">
        <ele>301</ele>
        <time>2019-02-17T10:39:56.000Z</time>
      </trkpt>
      <trkpt lat="43.24325" lon="0.90455">
        <ele>301</ele>
        <time>2019-02-17T10:39:58.000Z</time>
      </trkpt>
      <trkpt lat="43.24325" lon="0.90457">
        <ele>301</ele>
        <time>2019-02-17T10:40:00.000Z</time>
      </trkpt>
      <trkpt lat="43.24325" lon="0.90459">
        <ele>301</ele>
        <time>2019-02-17T10:40:02.000Z</time>
      </trkpt>
      <trkpt lat="43.24325" lon="0.90462">
        <ele>301</ele>
        <time>2019-02-17T10:40:04.000Z</time>
      </trkpt>
      <trkpt lat="43.24325" lon="0.90465">
        <ele>301</ele>
        <time>2019-02-17T10:40:06.000Z</time>
      </trkpt>
      <trkpt lat="43.24325" lon="0.90468">
        <ele>301</ele>
        <time>2019-02-17T10:40:08.000Z</time>
      </trkpt>
      <trkpt lat="43.24327" lon="0.90471">
        <ele>301</ele>
        <time>2019-02-17T10:40:10.000Z</time>
      </trkpt>
      <trkpt lat="43.24328" lon="0.90475">
        <ele>300</ele>
        <time>2019-02-17T10:40:12.000Z</time>
      </trkpt>
      <trkpt lat="43.24328" lon="0.90479">
        <ele>300</ele>
        <time>2019-02-17T10:40:14.000Z</time>
      </trkpt>
      <trkpt lat="43.24328" lon="0.90481">
        <ele>300</ele>
        <time>2019-02-17T10:40:16.000Z</time>
      </trkpt>
      <trkpt lat="43.24328" lon="0.90485">
        <ele>300</ele>
        <time>2019-02-17T10:40:18.000Z</time>
      </trkpt>
      <trkpt lat="43.24328" lon="0.90488">
        <ele>299</ele>
        <time>2019-02-17T10:40:20.000Z</time>
      </trkpt>
      <trkpt lat="43.24329" lon="0.90492">
        <ele>299</ele>
        <time>2019-02-17T10:40:22.000Z</time>
      </trkpt>
      <trkpt lat="43.24329" lon="0.90496">
        <ele>299</ele>
        <time>2019-02-17T10:40:24.000Z</time>
      </trkpt>
      <trkpt lat="43.24329" lon="0.90499">
        <ele>298</ele>
        <time>2019-02-17T10:40:26.000Z</time>
      </trkpt>
      <trkpt lat="43.24329" lon="0.90503">
        <ele>298</ele>
        <time>2019-02-17T10:40:28.000Z</time>
      </trkpt>
      <trkpt lat="43.24329" lon="0.90506">
        <ele>298</ele>
        <time>2019-02-17T10:40:30.000Z</time>
      </trkpt>
      <trkpt lat="43.24328" lon="0.9051">
        <ele>298</ele>
        <time>2019-02-17T10:40:32.000Z</time>
      </trkpt>
      <trkpt lat="43.24328" lon="0.90513">
        <ele>297</ele>
        <time>2019-02-17T10:40:34.000Z</time>
      </trkpt>
      <trkpt lat="43.24328" lon="0.90517">
        <ele>297</ele>
        <time>2019-02-17T10:40:36.000Z</time>
      </trkpt>
      <trkpt lat="43.24328" lon="0.9052">
        <ele>297</ele>
        <time>2019-02-17T10:40:38.000Z</time>
      </trkpt>
      <trkpt lat="43.24328" lon="0.90524">
        <ele>297</ele>
        <time>2019-02-17T10:40:40.000Z</time>
      </trkpt>
      <trkpt lat="43.24327" lon="0.90526">
        <ele>297</ele>
        <time>2019-02-17T10:40:42.000Z</time>
      </trkpt>
      <trkpt lat="43.24329" lon="0.90529">
        <ele>296</ele>
        <time>2019-02-17T10:40:44.000Z</time>
      </trkpt>
      <trkpt lat="43.24329" lon="0.90532">
        <ele>296</ele>
        <time>2019-02-17T10:40:46.000Z</time>
      </trkpt>
      <trkpt lat="43.24329" lon="0.90535">
        <ele>296</ele>
        <time>2019-02-17T10:40:48.000Z</time>
      </trkpt>
      <trkpt lat="43.24328" lon="0.90538">
        <ele>296</ele>
        <time>2019-02-17T10:40:50.000Z</time>
      </trkpt>
      <trkpt lat="43.24328" lon="0.90541">
        <ele>295</ele>
        <time>2019-02-17T10:40:52.000Z</time>
      </trkpt>
      <trkpt lat="43.24328" lon="0.90544">
        <ele>295</ele>
        <time>2019-02-17T10:40:54.000Z</time>
      </trkpt>
      <trkpt lat="43.24327" lon="0.90547">
        <ele>295</ele>
        <time>2019-02-17T10:40:56.000Z</time>
      </trkpt>
      <trkpt lat="43.24327" lon="0.90551">
        <ele>294</ele>
        <time>2019-02-17T10:40:58.000Z</time>
      </trkpt>
      <trkpt lat="43.24327" lon="0.90554">
        <ele>294</ele>
        <time>2019-02-17T10:41:00.000Z</time>
      </trkpt>
      <trkpt lat="43.24326" lon="0.90556">
        <ele>294</ele>
        <time>2019-02-17T10:41:02.000Z</time>
      </trkpt>
      <trkpt lat="43.24325" lon="0.9056">
        <ele>294</ele>
        <time>2019-02-17T10:41:04.000Z</time>
      </trkpt>
      <trkpt lat="43.24324" lon="0.90562">
        <ele>294</ele>
        <time>2019-02-17T10:41:06.000Z</time>
      </trkpt>
      <trkpt lat="43.24323" lon="0.90565">
        <ele>294</ele>
        <time>2019-02-17T10:41:08.000Z</time>
      </trkpt>
      <trkpt lat="43.24322" lon="0.90567">
        <ele>294</ele>
        <time>2019-02-17T10:41:10.000Z</time>
      </trkpt>
      <trkpt lat="43.24321" lon="0.90571">
        <ele>293</ele>
        <time>2019-02-17T10:41:12.000Z</time>
      </trkpt>
      <trkpt lat="43.2432" lon="0.90573">
        <ele>293</ele>
        <time>2019-02-17T10:41:14.000Z</time>
      </trkpt>
      <trkpt lat="43.24319" lon="0.90576">
        <ele>293</ele>
        <time>2019-02-17T10:41:16.000Z</time>
      </trkpt>
      <trkpt lat="43.24318" lon="0.9058">
        <ele>293</ele>
        <time>2019-02-17T10:41:18.000Z</time>
      </trkpt>
      <trkpt lat="43.24317" lon="0.90582">
        <ele>293</ele>
        <time>2019-02-17T10:41:20.000Z</time>
      </trkpt>
      <trkpt lat="43.24315" lon="0.90585">
        <ele>293</ele>
        <time>2019-02-17T10:41:22.000Z</time>
      </trkpt>
      <trkpt lat="43.24314" lon="0.90587">
        <ele>293</ele>
        <time>2019-02-17T10:41:24.000Z</time>
      </trkpt>
      <trkpt lat="43.24312" lon="0.90589">
        <ele>293</ele>
        <time>2019-02-17T10:41:26.000Z</time>
      </trkpt>
      <trkpt lat="43.24311" lon="0.90591">
        <ele>293</ele>
        <time>2019-02-17T10:41:28.000Z</time>
      </trkpt>
      <trkpt lat="43.2431" lon="0.90593">
        <ele>293</ele>
        <time>2019-02-17T10:41:30.000Z</time>
      </trkpt>
      <trkpt lat="43.24308" lon="0.90595">
        <ele>293</ele>
        <time>2019-02-17T10:41:32.000Z</time>
      </trkpt>
      <trkpt lat="43.24307" lon="0.90597">
        <ele>293</ele>
        <time>2019-02-17T10:41:34.000Z</time>
      </trkpt>
      <trkpt lat="43.24305" lon="0.90598">
        <ele>293</ele>
        <time>2019-02-17T10:41:36.000Z</time>
      </trkpt>
      <trkpt lat="43.24303" lon="0.90599">
        <ele>293</ele>
        <time>2019-02-17T10:41:38.000Z</time>
      </trkpt>
      <trkpt lat="43.24301" lon="0.906">
        <ele>294</ele>
        <time>2019-02-17T10:41:40.000Z</time>
      </trkpt>
      <trkpt lat="43.24299" lon="0.90601">
        <ele>294</ele>
        <time>2019-02-17T10:41:42.000Z</time>
      </trkpt>
      <trkpt lat="43.24298" lon="0.90602">
        <ele>294</ele>
        <time>2019-02-17T10:41:44.000Z</time>
      </trkpt>
      <trkpt lat="43.24296" lon="0.90603">
        <ele>293</ele>
        <time>2019-02-17T10:41:46.000Z</time>
      </trkpt>
      <trkpt lat="43.24294" lon="0.90604">
        <ele>293</ele>
        <time>2019-02-17T10:41:48.000Z</time>
      </trkpt>
      <trkpt lat="43.24293" lon="0.90605">
        <ele>293</ele>
        <time>2019-02-17T10:41:50.000Z</time>
      </trkpt>
      <trkpt lat="43.24292" lon="0.90606">
        <ele>293</ele>
        <time>2019-02-17T10:41:52.000Z</time>
      </trkpt>
      <trkpt lat="43.24291" lon="0.90607">
        <ele>293</ele>
        <time>2019-02-17T10:41:54.000Z</time>
      </trkpt>
      <trkpt lat="43.24289" lon="0.90608">
        <ele>293</ele>
        <time>2019-02-17T10:41:56.000Z</time>
      </trkpt>
      <trkpt lat="43.24288" lon="0.90609">
        <ele>293</ele>
        <time>2019-02-17T10:41:58.000Z</time>
      </trkpt>
      <trkpt lat="43.24286" lon="0.90611">
        <ele>293</ele>
        <time>2019-02-17T10:42:00.000Z</time>
      </trkpt>
      <trkpt lat="43.24285" lon="0.90612">
        <ele>293</ele>
        <time>2019-02-17T10:42:02.000Z</time>
      </trkpt>
      <trkpt lat="43.24283" lon="0.90613">
        <ele>293</ele>
        <time>2019-02-17T10:42:04.000Z</time>
      </trkpt>
      <trkpt lat="43.24282" lon="0.90614">
        <ele>293</ele>
        <time>2019-02-17T10:42:06.000Z</time>
      </trkpt>
      <trkpt lat="43.24281" lon="0.90615">
        <ele>293</ele>
        <time>2019-02-17T10:42:08.000Z</time>
      </trkpt>
      <trkpt lat="43.2428" lon="0.90616">
        <ele>293</ele>
        <time>2019-02-17T10:42:10.000Z</time>
      </trkpt>
      <trkpt lat="43.24279" lon="0.90617">
        <ele>293</ele>
        <time>2019-02-17T10:42:12.000Z</time>
      </trkpt>
      <trkpt lat="43.24278" lon="0.90619">
        <ele>293</ele>
        <time>2019-02-17T10:42:14.000Z</time>
      </trkpt>
      <trkpt lat="43.24277" lon="0.9062">
        <ele>293</ele>
        <time>2019-02-17T10:42:16.000Z</time>
      </trkpt>
      <trkpt lat="43.24275" lon="0.90622">
        <ele>293</ele>
        <time>2019-02-17T10:42:18.000Z</time>
      </trkpt>
      <trkpt lat="43.24274" lon="0.90623">
        <ele>292</ele>
        <time>2019-02-17T10:42:20.000Z</time>
      </trkpt>
      <trkpt lat="43.24271" lon="0.90626">
        <ele>292</ele>
        <time>2019-02-17T10:42:22.000Z</time>
      </trkpt>
      <trkpt lat="43.24269" lon="0.90628">
        <ele>292</ele>
        <time>2019-02-17T10:42:24.000Z</time>
      </trkpt>
      <trkpt lat="43.24268" lon="0.9063">
        <ele>292</ele>
        <time>2019-02-17T10:42:26.000Z</time>
      </trkpt>
      <trkpt lat="43.24267" lon="0.90632">
        <ele>292</ele>
        <time>2019-02-17T10:42:28.000Z</time>
      </trkpt>
      <trkpt lat="43.24265" lon="0.90634">
        <ele>292</ele>
        <time>2019-02-17T10:42:30.000Z</time>
      </trkpt>
      <trkpt lat="43.24264" lon="0.90636">
        <ele>291</ele>
        <time>2019-02-17T10:42:32.000Z</time>
      </trkpt>
      <trkpt lat="43.24263" lon="0.90638">
        <ele>291</ele>
        <time>2019-02-17T10:42:34.000Z</time>
      </trkpt>
      <trkpt lat="43.24262" lon="0.90639">
        <ele>291</ele>
        <time>2019-02-17T10:42:36.000Z</time>
      </trkpt>
      <trkpt lat="43.2426" lon="0.90641">
        <ele>291</ele>
        <time>2019-02-17T10:42:38.000Z</time>
      </trkpt>
      <trkpt lat="43.24259" lon="0.90642">
        <ele>291</ele>
        <time>2019-02-17T10:42:40.000Z</time>
      </trkpt>
      <trkpt lat="43.24257" lon="0.90644">
        <ele>291</ele>
        <time>2019-02-17T10:42:42.000Z</time>
      </trkpt>
      <trkpt lat="43.24255" lon="0.90645">
        <ele>291</ele>
        <time>2019-02-17T10:42:44.000Z</time>
      </trkpt>
      <trkpt lat="43.24254" lon="0.90647">
        <ele>292</ele>
        <time>2019-02-17T10:42:46.000Z</time>
      </trkpt>
      <trkpt lat="43.24252" lon="0.90649">
        <ele>292</ele>
        <time>2019-02-17T10:42:48.000Z</time>
      </trkpt>
      <trkpt lat="43.24251" lon="0.9065">
        <ele>292</ele>
        <time>2019-02-17T10:42:50.000Z</time>
      </trkpt>
      <trkpt lat="43.24251" lon="0.90652">
        <ele>292</ele>
        <time>2019-02-17T10:42:52.000Z</time>
      </trkpt>
      <trkpt lat="43.2425" lon="0.90652">
        <ele>292</ele>
        <time>2019-02-17T10:42:54.000Z</time>
      </trkpt>
      <trkpt lat="43.24249" lon="0.90653">
        <ele>292</ele>
        <time>2019-02-17T10:42:56.000Z</time>
      </trkpt>
      <trkpt lat="43.24247" lon="0.90654">
        <ele>292</ele>
        <time>2019-02-17T10:42:58.000Z</time>
      </trkpt>
      <trkpt lat="43.24245" lon="0.90656">
        <ele>292</ele>
        <time>2019-02-17T10:43:00.000Z</time>
      </trkpt>
      <trkpt lat="43.24243" lon="0.90658">
        <ele>292</ele>
        <time>2019-02-17T10:43:02.000Z</time>
      </trkpt>
      <trkpt lat="43.24242" lon="0.90661">
        <ele>292</ele>
        <time>2019-02-17T10:43:04.000Z</time>
      </trkpt>
      <trkpt lat="43.2424" lon="0.90663">
        <ele>292</ele>
        <time>2019-02-17T10:43:06.000Z</time>
      </trkpt>
      <trkpt lat="43.24238" lon="0.90667">
        <ele>292</ele>
        <time>2019-02-17T10:43:08.000Z</time>
      </trkpt>
      <trkpt lat="43.24238" lon="0.90669">
        <ele>292</ele>
        <time>2019-02-17T10:43:10.000Z</time>
      </trkpt>
      <trkpt lat="43.24237" lon="0.90672">
        <ele>292</ele>
        <time>2019-02-17T10:43:12.000Z</time>
      </trkpt>
      <trkpt lat="43.24236" lon="0.90676">
        <ele>292</ele>
        <time>2019-02-17T10:43:14.000Z</time>
      </trkpt>
      <trkpt lat="43.24236" lon="0.90678">
        <ele>292</ele>
        <time>2019-02-17T10:43:16.000Z</time>
      </trkpt>
      <trkpt lat="43.24235" lon="0.90681">
        <ele>292</ele>
        <time>2019-02-17T10:43:18.000Z</time>
      </trkpt>
      <trkpt lat="43.24235" lon="0.90685">
        <ele>291</ele>
        <time>2019-02-17T10:43:20.000Z</time>
      </trkpt>
      <trkpt lat="43.24235" lon="0.90688">
        <ele>291</ele>
        <time>2019-02-17T10:43:22.000Z</time>
      </trkpt>
      <trkpt lat="43.24234" lon="0.90692">
        <ele>291</ele>
        <time>2019-02-17T10:43:24.000Z</time>
      </trkpt>
      <trkpt lat="43.24233" lon="0.90695">
        <ele>291</ele>
        <time>2019-02-17T10:43:26.000Z</time>
      </trkpt>
      <trkpt lat="43.24232" lon="0.90698">
        <ele>291</ele>
        <time>2019-02-17T10:43:28.000Z</time>
      </trkpt>
      <trkpt lat="43.24232" lon="0.90701">
        <ele>291</ele>
        <time>2019-02-17T10:43:30.000Z</time>
      </trkpt>
      <trkpt lat="43.24231" lon="0.90703">
        <ele>292</ele>
        <time>2019-02-17T10:43:32.000Z</time>
      </trkpt>
      <trkpt lat="43.24231" lon="0.90706">
        <ele>292</ele>
        <time>2019-02-17T10:43:34.000Z</time>
      </trkpt>
      <trkpt lat="43.24231" lon="0.90709">
        <ele>292</ele>
        <time>2019-02-17T10:43:36.000Z</time>
      </trkpt>
      <trkpt lat="43.2423" lon="0.90712">
        <ele>292</ele>
        <time>2019-02-17T10:43:38.000Z</time>
      </trkpt>
      <trkpt lat="43.24229" lon="0.90715">
        <ele>292</ele>
        <time>2019-02-17T10:43:40.000Z</time>
      </trkpt>
      <trkpt lat="43.24229" lon="0.90717">
        <ele>292</ele>
        <time>2019-02-17T10:43:42.000Z</time>
      </trkpt>
      <trkpt lat="43.2423" lon="0.90718">
        <ele>292</ele>
        <time>2019-02-17T10:43:44.000Z</time>
      </trkpt>
      <trkpt lat="43.24229" lon="0.9072">
        <ele>292</ele>
        <time>2019-02-17T10:43:46.000Z</time>
      </trkpt>
      <trkpt lat="43.24228" lon="0.9072">
        <ele>292</ele>
        <time>2019-02-17T10:43:48.000Z</time>
      </trkpt>
      <trkpt lat="43.24228" lon="0.9072">
        <ele>292</ele>
        <time>2019-02-17T10:43:50.000Z</time>
      </trkpt>
      <trkpt lat="43.24228" lon="0.9072">
        <ele>292</ele>
        <time>2019-02-17T10:43:52.000Z</time>
      </trkpt>
      <trkpt lat="43.24228" lon="0.9072">
        <ele>292</ele>
        <time>2019-02-17T10:43:54.000Z</time>
      </trkpt>
      <trkpt lat="43.24227" lon="0.9072">
        <ele>292</ele>
        <time>2019-02-17T10:43:56.000Z</time>
      </trkpt>
      <trkpt lat="43.24227" lon="0.9072">
        <ele>292</ele>
        <time>2019-02-17T10:43:58.000Z</time>
      </trkpt>
      <trkpt lat="43.24227" lon="0.9072">
        <ele>292</ele>
        <time>2019-02-17T10:44:00.000Z</time>
      </trkpt>
      <trkpt lat="43.24226" lon="0.9072">
        <ele>292</ele>
        <time>2019-02-17T10:44:02.000Z</time>
      </trkpt>
      <trkpt lat="43.24227" lon="0.9072">
        <ele>292</ele>
        <time>2019-02-17T10:44:04.000Z</time>
      </trkpt>
      <trkpt lat="43.24227" lon="0.9072">
        <ele>292</ele>
        <time>2019-02-17T10:44:06.000Z</time>
      </trkpt>
      <trkpt lat="43.24227" lon="0.9072">
        <ele>292</ele>
        <time>2019-02-17T10:44:08.000Z</time>
      </trkpt>
      <trkpt lat="43.24227" lon="0.9072">
        <ele>292</ele>
        <time>2019-02-17T10:44:10.000Z</time>
      </trkpt>
      <trkpt lat="43.24227" lon="0.9072">
        <ele>292</ele>
        <time>2019-02-17T10:44:12.000Z</time>
      </trkpt>
      <trkpt lat="43.24227" lon="0.90719">
        <ele>292</ele>
        <time>2019-02-17T10:44:14.000Z</time>
      </trkpt>
      <trkpt lat="43.24227" lon="0.90719">
        <ele>292</ele>
        <time>2019-02-17T10:44:16.000Z</time>
      </trkpt>
      <trkpt lat="43.24227" lon="0.90719">
        <ele>292</ele>
        <time>2019-02-17T10:44:18.000Z</time>
      </trkpt>
      <trkpt lat="43.24227" lon="0.90719">
        <ele>292</ele>
        <time>2019-02-17T10:44:20.000Z</time>
      </trkpt>
      <trkpt lat="43.24228" lon="0.90718">
        <ele>292</ele>
        <time>2019-02-17T10:44:22.000Z</time>
      </trkpt>
      <trkpt lat="43.24228" lon="0.90718">
        <ele>292</ele>
        <time>2019-02-17T10:44:24.000Z</time>
      </trkpt>
      <trkpt lat="43.24228" lon="0.90718">
        <ele>292</ele>
        <time>2019-02-17T10:44:26.000Z</time>
      </trkpt>
      <trkpt lat="43.24229" lon="0.90717">
        <ele>292</ele>
        <time>2019-02-17T10:44:28.000Z</time>
      </trkpt>
      <trkpt lat="43.24229" lon="0.90717">
        <ele>292</ele>
        <time>2019-02-17T10:44:30.000Z</time>
      </trkpt>
      <trkpt lat="43.24229" lon="0.90716">
        <ele>292</ele>
        <time>2019-02-17T10:44:32.000Z</time>
      </trkpt>
      <trkpt lat="43.24229" lon="0.90716">
        <ele>292</ele>
        <time>2019-02-17T10:44:34.000Z</time>
      </trkpt>
      <trkpt lat="43.24229" lon="0.90716">
        <ele>292</ele>
        <time>2019-02-17T10:44:36.000Z</time>
      </trkpt>
      <trkpt lat="43.24229" lon="0.90716">
        <ele>292</ele>
        <time>2019-02-17T10:44:38.000Z</time>
      </trkpt>
      <trkpt lat="43.24228" lon="0.90716">
        <ele>292</ele>
        <time>2019-02-17T10:44:40.000Z</time>
      </trkpt>
      <trkpt lat="43.24228" lon="0.90716">
        <ele>292</ele>
        <time>2019-02-17T10:44:42.000Z</time>
      </trkpt>
      <trkpt lat="43.24228" lon="0.90717">
        <ele>292</ele>
        <time>2019-02-17T10:44:44.000Z</time>
      </trkpt>
      <trkpt lat="43.24227" lon="0.90717">
        <ele>292</ele>
        <time>2019-02-17T10:44:46.000Z</time>
      </trkpt>
      <trkpt lat="43.24227" lon="0.90718">
        <ele>292</ele>
        <time>2019-02-17T10:44:48.000Z</time>
      </trkpt>
      <trkpt lat="43.24227" lon="0.90718">
        <ele>292</ele>
        <time>2019-02-17T10:44:50.000Z</time>
      </trkpt>
      <trkpt lat="43.24227" lon="0.90718">
        <ele>292</ele>
        <time>2019-02-17T10:44:52.000Z</time>
      </trkpt>
      <trkpt lat="43.24227" lon="0.90718">
        <ele>292</ele>
        <time>2019-02-17T10:44:54.000Z</time>
      </trkpt>
      <trkpt lat="43.24227" lon="0.90718">
        <ele>292</ele>
        <time>2019-02-17T10:44:56.000Z</time>
      </trkpt>
      <trkpt lat="43.24227" lon="0.90718">
        <ele>292</ele>
        <time>2019-02-17T10:44:58.000Z</time>
      </trkpt>
      <trkpt lat="43.24227" lon="0.90717">
        <ele>292</ele>
        <time>2019-02-17T10:45:00.000Z</time>
      </trkpt>
      <trkpt lat="43.24227" lon="0.90717">
        <ele>292</ele>
        <time>2019-02-17T10:45:02.000Z</time>
      </trkpt>
      <trkpt lat="43.24227" lon="0.90717">
        <ele>292</ele>
        <time>2019-02-17T10:45:04.000Z</time>
      </trkpt>
      <trkpt lat="43.24228" lon="0.90716">
        <ele>292</ele>
        <time>2019-02-17T10:45:06.000Z</time>
      </trkpt>
      <trkpt lat="43.24228" lon="0.90716">
        <ele>292</ele>
        <time>2019-02-17T10:45:08.000Z</time>
      </trkpt>
      <trkpt lat="43.24228" lon="0.90717">
        <ele>292</ele>
        <time>2019-02-17T10:45:10.000Z</time>
      </trkpt>
      <trkpt lat="43.24228" lon="0.90717">
        <ele>292</ele>
        <time>2019-02-17T10:45:12.000Z</time>
      </trkpt>
      <trkpt lat="43.24228" lon="0.90717">
        <ele>292</ele>
        <time>2019-02-17T10:45:14.000Z</time>
      </trkpt>
      <trkpt lat="43.24228" lon="0.90717">
        <ele>292</ele>
        <time>2019-02-17T10:45:16.000Z</time>
      </trkpt>
      <trkpt lat="43.24228" lon="0.90718">
        <ele>292</ele>
        <time>2019-02-17T10:45:18.000Z</time>
      </trkpt>
      <trkpt lat="43.24228" lon="0.90718">
        <ele>292</ele>
        <time>2019-02-17T10:45:20.000Z</time>
      </trkpt>
      <trkpt lat="43.24227" lon="0.90718">
        <ele>292</ele>
        <time>2019-02-17T10:45:22.000Z</time>
      </trkpt>
      <trkpt lat="43.24227" lon="0.90718">
        <ele>292</ele>
        <time>2019-02-17T10:45:24.000Z</time>
      </trkpt>
      <trkpt lat="43.24227" lon="0.90718">
        <ele>292</ele>
        <time>2019-02-17T10:45:26.000Z</time>
      </trkpt>
      <trkpt lat="43.24227" lon="0.90718">
        <ele>292</ele>
        <time>2019-02-17T10:45:28.000Z</time>
      </trkpt>
      <trkpt lat="43.24227" lon="0.90718">
        <ele>292</ele>
        <time>2019-02-17T10:45:30.000Z</time>
      </trkpt>
      <trkpt lat="43.24227" lon="0.90719">
        <ele>292</ele>
        <time>2019-02-17T10:45:32.000Z</time>
      </trkpt>
      <trkpt lat="43.24227" lon="0.90721">
        <ele>292</ele>
        <time>2019-02-17T10:45:34.000Z</time>
      </trkpt>
      <trkpt lat="43.24226" lon="0.90723">
        <ele>292</ele>
        <time>2019-02-17T10:45:36.000Z</time>
      </trkpt>
      <trkpt lat="43.24227" lon="0.90725">
        <ele>292</ele>
        <time>2019-02-17T10:45:38.000Z</time>
      </trkpt>
      <trkpt lat="43.24227" lon="0.90728">
        <ele>292</ele>
        <time>2019-02-17T10:45:40.000Z</time>
      </trkpt>
      <trkpt lat="43.24228" lon="0.90731">
        <ele>292</ele>
        <time>2019-02-17T10:45:42.000Z</time>
      </trkpt>
      <trkpt lat="43.24229" lon="0.90734">
        <ele>292</ele>
        <time>2019-02-17T10:45:44.000Z</time>
      </trkpt>
      <trkpt lat="43.24229" lon="0.90736">
        <ele>292</ele>
        <time>2019-02-17T10:45:46.000Z</time>
      </trkpt>
      <trkpt lat="43.2423" lon="0.90739">
        <ele>292</ele>
        <time>2019-02-17T10:45:48.000Z</time>
      </trkpt>
      <trkpt lat="43.24231" lon="0.90741">
        <ele>292</ele>
        <time>2019-02-17T10:45:50.000Z</time>
      </trkpt>
      <trkpt lat="43.24232" lon="0.90744">
        <ele>291</ele>
        <time>2019-02-17T10:45:52.000Z</time>
      </trkpt>
      <trkpt lat="43.24232" lon="0.90746">
        <ele>291</ele>
        <time>2019-02-17T10:45:54.000Z</time>
      </trkpt>
      <trkpt lat="43.24234" lon="0.90749">
        <ele>291</ele>
        <time>2019-02-17T10:45:56.000Z</time>
      </trkpt>
      <trkpt lat="43.24235" lon="0.90751">
        <ele>291</ele>
        <time>2019-02-17T10:45:58.000Z</time>
      </trkpt>
      <trkpt lat="43.24237" lon="0.90754">
        <ele>291</ele>
        <time>2019-02-17T10:46:00.000Z</time>
      </trkpt>
      <trkpt lat="43.24238" lon="0.90756">
        <ele>291</ele>
        <time>2019-02-17T10:46:02.000Z</time>
      </trkpt>
      <trkpt lat="43.24239" lon="0.90758">
        <ele>290</ele>
        <time>2019-02-17T10:46:04.000Z</time>
      </trkpt>
      <trkpt lat="43.2424" lon="0.9076">
        <ele>290</ele>
        <time>2019-02-17T10:46:06.000Z</time>
      </trkpt>
      <trkpt lat="43.24242" lon="0.90762">
        <ele>290</ele>
        <time>2019-02-17T10:46:08.000Z</time>
      </trkpt>
      <trkpt lat="43.24243" lon="0.90765">
        <ele>290</ele>
        <time>2019-02-17T10:46:10.000Z</time>
      </trkpt>
      <trkpt lat="43.24244" lon="0.90768">
        <ele>290</ele>
        <time>2019-02-17T10:46:12.000Z</time>
      </trkpt>
      <trkpt lat="43.24245" lon="0.90771">
        <ele>289</ele>
        <time>2019-02-17T10:46:14.000Z</time>
      </trkpt>
      <trkpt lat="43.24247" lon="0.90774">
        <ele>289</ele>
        <time>2019-02-17T10:46:16.000Z</time>
      </trkpt>
      <trkpt lat="43.24248" lon="0.90776">
        <ele>289</ele>
        <time>2019-02-17T10:46:18.000Z</time>
      </trkpt>
      <trkpt lat="43.24249" lon="0.90779">
        <ele>289</ele>
        <time>2019-02-17T10:46:20.000Z</time>
      </trkpt>
      <trkpt lat="43.2425" lon="0.90781">
        <ele>289</ele>
        <time>2019-02-17T10:46:22.000Z</time>
      </trkpt>
      <trkpt lat="43.24251" lon="0.90784">
        <ele>289</ele>
        <time>2019-02-17T10:46:24.000Z</time>
      </trkpt>
      <trkpt lat="43.24252" lon="0.90787">
        <ele>289</ele>
        <time>2019-02-17T10:46:26.000Z</time>
      </trkpt>
      <trkpt lat="43.24252" lon="0.9079">
        <ele>288</ele>
        <time>2019-02-17T10:46:28.000Z</time>
      </trkpt>
      <trkpt lat="43.24253" lon="0.90792">
        <ele>288</ele>
        <time>2019-02-17T10:46:30.000Z</time>
      </trkpt>
      <trkpt lat="43.24253" lon="0.90795">
        <ele>288</ele>
        <time>2019-02-17T10:46:32.000Z</time>
      </trkpt>
      <trkpt lat="43.24254" lon="0.90798">
        <ele>288</ele>
        <time>2019-02-17T10:46:34.000Z</time>
      </trkpt>
      <trkpt lat="43.24255" lon="0.908">
        <ele>288</ele>
        <time>2019-02-17T10:46:36.000Z</time>
      </trkpt>
      <trkpt lat="43.24256" lon="0.90803">
        <ele>288</ele>
        <time>2019-02-17T10:46:38.000Z</time>
      </trkpt>
      <trkpt lat="43.24257" lon="0.90805">
        <ele>288</ele>
        <time>2019-02-17T10:46:40.000Z</time>
      </trkpt>
      <trkpt lat="43.24258" lon="0.90808">
        <ele>288</ele>
        <time>2019-02-17T10:46:42.000Z</time>
      </trkpt>
      <trkpt lat="43.2426" lon="0.9081">
        <ele>288</ele>
        <time>2019-02-17T10:46:44.000Z</time>
      </trkpt>
      <trkpt lat="43.24261" lon="0.90812">
        <ele>287</ele>
        <time>2019-02-17T10:46:46.000Z</time>
      </trkpt>
      <trkpt lat="43.24262" lon="0.90815">
        <ele>287</ele>
        <time>2019-02-17T10:46:48.000Z</time>
      </trkpt>
      <trkpt lat="43.24263" lon="0.90817">
        <ele>287</ele>
        <time>2019-02-17T10:46:50.000Z</time>
      </trkpt>
      <trkpt lat="43.24264" lon="0.9082">
        <ele>287</ele>
        <time>2019-02-17T10:46:52.000Z</time>
      </trkpt>
      <trkpt lat="43.24264" lon="0.90823">
        <ele>287</ele>
        <time>2019-02-17T10:46:54.000Z</time>
      </trkpt>
      <trkpt lat="43.24264" lon="0.90826">
        <ele>288</ele>
        <time>2019-02-17T10:46:56.000Z</time>
      </trkpt>
      <trkpt lat="43.24264" lon="0.9083">
        <ele>288</ele>
        <time>2019-02-17T10:46:58.000Z</time>
      </trkpt>
      <trkpt lat="43.24264" lon="0.90833">
        <ele>288</ele>
        <time>2019-02-17T10:47:00.000Z</time>
      </trkpt>
      <trkpt lat="43.24264" lon="0.90836">
        <ele>288</ele>
        <time>2019-02-17T10:47:02.000Z</time>
      </trkpt>
      <trkpt lat="43.24264" lon="0.90839">
        <ele>288</ele>
        <time>2019-02-17T10:47:04.000Z</time>
      </trkpt>
      <trkpt lat="43.24265" lon="0.90842">
        <ele>288</ele>
        <time>2019-02-17T10:47:06.000Z</time>
      </trkpt>
      <trkpt lat="43.24265" lon="0.90846">
        <ele>288</ele>
        <time>2019-02-17T10:47:08.000Z</time>
      </trkpt>
      <trkpt lat="43.24265" lon="0.90849">
        <ele>288</ele>
        <time>2019-02-17T10:47:10.000Z</time>
      </trkpt>
      <trkpt lat="43.24265" lon="0.90852">
        <ele>288</ele>
        <time>2019-02-17T10:47:12.000Z</time>
      </trkpt>
      <trkpt lat="43.24265" lon="0.90855">
        <ele>288</ele>
        <time>2019-02-17T10:47:14.000Z</time>
      </trkpt>
      <trkpt lat="43.24266" lon="0.90859">
        <ele>289</ele>
        <time>2019-02-17T10:47:16.000Z</time>
      </trkpt>
      <trkpt lat="43.24266" lon="0.90861">
        <ele>289</ele>
        <time>2019-02-17T10:47:18.000Z</time>
      </trkpt>
      <trkpt lat="43.24266" lon="0.90864">
        <ele>289</ele>
        <time>2019-02-17T10:47:20.000Z</time>
      </trkpt>
      <trkpt lat="43.24265" lon="0.90868">
        <ele>289</ele>
        <time>2019-02-17T10:47:22.000Z</time>
      </trkpt>
      <trkpt lat="43.24265" lon="0.90871">
        <ele>289</ele>
        <time>2019-02-17T10:47:24.000Z</time>
      </trkpt>
      <trkpt lat="43.24264" lon="0.90875">
        <ele>289</ele>
        <time>2019-02-17T10:47:26.000Z</time>
      </trkpt>
      <trkpt lat="43.24264" lon="0.90878">
        <ele>289</ele>
        <time>2019-02-17T10:47:28.000Z</time>
      </trkpt>
      <trkpt lat="43.24264" lon="0.90881">
        <ele>289</ele>
        <time>2019-02-17T10:47:30.000Z</time>
      </trkpt>
      <trkpt lat="43.24265" lon="0.90883">
        <ele>290</ele>
        <time>2019-02-17T10:47:32.000Z</time>
      </trkpt>
      <trkpt lat="43.24265" lon="0.90886">
        <ele>290</ele>
        <time>2019-02-17T10:47:34.000Z</time>
      </trkpt>
      <trkpt lat="43.24265" lon="0.90889">
        <ele>290</ele>
        <time>2019-02-17T10:47:36.000Z</time>
      </trkpt>
      <trkpt lat="43.24265" lon="0.90892">
        <ele>290</ele>
        <time>2019-02-17T10:47:38.000Z</time>
      </trkpt>
      <trkpt lat="43.24266" lon="0.90895">
        <ele>290</ele>
        <time>2019-02-17T10:47:40.000Z</time>
      </trkpt>
      <trkpt lat="43.24266" lon="0.90898">
        <ele>289</ele>
        <time>2019-02-17T10:47:42.000Z</time>
      </trkpt>
      <trkpt lat="43.24266" lon="0.909">
        <ele>289</ele>
        <time>2019-02-17T10:47:44.000Z</time>
      </trkpt>
      <trkpt lat="43.24266" lon="0.90904">
        <ele>289</ele>
        <time>2019-02-17T10:47:46.000Z</time>
      </trkpt>
      <trkpt lat="43.24266" lon="0.90906">
        <ele>289</ele>
        <time>2019-02-17T10:47:48.000Z</time>
      </trkpt>
      <trkpt lat="43.24267" lon="0.9091">
        <ele>289</ele>
        <time>2019-02-17T10:47:50.000Z</time>
      </trkpt>
      <trkpt lat="43.24266" lon="0.90913">
        <ele>289</ele>
        <time>2019-02-17T10:47:52.000Z</time>
      </trkpt>
      <trkpt lat="43.24266" lon="0.90916">
        <ele>289</ele>
        <time>2019-02-17T10:47:54.000Z</time>
      </trkpt>
      <trkpt lat="43.24265" lon="0.90919">
        <ele>288</ele>
        <time>2019-02-17T10:47:56.000Z</time>
      </trkpt>
      <trkpt lat="43.24265" lon="0.90922">
        <ele>288</ele>
        <time>2019-02-17T10:47:58.000Z</time>
      </trkpt>
      <trkpt lat="43.24265" lon="0.90925">
        <ele>288</ele>
        <time>2019-02-17T10:48:00.000Z</time>
      </trkpt>
      <trkpt lat="43.24265" lon="0.90928">
        <ele>288</ele>
        <time>2019-02-17T10:48:02.000Z</time>
      </trkpt>
      <trkpt lat="43.24265" lon="0.90931">
        <ele>288</ele>
        <time>2019-02-17T10:48:04.000Z</time>
      </trkpt>
      <trkpt lat="43.24264" lon="0.90934">
        <ele>288</ele>
        <time>2019-02-17T10:48:06.000Z</time>
      </trkpt>
      <trkpt lat="43.24263" lon="0.90937">
        <ele>288</ele>
        <time>2019-02-17T10:48:08.000Z</time>
      </trkpt>
      <trkpt lat="43.24263" lon="0.9094">
        <ele>288</ele>
        <time>2019-02-17T10:48:10.000Z</time>
      </trkpt>
      <trkpt lat="43.24262" lon="0.90943">
        <ele>288</ele>
        <time>2019-02-17T10:48:12.000Z</time>
      </trkpt>
      <trkpt lat="43.24261" lon="0.90946">
        <ele>287</ele>
        <time>2019-02-17T10:48:14.000Z</time>
      </trkpt>
      <trkpt lat="43.24261" lon="0.9095">
        <ele>287</ele>
        <time>2019-02-17T10:48:16.000Z</time>
      </trkpt>
      <trkpt lat="43.24261" lon="0.90953">
        <ele>287</ele>
        <time>2019-02-17T10:48:18.000Z</time>
      </trkpt>
      <trkpt lat="43.2426" lon="0.90956">
        <ele>287</ele>
        <time>2019-02-17T10:48:20.000Z</time>
      </trkpt>
      <trkpt lat="43.2426" lon="0.90959">
        <ele>287</ele>
        <time>2019-02-17T10:48:22.000Z</time>
      </trkpt>
      <trkpt lat="43.2426" lon="0.90962">
        <ele>287</ele>
        <time>2019-02-17T10:48:24.000Z</time>
      </trkpt>
      <trkpt lat="43.24258" lon="0.90965">
        <ele>287</ele>
        <time>2019-02-17T10:48:26.000Z</time>
      </trkpt>
      <trkpt lat="43.24257" lon="0.90968">
        <ele>287</ele>
        <time>2019-02-17T10:48:28.000Z</time>
      </trkpt>
      <trkpt lat="43.24256" lon="0.9097">
        <ele>287</ele>
        <time>2019-02-17T10:48:30.000Z</time>
      </trkpt>
      <trkpt lat="43.24256" lon="0.90973">
        <ele>287</ele>
        <time>2019-02-17T10:48:32.000Z</time>
      </trkpt>
      <trkpt lat="43.24255" lon="0.90976">
        <ele>287</ele>
        <time>2019-02-17T10:48:34.000Z</time>
      </trkpt>
      <trkpt lat="43.24254" lon="0.90979">
        <ele>287</ele>
        <time>2019-02-17T10:48:36.000Z</time>
      </trkpt>
      <trkpt lat="43.24253" lon="0.90982">
        <ele>287</ele>
        <time>2019-02-17T10:48:38.000Z</time>
      </trkpt>
      <trkpt lat="43.24253" lon="0.90985">
        <ele>287</ele>
        <time>2019-02-17T10:48:40.000Z</time>
      </trkpt>
      <trkpt lat="43.24251" lon="0.90987">
        <ele>287</ele>
        <time>2019-02-17T10:48:42.000Z</time>
      </trkpt>
      <trkpt lat="43.24252" lon="0.9099">
        <ele>287</ele>
        <time>2019-02-17T10:48:44.000Z</time>
      </trkpt>
      <trkpt lat="43.24252" lon="0.90993">
        <ele>287</ele>
        <time>2019-02-17T10:48:46.000Z</time>
      </trkpt>
      <trkpt lat="43.24251" lon="0.90995">
        <ele>287</ele>
        <time>2019-02-17T10:48:48.000Z</time>
      </trkpt>
      <trkpt lat="43.2425" lon="0.90998">
        <ele>287</ele>
        <time>2019-02-17T10:48:50.000Z</time>
      </trkpt>
      <trkpt lat="43.2425" lon="0.91001">
        <ele>287</ele>
        <time>2019-02-17T10:48:52.000Z</time>
      </trkpt>
      <trkpt lat="43.24249" lon="0.91005">
        <ele>287</ele>
        <time>2019-02-17T10:48:54.000Z</time>
      </trkpt>
      <trkpt lat="43.24249" lon="0.91008">
        <ele>287</ele>
        <time>2019-02-17T10:48:56.000Z</time>
      </trkpt>
      <trkpt lat="43.24249" lon="0.91011">
        <ele>287</ele>
        <time>2019-02-17T10:48:58.000Z</time>
      </trkpt>
      <trkpt lat="43.24247" lon="0.91014">
        <ele>287</ele>
        <time>2019-02-17T10:49:00.000Z</time>
      </trkpt>
      <trkpt lat="43.24246" lon="0.91017">
        <ele>287</ele>
        <time>2019-02-17T10:49:02.000Z</time>
      </trkpt>
      <trkpt lat="43.24244" lon="0.9102">
        <ele>287</ele>
        <time>2019-02-17T10:49:04.000Z</time>
      </trkpt>
      <trkpt lat="43.24243" lon="0.91022">
        <ele>287</ele>
        <time>2019-02-17T10:49:06.000Z</time>
      </trkpt>
      <trkpt lat="43.24241" lon="0.91025">
        <ele>287</ele>
        <time>2019-02-17T10:49:08.000Z</time>
      </trkpt>
      <trkpt lat="43.24239" lon="0.91027">
        <ele>287</ele>
        <time>2019-02-17T10:49:10.000Z</time>
      </trkpt>
      <trkpt lat="43.24238" lon="0.9103">
        <ele>287</ele>
        <time>2019-02-17T10:49:12.000Z</time>
      </trkpt>
      <trkpt lat="43.24237" lon="0.91032">
        <ele>287</ele>
        <time>2019-02-17T10:49:14.000Z</time>
      </trkpt>
      <trkpt lat="43.24236" lon="0.91034">
        <ele>287</ele>
        <time>2019-02-17T10:49:16.000Z</time>
      </trkpt>
      <trkpt lat="43.24234" lon="0.91036">
        <ele>287</ele>
        <time>2019-02-17T10:49:18.000Z</time>
      </trkpt>
      <trkpt lat="43.24233" lon="0.91039">
        <ele>287</ele>
        <time>2019-02-17T10:49:20.000Z</time>
      </trkpt>
      <trkpt lat="43.24232" lon="0.9104">
        <ele>287</ele>
        <time>2019-02-17T10:49:22.000Z</time>
      </trkpt>
      <trkpt lat="43.2423" lon="0.91043">
        <ele>287</ele>
        <time>2019-02-17T10:49:24.000Z</time>
      </trkpt>
      <trkpt lat="43.24228" lon="0.91045">
        <ele>287</ele>
        <time>2019-02-17T10:49:26.000Z</time>
      </trkpt>
      <trkpt lat="43.24226" lon="0.91047">
        <ele>288</ele>
        <time>2019-02-17T10:49:28.000Z</time>
      </trkpt>
      <trkpt lat="43.24224" lon="0.91049">
        <ele>288</ele>
        <time>2019-02-17T10:49:30.000Z</time>
      </trkpt>
      <trkpt lat="43.24223" lon="0.91052">
        <ele>288</ele>
        <time>2019-02-17T10:49:32.000Z</time>
      </trkpt>
      <trkpt lat="43.24221" lon="0.91054">
        <ele>288</ele>
        <time>2019-02-17T10:49:34.000Z</time>
      </trkpt>
      <trkpt lat="43.24219" lon="0.91056">
        <ele>288</ele>
        <time>2019-02-17T10:49:36.000Z</time>
      </trkpt>
      <trkpt lat="43.24218" lon="0.91058">
        <ele>288</ele>
        <time>2019-02-17T10:49:38.000Z</time>
      </trkpt>
      <trkpt lat="43.24215" lon="0.9106">
        <ele>288</ele>
        <time>2019-02-17T10:49:40.000Z</time>
      </trkpt>
      <trkpt lat="43.24214" lon="0.91062">
        <ele>288</ele>
        <time>2019-02-17T10:49:42.000Z</time>
      </trkpt>
      <trkpt lat="43.24213" lon="0.91064">
        <ele>288</ele>
        <time>2019-02-17T10:49:44.000Z</time>
      </trkpt>
      <trkpt lat="43.24211" lon="0.91066">
        <ele>288</ele>
        <time>2019-02-17T10:49:46.000Z</time>
      </trkpt>
      <trkpt lat="43.2421" lon="0.91068">
        <ele>288</ele>
        <time>2019-02-17T10:49:48.000Z</time>
      </trkpt>
      <trkpt lat="43.24208" lon="0.9107">
        <ele>288</ele>
        <time>2019-02-17T10:49:50.000Z</time>
      </trkpt>
      <trkpt lat="43.24206" lon="0.91072">
        <ele>288</ele>
        <time>2019-02-17T10:49:52.000Z</time>
      </trkpt>
      <trkpt lat="43.24204" lon="0.91074">
        <ele>288</ele>
        <time>2019-02-17T10:49:54.000Z</time>
      </trkpt>
      <trkpt lat="43.24203" lon="0.91076">
        <ele>289</ele>
        <time>2019-02-17T10:49:56.000Z</time>
      </trkpt>
      <trkpt lat="43.24201" lon="0.91078">
        <ele>289</ele>
        <time>2019-02-17T10:49:58.000Z</time>
      </trkpt>
      <trkpt lat="43.24199" lon="0.91079">
        <ele>289</ele>
        <time>2019-02-17T10:50:00.000Z</time>
      </trkpt>
      <trkpt lat="43.24198" lon="0.91081">
        <ele>289</ele>
        <time>2019-02-17T10:50:02.000Z</time>
      </trkpt>
      <trkpt lat="43.24196" lon="0.91082">
        <ele>288</ele>
        <time>2019-02-17T10:50:04.000Z</time>
      </trkpt>
      <trkpt lat="43.24194" lon="0.91083">
        <ele>288</ele>
        <time>2019-02-17T10:50:06.000Z</time>
      </trkpt>
      <trkpt lat="43.24192" lon="0.91085">
        <ele>288</ele>
        <time>2019-02-17T10:50:08.000Z</time>
      </trkpt>
      <trkpt lat="43.2419" lon="0.91086">
        <ele>288</ele>
        <time>2019-02-17T10:50:10.000Z</time>
      </trkpt>
      <trkpt lat="43.24189" lon="0.91088">
        <ele>288</ele>
        <time>2019-02-17T10:50:12.000Z</time>
      </trkpt>
      <trkpt lat="43.24187" lon="0.91089">
        <ele>288</ele>
        <time>2019-02-17T10:50:14.000Z</time>
      </trkpt>
      <trkpt lat="43.24186" lon="0.91089">
        <ele>288</ele>
        <time>2019-02-17T10:50:16.000Z</time>
      </trkpt>
      <trkpt lat="43.24183" lon="0.91091">
        <ele>288</ele>
        <time>2019-02-17T10:50:18.000Z</time>
      </trkpt>
      <trkpt lat="43.24181" lon="0.91092">
        <ele>288</ele>
        <time>2019-02-17T10:50:20.000Z</time>
      </trkpt>
      <trkpt lat="43.24179" lon="0.91093">
        <ele>288</ele>
        <time>2019-02-17T10:50:22.000Z</time>
      </trkpt>
      <trkpt lat="43.24177" lon="0.91094">
        <ele>288</ele>
        <time>2019-02-17T10:50:24.000Z</time>
      </trkpt>
      <trkpt lat="43.24175" lon="0.91095">
        <ele>288</ele>
        <time>2019-02-17T10:50:26.000Z</time>
      </trkpt>
      <trkpt lat="43.24174" lon="0.91096">
        <ele>288</ele>
        <time>2019-02-17T10:50:28.000Z</time>
      </trkpt>
      <trkpt lat="43.24172" lon="0.91098">
        <ele>288</ele>
        <time>2019-02-17T10:50:30.000Z</time>
      </trkpt>
      <trkpt lat="43.2417" lon="0.91099">
        <ele>288</ele>
        <time>2019-02-17T10:50:32.000Z</time>
      </trkpt>
      <trkpt lat="43.24167" lon="0.911">
        <ele>288</ele>
        <time>2019-02-17T10:50:34.000Z</time>
      </trkpt>
      <trkpt lat="43.24165" lon="0.91102">
        <ele>288</ele>
        <time>2019-02-17T10:50:36.000Z</time>
      </trkpt>
      <trkpt lat="43.24163" lon="0.91103">
        <ele>288</ele>
        <time>2019-02-17T10:50:38.000Z</time>
      </trkpt>
      <trkpt lat="43.24161" lon="0.91105">
        <ele>288</ele>
        <time>2019-02-17T10:50:40.000Z</time>
      </trkpt>
      <trkpt lat="43.24159" lon="0.91106">
        <ele>289</ele>
        <time>2019-02-17T10:50:42.000Z</time>
      </trkpt>
      <trkpt lat="43.24157" lon="0.91108">
        <ele>289</ele>
        <time>2019-02-17T10:50:44.000Z</time>
      </trkpt>
      <trkpt lat="43.24155" lon="0.91109">
        <ele>289</ele>
        <time>2019-02-17T10:50:46.000Z</time>
      </trkpt>
      <trkpt lat="43.24153" lon="0.9111">
        <ele>289</ele>
        <time>2019-02-17T10:50:48.000Z</time>
      </trkpt>
      <trkpt lat="43.2415" lon="0.91111">
        <ele>289</ele>
        <time>2019-02-17T10:50:50.000Z</time>
      </trkpt>
      <trkpt lat="43.24148" lon="0.91112">
        <ele>289</ele>
        <time>2019-02-17T10:50:52.000Z</time>
      </trkpt>
      <trkpt lat="43.24146" lon="0.91112">
        <ele>289</ele>
        <time>2019-02-17T10:50:54.000Z</time>
      </trkpt>
      <trkpt lat="43.24145" lon="0.91113">
        <ele>289</ele>
        <time>2019-02-17T10:50:56.000Z</time>
      </trkpt>
      <trkpt lat="43.24143" lon="0.91114">
        <ele>289</ele>
        <time>2019-02-17T10:50:58.000Z</time>
      </trkpt>
      <trkpt lat="43.24142" lon="0.91115">
        <ele>289</ele>
        <time>2019-02-17T10:51:00.000Z</time>
      </trkpt>
      <trkpt lat="43.2414" lon="0.91115">
        <ele>289</ele>
        <time>2019-02-17T10:51:02.000Z</time>
      </trkpt>
      <trkpt lat="43.24138" lon="0.91116">
        <ele>289</ele>
        <time>2019-02-17T10:51:04.000Z</time>
      </trkpt>
      <trkpt lat="43.24136" lon="0.91117">
        <ele>289</ele>
        <time>2019-02-17T10:51:06.000Z</time>
      </trkpt>
      <trkpt lat="43.24134" lon="0.91118">
        <ele>289</ele>
        <time>2019-02-17T10:51:08.000Z</time>
      </trkpt>
      <trkpt lat="43.24132" lon="0.91119">
        <ele>289</ele>
        <time>2019-02-17T10:51:10.000Z</time>
      </trkpt>
      <trkpt lat="43.24129" lon="0.91121">
        <ele>289</ele>
        <time>2019-02-17T10:51:12.000Z</time>
      </trkpt>
      <trkpt lat="43.24128" lon="0.91122">
        <ele>289</ele>
        <time>2019-02-17T10:51:14.000Z</time>
      </trkpt>
      <trkpt lat="43.24125" lon="0.91124">
        <ele>289</ele>
        <time>2019-02-17T10:51:16.000Z</time>
      </trkpt>
      <trkpt lat="43.24123" lon="0.91124">
        <ele>289</ele>
        <time>2019-02-17T10:51:18.000Z</time>
      </trkpt>
      <trkpt lat="43.24121" lon="0.91126">
        <ele>288</ele>
        <time>2019-02-17T10:51:20.000Z</time>
      </trkpt>
      <trkpt lat="43.2412" lon="0.91128">
        <ele>288</ele>
        <time>2019-02-17T10:51:22.000Z</time>
      </trkpt>
      <trkpt lat="43.24118" lon="0.9113">
        <ele>288</ele>
        <time>2019-02-17T10:51:24.000Z</time>
      </trkpt>
      <trkpt lat="43.24116" lon="0.91131">
        <ele>288</ele>
        <time>2019-02-17T10:51:26.000Z</time>
      </trkpt>
      <trkpt lat="43.24113" lon="0.91132">
        <ele>288</ele>
        <time>2019-02-17T10:51:28.000Z</time>
      </trkpt>
      <trkpt lat="43.24112" lon="0.91133">
        <ele>288</ele>
        <time>2019-02-17T10:51:30.000Z</time>
      </trkpt>
      <trkpt lat="43.24109" lon="0.91134">
        <ele>288</ele>
        <time>2019-02-17T10:51:32.000Z</time>
      </trkpt>
      <trkpt lat="43.24108" lon="0.91134">
        <ele>288</ele>
        <time>2019-02-17T10:51:34.000Z</time>
      </trkpt>
      <trkpt lat="43.24106" lon="0.91135">
        <ele>288</ele>
        <time>2019-02-17T10:51:36.000Z</time>
      </trkpt>
      <trkpt lat="43.24104" lon="0.91136">
        <ele>288</ele>
        <time>2019-02-17T10:51:38.000Z</time>
      </trkpt>
      <trkpt lat="43.24102" lon="0.91137">
        <ele>288</ele>
        <time>2019-02-17T10:51:40.000Z</time>
      </trkpt>
      <trkpt lat="43.24101" lon="0.91138">
        <ele>288</ele>
        <time>2019-02-17T10:51:42.000Z</time>
      </trkpt>
      <trkpt lat="43.24099" lon="0.91139">
        <ele>288</ele>
        <time>2019-02-17T10:51:44.000Z</time>
      </trkpt>
      <trkpt lat="43.24097" lon="0.91139">
        <ele>288</ele>
        <time>2019-02-17T10:51:46.000Z</time>
      </trkpt>
      <trkpt lat="43.24095" lon="0.9114">
        <ele>288</ele>
        <time>2019-02-17T10:51:48.000Z</time>
      </trkpt>
      <trkpt lat="43.24094" lon="0.91141">
        <ele>288</ele>
        <time>2019-02-17T10:51:50.000Z</time>
      </trkpt>
      <trkpt lat="43.24092" lon="0.91142">
        <ele>288</ele>
        <time>2019-02-17T10:51:52.000Z</time>
      </trkpt>
      <trkpt lat="43.2409" lon="0.91142">
        <ele>288</ele>
        <time>2019-02-17T10:51:54.000Z</time>
      </trkpt>
      <trkpt lat="43.24088" lon="0.91143">
        <ele>288</ele>
        <time>2019-02-17T10:51:56.000Z</time>
      </trkpt>
      <trkpt lat="43.24087" lon="0.91144">
        <ele>288</ele>
        <time>2019-02-17T10:51:58.000Z</time>
      </trkpt>
      <trkpt lat="43.24086" lon="0.91145">
        <ele>288</ele>
        <time>2019-02-17T10:52:00.000Z</time>
      </trkpt>
      <trkpt lat="43.24085" lon="0.91147">
        <ele>288</ele>
        <time>2019-02-17T10:52:02.000Z</time>
      </trkpt>
      <trkpt lat="43.24082" lon="0.91148">
        <ele>288</ele>
        <time>2019-02-17T10:52:04.000Z</time>
      </trkpt>
      <trkpt lat="43.24081" lon="0.91149">
        <ele>288</ele>
        <time>2019-02-17T10:52:06.000Z</time>
      </trkpt>
      <trkpt lat="43.24078" lon="0.9115">
        <ele>288</ele>
        <time>2019-02-17T10:52:08.000Z</time>
      </trkpt>
      <trkpt lat="43.24076" lon="0.91151">
        <ele>288</ele>
        <time>2019-02-17T10:52:10.000Z</time>
      </trkpt>
      <trkpt lat="43.24075" lon="0.91151">
        <ele>288</ele>
        <time>2019-02-17T10:52:12.000Z</time>
      </trkpt>
      <trkpt lat="43.24072" lon="0.91152">
        <ele>289</ele>
        <time>2019-02-17T10:52:14.000Z</time>
      </trkpt>
      <trkpt lat="43.2407" lon="0.91153">
        <ele>289</ele>
        <time>2019-02-17T10:52:16.000Z</time>
      </trkpt>
      <trkpt lat="43.24068" lon="0.91153">
        <ele>289</ele>
        <time>2019-02-17T10:52:18.000Z</time>
      </trkpt>
      <trkpt lat="43.24066" lon="0.91154">
        <ele>289</ele>
        <time>2019-02-17T10:52:20.000Z</time>
      </trkpt>
      <trkpt lat="43.24063" lon="0.91154">
        <ele>289</ele>
        <time>2019-02-17T10:52:22.000Z</time>
      </trkpt>
      <trkpt lat="43.24061" lon="0.91155">
        <ele>289</ele>
        <time>2019-02-17T10:52:24.000Z</time>
      </trkpt>
      <trkpt lat="43.24058" lon="0.91157">
        <ele>289</ele>
        <time>2019-02-17T10:52:26.000Z</time>
      </trkpt>
      <trkpt lat="43.24056" lon="0.91157">
        <ele>289</ele>
        <time>2019-02-17T10:52:28.000Z</time>
      </trkpt>
      <trkpt lat="43.24054" lon="0.91158">
        <ele>289</ele>
        <time>2019-02-17T10:52:30.000Z</time>
      </trkpt>
      <trkpt lat="43.24051" lon="0.91159">
        <ele>289</ele>
        <time>2019-02-17T10:52:32.000Z</time>
      </trkpt>
      <trkpt lat="43.24049" lon="0.9116">
        <ele>289</ele>
        <time>2019-02-17T10:52:34.000Z</time>
      </trkpt>
      <trkpt lat="43.24047" lon="0.91162">
        <ele>289</ele>
        <time>2019-02-17T10:52:36.000Z</time>
      </trkpt>
      <trkpt lat="43.24045" lon="0.91162">
        <ele>289</ele>
        <time>2019-02-17T10:52:38.000Z</time>
      </trkpt>
      <trkpt lat="43.24043" lon="0.91162">
        <ele>290</ele>
        <time>2019-02-17T10:52:40.000Z</time>
      </trkpt>
      <trkpt lat="43.24041" lon="0.91163">
        <ele>290</ele>
        <time>2019-02-17T10:52:42.000Z</time>
      </trkpt>
      <trkpt lat="43.24039" lon="0.91163">
        <ele>290</ele>
        <time>2019-02-17T10:52:44.000Z</time>
      </trkpt>
      <trkpt lat="43.24037" lon="0.91163">
        <ele>290</ele>
        <time>2019-02-17T10:52:46.000Z</time>
      </trkpt>
      <trkpt lat="43.24035" lon="0.91163">
        <ele>290</ele>
        <time>2019-02-17T10:52:48.000Z</time>
      </trkpt>
      <trkpt lat="43.24032" lon="0.91164">
        <ele>290</ele>
        <time>2019-02-17T10:52:50.000Z</time>
      </trkpt>
      <trkpt lat="43.2403" lon="0.91165">
        <ele>290</ele>
        <time>2019-02-17T10:52:52.000Z</time>
      </trkpt>
      <trkpt lat="43.24028" lon="0.91166">
        <ele>290</ele>
        <time>2019-02-17T10:52:54.000Z</time>
      </trkpt>
      <trkpt lat="43.24025" lon="0.91167">
        <ele>290</ele>
        <time>2019-02-17T10:52:56.000Z</time>
      </trkpt>
      <trkpt lat="43.24023" lon="0.91168">
        <ele>290</ele>
        <time>2019-02-17T10:52:58.000Z</time>
      </trkpt>
      <trkpt lat="43.24021" lon="0.91168">
        <ele>290</ele>
        <time>2019-02-17T10:53:00.000Z</time>
      </trkpt>
      <trkpt lat="43.24019" lon="0.91169">
        <ele>290</ele>
        <time>2019-02-17T10:53:02.000Z</time>
      </trkpt>
      <trkpt lat="43.24017" lon="0.91169">
        <ele>290</ele>
        <time>2019-02-17T10:53:04.000Z</time>
      </trkpt>
      <trkpt lat="43.24015" lon="0.9117">
        <ele>290</ele>
        <time>2019-02-17T10:53:06.000Z</time>
      </trkpt>
      <trkpt lat="43.24013" lon="0.91171">
        <ele>290</ele>
        <time>2019-02-17T10:53:08.000Z</time>
      </trkpt>
      <trkpt lat="43.2401" lon="0.91172">
        <ele>291</ele>
        <time>2019-02-17T10:53:10.000Z</time>
      </trkpt>
      <trkpt lat="43.24008" lon="0.91173">
        <ele>291</ele>
        <time>2019-02-17T10:53:12.000Z</time>
      </trkpt>
      <trkpt lat="43.24006" lon="0.91174">
        <ele>291</ele>
        <time>2019-02-17T10:53:14.000Z</time>
      </trkpt>
      <trkpt lat="43.24004" lon="0.91175">
        <ele>291</ele>
        <time>2019-02-17T10:53:16.000Z</time>
      </trkpt>
      <trkpt lat="43.24002" lon="0.91176">
        <ele>291</ele>
        <time>2019-02-17T10:53:18.000Z</time>
      </trkpt>
      <trkpt lat="43.24" lon="0.91177">
        <ele>291</ele>
        <time>2019-02-17T10:53:20.000Z</time>
      </trkpt>
      <trkpt lat="43.23998" lon="0.91178">
        <ele>291</ele>
        <time>2019-02-17T10:53:22.000Z</time>
      </trkpt>
      <trkpt lat="43.23995" lon="0.91179">
        <ele>291</ele>
        <time>2019-02-17T10:53:24.000Z</time>
      </trkpt>
      <trkpt lat="43.23993" lon="0.9118">
        <ele>292</ele>
        <time>2019-02-17T10:53:26.000Z</time>
      </trkpt>
      <trkpt lat="43.23991" lon="0.91181">
        <ele>292</ele>
        <time>2019-02-17T10:53:28.000Z</time>
      </trkpt>
      <trkpt lat="43.23988" lon="0.91182">
        <ele>292</ele>
        <time>2019-02-17T10:53:30.000Z</time>
      </trkpt>
      <trkpt lat="43.23986" lon="0.91183">
        <ele>292</ele>
        <time>2019-02-17T10:53:32.000Z</time>
      </trkpt>
      <trkpt lat="43.23984" lon="0.91184">
        <ele>292</ele>
        <time>2019-02-17T10:53:34.000Z</time>
      </trkpt>
      <trkpt lat="43.23983" lon="0.91185">
        <ele>292</ele>
        <time>2019-02-17T10:53:36.000Z</time>
      </trkpt>
      <trkpt lat="43.23981" lon="0.91185">
        <ele>292</ele>
        <time>2019-02-17T10:53:38.000Z</time>
      </trkpt>
      <trkpt lat="43.23979" lon="0.91186">
        <ele>292</ele>
        <time>2019-02-17T10:53:40.000Z</time>
      </trkpt>
      <trkpt lat="43.23978" lon="0.91187">
        <ele>292</ele>
        <time>2019-02-17T10:53:42.000Z</time>
      </trkpt>
      <trkpt lat="43.23976" lon="0.91188">
        <ele>292</ele>
        <time>2019-02-17T10:53:44.000Z</time>
      </trkpt>
      <trkpt lat="43.23975" lon="0.91189">
        <ele>292</ele>
        <time>2019-02-17T10:53:46.000Z</time>
      </trkpt>
      <trkpt lat="43.23973" lon="0.9119">
        <ele>292</ele>
        <time>2019-02-17T10:53:48.000Z</time>
      </trkpt>
      <trkpt lat="43.23972" lon="0.91192">
        <ele>292</ele>
        <time>2019-02-17T10:53:50.000Z</time>
      </trkpt>
      <trkpt lat="43.23971" lon="0.91194">
        <ele>292</ele>
        <time>2019-02-17T10:53:52.000Z</time>
      </trkpt>
      <trkpt lat="43.2397" lon="0.91197">
        <ele>292</ele>
        <time>2019-02-17T10:53:54.000Z</time>
      </trkpt>
      <trkpt lat="43.23969" lon="0.912">
        <ele>291</ele>
        <time>2019-02-17T10:53:56.000Z</time>
      </trkpt>
      <trkpt lat="43.23969" lon="0.91202">
        <ele>291</ele>
        <time>2019-02-17T10:53:58.000Z</time>
      </trkpt>
      <trkpt lat="43.23968" lon="0.91203">
        <ele>291</ele>
        <time>2019-02-17T10:54:00.000Z</time>
      </trkpt>
      <trkpt lat="43.23969" lon="0.91204">
        <ele>291</ele>
        <time>2019-02-17T10:54:02.000Z</time>
      </trkpt>
      <trkpt lat="43.23969" lon="0.91204">
        <ele>291</ele>
        <time>2019-02-17T10:54:04.000Z</time>
      </trkpt>
      <trkpt lat="43.23969" lon="0.91204">
        <ele>291</ele>
        <time>2019-02-17T10:54:06.000Z</time>
      </trkpt>
      <trkpt lat="43.23969" lon="0.91204">
        <ele>291</ele>
        <time>2019-02-17T10:54:08.000Z</time>
      </trkpt>
      <trkpt lat="43.23969" lon="0.91204">
        <ele>291</ele>
        <time>2019-02-17T10:54:10.000Z</time>
      </trkpt>
      <trkpt lat="43.23969" lon="0.91204">
        <ele>291</ele>
        <time>2019-02-17T10:54:12.000Z</time>
      </trkpt>
      <trkpt lat="43.23969" lon="0.91205">
        <ele>291</ele>
        <time>2019-02-17T10:54:14.000Z</time>
      </trkpt>
      <trkpt lat="43.2397" lon="0.91205">
        <ele>291</ele>
        <time>2019-02-17T10:54:16.000Z</time>
      </trkpt>
      <trkpt lat="43.23969" lon="0.91206">
        <ele>291</ele>
        <time>2019-02-17T10:54:18.000Z</time>
      </trkpt>
      <trkpt lat="43.23969" lon="0.91206">
        <ele>291</ele>
        <time>2019-02-17T10:54:20.000Z</time>
      </trkpt>
      <trkpt lat="43.23968" lon="0.91206">
        <ele>291</ele>
        <time>2019-02-17T10:54:22.000Z</time>
      </trkpt>
      <trkpt lat="43.23968" lon="0.91207">
        <ele>291</ele>
        <time>2019-02-17T10:54:24.000Z</time>
      </trkpt>
      <trkpt lat="43.23967" lon="0.91207">
        <ele>291</ele>
        <time>2019-02-17T10:54:26.000Z</time>
      </trkpt>
      <trkpt lat="43.23966" lon="0.91208">
        <ele>291</ele>
        <time>2019-02-17T10:54:28.000Z</time>
      </trkpt>
      <trkpt lat="43.23966" lon="0.91209">
        <ele>291</ele>
        <time>2019-02-17T10:54:30.000Z</time>
      </trkpt>
      <trkpt lat="43.23966" lon="0.91209">
        <ele>291</ele>
        <time>2019-02-17T10:54:32.000Z</time>
      </trkpt>
      <trkpt lat="43.23965" lon="0.91209">
        <ele>291</ele>
        <time>2019-02-17T10:54:34.000Z</time>
      </trkpt>
      <trkpt lat="43.23965" lon="0.91209">
        <ele>291</ele>
        <time>2019-02-17T10:54:36.000Z</time>
      </trkpt>
      <trkpt lat="43.23965" lon="0.9121">
        <ele>291</ele>
        <time>2019-02-17T10:54:38.000Z</time>
      </trkpt>
      <trkpt lat="43.23964" lon="0.9121">
        <ele>290</ele>
        <time>2019-02-17T10:54:40.000Z</time>
      </trkpt>
      <trkpt lat="43.23964" lon="0.91211">
        <ele>290</ele>
        <time>2019-02-17T10:54:42.000Z</time>
      </trkpt>
      <trkpt lat="43.23964" lon="0.91212">
        <ele>290</ele>
        <time>2019-02-17T10:54:44.000Z</time>
      </trkpt>
      <trkpt lat="43.23962" lon="0.91212">
        <ele>290</ele>
        <time>2019-02-17T10:54:46.000Z</time>
      </trkpt>
      <trkpt lat="43.23961" lon="0.91213">
        <ele>290</ele>
        <time>2019-02-17T10:54:48.000Z</time>
      </trkpt>
      <trkpt lat="43.23959" lon="0.91215">
        <ele>290</ele>
        <time>2019-02-17T10:54:50.000Z</time>
      </trkpt>
      <trkpt lat="43.23957" lon="0.91216">
        <ele>290</ele>
        <time>2019-02-17T10:54:52.000Z</time>
      </trkpt>
      <trkpt lat="43.23956" lon="0.91217">
        <ele>290</ele>
        <time>2019-02-17T10:54:54.000Z</time>
      </trkpt>
      <trkpt lat="43.23955" lon="0.91218">
        <ele>290</ele>
        <time>2019-02-17T10:54:56.000Z</time>
      </trkpt>
      <trkpt lat="43.23953" lon="0.91219">
        <ele>290</ele>
        <time>2019-02-17T10:54:58.000Z</time>
      </trkpt>
      <trkpt lat="43.23952" lon="0.9122">
        <ele>290</ele>
        <time>2019-02-17T10:55:00.000Z</time>
      </trkpt>
      <trkpt lat="43.23951" lon="0.91221">
        <ele>290</ele>
        <time>2019-02-17T10:55:02.000Z</time>
      </trkpt>
      <trkpt lat="43.2395" lon="0.91221">
        <ele>290</ele>
        <time>2019-02-17T10:55:04.000Z</time>
      </trkpt>
      <trkpt lat="43.23949" lon="0.9122">
        <ele>290</ele>
        <time>2019-02-17T10:55:06.000Z</time>
      </trkpt>
      <trkpt lat="43.23948" lon="0.9122">
        <ele>290</ele>
        <time>2019-02-17T10:55:08.000Z</time>
      </trkpt>
      <trkpt lat="43.23946" lon="0.91218">
        <ele>291</ele>
        <time>2019-02-17T10:55:10.000Z</time>
      </trkpt>
      <trkpt lat="43.23945" lon="0.91217">
        <ele>291</ele>
        <time>2019-02-17T10:55:12.000Z</time>
      </trkpt>
      <trkpt lat="43.23943" lon="0.91215">
        <ele>291</ele>
        <time>2019-02-17T10:55:14.000Z</time>
      </trkpt>
      <trkpt lat="43.23941" lon="0.91214">
        <ele>291</ele>
        <time>2019-02-17T10:55:16.000Z</time>
      </trkpt>
      <trkpt lat="43.23939" lon="0.91213">
        <ele>292</ele>
        <time>2019-02-17T10:55:18.000Z</time>
      </trkpt>
      <trkpt lat="43.23937" lon="0.91212">
        <ele>292</ele>
        <time>2019-02-17T10:55:20.000Z</time>
      </trkpt>
      <trkpt lat="43.23935" lon="0.9121">
        <ele>292</ele>
        <time>2019-02-17T10:55:22.000Z</time>
      </trkpt>
      <trkpt lat="43.23934" lon="0.91208">
        <ele>293</ele>
        <time>2019-02-17T10:55:24.000Z</time>
      </trkpt>
      <trkpt lat="43.23932" lon="0.91206">
        <ele>293</ele>
        <time>2019-02-17T10:55:26.000Z</time>
      </trkpt>
      <trkpt lat="43.2393" lon="0.91205">
        <ele>293</ele>
        <time>2019-02-17T10:55:28.000Z</time>
      </trkpt>
      <trkpt lat="43.23928" lon="0.91204">
        <ele>293</ele>
        <time>2019-02-17T10:55:30.000Z</time>
      </trkpt>
      <trkpt lat="43.23927" lon="0.91202">
        <ele>294</ele>
        <time>2019-02-17T10:55:32.000Z</time>
      </trkpt>
      <trkpt lat="43.23925" lon="0.912">
        <ele>294</ele>
        <time>2019-02-17T10:55:34.000Z</time>
      </trkpt>
      <trkpt lat="43.23923" lon="0.91199">
        <ele>294</ele>
        <time>2019-02-17T10:55:36.000Z</time>
      </trkpt>
      <trkpt lat="43.23921" lon="0.91197">
        <ele>294</ele>
        <time>2019-02-17T10:55:38.000Z</time>
      </trkpt>
      <trkpt lat="43.23919" lon="0.91197">
        <ele>294</ele>
        <time>2019-02-17T10:55:40.000Z</time>
      </trkpt>
      <trkpt lat="43.23918" lon="0.91195">
        <ele>295</ele>
        <time>2019-02-17T10:55:42.000Z</time>
      </trkpt>
      <trkpt lat="43.23916" lon="0.91195">
        <ele>295</ele>
        <time>2019-02-17T10:55:44.000Z</time>
      </trkpt>
      <trkpt lat="43.23914" lon="0.91194">
        <ele>295</ele>
        <time>2019-02-17T10:55:46.000Z</time>
      </trkpt>
      <trkpt lat="43.23911" lon="0.91194">
        <ele>295</ele>
        <time>2019-02-17T10:55:48.000Z</time>
      </trkpt>
      <trkpt lat="43.23909" lon="0.91194">
        <ele>295</ele>
        <time>2019-02-17T10:55:50.000Z</time>
      </trkpt>
      <trkpt lat="43.23907" lon="0.91194">
        <ele>295</ele>
        <time>2019-02-17T10:55:52.000Z</time>
      </trkpt>
      <trkpt lat="43.23906" lon="0.91193">
        <ele>295</ele>
        <time>2019-02-17T10:55:54.000Z</time>
      </trkpt>
      <trkpt lat="43.23905" lon="0.91192">
        <ele>295</ele>
        <time>2019-02-17T10:55:56.000Z</time>
      </trkpt>
      <trkpt lat="43.23905" lon="0.91192">
        <ele>295</ele>
        <time>2019-02-17T10:55:58.000Z</time>
      </trkpt>
      <trkpt lat="43.23905" lon="0.91192">
        <ele>295</ele>
        <time>2019-02-17T10:56:00.000Z</time>
      </trkpt>
      <trkpt lat="43.23905" lon="0.91192">
        <ele>295</ele>
        <time>2019-02-17T10:56:02.000Z</time>
      </trkpt>
      <trkpt lat="43.23905" lon="0.9119">
        <ele>295</ele>
        <time>2019-02-17T10:56:04.000Z</time>
      </trkpt>
      <trkpt lat="43.23904" lon="0.91188">
        <ele>296</ele>
        <time>2019-02-17T10:56:06.000Z</time>
      </trkpt>
      <trkpt lat="43.23903" lon="0.91187">
        <ele>296</ele>
        <time>2019-02-17T10:56:08.000Z</time>
      </trkpt>
      <trkpt lat="43.23901" lon="0.91186">
        <ele>296</ele>
        <time>2019-02-17T10:56:10.000Z</time>
      </trkpt>
      <trkpt lat="43.239" lon="0.91185">
        <ele>296</ele>
        <time>2019-02-17T10:56:12.000Z</time>
      </trkpt>
      <trkpt lat="43.239" lon="0.91184">
        <ele>296</ele>
        <time>2019-02-17T10:56:14.000Z</time>
      </trkpt>
      <trkpt lat="43.23902" lon="0.91183">
        <ele>296</ele>
        <time>2019-02-17T10:56:16.000Z</time>
      </trkpt>
      <trkpt lat="43.23903" lon="0.91183">
        <ele>296</ele>
        <time>2019-02-17T10:56:18.000Z</time>
      </trkpt>
      <trkpt lat="43.23905" lon="0.91182">
        <ele>296</ele>
        <time>2019-02-17T10:56:20.000Z</time>
      </trkpt>
      <trkpt lat="43.23906" lon="0.91182">
        <ele>296</ele>
        <time>2019-02-17T10:56:22.000Z</time>
      </trkpt>
      <trkpt lat="43.23906" lon="0.91181">
        <ele>296</ele>
        <time>2019-02-17T10:56:24.000Z</time>
      </trkpt>
      <trkpt lat="43.23906" lon="0.91181">
        <ele>296</ele>
        <time>2019-02-17T10:56:26.000Z</time>
      </trkpt>
      <trkpt lat="43.23907" lon="0.91181">
        <ele>296</ele>
        <time>2019-02-17T10:56:28.000Z</time>
      </trkpt>
      <trkpt lat="43.23908" lon="0.91181">
        <ele>296</ele>
        <time>2019-02-17T10:56:30.000Z</time>
      </trkpt>
      <trkpt lat="43.23909" lon="0.91181">
        <ele>296</ele>
        <time>2019-02-17T10:56:32.000Z</time>
      </trkpt>
      <trkpt lat="43.2391" lon="0.91181">
        <ele>296</ele>
        <time>2019-02-17T10:56:34.000Z</time>
      </trkpt>
      <trkpt lat="43.23911" lon="0.91181">
        <ele>296</ele>
        <time>2019-02-17T10:56:36.000Z</time>
      </trkpt>
      <trkpt lat="43.23912" lon="0.91181">
        <ele>296</ele>
        <time>2019-02-17T10:56:38.000Z</time>
      </trkpt>
      <trkpt lat="43.23913" lon="0.91181">
        <ele>296</ele>
        <time>2019-02-17T10:56:40.000Z</time>
      </trkpt>
      <trkpt lat="43.23913" lon="0.91182">
        <ele>296</ele>
        <time>2019-02-17T10:56:42.000Z</time>
      </trkpt>
      <trkpt lat="43.23913" lon="0.91182">
        <ele>296</ele>
        <time>2019-02-17T10:56:44.000Z</time>
      </trkpt>
      <trkpt lat="43.23913" lon="0.91183">
        <ele>296</ele>
        <time>2019-02-17T10:56:46.000Z</time>
      </trkpt>
      <trkpt lat="43.23913" lon="0.91184">
        <ele>296</ele>
        <time>2019-02-17T10:56:48.000Z</time>
      </trkpt>
      <trkpt lat="43.23916" lon="0.91185">
        <ele>296</ele>
        <time>2019-02-17T10:56:50.000Z</time>
      </trkpt>
      <trkpt lat="43.23917" lon="0.91185">
        <ele>296</ele>
        <time>2019-02-17T10:56:52.000Z</time>
      </trkpt>
      <trkpt lat="43.23919" lon="0.91186">
        <ele>296</ele>
        <time>2019-02-17T10:56:54.000Z</time>
      </trkpt>
      <trkpt lat="43.2392" lon="0.91186">
        <ele>296</ele>
        <time>2019-02-17T10:56:56.000Z</time>
      </trkpt>
      <trkpt lat="43.23922" lon="0.91188">
        <ele>295</ele>
        <time>2019-02-17T10:56:58.000Z</time>
      </trkpt>
      <trkpt lat="43.23923" lon="0.91188">
        <ele>295</ele>
        <time>2019-02-17T10:57:00.000Z</time>
      </trkpt>
      <trkpt lat="43.23924" lon="0.91189">
        <ele>295</ele>
        <time>2019-02-17T10:57:02.000Z</time>
      </trkpt>
      <trkpt lat="43.23926" lon="0.91189">
        <ele>295</ele>
        <time>2019-02-17T10:57:04.000Z</time>
      </trkpt>
      <trkpt lat="43.23927" lon="0.9119">
        <ele>295</ele>
        <time>2019-02-17T10:57:06.000Z</time>
      </trkpt>
      <trkpt lat="43.23928" lon="0.91191">
        <ele>295</ele>
        <time>2019-02-17T10:57:08.000Z</time>
      </trkpt>
      <trkpt lat="43.23929" lon="0.91191">
        <ele>295</ele>
        <time>2019-02-17T10:57:10.000Z</time>
      </trkpt>
      <trkpt lat="43.2393" lon="0.91192">
        <ele>295</ele>
        <time>2019-02-17T10:57:12.000Z</time>
      </trkpt>
      <trkpt lat="43.23932" lon="0.91193">
        <ele>294</ele>
        <time>2019-02-17T10:57:14.000Z</time>
      </trkpt>
      <trkpt lat="43.23933" lon="0.91194">
        <ele>294</ele>
        <time>2019-02-17T10:57:16.000Z</time>
      </trkpt>
      <trkpt lat="43.23934" lon="0.91196">
        <ele>294</ele>
        <time>2019-02-17T10:57:18.000Z</time>
      </trkpt>
      <trkpt lat="43.23936" lon="0.91197">
        <ele>294</ele>
        <time>2019-02-17T10:57:20.000Z</time>
      </trkpt>
      <trkpt lat="43.23937" lon="0.91198">
        <ele>294</ele>
        <time>2019-02-17T10:57:22.000Z</time>
      </trkpt>
      <trkpt lat="43.23939" lon="0.91199">
        <ele>293</ele>
        <time>2019-02-17T10:57:24.000Z</time>
      </trkpt>
      <trkpt lat="43.23941" lon="0.912">
        <ele>293</ele>
        <time>2019-02-17T10:57:26.000Z</time>
      </trkpt>
      <trkpt lat="43.23943" lon="0.91202">
        <ele>293</ele>
        <time>2019-02-17T10:57:28.000Z</time>
      </trkpt>
      <trkpt lat="43.23945" lon="0.91203">
        <ele>293</ele>
        <time>2019-02-17T10:57:30.000Z</time>
      </trkpt>
      <trkpt lat="43.23946" lon="0.91204">
        <ele>292</ele>
        <time>2019-02-17T10:57:32.000Z</time>
      </trkpt>
      <trkpt lat="43.23948" lon="0.91205">
        <ele>292</ele>
        <time>2019-02-17T10:57:34.000Z</time>
      </trkpt>
      <trkpt lat="43.2395" lon="0.91206">
        <ele>292</ele>
        <time>2019-02-17T10:57:36.000Z</time>
      </trkpt>
      <trkpt lat="43.23951" lon="0.91207">
        <ele>292</ele>
        <time>2019-02-17T10:57:38.000Z</time>
      </trkpt>
      <trkpt lat="43.23952" lon="0.91207">
        <ele>292</ele>
        <time>2019-02-17T10:57:40.000Z</time>
      </trkpt>
      <trkpt lat="43.23952" lon="0.91208">
        <ele>291</ele>
        <time>2019-02-17T10:57:42.000Z</time>
      </trkpt>
      <trkpt lat="43.23952" lon="0.91209">
        <ele>291</ele>
        <time>2019-02-17T10:57:44.000Z</time>
      </trkpt>
      <trkpt lat="43.23953" lon="0.9121">
        <ele>291</ele>
        <time>2019-02-17T10:57:46.000Z</time>
      </trkpt>
      <trkpt lat="43.23956" lon="0.91213">
        <ele>291</ele>
        <time>2019-02-17T10:57:49.000Z</time>
      </trkpt>
      <trkpt lat="43.23957" lon="0.91215">
        <ele>290</ele>
        <time>2019-02-17T10:57:51.000Z</time>
      </trkpt>
      <trkpt lat="43.23959" lon="0.91217">
        <ele>290</ele>
        <time>2019-02-17T10:57:53.000Z</time>
      </trkpt>
      <trkpt lat="43.2396" lon="0.91217">
        <ele>290</ele>
        <time>2019-02-17T10:57:55.000Z</time>
      </trkpt>
      <trkpt lat="43.23961" lon="0.91218">
        <ele>290</ele>
        <time>2019-02-17T10:57:57.000Z</time>
      </trkpt>
      <trkpt lat="43.23963" lon="0.91219">
        <ele>289</ele>
        <time>2019-02-17T10:57:59.000Z</time>
      </trkpt>
      <trkpt lat="43.23965" lon="0.91222">
        <ele>289</ele>
        <time>2019-02-17T10:58:01.000Z</time>
      </trkpt>
      <trkpt lat="43.23967" lon="0.91224">
        <ele>289</ele>
        <time>2019-02-17T10:58:03.000Z</time>
      </trkpt>
      <trkpt lat="43.23969" lon="0.91226">
        <ele>289</ele>
        <time>2019-02-17T10:58:05.000Z</time>
      </trkpt>
      <trkpt lat="43.2397" lon="0.91229">
        <ele>288</ele>
        <time>2019-02-17T10:58:07.000Z</time>
      </trkpt>
      <trkpt lat="43.23971" lon="0.91232">
        <ele>288</ele>
        <time>2019-02-17T10:58:09.000Z</time>
      </trkpt>
      <trkpt lat="43.23972" lon="0.91234">
        <ele>288</ele>
        <time>2019-02-17T10:58:11.000Z</time>
      </trkpt>
      <trkpt lat="43.23973" lon="0.91236">
        <ele>288</ele>
        <time>2019-02-17T10:58:13.000Z</time>
      </trkpt>
      <trkpt lat="43.23974" lon="0.91239">
        <ele>288</ele>
        <time>2019-02-17T10:58:15.000Z</time>
      </trkpt>
      <trkpt lat="43.23975" lon="0.91241">
        <ele>288</ele>
        <time>2019-02-17T10:58:17.000Z</time>
      </trkpt>
      <trkpt lat="43.23976" lon="0.91244">
        <ele>288</ele>
        <time>2019-02-17T10:58:19.000Z</time>
      </trkpt>
      <trkpt lat="43.23977" lon="0.91246">
        <ele>288</ele>
        <time>2019-02-17T10:58:21.000Z</time>
      </trkpt>
      <trkpt lat="43.23979" lon="0.91248">
        <ele>287</ele>
        <time>2019-02-17T10:58:23.000Z</time>
      </trkpt>
      <trkpt lat="43.23981" lon="0.91251">
        <ele>287</ele>
        <time>2019-02-17T10:58:25.000Z</time>
      </trkpt>
      <trkpt lat="43.23982" lon="0.91253">
        <ele>287</ele>
        <time>2019-02-17T10:58:27.000Z</time>
      </trkpt>
      <trkpt lat="43.23983" lon="0.91256">
        <ele>287</ele>
        <time>2019-02-17T10:58:29.000Z</time>
      </trkpt>
      <trkpt lat="43.23983" lon="0.91259">
        <ele>287</ele>
        <time>2019-02-17T10:58:31.000Z</time>
      </trkpt>
      <trkpt lat="43.23985" lon="0.91262">
        <ele>287</ele>
        <time>2019-02-17T10:58:33.000Z</time>
      </trkpt>
      <trkpt lat="43.23985" lon="0.91264">
        <ele>287</ele>
        <time>2019-02-17T10:58:35.000Z</time>
      </trkpt>
      <trkpt lat="43.23985" lon="0.91267">
        <ele>287</ele>
        <time>2019-02-17T10:58:37.000Z</time>
      </trkpt>
      <trkpt lat="43.23986" lon="0.9127">
        <ele>286</ele>
        <time>2019-02-17T10:58:39.000Z</time>
      </trkpt>
      <trkpt lat="43.23987" lon="0.91273">
        <ele>286</ele>
        <time>2019-02-17T10:58:41.000Z</time>
      </trkpt>
      <trkpt lat="43.23986" lon="0.91274">
        <ele>286</ele>
        <time>2019-02-17T10:58:43.000Z</time>
      </trkpt>
      <trkpt lat="43.23986" lon="0.91275">
        <ele>286</ele>
        <time>2019-02-17T10:58:45.000Z</time>
      </trkpt>
      <trkpt lat="43.23986" lon="0.91276">
        <ele>286</ele>
        <time>2019-02-17T10:58:47.000Z</time>
      </trkpt>
      <trkpt lat="43.23987" lon="0.91278">
        <ele>286</ele>
        <time>2019-02-17T10:58:49.000Z</time>
      </trkpt>
      <trkpt lat="43.23987" lon="0.9128">
        <ele>286</ele>
        <time>2019-02-17T10:58:51.000Z</time>
      </trkpt>
      <trkpt lat="43.23988" lon="0.91282">
        <ele>286</ele>
        <time>2019-02-17T10:58:53.000Z</time>
      </trkpt>
      <trkpt lat="43.23989" lon="0.91285">
        <ele>286</ele>
        <time>2019-02-17T10:58:55.000Z</time>
      </trkpt>
      <trkpt lat="43.2399" lon="0.91287">
        <ele>286</ele>
        <time>2019-02-17T10:58:57.000Z</time>
      </trkpt>
      <trkpt lat="43.23991" lon="0.91289">
        <ele>285</ele>
        <time>2019-02-17T10:58:59.000Z</time>
      </trkpt>
      <trkpt lat="43.23992" lon="0.91291">
        <ele>285</ele>
        <time>2019-02-17T10:59:01.000Z</time>
      </trkpt>
      <trkpt lat="43.23993" lon="0.91294">
        <ele>285</ele>
        <time>2019-02-17T10:59:03.000Z</time>
      </trkpt>
      <trkpt lat="43.23993" lon="0.91297">
        <ele>285</ele>
        <time>2019-02-17T10:59:05.000Z</time>
      </trkpt>
      <trkpt lat="43.23993" lon="0.91299">
        <ele>285</ele>
        <time>2019-02-17T10:59:07.000Z</time>
      </trkpt>
      <trkpt lat="43.23994" lon="0.91302">
        <ele>284</ele>
        <time>2019-02-17T10:59:09.000Z</time>
      </trkpt>
      <trkpt lat="43.23995" lon="0.91305">
        <ele>284</ele>
        <time>2019-02-17T10:59:11.000Z</time>
      </trkpt>
      <trkpt lat="43.23996" lon="0.91307">
        <ele>284</ele>
        <time>2019-02-17T10:59:13.000Z</time>
      </trkpt>
      <trkpt lat="43.23996" lon="0.9131">
        <ele>284</ele>
        <time>2019-02-17T10:59:15.000Z</time>
      </trkpt>
      <trkpt lat="43.23997" lon="0.91314">
        <ele>284</ele>
        <time>2019-02-17T10:59:17.000Z</time>
      </trkpt>
      <trkpt lat="43.23998" lon="0.91316">
        <ele>284</ele>
        <time>2019-02-17T10:59:19.000Z</time>
      </trkpt>
      <trkpt lat="43.23998" lon="0.91319">
        <ele>284</ele>
        <time>2019-02-17T10:59:21.000Z</time>
      </trkpt>
      <trkpt lat="43.23999" lon="0.91322">
        <ele>284</ele>
        <time>2019-02-17T10:59:23.000Z</time>
      </trkpt>
      <trkpt lat="43.23999" lon="0.91325">
        <ele>284</ele>
        <time>2019-02-17T10:59:25.000Z</time>
      </trkpt>
      <trkpt lat="43.23999" lon="0.91328">
        <ele>284</ele>
        <time>2019-02-17T10:59:27.000Z</time>
      </trkpt>
      <trkpt lat="43.23999" lon="0.91331">
        <ele>284</ele>
        <time>2019-02-17T10:59:29.000Z</time>
      </trkpt>
      <trkpt lat="43.23999" lon="0.91334">
        <ele>284</ele>
        <time>2019-02-17T10:59:31.000Z</time>
      </trkpt>
      <trkpt lat="43.23998" lon="0.91337">
        <ele>284</ele>
        <time>2019-02-17T10:59:33.000Z</time>
      </trkpt>
      <trkpt lat="43.23998" lon="0.9134">
        <ele>284</ele>
        <time>2019-02-17T10:59:35.000Z</time>
      </trkpt>
      <trkpt lat="43.23997" lon="0.91342">
        <ele>284</ele>
        <time>2019-02-17T10:59:37.000Z</time>
      </trkpt>
      <trkpt lat="43.23996" lon="0.91345">
        <ele>284</ele>
        <time>2019-02-17T10:59:39.000Z</time>
      </trkpt>
      <trkpt lat="43.23995" lon="0.91347">
        <ele>284</ele>
        <time>2019-02-17T10:59:41.000Z</time>
      </trkpt>
      <trkpt lat="43.23993" lon="0.9135">
        <ele>283</ele>
        <time>2019-02-17T10:59:43.000Z</time>
      </trkpt>
      <trkpt lat="43.23991" lon="0.91352">
        <ele>283</ele>
        <time>2019-02-17T10:59:45.000Z</time>
      </trkpt>
      <trkpt lat="43.2399" lon="0.91353">
        <ele>283</ele>
        <time>2019-02-17T10:59:47.000Z</time>
      </trkpt>
      <trkpt lat="43.23989" lon="0.91354">
        <ele>283</ele>
        <time>2019-02-17T10:59:49.000Z</time>
      </trkpt>
      <trkpt lat="43.23988" lon="0.91355">
        <ele>283</ele>
        <time>2019-02-17T10:59:51.000Z</time>
      </trkpt>
      <trkpt lat="43.23987" lon="0.91356">
        <ele>283</ele>
        <time>2019-02-17T10:59:53.000Z</time>
      </trkpt>
      <trkpt lat="43.23984" lon="0.91358">
        <ele>283</ele>
        <time>2019-02-17T10:59:55.000Z</time>
      </trkpt>
      <trkpt lat="43.23982" lon="0.9136">
        <ele>283</ele>
        <time>2019-02-17T10:59:57.000Z</time>
      </trkpt>
      <trkpt lat="43.2398" lon="0.91362">
        <ele>283</ele>
        <time>2019-02-17T10:59:59.000Z</time>
      </trkpt>
      <trkpt lat="43.23978" lon="0.91364">
        <ele>283</ele>
        <time>2019-02-17T11:00:01.000Z</time>
      </trkpt>
      <trkpt lat="43.23975" lon="0.91366">
        <ele>283</ele>
        <time>2019-02-17T11:00:03.000Z</time>
      </trkpt>
      <trkpt lat="43.23973" lon="0.91367">
        <ele>283</ele>
        <time>2019-02-17T11:00:05.000Z</time>
      </trkpt>
      <trkpt lat="43.23971" lon="0.91368">
        <ele>283</ele>
        <time>2019-02-17T11:00:07.000Z</time>
      </trkpt>
      <trkpt lat="43.23969" lon="0.9137">
        <ele>283</ele>
        <time>2019-02-17T11:00:09.000Z</time>
      </trkpt>
      <trkpt lat="43.23967" lon="0.91372">
        <ele>283</ele>
        <time>2019-02-17T11:00:11.000Z</time>
      </trkpt>
      <trkpt lat="43.23965" lon="0.91374">
        <ele>283</ele>
        <time>2019-02-17T11:00:13.000Z</time>
      </trkpt>
      <trkpt lat="43.23964" lon="0.91375">
        <ele>283</ele>
        <time>2019-02-17T11:00:15.000Z</time>
      </trkpt>
      <trkpt lat="43.23963" lon="0.91375">
        <ele>283</ele>
        <time>2019-02-17T11:00:17.000Z</time>
      </trkpt>
      <trkpt lat="43.23962" lon="0.91377">
        <ele>283</ele>
        <time>2019-02-17T11:00:19.000Z</time>
      </trkpt>
      <trkpt lat="43.23959" lon="0.9138">
        <ele>283</ele>
        <time>2019-02-17T11:00:21.000Z</time>
      </trkpt>
      <trkpt lat="43.23958" lon="0.91382">
        <ele>283</ele>
        <time>2019-02-17T11:00:23.000Z</time>
      </trkpt>
      <trkpt lat="43.23956" lon="0.91384">
        <ele>283</ele>
        <time>2019-02-17T11:00:25.000Z</time>
      </trkpt>
      <trkpt lat="43.23954" lon="0.91385">
        <ele>283</ele>
        <time>2019-02-17T11:00:27.000Z</time>
      </trkpt>
      <trkpt lat="43.23953" lon="0.91387">
        <ele>283</ele>
        <time>2019-02-17T11:00:29.000Z</time>
      </trkpt>
      <trkpt lat="43.23952" lon="0.91389">
        <ele>283</ele>
        <time>2019-02-17T11:00:31.000Z</time>
      </trkpt>
      <trkpt lat="43.2395" lon="0.9139">
        <ele>283</ele>
        <time>2019-02-17T11:00:33.000Z</time>
      </trkpt>
      <trkpt lat="43.23949" lon="0.91393">
        <ele>283</ele>
        <time>2019-02-17T11:00:35.000Z</time>
      </trkpt>
      <trkpt lat="43.23947" lon="0.91395">
        <ele>283</ele>
        <time>2019-02-17T11:00:37.000Z</time>
      </trkpt>
      <trkpt lat="43.23946" lon="0.91397">
        <ele>283</ele>
        <time>2019-02-17T11:00:39.000Z</time>
      </trkpt>
      <trkpt lat="43.23945" lon="0.914">
        <ele>283</ele>
        <time>2019-02-17T11:00:41.000Z</time>
      </trkpt>
      <trkpt lat="43.23944" lon="0.91402">
        <ele>283</ele>
        <time>2019-02-17T11:00:43.000Z</time>
      </trkpt>
      <trkpt lat="43.23943" lon="0.91404">
        <ele>282</ele>
        <time>2019-02-17T11:00:45.000Z</time>
      </trkpt>
      <trkpt lat="43.23941" lon="0.91407">
        <ele>282</ele>
        <time>2019-02-17T11:00:47.000Z</time>
      </trkpt>
      <trkpt lat="43.23939" lon="0.91409">
        <ele>282</ele>
        <time>2019-02-17T11:00:49.000Z</time>
      </trkpt>
      <trkpt lat="43.23938" lon="0.91411">
        <ele>282</ele>
        <time>2019-02-17T11:00:51.000Z</time>
      </trkpt>
      <trkpt lat="43.23937" lon="0.91414">
        <ele>282</ele>
        <time>2019-02-17T11:00:53.000Z</time>
      </trkpt>
      <trkpt lat="43.23936" lon="0.91416">
        <ele>282</ele>
        <time>2019-02-17T11:00:55.000Z</time>
      </trkpt>
      <trkpt lat="43.23934" lon="0.91419">
        <ele>282</ele>
        <time>2019-02-17T11:00:57.000Z</time>
      </trkpt>
      <trkpt lat="43.23934" lon="0.91421">
        <ele>282</ele>
        <time>2019-02-17T11:00:59.000Z</time>
      </trkpt>
      <trkpt lat="43.23933" lon="0.91423">
        <ele>282</ele>
        <time>2019-02-17T11:01:01.000Z</time>
      </trkpt>
      <trkpt lat="43.23931" lon="0.91425">
        <ele>282</ele>
        <time>2019-02-17T11:01:03.000Z</time>
      </trkpt>
      <trkpt lat="43.23929" lon="0.91427">
        <ele>282</ele>
        <time>2019-02-17T11:01:05.000Z</time>
      </trkpt>
      <trkpt lat="43.23928" lon="0.9143">
        <ele>282</ele>
        <time>2019-02-17T11:01:07.000Z</time>
      </trkpt>
      <trkpt lat="43.23926" lon="0.91432">
        <ele>282</ele>
        <time>2019-02-17T11:01:09.000Z</time>
      </trkpt>
      <trkpt lat="43.23924" lon="0.91434">
        <ele>281</ele>
        <time>2019-02-17T11:01:11.000Z</time>
      </trkpt>
      <trkpt lat="43.23923" lon="0.91437">
        <ele>281</ele>
        <time>2019-02-17T11:01:13.000Z</time>
      </trkpt>
      <trkpt lat="43.23921" lon="0.91439">
        <ele>281</ele>
        <time>2019-02-17T11:01:15.000Z</time>
      </trkpt>
      <trkpt lat="43.2392" lon="0.91441">
        <ele>281</ele>
        <time>2019-02-17T11:01:17.000Z</time>
      </trkpt>
      <trkpt lat="43.23918" lon="0.91444">
        <ele>281</ele>
        <time>2019-02-17T11:01:19.000Z</time>
      </trkpt>
      <trkpt lat="43.23916" lon="0.91447">
        <ele>281</ele>
        <time>2019-02-17T11:01:21.000Z</time>
      </trkpt>
      <trkpt lat="43.23915" lon="0.91449">
        <ele>281</ele>
        <time>2019-02-17T11:01:23.000Z</time>
      </trkpt>
      <trkpt lat="43.23914" lon="0.91451">
        <ele>281</ele>
        <time>2019-02-17T11:01:25.000Z</time>
      </trkpt>
      <trkpt lat="43.23912" lon="0.91454">
        <ele>281</ele>
        <time>2019-02-17T11:01:27.000Z</time>
      </trkpt>
      <trkpt lat="43.23911" lon="0.91456">
        <ele>281</ele>
        <time>2019-02-17T11:01:29.000Z</time>
      </trkpt>
      <trkpt lat="43.23909" lon="0.91459">
        <ele>281</ele>
        <time>2019-02-17T11:01:31.000Z</time>
      </trkpt>
      <trkpt lat="43.23907" lon="0.91461">
        <ele>281</ele>
        <time>2019-02-17T11:01:33.000Z</time>
      </trkpt>
      <trkpt lat="43.23905" lon="0.91464">
        <ele>281</ele>
        <time>2019-02-17T11:01:35.000Z</time>
      </trkpt>
      <trkpt lat="43.23903" lon="0.91466">
        <ele>281</ele>
        <time>2019-02-17T11:01:37.000Z</time>
      </trkpt>
      <trkpt lat="43.23901" lon="0.91468">
        <ele>282</ele>
        <time>2019-02-17T11:01:39.000Z</time>
      </trkpt>
      <trkpt lat="43.23899" lon="0.9147">
        <ele>282</ele>
        <time>2019-02-17T11:01:41.000Z</time>
      </trkpt>
      <trkpt lat="43.23897" lon="0.91473">
        <ele>282</ele>
        <time>2019-02-17T11:01:43.000Z</time>
      </trkpt>
      <trkpt lat="43.23895" lon="0.91476">
        <ele>282</ele>
        <time>2019-02-17T11:01:45.000Z</time>
      </trkpt>
      <trkpt lat="43.23894" lon="0.91478">
        <ele>282</ele>
        <time>2019-02-17T11:01:47.000Z</time>
      </trkpt>
      <trkpt lat="43.23892" lon="0.9148">
        <ele>282</ele>
        <time>2019-02-17T11:01:49.000Z</time>
      </trkpt>
      <trkpt lat="43.2389" lon="0.91482">
        <ele>282</ele>
        <time>2019-02-17T11:01:51.000Z</time>
      </trkpt>
      <trkpt lat="43.23888" lon="0.91485">
        <ele>282</ele>
        <time>2019-02-17T11:01:53.000Z</time>
      </trkpt>
      <trkpt lat="43.23886" lon="0.91486">
        <ele>283</ele>
        <time>2019-02-17T11:01:55.000Z</time>
      </trkpt>
      <trkpt lat="43.23886" lon="0.91489">
        <ele>283</ele>
        <time>2019-02-17T11:01:57.000Z</time>
      </trkpt>
      <trkpt lat="43.23884" lon="0.9149">
        <ele>283</ele>
        <time>2019-02-17T11:01:59.000Z</time>
      </trkpt>
      <trkpt lat="43.23883" lon="0.91492">
        <ele>283</ele>
        <time>2019-02-17T11:02:01.000Z</time>
      </trkpt>
      <trkpt lat="43.2388" lon="0.91494">
        <ele>283</ele>
        <time>2019-02-17T11:02:03.000Z</time>
      </trkpt>
      <trkpt lat="43.23878" lon="0.91496">
        <ele>283</ele>
        <time>2019-02-17T11:02:05.000Z</time>
      </trkpt>
      <trkpt lat="43.23876" lon="0.91497">
        <ele>283</ele>
        <time>2019-02-17T11:02:07.000Z</time>
      </trkpt>
      <trkpt lat="43.23875" lon="0.915">
        <ele>283</ele>
        <time>2019-02-17T11:02:09.000Z</time>
      </trkpt>
      <trkpt lat="43.23873" lon="0.91501">
        <ele>283</ele>
        <time>2019-02-17T11:02:11.000Z</time>
      </trkpt>
      <trkpt lat="43.23871" lon="0.91503">
        <ele>283</ele>
        <time>2019-02-17T11:02:13.000Z</time>
      </trkpt>
      <trkpt lat="43.23868" lon="0.91505">
        <ele>283</ele>
        <time>2019-02-17T11:02:15.000Z</time>
      </trkpt>
      <trkpt lat="43.23867" lon="0.91506">
        <ele>283</ele>
        <time>2019-02-17T11:02:17.000Z</time>
      </trkpt>
      <trkpt lat="43.23866" lon="0.91508">
        <ele>283</ele>
        <time>2019-02-17T11:02:19.000Z</time>
      </trkpt>
      <trkpt lat="43.23865" lon="0.91509">
        <ele>283</ele>
        <time>2019-02-17T11:02:21.000Z</time>
      </trkpt>
      <trkpt lat="43.23863" lon="0.91511">
        <ele>283</ele>
        <time>2019-02-17T11:02:23.000Z</time>
      </trkpt>
      <trkpt lat="43.23861" lon="0.91513">
        <ele>284</ele>
        <time>2019-02-17T11:02:25.000Z</time>
      </trkpt>
      <trkpt lat="43.2386" lon="0.91514">
        <ele>284</ele>
        <time>2019-02-17T11:02:27.000Z</time>
      </trkpt>
      <trkpt lat="43.23858" lon="0.91516">
        <ele>284</ele>
        <time>2019-02-17T11:02:29.000Z</time>
      </trkpt>
      <trkpt lat="43.23857" lon="0.91518">
        <ele>284</ele>
        <time>2019-02-17T11:02:31.000Z</time>
      </trkpt>
      <trkpt lat="43.23854" lon="0.9152">
        <ele>284</ele>
        <time>2019-02-17T11:02:33.000Z</time>
      </trkpt>
      <trkpt lat="43.23851" lon="0.91521">
        <ele>284</ele>
        <time>2019-02-17T11:02:35.000Z</time>
      </trkpt>
      <trkpt lat="43.23849" lon="0.91521">
        <ele>284</ele>
        <time>2019-02-17T11:02:37.000Z</time>
      </trkpt>
      <trkpt lat="43.23847" lon="0.91521">
        <ele>284</ele>
        <time>2019-02-17T11:02:39.000Z</time>
      </trkpt>
      <trkpt lat="43.23846" lon="0.91521">
        <ele>284</ele>
        <time>2019-02-17T11:02:41.000Z</time>
      </trkpt>
      <trkpt lat="43.23846" lon="0.91521">
        <ele>284</ele>
        <time>2019-02-17T11:02:43.000Z</time>
      </trkpt>
      <trkpt lat="43.23845" lon="0.91521">
        <ele>284</ele>
        <time>2019-02-17T11:02:45.000Z</time>
      </trkpt>
      <trkpt lat="43.23844" lon="0.9152">
        <ele>284</ele>
        <time>2019-02-17T11:02:47.000Z</time>
      </trkpt>
      <trkpt lat="43.23844" lon="0.9152">
        <ele>284</ele>
        <time>2019-02-17T11:02:49.000Z</time>
      </trkpt>
      <trkpt lat="43.23842" lon="0.91519">
        <ele>284</ele>
        <time>2019-02-17T11:02:51.000Z</time>
      </trkpt>
      <trkpt lat="43.23841" lon="0.91518">
        <ele>284</ele>
        <time>2019-02-17T11:02:53.000Z</time>
      </trkpt>
      <trkpt lat="43.2384" lon="0.91516">
        <ele>285</ele>
        <time>2019-02-17T11:02:55.000Z</time>
      </trkpt>
      <trkpt lat="43.23837" lon="0.91516">
        <ele>285</ele>
        <time>2019-02-17T11:02:57.000Z</time>
      </trkpt>
      <trkpt lat="43.23836" lon="0.91516">
        <ele>285</ele>
        <time>2019-02-17T11:02:59.000Z</time>
      </trkpt>
      <trkpt lat="43.23835" lon="0.91516">
        <ele>285</ele>
        <time>2019-02-17T11:03:01.000Z</time>
      </trkpt>
      <trkpt lat="43.23835" lon="0.91517">
        <ele>285</ele>
        <time>2019-02-17T11:03:03.000Z</time>
      </trkpt>
      <trkpt lat="43.23834" lon="0.91518">
        <ele>285</ele>
        <time>2019-02-17T11:03:05.000Z</time>
      </trkpt>
      <trkpt lat="43.23833" lon="0.91518">
        <ele>285</ele>
        <time>2019-02-17T11:03:07.000Z</time>
      </trkpt>
      <trkpt lat="43.23831" lon="0.91517">
        <ele>286</ele>
        <time>2019-02-17T11:03:09.000Z</time>
      </trkpt>
      <trkpt lat="43.2383" lon="0.91516">
        <ele>286</ele>
        <time>2019-02-17T11:03:11.000Z</time>
      </trkpt>
      <trkpt lat="43.23828" lon="0.91516">
        <ele>286</ele>
        <time>2019-02-17T11:03:13.000Z</time>
      </trkpt>
      <trkpt lat="43.23825" lon="0.91515">
        <ele>286</ele>
        <time>2019-02-17T11:03:15.000Z</time>
      </trkpt>
      <trkpt lat="43.23824" lon="0.91514">
        <ele>286</ele>
        <time>2019-02-17T11:03:17.000Z</time>
      </trkpt>
      <trkpt lat="43.23823" lon="0.91511">
        <ele>287</ele>
        <time>2019-02-17T11:03:19.000Z</time>
      </trkpt>
      <trkpt lat="43.2382" lon="0.91511">
        <ele>287</ele>
        <time>2019-02-17T11:03:21.000Z</time>
      </trkpt>
      <trkpt lat="43.23818" lon="0.9151">
        <ele>287</ele>
        <time>2019-02-17T11:03:23.000Z</time>
      </trkpt>
      <trkpt lat="43.23817" lon="0.9151">
        <ele>287</ele>
        <time>2019-02-17T11:03:25.000Z</time>
      </trkpt>
      <trkpt lat="43.23815" lon="0.91509">
        <ele>287</ele>
        <time>2019-02-17T11:03:27.000Z</time>
      </trkpt>
      <trkpt lat="43.23814" lon="0.91508">
        <ele>288</ele>
        <time>2019-02-17T11:03:29.000Z</time>
      </trkpt>
      <trkpt lat="43.23812" lon="0.91507">
        <ele>288</ele>
        <time>2019-02-17T11:03:31.000Z</time>
      </trkpt>
      <trkpt lat="43.2381" lon="0.91506">
        <ele>288</ele>
        <time>2019-02-17T11:03:33.000Z</time>
      </trkpt>
      <trkpt lat="43.23808" lon="0.91504">
        <ele>288</ele>
        <time>2019-02-17T11:03:35.000Z</time>
      </trkpt>
      <trkpt lat="43.23806" lon="0.91503">
        <ele>289</ele>
        <time>2019-02-17T11:03:37.000Z</time>
      </trkpt>
      <trkpt lat="43.23804" lon="0.91502">
        <ele>289</ele>
        <time>2019-02-17T11:03:39.000Z</time>
      </trkpt>
      <trkpt lat="43.23802" lon="0.91501">
        <ele>289</ele>
        <time>2019-02-17T11:03:41.000Z</time>
      </trkpt>
      <trkpt lat="43.238" lon="0.91499">
        <ele>289</ele>
        <time>2019-02-17T11:03:43.000Z</time>
      </trkpt>
      <trkpt lat="43.23799" lon="0.91498">
        <ele>289</ele>
        <time>2019-02-17T11:03:45.000Z</time>
      </trkpt>
      <trkpt lat="43.23797" lon="0.91497">
        <ele>290</ele>
        <time>2019-02-17T11:03:47.000Z</time>
      </trkpt>
      <trkpt lat="43.23796" lon="0.91495">
        <ele>290</ele>
        <time>2019-02-17T11:03:49.000Z</time>
      </trkpt>
      <trkpt lat="43.23795" lon="0.91493">
        <ele>290</ele>
        <time>2019-02-17T11:03:51.000Z</time>
      </trkpt>
      <trkpt lat="43.23793" lon="0.91491">
        <ele>290</ele>
        <time>2019-02-17T11:03:53.000Z</time>
      </trkpt>
      <trkpt lat="43.23792" lon="0.91489">
        <ele>290</ele>
        <time>2019-02-17T11:03:55.000Z</time>
      </trkpt>
      <trkpt lat="43.23791" lon="0.91488">
        <ele>291</ele>
        <time>2019-02-17T11:03:57.000Z</time>
      </trkpt>
      <trkpt lat="43.23791" lon="0.91487">
        <ele>291</ele>
        <time>2019-02-17T11:03:59.000Z</time>
      </trkpt>
      <trkpt lat="43.2379" lon="0.91487">
        <ele>291</ele>
        <time>2019-02-17T11:04:01.000Z</time>
      </trkpt>
      <trkpt lat="43.2379" lon="0.91488">
        <ele>291</ele>
        <time>2019-02-17T11:04:03.000Z</time>
      </trkpt>
      <trkpt lat="43.2379" lon="0.91488">
        <ele>291</ele>
        <time>2019-02-17T11:04:05.000Z</time>
      </trkpt>
      <trkpt lat="43.2379" lon="0.91488">
        <ele>291</ele>
        <time>2019-02-17T11:04:07.000Z</time>
      </trkpt>
      <trkpt lat="43.2379" lon="0.91489">
        <ele>291</ele>
        <time>2019-02-17T11:04:09.000Z</time>
      </trkpt>
      <trkpt lat="43.2379" lon="0.91489">
        <ele>291</ele>
        <time>2019-02-17T11:04:11.000Z</time>
      </trkpt>
      <trkpt lat="43.2379" lon="0.91489">
        <ele>291</ele>
        <time>2019-02-17T11:04:13.000Z</time>
      </trkpt>
      <trkpt lat="43.2379" lon="0.91489">
        <ele>291</ele>
        <time>2019-02-17T11:04:15.000Z</time>
      </trkpt>
      <trkpt lat="43.23789" lon="0.91489">
        <ele>291</ele>
        <time>2019-02-17T11:04:17.000Z</time>
      </trkpt>
      <trkpt lat="43.23789" lon="0.91489">
        <ele>291</ele>
        <time>2019-02-17T11:04:19.000Z</time>
      </trkpt>
      <trkpt lat="43.23789" lon="0.91488">
        <ele>291</ele>
        <time>2019-02-17T11:04:21.000Z</time>
      </trkpt>
      <trkpt lat="43.2379" lon="0.91487">
        <ele>291</ele>
        <time>2019-02-17T11:04:23.000Z</time>
      </trkpt>
      <trkpt lat="43.2379" lon="0.91488">
        <ele>291</ele>
        <time>2019-02-17T11:04:25.000Z</time>
      </trkpt>
      <trkpt lat="43.2379" lon="0.91488">
        <ele>291</ele>
        <time>2019-02-17T11:04:27.000Z</time>
      </trkpt>
      <trkpt lat="43.23791" lon="0.91488">
        <ele>291</ele>
        <time>2019-02-17T11:04:29.000Z</time>
      </trkpt>
      <trkpt lat="43.23789" lon="0.91487">
        <ele>291</ele>
        <time>2019-02-17T11:04:31.000Z</time>
      </trkpt>
      <trkpt lat="43.23787" lon="0.91485">
        <ele>291</ele>
        <time>2019-02-17T11:04:33.000Z</time>
      </trkpt>
      <trkpt lat="43.23785" lon="0.91483">
        <ele>291</ele>
        <time>2019-02-17T11:04:35.000Z</time>
      </trkpt>
      <trkpt lat="43.23785" lon="0.91479">
        <ele>291</ele>
        <time>2019-02-17T11:04:37.000Z</time>
      </trkpt>
      <trkpt lat="43.23786" lon="0.91474">
        <ele>291</ele>
        <time>2019-02-17T11:04:39.000Z</time>
      </trkpt>
      <trkpt lat="43.23785" lon="0.9147">
        <ele>291</ele>
        <time>2019-02-17T11:04:41.000Z</time>
      </trkpt>
      <trkpt lat="43.23784" lon="0.91466">
        <ele>291</ele>
        <time>2019-02-17T11:04:43.000Z</time>
      </trkpt>
      <trkpt lat="43.23783" lon="0.91462">
        <ele>291</ele>
        <time>2019-02-17T11:04:45.000Z</time>
      </trkpt>
      <trkpt lat="43.23782" lon="0.91458">
        <ele>291</ele>
        <time>2019-02-17T11:04:47.000Z</time>
      </trkpt>
      <trkpt lat="43.23782" lon="0.91455">
        <ele>291</ele>
        <time>2019-02-17T11:04:49.000Z</time>
      </trkpt>
      <trkpt lat="43.2378" lon="0.91451">
        <ele>291</ele>
        <time>2019-02-17T11:04:51.000Z</time>
      </trkpt>
      <trkpt lat="43.23779" lon="0.91447">
        <ele>291</ele>
        <time>2019-02-17T11:04:53.000Z</time>
      </trkpt>
      <trkpt lat="43.23778" lon="0.91444">
        <ele>291</ele>
        <time>2019-02-17T11:04:55.000Z</time>
      </trkpt>
      <trkpt lat="43.23777" lon="0.91441">
        <ele>291</ele>
        <time>2019-02-17T11:04:57.000Z</time>
      </trkpt>
      <trkpt lat="43.23775" lon="0.91438">
        <ele>291</ele>
        <time>2019-02-17T11:04:59.000Z</time>
      </trkpt>
      <trkpt lat="43.23773" lon="0.91436">
        <ele>291</ele>
        <time>2019-02-17T11:05:01.000Z</time>
      </trkpt>
      <trkpt lat="43.23772" lon="0.91433">
        <ele>292</ele>
        <time>2019-02-17T11:05:03.000Z</time>
      </trkpt>
      <trkpt lat="43.23769" lon="0.9143">
        <ele>292</ele>
        <time>2019-02-17T11:05:05.000Z</time>
      </trkpt>
      <trkpt lat="43.23768" lon="0.91427">
        <ele>292</ele>
        <time>2019-02-17T11:05:07.000Z</time>
      </trkpt>
      <trkpt lat="43.23766" lon="0.91425">
        <ele>292</ele>
        <time>2019-02-17T11:05:09.000Z</time>
      </trkpt>
      <trkpt lat="43.23763" lon="0.91423">
        <ele>292</ele>
        <time>2019-02-17T11:05:11.000Z</time>
      </trkpt>
      <trkpt lat="43.23762" lon="0.9142">
        <ele>292</ele>
        <time>2019-02-17T11:05:13.000Z</time>
      </trkpt>
      <trkpt lat="43.2376" lon="0.91418">
        <ele>292</ele>
        <time>2019-02-17T11:05:15.000Z</time>
      </trkpt>
      <trkpt lat="43.23758" lon="0.91417">
        <ele>293</ele>
        <time>2019-02-17T11:05:17.000Z</time>
      </trkpt>
      <trkpt lat="43.23756" lon="0.91415">
        <ele>293</ele>
        <time>2019-02-17T11:05:19.000Z</time>
      </trkpt>
      <trkpt lat="43.23754" lon="0.91414">
        <ele>293</ele>
        <time>2019-02-17T11:05:21.000Z</time>
      </trkpt>
      <trkpt lat="43.23752" lon="0.91414">
        <ele>293</ele>
        <time>2019-02-17T11:05:23.000Z</time>
      </trkpt>
      <trkpt lat="43.2375" lon="0.91414">
        <ele>294</ele>
        <time>2019-02-17T11:05:25.000Z</time>
      </trkpt>
      <trkpt lat="43.23748" lon="0.91415">
        <ele>294</ele>
        <time>2019-02-17T11:05:27.000Z</time>
      </trkpt>
      <trkpt lat="43.23747" lon="0.91417">
        <ele>294</ele>
        <time>2019-02-17T11:05:29.000Z</time>
      </trkpt>
      <trkpt lat="43.23746" lon="0.91418">
        <ele>294</ele>
        <time>2019-02-17T11:05:31.000Z</time>
      </trkpt>
      <trkpt lat="43.23745" lon="0.9142">
        <ele>295</ele>
        <time>2019-02-17T11:05:33.000Z</time>
      </trkpt>
      <trkpt lat="43.23744" lon="0.91421">
        <ele>295</ele>
        <time>2019-02-17T11:05:35.000Z</time>
      </trkpt>
      <trkpt lat="43.23742" lon="0.91422">
        <ele>295</ele>
        <time>2019-02-17T11:05:37.000Z</time>
      </trkpt>
      <trkpt lat="43.23741" lon="0.91423">
        <ele>295</ele>
        <time>2019-02-17T11:05:39.000Z</time>
      </trkpt>
      <trkpt lat="43.23739" lon="0.91424">
        <ele>296</ele>
        <time>2019-02-17T11:05:41.000Z</time>
      </trkpt>
      <trkpt lat="43.23738" lon="0.91425">
        <ele>296</ele>
        <time>2019-02-17T11:05:43.000Z</time>
      </trkpt>
      <trkpt lat="43.23736" lon="0.91426">
        <ele>296</ele>
        <time>2019-02-17T11:05:45.000Z</time>
      </trkpt>
      <trkpt lat="43.23735" lon="0.91427">
        <ele>296</ele>
        <time>2019-02-17T11:05:47.000Z</time>
      </trkpt>
      <trkpt lat="43.23733" lon="0.91428">
        <ele>297</ele>
        <time>2019-02-17T11:05:49.000Z</time>
      </trkpt>
      <trkpt lat="43.23731" lon="0.9143">
        <ele>297</ele>
        <time>2019-02-17T11:05:51.000Z</time>
      </trkpt>
      <trkpt lat="43.2373" lon="0.91431">
        <ele>297</ele>
        <time>2019-02-17T11:05:53.000Z</time>
      </trkpt>
      <trkpt lat="43.23728" lon="0.91433">
        <ele>298</ele>
        <time>2019-02-17T11:05:55.000Z</time>
      </trkpt>
      <trkpt lat="43.23726" lon="0.91434">
        <ele>298</ele>
        <time>2019-02-17T11:05:57.000Z</time>
      </trkpt>
      <trkpt lat="43.23725" lon="0.91436">
        <ele>298</ele>
        <time>2019-02-17T11:05:59.000Z</time>
      </trkpt>
      <trkpt lat="43.23723" lon="0.91438">
        <ele>298</ele>
        <time>2019-02-17T11:06:01.000Z</time>
      </trkpt>
      <trkpt lat="43.23721" lon="0.9144">
        <ele>299</ele>
        <time>2019-02-17T11:06:03.000Z</time>
      </trkpt>
      <trkpt lat="43.2372" lon="0.91442">
        <ele>299</ele>
        <time>2019-02-17T11:06:05.000Z</time>
      </trkpt>
      <trkpt lat="43.23718" lon="0.91443">
        <ele>299</ele>
        <time>2019-02-17T11:06:07.000Z</time>
      </trkpt>
      <trkpt lat="43.23717" lon="0.91445">
        <ele>300</ele>
        <time>2019-02-17T11:06:09.000Z</time>
      </trkpt>
      <trkpt lat="43.23714" lon="0.91447">
        <ele>300</ele>
        <time>2019-02-17T11:06:11.000Z</time>
      </trkpt>
      <trkpt lat="43.23713" lon="0.91449">
        <ele>300</ele>
        <time>2019-02-17T11:06:13.000Z</time>
      </trkpt>
      <trkpt lat="43.23711" lon="0.91451">
        <ele>301</ele>
        <time>2019-02-17T11:06:15.000Z</time>
      </trkpt>
      <trkpt lat="43.23709" lon="0.91453">
        <ele>301</ele>
        <time>2019-02-17T11:06:17.000Z</time>
      </trkpt>
      <trkpt lat="43.23707" lon="0.91455">
        <ele>301</ele>
        <time>2019-02-17T11:06:19.000Z</time>
      </trkpt>
      <trkpt lat="43.23705" lon="0.91457">
        <ele>302</ele>
        <time>2019-02-17T11:06:21.000Z</time>
      </trkpt>
      <trkpt lat="43.23703" lon="0.9146">
        <ele>302</ele>
        <time>2019-02-17T11:06:23.000Z</time>
      </trkpt>
      <trkpt lat="43.23701" lon="0.91462">
        <ele>302</ele>
        <time>2019-02-17T11:06:25.000Z</time>
      </trkpt>
      <trkpt lat="43.237" lon="0.91464">
        <ele>303</ele>
        <time>2019-02-17T11:06:27.000Z</time>
      </trkpt>
      <trkpt lat="43.23698" lon="0.91466">
        <ele>303</ele>
        <time>2019-02-17T11:06:29.000Z</time>
      </trkpt>
      <trkpt lat="43.23696" lon="0.91467">
        <ele>303</ele>
        <time>2019-02-17T11:06:31.000Z</time>
      </trkpt>
      <trkpt lat="43.23694" lon="0.91469">
        <ele>304</ele>
        <time>2019-02-17T11:06:33.000Z</time>
      </trkpt>
      <trkpt lat="43.23693" lon="0.91471">
        <ele>304</ele>
        <time>2019-02-17T11:06:35.000Z</time>
      </trkpt>
      <trkpt lat="43.23692" lon="0.91472">
        <ele>304</ele>
        <time>2019-02-17T11:06:37.000Z</time>
      </trkpt>
      <trkpt lat="43.23691" lon="0.91473">
        <ele>304</ele>
        <time>2019-02-17T11:06:39.000Z</time>
      </trkpt>
      <trkpt lat="43.2369" lon="0.91474">
        <ele>304</ele>
        <time>2019-02-17T11:06:41.000Z</time>
      </trkpt>
      <trkpt lat="43.23689" lon="0.91476">
        <ele>305</ele>
        <time>2019-02-17T11:06:43.000Z</time>
      </trkpt>
      <trkpt lat="43.23688" lon="0.91477">
        <ele>305</ele>
        <time>2019-02-17T11:06:45.000Z</time>
      </trkpt>
      <trkpt lat="43.23687" lon="0.91479">
        <ele>305</ele>
        <time>2019-02-17T11:06:47.000Z</time>
      </trkpt>
      <trkpt lat="43.23686" lon="0.91481">
        <ele>305</ele>
        <time>2019-02-17T11:06:49.000Z</time>
      </trkpt>
      <trkpt lat="43.23686" lon="0.91482">
        <ele>305</ele>
        <time>2019-02-17T11:06:51.000Z</time>
      </trkpt>
      <trkpt lat="43.23687" lon="0.91481">
        <ele>305</ele>
        <time>2019-02-17T11:06:53.000Z</time>
      </trkpt>
      <trkpt lat="43.23687" lon="0.91481">
        <ele>305</ele>
        <time>2019-02-17T11:06:55.000Z</time>
      </trkpt>
      <trkpt lat="43.23687" lon="0.91481">
        <ele>305</ele>
        <time>2019-02-17T11:06:57.000Z</time>
      </trkpt>
      <trkpt lat="43.23687" lon="0.91481">
        <ele>305</ele>
        <time>2019-02-17T11:06:59.000Z</time>
      </trkpt>
      <trkpt lat="43.23688" lon="0.91481">
        <ele>305</ele>
        <time>2019-02-17T11:07:01.000Z</time>
      </trkpt>
      <trkpt lat="43.23687" lon="0.91481">
        <ele>305</ele>
        <time>2019-02-17T11:07:03.000Z</time>
      </trkpt>
      <trkpt lat="43.23687" lon="0.91481">
        <ele>305</ele>
        <time>2019-02-17T11:07:05.000Z</time>
      </trkpt>
      <trkpt lat="43.23687" lon="0.91481">
        <ele>305</ele>
        <time>2019-02-17T11:07:07.000Z</time>
      </trkpt>
      <trkpt lat="43.23688" lon="0.91481">
        <ele>305</ele>
        <time>2019-02-17T11:07:09.000Z</time>
      </trkpt>
      <trkpt lat="43.23688" lon="0.91481">
        <ele>305</ele>
        <time>2019-02-17T11:07:11.000Z</time>
      </trkpt>
      <trkpt lat="43.23687" lon="0.91481">
        <ele>305</ele>
        <time>2019-02-17T11:07:13.000Z</time>
      </trkpt>
      <trkpt lat="43.23687" lon="0.91481">
        <ele>305</ele>
        <time>2019-02-17T11:07:15.000Z</time>
      </trkpt>
      <trkpt lat="43.23685" lon="0.91481">
        <ele>305</ele>
        <time>2019-02-17T11:07:17.000Z</time>
      </trkpt>
      <trkpt lat="43.23685" lon="0.91481">
        <ele>305</ele>
        <time>2019-02-17T11:07:19.000Z</time>
      </trkpt>
      <trkpt lat="43.23685" lon="0.91481">
        <ele>305</ele>
        <time>2019-02-17T11:07:21.000Z</time>
      </trkpt>
      <trkpt lat="43.23685" lon="0.9148">
        <ele>305</ele>
        <time>2019-02-17T11:07:23.000Z</time>
      </trkpt>
      <trkpt lat="43.23685" lon="0.9148">
        <ele>305</ele>
        <time>2019-02-17T11:07:25.000Z</time>
      </trkpt>
      <trkpt lat="43.23685" lon="0.9148">
        <ele>305</ele>
        <time>2019-02-17T11:07:27.000Z</time>
      </trkpt>
      <trkpt lat="43.23686" lon="0.9148">
        <ele>305</ele>
        <time>2019-02-17T11:07:29.000Z</time>
      </trkpt>
      <trkpt lat="43.23686" lon="0.9148">
        <ele>305</ele>
        <time>2019-02-17T11:07:31.000Z</time>
      </trkpt>
      <trkpt lat="43.23686" lon="0.9148">
        <ele>305</ele>
        <time>2019-02-17T11:07:33.000Z</time>
      </trkpt>
      <trkpt lat="43.23686" lon="0.9148">
        <ele>305</ele>
        <time>2019-02-17T11:07:35.000Z</time>
      </trkpt>
      <trkpt lat="43.23687" lon="0.9148">
        <ele>305</ele>
        <time>2019-02-17T11:07:37.000Z</time>
      </trkpt>
      <trkpt lat="43.23687" lon="0.9148">
        <ele>305</ele>
        <time>2019-02-17T11:07:39.000Z</time>
      </trkpt>
      <trkpt lat="43.23686" lon="0.9148">
        <ele>305</ele>
        <time>2019-02-17T11:07:41.000Z</time>
      </trkpt>
      <trkpt lat="43.23687" lon="0.9148">
        <ele>305</ele>
        <time>2019-02-17T11:07:43.000Z</time>
      </trkpt>
      <trkpt lat="43.23686" lon="0.9148">
        <ele>305</ele>
        <time>2019-02-17T11:07:45.000Z</time>
      </trkpt>
      <trkpt lat="43.23686" lon="0.9148">
        <ele>305</ele>
        <time>2019-02-17T11:07:47.000Z</time>
      </trkpt>
      <trkpt lat="43.23686" lon="0.9148">
        <ele>305</ele>
        <time>2019-02-17T11:07:49.000Z</time>
      </trkpt>
      <trkpt lat="43.23686" lon="0.9148">
        <ele>305</ele>
        <time>2019-02-17T11:07:51.000Z</time>
      </trkpt>
      <trkpt lat="43.23686" lon="0.9148">
        <ele>305</ele>
        <time>2019-02-17T11:07:53.000Z</time>
      </trkpt>
      <trkpt lat="43.23686" lon="0.9148">
        <ele>305</ele>
        <time>2019-02-17T11:07:55.000Z</time>
      </trkpt>
      <trkpt lat="43.23685" lon="0.9148">
        <ele>305</ele>
        <time>2019-02-17T11:07:57.000Z</time>
      </trkpt>
      <trkpt lat="43.23685" lon="0.9148">
        <ele>305</ele>
        <time>2019-02-17T11:07:59.000Z</time>
      </trkpt>
      <trkpt lat="43.23685" lon="0.9148">
        <ele>305</ele>
        <time>2019-02-17T11:08:01.000Z</time>
      </trkpt>
      <trkpt lat="43.23684" lon="0.9148">
        <ele>305</ele>
        <time>2019-02-17T11:08:03.000Z</time>
      </trkpt>
      <trkpt lat="43.23684" lon="0.9148">
        <ele>305</ele>
        <time>2019-02-17T11:08:05.000Z</time>
      </trkpt>
      <trkpt lat="43.23684" lon="0.9148">
        <ele>305</ele>
        <time>2019-02-17T11:08:07.000Z</time>
      </trkpt>
      <trkpt lat="43.23683" lon="0.91479">
        <ele>305</ele>
        <time>2019-02-17T11:08:09.000Z</time>
      </trkpt>
      <trkpt lat="43.23683" lon="0.9148">
        <ele>305</ele>
        <time>2019-02-17T11:08:11.000Z</time>
      </trkpt>
      <trkpt lat="43.23683" lon="0.91479">
        <ele>306</ele>
        <time>2019-02-17T11:08:13.000Z</time>
      </trkpt>
      <trkpt lat="43.23683" lon="0.91479">
        <ele>305</ele>
        <time>2019-02-17T11:08:15.000Z</time>
      </trkpt>
      <trkpt lat="43.23683" lon="0.91478">
        <ele>305</ele>
        <time>2019-02-17T11:08:17.000Z</time>
      </trkpt>
      <trkpt lat="43.23683" lon="0.91478">
        <ele>305</ele>
        <time>2019-02-17T11:08:19.000Z</time>
      </trkpt>
      <trkpt lat="43.23683" lon="0.91478">
        <ele>305</ele>
        <time>2019-02-17T11:08:21.000Z</time>
      </trkpt>
      <trkpt lat="43.23682" lon="0.91478">
        <ele>306</ele>
        <time>2019-02-17T11:08:23.000Z</time>
      </trkpt>
      <trkpt lat="43.23682" lon="0.91478">
        <ele>306</ele>
        <time>2019-02-17T11:08:25.000Z</time>
      </trkpt>
      <trkpt lat="43.23682" lon="0.91478">
        <ele>306</ele>
        <time>2019-02-17T11:08:27.000Z</time>
      </trkpt>
      <trkpt lat="43.23681" lon="0.91478">
        <ele>306</ele>
        <time>2019-02-17T11:08:29.000Z</time>
      </trkpt>
      <trkpt lat="43.23681" lon="0.91479">
        <ele>306</ele>
        <time>2019-02-17T11:08:31.000Z</time>
      </trkpt>
      <trkpt lat="43.23682" lon="0.9148">
        <ele>306</ele>
        <time>2019-02-17T11:08:33.000Z</time>
      </trkpt>
      <trkpt lat="43.23682" lon="0.91479">
        <ele>306</ele>
        <time>2019-02-17T11:08:35.000Z</time>
      </trkpt>
      <trkpt lat="43.23682" lon="0.9148">
        <ele>306</ele>
        <time>2019-02-17T11:08:37.000Z</time>
      </trkpt>
      <trkpt lat="43.23682" lon="0.91481">
        <ele>306</ele>
        <time>2019-02-17T11:08:39.000Z</time>
      </trkpt>
      <trkpt lat="43.23682" lon="0.91481">
        <ele>306</ele>
        <time>2019-02-17T11:08:41.000Z</time>
      </trkpt>
      <trkpt lat="43.23682" lon="0.91481">
        <ele>306</ele>
        <time>2019-02-17T11:08:43.000Z</time>
      </trkpt>
      <trkpt lat="43.23682" lon="0.91481">
        <ele>306</ele>
        <time>2019-02-17T11:08:45.000Z</time>
      </trkpt>
      <trkpt lat="43.23683" lon="0.91481">
        <ele>306</ele>
        <time>2019-02-17T11:08:47.000Z</time>
      </trkpt>
      <trkpt lat="43.23683" lon="0.91481">
        <ele>306</ele>
        <time>2019-02-17T11:08:49.000Z</time>
      </trkpt>
      <trkpt lat="43.23683" lon="0.91481">
        <ele>306</ele>
        <time>2019-02-17T11:08:51.000Z</time>
      </trkpt>
      <trkpt lat="43.23682" lon="0.91481">
        <ele>306</ele>
        <time>2019-02-17T11:08:53.000Z</time>
      </trkpt>
      <trkpt lat="43.23683" lon="0.91481">
        <ele>305</ele>
        <time>2019-02-17T11:08:55.000Z</time>
      </trkpt>
      <trkpt lat="43.23684" lon="0.91481">
        <ele>305</ele>
        <time>2019-02-17T11:08:57.000Z</time>
      </trkpt>
      <trkpt lat="43.23684" lon="0.91481">
        <ele>305</ele>
        <time>2019-02-17T11:08:59.000Z</time>
      </trkpt>
      <trkpt lat="43.23685" lon="0.91484">
        <ele>305</ele>
        <time>2019-02-17T11:09:01.000Z</time>
      </trkpt>
      <trkpt lat="43.23685" lon="0.91488">
        <ele>305</ele>
        <time>2019-02-17T11:09:03.000Z</time>
      </trkpt>
      <trkpt lat="43.23685" lon="0.9149">
        <ele>305</ele>
        <time>2019-02-17T11:09:05.000Z</time>
      </trkpt>
      <trkpt lat="43.23685" lon="0.91493">
        <ele>305</ele>
        <time>2019-02-17T11:09:07.000Z</time>
      </trkpt>
      <trkpt lat="43.23684" lon="0.91494">
        <ele>306</ele>
        <time>2019-02-17T11:09:09.000Z</time>
      </trkpt>
      <trkpt lat="43.23682" lon="0.91494">
        <ele>306</ele>
        <time>2019-02-17T11:09:11.000Z</time>
      </trkpt>
      <trkpt lat="43.23681" lon="0.91494">
        <ele>306</ele>
        <time>2019-02-17T11:09:13.000Z</time>
      </trkpt>
      <trkpt lat="43.2368" lon="0.91494">
        <ele>306</ele>
        <time>2019-02-17T11:09:15.000Z</time>
      </trkpt>
      <trkpt lat="43.23678" lon="0.91494">
        <ele>307</ele>
        <time>2019-02-17T11:09:17.000Z</time>
      </trkpt>
      <trkpt lat="43.23676" lon="0.91494">
        <ele>307</ele>
        <time>2019-02-17T11:09:19.000Z</time>
      </trkpt>
      <trkpt lat="43.23674" lon="0.91493">
        <ele>307</ele>
        <time>2019-02-17T11:09:21.000Z</time>
      </trkpt>
      <trkpt lat="43.23672" lon="0.91493">
        <ele>308</ele>
        <time>2019-02-17T11:09:23.000Z</time>
      </trkpt>
      <trkpt lat="43.23671" lon="0.91492">
        <ele>308</ele>
        <time>2019-02-17T11:09:25.000Z</time>
      </trkpt>
      <trkpt lat="43.2367" lon="0.91492">
        <ele>308</ele>
        <time>2019-02-17T11:09:27.000Z</time>
      </trkpt>
      <trkpt lat="43.23668" lon="0.91492">
        <ele>308</ele>
        <time>2019-02-17T11:09:29.000Z</time>
      </trkpt>
      <trkpt lat="43.23666" lon="0.91491">
        <ele>309</ele>
        <time>2019-02-17T11:09:31.000Z</time>
      </trkpt>
      <trkpt lat="43.23665" lon="0.91491">
        <ele>309</ele>
        <time>2019-02-17T11:09:33.000Z</time>
      </trkpt>
      <trkpt lat="43.23663" lon="0.91491">
        <ele>309</ele>
        <time>2019-02-17T11:09:35.000Z</time>
      </trkpt>
      <trkpt lat="43.23662" lon="0.91491">
        <ele>309</ele>
        <time>2019-02-17T11:09:37.000Z</time>
      </trkpt>
      <trkpt lat="43.23661" lon="0.91491">
        <ele>309</ele>
        <time>2019-02-17T11:09:39.000Z</time>
      </trkpt>
      <trkpt lat="43.23659" lon="0.91491">
        <ele>310</ele>
        <time>2019-02-17T11:09:41.000Z</time>
      </trkpt>
      <trkpt lat="43.23657" lon="0.9149">
        <ele>310</ele>
        <time>2019-02-17T11:09:43.000Z</time>
      </trkpt>
      <trkpt lat="43.23656" lon="0.9149">
        <ele>310</ele>
        <time>2019-02-17T11:09:45.000Z</time>
      </trkpt>
      <trkpt lat="43.23654" lon="0.9149">
        <ele>311</ele>
        <time>2019-02-17T11:09:47.000Z</time>
      </trkpt>
      <trkpt lat="43.23653" lon="0.91491">
        <ele>311</ele>
        <time>2019-02-17T11:09:49.000Z</time>
      </trkpt>
      <trkpt lat="43.23651" lon="0.91491">
        <ele>311</ele>
        <time>2019-02-17T11:09:51.000Z</time>
      </trkpt>
      <trkpt lat="43.23649" lon="0.91491">
        <ele>311</ele>
        <time>2019-02-17T11:09:53.000Z</time>
      </trkpt>
      <trkpt lat="43.23648" lon="0.91492">
        <ele>312</ele>
        <time>2019-02-17T11:09:55.000Z</time>
      </trkpt>
      <trkpt lat="43.23645" lon="0.91493">
        <ele>312</ele>
        <time>2019-02-17T11:09:57.000Z</time>
      </trkpt>
      <trkpt lat="43.23644" lon="0.91493">
        <ele>312</ele>
        <time>2019-02-17T11:09:59.000Z</time>
      </trkpt>
      <trkpt lat="43.23642" lon="0.91493">
        <ele>313</ele>
        <time>2019-02-17T11:10:01.000Z</time>
      </trkpt>
      <trkpt lat="43.2364" lon="0.91492">
        <ele>313</ele>
        <time>2019-02-17T11:10:03.000Z</time>
      </trkpt>
      <trkpt lat="43.23638" lon="0.91491">
        <ele>313</ele>
        <time>2019-02-17T11:10:05.000Z</time>
      </trkpt>
      <trkpt lat="43.23636" lon="0.9149">
        <ele>314</ele>
        <time>2019-02-17T11:10:07.000Z</time>
      </trkpt>
      <trkpt lat="43.23634" lon="0.9149">
        <ele>314</ele>
        <time>2019-02-17T11:10:09.000Z</time>
      </trkpt>
      <trkpt lat="43.23633" lon="0.91489">
        <ele>314</ele>
        <time>2019-02-17T11:10:11.000Z</time>
      </trkpt>
      <trkpt lat="43.23631" lon="0.91487">
        <ele>314</ele>
        <time>2019-02-17T11:10:13.000Z</time>
      </trkpt>
      <trkpt lat="43.23629" lon="0.91486">
        <ele>315</ele>
        <time>2019-02-17T11:10:15.000Z</time>
      </trkpt>
      <trkpt lat="43.23627" lon="0.91486">
        <ele>315</ele>
        <time>2019-02-17T11:10:17.000Z</time>
      </trkpt>
      <trkpt lat="43.23626" lon="0.91485">
        <ele>315</ele>
        <time>2019-02-17T11:10:19.000Z</time>
      </trkpt>
      <trkpt lat="43.23625" lon="0.91484">
        <ele>315</ele>
        <time>2019-02-17T11:10:21.000Z</time>
      </trkpt>
      <trkpt lat="43.23623" lon="0.91483">
        <ele>316</ele>
        <time>2019-02-17T11:10:23.000Z</time>
      </trkpt>
      <trkpt lat="43.23622" lon="0.91482">
        <ele>316</ele>
        <time>2019-02-17T11:10:25.000Z</time>
      </trkpt>
      <trkpt lat="43.23621" lon="0.9148">
        <ele>316</ele>
        <time>2019-02-17T11:10:27.000Z</time>
      </trkpt>
      <trkpt lat="43.23619" lon="0.91479">
        <ele>316</ele>
        <time>2019-02-17T11:10:29.000Z</time>
      </trkpt>
      <trkpt lat="43.23617" lon="0.91477">
        <ele>317</ele>
        <time>2019-02-17T11:10:31.000Z</time>
      </trkpt>
      <trkpt lat="43.23615" lon="0.91476">
        <ele>317</ele>
        <time>2019-02-17T11:10:33.000Z</time>
      </trkpt>
      <trkpt lat="43.23613" lon="0.91474">
        <ele>317</ele>
        <time>2019-02-17T11:10:35.000Z</time>
      </trkpt>
      <trkpt lat="43.23611" lon="0.91472">
        <ele>317</ele>
        <time>2019-02-17T11:10:37.000Z</time>
      </trkpt>
      <trkpt lat="43.23609" lon="0.91471">
        <ele>318</ele>
        <time>2019-02-17T11:10:39.000Z</time>
      </trkpt>
      <trkpt lat="43.23607" lon="0.91469">
        <ele>318</ele>
        <time>2019-02-17T11:10:41.000Z</time>
      </trkpt>
      <trkpt lat="43.23605" lon="0.91468">
        <ele>318</ele>
        <time>2019-02-17T11:10:43.000Z</time>
      </trkpt>
      <trkpt lat="43.23603" lon="0.91467">
        <ele>318</ele>
        <time>2019-02-17T11:10:45.000Z</time>
      </trkpt>
      <trkpt lat="43.236" lon="0.91466">
        <ele>319</ele>
        <time>2019-02-17T11:10:47.000Z</time>
      </trkpt>
      <trkpt lat="43.23597" lon="0.91465">
        <ele>319</ele>
        <time>2019-02-17T11:10:49.000Z</time>
      </trkpt>
      <trkpt lat="43.23595" lon="0.91464">
        <ele>320</ele>
        <time>2019-02-17T11:10:51.000Z</time>
      </trkpt>
      <trkpt lat="43.23593" lon="0.91462">
        <ele>320</ele>
        <time>2019-02-17T11:10:53.000Z</time>
      </trkpt>
      <trkpt lat="43.23591" lon="0.91461">
        <ele>321</ele>
        <time>2019-02-17T11:10:55.000Z</time>
      </trkpt>
      <trkpt lat="43.23589" lon="0.91459">
        <ele>321</ele>
        <time>2019-02-17T11:10:57.000Z</time>
      </trkpt>
      <trkpt lat="43.23588" lon="0.91457">
        <ele>322</ele>
        <time>2019-02-17T11:10:59.000Z</time>
      </trkpt>
      <trkpt lat="43.23586" lon="0.91455">
        <ele>322</ele>
        <time>2019-02-17T11:11:01.000Z</time>
      </trkpt>
      <trkpt lat="43.23585" lon="0.91453">
        <ele>322</ele>
        <time>2019-02-17T11:11:03.000Z</time>
      </trkpt>
      <trkpt lat="43.23583" lon="0.91451">
        <ele>323</ele>
        <time>2019-02-17T11:11:05.000Z</time>
      </trkpt>
      <trkpt lat="43.23581" lon="0.91449">
        <ele>323</ele>
        <time>2019-02-17T11:11:07.000Z</time>
      </trkpt>
      <trkpt lat="43.23579" lon="0.91448">
        <ele>324</ele>
        <time>2019-02-17T11:11:09.000Z</time>
      </trkpt>
      <trkpt lat="43.23577" lon="0.91446">
        <ele>324</ele>
        <time>2019-02-17T11:11:11.000Z</time>
      </trkpt>
      <trkpt lat="43.23576" lon="0.91445">
        <ele>325</ele>
        <time>2019-02-17T11:11:13.000Z</time>
      </trkpt>
      <trkpt lat="43.23575" lon="0.91444">
        <ele>325</ele>
        <time>2019-02-17T11:11:15.000Z</time>
      </trkpt>
      <trkpt lat="43.23575" lon="0.91442">
        <ele>325</ele>
        <time>2019-02-17T11:11:17.000Z</time>
      </trkpt>
      <trkpt lat="43.23574" lon="0.9144">
        <ele>325</ele>
        <time>2019-02-17T11:11:19.000Z</time>
      </trkpt>
      <trkpt lat="43.23572" lon="0.91437">
        <ele>326</ele>
        <time>2019-02-17T11:11:21.000Z</time>
      </trkpt>
      <trkpt lat="43.23571" lon="0.91434">
        <ele>326</ele>
        <time>2019-02-17T11:11:23.000Z</time>
      </trkpt>
      <trkpt lat="43.23569" lon="0.91431">
        <ele>326</ele>
        <time>2019-02-17T11:11:25.000Z</time>
      </trkpt>
      <trkpt lat="43.23568" lon="0.91429">
        <ele>326</ele>
        <time>2019-02-17T11:11:27.000Z</time>
      </trkpt>
      <trkpt lat="43.23568" lon="0.91427">
        <ele>327</ele>
        <time>2019-02-17T11:11:29.000Z</time>
      </trkpt>
      <trkpt lat="43.23567" lon="0.91425">
        <ele>327</ele>
        <time>2019-02-17T11:11:31.000Z</time>
      </trkpt>
      <trkpt lat="43.23566" lon="0.91423">
        <ele>327</ele>
        <time>2019-02-17T11:11:33.000Z</time>
      </trkpt>
      <trkpt lat="43.23564" lon="0.9142">
        <ele>327</ele>
        <time>2019-02-17T11:11:35.000Z</time>
      </trkpt>
      <trkpt lat="43.23562" lon="0.91418">
        <ele>328</ele>
        <time>2019-02-17T11:11:37.000Z</time>
      </trkpt>
      <trkpt lat="43.23561" lon="0.91416">
        <ele>328</ele>
        <time>2019-02-17T11:11:39.000Z</time>
      </trkpt>
      <trkpt lat="43.2356" lon="0.91414">
        <ele>328</ele>
        <time>2019-02-17T11:11:41.000Z</time>
      </trkpt>
      <trkpt lat="43.23559" lon="0.91412">
        <ele>329</ele>
        <time>2019-02-17T11:11:43.000Z</time>
      </trkpt>
      <trkpt lat="43.23557" lon="0.9141">
        <ele>329</ele>
        <time>2019-02-17T11:11:45.000Z</time>
      </trkpt>
      <trkpt lat="43.23555" lon="0.91408">
        <ele>330</ele>
        <time>2019-02-17T11:11:47.000Z</time>
      </trkpt>
      <trkpt lat="43.23553" lon="0.91406">
        <ele>330</ele>
        <time>2019-02-17T11:11:49.000Z</time>
      </trkpt>
      <trkpt lat="43.23552" lon="0.91404">
        <ele>330</ele>
        <time>2019-02-17T11:11:51.000Z</time>
      </trkpt>
      <trkpt lat="43.23551" lon="0.91402">
        <ele>331</ele>
        <time>2019-02-17T11:11:53.000Z</time>
      </trkpt>
      <trkpt lat="43.2355" lon="0.91401">
        <ele>331</ele>
        <time>2019-02-17T11:11:55.000Z</time>
      </trkpt>
      <trkpt lat="43.23549" lon="0.91399">
        <ele>331</ele>
        <time>2019-02-17T11:11:57.000Z</time>
      </trkpt>
      <trkpt lat="43.23547" lon="0.91397">
        <ele>331</ele>
        <time>2019-02-17T11:11:59.000Z</time>
      </trkpt>
      <trkpt lat="43.23546" lon="0.91395">
        <ele>332</ele>
        <time>2019-02-17T11:12:01.000Z</time>
      </trkpt>
      <trkpt lat="43.23544" lon="0.91394">
        <ele>332</ele>
        <time>2019-02-17T11:12:03.000Z</time>
      </trkpt>
      <trkpt lat="43.23543" lon="0.91392">
        <ele>333</ele>
        <time>2019-02-17T11:12:05.000Z</time>
      </trkpt>
      <trkpt lat="43.2354" lon="0.9139">
        <ele>333</ele>
        <time>2019-02-17T11:12:07.000Z</time>
      </trkpt>
      <trkpt lat="43.23539" lon="0.91389">
        <ele>334</ele>
        <time>2019-02-17T11:12:09.000Z</time>
      </trkpt>
      <trkpt lat="43.23537" lon="0.91388">
        <ele>334</ele>
        <time>2019-02-17T11:12:11.000Z</time>
      </trkpt>
      <trkpt lat="43.23533" lon="0.91387">
        <ele>335</ele>
        <time>2019-02-17T11:12:13.000Z</time>
      </trkpt>
      <trkpt lat="43.23532" lon="0.91386">
        <ele>335</ele>
        <time>2019-02-17T11:12:15.000Z</time>
      </trkpt>
      <trkpt lat="43.2353" lon="0.91385">
        <ele>336</ele>
        <time>2019-02-17T11:12:17.000Z</time>
      </trkpt>
      <trkpt lat="43.23529" lon="0.91384">
        <ele>336</ele>
        <time>2019-02-17T11:12:19.000Z</time>
      </trkpt>
      <trkpt lat="43.23527" lon="0.91382">
        <ele>337</ele>
        <time>2019-02-17T11:12:21.000Z</time>
      </trkpt>
      <trkpt lat="43.23525" lon="0.91381">
        <ele>337</ele>
        <time>2019-02-17T11:12:23.000Z</time>
      </trkpt>
      <trkpt lat="43.23522" lon="0.91379">
        <ele>338</ele>
        <time>2019-02-17T11:12:25.000Z</time>
      </trkpt>
      <trkpt lat="43.2352" lon="0.91378">
        <ele>338</ele>
        <time>2019-02-17T11:12:27.000Z</time>
      </trkpt>
      <trkpt lat="43.23518" lon="0.91376">
        <ele>339</ele>
        <time>2019-02-17T11:12:29.000Z</time>
      </trkpt>
      <trkpt lat="43.23516" lon="0.91375">
        <ele>339</ele>
        <time>2019-02-17T11:12:31.000Z</time>
      </trkpt>
      <trkpt lat="43.23515" lon="0.91373">
        <ele>339</ele>
        <time>2019-02-17T11:12:33.000Z</time>
      </trkpt>
      <trkpt lat="43.23513" lon="0.91373">
        <ele>340</ele>
        <time>2019-02-17T11:12:35.000Z</time>
      </trkpt>
      <trkpt lat="43.23511" lon="0.91372">
        <ele>340</ele>
        <time>2019-02-17T11:12:37.000Z</time>
      </trkpt>
      <trkpt lat="43.23508" lon="0.91371">
        <ele>341</ele>
        <time>2019-02-17T11:12:39.000Z</time>
      </trkpt>
      <trkpt lat="43.23506" lon="0.91369">
        <ele>341</ele>
        <time>2019-02-17T11:12:41.000Z</time>
      </trkpt>
      <trkpt lat="43.23504" lon="0.91366">
        <ele>341</ele>
        <time>2019-02-17T11:12:43.000Z</time>
      </trkpt>
      <trkpt lat="43.23502" lon="0.91364">
        <ele>341</ele>
        <time>2019-02-17T11:12:45.000Z</time>
      </trkpt>
      <trkpt lat="43.235" lon="0.91362">
        <ele>341</ele>
        <time>2019-02-17T11:12:47.000Z</time>
      </trkpt>
      <trkpt lat="43.23499" lon="0.91359">
        <ele>341</ele>
        <time>2019-02-17T11:12:49.000Z</time>
      </trkpt>
      <trkpt lat="43.23498" lon="0.91357">
        <ele>341</ele>
        <time>2019-02-17T11:12:51.000Z</time>
      </trkpt>
      <trkpt lat="43.23497" lon="0.91354">
        <ele>341</ele>
        <time>2019-02-17T11:12:53.000Z</time>
      </trkpt>
      <trkpt lat="43.23496" lon="0.91351">
        <ele>341</ele>
        <time>2019-02-17T11:12:55.000Z</time>
      </trkpt>
      <trkpt lat="43.23495" lon="0.91348">
        <ele>341</ele>
        <time>2019-02-17T11:12:57.000Z</time>
      </trkpt>
      <trkpt lat="43.23494" lon="0.91344">
        <ele>341</ele>
        <time>2019-02-17T11:12:59.000Z</time>
      </trkpt>
      <trkpt lat="43.23494" lon="0.91341">
        <ele>341</ele>
        <time>2019-02-17T11:13:01.000Z</time>
      </trkpt>
      <trkpt lat="43.23492" lon="0.91339">
        <ele>341</ele>
        <time>2019-02-17T11:13:03.000Z</time>
      </trkpt>
      <trkpt lat="43.23492" lon="0.91336">
        <ele>340</ele>
        <time>2019-02-17T11:13:05.000Z</time>
      </trkpt>
      <trkpt lat="43.23491" lon="0.91335">
        <ele>340</ele>
        <time>2019-02-17T11:13:07.000Z</time>
      </trkpt>
      <trkpt lat="43.23489" lon="0.91332">
        <ele>341</ele>
        <time>2019-02-17T11:13:09.000Z</time>
      </trkpt>
      <trkpt lat="43.23488" lon="0.9133">
        <ele>341</ele>
        <time>2019-02-17T11:13:11.000Z</time>
      </trkpt>
      <trkpt lat="43.23487" lon="0.91327">
        <ele>341</ele>
        <time>2019-02-17T11:13:13.000Z</time>
      </trkpt>
      <trkpt lat="43.23486" lon="0.91325">
        <ele>341</ele>
        <time>2019-02-17T11:13:15.000Z</time>
      </trkpt>
      <trkpt lat="43.23484" lon="0.91323">
        <ele>341</ele>
        <time>2019-02-17T11:13:17.000Z</time>
      </trkpt>
      <trkpt lat="43.23483" lon="0.91321">
        <ele>341</ele>
        <time>2019-02-17T11:13:19.000Z</time>
      </trkpt>
      <trkpt lat="43.23483" lon="0.91321">
        <ele>341</ele>
        <time>2019-02-17T11:13:21.000Z</time>
      </trkpt>
      <trkpt lat="43.23482" lon="0.9132">
        <ele>341</ele>
        <time>2019-02-17T11:13:23.000Z</time>
      </trkpt>
      <trkpt lat="43.23481" lon="0.91318">
        <ele>341</ele>
        <time>2019-02-17T11:13:25.000Z</time>
      </trkpt>
      <trkpt lat="43.2348" lon="0.91316">
        <ele>341</ele>
        <time>2019-02-17T11:13:27.000Z</time>
      </trkpt>
      <trkpt lat="43.23479" lon="0.91314">
        <ele>341</ele>
        <time>2019-02-17T11:13:29.000Z</time>
      </trkpt>
      <trkpt lat="43.23478" lon="0.91312">
        <ele>341</ele>
        <time>2019-02-17T11:13:31.000Z</time>
      </trkpt>
      <trkpt lat="43.23477" lon="0.9131">
        <ele>341</ele>
        <time>2019-02-17T11:13:33.000Z</time>
      </trkpt>
      <trkpt lat="43.23476" lon="0.91308">
        <ele>341</ele>
        <time>2019-02-17T11:13:35.000Z</time>
      </trkpt>
      <trkpt lat="43.23474" lon="0.91307">
        <ele>341</ele>
        <time>2019-02-17T11:13:37.000Z</time>
      </trkpt>
      <trkpt lat="43.23473" lon="0.91305">
        <ele>341</ele>
        <time>2019-02-17T11:13:39.000Z</time>
      </trkpt>
      <trkpt lat="43.23472" lon="0.91303">
        <ele>341</ele>
        <time>2019-02-17T11:13:41.000Z</time>
      </trkpt>
      <trkpt lat="43.2347" lon="0.91301">
        <ele>341</ele>
        <time>2019-02-17T11:13:43.000Z</time>
      </trkpt>
      <trkpt lat="43.23469" lon="0.91299">
        <ele>341</ele>
        <time>2019-02-17T11:13:45.000Z</time>
      </trkpt>
      <trkpt lat="43.23468" lon="0.91297">
        <ele>341</ele>
        <time>2019-02-17T11:13:47.000Z</time>
      </trkpt>
      <trkpt lat="43.23467" lon="0.91296">
        <ele>341</ele>
        <time>2019-02-17T11:13:49.000Z</time>
      </trkpt>
      <trkpt lat="43.23466" lon="0.91293">
        <ele>341</ele>
        <time>2019-02-17T11:13:51.000Z</time>
      </trkpt>
      <trkpt lat="43.23463" lon="0.91291">
        <ele>341</ele>
        <time>2019-02-17T11:13:53.000Z</time>
      </trkpt>
      <trkpt lat="43.23462" lon="0.91289">
        <ele>341</ele>
        <time>2019-02-17T11:13:55.000Z</time>
      </trkpt>
      <trkpt lat="43.23461" lon="0.91287">
        <ele>341</ele>
        <time>2019-02-17T11:13:57.000Z</time>
      </trkpt>
      <trkpt lat="43.23459" lon="0.91285">
        <ele>341</ele>
        <time>2019-02-17T11:13:59.000Z</time>
      </trkpt>
      <trkpt lat="43.23458" lon="0.91283">
        <ele>341</ele>
        <time>2019-02-17T11:14:01.000Z</time>
      </trkpt>
      <trkpt lat="43.23457" lon="0.91281">
        <ele>341</ele>
        <time>2019-02-17T11:14:03.000Z</time>
      </trkpt>
      <trkpt lat="43.23455" lon="0.9128">
        <ele>341</ele>
        <time>2019-02-17T11:14:05.000Z</time>
      </trkpt>
      <trkpt lat="43.23454" lon="0.91278">
        <ele>341</ele>
        <time>2019-02-17T11:14:07.000Z</time>
      </trkpt>
      <trkpt lat="43.23453" lon="0.91277">
        <ele>341</ele>
        <time>2019-02-17T11:14:09.000Z</time>
      </trkpt>
      <trkpt lat="43.23452" lon="0.91275">
        <ele>341</ele>
        <time>2019-02-17T11:14:11.000Z</time>
      </trkpt>
      <trkpt lat="43.23451" lon="0.91275">
        <ele>341</ele>
        <time>2019-02-17T11:14:13.000Z</time>
      </trkpt>
      <trkpt lat="43.23449" lon="0.91274">
        <ele>341</ele>
        <time>2019-02-17T11:14:15.000Z</time>
      </trkpt>
      <trkpt lat="43.23446" lon="0.91273">
        <ele>342</ele>
        <time>2019-02-17T11:14:17.000Z</time>
      </trkpt>
      <trkpt lat="43.23445" lon="0.91272">
        <ele>342</ele>
        <time>2019-02-17T11:14:19.000Z</time>
      </trkpt>
      <trkpt lat="43.23443" lon="0.91271">
        <ele>342</ele>
        <time>2019-02-17T11:14:21.000Z</time>
      </trkpt>
      <trkpt lat="43.23442" lon="0.9127">
        <ele>342</ele>
        <time>2019-02-17T11:14:23.000Z</time>
      </trkpt>
      <trkpt lat="43.2344" lon="0.9127">
        <ele>343</ele>
        <time>2019-02-17T11:14:25.000Z</time>
      </trkpt>
      <trkpt lat="43.23438" lon="0.91269">
        <ele>343</ele>
        <time>2019-02-17T11:14:27.000Z</time>
      </trkpt>
      <trkpt lat="43.23436" lon="0.91269">
        <ele>343</ele>
        <time>2019-02-17T11:14:29.000Z</time>
      </trkpt>
      <trkpt lat="43.23434" lon="0.91269">
        <ele>344</ele>
        <time>2019-02-17T11:14:31.000Z</time>
      </trkpt>
      <trkpt lat="43.23433" lon="0.91269">
        <ele>344</ele>
        <time>2019-02-17T11:14:33.000Z</time>
      </trkpt>
      <trkpt lat="43.23431" lon="0.91268">
        <ele>345</ele>
        <time>2019-02-17T11:14:35.000Z</time>
      </trkpt>
      <trkpt lat="43.2343" lon="0.91269">
        <ele>345</ele>
        <time>2019-02-17T11:14:37.000Z</time>
      </trkpt>
      <trkpt lat="43.23428" lon="0.91269">
        <ele>345</ele>
        <time>2019-02-17T11:14:39.000Z</time>
      </trkpt>
      <trkpt lat="43.23426" lon="0.91268">
        <ele>345</ele>
        <time>2019-02-17T11:14:41.000Z</time>
      </trkpt>
      <trkpt lat="43.23424" lon="0.91269">
        <ele>345</ele>
        <time>2019-02-17T11:14:43.000Z</time>
      </trkpt>
      <trkpt lat="43.23422" lon="0.91269">
        <ele>346</ele>
        <time>2019-02-17T11:14:45.000Z</time>
      </trkpt>
      <trkpt lat="43.2342" lon="0.91269">
        <ele>346</ele>
        <time>2019-02-17T11:14:47.000Z</time>
      </trkpt>
      <trkpt lat="43.23419" lon="0.9127">
        <ele>346</ele>
        <time>2019-02-17T11:14:49.000Z</time>
      </trkpt>
      <trkpt lat="43.23417" lon="0.9127">
        <ele>346</ele>
        <time>2019-02-17T11:14:51.000Z</time>
      </trkpt>
      <trkpt lat="43.23415" lon="0.91271">
        <ele>346</ele>
        <time>2019-02-17T11:14:53.000Z</time>
      </trkpt>
      <trkpt lat="43.23414" lon="0.91272">
        <ele>347</ele>
        <time>2019-02-17T11:14:55.000Z</time>
      </trkpt>
      <trkpt lat="43.23411" lon="0.91274">
        <ele>347</ele>
        <time>2019-02-17T11:14:57.000Z</time>
      </trkpt>
      <trkpt lat="43.23409" lon="0.91274">
        <ele>347</ele>
        <time>2019-02-17T11:14:59.000Z</time>
      </trkpt>
      <trkpt lat="43.23407" lon="0.91274">
        <ele>348</ele>
        <time>2019-02-17T11:15:01.000Z</time>
      </trkpt>
      <trkpt lat="43.23404" lon="0.91274">
        <ele>348</ele>
        <time>2019-02-17T11:15:03.000Z</time>
      </trkpt>
      <trkpt lat="43.23402" lon="0.91274">
        <ele>348</ele>
        <time>2019-02-17T11:15:05.000Z</time>
      </trkpt>
      <trkpt lat="43.234" lon="0.91274">
        <ele>348</ele>
        <time>2019-02-17T11:15:07.000Z</time>
      </trkpt>
      <trkpt lat="43.23398" lon="0.91274">
        <ele>348</ele>
        <time>2019-02-17T11:15:09.000Z</time>
      </trkpt>
      <trkpt lat="43.23396" lon="0.91274">
        <ele>349</ele>
        <time>2019-02-17T11:15:11.000Z</time>
      </trkpt>
      <trkpt lat="43.23394" lon="0.91275">
        <ele>349</ele>
        <time>2019-02-17T11:15:13.000Z</time>
      </trkpt>
      <trkpt lat="43.23392" lon="0.91275">
        <ele>349</ele>
        <time>2019-02-17T11:15:15.000Z</time>
      </trkpt>
      <trkpt lat="43.2339" lon="0.91275">
        <ele>349</ele>
        <time>2019-02-17T11:15:17.000Z</time>
      </trkpt>
      <trkpt lat="43.23389" lon="0.91275">
        <ele>349</ele>
        <time>2019-02-17T11:15:19.000Z</time>
      </trkpt>
      <trkpt lat="43.23387" lon="0.91275">
        <ele>349</ele>
        <time>2019-02-17T11:15:21.000Z</time>
      </trkpt>
      <trkpt lat="43.23385" lon="0.91275">
        <ele>349</ele>
        <time>2019-02-17T11:15:23.000Z</time>
      </trkpt>
      <trkpt lat="43.23383" lon="0.91276">
        <ele>350</ele>
        <time>2019-02-17T11:15:25.000Z</time>
      </trkpt>
      <trkpt lat="43.23381" lon="0.91276">
        <ele>350</ele>
        <time>2019-02-17T11:15:27.000Z</time>
      </trkpt>
      <trkpt lat="43.23379" lon="0.91277">
        <ele>350</ele>
        <time>2019-02-17T11:15:29.000Z</time>
      </trkpt>
      <trkpt lat="43.23378" lon="0.91277">
        <ele>350</ele>
        <time>2019-02-17T11:15:31.000Z</time>
      </trkpt>
      <trkpt lat="43.23376" lon="0.91278">
        <ele>350</ele>
        <time>2019-02-17T11:15:33.000Z</time>
      </trkpt>
      <trkpt lat="43.23373" lon="0.91279">
        <ele>351</ele>
        <time>2019-02-17T11:15:35.000Z</time>
      </trkpt>
      <trkpt lat="43.23371" lon="0.91279">
        <ele>351</ele>
        <time>2019-02-17T11:15:37.000Z</time>
      </trkpt>
      <trkpt lat="43.23369" lon="0.9128">
        <ele>351</ele>
        <time>2019-02-17T11:15:39.000Z</time>
      </trkpt>
      <trkpt lat="43.23367" lon="0.9128">
        <ele>351</ele>
        <time>2019-02-17T11:15:41.000Z</time>
      </trkpt>
      <trkpt lat="43.23365" lon="0.91281">
        <ele>352</ele>
        <time>2019-02-17T11:15:43.000Z</time>
      </trkpt>
      <trkpt lat="43.23362" lon="0.91283">
        <ele>352</ele>
        <time>2019-02-17T11:15:45.000Z</time>
      </trkpt>
      <trkpt lat="43.2336" lon="0.91284">
        <ele>352</ele>
        <time>2019-02-17T11:15:47.000Z</time>
      </trkpt>
      <trkpt lat="43.23358" lon="0.91286">
        <ele>353</ele>
        <time>2019-02-17T11:15:49.000Z</time>
      </trkpt>
      <trkpt lat="43.23355" lon="0.91287">
        <ele>353</ele>
        <time>2019-02-17T11:15:51.000Z</time>
      </trkpt>
      <trkpt lat="43.23353" lon="0.91289">
        <ele>353</ele>
        <time>2019-02-17T11:15:53.000Z</time>
      </trkpt>
      <trkpt lat="43.23351" lon="0.91289">
        <ele>354</ele>
        <time>2019-02-17T11:15:55.000Z</time>
      </trkpt>
      <trkpt lat="43.2335" lon="0.91291">
        <ele>354</ele>
        <time>2019-02-17T11:15:57.000Z</time>
      </trkpt>
      <trkpt lat="43.23348" lon="0.91292">
        <ele>354</ele>
        <time>2019-02-17T11:15:59.000Z</time>
      </trkpt>
      <trkpt lat="43.23347" lon="0.91294">
        <ele>355</ele>
        <time>2019-02-17T11:16:01.000Z</time>
      </trkpt>
      <trkpt lat="43.23344" lon="0.91295">
        <ele>355</ele>
        <time>2019-02-17T11:16:03.000Z</time>
      </trkpt>
      <trkpt lat="43.23342" lon="0.91296">
        <ele>356</ele>
        <time>2019-02-17T11:16:05.000Z</time>
      </trkpt>
      <trkpt lat="43.2334" lon="0.91296">
        <ele>357</ele>
        <time>2019-02-17T11:16:07.000Z</time>
      </trkpt>
      <trkpt lat="43.23338" lon="0.91297">
        <ele>357</ele>
        <time>2019-02-17T11:16:09.000Z</time>
      </trkpt>
      <trkpt lat="43.23336" lon="0.91297">
        <ele>358</ele>
        <time>2019-02-17T11:16:11.000Z</time>
      </trkpt>
      <trkpt lat="43.23334" lon="0.91299">
        <ele>358</ele>
        <time>2019-02-17T11:16:13.000Z</time>
      </trkpt>
      <trkpt lat="43.23332" lon="0.91299">
        <ele>358</ele>
        <time>2019-02-17T11:16:15.000Z</time>
      </trkpt>
      <trkpt lat="43.2333" lon="0.91299">
        <ele>358</ele>
        <time>2019-02-17T11:16:17.000Z</time>
      </trkpt>
      <trkpt lat="43.23329" lon="0.913">
        <ele>358</ele>
        <time>2019-02-17T11:16:19.000Z</time>
      </trkpt>
      <trkpt lat="43.23327" lon="0.91301">
        <ele>358</ele>
        <time>2019-02-17T11:16:21.000Z</time>
      </trkpt>
      <trkpt lat="43.23325" lon="0.91302">
        <ele>358</ele>
        <time>2019-02-17T11:16:23.000Z</time>
      </trkpt>
      <trkpt lat="43.23324" lon="0.91302">
        <ele>358</ele>
        <time>2019-02-17T11:16:25.000Z</time>
      </trkpt>
      <trkpt lat="43.23322" lon="0.91304">
        <ele>358</ele>
        <time>2019-02-17T11:16:27.000Z</time>
      </trkpt>
      <trkpt lat="43.2332" lon="0.91305">
        <ele>358</ele>
        <time>2019-02-17T11:16:29.000Z</time>
      </trkpt>
      <trkpt lat="43.23319" lon="0.91307">
        <ele>358</ele>
        <time>2019-02-17T11:16:31.000Z</time>
      </trkpt>
      <trkpt lat="43.23318" lon="0.91309">
        <ele>358</ele>
        <time>2019-02-17T11:16:33.000Z</time>
      </trkpt>
      <trkpt lat="43.23315" lon="0.9131">
        <ele>358</ele>
        <time>2019-02-17T11:16:35.000Z</time>
      </trkpt>
      <trkpt lat="43.23314" lon="0.91311">
        <ele>359</ele>
        <time>2019-02-17T11:16:37.000Z</time>
      </trkpt>
      <trkpt lat="43.23312" lon="0.91313">
        <ele>359</ele>
        <time>2019-02-17T11:16:39.000Z</time>
      </trkpt>
      <trkpt lat="43.2331" lon="0.91315">
        <ele>360</ele>
        <time>2019-02-17T11:16:41.000Z</time>
      </trkpt>
      <trkpt lat="43.23308" lon="0.91316">
        <ele>360</ele>
        <time>2019-02-17T11:16:43.000Z</time>
      </trkpt>
      <trkpt lat="43.23306" lon="0.91317">
        <ele>361</ele>
        <time>2019-02-17T11:16:45.000Z</time>
      </trkpt>
      <trkpt lat="43.23303" lon="0.9132">
        <ele>361</ele>
        <time>2019-02-17T11:16:47.000Z</time>
      </trkpt>
      <trkpt lat="43.23302" lon="0.91321">
        <ele>362</ele>
        <time>2019-02-17T11:16:49.000Z</time>
      </trkpt>
      <trkpt lat="43.233" lon="0.91323">
        <ele>362</ele>
        <time>2019-02-17T11:16:51.000Z</time>
      </trkpt>
      <trkpt lat="43.23297" lon="0.91326">
        <ele>363</ele>
        <time>2019-02-17T11:16:53.000Z</time>
      </trkpt>
      <trkpt lat="43.23294" lon="0.91329">
        <ele>364</ele>
        <time>2019-02-17T11:16:55.000Z</time>
      </trkpt>
      <trkpt lat="43.23293" lon="0.91332">
        <ele>364</ele>
        <time>2019-02-17T11:16:57.000Z</time>
      </trkpt>
      <trkpt lat="43.2329" lon="0.91334">
        <ele>365</ele>
        <time>2019-02-17T11:16:59.000Z</time>
      </trkpt>
      <trkpt lat="43.23289" lon="0.91336">
        <ele>365</ele>
        <time>2019-02-17T11:17:01.000Z</time>
      </trkpt>
      <trkpt lat="43.23287" lon="0.91338">
        <ele>365</ele>
        <time>2019-02-17T11:17:03.000Z</time>
      </trkpt>
      <trkpt lat="43.23286" lon="0.91339">
        <ele>365</ele>
        <time>2019-02-17T11:17:05.000Z</time>
      </trkpt>
      <trkpt lat="43.23285" lon="0.9134">
        <ele>365</ele>
        <time>2019-02-17T11:17:07.000Z</time>
      </trkpt>
      <trkpt lat="43.23283" lon="0.91343">
        <ele>365</ele>
        <time>2019-02-17T11:17:09.000Z</time>
      </trkpt>
      <trkpt lat="43.2328" lon="0.91345">
        <ele>364</ele>
        <time>2019-02-17T11:17:11.000Z</time>
      </trkpt>
      <trkpt lat="43.23278" lon="0.91347">
        <ele>364</ele>
        <time>2019-02-17T11:17:13.000Z</time>
      </trkpt>
      <trkpt lat="43.23276" lon="0.91349">
        <ele>364</ele>
        <time>2019-02-17T11:17:15.000Z</time>
      </trkpt>
      <trkpt lat="43.23274" lon="0.9135">
        <ele>364</ele>
        <time>2019-02-17T11:17:17.000Z</time>
      </trkpt>
      <trkpt lat="43.23272" lon="0.91351">
        <ele>364</ele>
        <time>2019-02-17T11:17:19.000Z</time>
      </trkpt>
      <trkpt lat="43.23269" lon="0.91352">
        <ele>363</ele>
        <time>2019-02-17T11:17:21.000Z</time>
      </trkpt>
      <trkpt lat="43.23266" lon="0.91351">
        <ele>363</ele>
        <time>2019-02-17T11:17:23.000Z</time>
      </trkpt>
      <trkpt lat="43.23264" lon="0.91351">
        <ele>362</ele>
        <time>2019-02-17T11:17:25.000Z</time>
      </trkpt>
      <trkpt lat="43.23262" lon="0.91351">
        <ele>362</ele>
        <time>2019-02-17T11:17:27.000Z</time>
      </trkpt>
      <trkpt lat="43.23261" lon="0.9135">
        <ele>362</ele>
        <time>2019-02-17T11:17:29.000Z</time>
      </trkpt>
      <trkpt lat="43.2326" lon="0.91349">
        <ele>362</ele>
        <time>2019-02-17T11:17:31.000Z</time>
      </trkpt>
      <trkpt lat="43.2326" lon="0.91349">
        <ele>363</ele>
        <time>2019-02-17T11:17:33.000Z</time>
      </trkpt>
      <trkpt lat="43.2326" lon="0.91349">
        <ele>363</ele>
        <time>2019-02-17T11:17:35.000Z</time>
      </trkpt>
      <trkpt lat="43.23259" lon="0.9135">
        <ele>363</ele>
        <time>2019-02-17T11:17:37.000Z</time>
      </trkpt>
      <trkpt lat="43.23259" lon="0.91351">
        <ele>363</ele>
        <time>2019-02-17T11:17:39.000Z</time>
      </trkpt>
      <trkpt lat="43.23259" lon="0.91352">
        <ele>363</ele>
        <time>2019-02-17T11:17:41.000Z</time>
      </trkpt>
      <trkpt lat="43.23259" lon="0.91352">
        <ele>363</ele>
        <time>2019-02-17T11:17:43.000Z</time>
      </trkpt>
      <trkpt lat="43.23259" lon="0.91352">
        <ele>363</ele>
        <time>2019-02-17T11:17:45.000Z</time>
      </trkpt>
      <trkpt lat="43.23259" lon="0.91352">
        <ele>363</ele>
        <time>2019-02-17T11:17:47.000Z</time>
      </trkpt>
      <trkpt lat="43.23259" lon="0.91352">
        <ele>363</ele>
        <time>2019-02-17T11:17:49.000Z</time>
      </trkpt>
      <trkpt lat="43.23259" lon="0.91351">
        <ele>363</ele>
        <time>2019-02-17T11:17:51.000Z</time>
      </trkpt>
      <trkpt lat="43.23258" lon="0.91351">
        <ele>363</ele>
        <time>2019-02-17T11:17:53.000Z</time>
      </trkpt>
      <trkpt lat="43.23258" lon="0.91352">
        <ele>363</ele>
        <time>2019-02-17T11:17:55.000Z</time>
      </trkpt>
      <trkpt lat="43.23257" lon="0.91352">
        <ele>363</ele>
        <time>2019-02-17T11:17:57.000Z</time>
      </trkpt>
      <trkpt lat="43.23257" lon="0.91352">
        <ele>363</ele>
        <time>2019-02-17T11:17:59.000Z</time>
      </trkpt>
      <trkpt lat="43.23257" lon="0.91353">
        <ele>363</ele>
        <time>2019-02-17T11:18:01.000Z</time>
      </trkpt>
      <trkpt lat="43.23256" lon="0.91353">
        <ele>364</ele>
        <time>2019-02-17T11:18:03.000Z</time>
      </trkpt>
      <trkpt lat="43.23255" lon="0.91353">
        <ele>364</ele>
        <time>2019-02-17T11:18:05.000Z</time>
      </trkpt>
      <trkpt lat="43.23255" lon="0.91353">
        <ele>364</ele>
        <time>2019-02-17T11:18:07.000Z</time>
      </trkpt>
      <trkpt lat="43.23254" lon="0.91353">
        <ele>364</ele>
        <time>2019-02-17T11:18:09.000Z</time>
      </trkpt>
      <trkpt lat="43.23252" lon="0.91352">
        <ele>364</ele>
        <time>2019-02-17T11:18:11.000Z</time>
      </trkpt>
      <trkpt lat="43.23251" lon="0.9135">
        <ele>364</ele>
        <time>2019-02-17T11:18:13.000Z</time>
      </trkpt>
      <trkpt lat="43.23249" lon="0.91349">
        <ele>365</ele>
        <time>2019-02-17T11:18:15.000Z</time>
      </trkpt>
      <trkpt lat="43.23248" lon="0.91347">
        <ele>365</ele>
        <time>2019-02-17T11:18:17.000Z</time>
      </trkpt>
      <trkpt lat="43.23246" lon="0.91346">
        <ele>365</ele>
        <time>2019-02-17T11:18:19.000Z</time>
      </trkpt>
      <trkpt lat="43.23245" lon="0.91344">
        <ele>365</ele>
        <time>2019-02-17T11:18:21.000Z</time>
      </trkpt>
      <trkpt lat="43.23244" lon="0.91343">
        <ele>365</ele>
        <time>2019-02-17T11:18:23.000Z</time>
      </trkpt>
      <trkpt lat="43.23243" lon="0.91341">
        <ele>365</ele>
        <time>2019-02-17T11:18:25.000Z</time>
      </trkpt>
      <trkpt lat="43.23242" lon="0.91339">
        <ele>366</ele>
        <time>2019-02-17T11:18:27.000Z</time>
      </trkpt>
      <trkpt lat="43.23241" lon="0.91337">
        <ele>365</ele>
        <time>2019-02-17T11:18:29.000Z</time>
      </trkpt>
      <trkpt lat="43.2324" lon="0.91335">
        <ele>366</ele>
        <time>2019-02-17T11:18:31.000Z</time>
      </trkpt>
      <trkpt lat="43.2324" lon="0.91334">
        <ele>366</ele>
        <time>2019-02-17T11:18:33.000Z</time>
      </trkpt>
      <trkpt lat="43.23239" lon="0.91333">
        <ele>366</ele>
        <time>2019-02-17T11:18:35.000Z</time>
      </trkpt>
      <trkpt lat="43.23238" lon="0.91333">
        <ele>366</ele>
        <time>2019-02-17T11:18:37.000Z</time>
      </trkpt>
      <trkpt lat="43.23237" lon="0.91333">
        <ele>366</ele>
        <time>2019-02-17T11:18:39.000Z</time>
      </trkpt>
      <trkpt lat="43.23236" lon="0.91333">
        <ele>366</ele>
        <time>2019-02-17T11:18:41.000Z</time>
      </trkpt>
      <trkpt lat="43.23236" lon="0.91333">
        <ele>366</ele>
        <time>2019-02-17T11:18:43.000Z</time>
      </trkpt>
      <trkpt lat="43.23235" lon="0.91334">
        <ele>366</ele>
        <time>2019-02-17T11:18:45.000Z</time>
      </trkpt>
      <trkpt lat="43.23235" lon="0.91334">
        <ele>366</ele>
        <time>2019-02-17T11:18:47.000Z</time>
      </trkpt>
      <trkpt lat="43.23235" lon="0.91335">
        <ele>367</ele>
        <time>2019-02-17T11:18:49.000Z</time>
      </trkpt>
      <trkpt lat="43.23233" lon="0.91336">
        <ele>367</ele>
        <time>2019-02-17T11:18:51.000Z</time>
      </trkpt>
      <trkpt lat="43.23232" lon="0.91334">
        <ele>367</ele>
        <time>2019-02-17T11:18:53.000Z</time>
      </trkpt>
      <trkpt lat="43.23231" lon="0.91334">
        <ele>367</ele>
        <time>2019-02-17T11:18:55.000Z</time>
      </trkpt>
      <trkpt lat="43.2323" lon="0.91334">
        <ele>368</ele>
        <time>2019-02-17T11:18:57.000Z</time>
      </trkpt>
      <trkpt lat="43.23229" lon="0.91333">
        <ele>368</ele>
        <time>2019-02-17T11:18:59.000Z</time>
      </trkpt>
      <trkpt lat="43.23228" lon="0.91333">
        <ele>368</ele>
        <time>2019-02-17T11:19:01.000Z</time>
      </trkpt>
      <trkpt lat="43.23227" lon="0.91332">
        <ele>368</ele>
        <time>2019-02-17T11:19:03.000Z</time>
      </trkpt>
      <trkpt lat="43.23226" lon="0.91331">
        <ele>368</ele>
        <time>2019-02-17T11:19:05.000Z</time>
      </trkpt>
      <trkpt lat="43.23224" lon="0.91331">
        <ele>368</ele>
        <time>2019-02-17T11:19:07.000Z</time>
      </trkpt>
      <trkpt lat="43.23223" lon="0.9133">
        <ele>369</ele>
        <time>2019-02-17T11:19:09.000Z</time>
      </trkpt>
      <trkpt lat="43.23222" lon="0.91329">
        <ele>369</ele>
        <time>2019-02-17T11:19:11.000Z</time>
      </trkpt>
      <trkpt lat="43.2322" lon="0.91328">
        <ele>369</ele>
        <time>2019-02-17T11:19:13.000Z</time>
      </trkpt>
      <trkpt lat="43.23218" lon="0.91327">
        <ele>369</ele>
        <time>2019-02-17T11:19:15.000Z</time>
      </trkpt>
      <trkpt lat="43.23216" lon="0.91327">
        <ele>370</ele>
        <time>2019-02-17T11:19:17.000Z</time>
      </trkpt>
      <trkpt lat="43.23215" lon="0.91326">
        <ele>370</ele>
        <time>2019-02-17T11:19:19.000Z</time>
      </trkpt>
      <trkpt lat="43.23214" lon="0.91327">
        <ele>370</ele>
        <time>2019-02-17T11:19:21.000Z</time>
      </trkpt>
      <trkpt lat="43.23214" lon="0.91326">
        <ele>370</ele>
        <time>2019-02-17T11:19:23.000Z</time>
      </trkpt>
      <trkpt lat="43.23213" lon="0.91326">
        <ele>370</ele>
        <time>2019-02-17T11:19:25.000Z</time>
      </trkpt>
      <trkpt lat="43.23213" lon="0.91325">
        <ele>370</ele>
        <time>2019-02-17T11:19:27.000Z</time>
      </trkpt>
      <trkpt lat="43.23213" lon="0.91324">
        <ele>370</ele>
        <time>2019-02-17T11:19:29.000Z</time>
      </trkpt>
      <trkpt lat="43.23213" lon="0.91324">
        <ele>370</ele>
        <time>2019-02-17T11:19:31.000Z</time>
      </trkpt>
      <trkpt lat="43.23213" lon="0.91324">
        <ele>370</ele>
        <time>2019-02-17T11:19:33.000Z</time>
      </trkpt>
      <trkpt lat="43.23213" lon="0.91322">
        <ele>370</ele>
        <time>2019-02-17T11:19:35.000Z</time>
      </trkpt>
      <trkpt lat="43.23213" lon="0.91321">
        <ele>370</ele>
        <time>2019-02-17T11:19:37.000Z</time>
      </trkpt>
      <trkpt lat="43.23211" lon="0.91319">
        <ele>370</ele>
        <time>2019-02-17T11:19:39.000Z</time>
      </trkpt>
      <trkpt lat="43.23211" lon="0.91318">
        <ele>370</ele>
        <time>2019-02-17T11:19:41.000Z</time>
      </trkpt>
      <trkpt lat="43.2321" lon="0.91317">
        <ele>370</ele>
        <time>2019-02-17T11:19:43.000Z</time>
      </trkpt>
      <trkpt lat="43.23209" lon="0.91316">
        <ele>371</ele>
        <time>2019-02-17T11:19:45.000Z</time>
      </trkpt>
      <trkpt lat="43.23207" lon="0.91315">
        <ele>371</ele>
        <time>2019-02-17T11:19:47.000Z</time>
      </trkpt>
      <trkpt lat="43.23206" lon="0.91315">
        <ele>371</ele>
        <time>2019-02-17T11:19:49.000Z</time>
      </trkpt>
      <trkpt lat="43.23204" lon="0.91315">
        <ele>371</ele>
        <time>2019-02-17T11:19:51.000Z</time>
      </trkpt>
      <trkpt lat="43.23201" lon="0.91315">
        <ele>372</ele>
        <time>2019-02-17T11:19:53.000Z</time>
      </trkpt>
      <trkpt lat="43.232" lon="0.91315">
        <ele>372</ele>
        <time>2019-02-17T11:19:55.000Z</time>
      </trkpt>
      <trkpt lat="43.23197" lon="0.91316">
        <ele>373</ele>
        <time>2019-02-17T11:19:57.000Z</time>
      </trkpt>
      <trkpt lat="43.23195" lon="0.91316">
        <ele>373</ele>
        <time>2019-02-17T11:19:59.000Z</time>
      </trkpt>
      <trkpt lat="43.23193" lon="0.91316">
        <ele>374</ele>
        <time>2019-02-17T11:20:01.000Z</time>
      </trkpt>
      <trkpt lat="43.23192" lon="0.91317">
        <ele>374</ele>
        <time>2019-02-17T11:20:03.000Z</time>
      </trkpt>
      <trkpt lat="43.2319" lon="0.91316">
        <ele>374</ele>
        <time>2019-02-17T11:20:05.000Z</time>
      </trkpt>
      <trkpt lat="43.23189" lon="0.91314">
        <ele>374</ele>
        <time>2019-02-17T11:20:07.000Z</time>
      </trkpt>
      <trkpt lat="43.23188" lon="0.91314">
        <ele>375</ele>
        <time>2019-02-17T11:20:09.000Z</time>
      </trkpt>
      <trkpt lat="43.23186" lon="0.91313">
        <ele>375</ele>
        <time>2019-02-17T11:20:11.000Z</time>
      </trkpt>
      <trkpt lat="43.23184" lon="0.91313">
        <ele>375</ele>
        <time>2019-02-17T11:20:13.000Z</time>
      </trkpt>
      <trkpt lat="43.23182" lon="0.91313">
        <ele>376</ele>
        <time>2019-02-17T11:20:15.000Z</time>
      </trkpt>
      <trkpt lat="43.2318" lon="0.91312">
        <ele>376</ele>
        <time>2019-02-17T11:20:17.000Z</time>
      </trkpt>
      <trkpt lat="43.23179" lon="0.91311">
        <ele>376</ele>
        <time>2019-02-17T11:20:19.000Z</time>
      </trkpt>
      <trkpt lat="43.23177" lon="0.9131">
        <ele>376</ele>
        <time>2019-02-17T11:20:21.000Z</time>
      </trkpt>
      <trkpt lat="43.23176" lon="0.9131">
        <ele>376</ele>
        <time>2019-02-17T11:20:23.000Z</time>
      </trkpt>
      <trkpt lat="43.23174" lon="0.91309">
        <ele>376</ele>
        <time>2019-02-17T11:20:25.000Z</time>
      </trkpt>
      <trkpt lat="43.23172" lon="0.9131">
        <ele>377</ele>
        <time>2019-02-17T11:20:27.000Z</time>
      </trkpt>
      <trkpt lat="43.2317" lon="0.91309">
        <ele>377</ele>
        <time>2019-02-17T11:20:29.000Z</time>
      </trkpt>
      <trkpt lat="43.23169" lon="0.91309">
        <ele>377</ele>
        <time>2019-02-17T11:20:31.000Z</time>
      </trkpt>
      <trkpt lat="43.23167" lon="0.91309">
        <ele>377</ele>
        <time>2019-02-17T11:20:33.000Z</time>
      </trkpt>
      <trkpt lat="43.23165" lon="0.9131">
        <ele>377</ele>
        <time>2019-02-17T11:20:35.000Z</time>
      </trkpt>
      <trkpt lat="43.23163" lon="0.9131">
        <ele>377</ele>
        <time>2019-02-17T11:20:37.000Z</time>
      </trkpt>
      <trkpt lat="43.23161" lon="0.91311">
        <ele>378</ele>
        <time>2019-02-17T11:20:39.000Z</time>
      </trkpt>
      <trkpt lat="43.23159" lon="0.9131">
        <ele>378</ele>
        <time>2019-02-17T11:20:41.000Z</time>
      </trkpt>
      <trkpt lat="43.23157" lon="0.91311">
        <ele>378</ele>
        <time>2019-02-17T11:20:43.000Z</time>
      </trkpt>
      <trkpt lat="43.23156" lon="0.9131">
        <ele>378</ele>
        <time>2019-02-17T11:20:45.000Z</time>
      </trkpt>
      <trkpt lat="43.23155" lon="0.9131">
        <ele>378</ele>
        <time>2019-02-17T11:20:47.000Z</time>
      </trkpt>
      <trkpt lat="43.23153" lon="0.9131">
        <ele>378</ele>
        <time>2019-02-17T11:20:49.000Z</time>
      </trkpt>
      <trkpt lat="43.23151" lon="0.91309">
        <ele>378</ele>
        <time>2019-02-17T11:20:51.000Z</time>
      </trkpt>
      <trkpt lat="43.23149" lon="0.91309">
        <ele>379</ele>
        <time>2019-02-17T11:20:53.000Z</time>
      </trkpt>
      <trkpt lat="43.23148" lon="0.91308">
        <ele>379</ele>
        <time>2019-02-17T11:20:55.000Z</time>
      </trkpt>
      <trkpt lat="43.23147" lon="0.91307">
        <ele>379</ele>
        <time>2019-02-17T11:20:57.000Z</time>
      </trkpt>
      <trkpt lat="43.23147" lon="0.91306">
        <ele>379</ele>
        <time>2019-02-17T11:20:59.000Z</time>
      </trkpt>
      <trkpt lat="43.23147" lon="0.91306">
        <ele>379</ele>
        <time>2019-02-17T11:21:01.000Z</time>
      </trkpt>
      <trkpt lat="43.23146" lon="0.91305">
        <ele>379</ele>
        <time>2019-02-17T11:21:03.000Z</time>
      </trkpt>
      <trkpt lat="43.23146" lon="0.91303">
        <ele>378</ele>
        <time>2019-02-17T11:21:05.000Z</time>
      </trkpt>
      <trkpt lat="43.23145" lon="0.91302">
        <ele>378</ele>
        <time>2019-02-17T11:21:07.000Z</time>
      </trkpt>
      <trkpt lat="43.23145" lon="0.91301">
        <ele>378</ele>
        <time>2019-02-17T11:21:09.000Z</time>
      </trkpt>
      <trkpt lat="43.23144" lon="0.913">
        <ele>378</ele>
        <time>2019-02-17T11:21:11.000Z</time>
      </trkpt>
      <trkpt lat="43.23144" lon="0.91299">
        <ele>378</ele>
        <time>2019-02-17T11:21:13.000Z</time>
      </trkpt>
      <trkpt lat="43.23144" lon="0.91297">
        <ele>378</ele>
        <time>2019-02-17T11:21:15.000Z</time>
      </trkpt>
      <trkpt lat="43.23144" lon="0.91294">
        <ele>377</ele>
        <time>2019-02-17T11:21:17.000Z</time>
      </trkpt>
      <trkpt lat="43.23144" lon="0.91291">
        <ele>377</ele>
        <time>2019-02-17T11:21:19.000Z</time>
      </trkpt>
      <trkpt lat="43.23142" lon="0.91288">
        <ele>377</ele>
        <time>2019-02-17T11:21:21.000Z</time>
      </trkpt>
      <trkpt lat="43.23141" lon="0.91287">
        <ele>377</ele>
        <time>2019-02-17T11:21:23.000Z</time>
      </trkpt>
      <trkpt lat="43.23141" lon="0.91284">
        <ele>376</ele>
        <time>2019-02-17T11:21:25.000Z</time>
      </trkpt>
      <trkpt lat="43.2314" lon="0.91282">
        <ele>376</ele>
        <time>2019-02-17T11:21:27.000Z</time>
      </trkpt>
      <trkpt lat="43.2314" lon="0.91279">
        <ele>376</ele>
        <time>2019-02-17T11:21:29.000Z</time>
      </trkpt>
      <trkpt lat="43.23139" lon="0.91276">
        <ele>376</ele>
        <time>2019-02-17T11:21:31.000Z</time>
      </trkpt>
      <trkpt lat="43.23139" lon="0.91273">
        <ele>375</ele>
        <time>2019-02-17T11:21:33.000Z</time>
      </trkpt>
      <trkpt lat="43.23139" lon="0.91271">
        <ele>375</ele>
        <time>2019-02-17T11:21:35.000Z</time>
      </trkpt>
      <trkpt lat="43.23139" lon="0.91268">
        <ele>375</ele>
        <time>2019-02-17T11:21:37.000Z</time>
      </trkpt>
      <trkpt lat="43.23138" lon="0.91266">
        <ele>375</ele>
        <time>2019-02-17T11:21:39.000Z</time>
      </trkpt>
      <trkpt lat="43.23137" lon="0.91264">
        <ele>374</ele>
        <time>2019-02-17T11:21:41.000Z</time>
      </trkpt>
      <trkpt lat="43.23136" lon="0.91261">
        <ele>374</ele>
        <time>2019-02-17T11:21:43.000Z</time>
      </trkpt>
      <trkpt lat="43.23135" lon="0.91259">
        <ele>374</ele>
        <time>2019-02-17T11:21:45.000Z</time>
      </trkpt>
      <trkpt lat="43.23134" lon="0.91257">
        <ele>374</ele>
        <time>2019-02-17T11:21:47.000Z</time>
      </trkpt>
      <trkpt lat="43.23132" lon="0.91255">
        <ele>374</ele>
        <time>2019-02-17T11:21:49.000Z</time>
      </trkpt>
      <trkpt lat="43.2313" lon="0.91253">
        <ele>374</ele>
        <time>2019-02-17T11:21:51.000Z</time>
      </trkpt>
      <trkpt lat="43.23129" lon="0.91251">
        <ele>374</ele>
        <time>2019-02-17T11:21:53.000Z</time>
      </trkpt>
      <trkpt lat="43.23128" lon="0.9125">
        <ele>374</ele>
        <time>2019-02-17T11:21:55.000Z</time>
      </trkpt>
      <trkpt lat="43.23126" lon="0.91248">
        <ele>374</ele>
        <time>2019-02-17T11:21:57.000Z</time>
      </trkpt>
      <trkpt lat="43.23125" lon="0.91247">
        <ele>374</ele>
        <time>2019-02-17T11:21:59.000Z</time>
      </trkpt>
      <trkpt lat="43.23125" lon="0.91246">
        <ele>374</ele>
        <time>2019-02-17T11:22:01.000Z</time>
      </trkpt>
      <trkpt lat="43.23125" lon="0.91246">
        <ele>374</ele>
        <time>2019-02-17T11:22:03.000Z</time>
      </trkpt>
      <trkpt lat="43.23125" lon="0.91246">
        <ele>374</ele>
        <time>2019-02-17T11:22:05.000Z</time>
      </trkpt>
      <trkpt lat="43.23125" lon="0.91245">
        <ele>374</ele>
        <time>2019-02-17T11:22:07.000Z</time>
      </trkpt>
      <trkpt lat="43.23126" lon="0.91245">
        <ele>374</ele>
        <time>2019-02-17T11:22:09.000Z</time>
      </trkpt>
      <trkpt lat="43.23126" lon="0.91244">
        <ele>374</ele>
        <time>2019-02-17T11:22:11.000Z</time>
      </trkpt>
      <trkpt lat="43.23126" lon="0.91244">
        <ele>374</ele>
        <time>2019-02-17T11:22:13.000Z</time>
      </trkpt>
      <trkpt lat="43.23126" lon="0.91245">
        <ele>374</ele>
        <time>2019-02-17T11:22:15.000Z</time>
      </trkpt>
      <trkpt lat="43.23127" lon="0.91245">
        <ele>374</ele>
        <time>2019-02-17T11:22:17.000Z</time>
      </trkpt>
      <trkpt lat="43.23127" lon="0.91245">
        <ele>374</ele>
        <time>2019-02-17T11:22:19.000Z</time>
      </trkpt>
      <trkpt lat="43.23126" lon="0.91245">
        <ele>374</ele>
        <time>2019-02-17T11:22:21.000Z</time>
      </trkpt>
      <trkpt lat="43.23125" lon="0.91246">
        <ele>374</ele>
        <time>2019-02-17T11:22:23.000Z</time>
      </trkpt>
      <trkpt lat="43.23125" lon="0.91246">
        <ele>374</ele>
        <time>2019-02-17T11:22:25.000Z</time>
      </trkpt>
      <trkpt lat="43.23125" lon="0.91247">
        <ele>374</ele>
        <time>2019-02-17T11:22:27.000Z</time>
      </trkpt>
      <trkpt lat="43.23125" lon="0.91247">
        <ele>374</ele>
        <time>2019-02-17T11:22:29.000Z</time>
      </trkpt>
      <trkpt lat="43.23124" lon="0.91247">
        <ele>374</ele>
        <time>2019-02-17T11:22:31.000Z</time>
      </trkpt>
      <trkpt lat="43.23124" lon="0.91247">
        <ele>374</ele>
        <time>2019-02-17T11:22:33.000Z</time>
      </trkpt>
      <trkpt lat="43.23125" lon="0.91247">
        <ele>374</ele>
        <time>2019-02-17T11:22:35.000Z</time>
      </trkpt>
      <trkpt lat="43.23125" lon="0.91246">
        <ele>374</ele>
        <time>2019-02-17T11:22:37.000Z</time>
      </trkpt>
      <trkpt lat="43.23125" lon="0.91246">
        <ele>374</ele>
        <time>2019-02-17T11:22:39.000Z</time>
      </trkpt>
      <trkpt lat="43.23125" lon="0.91246">
        <ele>374</ele>
        <time>2019-02-17T11:22:41.000Z</time>
      </trkpt>
      <trkpt lat="43.23124" lon="0.91247">
        <ele>374</ele>
        <time>2019-02-17T11:22:43.000Z</time>
      </trkpt>
      <trkpt lat="43.23124" lon="0.91247">
        <ele>374</ele>
        <time>2019-02-17T11:22:45.000Z</time>
      </trkpt>
      <trkpt lat="43.23124" lon="0.91247">
        <ele>374</ele>
        <time>2019-02-17T11:22:47.000Z</time>
      </trkpt>
      <trkpt lat="43.23124" lon="0.91248">
        <ele>374</ele>
        <time>2019-02-17T11:22:49.000Z</time>
      </trkpt>
      <trkpt lat="43.23123" lon="0.91248">
        <ele>374</ele>
        <time>2019-02-17T11:22:51.000Z</time>
      </trkpt>
      <trkpt lat="43.23123" lon="0.91248">
        <ele>374</ele>
        <time>2019-02-17T11:22:53.000Z</time>
      </trkpt>
      <trkpt lat="43.23123" lon="0.91248">
        <ele>374</ele>
        <time>2019-02-17T11:22:55.000Z</time>
      </trkpt>
      <trkpt lat="43.23125" lon="0.91245">
        <ele>374</ele>
        <time>2019-02-17T11:22:57.000Z</time>
      </trkpt>
      <trkpt lat="43.23125" lon="0.91245">
        <ele>374</ele>
        <time>2019-02-17T11:22:59.000Z</time>
      </trkpt>
      <trkpt lat="43.23124" lon="0.91245">
        <ele>374</ele>
        <time>2019-02-17T11:23:01.000Z</time>
      </trkpt>
      <trkpt lat="43.23125" lon="0.91244">
        <ele>374</ele>
        <time>2019-02-17T11:23:03.000Z</time>
      </trkpt>
      <trkpt lat="43.23125" lon="0.91244">
        <ele>374</ele>
        <time>2019-02-17T11:23:05.000Z</time>
      </trkpt>
      <trkpt lat="43.23125" lon="0.91244">
        <ele>374</ele>
        <time>2019-02-17T11:23:07.000Z</time>
      </trkpt>
      <trkpt lat="43.23125" lon="0.91245">
        <ele>374</ele>
        <time>2019-02-17T11:23:09.000Z</time>
      </trkpt>
      <trkpt lat="43.23125" lon="0.91244">
        <ele>374</ele>
        <time>2019-02-17T11:23:11.000Z</time>
      </trkpt>
      <trkpt lat="43.23125" lon="0.91245">
        <ele>374</ele>
        <time>2019-02-17T11:23:13.000Z</time>
      </trkpt>
      <trkpt lat="43.23125" lon="0.91244">
        <ele>374</ele>
        <time>2019-02-17T11:23:15.000Z</time>
      </trkpt>
      <trkpt lat="43.23125" lon="0.91244">
        <ele>374</ele>
        <time>2019-02-17T11:23:17.000Z</time>
      </trkpt>
      <trkpt lat="43.23125" lon="0.91244">
        <ele>374</ele>
        <time>2019-02-17T11:23:19.000Z</time>
      </trkpt>
      <trkpt lat="43.23125" lon="0.91245">
        <ele>374</ele>
        <time>2019-02-17T11:23:21.000Z</time>
      </trkpt>
      <trkpt lat="43.23125" lon="0.91245">
        <ele>374</ele>
        <time>2019-02-17T11:23:23.000Z</time>
      </trkpt>
      <trkpt lat="43.23125" lon="0.91245">
        <ele>374</ele>
        <time>2019-02-17T11:23:25.000Z</time>
      </trkpt>
      <trkpt lat="43.23125" lon="0.91245">
        <ele>374</ele>
        <time>2019-02-17T11:23:27.000Z</time>
      </trkpt>
      <trkpt lat="43.23125" lon="0.91245">
        <ele>374</ele>
        <time>2019-02-17T11:23:29.000Z</time>
      </trkpt>
      <trkpt lat="43.23124" lon="0.91245">
        <ele>374</ele>
        <time>2019-02-17T11:23:31.000Z</time>
      </trkpt>
      <trkpt lat="43.23124" lon="0.91245">
        <ele>374</ele>
        <time>2019-02-17T11:23:33.000Z</time>
      </trkpt>
      <trkpt lat="43.23124" lon="0.91245">
        <ele>374</ele>
        <time>2019-02-17T11:23:35.000Z</time>
      </trkpt>
      <trkpt lat="43.23124" lon="0.91246">
        <ele>374</ele>
        <time>2019-02-17T11:23:37.000Z</time>
      </trkpt>
      <trkpt lat="43.23124" lon="0.91246">
        <ele>374</ele>
        <time>2019-02-17T11:23:39.000Z</time>
      </trkpt>
      <trkpt lat="43.23124" lon="0.91245">
        <ele>374</ele>
        <time>2019-02-17T11:23:41.000Z</time>
      </trkpt>
      <trkpt lat="43.23124" lon="0.91245">
        <ele>374</ele>
        <time>2019-02-17T11:23:43.000Z</time>
      </trkpt>
      <trkpt lat="43.23124" lon="0.91245">
        <ele>374</ele>
        <time>2019-02-17T11:23:45.000Z</time>
      </trkpt>
      <trkpt lat="43.23124" lon="0.91244">
        <ele>374</ele>
        <time>2019-02-17T11:23:47.000Z</time>
      </trkpt>
      <trkpt lat="43.23124" lon="0.91244">
        <ele>374</ele>
        <time>2019-02-17T11:23:49.000Z</time>
      </trkpt>
      <trkpt lat="43.23124" lon="0.91243">
        <ele>374</ele>
        <time>2019-02-17T11:23:51.000Z</time>
      </trkpt>
      <trkpt lat="43.23124" lon="0.91243">
        <ele>374</ele>
        <time>2019-02-17T11:23:53.000Z</time>
      </trkpt>
      <trkpt lat="43.23124" lon="0.91243">
        <ele>374</ele>
        <time>2019-02-17T11:23:55.000Z</time>
      </trkpt>
      <trkpt lat="43.23124" lon="0.91242">
        <ele>374</ele>
        <time>2019-02-17T11:23:57.000Z</time>
      </trkpt>
      <trkpt lat="43.23124" lon="0.91242">
        <ele>374</ele>
        <time>2019-02-17T11:23:59.000Z</time>
      </trkpt>
      <trkpt lat="43.23124" lon="0.91242">
        <ele>374</ele>
        <time>2019-02-17T11:24:01.000Z</time>
      </trkpt>
      <trkpt lat="43.23125" lon="0.91243">
        <ele>374</ele>
        <time>2019-02-17T11:24:03.000Z</time>
      </trkpt>
      <trkpt lat="43.23125" lon="0.91243">
        <ele>374</ele>
        <time>2019-02-17T11:24:05.000Z</time>
      </trkpt>
      <trkpt lat="43.23125" lon="0.91244">
        <ele>374</ele>
        <time>2019-02-17T11:24:07.000Z</time>
      </trkpt>
      <trkpt lat="43.23125" lon="0.91244">
        <ele>374</ele>
        <time>2019-02-17T11:24:09.000Z</time>
      </trkpt>
      <trkpt lat="43.23126" lon="0.91244">
        <ele>374</ele>
        <time>2019-02-17T11:24:11.000Z</time>
      </trkpt>
      <trkpt lat="43.23126" lon="0.91244">
        <ele>374</ele>
        <time>2019-02-17T11:24:13.000Z</time>
      </trkpt>
      <trkpt lat="43.23126" lon="0.91243">
        <ele>374</ele>
        <time>2019-02-17T11:24:15.000Z</time>
      </trkpt>
      <trkpt lat="43.23127" lon="0.91242">
        <ele>374</ele>
        <time>2019-02-17T11:24:17.000Z</time>
      </trkpt>
      <trkpt lat="43.23127" lon="0.91242">
        <ele>374</ele>
        <time>2019-02-17T11:24:19.000Z</time>
      </trkpt>
      <trkpt lat="43.23127" lon="0.91242">
        <ele>374</ele>
        <time>2019-02-17T11:24:21.000Z</time>
      </trkpt>
      <trkpt lat="43.23126" lon="0.91242">
        <ele>374</ele>
        <time>2019-02-17T11:24:23.000Z</time>
      </trkpt>
      <trkpt lat="43.23127" lon="0.91242">
        <ele>374</ele>
        <time>2019-02-17T11:24:25.000Z</time>
      </trkpt>
      <trkpt lat="43.23126" lon="0.91242">
        <ele>374</ele>
        <time>2019-02-17T11:24:27.000Z</time>
      </trkpt>
      <trkpt lat="43.23126" lon="0.91241">
        <ele>374</ele>
        <time>2019-02-17T11:24:29.000Z</time>
      </trkpt>
      <trkpt lat="43.23126" lon="0.91241">
        <ele>374</ele>
        <time>2019-02-17T11:24:31.000Z</time>
      </trkpt>
      <trkpt lat="43.23126" lon="0.91241">
        <ele>374</ele>
        <time>2019-02-17T11:24:33.000Z</time>
      </trkpt>
      <trkpt lat="43.23126" lon="0.91241">
        <ele>374</ele>
        <time>2019-02-17T11:24:35.000Z</time>
      </trkpt>
      <trkpt lat="43.23127" lon="0.91242">
        <ele>374</ele>
        <time>2019-02-17T11:24:37.000Z</time>
      </trkpt>
      <trkpt lat="43.23127" lon="0.91242">
        <ele>374</ele>
        <time>2019-02-17T11:24:39.000Z</time>
      </trkpt>
      <trkpt lat="43.23127" lon="0.91242">
        <ele>374</ele>
        <time>2019-02-17T11:24:41.000Z</time>
      </trkpt>
      <trkpt lat="43.23127" lon="0.91242">
        <ele>374</ele>
        <time>2019-02-17T11:24:43.000Z</time>
      </trkpt>
      <trkpt lat="43.23127" lon="0.91242">
        <ele>374</ele>
        <time>2019-02-17T11:24:45.000Z</time>
      </trkpt>
      <trkpt lat="43.23127" lon="0.91242">
        <ele>374</ele>
        <time>2019-02-17T11:24:47.000Z</time>
      </trkpt>
      <trkpt lat="43.23127" lon="0.91243">
        <ele>374</ele>
        <time>2019-02-17T11:24:49.000Z</time>
      </trkpt>
      <trkpt lat="43.23127" lon="0.91243">
        <ele>374</ele>
        <time>2019-02-17T11:24:51.000Z</time>
      </trkpt>
      <trkpt lat="43.23127" lon="0.91243">
        <ele>374</ele>
        <time>2019-02-17T11:24:53.000Z</time>
      </trkpt>
      <trkpt lat="43.23127" lon="0.91243">
        <ele>374</ele>
        <time>2019-02-17T11:24:55.000Z</time>
      </trkpt>
      <trkpt lat="43.23127" lon="0.91244">
        <ele>374</ele>
        <time>2019-02-17T11:24:57.000Z</time>
      </trkpt>
      <trkpt lat="43.23127" lon="0.91244">
        <ele>374</ele>
        <time>2019-02-17T11:24:59.000Z</time>
      </trkpt>
      <trkpt lat="43.23127" lon="0.91244">
        <ele>374</ele>
        <time>2019-02-17T11:25:01.000Z</time>
      </trkpt>
      <trkpt lat="43.23128" lon="0.91244">
        <ele>374</ele>
        <time>2019-02-17T11:25:03.000Z</time>
      </trkpt>
      <trkpt lat="43.23129" lon="0.91243">
        <ele>374</ele>
        <time>2019-02-17T11:25:05.000Z</time>
      </trkpt>
      <trkpt lat="43.23129" lon="0.91242">
        <ele>374</ele>
        <time>2019-02-17T11:25:07.000Z</time>
      </trkpt>
      <trkpt lat="43.23129" lon="0.91242">
        <ele>374</ele>
        <time>2019-02-17T11:25:09.000Z</time>
      </trkpt>
      <trkpt lat="43.23129" lon="0.91242">
        <ele>374</ele>
        <time>2019-02-17T11:25:11.000Z</time>
      </trkpt>
      <trkpt lat="43.23129" lon="0.91241">
        <ele>374</ele>
        <time>2019-02-17T11:25:13.000Z</time>
      </trkpt>
      <trkpt lat="43.2313" lon="0.91241">
        <ele>374</ele>
        <time>2019-02-17T11:25:15.000Z</time>
      </trkpt>
      <trkpt lat="43.23129" lon="0.9124">
        <ele>374</ele>
        <time>2019-02-17T11:25:17.000Z</time>
      </trkpt>
      <trkpt lat="43.23129" lon="0.9124">
        <ele>374</ele>
        <time>2019-02-17T11:25:19.000Z</time>
      </trkpt>
      <trkpt lat="43.23129" lon="0.9124">
        <ele>374</ele>
        <time>2019-02-17T11:25:21.000Z</time>
      </trkpt>
      <trkpt lat="43.23129" lon="0.9124">
        <ele>374</ele>
        <time>2019-02-17T11:25:23.000Z</time>
      </trkpt>
      <trkpt lat="43.23129" lon="0.9124">
        <ele>374</ele>
        <time>2019-02-17T11:25:25.000Z</time>
      </trkpt>
      <trkpt lat="43.23129" lon="0.91241">
        <ele>374</ele>
        <time>2019-02-17T11:25:27.000Z</time>
      </trkpt>
      <trkpt lat="43.23129" lon="0.91241">
        <ele>374</ele>
        <time>2019-02-17T11:25:29.000Z</time>
      </trkpt>
      <trkpt lat="43.23129" lon="0.91241">
        <ele>374</ele>
        <time>2019-02-17T11:25:31.000Z</time>
      </trkpt>
      <trkpt lat="43.23129" lon="0.91241">
        <ele>374</ele>
        <time>2019-02-17T11:25:33.000Z</time>
      </trkpt>
      <trkpt lat="43.23128" lon="0.91242">
        <ele>374</ele>
        <time>2019-02-17T11:25:35.000Z</time>
      </trkpt>
      <trkpt lat="43.23128" lon="0.91241">
        <ele>374</ele>
        <time>2019-02-17T11:25:37.000Z</time>
      </trkpt>
      <trkpt lat="43.23128" lon="0.91241">
        <ele>374</ele>
        <time>2019-02-17T11:25:39.000Z</time>
      </trkpt>
      <trkpt lat="43.23128" lon="0.91242">
        <ele>374</ele>
        <time>2019-02-17T11:25:41.000Z</time>
      </trkpt>
      <trkpt lat="43.23127" lon="0.91242">
        <ele>374</ele>
        <time>2019-02-17T11:25:43.000Z</time>
      </trkpt>
      <trkpt lat="43.23127" lon="0.91242">
        <ele>374</ele>
        <time>2019-02-17T11:25:45.000Z</time>
      </trkpt>
      <trkpt lat="43.23127" lon="0.91241">
        <ele>374</ele>
        <time>2019-02-17T11:25:47.000Z</time>
      </trkpt>
      <trkpt lat="43.23127" lon="0.91242">
        <ele>374</ele>
        <time>2019-02-17T11:25:49.000Z</time>
      </trkpt>
      <trkpt lat="43.23127" lon="0.91242">
        <ele>374</ele>
        <time>2019-02-17T11:25:51.000Z</time>
      </trkpt>
      <trkpt lat="43.23127" lon="0.91242">
        <ele>374</ele>
        <time>2019-02-17T11:25:53.000Z</time>
      </trkpt>
      <trkpt lat="43.23126" lon="0.91241">
        <ele>374</ele>
        <time>2019-02-17T11:25:55.000Z</time>
      </trkpt>
      <trkpt lat="43.23126" lon="0.91242">
        <ele>374</ele>
        <time>2019-02-17T11:25:57.000Z</time>
      </trkpt>
      <trkpt lat="43.23126" lon="0.91242">
        <ele>374</ele>
        <time>2019-02-17T11:25:59.000Z</time>
      </trkpt>
      <trkpt lat="43.23127" lon="0.91242">
        <ele>374</ele>
        <time>2019-02-17T11:26:01.000Z</time>
      </trkpt>
      <trkpt lat="43.23127" lon="0.91243">
        <ele>374</ele>
        <time>2019-02-17T11:26:03.000Z</time>
      </trkpt>
      <trkpt lat="43.23128" lon="0.91242">
        <ele>374</ele>
        <time>2019-02-17T11:26:05.000Z</time>
      </trkpt>
      <trkpt lat="43.23128" lon="0.91242">
        <ele>374</ele>
        <time>2019-02-17T11:26:07.000Z</time>
      </trkpt>
      <trkpt lat="43.23128" lon="0.91242">
        <ele>374</ele>
        <time>2019-02-17T11:26:09.000Z</time>
      </trkpt>
      <trkpt lat="43.23128" lon="0.91241">
        <ele>374</ele>
        <time>2019-02-17T11:26:11.000Z</time>
      </trkpt>
      <trkpt lat="43.23128" lon="0.91241">
        <ele>374</ele>
        <time>2019-02-17T11:26:13.000Z</time>
      </trkpt>
      <trkpt lat="43.23128" lon="0.91242">
        <ele>374</ele>
        <time>2019-02-17T11:26:15.000Z</time>
      </trkpt>
      <trkpt lat="43.23128" lon="0.91242">
        <ele>374</ele>
        <time>2019-02-17T11:26:17.000Z</time>
      </trkpt>
      <trkpt lat="43.23128" lon="0.91242">
        <ele>374</ele>
        <time>2019-02-17T11:26:19.000Z</time>
      </trkpt>
      <trkpt lat="43.23128" lon="0.91242">
        <ele>374</ele>
        <time>2019-02-17T11:26:21.000Z</time>
      </trkpt>
      <trkpt lat="43.23129" lon="0.91243">
        <ele>374</ele>
        <time>2019-02-17T11:26:23.000Z</time>
      </trkpt>
      <trkpt lat="43.23128" lon="0.91243">
        <ele>374</ele>
        <time>2019-02-17T11:26:25.000Z</time>
      </trkpt>
      <trkpt lat="43.23128" lon="0.91243">
        <ele>374</ele>
        <time>2019-02-17T11:26:27.000Z</time>
      </trkpt>
      <trkpt lat="43.23128" lon="0.91243">
        <ele>374</ele>
        <time>2019-02-17T11:26:29.000Z</time>
      </trkpt>
      <trkpt lat="43.23128" lon="0.91243">
        <ele>374</ele>
        <time>2019-02-17T11:26:31.000Z</time>
      </trkpt>
      <trkpt lat="43.23128" lon="0.91243">
        <ele>374</ele>
        <time>2019-02-17T11:26:33.000Z</time>
      </trkpt>
      <trkpt lat="43.23128" lon="0.91243">
        <ele>374</ele>
        <time>2019-02-17T11:26:35.000Z</time>
      </trkpt>
      <trkpt lat="43.23129" lon="0.91243">
        <ele>374</ele>
        <time>2019-02-17T11:26:37.000Z</time>
      </trkpt>
      <trkpt lat="43.23128" lon="0.91243">
        <ele>374</ele>
        <time>2019-02-17T11:26:39.000Z</time>
      </trkpt>
      <trkpt lat="43.23128" lon="0.91243">
        <ele>374</ele>
        <time>2019-02-17T11:26:41.000Z</time>
      </trkpt>
      <trkpt lat="43.23128" lon="0.91241">
        <ele>374</ele>
        <time>2019-02-17T11:26:43.000Z</time>
      </trkpt>
      <trkpt lat="43.23128" lon="0.91241">
        <ele>374</ele>
        <time>2019-02-17T11:26:45.000Z</time>
      </trkpt>
      <trkpt lat="43.23128" lon="0.91241">
        <ele>374</ele>
        <time>2019-02-17T11:26:47.000Z</time>
      </trkpt>
      <trkpt lat="43.23128" lon="0.91241">
        <ele>374</ele>
        <time>2019-02-17T11:26:49.000Z</time>
      </trkpt>
      <trkpt lat="43.23128" lon="0.91241">
        <ele>374</ele>
        <time>2019-02-17T11:26:51.000Z</time>
      </trkpt>
      <trkpt lat="43.23128" lon="0.91241">
        <ele>374</ele>
        <time>2019-02-17T11:26:53.000Z</time>
      </trkpt>
      <trkpt lat="43.23128" lon="0.91242">
        <ele>374</ele>
        <time>2019-02-17T11:26:55.000Z</time>
      </trkpt>
      <trkpt lat="43.23128" lon="0.91242">
        <ele>374</ele>
        <time>2019-02-17T11:26:57.000Z</time>
      </trkpt>
      <trkpt lat="43.23128" lon="0.91241">
        <ele>374</ele>
        <time>2019-02-17T11:26:59.000Z</time>
      </trkpt>
      <trkpt lat="43.23127" lon="0.9124">
        <ele>374</ele>
        <time>2019-02-17T11:27:01.000Z</time>
      </trkpt>
      <trkpt lat="43.23127" lon="0.9124">
        <ele>374</ele>
        <time>2019-02-17T11:27:03.000Z</time>
      </trkpt>
      <trkpt lat="43.23127" lon="0.91239">
        <ele>374</ele>
        <time>2019-02-17T11:27:05.000Z</time>
      </trkpt>
      <trkpt lat="43.23127" lon="0.91239">
        <ele>374</ele>
        <time>2019-02-17T11:27:07.000Z</time>
      </trkpt>
      <trkpt lat="43.23127" lon="0.91239">
        <ele>374</ele>
        <time>2019-02-17T11:27:09.000Z</time>
      </trkpt>
      <trkpt lat="43.23127" lon="0.91238">
        <ele>374</ele>
        <time>2019-02-17T11:27:11.000Z</time>
      </trkpt>
      <trkpt lat="43.23128" lon="0.91238">
        <ele>374</ele>
        <time>2019-02-17T11:27:13.000Z</time>
      </trkpt>
      <trkpt lat="43.23127" lon="0.91238">
        <ele>374</ele>
        <time>2019-02-17T11:27:15.000Z</time>
      </trkpt>
      <trkpt lat="43.23127" lon="0.91239">
        <ele>374</ele>
        <time>2019-02-17T11:27:17.000Z</time>
      </trkpt>
      <trkpt lat="43.23127" lon="0.91239">
        <ele>374</ele>
        <time>2019-02-17T11:27:19.000Z</time>
      </trkpt>
      <trkpt lat="43.23127" lon="0.9124">
        <ele>374</ele>
        <time>2019-02-17T11:27:21.000Z</time>
      </trkpt>
      <trkpt lat="43.23126" lon="0.91241">
        <ele>374</ele>
        <time>2019-02-17T11:27:23.000Z</time>
      </trkpt>
      <trkpt lat="43.23126" lon="0.9124">
        <ele>374</ele>
        <time>2019-02-17T11:27:25.000Z</time>
      </trkpt>
      <trkpt lat="43.23127" lon="0.91241">
        <ele>374</ele>
        <time>2019-02-17T11:27:27.000Z</time>
      </trkpt>
      <trkpt lat="43.23127" lon="0.91241">
        <ele>374</ele>
        <time>2019-02-17T11:27:29.000Z</time>
      </trkpt>
      <trkpt lat="43.23127" lon="0.91242">
        <ele>374</ele>
        <time>2019-02-17T11:27:31.000Z</time>
      </trkpt>
      <trkpt lat="43.23127" lon="0.91242">
        <ele>374</ele>
        <time>2019-02-17T11:27:33.000Z</time>
      </trkpt>
      <trkpt lat="43.23126" lon="0.91243">
        <ele>374</ele>
        <time>2019-02-17T11:27:35.000Z</time>
      </trkpt>
      <trkpt lat="43.23126" lon="0.91243">
        <ele>374</ele>
        <time>2019-02-17T11:27:37.000Z</time>
      </trkpt>
      <trkpt lat="43.23126" lon="0.91243">
        <ele>374</ele>
        <time>2019-02-17T11:27:39.000Z</time>
      </trkpt>
      <trkpt lat="43.23127" lon="0.91243">
        <ele>374</ele>
        <time>2019-02-17T11:27:41.000Z</time>
      </trkpt>
      <trkpt lat="43.23127" lon="0.91243">
        <ele>374</ele>
        <time>2019-02-17T11:27:43.000Z</time>
      </trkpt>
      <trkpt lat="43.23127" lon="0.91243">
        <ele>374</ele>
        <time>2019-02-17T11:27:45.000Z</time>
      </trkpt>
      <trkpt lat="43.23128" lon="0.91242">
        <ele>374</ele>
        <time>2019-02-17T11:27:47.000Z</time>
      </trkpt>
      <trkpt lat="43.23128" lon="0.91243">
        <ele>374</ele>
        <time>2019-02-17T11:27:49.000Z</time>
      </trkpt>
      <trkpt lat="43.23128" lon="0.91243">
        <ele>374</ele>
        <time>2019-02-17T11:27:51.000Z</time>
      </trkpt>
      <trkpt lat="43.23128" lon="0.91243">
        <ele>374</ele>
        <time>2019-02-17T11:27:53.000Z</time>
      </trkpt>
      <trkpt lat="43.23128" lon="0.91243">
        <ele>374</ele>
        <time>2019-02-17T11:27:55.000Z</time>
      </trkpt>
      <trkpt lat="43.23128" lon="0.91243">
        <ele>374</ele>
        <time>2019-02-17T11:27:57.000Z</time>
      </trkpt>
      <trkpt lat="43.23128" lon="0.91243">
        <ele>374</ele>
        <time>2019-02-17T11:27:59.000Z</time>
      </trkpt>
      <trkpt lat="43.23128" lon="0.91243">
        <ele>374</ele>
        <time>2019-02-17T11:28:01.000Z</time>
      </trkpt>
      <trkpt lat="43.23128" lon="0.91242">
        <ele>374</ele>
        <time>2019-02-17T11:28:03.000Z</time>
      </trkpt>
      <trkpt lat="43.23129" lon="0.91242">
        <ele>374</ele>
        <time>2019-02-17T11:28:05.000Z</time>
      </trkpt>
      <trkpt lat="43.23129" lon="0.91242">
        <ele>374</ele>
        <time>2019-02-17T11:28:07.000Z</time>
      </trkpt>
      <trkpt lat="43.23129" lon="0.91242">
        <ele>374</ele>
        <time>2019-02-17T11:28:09.000Z</time>
      </trkpt>
      <trkpt lat="43.23129" lon="0.91242">
        <ele>374</ele>
        <time>2019-02-17T11:28:11.000Z</time>
      </trkpt>
      <trkpt lat="43.23129" lon="0.91242">
        <ele>374</ele>
        <time>2019-02-17T11:28:13.000Z</time>
      </trkpt>
      <trkpt lat="43.2313" lon="0.91241">
        <ele>374</ele>
        <time>2019-02-17T11:28:15.000Z</time>
      </trkpt>
      <trkpt lat="43.2313" lon="0.91241">
        <ele>374</ele>
        <time>2019-02-17T11:28:17.000Z</time>
      </trkpt>
      <trkpt lat="43.2313" lon="0.91241">
        <ele>374</ele>
        <time>2019-02-17T11:28:19.000Z</time>
      </trkpt>
      <trkpt lat="43.2313" lon="0.91242">
        <ele>374</ele>
        <time>2019-02-17T11:28:21.000Z</time>
      </trkpt>
      <trkpt lat="43.23129" lon="0.91242">
        <ele>374</ele>
        <time>2019-02-17T11:28:23.000Z</time>
      </trkpt>
      <trkpt lat="43.23129" lon="0.91242">
        <ele>374</ele>
        <time>2019-02-17T11:28:25.000Z</time>
      </trkpt>
      <trkpt lat="43.23129" lon="0.91242">
        <ele>374</ele>
        <time>2019-02-17T11:28:27.000Z</time>
      </trkpt>
      <trkpt lat="43.23129" lon="0.91242">
        <ele>374</ele>
        <time>2019-02-17T11:28:29.000Z</time>
      </trkpt>
      <trkpt lat="43.23128" lon="0.91241">
        <ele>374</ele>
        <time>2019-02-17T11:28:31.000Z</time>
      </trkpt>
      <trkpt lat="43.23129" lon="0.91241">
        <ele>374</ele>
        <time>2019-02-17T11:28:33.000Z</time>
      </trkpt>
      <trkpt lat="43.23129" lon="0.9124">
        <ele>374</ele>
        <time>2019-02-17T11:28:35.000Z</time>
      </trkpt>
      <trkpt lat="43.23129" lon="0.9124">
        <ele>374</ele>
        <time>2019-02-17T11:28:37.000Z</time>
      </trkpt>
      <trkpt lat="43.23129" lon="0.9124">
        <ele>374</ele>
        <time>2019-02-17T11:28:39.000Z</time>
      </trkpt>
      <trkpt lat="43.23129" lon="0.9124">
        <ele>374</ele>
        <time>2019-02-17T11:28:41.000Z</time>
      </trkpt>
      <trkpt lat="43.23129" lon="0.9124">
        <ele>374</ele>
        <time>2019-02-17T11:28:43.000Z</time>
      </trkpt>
      <trkpt lat="43.23129" lon="0.9124">
        <ele>374</ele>
        <time>2019-02-17T11:28:45.000Z</time>
      </trkpt>
      <trkpt lat="43.23129" lon="0.9124">
        <ele>374</ele>
        <time>2019-02-17T11:28:47.000Z</time>
      </trkpt>
      <trkpt lat="43.23129" lon="0.9124">
        <ele>374</ele>
        <time>2019-02-17T11:28:49.000Z</time>
      </trkpt>
      <trkpt lat="43.23129" lon="0.9124">
        <ele>374</ele>
        <time>2019-02-17T11:28:51.000Z</time>
      </trkpt>
      <trkpt lat="43.2313" lon="0.9124">
        <ele>374</ele>
        <time>2019-02-17T11:28:53.000Z</time>
      </trkpt>
      <trkpt lat="43.2313" lon="0.9124">
        <ele>374</ele>
        <time>2019-02-17T11:28:55.000Z</time>
      </trkpt>
      <trkpt lat="43.2313" lon="0.91239">
        <ele>374</ele>
        <time>2019-02-17T11:28:57.000Z</time>
      </trkpt>
      <trkpt lat="43.23131" lon="0.91239">
        <ele>374</ele>
        <time>2019-02-17T11:28:59.000Z</time>
      </trkpt>
      <trkpt lat="43.23131" lon="0.91239">
        <ele>374</ele>
        <time>2019-02-17T11:29:01.000Z</time>
      </trkpt>
      <trkpt lat="43.23131" lon="0.91239">
        <ele>374</ele>
        <time>2019-02-17T11:29:03.000Z</time>
      </trkpt>
      <trkpt lat="43.23131" lon="0.91238">
        <ele>374</ele>
        <time>2019-02-17T11:29:05.000Z</time>
      </trkpt>
      <trkpt lat="43.23131" lon="0.91238">
        <ele>374</ele>
        <time>2019-02-17T11:29:07.000Z</time>
      </trkpt>
      <trkpt lat="43.2313" lon="0.91237">
        <ele>373</ele>
        <time>2019-02-17T11:29:09.000Z</time>
      </trkpt>
      <trkpt lat="43.2313" lon="0.91236">
        <ele>373</ele>
        <time>2019-02-17T11:29:11.000Z</time>
      </trkpt>
      <trkpt lat="43.2313" lon="0.91235">
        <ele>373</ele>
        <time>2019-02-17T11:29:13.000Z</time>
      </trkpt>
      <trkpt lat="43.23129" lon="0.91235">
        <ele>373</ele>
        <time>2019-02-17T11:29:15.000Z</time>
      </trkpt>
      <trkpt lat="43.23129" lon="0.91234">
        <ele>373</ele>
        <time>2019-02-17T11:29:17.000Z</time>
      </trkpt>
      <trkpt lat="43.23128" lon="0.91233">
        <ele>373</ele>
        <time>2019-02-17T11:29:19.000Z</time>
      </trkpt>
      <trkpt lat="43.23129" lon="0.91232">
        <ele>373</ele>
        <time>2019-02-17T11:29:21.000Z</time>
      </trkpt>
      <trkpt lat="43.2313" lon="0.91232">
        <ele>373</ele>
        <time>2019-02-17T11:29:23.000Z</time>
      </trkpt>
      <trkpt lat="43.2313" lon="0.91231">
        <ele>373</ele>
        <time>2019-02-17T11:29:25.000Z</time>
      </trkpt>
      <trkpt lat="43.23131" lon="0.91231">
        <ele>373</ele>
        <time>2019-02-17T11:29:27.000Z</time>
      </trkpt>
      <trkpt lat="43.23134" lon="0.9123">
        <ele>373</ele>
        <time>2019-02-17T11:29:29.000Z</time>
      </trkpt>
      <trkpt lat="43.23135" lon="0.91229">
        <ele>373</ele>
        <time>2019-02-17T11:29:31.000Z</time>
      </trkpt>
      <trkpt lat="43.23136" lon="0.91228">
        <ele>373</ele>
        <time>2019-02-17T11:29:33.000Z</time>
      </trkpt>
      <trkpt lat="43.23137" lon="0.91227">
        <ele>373</ele>
        <time>2019-02-17T11:29:35.000Z</time>
      </trkpt>
      <trkpt lat="43.23138" lon="0.91226">
        <ele>373</ele>
        <time>2019-02-17T11:29:37.000Z</time>
      </trkpt>
      <trkpt lat="43.23138" lon="0.91225">
        <ele>373</ele>
        <time>2019-02-17T11:29:39.000Z</time>
      </trkpt>
      <trkpt lat="43.23139" lon="0.91223">
        <ele>373</ele>
        <time>2019-02-17T11:29:41.000Z</time>
      </trkpt>
      <trkpt lat="43.23141" lon="0.91221">
        <ele>373</ele>
        <time>2019-02-17T11:29:43.000Z</time>
      </trkpt>
      <trkpt lat="43.23142" lon="0.9122">
        <ele>373</ele>
        <time>2019-02-17T11:29:45.000Z</time>
      </trkpt>
      <trkpt lat="43.23143" lon="0.91219">
        <ele>373</ele>
        <time>2019-02-17T11:29:47.000Z</time>
      </trkpt>
      <trkpt lat="43.23127" lon="0.91245">
        <ele>374</ele>
        <time>2019-02-17T11:30:47.000Z</time>
      </trkpt>
      <trkpt lat="43.23127" lon="0.91245">
        <ele>374</ele>
        <time>2019-02-17T11:30:49.000Z</time>
      </trkpt>
      <trkpt lat="43.23126" lon="0.91246">
        <ele>374</ele>
        <time>2019-02-17T11:30:51.000Z</time>
      </trkpt>
      <trkpt lat="43.23125" lon="0.91247">
        <ele>374</ele>
        <time>2019-02-17T11:30:53.000Z</time>
      </trkpt>
      <trkpt lat="43.23125" lon="0.91247">
        <ele>374</ele>
        <time>2019-02-17T11:30:55.000Z</time>
      </trkpt>
      <trkpt lat="43.23124" lon="0.91247">
        <ele>374</ele>
        <time>2019-02-17T11:30:57.000Z</time>
      </trkpt>
      <trkpt lat="43.23124" lon="0.91247">
        <ele>374</ele>
        <time>2019-02-17T11:30:59.000Z</time>
      </trkpt>
      <trkpt lat="43.23124" lon="0.91247">
        <ele>374</ele>
        <time>2019-02-17T11:31:01.000Z</time>
      </trkpt>
      <trkpt lat="43.23124" lon="0.91246">
        <ele>374</ele>
        <time>2019-02-17T11:31:03.000Z</time>
      </trkpt>
      <trkpt lat="43.23123" lon="0.91246">
        <ele>374</ele>
        <time>2019-02-17T11:31:05.000Z</time>
      </trkpt>
      <trkpt lat="43.23124" lon="0.91245">
        <ele>374</ele>
        <time>2019-02-17T11:31:07.000Z</time>
      </trkpt>
      <trkpt lat="43.23123" lon="0.91246">
        <ele>374</ele>
        <time>2019-02-17T11:31:09.000Z</time>
      </trkpt>
      <trkpt lat="43.23123" lon="0.91245">
        <ele>374</ele>
        <time>2019-02-17T11:31:11.000Z</time>
      </trkpt>
      <trkpt lat="43.23123" lon="0.91245">
        <ele>374</ele>
        <time>2019-02-17T11:31:13.000Z</time>
      </trkpt>
      <trkpt lat="43.23122" lon="0.91245">
        <ele>374</ele>
        <time>2019-02-17T11:31:15.000Z</time>
      </trkpt>
      <trkpt lat="43.23122" lon="0.91245">
        <ele>374</ele>
        <time>2019-02-17T11:31:17.000Z</time>
      </trkpt>
      <trkpt lat="43.2312" lon="0.91246">
        <ele>374</ele>
        <time>2019-02-17T11:31:19.000Z</time>
      </trkpt>
      <trkpt lat="43.23118" lon="0.91248">
        <ele>374</ele>
        <time>2019-02-17T11:31:21.000Z</time>
      </trkpt>
      <trkpt lat="43.23116" lon="0.91251">
        <ele>375</ele>
        <time>2019-02-17T11:31:23.000Z</time>
      </trkpt>
      <trkpt lat="43.23115" lon="0.91253">
        <ele>375</ele>
        <time>2019-02-17T11:31:25.000Z</time>
      </trkpt>
      <trkpt lat="43.23115" lon="0.91254">
        <ele>375</ele>
        <time>2019-02-17T11:31:27.000Z</time>
      </trkpt>
      <trkpt lat="43.23114" lon="0.91255">
        <ele>375</ele>
        <time>2019-02-17T11:31:29.000Z</time>
      </trkpt>
      <trkpt lat="43.23114" lon="0.91255">
        <ele>375</ele>
        <time>2019-02-17T11:31:31.000Z</time>
      </trkpt>
      <trkpt lat="43.23114" lon="0.91255">
        <ele>375</ele>
        <time>2019-02-17T11:31:33.000Z</time>
      </trkpt>
      <trkpt lat="43.23115" lon="0.91254">
        <ele>375</ele>
        <time>2019-02-17T11:31:35.000Z</time>
      </trkpt>
      <trkpt lat="43.23115" lon="0.91253">
        <ele>375</ele>
        <time>2019-02-17T11:31:37.000Z</time>
      </trkpt>
      <trkpt lat="43.23116" lon="0.91252">
        <ele>375</ele>
        <time>2019-02-17T11:31:39.000Z</time>
      </trkpt>
      <trkpt lat="43.23116" lon="0.91251">
        <ele>375</ele>
        <time>2019-02-17T11:31:41.000Z</time>
      </trkpt>
      <trkpt lat="43.23116" lon="0.91252">
        <ele>375</ele>
        <time>2019-02-17T11:31:43.000Z</time>
      </trkpt>
      <trkpt lat="43.23117" lon="0.91251">
        <ele>375</ele>
        <time>2019-02-17T11:31:45.000Z</time>
      </trkpt>
      <trkpt lat="43.23116" lon="0.91252">
        <ele>375</ele>
        <time>2019-02-17T11:31:47.000Z</time>
      </trkpt>
      <trkpt lat="43.23116" lon="0.91252">
        <ele>375</ele>
        <time>2019-02-17T11:31:49.000Z</time>
      </trkpt>
      <trkpt lat="43.23115" lon="0.91253">
        <ele>375</ele>
        <time>2019-02-17T11:31:51.000Z</time>
      </trkpt>
      <trkpt lat="43.23114" lon="0.91253">
        <ele>375</ele>
        <time>2019-02-17T11:31:53.000Z</time>
      </trkpt>
      <trkpt lat="43.23113" lon="0.91254">
        <ele>375</ele>
        <time>2019-02-17T11:31:55.000Z</time>
      </trkpt>
      <trkpt lat="43.23113" lon="0.91255">
        <ele>375</ele>
        <time>2019-02-17T11:31:57.000Z</time>
      </trkpt>
      <trkpt lat="43.23112" lon="0.91256">
        <ele>376</ele>
        <time>2019-02-17T11:31:59.000Z</time>
      </trkpt>
      <trkpt lat="43.23112" lon="0.91255">
        <ele>375</ele>
        <time>2019-02-17T11:32:01.000Z</time>
      </trkpt>
      <trkpt lat="43.23116" lon="0.91249">
        <ele>374</ele>
        <time>2019-02-17T11:32:03.000Z</time>
      </trkpt>
      <trkpt lat="43.23119" lon="0.91244">
        <ele>374</ele>
        <time>2019-02-17T11:32:05.000Z</time>
      </trkpt>
      <trkpt lat="43.23121" lon="0.91244">
        <ele>374</ele>
        <time>2019-02-17T11:32:07.000Z</time>
      </trkpt>
      <trkpt lat="43.23121" lon="0.91244">
        <ele>374</ele>
        <time>2019-02-17T11:32:09.000Z</time>
      </trkpt>
      <trkpt lat="43.23121" lon="0.91244">
        <ele>374</ele>
        <time>2019-02-17T11:32:11.000Z</time>
      </trkpt>
      <trkpt lat="43.23122" lon="0.91245">
        <ele>374</ele>
        <time>2019-02-17T11:32:13.000Z</time>
      </trkpt>
      <trkpt lat="43.23123" lon="0.91246">
        <ele>374</ele>
        <time>2019-02-17T11:32:15.000Z</time>
      </trkpt>
      <trkpt lat="43.23123" lon="0.91248">
        <ele>374</ele>
        <time>2019-02-17T11:32:17.000Z</time>
      </trkpt>
      <trkpt lat="43.23122" lon="0.9125">
        <ele>374</ele>
        <time>2019-02-17T11:32:19.000Z</time>
      </trkpt>
      <trkpt lat="43.23122" lon="0.91253">
        <ele>374</ele>
        <time>2019-02-17T11:32:21.000Z</time>
      </trkpt>
      <trkpt lat="43.23121" lon="0.91255">
        <ele>375</ele>
        <time>2019-02-17T11:32:23.000Z</time>
      </trkpt>
      <trkpt lat="43.23121" lon="0.91255">
        <ele>375</ele>
        <time>2019-02-17T11:32:25.000Z</time>
      </trkpt>
      <trkpt lat="43.23122" lon="0.91254">
        <ele>375</ele>
        <time>2019-02-17T11:32:27.000Z</time>
      </trkpt>
      <trkpt lat="43.23122" lon="0.91254">
        <ele>374</ele>
        <time>2019-02-17T11:32:29.000Z</time>
      </trkpt>
      <trkpt lat="43.23121" lon="0.91254">
        <ele>375</ele>
        <time>2019-02-17T11:32:31.000Z</time>
      </trkpt>
      <trkpt lat="43.2312" lon="0.91254">
        <ele>375</ele>
        <time>2019-02-17T11:32:33.000Z</time>
      </trkpt>
      <trkpt lat="43.2312" lon="0.91254">
        <ele>375</ele>
        <time>2019-02-17T11:32:35.000Z</time>
      </trkpt>
      <trkpt lat="43.2312" lon="0.91254">
        <ele>375</ele>
        <time>2019-02-17T11:32:37.000Z</time>
      </trkpt>
      <trkpt lat="43.23121" lon="0.91252">
        <ele>374</ele>
        <time>2019-02-17T11:32:39.000Z</time>
      </trkpt>
      <trkpt lat="43.23121" lon="0.91252">
        <ele>374</ele>
        <time>2019-02-17T11:32:41.000Z</time>
      </trkpt>
      <trkpt lat="43.23123" lon="0.9125">
        <ele>374</ele>
        <time>2019-02-17T11:32:43.000Z</time>
      </trkpt>
      <trkpt lat="43.23123" lon="0.91249">
        <ele>374</ele>
        <time>2019-02-17T11:32:45.000Z</time>
      </trkpt>
      <trkpt lat="43.23124" lon="0.91248">
        <ele>374</ele>
        <time>2019-02-17T11:32:47.000Z</time>
      </trkpt>
      <trkpt lat="43.23124" lon="0.91248">
        <ele>374</ele>
        <time>2019-02-17T11:32:49.000Z</time>
      </trkpt>
      <trkpt lat="43.23125" lon="0.91247">
        <ele>374</ele>
        <time>2019-02-17T11:32:51.000Z</time>
      </trkpt>
      <trkpt lat="43.23125" lon="0.91247">
        <ele>374</ele>
        <time>2019-02-17T11:32:53.000Z</time>
      </trkpt>
      <trkpt lat="43.23124" lon="0.91246">
        <ele>374</ele>
        <time>2019-02-17T11:32:55.000Z</time>
      </trkpt>
      <trkpt lat="43.23124" lon="0.91245">
        <ele>374</ele>
        <time>2019-02-17T11:32:57.000Z</time>
      </trkpt>
      <trkpt lat="43.23124" lon="0.91244">
        <ele>374</ele>
        <time>2019-02-17T11:32:59.000Z</time>
      </trkpt>
      <trkpt lat="43.23125" lon="0.91244">
        <ele>374</ele>
        <time>2019-02-17T11:33:01.000Z</time>
      </trkpt>
      <trkpt lat="43.23125" lon="0.91243">
        <ele>374</ele>
        <time>2019-02-17T11:33:03.000Z</time>
      </trkpt>
      <trkpt lat="43.23125" lon="0.91244">
        <ele>374</ele>
        <time>2019-02-17T11:33:05.000Z</time>
      </trkpt>
      <trkpt lat="43.23125" lon="0.91246">
        <ele>374</ele>
        <time>2019-02-17T11:33:07.000Z</time>
      </trkpt>
      <trkpt lat="43.23126" lon="0.91245">
        <ele>374</ele>
        <time>2019-02-17T11:33:09.000Z</time>
      </trkpt>
      <trkpt lat="43.23127" lon="0.91245">
        <ele>374</ele>
        <time>2019-02-17T11:33:11.000Z</time>
      </trkpt>
      <trkpt lat="43.23128" lon="0.91244">
        <ele>374</ele>
        <time>2019-02-17T11:33:13.000Z</time>
      </trkpt>
      <trkpt lat="43.23126" lon="0.91248">
        <ele>374</ele>
        <time>2019-02-17T11:33:15.000Z</time>
      </trkpt>
      <trkpt lat="43.2313" lon="0.91243">
        <ele>374</ele>
        <time>2019-02-17T11:33:17.000Z</time>
      </trkpt>
      <trkpt lat="43.2313" lon="0.91243">
        <ele>374</ele>
        <time>2019-02-17T11:33:19.000Z</time>
      </trkpt>
      <trkpt lat="43.23131" lon="0.91243">
        <ele>374</ele>
        <time>2019-02-17T11:33:21.000Z</time>
      </trkpt>
      <trkpt lat="43.23129" lon="0.91244">
        <ele>374</ele>
        <time>2019-02-17T11:33:23.000Z</time>
      </trkpt>
      <trkpt lat="43.23129" lon="0.91245">
        <ele>374</ele>
        <time>2019-02-17T11:33:25.000Z</time>
      </trkpt>
      <trkpt lat="43.23128" lon="0.91245">
        <ele>374</ele>
        <time>2019-02-17T11:33:27.000Z</time>
      </trkpt>
      <trkpt lat="43.23128" lon="0.91245">
        <ele>374</ele>
        <time>2019-02-17T11:33:29.000Z</time>
      </trkpt>
      <trkpt lat="43.23126" lon="0.91244">
        <ele>374</ele>
        <time>2019-02-17T11:33:31.000Z</time>
      </trkpt>
      <trkpt lat="43.23126" lon="0.91244">
        <ele>374</ele>
        <time>2019-02-17T11:33:33.000Z</time>
      </trkpt>
      <trkpt lat="43.23126" lon="0.91245">
        <ele>374</ele>
        <time>2019-02-17T11:33:35.000Z</time>
      </trkpt>
      <trkpt lat="43.23125" lon="0.91245">
        <ele>374</ele>
        <time>2019-02-17T11:33:37.000Z</time>
      </trkpt>
      <trkpt lat="43.23125" lon="0.91245">
        <ele>374</ele>
        <time>2019-02-17T11:33:39.000Z</time>
      </trkpt>
      <trkpt lat="43.23125" lon="0.91244">
        <ele>374</ele>
        <time>2019-02-17T11:33:41.000Z</time>
      </trkpt>
      <trkpt lat="43.23125" lon="0.91244">
        <ele>374</ele>
        <time>2019-02-17T11:33:43.000Z</time>
      </trkpt>
      <trkpt lat="43.23124" lon="0.91244">
        <ele>374</ele>
        <time>2019-02-17T11:33:45.000Z</time>
      </trkpt>
      <trkpt lat="43.23125" lon="0.91244">
        <ele>374</ele>
        <time>2019-02-17T11:33:47.000Z</time>
      </trkpt>
      <trkpt lat="43.23125" lon="0.91244">
        <ele>374</ele>
        <time>2019-02-17T11:33:49.000Z</time>
      </trkpt>
      <trkpt lat="43.23126" lon="0.91244">
        <ele>374</ele>
        <time>2019-02-17T11:33:51.000Z</time>
      </trkpt>
      <trkpt lat="43.23126" lon="0.91243">
        <ele>374</ele>
        <time>2019-02-17T11:33:53.000Z</time>
      </trkpt>
      <trkpt lat="43.23125" lon="0.91243">
        <ele>374</ele>
        <time>2019-02-17T11:33:55.000Z</time>
      </trkpt>
      <trkpt lat="43.23125" lon="0.91243">
        <ele>374</ele>
        <time>2019-02-17T11:33:57.000Z</time>
      </trkpt>
      <trkpt lat="43.23125" lon="0.91244">
        <ele>374</ele>
        <time>2019-02-17T11:33:59.000Z</time>
      </trkpt>
      <trkpt lat="43.23125" lon="0.91244">
        <ele>374</ele>
        <time>2019-02-17T11:34:01.000Z</time>
      </trkpt>
      <trkpt lat="43.23125" lon="0.91245">
        <ele>374</ele>
        <time>2019-02-17T11:34:03.000Z</time>
      </trkpt>
      <trkpt lat="43.23125" lon="0.91245">
        <ele>374</ele>
        <time>2019-02-17T11:34:05.000Z</time>
      </trkpt>
      <trkpt lat="43.23125" lon="0.91245">
        <ele>374</ele>
        <time>2019-02-17T11:34:07.000Z</time>
      </trkpt>
      <trkpt lat="43.23126" lon="0.91246">
        <ele>374</ele>
        <time>2019-02-17T11:34:09.000Z</time>
      </trkpt>
      <trkpt lat="43.23126" lon="0.91246">
        <ele>374</ele>
        <time>2019-02-17T11:34:11.000Z</time>
      </trkpt>
      <trkpt lat="43.23126" lon="0.91247">
        <ele>374</ele>
        <time>2019-02-17T11:34:13.000Z</time>
      </trkpt>
      <trkpt lat="43.23126" lon="0.91246">
        <ele>374</ele>
        <time>2019-02-17T11:34:15.000Z</time>
      </trkpt>
      <trkpt lat="43.23126" lon="0.91246">
        <ele>374</ele>
        <time>2019-02-17T11:34:17.000Z</time>
      </trkpt>
      <trkpt lat="43.23126" lon="0.91245">
        <ele>374</ele>
        <time>2019-02-17T11:34:19.000Z</time>
      </trkpt>
      <trkpt lat="43.23127" lon="0.91244">
        <ele>374</ele>
        <time>2019-02-17T11:34:21.000Z</time>
      </trkpt>
      <trkpt lat="43.23128" lon="0.91244">
        <ele>374</ele>
        <time>2019-02-17T11:34:23.000Z</time>
      </trkpt>
      <trkpt lat="43.23129" lon="0.91243">
        <ele>374</ele>
        <time>2019-02-17T11:34:25.000Z</time>
      </trkpt>
      <trkpt lat="43.23129" lon="0.91244">
        <ele>374</ele>
        <time>2019-02-17T11:34:27.000Z</time>
      </trkpt>
      <trkpt lat="43.23129" lon="0.91244">
        <ele>374</ele>
        <time>2019-02-17T11:34:29.000Z</time>
      </trkpt>
      <trkpt lat="43.23129" lon="0.91243">
        <ele>374</ele>
        <time>2019-02-17T11:34:31.000Z</time>
      </trkpt>
      <trkpt lat="43.23129" lon="0.91243">
        <ele>374</ele>
        <time>2019-02-17T11:34:33.000Z</time>
      </trkpt>
      <trkpt lat="43.23129" lon="0.91243">
        <ele>374</ele>
        <time>2019-02-17T11:34:35.000Z</time>
      </trkpt>
      <trkpt lat="43.23129" lon="0.91243">
        <ele>374</ele>
        <time>2019-02-17T11:34:37.000Z</time>
      </trkpt>
      <trkpt lat="43.23129" lon="0.91242">
        <ele>374</ele>
        <time>2019-02-17T11:34:39.000Z</time>
      </trkpt>
      <trkpt lat="43.23129" lon="0.91242">
        <ele>374</ele>
        <time>2019-02-17T11:34:41.000Z</time>
      </trkpt>
      <trkpt lat="43.23129" lon="0.91242">
        <ele>374</ele>
        <time>2019-02-17T11:34:43.000Z</time>
      </trkpt>
      <trkpt lat="43.2313" lon="0.91241">
        <ele>374</ele>
        <time>2019-02-17T11:34:45.000Z</time>
      </trkpt>
      <trkpt lat="43.2313" lon="0.9124">
        <ele>374</ele>
        <time>2019-02-17T11:34:47.000Z</time>
      </trkpt>
      <trkpt lat="43.23131" lon="0.9124">
        <ele>374</ele>
        <time>2019-02-17T11:34:49.000Z</time>
      </trkpt>
      <trkpt lat="43.23132" lon="0.91239">
        <ele>374</ele>
        <time>2019-02-17T11:34:51.000Z</time>
      </trkpt>
      <trkpt lat="43.23132" lon="0.91239">
        <ele>374</ele>
        <time>2019-02-17T11:34:53.000Z</time>
      </trkpt>
      <trkpt lat="43.23132" lon="0.91239">
        <ele>374</ele>
        <time>2019-02-17T11:34:55.000Z</time>
      </trkpt>
      <trkpt lat="43.23133" lon="0.91238">
        <ele>374</ele>
        <time>2019-02-17T11:34:57.000Z</time>
      </trkpt>
      <trkpt lat="43.23133" lon="0.91237">
        <ele>373</ele>
        <time>2019-02-17T11:34:59.000Z</time>
      </trkpt>
      <trkpt lat="43.23133" lon="0.91236">
        <ele>373</ele>
        <time>2019-02-17T11:35:01.000Z</time>
      </trkpt>
      <trkpt lat="43.23132" lon="0.91235">
        <ele>373</ele>
        <time>2019-02-17T11:35:03.000Z</time>
      </trkpt>
      <trkpt lat="43.23132" lon="0.91235">
        <ele>373</ele>
        <time>2019-02-17T11:35:05.000Z</time>
      </trkpt>
      <trkpt lat="43.23132" lon="0.91234">
        <ele>373</ele>
        <time>2019-02-17T11:35:07.000Z</time>
      </trkpt>
      <trkpt lat="43.23132" lon="0.91233">
        <ele>373</ele>
        <time>2019-02-17T11:35:09.000Z</time>
      </trkpt>
      <trkpt lat="43.23135" lon="0.91232">
        <ele>373</ele>
        <time>2019-02-17T11:35:11.000Z</time>
      </trkpt>
      <trkpt lat="43.23131" lon="0.9124">
        <ele>374</ele>
        <time>2019-02-17T11:35:13.000Z</time>
      </trkpt>
      <trkpt lat="43.2313" lon="0.91242">
        <ele>374</ele>
        <time>2019-02-17T11:35:15.000Z</time>
      </trkpt>
      <trkpt lat="43.23129" lon="0.91243">
        <ele>374</ele>
        <time>2019-02-17T11:35:17.000Z</time>
      </trkpt>
      <trkpt lat="43.2313" lon="0.91243">
        <ele>374</ele>
        <time>2019-02-17T11:35:19.000Z</time>
      </trkpt>
      <trkpt lat="43.2313" lon="0.91243">
        <ele>374</ele>
        <time>2019-02-17T11:35:21.000Z</time>
      </trkpt>
      <trkpt lat="43.23129" lon="0.91244">
        <ele>374</ele>
        <time>2019-02-17T11:35:23.000Z</time>
      </trkpt>
      <trkpt lat="43.23129" lon="0.91244">
        <ele>374</ele>
        <time>2019-02-17T11:35:25.000Z</time>
      </trkpt>
      <trkpt lat="43.23128" lon="0.91245">
        <ele>374</ele>
        <time>2019-02-17T11:35:27.000Z</time>
      </trkpt>
      <trkpt lat="43.23129" lon="0.91244">
        <ele>374</ele>
        <time>2019-02-17T11:35:29.000Z</time>
      </trkpt>
      <trkpt lat="43.23131" lon="0.91245">
        <ele>374</ele>
        <time>2019-02-17T11:35:31.000Z</time>
      </trkpt>
      <trkpt lat="43.23132" lon="0.91244">
        <ele>374</ele>
        <time>2019-02-17T11:35:33.000Z</time>
      </trkpt>
      <trkpt lat="43.23132" lon="0.91243">
        <ele>374</ele>
        <time>2019-02-17T11:35:35.000Z</time>
      </trkpt>
      <trkpt lat="43.23132" lon="0.91243">
        <ele>374</ele>
        <time>2019-02-17T11:35:37.000Z</time>
      </trkpt>
      <trkpt lat="43.23132" lon="0.91242">
        <ele>374</ele>
        <time>2019-02-17T11:35:39.000Z</time>
      </trkpt>
      <trkpt lat="43.23132" lon="0.91241">
        <ele>374</ele>
        <time>2019-02-17T11:35:41.000Z</time>
      </trkpt>
      <trkpt lat="43.23132" lon="0.91241">
        <ele>374</ele>
        <time>2019-02-17T11:35:43.000Z</time>
      </trkpt>
      <trkpt lat="43.23132" lon="0.9124">
        <ele>374</ele>
        <time>2019-02-17T11:35:45.000Z</time>
      </trkpt>
      <trkpt lat="43.23133" lon="0.91238">
        <ele>374</ele>
        <time>2019-02-17T11:35:47.000Z</time>
      </trkpt>
      <trkpt lat="43.23131" lon="0.91238">
        <ele>374</ele>
        <time>2019-02-17T11:35:49.000Z</time>
      </trkpt>
      <trkpt lat="43.23131" lon="0.91238">
        <ele>374</ele>
        <time>2019-02-17T11:35:51.000Z</time>
      </trkpt>
      <trkpt lat="43.23131" lon="0.91237">
        <ele>373</ele>
        <time>2019-02-17T11:35:53.000Z</time>
      </trkpt>
      <trkpt lat="43.23131" lon="0.91237">
        <ele>373</ele>
        <time>2019-02-17T11:35:55.000Z</time>
      </trkpt>
      <trkpt lat="43.23131" lon="0.91236">
        <ele>373</ele>
        <time>2019-02-17T11:35:57.000Z</time>
      </trkpt>
      <trkpt lat="43.23131" lon="0.91236">
        <ele>373</ele>
        <time>2019-02-17T11:35:59.000Z</time>
      </trkpt>
      <trkpt lat="43.23131" lon="0.91236">
        <ele>373</ele>
        <time>2019-02-17T11:36:01.000Z</time>
      </trkpt>
      <trkpt lat="43.23131" lon="0.91238">
        <ele>374</ele>
        <time>2019-02-17T11:36:03.000Z</time>
      </trkpt>
      <trkpt lat="43.23131" lon="0.91239">
        <ele>374</ele>
        <time>2019-02-17T11:36:05.000Z</time>
      </trkpt>
      <trkpt lat="43.23131" lon="0.91239">
        <ele>374</ele>
        <time>2019-02-17T11:36:07.000Z</time>
      </trkpt>
      <trkpt lat="43.23131" lon="0.91239">
        <ele>374</ele>
        <time>2019-02-17T11:36:09.000Z</time>
      </trkpt>
      <trkpt lat="43.23131" lon="0.91239">
        <ele>374</ele>
        <time>2019-02-17T11:36:11.000Z</time>
      </trkpt>
      <trkpt lat="43.23131" lon="0.91239">
        <ele>374</ele>
        <time>2019-02-17T11:36:13.000Z</time>
      </trkpt>
      <trkpt lat="43.23132" lon="0.91236">
        <ele>373</ele>
        <time>2019-02-17T11:36:15.000Z</time>
      </trkpt>
      <trkpt lat="43.23132" lon="0.91234">
        <ele>373</ele>
        <time>2019-02-17T11:36:17.000Z</time>
      </trkpt>
      <trkpt lat="43.23131" lon="0.91236">
        <ele>373</ele>
        <time>2019-02-17T11:36:19.000Z</time>
      </trkpt>
      <trkpt lat="43.23131" lon="0.91238">
        <ele>374</ele>
        <time>2019-02-17T11:36:21.000Z</time>
      </trkpt>
      <trkpt lat="43.23131" lon="0.91239">
        <ele>374</ele>
        <time>2019-02-17T11:36:23.000Z</time>
      </trkpt>
      <trkpt lat="43.2313" lon="0.91241">
        <ele>374</ele>
        <time>2019-02-17T11:36:25.000Z</time>
      </trkpt>
      <trkpt lat="43.23129" lon="0.91242">
        <ele>374</ele>
        <time>2019-02-17T11:36:27.000Z</time>
      </trkpt>
      <trkpt lat="43.23129" lon="0.91242">
        <ele>374</ele>
        <time>2019-02-17T11:36:29.000Z</time>
      </trkpt>
      <trkpt lat="43.23128" lon="0.91243">
        <ele>374</ele>
        <time>2019-02-17T11:36:31.000Z</time>
      </trkpt>
      <trkpt lat="43.23128" lon="0.91244">
        <ele>374</ele>
        <time>2019-02-17T11:36:33.000Z</time>
      </trkpt>
      <trkpt lat="43.23128" lon="0.91244">
        <ele>374</ele>
        <time>2019-02-17T11:36:35.000Z</time>
      </trkpt>
      <trkpt lat="43.23127" lon="0.91244">
        <ele>374</ele>
        <time>2019-02-17T11:36:37.000Z</time>
      </trkpt>
      <trkpt lat="43.23127" lon="0.91243">
        <ele>374</ele>
        <time>2019-02-17T11:36:39.000Z</time>
      </trkpt>
      <trkpt lat="43.23128" lon="0.91242">
        <ele>374</ele>
        <time>2019-02-17T11:36:41.000Z</time>
      </trkpt>
      <trkpt lat="43.23127" lon="0.91242">
        <ele>374</ele>
        <time>2019-02-17T11:36:43.000Z</time>
      </trkpt>
      <trkpt lat="43.23129" lon="0.91241">
        <ele>374</ele>
        <time>2019-02-17T11:36:45.000Z</time>
      </trkpt>
      <trkpt lat="43.23129" lon="0.9124">
        <ele>374</ele>
        <time>2019-02-17T11:36:47.000Z</time>
      </trkpt>
      <trkpt lat="43.23129" lon="0.91239">
        <ele>374</ele>
        <time>2019-02-17T11:36:49.000Z</time>
      </trkpt>
      <trkpt lat="43.23129" lon="0.9124">
        <ele>374</ele>
        <time>2019-02-17T11:36:51.000Z</time>
      </trkpt>
      <trkpt lat="43.23129" lon="0.9124">
        <ele>374</ele>
        <time>2019-02-17T11:36:53.000Z</time>
      </trkpt>
      <trkpt lat="43.23129" lon="0.91239">
        <ele>374</ele>
        <time>2019-02-17T11:36:55.000Z</time>
      </trkpt>
      <trkpt lat="43.23129" lon="0.91238">
        <ele>374</ele>
        <time>2019-02-17T11:36:57.000Z</time>
      </trkpt>
      <trkpt lat="43.23129" lon="0.91238">
        <ele>374</ele>
        <time>2019-02-17T11:36:59.000Z</time>
      </trkpt>
      <trkpt lat="43.23129" lon="0.91237">
        <ele>373</ele>
        <time>2019-02-17T11:37:01.000Z</time>
      </trkpt>
      <trkpt lat="43.2313" lon="0.91237">
        <ele>373</ele>
        <time>2019-02-17T11:37:03.000Z</time>
      </trkpt>
      <trkpt lat="43.23131" lon="0.91236">
        <ele>373</ele>
        <time>2019-02-17T11:37:05.000Z</time>
      </trkpt>
      <trkpt lat="43.23131" lon="0.91236">
        <ele>373</ele>
        <time>2019-02-17T11:37:07.000Z</time>
      </trkpt>
      <trkpt lat="43.23131" lon="0.91235">
        <ele>373</ele>
        <time>2019-02-17T11:37:09.000Z</time>
      </trkpt>
      <trkpt lat="43.2313" lon="0.91238">
        <ele>374</ele>
        <time>2019-02-17T11:37:11.000Z</time>
      </trkpt>
      <trkpt lat="43.23128" lon="0.9124">
        <ele>374</ele>
        <time>2019-02-17T11:37:13.000Z</time>
      </trkpt>
      <trkpt lat="43.23128" lon="0.91241">
        <ele>374</ele>
        <time>2019-02-17T11:37:15.000Z</time>
      </trkpt>
      <trkpt lat="43.23129" lon="0.9124">
        <ele>374</ele>
        <time>2019-02-17T11:37:17.000Z</time>
      </trkpt>
      <trkpt lat="43.23128" lon="0.91242">
        <ele>374</ele>
        <time>2019-02-17T11:37:19.000Z</time>
      </trkpt>
      <trkpt lat="43.23125" lon="0.9125">
        <ele>374</ele>
        <time>2019-02-17T11:37:21.000Z</time>
      </trkpt>
      <trkpt lat="43.23124" lon="0.91252">
        <ele>374</ele>
        <time>2019-02-17T11:37:23.000Z</time>
      </trkpt>
      <trkpt lat="43.23123" lon="0.91253">
        <ele>374</ele>
        <time>2019-02-17T11:37:25.000Z</time>
      </trkpt>
      <trkpt lat="43.23123" lon="0.91256">
        <ele>375</ele>
        <time>2019-02-17T11:37:27.000Z</time>
      </trkpt>
      <trkpt lat="43.23123" lon="0.91256">
        <ele>375</ele>
        <time>2019-02-17T11:37:29.000Z</time>
      </trkpt>
      <trkpt lat="43.23123" lon="0.91258">
        <ele>375</ele>
        <time>2019-02-17T11:37:31.000Z</time>
      </trkpt>
      <trkpt lat="43.23123" lon="0.91258">
        <ele>375</ele>
        <time>2019-02-17T11:37:33.000Z</time>
      </trkpt>
      <trkpt lat="43.23123" lon="0.91257">
        <ele>375</ele>
        <time>2019-02-17T11:37:35.000Z</time>
      </trkpt>
      <trkpt lat="43.23123" lon="0.91257">
        <ele>375</ele>
        <time>2019-02-17T11:37:37.000Z</time>
      </trkpt>
      <trkpt lat="43.23123" lon="0.91257">
        <ele>375</ele>
        <time>2019-02-17T11:37:39.000Z</time>
      </trkpt>
      <trkpt lat="43.23124" lon="0.91257">
        <ele>375</ele>
        <time>2019-02-17T11:37:41.000Z</time>
      </trkpt>
      <trkpt lat="43.23124" lon="0.91255">
        <ele>374</ele>
        <time>2019-02-17T11:37:43.000Z</time>
      </trkpt>
      <trkpt lat="43.23124" lon="0.91256">
        <ele>375</ele>
        <time>2019-02-17T11:37:45.000Z</time>
      </trkpt>
      <trkpt lat="43.23124" lon="0.91257">
        <ele>375</ele>
        <time>2019-02-17T11:37:47.000Z</time>
      </trkpt>
      <trkpt lat="43.23124" lon="0.91255">
        <ele>374</ele>
        <time>2019-02-17T11:37:49.000Z</time>
      </trkpt>
      <trkpt lat="43.23124" lon="0.91255">
        <ele>374</ele>
        <time>2019-02-17T11:37:51.000Z</time>
      </trkpt>
      <trkpt lat="43.23124" lon="0.91255">
        <ele>374</ele>
        <time>2019-02-17T11:37:53.000Z</time>
      </trkpt>
      <trkpt lat="43.23125" lon="0.91254">
        <ele>374</ele>
        <time>2019-02-17T11:37:55.000Z</time>
      </trkpt>
      <trkpt lat="43.23125" lon="0.91255">
        <ele>374</ele>
        <time>2019-02-17T11:37:57.000Z</time>
      </trkpt>
      <trkpt lat="43.23126" lon="0.91252">
        <ele>374</ele>
        <time>2019-02-17T11:37:59.000Z</time>
      </trkpt>
      <trkpt lat="43.23126" lon="0.91251">
        <ele>374</ele>
        <time>2019-02-17T11:38:01.000Z</time>
      </trkpt>
      <trkpt lat="43.23126" lon="0.91251">
        <ele>374</ele>
        <time>2019-02-17T11:38:03.000Z</time>
      </trkpt>
      <trkpt lat="43.23126" lon="0.91251">
        <ele>374</ele>
        <time>2019-02-17T11:38:05.000Z</time>
      </trkpt>
      <trkpt lat="43.23125" lon="0.91252">
        <ele>374</ele>
        <time>2019-02-17T11:38:07.000Z</time>
      </trkpt>
      <trkpt lat="43.23125" lon="0.91252">
        <ele>374</ele>
        <time>2019-02-17T11:38:09.000Z</time>
      </trkpt>
      <trkpt lat="43.23125" lon="0.91252">
        <ele>374</ele>
        <time>2019-02-17T11:38:11.000Z</time>
      </trkpt>
      <trkpt lat="43.23125" lon="0.91252">
        <ele>374</ele>
        <time>2019-02-17T11:38:13.000Z</time>
      </trkpt>
      <trkpt lat="43.23126" lon="0.91252">
        <ele>374</ele>
        <time>2019-02-17T11:38:15.000Z</time>
      </trkpt>
      <trkpt lat="43.23127" lon="0.9125">
        <ele>374</ele>
        <time>2019-02-17T11:38:17.000Z</time>
      </trkpt>
      <trkpt lat="43.23127" lon="0.9125">
        <ele>374</ele>
        <time>2019-02-17T11:38:19.000Z</time>
      </trkpt>
      <trkpt lat="43.23127" lon="0.9125">
        <ele>374</ele>
        <time>2019-02-17T11:38:21.000Z</time>
      </trkpt>
      <trkpt lat="43.23128" lon="0.91249">
        <ele>374</ele>
        <time>2019-02-17T11:38:23.000Z</time>
      </trkpt>
      <trkpt lat="43.23128" lon="0.91248">
        <ele>374</ele>
        <time>2019-02-17T11:38:25.000Z</time>
      </trkpt>
      <trkpt lat="43.23128" lon="0.91247">
        <ele>374</ele>
        <time>2019-02-17T11:38:27.000Z</time>
      </trkpt>
      <trkpt lat="43.23128" lon="0.91247">
        <ele>374</ele>
        <time>2019-02-17T11:38:29.000Z</time>
      </trkpt>
      <trkpt lat="43.23128" lon="0.91247">
        <ele>374</ele>
        <time>2019-02-17T11:38:31.000Z</time>
      </trkpt>
      <trkpt lat="43.23127" lon="0.91248">
        <ele>374</ele>
        <time>2019-02-17T11:38:33.000Z</time>
      </trkpt>
      <trkpt lat="43.23128" lon="0.91247">
        <ele>374</ele>
        <time>2019-02-17T11:38:35.000Z</time>
      </trkpt>
      <trkpt lat="43.23127" lon="0.91248">
        <ele>374</ele>
        <time>2019-02-17T11:38:37.000Z</time>
      </trkpt>
      <trkpt lat="43.23127" lon="0.91248">
        <ele>374</ele>
        <time>2019-02-17T11:38:39.000Z</time>
      </trkpt>
      <trkpt lat="43.23127" lon="0.91247">
        <ele>374</ele>
        <time>2019-02-17T11:38:41.000Z</time>
      </trkpt>
      <trkpt lat="43.23127" lon="0.91248">
        <ele>374</ele>
        <time>2019-02-17T11:38:43.000Z</time>
      </trkpt>
      <trkpt lat="43.23127" lon="0.91247">
        <ele>374</ele>
        <time>2019-02-17T11:38:45.000Z</time>
      </trkpt>
      <trkpt lat="43.23128" lon="0.91246">
        <ele>374</ele>
        <time>2019-02-17T11:38:47.000Z</time>
      </trkpt>
      <trkpt lat="43.23128" lon="0.91246">
        <ele>374</ele>
        <time>2019-02-17T11:38:49.000Z</time>
      </trkpt>
      <trkpt lat="43.23128" lon="0.91245">
        <ele>374</ele>
        <time>2019-02-17T11:38:51.000Z</time>
      </trkpt>
      <trkpt lat="43.23129" lon="0.91244">
        <ele>374</ele>
        <time>2019-02-17T11:38:53.000Z</time>
      </trkpt>
      <trkpt lat="43.23128" lon="0.91244">
        <ele>374</ele>
        <time>2019-02-17T11:38:55.000Z</time>
      </trkpt>
      <trkpt lat="43.23128" lon="0.91245">
        <ele>374</ele>
        <time>2019-02-17T11:38:57.000Z</time>
      </trkpt>
      <trkpt lat="43.23128" lon="0.91245">
        <ele>374</ele>
        <time>2019-02-17T11:38:59.000Z</time>
      </trkpt>
      <trkpt lat="43.23128" lon="0.91245">
        <ele>374</ele>
        <time>2019-02-17T11:39:01.000Z</time>
      </trkpt>
      <trkpt lat="43.23128" lon="0.91245">
        <ele>374</ele>
        <time>2019-02-17T11:39:03.000Z</time>
      </trkpt>
      <trkpt lat="43.23129" lon="0.91245">
        <ele>374</ele>
        <time>2019-02-17T11:39:05.000Z</time>
      </trkpt>
      <trkpt lat="43.23129" lon="0.91245">
        <ele>374</ele>
        <time>2019-02-17T11:39:07.000Z</time>
      </trkpt>
      <trkpt lat="43.23129" lon="0.91245">
        <ele>374</ele>
        <time>2019-02-17T11:39:09.000Z</time>
      </trkpt>
      <trkpt lat="43.23129" lon="0.91244">
        <ele>374</ele>
        <time>2019-02-17T11:39:11.000Z</time>
      </trkpt>
      <trkpt lat="43.23129" lon="0.91244">
        <ele>374</ele>
        <time>2019-02-17T11:39:13.000Z</time>
      </trkpt>
      <trkpt lat="43.23129" lon="0.91244">
        <ele>374</ele>
        <time>2019-02-17T11:39:15.000Z</time>
      </trkpt>
      <trkpt lat="43.23129" lon="0.91244">
        <ele>374</ele>
        <time>2019-02-17T11:39:17.000Z</time>
      </trkpt>
      <trkpt lat="43.23129" lon="0.91244">
        <ele>374</ele>
        <time>2019-02-17T11:39:19.000Z</time>
      </trkpt>
      <trkpt lat="43.23128" lon="0.91244">
        <ele>374</ele>
        <time>2019-02-17T11:39:21.000Z</time>
      </trkpt>
      <trkpt lat="43.23128" lon="0.91244">
        <ele>374</ele>
        <time>2019-02-17T11:39:23.000Z</time>
      </trkpt>
      <trkpt lat="43.23128" lon="0.91244">
        <ele>374</ele>
        <time>2019-02-17T11:39:25.000Z</time>
      </trkpt>
      <trkpt lat="43.23128" lon="0.91245">
        <ele>374</ele>
        <time>2019-02-17T11:39:27.000Z</time>
      </trkpt>
      <trkpt lat="43.23127" lon="0.91245">
        <ele>374</ele>
        <time>2019-02-17T11:39:29.000Z</time>
      </trkpt>
      <trkpt lat="43.23126" lon="0.91245">
        <ele>374</ele>
        <time>2019-02-17T11:39:31.000Z</time>
      </trkpt>
      <trkpt lat="43.23125" lon="0.91246">
        <ele>374</ele>
        <time>2019-02-17T11:39:33.000Z</time>
      </trkpt>
      <trkpt lat="43.23125" lon="0.91246">
        <ele>374</ele>
        <time>2019-02-17T11:39:35.000Z</time>
      </trkpt>
      <trkpt lat="43.23125" lon="0.91246">
        <ele>374</ele>
        <time>2019-02-17T11:39:37.000Z</time>
      </trkpt>
      <trkpt lat="43.23125" lon="0.91246">
        <ele>374</ele>
        <time>2019-02-17T11:39:39.000Z</time>
      </trkpt>
      <trkpt lat="43.23125" lon="0.91246">
        <ele>374</ele>
        <time>2019-02-17T11:39:41.000Z</time>
      </trkpt>
      <trkpt lat="43.23126" lon="0.91246">
        <ele>374</ele>
        <time>2019-02-17T11:39:43.000Z</time>
      </trkpt>
      <trkpt lat="43.23126" lon="0.91247">
        <ele>374</ele>
        <time>2019-02-17T11:39:45.000Z</time>
      </trkpt>
      <trkpt lat="43.23126" lon="0.91247">
        <ele>374</ele>
        <time>2019-02-17T11:39:47.000Z</time>
      </trkpt>
      <trkpt lat="43.23126" lon="0.91247">
        <ele>374</ele>
        <time>2019-02-17T11:39:49.000Z</time>
      </trkpt>
      <trkpt lat="43.23126" lon="0.91247">
        <ele>374</ele>
        <time>2019-02-17T11:39:51.000Z</time>
      </trkpt>
      <trkpt lat="43.23126" lon="0.91248">
        <ele>374</ele>
        <time>2019-02-17T11:39:53.000Z</time>
      </trkpt>
      <trkpt lat="43.23126" lon="0.91247">
        <ele>374</ele>
        <time>2019-02-17T11:39:55.000Z</time>
      </trkpt>
      <trkpt lat="43.23126" lon="0.91247">
        <ele>374</ele>
        <time>2019-02-17T11:39:57.000Z</time>
      </trkpt>
      <trkpt lat="43.23126" lon="0.91247">
        <ele>374</ele>
        <time>2019-02-17T11:39:59.000Z</time>
      </trkpt>
      <trkpt lat="43.23126" lon="0.91246">
        <ele>374</ele>
        <time>2019-02-17T11:40:01.000Z</time>
      </trkpt>
      <trkpt lat="43.23126" lon="0.91247">
        <ele>374</ele>
        <time>2019-02-17T11:40:03.000Z</time>
      </trkpt>
      <trkpt lat="43.23126" lon="0.91247">
        <ele>374</ele>
        <time>2019-02-17T11:40:05.000Z</time>
      </trkpt>
      <trkpt lat="43.23126" lon="0.91247">
        <ele>374</ele>
        <time>2019-02-17T11:40:07.000Z</time>
      </trkpt>
      <trkpt lat="43.23126" lon="0.91248">
        <ele>374</ele>
        <time>2019-02-17T11:40:09.000Z</time>
      </trkpt>
      <trkpt lat="43.23126" lon="0.91249">
        <ele>374</ele>
        <time>2019-02-17T11:40:11.000Z</time>
      </trkpt>
      <trkpt lat="43.23126" lon="0.91249">
        <ele>374</ele>
        <time>2019-02-17T11:40:13.000Z</time>
      </trkpt>
      <trkpt lat="43.23126" lon="0.91249">
        <ele>374</ele>
        <time>2019-02-17T11:40:15.000Z</time>
      </trkpt>
      <trkpt lat="43.23125" lon="0.91249">
        <ele>374</ele>
        <time>2019-02-17T11:40:17.000Z</time>
      </trkpt>
      <trkpt lat="43.23126" lon="0.91249">
        <ele>374</ele>
        <time>2019-02-17T11:40:19.000Z</time>
      </trkpt>
      <trkpt lat="43.23126" lon="0.91249">
        <ele>374</ele>
        <time>2019-02-17T11:40:21.000Z</time>
      </trkpt>
      <trkpt lat="43.23125" lon="0.9125">
        <ele>374</ele>
        <time>2019-02-17T11:40:23.000Z</time>
      </trkpt>
      <trkpt lat="43.23126" lon="0.91249">
        <ele>374</ele>
        <time>2019-02-17T11:40:25.000Z</time>
      </trkpt>
      <trkpt lat="43.23125" lon="0.91249">
        <ele>374</ele>
        <time>2019-02-17T11:40:27.000Z</time>
      </trkpt>
      <trkpt lat="43.23126" lon="0.91248">
        <ele>374</ele>
        <time>2019-02-17T11:40:29.000Z</time>
      </trkpt>
      <trkpt lat="43.23125" lon="0.91248">
        <ele>374</ele>
        <time>2019-02-17T11:40:31.000Z</time>
      </trkpt>
      <trkpt lat="43.23125" lon="0.91248">
        <ele>374</ele>
        <time>2019-02-17T11:40:33.000Z</time>
      </trkpt>
      <trkpt lat="43.23124" lon="0.91248">
        <ele>374</ele>
        <time>2019-02-17T11:40:35.000Z</time>
      </trkpt>
      <trkpt lat="43.23124" lon="0.91248">
        <ele>374</ele>
        <time>2019-02-17T11:40:37.000Z</time>
      </trkpt>
      <trkpt lat="43.23125" lon="0.91248">
        <ele>374</ele>
        <time>2019-02-17T11:40:39.000Z</time>
      </trkpt>
      <trkpt lat="43.23126" lon="0.91247">
        <ele>374</ele>
        <time>2019-02-17T11:40:41.000Z</time>
      </trkpt>
      <trkpt lat="43.23126" lon="0.91246">
        <ele>374</ele>
        <time>2019-02-17T11:40:43.000Z</time>
      </trkpt>
      <trkpt lat="43.23126" lon="0.91246">
        <ele>374</ele>
        <time>2019-02-17T11:40:45.000Z</time>
      </trkpt>
      <trkpt lat="43.23127" lon="0.91245">
        <ele>374</ele>
        <time>2019-02-17T11:40:47.000Z</time>
      </trkpt>
      <trkpt lat="43.23127" lon="0.91245">
        <ele>374</ele>
        <time>2019-02-17T11:40:49.000Z</time>
      </trkpt>
      <trkpt lat="43.23127" lon="0.91245">
        <ele>374</ele>
        <time>2019-02-17T11:40:51.000Z</time>
      </trkpt>
      <trkpt lat="43.23127" lon="0.91245">
        <ele>374</ele>
        <time>2019-02-17T11:40:53.000Z</time>
      </trkpt>
      <trkpt lat="43.23127" lon="0.91244">
        <ele>374</ele>
        <time>2019-02-17T11:40:55.000Z</time>
      </trkpt>
      <trkpt lat="43.23127" lon="0.91244">
        <ele>374</ele>
        <time>2019-02-17T11:40:57.000Z</time>
      </trkpt>
      <trkpt lat="43.23127" lon="0.91245">
        <ele>374</ele>
        <time>2019-02-17T11:40:59.000Z</time>
      </trkpt>
      <trkpt lat="43.23127" lon="0.91245">
        <ele>374</ele>
        <time>2019-02-17T11:41:01.000Z</time>
      </trkpt>
      <trkpt lat="43.23127" lon="0.91245">
        <ele>374</ele>
        <time>2019-02-17T11:41:03.000Z</time>
      </trkpt>
      <trkpt lat="43.23127" lon="0.91246">
        <ele>374</ele>
        <time>2019-02-17T11:41:05.000Z</time>
      </trkpt>
      <trkpt lat="43.23127" lon="0.91246">
        <ele>374</ele>
        <time>2019-02-17T11:41:07.000Z</time>
      </trkpt>
      <trkpt lat="43.23127" lon="0.91246">
        <ele>374</ele>
        <time>2019-02-17T11:41:09.000Z</time>
      </trkpt>
      <trkpt lat="43.23126" lon="0.91247">
        <ele>374</ele>
        <time>2019-02-17T11:41:11.000Z</time>
      </trkpt>
      <trkpt lat="43.23125" lon="0.91246">
        <ele>374</ele>
        <time>2019-02-17T11:41:13.000Z</time>
      </trkpt>
      <trkpt lat="43.23126" lon="0.91246">
        <ele>374</ele>
        <time>2019-02-17T11:41:15.000Z</time>
      </trkpt>
      <trkpt lat="43.23126" lon="0.91245">
        <ele>374</ele>
        <time>2019-02-17T11:41:17.000Z</time>
      </trkpt>
      <trkpt lat="43.23126" lon="0.91245">
        <ele>374</ele>
        <time>2019-02-17T11:41:19.000Z</time>
      </trkpt>
      <trkpt lat="43.23126" lon="0.91246">
        <ele>374</ele>
        <time>2019-02-17T11:41:21.000Z</time>
      </trkpt>
      <trkpt lat="43.23126" lon="0.91246">
        <ele>374</ele>
        <time>2019-02-17T11:41:23.000Z</time>
      </trkpt>
      <trkpt lat="43.23126" lon="0.91246">
        <ele>374</ele>
        <time>2019-02-17T11:41:25.000Z</time>
      </trkpt>
      <trkpt lat="43.23126" lon="0.91246">
        <ele>374</ele>
        <time>2019-02-17T11:41:27.000Z</time>
      </trkpt>
      <trkpt lat="43.23126" lon="0.91246">
        <ele>374</ele>
        <time>2019-02-17T11:41:29.000Z</time>
      </trkpt>
      <trkpt lat="43.23126" lon="0.91246">
        <ele>374</ele>
        <time>2019-02-17T11:41:31.000Z</time>
      </trkpt>
      <trkpt lat="43.23126" lon="0.91246">
        <ele>374</ele>
        <time>2019-02-17T11:41:33.000Z</time>
      </trkpt>
      <trkpt lat="43.23126" lon="0.91246">
        <ele>374</ele>
        <time>2019-02-17T11:41:35.000Z</time>
      </trkpt>
      <trkpt lat="43.23126" lon="0.91246">
        <ele>374</ele>
        <time>2019-02-17T11:41:37.000Z</time>
      </trkpt>
      <trkpt lat="43.23126" lon="0.91246">
        <ele>374</ele>
        <time>2019-02-17T11:41:39.000Z</time>
      </trkpt>
      <trkpt lat="43.23126" lon="0.91245">
        <ele>374</ele>
        <time>2019-02-17T11:41:41.000Z</time>
      </trkpt>
      <trkpt lat="43.23126" lon="0.91245">
        <ele>374</ele>
        <time>2019-02-17T11:41:43.000Z</time>
      </trkpt>
      <trkpt lat="43.23127" lon="0.91245">
        <ele>374</ele>
        <time>2019-02-17T11:41:45.000Z</time>
      </trkpt>
      <trkpt lat="43.23127" lon="0.91244">
        <ele>374</ele>
        <time>2019-02-17T11:41:47.000Z</time>
      </trkpt>
      <trkpt lat="43.23128" lon="0.91244">
        <ele>374</ele>
        <time>2019-02-17T11:41:49.000Z</time>
      </trkpt>
      <trkpt lat="43.23128" lon="0.91244">
        <ele>374</ele>
        <time>2019-02-17T11:41:51.000Z</time>
      </trkpt>
      <trkpt lat="43.23128" lon="0.91244">
        <ele>374</ele>
        <time>2019-02-17T11:41:53.000Z</time>
      </trkpt>
      <trkpt lat="43.23128" lon="0.91244">
        <ele>374</ele>
        <time>2019-02-17T11:41:55.000Z</time>
      </trkpt>
      <trkpt lat="43.23127" lon="0.91243">
        <ele>374</ele>
        <time>2019-02-17T11:41:57.000Z</time>
      </trkpt>
      <trkpt lat="43.23127" lon="0.91243">
        <ele>374</ele>
        <time>2019-02-17T11:41:59.000Z</time>
      </trkpt>
      <trkpt lat="43.23127" lon="0.91243">
        <ele>374</ele>
        <time>2019-02-17T11:42:01.000Z</time>
      </trkpt>
      <trkpt lat="43.23127" lon="0.91243">
        <ele>374</ele>
        <time>2019-02-17T11:42:03.000Z</time>
      </trkpt>
      <trkpt lat="43.23127" lon="0.91242">
        <ele>374</ele>
        <time>2019-02-17T11:42:05.000Z</time>
      </trkpt>
      <trkpt lat="43.23127" lon="0.91242">
        <ele>374</ele>
        <time>2019-02-17T11:42:07.000Z</time>
      </trkpt>
      <trkpt lat="43.23127" lon="0.91242">
        <ele>374</ele>
        <time>2019-02-17T11:42:09.000Z</time>
      </trkpt>
      <trkpt lat="43.23127" lon="0.91242">
        <ele>374</ele>
        <time>2019-02-17T11:42:11.000Z</time>
      </trkpt>
      <trkpt lat="43.23127" lon="0.91242">
        <ele>374</ele>
        <time>2019-02-17T11:42:13.000Z</time>
      </trkpt>
      <trkpt lat="43.23127" lon="0.91242">
        <ele>374</ele>
        <time>2019-02-17T11:42:15.000Z</time>
      </trkpt>
      <trkpt lat="43.23127" lon="0.91243">
        <ele>374</ele>
        <time>2019-02-17T11:42:17.000Z</time>
      </trkpt>
      <trkpt lat="43.23127" lon="0.91243">
        <ele>374</ele>
        <time>2019-02-17T11:42:19.000Z</time>
      </trkpt>
      <trkpt lat="43.23127" lon="0.91243">
        <ele>374</ele>
        <time>2019-02-17T11:42:21.000Z</time>
      </trkpt>
      <trkpt lat="43.23127" lon="0.91243">
        <ele>374</ele>
        <time>2019-02-17T11:42:23.000Z</time>
      </trkpt>
      <trkpt lat="43.23127" lon="0.91243">
        <ele>374</ele>
        <time>2019-02-17T11:42:25.000Z</time>
      </trkpt>
      <trkpt lat="43.23127" lon="0.91243">
        <ele>374</ele>
        <time>2019-02-17T11:42:27.000Z</time>
      </trkpt>
      <trkpt lat="43.23127" lon="0.91243">
        <ele>374</ele>
        <time>2019-02-17T11:42:29.000Z</time>
      </trkpt>
      <trkpt lat="43.23127" lon="0.91243">
        <ele>374</ele>
        <time>2019-02-17T11:42:31.000Z</time>
      </trkpt>
      <trkpt lat="43.23127" lon="0.91244">
        <ele>374</ele>
        <time>2019-02-17T11:42:33.000Z</time>
      </trkpt>
      <trkpt lat="43.23127" lon="0.91244">
        <ele>374</ele>
        <time>2019-02-17T11:42:35.000Z</time>
      </trkpt>
      <trkpt lat="43.23127" lon="0.91244">
        <ele>374</ele>
        <time>2019-02-17T11:42:37.000Z</time>
      </trkpt>
      <trkpt lat="43.23127" lon="0.91244">
        <ele>374</ele>
        <time>2019-02-17T11:42:39.000Z</time>
      </trkpt>
      <trkpt lat="43.23127" lon="0.91244">
        <ele>374</ele>
        <time>2019-02-17T11:42:41.000Z</time>
      </trkpt>
      <trkpt lat="43.23127" lon="0.91244">
        <ele>374</ele>
        <time>2019-02-17T11:42:43.000Z</time>
      </trkpt>
      <trkpt lat="43.23127" lon="0.91244">
        <ele>374</ele>
        <time>2019-02-17T11:42:45.000Z</time>
      </trkpt>
      <trkpt lat="43.23127" lon="0.91244">
        <ele>374</ele>
        <time>2019-02-17T11:42:47.000Z</time>
      </trkpt>
      <trkpt lat="43.23127" lon="0.91244">
        <ele>374</ele>
        <time>2019-02-17T11:42:49.000Z</time>
      </trkpt>
      <trkpt lat="43.23127" lon="0.91244">
        <ele>374</ele>
        <time>2019-02-17T11:42:51.000Z</time>
      </trkpt>
      <trkpt lat="43.23127" lon="0.91244">
        <ele>374</ele>
        <time>2019-02-17T11:42:53.000Z</time>
      </trkpt>
      <trkpt lat="43.23127" lon="0.91244">
        <ele>374</ele>
        <time>2019-02-17T11:42:55.000Z</time>
      </trkpt>
      <trkpt lat="43.23127" lon="0.91244">
        <ele>374</ele>
        <time>2019-02-17T11:42:57.000Z</time>
      </trkpt>
      <trkpt lat="43.23128" lon="0.91243">
        <ele>374</ele>
        <time>2019-02-17T11:42:59.000Z</time>
      </trkpt>
      <trkpt lat="43.23128" lon="0.91243">
        <ele>374</ele>
        <time>2019-02-17T11:43:01.000Z</time>
      </trkpt>
      <trkpt lat="43.23128" lon="0.91243">
        <ele>374</ele>
        <time>2019-02-17T11:43:03.000Z</time>
      </trkpt>
      <trkpt lat="43.23128" lon="0.91242">
        <ele>374</ele>
        <time>2019-02-17T11:43:05.000Z</time>
      </trkpt>
      <trkpt lat="43.23128" lon="0.91242">
        <ele>374</ele>
        <time>2019-02-17T11:43:07.000Z</time>
      </trkpt>
      <trkpt lat="43.23128" lon="0.91242">
        <ele>374</ele>
        <time>2019-02-17T11:43:09.000Z</time>
      </trkpt>
      <trkpt lat="43.23128" lon="0.91242">
        <ele>374</ele>
        <time>2019-02-17T11:43:11.000Z</time>
      </trkpt>
      <trkpt lat="43.23128" lon="0.91243">
        <ele>374</ele>
        <time>2019-02-17T11:43:13.000Z</time>
      </trkpt>
      <trkpt lat="43.23128" lon="0.91243">
        <ele>374</ele>
        <time>2019-02-17T11:43:15.000Z</time>
      </trkpt>
      <trkpt lat="43.23128" lon="0.91243">
        <ele>374</ele>
        <time>2019-02-17T11:43:17.000Z</time>
      </trkpt>
      <trkpt lat="43.23128" lon="0.91243">
        <ele>374</ele>
        <time>2019-02-17T11:43:19.000Z</time>
      </trkpt>
      <trkpt lat="43.23127" lon="0.91243">
        <ele>374</ele>
        <time>2019-02-17T11:43:21.000Z</time>
      </trkpt>
      <trkpt lat="43.23127" lon="0.91243">
        <ele>374</ele>
        <time>2019-02-17T11:43:23.000Z</time>
      </trkpt>
      <trkpt lat="43.23128" lon="0.91243">
        <ele>374</ele>
        <time>2019-02-17T11:43:25.000Z</time>
      </trkpt>
      <trkpt lat="43.23127" lon="0.91243">
        <ele>374</ele>
        <time>2019-02-17T11:43:27.000Z</time>
      </trkpt>
      <trkpt lat="43.23129" lon="0.91244">
        <ele>374</ele>
        <time>2019-02-17T11:43:29.000Z</time>
      </trkpt>
      <trkpt lat="43.23129" lon="0.91244">
        <ele>374</ele>
        <time>2019-02-17T11:43:31.000Z</time>
      </trkpt>
      <trkpt lat="43.23129" lon="0.91244">
        <ele>374</ele>
        <time>2019-02-17T11:43:33.000Z</time>
      </trkpt>
      <trkpt lat="43.23129" lon="0.91244">
        <ele>374</ele>
        <time>2019-02-17T11:43:35.000Z</time>
      </trkpt>
      <trkpt lat="43.23129" lon="0.91244">
        <ele>374</ele>
        <time>2019-02-17T11:43:37.000Z</time>
      </trkpt>
      <trkpt lat="43.23129" lon="0.91244">
        <ele>374</ele>
        <time>2019-02-17T11:43:39.000Z</time>
      </trkpt>
      <trkpt lat="43.23129" lon="0.91244">
        <ele>374</ele>
        <time>2019-02-17T11:43:41.000Z</time>
      </trkpt>
      <trkpt lat="43.23128" lon="0.91244">
        <ele>374</ele>
        <time>2019-02-17T11:43:43.000Z</time>
      </trkpt>
      <trkpt lat="43.23128" lon="0.91244">
        <ele>374</ele>
        <time>2019-02-17T11:43:45.000Z</time>
      </trkpt>
      <trkpt lat="43.23128" lon="0.91244">
        <ele>374</ele>
        <time>2019-02-17T11:43:47.000Z</time>
      </trkpt>
      <trkpt lat="43.23128" lon="0.91244">
        <ele>374</ele>
        <time>2019-02-17T11:43:49.000Z</time>
      </trkpt>
      <trkpt lat="43.23128" lon="0.91244">
        <ele>374</ele>
        <time>2019-02-17T11:43:51.000Z</time>
      </trkpt>
      <trkpt lat="43.23128" lon="0.91244">
        <ele>374</ele>
        <time>2019-02-17T11:43:53.000Z</time>
      </trkpt>
      <trkpt lat="43.23127" lon="0.91244">
        <ele>374</ele>
        <time>2019-02-17T11:43:55.000Z</time>
      </trkpt>
      <trkpt lat="43.23127" lon="0.91244">
        <ele>374</ele>
        <time>2019-02-17T11:43:57.000Z</time>
      </trkpt>
      <trkpt lat="43.23127" lon="0.91244">
        <ele>374</ele>
        <time>2019-02-17T11:43:59.000Z</time>
      </trkpt>
      <trkpt lat="43.23128" lon="0.91243">
        <ele>374</ele>
        <time>2019-02-17T11:44:01.000Z</time>
      </trkpt>
      <trkpt lat="43.23127" lon="0.91243">
        <ele>374</ele>
        <time>2019-02-17T11:44:03.000Z</time>
      </trkpt>
      <trkpt lat="43.23127" lon="0.91244">
        <ele>374</ele>
        <time>2019-02-17T11:44:05.000Z</time>
      </trkpt>
      <trkpt lat="43.23126" lon="0.91243">
        <ele>374</ele>
        <time>2019-02-17T11:44:07.000Z</time>
      </trkpt>
      <trkpt lat="43.23127" lon="0.91243">
        <ele>374</ele>
        <time>2019-02-17T11:44:09.000Z</time>
      </trkpt>
      <trkpt lat="43.23127" lon="0.91243">
        <ele>374</ele>
        <time>2019-02-17T11:44:11.000Z</time>
      </trkpt>
      <trkpt lat="43.23127" lon="0.91244">
        <ele>374</ele>
        <time>2019-02-17T11:44:13.000Z</time>
      </trkpt>
      <trkpt lat="43.23126" lon="0.91244">
        <ele>374</ele>
        <time>2019-02-17T11:44:15.000Z</time>
      </trkpt>
      <trkpt lat="43.23126" lon="0.91244">
        <ele>374</ele>
        <time>2019-02-17T11:44:17.000Z</time>
      </trkpt>
      <trkpt lat="43.23126" lon="0.91243">
        <ele>374</ele>
        <time>2019-02-17T11:44:19.000Z</time>
      </trkpt>
      <trkpt lat="43.23127" lon="0.91243">
        <ele>374</ele>
        <time>2019-02-17T11:44:21.000Z</time>
      </trkpt>
      <trkpt lat="43.23127" lon="0.91243">
        <ele>374</ele>
        <time>2019-02-17T11:44:23.000Z</time>
      </trkpt>
      <trkpt lat="43.23126" lon="0.91245">
        <ele>374</ele>
        <time>2019-02-17T11:44:25.000Z</time>
      </trkpt>
      <trkpt lat="43.23125" lon="0.91247">
        <ele>374</ele>
        <time>2019-02-17T11:44:27.000Z</time>
      </trkpt>
      <trkpt lat="43.23125" lon="0.91247">
        <ele>374</ele>
        <time>2019-02-17T11:44:29.000Z</time>
      </trkpt>
      <trkpt lat="43.23124" lon="0.91248">
        <ele>374</ele>
        <time>2019-02-17T11:44:31.000Z</time>
      </trkpt>
      <trkpt lat="43.23124" lon="0.91248">
        <ele>374</ele>
        <time>2019-02-17T11:44:33.000Z</time>
      </trkpt>
      <trkpt lat="43.23124" lon="0.91248">
        <ele>374</ele>
        <time>2019-02-17T11:44:35.000Z</time>
      </trkpt>
      <trkpt lat="43.23124" lon="0.91247">
        <ele>374</ele>
        <time>2019-02-17T11:44:37.000Z</time>
      </trkpt>
      <trkpt lat="43.23124" lon="0.91247">
        <ele>374</ele>
        <time>2019-02-17T11:44:39.000Z</time>
      </trkpt>
      <trkpt lat="43.23124" lon="0.91247">
        <ele>374</ele>
        <time>2019-02-17T11:44:41.000Z</time>
      </trkpt>
      <trkpt lat="43.23124" lon="0.91247">
        <ele>374</ele>
        <time>2019-02-17T11:44:43.000Z</time>
      </trkpt>
      <trkpt lat="43.23125" lon="0.91246">
        <ele>374</ele>
        <time>2019-02-17T11:44:45.000Z</time>
      </trkpt>
      <trkpt lat="43.23125" lon="0.91247">
        <ele>374</ele>
        <time>2019-02-17T11:44:47.000Z</time>
      </trkpt>
      <trkpt lat="43.23125" lon="0.91247">
        <ele>374</ele>
        <time>2019-02-17T11:44:49.000Z</time>
      </trkpt>
      <trkpt lat="43.23125" lon="0.91247">
        <ele>374</ele>
        <time>2019-02-17T11:44:51.000Z</time>
      </trkpt>
      <trkpt lat="43.23125" lon="0.91247">
        <ele>374</ele>
        <time>2019-02-17T11:44:53.000Z</time>
      </trkpt>
      <trkpt lat="43.23125" lon="0.91247">
        <ele>374</ele>
        <time>2019-02-17T11:44:55.000Z</time>
      </trkpt>
      <trkpt lat="43.23125" lon="0.91247">
        <ele>374</ele>
        <time>2019-02-17T11:44:57.000Z</time>
      </trkpt>
      <trkpt lat="43.23126" lon="0.91247">
        <ele>374</ele>
        <time>2019-02-17T11:44:59.000Z</time>
      </trkpt>
      <trkpt lat="43.23126" lon="0.91247">
        <ele>374</ele>
        <time>2019-02-17T11:45:01.000Z</time>
      </trkpt>
      <trkpt lat="43.23127" lon="0.91247">
        <ele>374</ele>
        <time>2019-02-17T11:45:03.000Z</time>
      </trkpt>
      <trkpt lat="43.23127" lon="0.91246">
        <ele>374</ele>
        <time>2019-02-17T11:45:05.000Z</time>
      </trkpt>
      <trkpt lat="43.23127" lon="0.91246">
        <ele>374</ele>
        <time>2019-02-17T11:45:07.000Z</time>
      </trkpt>
      <trkpt lat="43.23127" lon="0.91245">
        <ele>374</ele>
        <time>2019-02-17T11:45:09.000Z</time>
      </trkpt>
      <trkpt lat="43.23127" lon="0.91245">
        <ele>374</ele>
        <time>2019-02-17T11:45:11.000Z</time>
      </trkpt>
      <trkpt lat="43.23127" lon="0.91245">
        <ele>374</ele>
        <time>2019-02-17T11:45:13.000Z</time>
      </trkpt>
      <trkpt lat="43.23128" lon="0.91245">
        <ele>374</ele>
        <time>2019-02-17T11:45:15.000Z</time>
      </trkpt>
      <trkpt lat="43.23128" lon="0.91245">
        <ele>374</ele>
        <time>2019-02-17T11:45:17.000Z</time>
      </trkpt>
      <trkpt lat="43.23128" lon="0.91245">
        <ele>374</ele>
        <time>2019-02-17T11:45:19.000Z</time>
      </trkpt>
      <trkpt lat="43.23128" lon="0.91246">
        <ele>374</ele>
        <time>2019-02-17T11:45:21.000Z</time>
      </trkpt>
      <trkpt lat="43.23127" lon="0.91246">
        <ele>374</ele>
        <time>2019-02-17T11:45:23.000Z</time>
      </trkpt>
      <trkpt lat="43.23127" lon="0.91246">
        <ele>374</ele>
        <time>2019-02-17T11:45:25.000Z</time>
      </trkpt>
      <trkpt lat="43.23127" lon="0.91246">
        <ele>374</ele>
        <time>2019-02-17T11:45:27.000Z</time>
      </trkpt>
      <trkpt lat="43.23127" lon="0.91246">
        <ele>374</ele>
        <time>2019-02-17T11:45:29.000Z</time>
      </trkpt>
      <trkpt lat="43.23128" lon="0.91245">
        <ele>374</ele>
        <time>2019-02-17T11:45:31.000Z</time>
      </trkpt>
      <trkpt lat="43.23128" lon="0.91246">
        <ele>374</ele>
        <time>2019-02-17T11:45:33.000Z</time>
      </trkpt>
      <trkpt lat="43.23128" lon="0.91244">
        <ele>374</ele>
        <time>2019-02-17T11:45:35.000Z</time>
      </trkpt>
      <trkpt lat="43.23128" lon="0.91245">
        <ele>374</ele>
        <time>2019-02-17T11:45:37.000Z</time>
      </trkpt>
      <trkpt lat="43.23128" lon="0.91245">
        <ele>374</ele>
        <time>2019-02-17T11:45:39.000Z</time>
      </trkpt>
      <trkpt lat="43.23128" lon="0.91245">
        <ele>374</ele>
        <time>2019-02-17T11:45:41.000Z</time>
      </trkpt>
      <trkpt lat="43.23128" lon="0.91246">
        <ele>374</ele>
        <time>2019-02-17T11:45:43.000Z</time>
      </trkpt>
      <trkpt lat="43.23128" lon="0.91245">
        <ele>374</ele>
        <time>2019-02-17T11:45:45.000Z</time>
      </trkpt>
      <trkpt lat="43.23128" lon="0.91245">
        <ele>374</ele>
        <time>2019-02-17T11:45:47.000Z</time>
      </trkpt>
      <trkpt lat="43.23128" lon="0.91245">
        <ele>374</ele>
        <time>2019-02-17T11:45:49.000Z</time>
      </trkpt>
      <trkpt lat="43.23128" lon="0.91246">
        <ele>374</ele>
        <time>2019-02-17T11:45:51.000Z</time>
      </trkpt>
      <trkpt lat="43.23128" lon="0.91245">
        <ele>374</ele>
        <time>2019-02-17T11:45:53.000Z</time>
      </trkpt>
      <trkpt lat="43.23128" lon="0.91246">
        <ele>374</ele>
        <time>2019-02-17T11:45:55.000Z</time>
      </trkpt>
      <trkpt lat="43.23127" lon="0.91246">
        <ele>374</ele>
        <time>2019-02-17T11:45:57.000Z</time>
      </trkpt>
      <trkpt lat="43.23127" lon="0.91245">
        <ele>374</ele>
        <time>2019-02-17T11:45:59.000Z</time>
      </trkpt>
      <trkpt lat="43.23127" lon="0.91245">
        <ele>374</ele>
        <time>2019-02-17T11:46:01.000Z</time>
      </trkpt>
      <trkpt lat="43.23126" lon="0.91246">
        <ele>374</ele>
        <time>2019-02-17T11:46:03.000Z</time>
      </trkpt>
      <trkpt lat="43.23126" lon="0.91246">
        <ele>374</ele>
        <time>2019-02-17T11:46:05.000Z</time>
      </trkpt>
      <trkpt lat="43.23126" lon="0.91246">
        <ele>374</ele>
        <time>2019-02-17T11:46:07.000Z</time>
      </trkpt>
      <trkpt lat="43.23126" lon="0.91245">
        <ele>374</ele>
        <time>2019-02-17T11:46:09.000Z</time>
      </trkpt>
      <trkpt lat="43.23126" lon="0.91246">
        <ele>374</ele>
        <time>2019-02-17T11:46:11.000Z</time>
      </trkpt>
      <trkpt lat="43.23126" lon="0.91246">
        <ele>374</ele>
        <time>2019-02-17T11:46:13.000Z</time>
      </trkpt>
      <trkpt lat="43.23126" lon="0.91246">
        <ele>374</ele>
        <time>2019-02-17T11:46:15.000Z</time>
      </trkpt>
      <trkpt lat="43.23126" lon="0.91246">
        <ele>374</ele>
        <time>2019-02-17T11:46:17.000Z</time>
      </trkpt>
      <trkpt lat="43.23126" lon="0.91246">
        <ele>374</ele>
        <time>2019-02-17T11:46:19.000Z</time>
      </trkpt>
      <trkpt lat="43.23126" lon="0.91245">
        <ele>374</ele>
        <time>2019-02-17T11:46:21.000Z</time>
      </trkpt>
      <trkpt lat="43.23126" lon="0.91245">
        <ele>374</ele>
        <time>2019-02-17T11:46:23.000Z</time>
      </trkpt>
      <trkpt lat="43.23126" lon="0.91244">
        <ele>374</ele>
        <time>2019-02-17T11:46:25.000Z</time>
      </trkpt>
      <trkpt lat="43.23126" lon="0.91244">
        <ele>374</ele>
        <time>2019-02-17T11:46:27.000Z</time>
      </trkpt>
      <trkpt lat="43.23126" lon="0.91245">
        <ele>374</ele>
        <time>2019-02-17T11:46:29.000Z</time>
      </trkpt>
      <trkpt lat="43.23126" lon="0.91245">
        <ele>374</ele>
        <time>2019-02-17T11:46:31.000Z</time>
      </trkpt>
      <trkpt lat="43.23126" lon="0.91245">
        <ele>374</ele>
        <time>2019-02-17T11:46:33.000Z</time>
      </trkpt>
      <trkpt lat="43.23126" lon="0.91246">
        <ele>374</ele>
        <time>2019-02-17T11:46:35.000Z</time>
      </trkpt>
      <trkpt lat="43.23126" lon="0.91246">
        <ele>374</ele>
        <time>2019-02-17T11:46:37.000Z</time>
      </trkpt>
      <trkpt lat="43.23126" lon="0.91246">
        <ele>374</ele>
        <time>2019-02-17T11:46:39.000Z</time>
      </trkpt>
      <trkpt lat="43.23126" lon="0.91245">
        <ele>374</ele>
        <time>2019-02-17T11:46:41.000Z</time>
      </trkpt>
      <trkpt lat="43.23126" lon="0.91246">
        <ele>374</ele>
        <time>2019-02-17T11:46:43.000Z</time>
      </trkpt>
      <trkpt lat="43.23126" lon="0.91245">
        <ele>374</ele>
        <time>2019-02-17T11:46:45.000Z</time>
      </trkpt>
      <trkpt lat="43.23126" lon="0.91245">
        <ele>374</ele>
        <time>2019-02-17T11:46:47.000Z</time>
      </trkpt>
      <trkpt lat="43.23126" lon="0.91245">
        <ele>374</ele>
        <time>2019-02-17T11:46:49.000Z</time>
      </trkpt>
      <trkpt lat="43.23126" lon="0.91245">
        <ele>374</ele>
        <time>2019-02-17T11:46:51.000Z</time>
      </trkpt>
      <trkpt lat="43.23126" lon="0.91244">
        <ele>374</ele>
        <time>2019-02-17T11:46:53.000Z</time>
      </trkpt>
      <trkpt lat="43.23126" lon="0.91244">
        <ele>374</ele>
        <time>2019-02-17T11:46:55.000Z</time>
      </trkpt>
      <trkpt lat="43.23126" lon="0.91244">
        <ele>374</ele>
        <time>2019-02-17T11:46:57.000Z</time>
      </trkpt>
      <trkpt lat="43.23126" lon="0.91244">
        <ele>374</ele>
        <time>2019-02-17T11:46:59.000Z</time>
      </trkpt>
      <trkpt lat="43.23126" lon="0.91244">
        <ele>374</ele>
        <time>2019-02-17T11:47:01.000Z</time>
      </trkpt>
      <trkpt lat="43.23126" lon="0.91244">
        <ele>374</ele>
        <time>2019-02-17T11:47:03.000Z</time>
      </trkpt>
      <trkpt lat="43.23126" lon="0.91244">
        <ele>374</ele>
        <time>2019-02-17T11:47:05.000Z</time>
      </trkpt>
      <trkpt lat="43.23126" lon="0.91244">
        <ele>374</ele>
        <time>2019-02-17T11:47:07.000Z</time>
      </trkpt>
      <trkpt lat="43.23126" lon="0.91244">
        <ele>374</ele>
        <time>2019-02-17T11:47:09.000Z</time>
      </trkpt>
      <trkpt lat="43.23126" lon="0.91244">
        <ele>374</ele>
        <time>2019-02-17T11:47:11.000Z</time>
      </trkpt>
      <trkpt lat="43.23126" lon="0.91244">
        <ele>374</ele>
        <time>2019-02-17T11:47:13.000Z</time>
      </trkpt>
      <trkpt lat="43.23126" lon="0.91245">
        <ele>374</ele>
        <time>2019-02-17T11:47:15.000Z</time>
      </trkpt>
      <trkpt lat="43.23125" lon="0.91245">
        <ele>374</ele>
        <time>2019-02-17T11:47:17.000Z</time>
      </trkpt>
      <trkpt lat="43.23126" lon="0.91245">
        <ele>374</ele>
        <time>2019-02-17T11:47:19.000Z</time>
      </trkpt>
      <trkpt lat="43.23126" lon="0.91245">
        <ele>374</ele>
        <time>2019-02-17T11:47:21.000Z</time>
      </trkpt>
      <trkpt lat="43.23126" lon="0.91246">
        <ele>374</ele>
        <time>2019-02-17T11:47:23.000Z</time>
      </trkpt>
      <trkpt lat="43.23125" lon="0.91246">
        <ele>374</ele>
        <time>2019-02-17T11:47:25.000Z</time>
      </trkpt>
      <trkpt lat="43.23125" lon="0.91246">
        <ele>374</ele>
        <time>2019-02-17T11:47:27.000Z</time>
      </trkpt>
      <trkpt lat="43.23126" lon="0.91246">
        <ele>374</ele>
        <time>2019-02-17T11:47:29.000Z</time>
      </trkpt>
      <trkpt lat="43.23126" lon="0.91246">
        <ele>374</ele>
        <time>2019-02-17T11:47:31.000Z</time>
      </trkpt>
      <trkpt lat="43.23126" lon="0.91246">
        <ele>374</ele>
        <time>2019-02-17T11:47:33.000Z</time>
      </trkpt>
      <trkpt lat="43.23126" lon="0.91245">
        <ele>374</ele>
        <time>2019-02-17T11:47:35.000Z</time>
      </trkpt>
      <trkpt lat="43.23126" lon="0.91245">
        <ele>374</ele>
        <time>2019-02-17T11:47:37.000Z</time>
      </trkpt>
      <trkpt lat="43.23126" lon="0.91245">
        <ele>374</ele>
        <time>2019-02-17T11:47:39.000Z</time>
      </trkpt>
      <trkpt lat="43.23127" lon="0.91246">
        <ele>374</ele>
        <time>2019-02-17T11:47:41.000Z</time>
      </trkpt>
      <trkpt lat="43.23127" lon="0.91246">
        <ele>374</ele>
        <time>2019-02-17T11:47:43.000Z</time>
      </trkpt>
      <trkpt lat="43.23126" lon="0.91246">
        <ele>374</ele>
        <time>2019-02-17T11:47:45.000Z</time>
      </trkpt>
      <trkpt lat="43.23126" lon="0.91246">
        <ele>374</ele>
        <time>2019-02-17T11:47:47.000Z</time>
      </trkpt>
      <trkpt lat="43.23126" lon="0.91246">
        <ele>374</ele>
        <time>2019-02-17T11:47:49.000Z</time>
      </trkpt>
      <trkpt lat="43.23127" lon="0.91246">
        <ele>374</ele>
        <time>2019-02-17T11:47:51.000Z</time>
      </trkpt>
      <trkpt lat="43.23127" lon="0.91246">
        <ele>374</ele>
        <time>2019-02-17T11:47:53.000Z</time>
      </trkpt>
      <trkpt lat="43.23127" lon="0.91246">
        <ele>374</ele>
        <time>2019-02-17T11:47:55.000Z</time>
      </trkpt>
      <trkpt lat="43.23128" lon="0.91246">
        <ele>374</ele>
        <time>2019-02-17T11:47:57.000Z</time>
      </trkpt>
      <trkpt lat="43.23127" lon="0.91246">
        <ele>374</ele>
        <time>2019-02-17T11:47:59.000Z</time>
      </trkpt>
      <trkpt lat="43.23128" lon="0.91246">
        <ele>374</ele>
        <time>2019-02-17T11:48:01.000Z</time>
      </trkpt>
      <trkpt lat="43.23128" lon="0.91246">
        <ele>374</ele>
        <time>2019-02-17T11:48:03.000Z</time>
      </trkpt>
      <trkpt lat="43.23127" lon="0.91246">
        <ele>374</ele>
        <time>2019-02-17T11:48:05.000Z</time>
      </trkpt>
      <trkpt lat="43.23127" lon="0.91247">
        <ele>374</ele>
        <time>2019-02-17T11:48:07.000Z</time>
      </trkpt>
      <trkpt lat="43.23127" lon="0.91247">
        <ele>374</ele>
        <time>2019-02-17T11:48:09.000Z</time>
      </trkpt>
      <trkpt lat="43.23127" lon="0.91246">
        <ele>374</ele>
        <time>2019-02-17T11:48:11.000Z</time>
      </trkpt>
      <trkpt lat="43.23127" lon="0.91246">
        <ele>374</ele>
        <time>2019-02-17T11:48:13.000Z</time>
      </trkpt>
      <trkpt lat="43.23127" lon="0.91246">
        <ele>374</ele>
        <time>2019-02-17T11:48:15.000Z</time>
      </trkpt>
      <trkpt lat="43.23126" lon="0.91246">
        <ele>374</ele>
        <time>2019-02-17T11:48:17.000Z</time>
      </trkpt>
      <trkpt lat="43.23126" lon="0.91247">
        <ele>374</ele>
        <time>2019-02-17T11:48:19.000Z</time>
      </trkpt>
      <trkpt lat="43.23126" lon="0.91247">
        <ele>374</ele>
        <time>2019-02-17T11:48:21.000Z</time>
      </trkpt>
      <trkpt lat="43.23125" lon="0.91247">
        <ele>374</ele>
        <time>2019-02-17T11:48:23.000Z</time>
      </trkpt>
      <trkpt lat="43.23125" lon="0.91247">
        <ele>374</ele>
        <time>2019-02-17T11:48:25.000Z</time>
      </trkpt>
      <trkpt lat="43.23125" lon="0.91247">
        <ele>374</ele>
        <time>2019-02-17T11:48:27.000Z</time>
      </trkpt>
      <trkpt lat="43.23126" lon="0.91247">
        <ele>374</ele>
        <time>2019-02-17T11:48:29.000Z</time>
      </trkpt>
      <trkpt lat="43.23126" lon="0.91247">
        <ele>374</ele>
        <time>2019-02-17T11:48:31.000Z</time>
      </trkpt>
      <trkpt lat="43.23127" lon="0.91247">
        <ele>374</ele>
        <time>2019-02-17T11:48:33.000Z</time>
      </trkpt>
      <trkpt lat="43.23127" lon="0.91246">
        <ele>374</ele>
        <time>2019-02-17T11:48:35.000Z</time>
      </trkpt>
      <trkpt lat="43.23127" lon="0.91246">
        <ele>374</ele>
        <time>2019-02-17T11:48:37.000Z</time>
      </trkpt>
      <trkpt lat="43.23127" lon="0.91246">
        <ele>374</ele>
        <time>2019-02-17T11:48:39.000Z</time>
      </trkpt>
      <trkpt lat="43.23127" lon="0.91246">
        <ele>374</ele>
        <time>2019-02-17T11:48:41.000Z</time>
      </trkpt>
      <trkpt lat="43.23126" lon="0.91246">
        <ele>374</ele>
        <time>2019-02-17T11:48:43.000Z</time>
      </trkpt>
      <trkpt lat="43.23126" lon="0.91247">
        <ele>374</ele>
        <time>2019-02-17T11:48:45.000Z</time>
      </trkpt>
      <trkpt lat="43.23125" lon="0.91247">
        <ele>374</ele>
        <time>2019-02-17T11:48:47.000Z</time>
      </trkpt>
      <trkpt lat="43.23125" lon="0.91247">
        <ele>374</ele>
        <time>2019-02-17T11:48:49.000Z</time>
      </trkpt>
      <trkpt lat="43.23125" lon="0.91247">
        <ele>374</ele>
        <time>2019-02-17T11:48:51.000Z</time>
      </trkpt>
      <trkpt lat="43.23125" lon="0.91247">
        <ele>374</ele>
        <time>2019-02-17T11:48:53.000Z</time>
      </trkpt>
      <trkpt lat="43.23125" lon="0.91247">
        <ele>374</ele>
        <time>2019-02-17T11:48:55.000Z</time>
      </trkpt>
      <trkpt lat="43.23126" lon="0.91247">
        <ele>374</ele>
        <time>2019-02-17T11:48:57.000Z</time>
      </trkpt>
      <trkpt lat="43.23125" lon="0.91248">
        <ele>374</ele>
        <time>2019-02-17T11:48:59.000Z</time>
      </trkpt>
      <trkpt lat="43.23125" lon="0.91248">
        <ele>374</ele>
        <time>2019-02-17T11:49:01.000Z</time>
      </trkpt>
      <trkpt lat="43.23125" lon="0.91248">
        <ele>374</ele>
        <time>2019-02-17T11:49:03.000Z</time>
      </trkpt>
      <trkpt lat="43.23125" lon="0.91248">
        <ele>374</ele>
        <time>2019-02-17T11:49:05.000Z</time>
      </trkpt>
      <trkpt lat="43.23125" lon="0.91248">
        <ele>374</ele>
        <time>2019-02-17T11:49:07.000Z</time>
      </trkpt>
      <trkpt lat="43.23125" lon="0.91248">
        <ele>374</ele>
        <time>2019-02-17T11:49:09.000Z</time>
      </trkpt>
      <trkpt lat="43.23125" lon="0.91248">
        <ele>374</ele>
        <time>2019-02-17T11:49:11.000Z</time>
      </trkpt>
      <trkpt lat="43.23125" lon="0.91248">
        <ele>374</ele>
        <time>2019-02-17T11:49:13.000Z</time>
      </trkpt>
      <trkpt lat="43.23125" lon="0.91248">
        <ele>374</ele>
        <time>2019-02-17T11:49:15.000Z</time>
      </trkpt>
      <trkpt lat="43.23124" lon="0.91247">
        <ele>374</ele>
        <time>2019-02-17T11:49:17.000Z</time>
      </trkpt>
      <trkpt lat="43.23124" lon="0.91247">
        <ele>374</ele>
        <time>2019-02-17T11:49:19.000Z</time>
      </trkpt>
      <trkpt lat="43.23125" lon="0.91247">
        <ele>374</ele>
        <time>2019-02-17T11:49:21.000Z</time>
      </trkpt>
      <trkpt lat="43.23125" lon="0.91247">
        <ele>374</ele>
        <time>2019-02-17T11:49:23.000Z</time>
      </trkpt>
      <trkpt lat="43.23126" lon="0.91246">
        <ele>374</ele>
        <time>2019-02-17T11:49:25.000Z</time>
      </trkpt>
      <trkpt lat="43.23125" lon="0.91246">
        <ele>374</ele>
        <time>2019-02-17T11:49:27.000Z</time>
      </trkpt>
      <trkpt lat="43.23126" lon="0.91245">
        <ele>374</ele>
        <time>2019-02-17T11:49:29.000Z</time>
      </trkpt>
      <trkpt lat="43.23127" lon="0.91245">
        <ele>374</ele>
        <time>2019-02-17T11:49:31.000Z</time>
      </trkpt>
      <trkpt lat="43.23127" lon="0.91245">
        <ele>374</ele>
        <time>2019-02-17T11:49:33.000Z</time>
      </trkpt>
      <trkpt lat="43.23126" lon="0.91246">
        <ele>374</ele>
        <time>2019-02-17T11:49:35.000Z</time>
      </trkpt>
      <trkpt lat="43.23126" lon="0.91246">
        <ele>374</ele>
        <time>2019-02-17T11:49:37.000Z</time>
      </trkpt>
      <trkpt lat="43.23126" lon="0.91246">
        <ele>374</ele>
        <time>2019-02-17T11:49:39.000Z</time>
      </trkpt>
      <trkpt lat="43.23126" lon="0.91246">
        <ele>374</ele>
        <time>2019-02-17T11:49:41.000Z</time>
      </trkpt>
      <trkpt lat="43.23126" lon="0.91247">
        <ele>374</ele>
        <time>2019-02-17T11:49:43.000Z</time>
      </trkpt>
      <trkpt lat="43.23126" lon="0.91247">
        <ele>374</ele>
        <time>2019-02-17T11:49:45.000Z</time>
      </trkpt>
      <trkpt lat="43.23126" lon="0.91247">
        <ele>374</ele>
        <time>2019-02-17T11:49:47.000Z</time>
      </trkpt>
      <trkpt lat="43.23126" lon="0.91247">
        <ele>374</ele>
        <time>2019-02-17T11:49:49.000Z</time>
      </trkpt>
      <trkpt lat="43.23126" lon="0.91247">
        <ele>374</ele>
        <time>2019-02-17T11:49:51.000Z</time>
      </trkpt>
      <trkpt lat="43.23126" lon="0.91247">
        <ele>374</ele>
        <time>2019-02-17T11:49:53.000Z</time>
      </trkpt>
      <trkpt lat="43.23126" lon="0.91248">
        <ele>374</ele>
        <time>2019-02-17T11:49:55.000Z</time>
      </trkpt>
      <trkpt lat="43.23126" lon="0.91248">
        <ele>374</ele>
        <time>2019-02-17T11:49:57.000Z</time>
      </trkpt>
      <trkpt lat="43.23126" lon="0.91248">
        <ele>374</ele>
        <time>2019-02-17T11:49:59.000Z</time>
      </trkpt>
      <trkpt lat="43.23127" lon="0.91248">
        <ele>374</ele>
        <time>2019-02-17T11:50:01.000Z</time>
      </trkpt>
      <trkpt lat="43.23127" lon="0.91248">
        <ele>374</ele>
        <time>2019-02-17T11:50:03.000Z</time>
      </trkpt>
      <trkpt lat="43.23127" lon="0.91248">
        <ele>374</ele>
        <time>2019-02-17T11:50:05.000Z</time>
      </trkpt>
      <trkpt lat="43.23127" lon="0.91248">
        <ele>374</ele>
        <time>2019-02-17T11:50:07.000Z</time>
      </trkpt>
      <trkpt lat="43.23127" lon="0.91248">
        <ele>374</ele>
        <time>2019-02-17T11:50:09.000Z</time>
      </trkpt>
      <trkpt lat="43.23127" lon="0.91247">
        <ele>374</ele>
        <time>2019-02-17T11:50:11.000Z</time>
      </trkpt>
      <trkpt lat="43.23127" lon="0.91247">
        <ele>374</ele>
        <time>2019-02-17T11:50:13.000Z</time>
      </trkpt>
      <trkpt lat="43.23127" lon="0.91247">
        <ele>374</ele>
        <time>2019-02-17T11:50:15.000Z</time>
      </trkpt>
      <trkpt lat="43.23127" lon="0.91247">
        <ele>374</ele>
        <time>2019-02-17T11:50:17.000Z</time>
      </trkpt>
      <trkpt lat="43.23128" lon="0.91246">
        <ele>374</ele>
        <time>2019-02-17T11:50:19.000Z</time>
      </trkpt>
      <trkpt lat="43.23128" lon="0.91246">
        <ele>374</ele>
        <time>2019-02-17T11:50:21.000Z</time>
      </trkpt>
      <trkpt lat="43.23128" lon="0.91246">
        <ele>374</ele>
        <time>2019-02-17T11:50:23.000Z</time>
      </trkpt>
      <trkpt lat="43.23128" lon="0.91246">
        <ele>374</ele>
        <time>2019-02-17T11:50:25.000Z</time>
      </trkpt>
      <trkpt lat="43.23129" lon="0.91246">
        <ele>374</ele>
        <time>2019-02-17T11:50:27.000Z</time>
      </trkpt>
      <trkpt lat="43.23129" lon="0.91246">
        <ele>374</ele>
        <time>2019-02-17T11:50:29.000Z</time>
      </trkpt>
      <trkpt lat="43.23129" lon="0.91246">
        <ele>374</ele>
        <time>2019-02-17T11:50:31.000Z</time>
      </trkpt>
      <trkpt lat="43.23129" lon="0.91245">
        <ele>374</ele>
        <time>2019-02-17T11:50:33.000Z</time>
      </trkpt>
      <trkpt lat="43.23129" lon="0.91245">
        <ele>374</ele>
        <time>2019-02-17T11:50:35.000Z</time>
      </trkpt>
      <trkpt lat="43.23129" lon="0.91245">
        <ele>374</ele>
        <time>2019-02-17T11:50:37.000Z</time>
      </trkpt>
      <trkpt lat="43.23129" lon="0.91246">
        <ele>374</ele>
        <time>2019-02-17T11:50:39.000Z</time>
      </trkpt>
      <trkpt lat="43.23129" lon="0.91246">
        <ele>374</ele>
        <time>2019-02-17T11:50:41.000Z</time>
      </trkpt>
      <trkpt lat="43.23129" lon="0.91246">
        <ele>374</ele>
        <time>2019-02-17T11:50:43.000Z</time>
      </trkpt>
      <trkpt lat="43.23129" lon="0.91245">
        <ele>374</ele>
        <time>2019-02-17T11:50:45.000Z</time>
      </trkpt>
      <trkpt lat="43.23129" lon="0.91245">
        <ele>374</ele>
        <time>2019-02-17T11:50:47.000Z</time>
      </trkpt>
      <trkpt lat="43.23129" lon="0.91245">
        <ele>374</ele>
        <time>2019-02-17T11:50:49.000Z</time>
      </trkpt>
      <trkpt lat="43.23129" lon="0.91246">
        <ele>374</ele>
        <time>2019-02-17T11:50:51.000Z</time>
      </trkpt>
      <trkpt lat="43.23129" lon="0.91246">
        <ele>374</ele>
        <time>2019-02-17T11:50:53.000Z</time>
      </trkpt>
      <trkpt lat="43.23129" lon="0.91247">
        <ele>374</ele>
        <time>2019-02-17T11:50:55.000Z</time>
      </trkpt>
      <trkpt lat="43.23129" lon="0.91247">
        <ele>374</ele>
        <time>2019-02-17T11:50:57.000Z</time>
      </trkpt>
      <trkpt lat="43.23129" lon="0.91247">
        <ele>374</ele>
        <time>2019-02-17T11:50:59.000Z</time>
      </trkpt>
      <trkpt lat="43.23128" lon="0.91247">
        <ele>374</ele>
        <time>2019-02-17T11:51:01.000Z</time>
      </trkpt>
      <trkpt lat="43.23128" lon="0.91247">
        <ele>374</ele>
        <time>2019-02-17T11:51:03.000Z</time>
      </trkpt>
      <trkpt lat="43.23128" lon="0.91248">
        <ele>374</ele>
        <time>2019-02-17T11:51:05.000Z</time>
      </trkpt>
      <trkpt lat="43.23129" lon="0.91246">
        <ele>374</ele>
        <time>2019-02-17T11:51:07.000Z</time>
      </trkpt>
      <trkpt lat="43.23129" lon="0.91247">
        <ele>374</ele>
        <time>2019-02-17T11:51:09.000Z</time>
      </trkpt>
      <trkpt lat="43.23128" lon="0.91246">
        <ele>374</ele>
        <time>2019-02-17T11:51:11.000Z</time>
      </trkpt>
      <trkpt lat="43.23128" lon="0.91246">
        <ele>374</ele>
        <time>2019-02-17T11:51:13.000Z</time>
      </trkpt>
      <trkpt lat="43.23128" lon="0.91246">
        <ele>374</ele>
        <time>2019-02-17T11:51:15.000Z</time>
      </trkpt>
      <trkpt lat="43.23128" lon="0.91245">
        <ele>374</ele>
        <time>2019-02-17T11:51:17.000Z</time>
      </trkpt>
      <trkpt lat="43.23128" lon="0.91245">
        <ele>374</ele>
        <time>2019-02-17T11:51:19.000Z</time>
      </trkpt>
      <trkpt lat="43.23128" lon="0.91245">
        <ele>374</ele>
        <time>2019-02-17T11:51:21.000Z</time>
      </trkpt>
      <trkpt lat="43.23128" lon="0.91246">
        <ele>374</ele>
        <time>2019-02-17T11:51:23.000Z</time>
      </trkpt>
      <trkpt lat="43.23127" lon="0.91246">
        <ele>374</ele>
        <time>2019-02-17T11:51:25.000Z</time>
      </trkpt>
      <trkpt lat="43.23127" lon="0.91246">
        <ele>374</ele>
        <time>2019-02-17T11:51:27.000Z</time>
      </trkpt>
      <trkpt lat="43.23127" lon="0.91246">
        <ele>374</ele>
        <time>2019-02-17T11:51:29.000Z</time>
      </trkpt>
      <trkpt lat="43.23126" lon="0.91246">
        <ele>374</ele>
        <time>2019-02-17T11:51:31.000Z</time>
      </trkpt>
      <trkpt lat="43.23126" lon="0.91246">
        <ele>374</ele>
        <time>2019-02-17T11:51:33.000Z</time>
      </trkpt>
      <trkpt lat="43.23126" lon="0.91245">
        <ele>374</ele>
        <time>2019-02-17T11:51:35.000Z</time>
      </trkpt>
      <trkpt lat="43.23126" lon="0.91245">
        <ele>374</ele>
        <time>2019-02-17T11:51:37.000Z</time>
      </trkpt>
      <trkpt lat="43.23126" lon="0.91245">
        <ele>374</ele>
        <time>2019-02-17T11:51:39.000Z</time>
      </trkpt>
      <trkpt lat="43.23127" lon="0.91245">
        <ele>374</ele>
        <time>2019-02-17T11:51:41.000Z</time>
      </trkpt>
      <trkpt lat="43.23127" lon="0.91245">
        <ele>374</ele>
        <time>2019-02-17T11:51:43.000Z</time>
      </trkpt>
      <trkpt lat="43.23127" lon="0.91245">
        <ele>374</ele>
        <time>2019-02-17T11:51:45.000Z</time>
      </trkpt>
      <trkpt lat="43.23127" lon="0.91244">
        <ele>374</ele>
        <time>2019-02-17T11:51:47.000Z</time>
      </trkpt>
      <trkpt lat="43.23127" lon="0.91244">
        <ele>374</ele>
        <time>2019-02-17T11:51:49.000Z</time>
      </trkpt>
      <trkpt lat="43.23127" lon="0.91244">
        <ele>374</ele>
        <time>2019-02-17T11:51:51.000Z</time>
      </trkpt>
      <trkpt lat="43.23127" lon="0.91244">
        <ele>374</ele>
        <time>2019-02-17T11:51:53.000Z</time>
      </trkpt>
      <trkpt lat="43.23127" lon="0.91244">
        <ele>374</ele>
        <time>2019-02-17T11:51:55.000Z</time>
      </trkpt>
      <trkpt lat="43.23127" lon="0.91244">
        <ele>374</ele>
        <time>2019-02-17T11:51:57.000Z</time>
      </trkpt>
      <trkpt lat="43.23126" lon="0.91244">
        <ele>374</ele>
        <time>2019-02-17T11:51:59.000Z</time>
      </trkpt>
      <trkpt lat="43.23126" lon="0.91244">
        <ele>374</ele>
        <time>2019-02-17T11:52:01.000Z</time>
      </trkpt>
      <trkpt lat="43.23126" lon="0.91244">
        <ele>374</ele>
        <time>2019-02-17T11:52:03.000Z</time>
      </trkpt>
      <trkpt lat="43.23125" lon="0.91244">
        <ele>374</ele>
        <time>2019-02-17T11:52:05.000Z</time>
      </trkpt>
      <trkpt lat="43.23125" lon="0.91244">
        <ele>374</ele>
        <time>2019-02-17T11:52:07.000Z</time>
      </trkpt>
      <trkpt lat="43.23125" lon="0.91244">
        <ele>374</ele>
        <time>2019-02-17T11:52:09.000Z</time>
      </trkpt>
      <trkpt lat="43.23125" lon="0.91244">
        <ele>374</ele>
        <time>2019-02-17T11:52:11.000Z</time>
      </trkpt>
      <trkpt lat="43.23125" lon="0.91244">
        <ele>374</ele>
        <time>2019-02-17T11:52:13.000Z</time>
      </trkpt>
      <trkpt lat="43.23125" lon="0.91244">
        <ele>374</ele>
        <time>2019-02-17T11:52:15.000Z</time>
      </trkpt>
      <trkpt lat="43.23125" lon="0.91244">
        <ele>374</ele>
        <time>2019-02-17T11:52:17.000Z</time>
      </trkpt>
      <trkpt lat="43.23125" lon="0.91244">
        <ele>374</ele>
        <time>2019-02-17T11:52:19.000Z</time>
      </trkpt>
      <trkpt lat="43.23126" lon="0.91245">
        <ele>374</ele>
        <time>2019-02-17T11:52:21.000Z</time>
      </trkpt>
      <trkpt lat="43.23126" lon="0.91245">
        <ele>374</ele>
        <time>2019-02-17T11:52:23.000Z</time>
      </trkpt>
      <trkpt lat="43.23126" lon="0.91245">
        <ele>374</ele>
        <time>2019-02-17T11:52:25.000Z</time>
      </trkpt>
      <trkpt lat="43.23126" lon="0.91245">
        <ele>374</ele>
        <time>2019-02-17T11:52:27.000Z</time>
      </trkpt>
      <trkpt lat="43.23126" lon="0.91245">
        <ele>374</ele>
        <time>2019-02-17T11:52:29.000Z</time>
      </trkpt>
      <trkpt lat="43.23126" lon="0.91245">
        <ele>374</ele>
        <time>2019-02-17T11:52:31.000Z</time>
      </trkpt>
      <trkpt lat="43.23126" lon="0.91246">
        <ele>374</ele>
        <time>2019-02-17T11:52:33.000Z</time>
      </trkpt>
      <trkpt lat="43.23126" lon="0.91246">
        <ele>374</ele>
        <time>2019-02-17T11:52:35.000Z</time>
      </trkpt>
      <trkpt lat="43.23126" lon="0.91245">
        <ele>374</ele>
        <time>2019-02-17T11:52:37.000Z</time>
      </trkpt>
      <trkpt lat="43.23126" lon="0.91245">
        <ele>374</ele>
        <time>2019-02-17T11:52:39.000Z</time>
      </trkpt>
      <trkpt lat="43.23126" lon="0.91245">
        <ele>374</ele>
        <time>2019-02-17T11:52:41.000Z</time>
      </trkpt>
      <trkpt lat="43.23126" lon="0.91246">
        <ele>374</ele>
        <time>2019-02-17T11:52:43.000Z</time>
      </trkpt>
      <trkpt lat="43.23126" lon="0.91246">
        <ele>374</ele>
        <time>2019-02-17T11:52:45.000Z</time>
      </trkpt>
      <trkpt lat="43.23126" lon="0.91246">
        <ele>374</ele>
        <time>2019-02-17T11:52:47.000Z</time>
      </trkpt>
      <trkpt lat="43.23126" lon="0.91246">
        <ele>374</ele>
        <time>2019-02-17T11:52:49.000Z</time>
      </trkpt>
      <trkpt lat="43.23126" lon="0.91246">
        <ele>374</ele>
        <time>2019-02-17T11:52:51.000Z</time>
      </trkpt>
      <trkpt lat="43.23126" lon="0.91246">
        <ele>374</ele>
        <time>2019-02-17T11:52:53.000Z</time>
      </trkpt>
      <trkpt lat="43.23126" lon="0.91246">
        <ele>374</ele>
        <time>2019-02-17T11:52:55.000Z</time>
      </trkpt>
      <trkpt lat="43.23126" lon="0.91246">
        <ele>374</ele>
        <time>2019-02-17T11:52:57.000Z</time>
      </trkpt>
      <trkpt lat="43.23126" lon="0.91246">
        <ele>374</ele>
        <time>2019-02-17T11:52:59.000Z</time>
      </trkpt>
      <trkpt lat="43.23126" lon="0.91246">
        <ele>374</ele>
        <time>2019-02-17T11:53:01.000Z</time>
      </trkpt>
      <trkpt lat="43.23126" lon="0.91245">
        <ele>374</ele>
        <time>2019-02-17T11:53:03.000Z</time>
      </trkpt>
      <trkpt lat="43.23126" lon="0.91245">
        <ele>374</ele>
        <time>2019-02-17T11:53:05.000Z</time>
      </trkpt>
      <trkpt lat="43.23125" lon="0.91245">
        <ele>374</ele>
        <time>2019-02-17T11:53:07.000Z</time>
      </trkpt>
      <trkpt lat="43.23125" lon="0.91245">
        <ele>374</ele>
        <time>2019-02-17T11:53:09.000Z</time>
      </trkpt>
      <trkpt lat="43.23126" lon="0.91245">
        <ele>374</ele>
        <time>2019-02-17T11:53:11.000Z</time>
      </trkpt>
      <trkpt lat="43.23126" lon="0.91245">
        <ele>374</ele>
        <time>2019-02-17T11:53:13.000Z</time>
      </trkpt>
      <trkpt lat="43.23126" lon="0.91244">
        <ele>374</ele>
        <time>2019-02-17T11:53:15.000Z</time>
      </trkpt>
      <trkpt lat="43.23126" lon="0.91244">
        <ele>374</ele>
        <time>2019-02-17T11:53:17.000Z</time>
      </trkpt>
      <trkpt lat="43.23126" lon="0.91244">
        <ele>374</ele>
        <time>2019-02-17T11:53:19.000Z</time>
      </trkpt>
      <trkpt lat="43.23126" lon="0.91244">
        <ele>374</ele>
        <time>2019-02-17T11:53:21.000Z</time>
      </trkpt>
      <trkpt lat="43.23126" lon="0.91245">
        <ele>374</ele>
        <time>2019-02-17T11:53:23.000Z</time>
      </trkpt>
      <trkpt lat="43.23126" lon="0.91245">
        <ele>374</ele>
        <time>2019-02-17T11:53:25.000Z</time>
      </trkpt>
      <trkpt lat="43.23125" lon="0.91245">
        <ele>374</ele>
        <time>2019-02-17T11:53:27.000Z</time>
      </trkpt>
      <trkpt lat="43.23125" lon="0.91245">
        <ele>374</ele>
        <time>2019-02-17T11:53:29.000Z</time>
      </trkpt>
      <trkpt lat="43.23125" lon="0.91245">
        <ele>374</ele>
        <time>2019-02-17T11:53:31.000Z</time>
      </trkpt>
      <trkpt lat="43.23125" lon="0.91246">
        <ele>374</ele>
        <time>2019-02-17T11:53:33.000Z</time>
      </trkpt>
      <trkpt lat="43.23125" lon="0.91246">
        <ele>374</ele>
        <time>2019-02-17T11:53:35.000Z</time>
      </trkpt>
      <trkpt lat="43.23125" lon="0.91246">
        <ele>374</ele>
        <time>2019-02-17T11:53:37.000Z</time>
      </trkpt>
      <trkpt lat="43.23125" lon="0.91246">
        <ele>374</ele>
        <time>2019-02-17T11:53:39.000Z</time>
      </trkpt>
      <trkpt lat="43.23125" lon="0.91247">
        <ele>374</ele>
        <time>2019-02-17T11:53:41.000Z</time>
      </trkpt>
      <trkpt lat="43.23125" lon="0.91247">
        <ele>374</ele>
        <time>2019-02-17T11:53:43.000Z</time>
      </trkpt>
      <trkpt lat="43.23126" lon="0.91247">
        <ele>374</ele>
        <time>2019-02-17T11:53:45.000Z</time>
      </trkpt>
      <trkpt lat="43.23126" lon="0.91247">
        <ele>374</ele>
        <time>2019-02-17T11:53:47.000Z</time>
      </trkpt>
      <trkpt lat="43.23126" lon="0.91247">
        <ele>374</ele>
        <time>2019-02-17T11:53:49.000Z</time>
      </trkpt>
      <trkpt lat="43.23126" lon="0.91247">
        <ele>374</ele>
        <time>2019-02-17T11:53:51.000Z</time>
      </trkpt>
      <trkpt lat="43.23126" lon="0.91247">
        <ele>374</ele>
        <time>2019-02-17T11:53:53.000Z</time>
      </trkpt>
      <trkpt lat="43.23126" lon="0.91248">
        <ele>374</ele>
        <time>2019-02-17T11:53:55.000Z</time>
      </trkpt>
      <trkpt lat="43.23126" lon="0.91248">
        <ele>374</ele>
        <time>2019-02-17T11:53:57.000Z</time>
      </trkpt>
      <trkpt lat="43.23126" lon="0.91248">
        <ele>374</ele>
        <time>2019-02-17T11:53:59.000Z</time>
      </trkpt>
      <trkpt lat="43.23126" lon="0.91248">
        <ele>374</ele>
        <time>2019-02-17T11:54:01.000Z</time>
      </trkpt>
      <trkpt lat="43.23126" lon="0.91248">
        <ele>374</ele>
        <time>2019-02-17T11:54:03.000Z</time>
      </trkpt>
      <trkpt lat="43.23126" lon="0.91249">
        <ele>374</ele>
        <time>2019-02-17T11:54:05.000Z</time>
      </trkpt>
      <trkpt lat="43.23126" lon="0.91249">
        <ele>374</ele>
        <time>2019-02-17T11:54:07.000Z</time>
      </trkpt>
      <trkpt lat="43.23126" lon="0.91249">
        <ele>374</ele>
        <time>2019-02-17T11:54:09.000Z</time>
      </trkpt>
      <trkpt lat="43.23126" lon="0.91249">
        <ele>374</ele>
        <time>2019-02-17T11:54:11.000Z</time>
      </trkpt>
      <trkpt lat="43.23126" lon="0.91249">
        <ele>374</ele>
        <time>2019-02-17T11:54:13.000Z</time>
      </trkpt>
      <trkpt lat="43.23126" lon="0.91249">
        <ele>374</ele>
        <time>2019-02-17T11:54:15.000Z</time>
      </trkpt>
      <trkpt lat="43.23126" lon="0.91249">
        <ele>374</ele>
        <time>2019-02-17T11:54:17.000Z</time>
      </trkpt>
      <trkpt lat="43.23126" lon="0.91249">
        <ele>374</ele>
        <time>2019-02-17T11:54:19.000Z</time>
      </trkpt>
      <trkpt lat="43.23126" lon="0.91248">
        <ele>374</ele>
        <time>2019-02-17T11:54:21.000Z</time>
      </trkpt>
      <trkpt lat="43.23126" lon="0.91248">
        <ele>374</ele>
        <time>2019-02-17T11:54:23.000Z</time>
      </trkpt>
      <trkpt lat="43.23125" lon="0.91248">
        <ele>374</ele>
        <time>2019-02-17T11:54:25.000Z</time>
      </trkpt>
      <trkpt lat="43.23125" lon="0.91248">
        <ele>374</ele>
        <time>2019-02-17T11:54:27.000Z</time>
      </trkpt>
      <trkpt lat="43.23125" lon="0.91248">
        <ele>374</ele>
        <time>2019-02-17T11:54:29.000Z</time>
      </trkpt>
      <trkpt lat="43.23125" lon="0.91248">
        <ele>374</ele>
        <time>2019-02-17T11:54:31.000Z</time>
      </trkpt>
      <trkpt lat="43.23125" lon="0.91248">
        <ele>374</ele>
        <time>2019-02-17T11:54:33.000Z</time>
      </trkpt>
      <trkpt lat="43.23125" lon="0.91248">
        <ele>374</ele>
        <time>2019-02-17T11:54:35.000Z</time>
      </trkpt>
      <trkpt lat="43.23125" lon="0.91248">
        <ele>374</ele>
        <time>2019-02-17T11:54:37.000Z</time>
      </trkpt>
      <trkpt lat="43.23125" lon="0.91249">
        <ele>374</ele>
        <time>2019-02-17T11:54:39.000Z</time>
      </trkpt>
      <trkpt lat="43.23125" lon="0.91249">
        <ele>374</ele>
        <time>2019-02-17T11:54:41.000Z</time>
      </trkpt>
      <trkpt lat="43.23125" lon="0.91249">
        <ele>374</ele>
        <time>2019-02-17T11:54:43.000Z</time>
      </trkpt>
      <trkpt lat="43.23126" lon="0.91249">
        <ele>374</ele>
        <time>2019-02-17T11:54:45.000Z</time>
      </trkpt>
      <trkpt lat="43.23126" lon="0.91249">
        <ele>374</ele>
        <time>2019-02-17T11:54:47.000Z</time>
      </trkpt>
      <trkpt lat="43.23126" lon="0.91249">
        <ele>374</ele>
        <time>2019-02-17T11:54:49.000Z</time>
      </trkpt>
      <trkpt lat="43.23126" lon="0.91249">
        <ele>374</ele>
        <time>2019-02-17T11:54:51.000Z</time>
      </trkpt>
      <trkpt lat="43.23126" lon="0.91249">
        <ele>374</ele>
        <time>2019-02-17T11:54:53.000Z</time>
      </trkpt>
      <trkpt lat="43.23126" lon="0.9125">
        <ele>374</ele>
        <time>2019-02-17T11:54:55.000Z</time>
      </trkpt>
      <trkpt lat="43.23126" lon="0.9125">
        <ele>374</ele>
        <time>2019-02-17T11:54:57.000Z</time>
      </trkpt>
      <trkpt lat="43.23126" lon="0.9125">
        <ele>374</ele>
        <time>2019-02-17T11:54:59.000Z</time>
      </trkpt>
      <trkpt lat="43.23126" lon="0.9125">
        <ele>374</ele>
        <time>2019-02-17T11:55:01.000Z</time>
      </trkpt>
      <trkpt lat="43.23126" lon="0.91249">
        <ele>374</ele>
        <time>2019-02-17T11:55:03.000Z</time>
      </trkpt>
      <trkpt lat="43.23125" lon="0.91249">
        <ele>374</ele>
        <time>2019-02-17T11:55:05.000Z</time>
      </trkpt>
      <trkpt lat="43.23125" lon="0.91249">
        <ele>374</ele>
        <time>2019-02-17T11:55:07.000Z</time>
      </trkpt>
      <trkpt lat="43.23125" lon="0.91248">
        <ele>374</ele>
        <time>2019-02-17T11:55:09.000Z</time>
      </trkpt>
      <trkpt lat="43.23125" lon="0.91248">
        <ele>374</ele>
        <time>2019-02-17T11:55:11.000Z</time>
      </trkpt>
      <trkpt lat="43.23125" lon="0.91248">
        <ele>374</ele>
        <time>2019-02-17T11:55:13.000Z</time>
      </trkpt>
      <trkpt lat="43.23126" lon="0.91248">
        <ele>374</ele>
        <time>2019-02-17T11:55:15.000Z</time>
      </trkpt>
      <trkpt lat="43.23126" lon="0.91248">
        <ele>374</ele>
        <time>2019-02-17T11:55:17.000Z</time>
      </trkpt>
      <trkpt lat="43.23126" lon="0.91248">
        <ele>374</ele>
        <time>2019-02-17T11:55:19.000Z</time>
      </trkpt>
      <trkpt lat="43.23127" lon="0.91248">
        <ele>374</ele>
        <time>2019-02-17T11:55:21.000Z</time>
      </trkpt>
      <trkpt lat="43.23127" lon="0.91248">
        <ele>374</ele>
        <time>2019-02-17T11:55:23.000Z</time>
      </trkpt>
      <trkpt lat="43.23127" lon="0.91248">
        <ele>374</ele>
        <time>2019-02-17T11:55:25.000Z</time>
      </trkpt>
      <trkpt lat="43.23127" lon="0.91248">
        <ele>374</ele>
        <time>2019-02-17T11:55:27.000Z</time>
      </trkpt>
      <trkpt lat="43.23127" lon="0.91249">
        <ele>374</ele>
        <time>2019-02-17T11:55:29.000Z</time>
      </trkpt>
      <trkpt lat="43.23127" lon="0.91249">
        <ele>374</ele>
        <time>2019-02-17T11:55:31.000Z</time>
      </trkpt>
      <trkpt lat="43.23126" lon="0.9125">
        <ele>374</ele>
        <time>2019-02-17T11:55:33.000Z</time>
      </trkpt>
      <trkpt lat="43.23126" lon="0.9125">
        <ele>374</ele>
        <time>2019-02-17T11:55:35.000Z</time>
      </trkpt>
      <trkpt lat="43.23126" lon="0.9125">
        <ele>374</ele>
        <time>2019-02-17T11:55:37.000Z</time>
      </trkpt>
      <trkpt lat="43.23125" lon="0.9125">
        <ele>374</ele>
        <time>2019-02-17T11:55:39.000Z</time>
      </trkpt>
      <trkpt lat="43.23125" lon="0.91249">
        <ele>374</ele>
        <time>2019-02-17T11:55:41.000Z</time>
      </trkpt>
      <trkpt lat="43.23125" lon="0.91249">
        <ele>374</ele>
        <time>2019-02-17T11:55:43.000Z</time>
      </trkpt>
      <trkpt lat="43.23124" lon="0.91249">
        <ele>374</ele>
        <time>2019-02-17T11:55:45.000Z</time>
      </trkpt>
      <trkpt lat="43.23124" lon="0.91249">
        <ele>374</ele>
        <time>2019-02-17T11:55:47.000Z</time>
      </trkpt>
      <trkpt lat="43.23124" lon="0.91249">
        <ele>374</ele>
        <time>2019-02-17T11:55:49.000Z</time>
      </trkpt>
      <trkpt lat="43.23124" lon="0.91249">
        <ele>374</ele>
        <time>2019-02-17T11:55:51.000Z</time>
      </trkpt>
      <trkpt lat="43.23124" lon="0.91249">
        <ele>374</ele>
        <time>2019-02-17T11:55:53.000Z</time>
      </trkpt>
      <trkpt lat="43.23124" lon="0.91249">
        <ele>374</ele>
        <time>2019-02-17T11:55:55.000Z</time>
      </trkpt>
      <trkpt lat="43.23124" lon="0.91249">
        <ele>374</ele>
        <time>2019-02-17T11:55:57.000Z</time>
      </trkpt>
      <trkpt lat="43.23124" lon="0.9125">
        <ele>374</ele>
        <time>2019-02-17T11:55:59.000Z</time>
      </trkpt>
      <trkpt lat="43.23124" lon="0.9125">
        <ele>374</ele>
        <time>2019-02-17T11:56:01.000Z</time>
      </trkpt>
      <trkpt lat="43.23124" lon="0.9125">
        <ele>374</ele>
        <time>2019-02-17T11:56:03.000Z</time>
      </trkpt>
      <trkpt lat="43.23124" lon="0.91249">
        <ele>374</ele>
        <time>2019-02-17T11:56:05.000Z</time>
      </trkpt>
      <trkpt lat="43.23125" lon="0.91248">
        <ele>374</ele>
        <time>2019-02-17T11:56:07.000Z</time>
      </trkpt>
      <trkpt lat="43.23124" lon="0.91248">
        <ele>374</ele>
        <time>2019-02-17T11:56:09.000Z</time>
      </trkpt>
      <trkpt lat="43.23125" lon="0.91247">
        <ele>374</ele>
        <time>2019-02-17T11:56:11.000Z</time>
      </trkpt>
      <trkpt lat="43.23126" lon="0.91247">
        <ele>374</ele>
        <time>2019-02-17T11:56:13.000Z</time>
      </trkpt>
      <trkpt lat="43.23126" lon="0.91247">
        <ele>374</ele>
        <time>2019-02-17T11:56:15.000Z</time>
      </trkpt>
      <trkpt lat="43.23126" lon="0.91247">
        <ele>374</ele>
        <time>2019-02-17T11:56:17.000Z</time>
      </trkpt>
      <trkpt lat="43.23126" lon="0.91247">
        <ele>374</ele>
        <time>2019-02-17T11:56:19.000Z</time>
      </trkpt>
      <trkpt lat="43.23126" lon="0.91247">
        <ele>374</ele>
        <time>2019-02-17T11:56:21.000Z</time>
      </trkpt>
      <trkpt lat="43.23126" lon="0.91247">
        <ele>374</ele>
        <time>2019-02-17T11:56:23.000Z</time>
      </trkpt>
      <trkpt lat="43.23126" lon="0.91248">
        <ele>374</ele>
        <time>2019-02-17T11:56:25.000Z</time>
      </trkpt>
      <trkpt lat="43.23126" lon="0.91248">
        <ele>374</ele>
        <time>2019-02-17T11:56:27.000Z</time>
      </trkpt>
      <trkpt lat="43.23126" lon="0.91248">
        <ele>374</ele>
        <time>2019-02-17T11:56:29.000Z</time>
      </trkpt>
      <trkpt lat="43.23126" lon="0.91247">
        <ele>374</ele>
        <time>2019-02-17T11:56:31.000Z</time>
      </trkpt>
      <trkpt lat="43.23127" lon="0.91247">
        <ele>374</ele>
        <time>2019-02-17T11:56:33.000Z</time>
      </trkpt>
      <trkpt lat="43.23126" lon="0.91248">
        <ele>374</ele>
        <time>2019-02-17T11:56:35.000Z</time>
      </trkpt>
      <trkpt lat="43.23126" lon="0.91247">
        <ele>374</ele>
        <time>2019-02-17T11:56:37.000Z</time>
      </trkpt>
      <trkpt lat="43.23126" lon="0.91247">
        <ele>374</ele>
        <time>2019-02-17T11:56:39.000Z</time>
      </trkpt>
      <trkpt lat="43.23126" lon="0.91247">
        <ele>374</ele>
        <time>2019-02-17T11:56:41.000Z</time>
      </trkpt>
      <trkpt lat="43.23126" lon="0.91247">
        <ele>374</ele>
        <time>2019-02-17T11:56:43.000Z</time>
      </trkpt>
      <trkpt lat="43.23126" lon="0.91247">
        <ele>374</ele>
        <time>2019-02-17T11:56:45.000Z</time>
      </trkpt>
      <trkpt lat="43.23126" lon="0.91247">
        <ele>374</ele>
        <time>2019-02-17T11:56:47.000Z</time>
      </trkpt>
      <trkpt lat="43.23126" lon="0.91247">
        <ele>374</ele>
        <time>2019-02-17T11:56:49.000Z</time>
      </trkpt>
      <trkpt lat="43.23126" lon="0.91247">
        <ele>374</ele>
        <time>2019-02-17T11:56:51.000Z</time>
      </trkpt>
      <trkpt lat="43.23126" lon="0.91247">
        <ele>374</ele>
        <time>2019-02-17T11:56:53.000Z</time>
      </trkpt>
      <trkpt lat="43.23126" lon="0.91248">
        <ele>374</ele>
        <time>2019-02-17T11:56:55.000Z</time>
      </trkpt>
      <trkpt lat="43.23127" lon="0.91247">
        <ele>374</ele>
        <time>2019-02-17T11:56:57.000Z</time>
      </trkpt>
      <trkpt lat="43.23127" lon="0.91248">
        <ele>374</ele>
        <time>2019-02-17T11:56:59.000Z</time>
      </trkpt>
      <trkpt lat="43.23126" lon="0.91248">
        <ele>374</ele>
        <time>2019-02-17T11:57:01.000Z</time>
      </trkpt>
      <trkpt lat="43.23126" lon="0.91248">
        <ele>374</ele>
        <time>2019-02-17T11:57:03.000Z</time>
      </trkpt>
      <trkpt lat="43.23126" lon="0.91248">
        <ele>374</ele>
        <time>2019-02-17T11:57:05.000Z</time>
      </trkpt>
      <trkpt lat="43.23126" lon="0.91248">
        <ele>374</ele>
        <time>2019-02-17T11:57:07.000Z</time>
      </trkpt>
      <trkpt lat="43.23126" lon="0.91248">
        <ele>374</ele>
        <time>2019-02-17T11:57:09.000Z</time>
      </trkpt>
      <trkpt lat="43.23126" lon="0.91248">
        <ele>374</ele>
        <time>2019-02-17T11:57:11.000Z</time>
      </trkpt>
      <trkpt lat="43.23126" lon="0.91248">
        <ele>374</ele>
        <time>2019-02-17T11:57:13.000Z</time>
      </trkpt>
      <trkpt lat="43.23126" lon="0.91248">
        <ele>374</ele>
        <time>2019-02-17T11:57:15.000Z</time>
      </trkpt>
      <trkpt lat="43.23126" lon="0.91248">
        <ele>374</ele>
        <time>2019-02-17T11:57:17.000Z</time>
      </trkpt>
      <trkpt lat="43.23126" lon="0.91248">
        <ele>374</ele>
        <time>2019-02-17T11:57:19.000Z</time>
      </trkpt>
      <trkpt lat="43.23126" lon="0.91248">
        <ele>374</ele>
        <time>2019-02-17T11:57:21.000Z</time>
      </trkpt>
      <trkpt lat="43.23126" lon="0.91247">
        <ele>374</ele>
        <time>2019-02-17T11:57:23.000Z</time>
      </trkpt>
      <trkpt lat="43.23126" lon="0.91247">
        <ele>374</ele>
        <time>2019-02-17T11:57:25.000Z</time>
      </trkpt>
      <trkpt lat="43.23126" lon="0.91247">
        <ele>374</ele>
        <time>2019-02-17T11:57:27.000Z</time>
      </trkpt>
      <trkpt lat="43.23126" lon="0.91246">
        <ele>374</ele>
        <time>2019-02-17T11:57:29.000Z</time>
      </trkpt>
      <trkpt lat="43.23126" lon="0.91247">
        <ele>374</ele>
        <time>2019-02-17T11:57:31.000Z</time>
      </trkpt>
      <trkpt lat="43.23126" lon="0.91247">
        <ele>374</ele>
        <time>2019-02-17T11:57:33.000Z</time>
      </trkpt>
      <trkpt lat="43.23126" lon="0.91247">
        <ele>374</ele>
        <time>2019-02-17T11:57:35.000Z</time>
      </trkpt>
      <trkpt lat="43.23126" lon="0.91247">
        <ele>374</ele>
        <time>2019-02-17T11:57:37.000Z</time>
      </trkpt>
      <trkpt lat="43.23126" lon="0.91247">
        <ele>374</ele>
        <time>2019-02-17T11:57:39.000Z</time>
      </trkpt>
      <trkpt lat="43.23126" lon="0.91247">
        <ele>374</ele>
        <time>2019-02-17T11:57:41.000Z</time>
      </trkpt>
      <trkpt lat="43.23126" lon="0.91247">
        <ele>374</ele>
        <time>2019-02-17T11:57:43.000Z</time>
      </trkpt>
      <trkpt lat="43.23126" lon="0.91247">
        <ele>374</ele>
        <time>2019-02-17T11:57:45.000Z</time>
      </trkpt>
      <trkpt lat="43.23126" lon="0.91247">
        <ele>374</ele>
        <time>2019-02-17T11:57:47.000Z</time>
      </trkpt>
      <trkpt lat="43.23126" lon="0.91248">
        <ele>374</ele>
        <time>2019-02-17T11:57:49.000Z</time>
      </trkpt>
      <trkpt lat="43.23126" lon="0.91248">
        <ele>374</ele>
        <time>2019-02-17T11:57:51.000Z</time>
      </trkpt>
      <trkpt lat="43.23126" lon="0.91248">
        <ele>374</ele>
        <time>2019-02-17T11:57:53.000Z</time>
      </trkpt>
      <trkpt lat="43.23126" lon="0.91248">
        <ele>374</ele>
        <time>2019-02-17T11:57:55.000Z</time>
      </trkpt>
      <trkpt lat="43.23126" lon="0.91248">
        <ele>374</ele>
        <time>2019-02-17T11:57:57.000Z</time>
      </trkpt>
      <trkpt lat="43.23126" lon="0.91248">
        <ele>374</ele>
        <time>2019-02-17T11:57:59.000Z</time>
      </trkpt>
      <trkpt lat="43.23126" lon="0.91248">
        <ele>374</ele>
        <time>2019-02-17T11:58:01.000Z</time>
      </trkpt>
      <trkpt lat="43.23126" lon="0.91248">
        <ele>374</ele>
        <time>2019-02-17T11:58:03.000Z</time>
      </trkpt>
      <trkpt lat="43.23126" lon="0.91248">
        <ele>374</ele>
        <time>2019-02-17T11:58:05.000Z</time>
      </trkpt>
      <trkpt lat="43.23127" lon="0.91248">
        <ele>374</ele>
        <time>2019-02-17T11:58:07.000Z</time>
      </trkpt>
      <trkpt lat="43.23127" lon="0.91248">
        <ele>374</ele>
        <time>2019-02-17T11:58:09.000Z</time>
      </trkpt>
      <trkpt lat="43.23127" lon="0.91248">
        <ele>374</ele>
        <time>2019-02-17T11:58:11.000Z</time>
      </trkpt>
      <trkpt lat="43.23127" lon="0.91248">
        <ele>374</ele>
        <time>2019-02-17T11:58:13.000Z</time>
      </trkpt>
      <trkpt lat="43.23127" lon="0.91247">
        <ele>374</ele>
        <time>2019-02-17T11:58:15.000Z</time>
      </trkpt>
      <trkpt lat="43.23127" lon="0.91247">
        <ele>374</ele>
        <time>2019-02-17T11:58:17.000Z</time>
      </trkpt>
      <trkpt lat="43.23127" lon="0.91247">
        <ele>374</ele>
        <time>2019-02-17T11:58:19.000Z</time>
      </trkpt>
      <trkpt lat="43.23127" lon="0.91247">
        <ele>374</ele>
        <time>2019-02-17T11:58:21.000Z</time>
      </trkpt>
      <trkpt lat="43.23127" lon="0.91247">
        <ele>374</ele>
        <time>2019-02-17T11:58:23.000Z</time>
      </trkpt>
      <trkpt lat="43.23127" lon="0.91247">
        <ele>374</ele>
        <time>2019-02-17T11:58:25.000Z</time>
      </trkpt>
      <trkpt lat="43.23127" lon="0.91247">
        <ele>374</ele>
        <time>2019-02-17T11:58:27.000Z</time>
      </trkpt>
      <trkpt lat="43.23126" lon="0.91247">
        <ele>374</ele>
        <time>2019-02-17T11:58:29.000Z</time>
      </trkpt>
      <trkpt lat="43.23126" lon="0.91247">
        <ele>374</ele>
        <time>2019-02-17T11:58:31.000Z</time>
      </trkpt>
      <trkpt lat="43.23126" lon="0.91247">
        <ele>374</ele>
        <time>2019-02-17T11:58:33.000Z</time>
      </trkpt>
      <trkpt lat="43.23126" lon="0.91247">
        <ele>374</ele>
        <time>2019-02-17T11:58:35.000Z</time>
      </trkpt>
      <trkpt lat="43.23126" lon="0.91247">
        <ele>374</ele>
        <time>2019-02-17T11:58:37.000Z</time>
      </trkpt>
      <trkpt lat="43.23126" lon="0.91247">
        <ele>374</ele>
        <time>2019-02-17T11:58:39.000Z</time>
      </trkpt>
      <trkpt lat="43.23126" lon="0.91247">
        <ele>374</ele>
        <time>2019-02-17T11:58:41.000Z</time>
      </trkpt>
      <trkpt lat="43.23126" lon="0.91247">
        <ele>374</ele>
        <time>2019-02-17T11:58:43.000Z</time>
      </trkpt>
      <trkpt lat="43.23126" lon="0.91247">
        <ele>374</ele>
        <time>2019-02-17T11:58:45.000Z</time>
      </trkpt>
      <trkpt lat="43.23126" lon="0.91246">
        <ele>374</ele>
        <time>2019-02-17T11:58:47.000Z</time>
      </trkpt>
      <trkpt lat="43.23126" lon="0.91246">
        <ele>374</ele>
        <time>2019-02-17T11:58:49.000Z</time>
      </trkpt>
      <trkpt lat="43.23126" lon="0.91246">
        <ele>374</ele>
        <time>2019-02-17T11:58:51.000Z</time>
      </trkpt>
      <trkpt lat="43.23126" lon="0.91246">
        <ele>374</ele>
        <time>2019-02-17T11:58:53.000Z</time>
      </trkpt>
      <trkpt lat="43.23126" lon="0.91246">
        <ele>374</ele>
        <time>2019-02-17T11:58:55.000Z</time>
      </trkpt>
      <trkpt lat="43.23126" lon="0.91247">
        <ele>374</ele>
        <time>2019-02-17T11:58:57.000Z</time>
      </trkpt>
      <trkpt lat="43.23126" lon="0.91247">
        <ele>374</ele>
        <time>2019-02-17T11:58:59.000Z</time>
      </trkpt>
      <trkpt lat="43.23126" lon="0.91247">
        <ele>374</ele>
        <time>2019-02-17T11:59:01.000Z</time>
      </trkpt>
      <trkpt lat="43.23126" lon="0.91247">
        <ele>374</ele>
        <time>2019-02-17T11:59:03.000Z</time>
      </trkpt>
      <trkpt lat="43.23126" lon="0.91247">
        <ele>374</ele>
        <time>2019-02-17T11:59:05.000Z</time>
      </trkpt>
      <trkpt lat="43.23126" lon="0.91247">
        <ele>374</ele>
        <time>2019-02-17T11:59:07.000Z</time>
      </trkpt>
      <trkpt lat="43.23126" lon="0.91247">
        <ele>374</ele>
        <time>2019-02-17T11:59:09.000Z</time>
      </trkpt>
      <trkpt lat="43.23126" lon="0.91247">
        <ele>374</ele>
        <time>2019-02-17T11:59:11.000Z</time>
      </trkpt>
      <trkpt lat="43.23126" lon="0.91247">
        <ele>374</ele>
        <time>2019-02-17T11:59:13.000Z</time>
      </trkpt>
      <trkpt lat="43.23126" lon="0.91247">
        <ele>374</ele>
        <time>2019-02-17T11:59:15.000Z</time>
      </trkpt>
      <trkpt lat="43.23126" lon="0.91247">
        <ele>374</ele>
        <time>2019-02-17T11:59:17.000Z</time>
      </trkpt>
      <trkpt lat="43.23126" lon="0.91247">
        <ele>374</ele>
        <time>2019-02-17T11:59:19.000Z</time>
      </trkpt>
      <trkpt lat="43.23125" lon="0.91247">
        <ele>374</ele>
        <time>2019-02-17T11:59:21.000Z</time>
      </trkpt>
      <trkpt lat="43.23125" lon="0.91247">
        <ele>374</ele>
        <time>2019-02-17T11:59:23.000Z</time>
      </trkpt>
      <trkpt lat="43.23125" lon="0.91247">
        <ele>374</ele>
        <time>2019-02-17T11:59:25.000Z</time>
      </trkpt>
      <trkpt lat="43.23125" lon="0.91247">
        <ele>374</ele>
        <time>2019-02-17T11:59:27.000Z</time>
      </trkpt>
      <trkpt lat="43.23125" lon="0.91248">
        <ele>374</ele>
        <time>2019-02-17T11:59:29.000Z</time>
      </trkpt>
      <trkpt lat="43.23125" lon="0.91248">
        <ele>374</ele>
        <time>2019-02-17T11:59:31.000Z</time>
      </trkpt>
      <trkpt lat="43.23125" lon="0.91248">
        <ele>374</ele>
        <time>2019-02-17T11:59:33.000Z</time>
      </trkpt>
      <trkpt lat="43.23125" lon="0.91248">
        <ele>374</ele>
        <time>2019-02-17T11:59:35.000Z</time>
      </trkpt>
      <trkpt lat="43.23125" lon="0.91248">
        <ele>374</ele>
        <time>2019-02-17T11:59:37.000Z</time>
      </trkpt>
      <trkpt lat="43.23126" lon="0.91247">
        <ele>374</ele>
        <time>2019-02-17T11:59:39.000Z</time>
      </trkpt>
      <trkpt lat="43.23126" lon="0.91247">
        <ele>374</ele>
        <time>2019-02-17T11:59:41.000Z</time>
      </trkpt>
      <trkpt lat="43.23126" lon="0.91247">
        <ele>374</ele>
        <time>2019-02-17T11:59:43.000Z</time>
      </trkpt>
      <trkpt lat="43.23126" lon="0.91246">
        <ele>374</ele>
        <time>2019-02-17T11:59:45.000Z</time>
      </trkpt>
      <trkpt lat="43.23128" lon="0.91243">
        <ele>374</ele>
        <time>2019-02-17T11:59:47.000Z</time>
      </trkpt>
      <trkpt lat="43.23128" lon="0.91243">
        <ele>374</ele>
        <time>2019-02-17T11:59:49.000Z</time>
      </trkpt>
      <trkpt lat="43.23128" lon="0.91244">
        <ele>374</ele>
        <time>2019-02-17T11:59:51.000Z</time>
      </trkpt>
      <trkpt lat="43.23128" lon="0.91244">
        <ele>374</ele>
        <time>2019-02-17T11:59:53.000Z</time>
      </trkpt>
      <trkpt lat="43.23128" lon="0.91244">
        <ele>374</ele>
        <time>2019-02-17T11:59:55.000Z</time>
      </trkpt>
      <trkpt lat="43.23128" lon="0.91244">
        <ele>374</ele>
        <time>2019-02-17T11:59:57.000Z</time>
      </trkpt>
      <trkpt lat="43.23128" lon="0.91244">
        <ele>374</ele>
        <time>2019-02-17T11:59:59.000Z</time>
      </trkpt>
      <trkpt lat="43.23128" lon="0.91244">
        <ele>374</ele>
        <time>2019-02-17T12:00:01.000Z</time>
      </trkpt>
      <trkpt lat="43.23127" lon="0.91245">
        <ele>374</ele>
        <time>2019-02-17T12:00:03.000Z</time>
      </trkpt>
      <trkpt lat="43.23127" lon="0.91245">
        <ele>374</ele>
        <time>2019-02-17T12:00:05.000Z</time>
      </trkpt>
      <trkpt lat="43.23127" lon="0.91245">
        <ele>374</ele>
        <time>2019-02-17T12:00:07.000Z</time>
      </trkpt>
      <trkpt lat="43.23127" lon="0.91245">
        <ele>374</ele>
        <time>2019-02-17T12:00:09.000Z</time>
      </trkpt>
      <trkpt lat="43.23127" lon="0.91245">
        <ele>374</ele>
        <time>2019-02-17T12:00:11.000Z</time>
      </trkpt>
      <trkpt lat="43.23127" lon="0.91245">
        <ele>374</ele>
        <time>2019-02-17T12:00:13.000Z</time>
      </trkpt>
      <trkpt lat="43.23127" lon="0.91245">
        <ele>374</ele>
        <time>2019-02-17T12:00:15.000Z</time>
      </trkpt>
      <trkpt lat="43.23127" lon="0.91245">
        <ele>374</ele>
        <time>2019-02-17T12:00:17.000Z</time>
      </trkpt>
      <trkpt lat="43.23127" lon="0.91245">
        <ele>374</ele>
        <time>2019-02-17T12:00:19.000Z</time>
      </trkpt>
      <trkpt lat="43.23127" lon="0.91245">
        <ele>374</ele>
        <time>2019-02-17T12:00:21.000Z</time>
      </trkpt>
      <trkpt lat="43.23127" lon="0.91245">
        <ele>374</ele>
        <time>2019-02-17T12:00:23.000Z</time>
      </trkpt>
      <trkpt lat="43.23127" lon="0.91245">
        <ele>374</ele>
        <time>2019-02-17T12:00:25.000Z</time>
      </trkpt>
      <trkpt lat="43.23127" lon="0.91245">
        <ele>374</ele>
        <time>2019-02-17T12:00:27.000Z</time>
      </trkpt>
      <trkpt lat="43.23127" lon="0.91245">
        <ele>374</ele>
        <time>2019-02-17T12:00:29.000Z</time>
      </trkpt>
      <trkpt lat="43.23127" lon="0.91245">
        <ele>374</ele>
        <time>2019-02-17T12:00:31.000Z</time>
      </trkpt>
      <trkpt lat="43.23127" lon="0.91245">
        <ele>374</ele>
        <time>2019-02-17T12:00:33.000Z</time>
      </trkpt>
      <trkpt lat="43.23127" lon="0.91245">
        <ele>374</ele>
        <time>2019-02-17T12:00:35.000Z</time>
      </trkpt>
      <trkpt lat="43.23127" lon="0.91245">
        <ele>374</ele>
        <time>2019-02-17T12:00:37.000Z</time>
      </trkpt>
      <trkpt lat="43.23127" lon="0.91245">
        <ele>374</ele>
        <time>2019-02-17T12:00:39.000Z</time>
      </trkpt>
      <trkpt lat="43.23126" lon="0.91245">
        <ele>374</ele>
        <time>2019-02-17T12:00:41.000Z</time>
      </trkpt>
      <trkpt lat="43.23126" lon="0.91245">
        <ele>374</ele>
        <time>2019-02-17T12:00:43.000Z</time>
      </trkpt>
      <trkpt lat="43.23126" lon="0.91245">
        <ele>374</ele>
        <time>2019-02-17T12:00:45.000Z</time>
      </trkpt>
      <trkpt lat="43.23126" lon="0.91245">
        <ele>374</ele>
        <time>2019-02-17T12:00:47.000Z</time>
      </trkpt>
      <trkpt lat="43.23126" lon="0.91245">
        <ele>374</ele>
        <time>2019-02-17T12:00:49.000Z</time>
      </trkpt>
      <trkpt lat="43.23126" lon="0.91245">
        <ele>374</ele>
        <time>2019-02-17T12:00:51.000Z</time>
      </trkpt>
      <trkpt lat="43.23126" lon="0.91245">
        <ele>374</ele>
        <time>2019-02-17T12:00:53.000Z</time>
      </trkpt>
      <trkpt lat="43.23126" lon="0.91245">
        <ele>374</ele>
        <time>2019-02-17T12:00:55.000Z</time>
      </trkpt>
      <trkpt lat="43.23126" lon="0.91245">
        <ele>374</ele>
        <time>2019-02-17T12:00:57.000Z</time>
      </trkpt>
      <trkpt lat="43.23126" lon="0.91245">
        <ele>374</ele>
        <time>2019-02-17T12:00:59.000Z</time>
      </trkpt>
      <trkpt lat="43.23126" lon="0.91245">
        <ele>374</ele>
        <time>2019-02-17T12:01:01.000Z</time>
      </trkpt>
      <trkpt lat="43.23126" lon="0.91245">
        <ele>374</ele>
        <time>2019-02-17T12:01:03.000Z</time>
      </trkpt>
      <trkpt lat="43.23126" lon="0.91245">
        <ele>374</ele>
        <time>2019-02-17T12:01:05.000Z</time>
      </trkpt>
      <trkpt lat="43.23126" lon="0.91245">
        <ele>374</ele>
        <time>2019-02-17T12:01:07.000Z</time>
      </trkpt>
      <trkpt lat="43.23126" lon="0.91245">
        <ele>374</ele>
        <time>2019-02-17T12:01:09.000Z</time>
      </trkpt>
      <trkpt lat="43.23126" lon="0.91245">
        <ele>374</ele>
        <time>2019-02-17T12:01:11.000Z</time>
      </trkpt>
      <trkpt lat="43.23126" lon="0.91245">
        <ele>374</ele>
        <time>2019-02-17T12:01:13.000Z</time>
      </trkpt>
      <trkpt lat="43.23126" lon="0.91245">
        <ele>374</ele>
        <time>2019-02-17T12:01:15.000Z</time>
      </trkpt>
      <trkpt lat="43.23126" lon="0.91245">
        <ele>374</ele>
        <time>2019-02-17T12:01:17.000Z</time>
      </trkpt>
      <trkpt lat="43.23126" lon="0.91245">
        <ele>374</ele>
        <time>2019-02-17T12:01:19.000Z</time>
      </trkpt>
      <trkpt lat="43.23126" lon="0.91245">
        <ele>374</ele>
        <time>2019-02-17T12:01:21.000Z</time>
      </trkpt>
      <trkpt lat="43.23126" lon="0.91245">
        <ele>374</ele>
        <time>2019-02-17T12:01:23.000Z</time>
      </trkpt>
      <trkpt lat="43.23126" lon="0.91245">
        <ele>374</ele>
        <time>2019-02-17T12:01:25.000Z</time>
      </trkpt>
      <trkpt lat="43.23126" lon="0.91245">
        <ele>374</ele>
        <time>2019-02-17T12:01:27.000Z</time>
      </trkpt>
      <trkpt lat="43.23126" lon="0.91245">
        <ele>374</ele>
        <time>2019-02-17T12:01:29.000Z</time>
      </trkpt>
      <trkpt lat="43.23126" lon="0.91245">
        <ele>374</ele>
        <time>2019-02-17T12:01:31.000Z</time>
      </trkpt>
      <trkpt lat="43.23126" lon="0.91245">
        <ele>374</ele>
        <time>2019-02-17T12:01:33.000Z</time>
      </trkpt>
      <trkpt lat="43.23126" lon="0.91244">
        <ele>374</ele>
        <time>2019-02-17T12:01:35.000Z</time>
      </trkpt>
      <trkpt lat="43.23126" lon="0.91245">
        <ele>374</ele>
        <time>2019-02-17T12:01:37.000Z</time>
      </trkpt>
      <trkpt lat="43.23126" lon="0.91245">
        <ele>374</ele>
        <time>2019-02-17T12:01:39.000Z</time>
      </trkpt>
      <trkpt lat="43.23126" lon="0.91245">
        <ele>374</ele>
        <time>2019-02-17T12:01:41.000Z</time>
      </trkpt>
      <trkpt lat="43.23126" lon="0.91245">
        <ele>374</ele>
        <time>2019-02-17T12:01:43.000Z</time>
      </trkpt>
      <trkpt lat="43.23126" lon="0.91245">
        <ele>374</ele>
        <time>2019-02-17T12:01:45.000Z</time>
      </trkpt>
      <trkpt lat="43.23126" lon="0.91245">
        <ele>374</ele>
        <time>2019-02-17T12:01:47.000Z</time>
      </trkpt>
      <trkpt lat="43.23126" lon="0.91245">
        <ele>374</ele>
        <time>2019-02-17T12:01:49.000Z</time>
      </trkpt>
      <trkpt lat="43.23126" lon="0.91245">
        <ele>374</ele>
        <time>2019-02-17T12:01:51.000Z</time>
      </trkpt>
      <trkpt lat="43.23126" lon="0.91245">
        <ele>374</ele>
        <time>2019-02-17T12:01:53.000Z</time>
      </trkpt>
      <trkpt lat="43.23126" lon="0.91245">
        <ele>374</ele>
        <time>2019-02-17T12:01:55.000Z</time>
      </trkpt>
      <trkpt lat="43.23126" lon="0.91246">
        <ele>374</ele>
        <time>2019-02-17T12:01:57.000Z</time>
      </trkpt>
      <trkpt lat="43.23126" lon="0.91246">
        <ele>374</ele>
        <time>2019-02-17T12:01:59.000Z</time>
      </trkpt>
      <trkpt lat="43.23125" lon="0.91246">
        <ele>374</ele>
        <time>2019-02-17T12:02:01.000Z</time>
      </trkpt>
      <trkpt lat="43.23126" lon="0.91246">
        <ele>374</ele>
        <time>2019-02-17T12:02:03.000Z</time>
      </trkpt>
      <trkpt lat="43.23126" lon="0.91246">
        <ele>374</ele>
        <time>2019-02-17T12:02:05.000Z</time>
      </trkpt>
      <trkpt lat="43.23126" lon="0.91246">
        <ele>374</ele>
        <time>2019-02-17T12:02:07.000Z</time>
      </trkpt>
      <trkpt lat="43.23126" lon="0.91246">
        <ele>374</ele>
        <time>2019-02-17T12:02:09.000Z</time>
      </trkpt>
      <trkpt lat="43.23126" lon="0.91246">
        <ele>374</ele>
        <time>2019-02-17T12:02:11.000Z</time>
      </trkpt>
      <trkpt lat="43.23126" lon="0.91246">
        <ele>374</ele>
        <time>2019-02-17T12:02:13.000Z</time>
      </trkpt>
      <trkpt lat="43.23126" lon="0.91246">
        <ele>374</ele>
        <time>2019-02-17T12:02:15.000Z</time>
      </trkpt>
      <trkpt lat="43.23126" lon="0.91246">
        <ele>374</ele>
        <time>2019-02-17T12:02:17.000Z</time>
      </trkpt>
      <trkpt lat="43.23126" lon="0.91246">
        <ele>374</ele>
        <time>2019-02-17T12:02:19.000Z</time>
      </trkpt>
      <trkpt lat="43.23126" lon="0.91246">
        <ele>374</ele>
        <time>2019-02-17T12:02:21.000Z</time>
      </trkpt>
      <trkpt lat="43.23126" lon="0.91246">
        <ele>374</ele>
        <time>2019-02-17T12:02:23.000Z</time>
      </trkpt>
      <trkpt lat="43.23126" lon="0.91246">
        <ele>374</ele>
        <time>2019-02-17T12:02:25.000Z</time>
      </trkpt>
      <trkpt lat="43.23126" lon="0.91247">
        <ele>374</ele>
        <time>2019-02-17T12:02:27.000Z</time>
      </trkpt>
      <trkpt lat="43.23126" lon="0.91247">
        <ele>374</ele>
        <time>2019-02-17T12:02:29.000Z</time>
      </trkpt>
      <trkpt lat="43.23127" lon="0.91247">
        <ele>374</ele>
        <time>2019-02-17T12:02:31.000Z</time>
      </trkpt>
      <trkpt lat="43.23127" lon="0.91247">
        <ele>374</ele>
        <time>2019-02-17T12:02:33.000Z</time>
      </trkpt>
      <trkpt lat="43.23127" lon="0.91247">
        <ele>374</ele>
        <time>2019-02-17T12:02:35.000Z</time>
      </trkpt>
      <trkpt lat="43.23127" lon="0.91247">
        <ele>374</ele>
        <time>2019-02-17T12:02:37.000Z</time>
      </trkpt>
      <trkpt lat="43.23127" lon="0.91247">
        <ele>374</ele>
        <time>2019-02-17T12:02:39.000Z</time>
      </trkpt>
      <trkpt lat="43.23127" lon="0.91247">
        <ele>374</ele>
        <time>2019-02-17T12:02:41.000Z</time>
      </trkpt>
      <trkpt lat="43.23127" lon="0.91247">
        <ele>374</ele>
        <time>2019-02-17T12:02:43.000Z</time>
      </trkpt>
      <trkpt lat="43.23127" lon="0.91247">
        <ele>374</ele>
        <time>2019-02-17T12:02:45.000Z</time>
      </trkpt>
      <trkpt lat="43.23128" lon="0.91247">
        <ele>374</ele>
        <time>2019-02-17T12:02:47.000Z</time>
      </trkpt>
      <trkpt lat="43.23128" lon="0.91247">
        <ele>374</ele>
        <time>2019-02-17T12:02:49.000Z</time>
      </trkpt>
      <trkpt lat="43.23128" lon="0.91247">
        <ele>374</ele>
        <time>2019-02-17T12:02:51.000Z</time>
      </trkpt>
      <trkpt lat="43.23128" lon="0.91247">
        <ele>374</ele>
        <time>2019-02-17T12:02:53.000Z</time>
      </trkpt>
      <trkpt lat="43.23129" lon="0.91247">
        <ele>374</ele>
        <time>2019-02-17T12:02:55.000Z</time>
      </trkpt>
      <trkpt lat="43.23129" lon="0.91246">
        <ele>374</ele>
        <time>2019-02-17T12:02:57.000Z</time>
      </trkpt>
      <trkpt lat="43.23129" lon="0.91246">
        <ele>374</ele>
        <time>2019-02-17T12:02:59.000Z</time>
      </trkpt>
      <trkpt lat="43.23129" lon="0.91246">
        <ele>374</ele>
        <time>2019-02-17T12:03:01.000Z</time>
      </trkpt>
      <trkpt lat="43.23129" lon="0.91246">
        <ele>374</ele>
        <time>2019-02-17T12:03:03.000Z</time>
      </trkpt>
      <trkpt lat="43.23128" lon="0.91246">
        <ele>374</ele>
        <time>2019-02-17T12:03:05.000Z</time>
      </trkpt>
      <trkpt lat="43.23128" lon="0.91246">
        <ele>374</ele>
        <time>2019-02-17T12:03:07.000Z</time>
      </trkpt>
      <trkpt lat="43.23128" lon="0.91246">
        <ele>374</ele>
        <time>2019-02-17T12:03:09.000Z</time>
      </trkpt>
      <trkpt lat="43.23128" lon="0.91245">
        <ele>374</ele>
        <time>2019-02-17T12:03:11.000Z</time>
      </trkpt>
      <trkpt lat="43.23128" lon="0.91245">
        <ele>374</ele>
        <time>2019-02-17T12:03:13.000Z</time>
      </trkpt>
      <trkpt lat="43.23128" lon="0.91245">
        <ele>374</ele>
        <time>2019-02-17T12:03:15.000Z</time>
      </trkpt>
      <trkpt lat="43.23128" lon="0.91245">
        <ele>374</ele>
        <time>2019-02-17T12:03:17.000Z</time>
      </trkpt>
      <trkpt lat="43.23128" lon="0.91245">
        <ele>374</ele>
        <time>2019-02-17T12:03:19.000Z</time>
      </trkpt>
      <trkpt lat="43.23128" lon="0.91245">
        <ele>374</ele>
        <time>2019-02-17T12:03:21.000Z</time>
      </trkpt>
      <trkpt lat="43.23128" lon="0.91245">
        <ele>374</ele>
        <time>2019-02-17T12:03:23.000Z</time>
      </trkpt>
      <trkpt lat="43.23128" lon="0.91245">
        <ele>374</ele>
        <time>2019-02-17T12:03:25.000Z</time>
      </trkpt>
      <trkpt lat="43.23128" lon="0.91245">
        <ele>374</ele>
        <time>2019-02-17T12:03:27.000Z</time>
      </trkpt>
      <trkpt lat="43.23128" lon="0.91245">
        <ele>374</ele>
        <time>2019-02-17T12:03:29.000Z</time>
      </trkpt>
      <trkpt lat="43.23128" lon="0.91246">
        <ele>374</ele>
        <time>2019-02-17T12:03:31.000Z</time>
      </trkpt>
      <trkpt lat="43.23128" lon="0.91246">
        <ele>374</ele>
        <time>2019-02-17T12:03:33.000Z</time>
      </trkpt>
      <trkpt lat="43.23128" lon="0.91246">
        <ele>374</ele>
        <time>2019-02-17T12:03:35.000Z</time>
      </trkpt>
      <trkpt lat="43.23128" lon="0.91246">
        <ele>374</ele>
        <time>2019-02-17T12:03:37.000Z</time>
      </trkpt>
      <trkpt lat="43.23128" lon="0.91246">
        <ele>374</ele>
        <time>2019-02-17T12:03:39.000Z</time>
      </trkpt>
      <trkpt lat="43.23128" lon="0.91246">
        <ele>374</ele>
        <time>2019-02-17T12:03:41.000Z</time>
      </trkpt>
      <trkpt lat="43.23128" lon="0.91246">
        <ele>374</ele>
        <time>2019-02-17T12:03:43.000Z</time>
      </trkpt>
      <trkpt lat="43.23128" lon="0.91246">
        <ele>374</ele>
        <time>2019-02-17T12:03:45.000Z</time>
      </trkpt>
      <trkpt lat="43.23128" lon="0.91246">
        <ele>374</ele>
        <time>2019-02-17T12:03:47.000Z</time>
      </trkpt>
      <trkpt lat="43.23128" lon="0.91246">
        <ele>374</ele>
        <time>2019-02-17T12:03:49.000Z</time>
      </trkpt>
      <trkpt lat="43.23128" lon="0.91246">
        <ele>374</ele>
        <time>2019-02-17T12:03:51.000Z</time>
      </trkpt>
      <trkpt lat="43.23128" lon="0.91246">
        <ele>374</ele>
        <time>2019-02-17T12:03:53.000Z</time>
      </trkpt>
      <trkpt lat="43.23128" lon="0.91246">
        <ele>374</ele>
        <time>2019-02-17T12:03:55.000Z</time>
      </trkpt>
      <trkpt lat="43.23128" lon="0.91246">
        <ele>374</ele>
        <time>2019-02-17T12:03:57.000Z</time>
      </trkpt>
      <trkpt lat="43.23128" lon="0.91246">
        <ele>374</ele>
        <time>2019-02-17T12:03:59.000Z</time>
      </trkpt>
      <trkpt lat="43.23128" lon="0.91246">
        <ele>374</ele>
        <time>2019-02-17T12:04:01.000Z</time>
      </trkpt>
      <trkpt lat="43.23128" lon="0.91246">
        <ele>374</ele>
        <time>2019-02-17T12:04:03.000Z</time>
      </trkpt>
      <trkpt lat="43.23128" lon="0.91246">
        <ele>374</ele>
        <time>2019-02-17T12:04:05.000Z</time>
      </trkpt>
      <trkpt lat="43.23128" lon="0.91246">
        <ele>374</ele>
        <time>2019-02-17T12:04:07.000Z</time>
      </trkpt>
      <trkpt lat="43.23128" lon="0.91246">
        <ele>374</ele>
        <time>2019-02-17T12:04:09.000Z</time>
      </trkpt>
      <trkpt lat="43.23128" lon="0.91247">
        <ele>374</ele>
        <time>2019-02-17T12:04:11.000Z</time>
      </trkpt>
      <trkpt lat="43.23128" lon="0.91247">
        <ele>374</ele>
        <time>2019-02-17T12:04:13.000Z</time>
      </trkpt>
      <trkpt lat="43.23128" lon="0.91247">
        <ele>374</ele>
        <time>2019-02-17T12:04:15.000Z</time>
      </trkpt>
      <trkpt lat="43.23128" lon="0.91247">
        <ele>374</ele>
        <time>2019-02-17T12:04:17.000Z</time>
      </trkpt>
      <trkpt lat="43.23128" lon="0.91247">
        <ele>374</ele>
        <time>2019-02-17T12:04:19.000Z</time>
      </trkpt>
      <trkpt lat="43.23128" lon="0.91247">
        <ele>374</ele>
        <time>2019-02-17T12:04:21.000Z</time>
      </trkpt>
      <trkpt lat="43.23128" lon="0.91247">
        <ele>374</ele>
        <time>2019-02-17T12:04:23.000Z</time>
      </trkpt>
      <trkpt lat="43.23128" lon="0.91247">
        <ele>374</ele>
        <time>2019-02-17T12:04:25.000Z</time>
      </trkpt>
      <trkpt lat="43.23128" lon="0.91247">
        <ele>374</ele>
        <time>2019-02-17T12:04:27.000Z</time>
      </trkpt>
      <trkpt lat="43.23128" lon="0.91247">
        <ele>374</ele>
        <time>2019-02-17T12:04:29.000Z</time>
      </trkpt>
      <trkpt lat="43.23128" lon="0.91247">
        <ele>374</ele>
        <time>2019-02-17T12:04:31.000Z</time>
      </trkpt>
      <trkpt lat="43.23128" lon="0.91247">
        <ele>374</ele>
        <time>2019-02-17T12:04:33.000Z</time>
      </trkpt>
      <trkpt lat="43.23128" lon="0.91247">
        <ele>374</ele>
        <time>2019-02-17T12:04:35.000Z</time>
      </trkpt>
      <trkpt lat="43.23128" lon="0.91247">
        <ele>374</ele>
        <time>2019-02-17T12:04:37.000Z</time>
      </trkpt>
      <trkpt lat="43.23128" lon="0.91247">
        <ele>374</ele>
        <time>2019-02-17T12:04:39.000Z</time>
      </trkpt>
      <trkpt lat="43.23128" lon="0.91247">
        <ele>374</ele>
        <time>2019-02-17T12:04:41.000Z</time>
      </trkpt>
      <trkpt lat="43.23128" lon="0.91247">
        <ele>374</ele>
        <time>2019-02-17T12:04:43.000Z</time>
      </trkpt>
      <trkpt lat="43.23128" lon="0.91247">
        <ele>374</ele>
        <time>2019-02-17T12:04:45.000Z</time>
      </trkpt>
      <trkpt lat="43.23128" lon="0.91247">
        <ele>374</ele>
        <time>2019-02-17T12:04:47.000Z</time>
      </trkpt>
      <trkpt lat="43.23128" lon="0.91247">
        <ele>374</ele>
        <time>2019-02-17T12:04:49.000Z</time>
      </trkpt>
      <trkpt lat="43.23128" lon="0.91247">
        <ele>374</ele>
        <time>2019-02-17T12:04:51.000Z</time>
      </trkpt>
      <trkpt lat="43.23128" lon="0.91247">
        <ele>374</ele>
        <time>2019-02-17T12:04:53.000Z</time>
      </trkpt>
      <trkpt lat="43.23128" lon="0.91247">
        <ele>374</ele>
        <time>2019-02-17T12:04:55.000Z</time>
      </trkpt>
      <trkpt lat="43.23128" lon="0.91247">
        <ele>374</ele>
        <time>2019-02-17T12:04:57.000Z</time>
      </trkpt>
      <trkpt lat="43.23128" lon="0.91247">
        <ele>374</ele>
        <time>2019-02-17T12:04:59.000Z</time>
      </trkpt>
      <trkpt lat="43.23128" lon="0.91247">
        <ele>374</ele>
        <time>2019-02-17T12:05:01.000Z</time>
      </trkpt>
      <trkpt lat="43.23128" lon="0.91247">
        <ele>374</ele>
        <time>2019-02-17T12:05:03.000Z</time>
      </trkpt>
      <trkpt lat="43.23128" lon="0.91246">
        <ele>374</ele>
        <time>2019-02-17T12:05:05.000Z</time>
      </trkpt>
      <trkpt lat="43.23127" lon="0.91246">
        <ele>374</ele>
        <time>2019-02-17T12:05:07.000Z</time>
      </trkpt>
      <trkpt lat="43.23127" lon="0.91246">
        <ele>374</ele>
        <time>2019-02-17T12:05:09.000Z</time>
      </trkpt>
      <trkpt lat="43.23127" lon="0.91246">
        <ele>374</ele>
        <time>2019-02-17T12:05:11.000Z</time>
      </trkpt>
      <trkpt lat="43.23127" lon="0.91246">
        <ele>374</ele>
        <time>2019-02-17T12:05:13.000Z</time>
      </trkpt>
      <trkpt lat="43.23127" lon="0.91246">
        <ele>374</ele>
        <time>2019-02-17T12:05:15.000Z</time>
      </trkpt>
      <trkpt lat="43.23127" lon="0.91245">
        <ele>374</ele>
        <time>2019-02-17T12:05:17.000Z</time>
      </trkpt>
      <trkpt lat="43.23127" lon="0.91245">
        <ele>374</ele>
        <time>2019-02-17T12:05:19.000Z</time>
      </trkpt>
      <trkpt lat="43.23127" lon="0.91245">
        <ele>374</ele>
        <time>2019-02-17T12:05:21.000Z</time>
      </trkpt>
      <trkpt lat="43.23127" lon="0.91245">
        <ele>374</ele>
        <time>2019-02-17T12:05:23.000Z</time>
      </trkpt>
      <trkpt lat="43.23127" lon="0.91245">
        <ele>374</ele>
        <time>2019-02-17T12:05:25.000Z</time>
      </trkpt>
      <trkpt lat="43.23127" lon="0.91245">
        <ele>374</ele>
        <time>2019-02-17T12:05:27.000Z</time>
      </trkpt>
      <trkpt lat="43.23127" lon="0.91245">
        <ele>374</ele>
        <time>2019-02-17T12:05:29.000Z</time>
      </trkpt>
      <trkpt lat="43.23127" lon="0.91245">
        <ele>374</ele>
        <time>2019-02-17T12:05:31.000Z</time>
      </trkpt>
      <trkpt lat="43.23126" lon="0.91245">
        <ele>374</ele>
        <time>2019-02-17T12:05:33.000Z</time>
      </trkpt>
      <trkpt lat="43.23126" lon="0.91245">
        <ele>374</ele>
        <time>2019-02-17T12:05:35.000Z</time>
      </trkpt>
      <trkpt lat="43.23126" lon="0.91245">
        <ele>374</ele>
        <time>2019-02-17T12:05:37.000Z</time>
      </trkpt>
      <trkpt lat="43.23126" lon="0.91245">
        <ele>374</ele>
        <time>2019-02-17T12:05:39.000Z</time>
      </trkpt>
      <trkpt lat="43.23126" lon="0.91245">
        <ele>374</ele>
        <time>2019-02-17T12:05:41.000Z</time>
      </trkpt>
      <trkpt lat="43.23126" lon="0.91245">
        <ele>374</ele>
        <time>2019-02-17T12:05:43.000Z</time>
      </trkpt>
      <trkpt lat="43.23126" lon="0.91245">
        <ele>374</ele>
        <time>2019-02-17T12:05:45.000Z</time>
      </trkpt>
      <trkpt lat="43.23126" lon="0.91245">
        <ele>374</ele>
        <time>2019-02-17T12:05:47.000Z</time>
      </trkpt>
      <trkpt lat="43.23126" lon="0.91245">
        <ele>374</ele>
        <time>2019-02-17T12:05:49.000Z</time>
      </trkpt>
      <trkpt lat="43.23126" lon="0.91245">
        <ele>374</ele>
        <time>2019-02-17T12:05:51.000Z</time>
      </trkpt>
      <trkpt lat="43.23126" lon="0.91246">
        <ele>374</ele>
        <time>2019-02-17T12:05:53.000Z</time>
      </trkpt>
      <trkpt lat="43.23126" lon="0.91246">
        <ele>374</ele>
        <time>2019-02-17T12:05:55.000Z</time>
      </trkpt>
      <trkpt lat="43.23126" lon="0.91246">
        <ele>374</ele>
        <time>2019-02-17T12:05:57.000Z</time>
      </trkpt>
      <trkpt lat="43.23126" lon="0.91246">
        <ele>374</ele>
        <time>2019-02-17T12:05:59.000Z</time>
      </trkpt>
      <trkpt lat="43.23126" lon="0.91246">
        <ele>374</ele>
        <time>2019-02-17T12:06:01.000Z</time>
      </trkpt>
      <trkpt lat="43.23127" lon="0.91246">
        <ele>374</ele>
        <time>2019-02-17T12:06:03.000Z</time>
      </trkpt>
      <trkpt lat="43.23127" lon="0.91246">
        <ele>374</ele>
        <time>2019-02-17T12:06:05.000Z</time>
      </trkpt>
      <trkpt lat="43.23127" lon="0.91246">
        <ele>374</ele>
        <time>2019-02-17T12:06:07.000Z</time>
      </trkpt>
      <trkpt lat="43.23127" lon="0.91246">
        <ele>374</ele>
        <time>2019-02-17T12:06:09.000Z</time>
      </trkpt>
      <trkpt lat="43.23127" lon="0.91246">
        <ele>374</ele>
        <time>2019-02-17T12:06:11.000Z</time>
      </trkpt>
      <trkpt lat="43.23127" lon="0.91246">
        <ele>374</ele>
        <time>2019-02-17T12:06:13.000Z</time>
      </trkpt>
      <trkpt lat="43.23127" lon="0.91246">
        <ele>374</ele>
        <time>2019-02-17T12:06:15.000Z</time>
      </trkpt>
      <trkpt lat="43.23127" lon="0.91246">
        <ele>374</ele>
        <time>2019-02-17T12:06:17.000Z</time>
      </trkpt>
      <trkpt lat="43.23127" lon="0.91246">
        <ele>374</ele>
        <time>2019-02-17T12:06:19.000Z</time>
      </trkpt>
      <trkpt lat="43.23127" lon="0.91246">
        <ele>374</ele>
        <time>2019-02-17T12:06:21.000Z</time>
      </trkpt>
      <trkpt lat="43.23127" lon="0.91246">
        <ele>374</ele>
        <time>2019-02-17T12:06:23.000Z</time>
      </trkpt>
      <trkpt lat="43.23127" lon="0.91246">
        <ele>374</ele>
        <time>2019-02-17T12:06:25.000Z</time>
      </trkpt>
      <trkpt lat="43.23127" lon="0.91246">
        <ele>374</ele>
        <time>2019-02-17T12:06:27.000Z</time>
      </trkpt>
      <trkpt lat="43.23127" lon="0.91246">
        <ele>374</ele>
        <time>2019-02-17T12:06:29.000Z</time>
      </trkpt>
      <trkpt lat="43.23127" lon="0.91247">
        <ele>374</ele>
        <time>2019-02-17T12:06:31.000Z</time>
      </trkpt>
      <trkpt lat="43.23127" lon="0.91247">
        <ele>374</ele>
        <time>2019-02-17T12:06:33.000Z</time>
      </trkpt>
      <trkpt lat="43.23127" lon="0.91247">
        <ele>374</ele>
        <time>2019-02-17T12:06:35.000Z</time>
      </trkpt>
      <trkpt lat="43.23127" lon="0.91247">
        <ele>374</ele>
        <time>2019-02-17T12:06:37.000Z</time>
      </trkpt>
      <trkpt lat="43.23127" lon="0.91247">
        <ele>374</ele>
        <time>2019-02-17T12:06:39.000Z</time>
      </trkpt>
      <trkpt lat="43.23127" lon="0.91247">
        <ele>374</ele>
        <time>2019-02-17T12:06:41.000Z</time>
      </trkpt>
      <trkpt lat="43.23127" lon="0.91246">
        <ele>374</ele>
        <time>2019-02-17T12:06:43.000Z</time>
      </trkpt>
      <trkpt lat="43.23127" lon="0.91246">
        <ele>374</ele>
        <time>2019-02-17T12:06:45.000Z</time>
      </trkpt>
      <trkpt lat="43.23127" lon="0.91246">
        <ele>374</ele>
        <time>2019-02-17T12:06:47.000Z</time>
      </trkpt>
      <trkpt lat="43.23127" lon="0.91246">
        <ele>374</ele>
        <time>2019-02-17T12:06:49.000Z</time>
      </trkpt>
      <trkpt lat="43.23127" lon="0.91247">
        <ele>374</ele>
        <time>2019-02-17T12:06:51.000Z</time>
      </trkpt>
      <trkpt lat="43.23128" lon="0.91247">
        <ele>374</ele>
        <time>2019-02-17T12:06:53.000Z</time>
      </trkpt>
      <trkpt lat="43.23128" lon="0.91247">
        <ele>374</ele>
        <time>2019-02-17T12:06:55.000Z</time>
      </trkpt>
      <trkpt lat="43.23128" lon="0.91247">
        <ele>374</ele>
        <time>2019-02-17T12:06:57.000Z</time>
      </trkpt>
      <trkpt lat="43.23128" lon="0.91247">
        <ele>374</ele>
        <time>2019-02-17T12:06:59.000Z</time>
      </trkpt>
      <trkpt lat="43.23128" lon="0.91247">
        <ele>374</ele>
        <time>2019-02-17T12:07:01.000Z</time>
      </trkpt>
      <trkpt lat="43.23128" lon="0.91247">
        <ele>374</ele>
        <time>2019-02-17T12:07:03.000Z</time>
      </trkpt>
      <trkpt lat="43.23128" lon="0.91247">
        <ele>374</ele>
        <time>2019-02-17T12:07:05.000Z</time>
      </trkpt>
      <trkpt lat="43.23128" lon="0.91247">
        <ele>374</ele>
        <time>2019-02-17T12:07:07.000Z</time>
      </trkpt>
      <trkpt lat="43.23128" lon="0.91247">
        <ele>374</ele>
        <time>2019-02-17T12:07:09.000Z</time>
      </trkpt>
      <trkpt lat="43.23128" lon="0.91247">
        <ele>374</ele>
        <time>2019-02-17T12:07:11.000Z</time>
      </trkpt>
      <trkpt lat="43.23128" lon="0.91248">
        <ele>374</ele>
        <time>2019-02-17T12:07:13.000Z</time>
      </trkpt>
      <trkpt lat="43.23128" lon="0.91248">
        <ele>374</ele>
        <time>2019-02-17T12:07:15.000Z</time>
      </trkpt>
      <trkpt lat="43.23128" lon="0.91248">
        <ele>374</ele>
        <time>2019-02-17T12:07:17.000Z</time>
      </trkpt>
      <trkpt lat="43.23128" lon="0.91248">
        <ele>374</ele>
        <time>2019-02-17T12:07:19.000Z</time>
      </trkpt>
      <trkpt lat="43.23128" lon="0.91248">
        <ele>374</ele>
        <time>2019-02-17T12:07:21.000Z</time>
      </trkpt>
      <trkpt lat="43.23129" lon="0.91248">
        <ele>374</ele>
        <time>2019-02-17T12:07:23.000Z</time>
      </trkpt>
      <trkpt lat="43.23128" lon="0.91248">
        <ele>374</ele>
        <time>2019-02-17T12:07:25.000Z</time>
      </trkpt>
      <trkpt lat="43.23128" lon="0.91248">
        <ele>374</ele>
        <time>2019-02-17T12:07:27.000Z</time>
      </trkpt>
      <trkpt lat="43.23127" lon="0.91247">
        <ele>374</ele>
        <time>2019-02-17T12:07:29.000Z</time>
      </trkpt>
      <trkpt lat="43.23126" lon="0.91247">
        <ele>374</ele>
        <time>2019-02-17T12:07:31.000Z</time>
      </trkpt>
      <trkpt lat="43.23126" lon="0.91247">
        <ele>374</ele>
        <time>2019-02-17T12:07:33.000Z</time>
      </trkpt>
      <trkpt lat="43.23126" lon="0.91247">
        <ele>374</ele>
        <time>2019-02-17T12:07:35.000Z</time>
      </trkpt>
      <trkpt lat="43.23126" lon="0.91247">
        <ele>374</ele>
        <time>2019-02-17T12:07:37.000Z</time>
      </trkpt>
      <trkpt lat="43.23125" lon="0.91247">
        <ele>374</ele>
        <time>2019-02-17T12:07:39.000Z</time>
      </trkpt>
      <trkpt lat="43.23125" lon="0.91247">
        <ele>374</ele>
        <time>2019-02-17T12:07:41.000Z</time>
      </trkpt>
      <trkpt lat="43.23124" lon="0.91246">
        <ele>374</ele>
        <time>2019-02-17T12:07:43.000Z</time>
      </trkpt>
      <trkpt lat="43.23124" lon="0.91245">
        <ele>374</ele>
        <time>2019-02-17T12:07:45.000Z</time>
      </trkpt>
      <trkpt lat="43.23124" lon="0.91245">
        <ele>374</ele>
        <time>2019-02-17T12:07:47.000Z</time>
      </trkpt>
      <trkpt lat="43.23125" lon="0.91244">
        <ele>374</ele>
        <time>2019-02-17T12:07:49.000Z</time>
      </trkpt>
      <trkpt lat="43.23125" lon="0.91244">
        <ele>374</ele>
        <time>2019-02-17T12:07:51.000Z</time>
      </trkpt>
      <trkpt lat="43.23125" lon="0.91245">
        <ele>374</ele>
        <time>2019-02-17T12:07:53.000Z</time>
      </trkpt>
      <trkpt lat="43.23125" lon="0.91244">
        <ele>374</ele>
        <time>2019-02-17T12:07:55.000Z</time>
      </trkpt>
      <trkpt lat="43.23125" lon="0.91245">
        <ele>374</ele>
        <time>2019-02-17T12:07:57.000Z</time>
      </trkpt>
      <trkpt lat="43.23125" lon="0.91245">
        <ele>374</ele>
        <time>2019-02-17T12:07:59.000Z</time>
      </trkpt>
      <trkpt lat="43.23125" lon="0.91245">
        <ele>374</ele>
        <time>2019-02-17T12:08:01.000Z</time>
      </trkpt>
      <trkpt lat="43.23125" lon="0.91244">
        <ele>374</ele>
        <time>2019-02-17T12:08:03.000Z</time>
      </trkpt>
      <trkpt lat="43.23125" lon="0.91244">
        <ele>374</ele>
        <time>2019-02-17T12:08:05.000Z</time>
      </trkpt>
      <trkpt lat="43.23125" lon="0.91244">
        <ele>374</ele>
        <time>2019-02-17T12:08:07.000Z</time>
      </trkpt>
      <trkpt lat="43.23125" lon="0.91243">
        <ele>374</ele>
        <time>2019-02-17T12:08:09.000Z</time>
      </trkpt>
      <trkpt lat="43.23126" lon="0.91243">
        <ele>374</ele>
        <time>2019-02-17T12:08:11.000Z</time>
      </trkpt>
      <trkpt lat="43.23126" lon="0.91243">
        <ele>374</ele>
        <time>2019-02-17T12:08:13.000Z</time>
      </trkpt>
      <trkpt lat="43.23126" lon="0.91243">
        <ele>374</ele>
        <time>2019-02-17T12:08:15.000Z</time>
      </trkpt>
      <trkpt lat="43.23127" lon="0.91242">
        <ele>374</ele>
        <time>2019-02-17T12:08:17.000Z</time>
      </trkpt>
      <trkpt lat="43.23127" lon="0.91242">
        <ele>374</ele>
        <time>2019-02-17T12:08:19.000Z</time>
      </trkpt>
      <trkpt lat="43.23127" lon="0.91242">
        <ele>374</ele>
        <time>2019-02-17T12:08:21.000Z</time>
      </trkpt>
      <trkpt lat="43.23127" lon="0.91243">
        <ele>374</ele>
        <time>2019-02-17T12:08:23.000Z</time>
      </trkpt>
      <trkpt lat="43.23127" lon="0.91244">
        <ele>374</ele>
        <time>2019-02-17T12:08:25.000Z</time>
      </trkpt>
      <trkpt lat="43.23127" lon="0.91245">
        <ele>374</ele>
        <time>2019-02-17T12:08:27.000Z</time>
      </trkpt>
      <trkpt lat="43.23127" lon="0.91246">
        <ele>374</ele>
        <time>2019-02-17T12:08:29.000Z</time>
      </trkpt>
      <trkpt lat="43.23127" lon="0.91246">
        <ele>374</ele>
        <time>2019-02-17T12:08:31.000Z</time>
      </trkpt>
      <trkpt lat="43.23127" lon="0.91247">
        <ele>374</ele>
        <time>2019-02-17T12:08:33.000Z</time>
      </trkpt>
      <trkpt lat="43.23127" lon="0.91247">
        <ele>374</ele>
        <time>2019-02-17T12:08:35.000Z</time>
      </trkpt>
      <trkpt lat="43.23127" lon="0.91247">
        <ele>374</ele>
        <time>2019-02-17T12:08:37.000Z</time>
      </trkpt>
      <trkpt lat="43.23127" lon="0.91247">
        <ele>374</ele>
        <time>2019-02-17T12:08:39.000Z</time>
      </trkpt>
      <trkpt lat="43.23127" lon="0.91247">
        <ele>374</ele>
        <time>2019-02-17T12:08:41.000Z</time>
      </trkpt>
      <trkpt lat="43.23127" lon="0.91248">
        <ele>374</ele>
        <time>2019-02-17T12:08:43.000Z</time>
      </trkpt>
      <trkpt lat="43.23127" lon="0.91248">
        <ele>374</ele>
        <time>2019-02-17T12:08:45.000Z</time>
      </trkpt>
      <trkpt lat="43.23127" lon="0.91248">
        <ele>374</ele>
        <time>2019-02-17T12:08:47.000Z</time>
      </trkpt>
      <trkpt lat="43.23127" lon="0.91248">
        <ele>374</ele>
        <time>2019-02-17T12:08:49.000Z</time>
      </trkpt>
      <trkpt lat="43.23127" lon="0.91247">
        <ele>374</ele>
        <time>2019-02-17T12:08:51.000Z</time>
      </trkpt>
      <trkpt lat="43.23127" lon="0.91248">
        <ele>374</ele>
        <time>2019-02-17T12:08:53.000Z</time>
      </trkpt>
      <trkpt lat="43.23127" lon="0.91246">
        <ele>374</ele>
        <time>2019-02-17T12:08:55.000Z</time>
      </trkpt>
      <trkpt lat="43.23127" lon="0.91246">
        <ele>374</ele>
        <time>2019-02-17T12:08:57.000Z</time>
      </trkpt>
      <trkpt lat="43.23126" lon="0.91246">
        <ele>374</ele>
        <time>2019-02-17T12:08:59.000Z</time>
      </trkpt>
      <trkpt lat="43.23126" lon="0.91246">
        <ele>374</ele>
        <time>2019-02-17T12:09:01.000Z</time>
      </trkpt>
      <trkpt lat="43.23126" lon="0.91246">
        <ele>374</ele>
        <time>2019-02-17T12:09:03.000Z</time>
      </trkpt>
      <trkpt lat="43.23126" lon="0.91246">
        <ele>374</ele>
        <time>2019-02-17T12:09:05.000Z</time>
      </trkpt>
      <trkpt lat="43.23126" lon="0.91245">
        <ele>374</ele>
        <time>2019-02-17T12:09:07.000Z</time>
      </trkpt>
      <trkpt lat="43.23126" lon="0.91244">
        <ele>374</ele>
        <time>2019-02-17T12:09:09.000Z</time>
      </trkpt>
      <trkpt lat="43.23126" lon="0.91244">
        <ele>374</ele>
        <time>2019-02-17T12:09:11.000Z</time>
      </trkpt>
      <trkpt lat="43.23126" lon="0.91244">
        <ele>374</ele>
        <time>2019-02-17T12:09:13.000Z</time>
      </trkpt>
      <trkpt lat="43.23126" lon="0.91244">
        <ele>374</ele>
        <time>2019-02-17T12:09:15.000Z</time>
      </trkpt>
      <trkpt lat="43.23126" lon="0.91243">
        <ele>374</ele>
        <time>2019-02-17T12:09:17.000Z</time>
      </trkpt>
      <trkpt lat="43.23126" lon="0.91243">
        <ele>374</ele>
        <time>2019-02-17T12:09:19.000Z</time>
      </trkpt>
      <trkpt lat="43.23126" lon="0.91244">
        <ele>374</ele>
        <time>2019-02-17T12:09:21.000Z</time>
      </trkpt>
      <trkpt lat="43.23126" lon="0.91243">
        <ele>374</ele>
        <time>2019-02-17T12:09:23.000Z</time>
      </trkpt>
      <trkpt lat="43.23126" lon="0.91243">
        <ele>374</ele>
        <time>2019-02-17T12:09:25.000Z</time>
      </trkpt>
      <trkpt lat="43.23126" lon="0.91243">
        <ele>374</ele>
        <time>2019-02-17T12:09:27.000Z</time>
      </trkpt>
      <trkpt lat="43.23126" lon="0.91243">
        <ele>374</ele>
        <time>2019-02-17T12:09:29.000Z</time>
      </trkpt>
      <trkpt lat="43.23126" lon="0.91244">
        <ele>374</ele>
        <time>2019-02-17T12:09:31.000Z</time>
      </trkpt>
      <trkpt lat="43.23126" lon="0.91245">
        <ele>374</ele>
        <time>2019-02-17T12:09:33.000Z</time>
      </trkpt>
      <trkpt lat="43.23126" lon="0.91246">
        <ele>374</ele>
        <time>2019-02-17T12:09:35.000Z</time>
      </trkpt>
      <trkpt lat="43.23126" lon="0.91246">
        <ele>374</ele>
        <time>2019-02-17T12:09:37.000Z</time>
      </trkpt>
      <trkpt lat="43.23126" lon="0.91247">
        <ele>374</ele>
        <time>2019-02-17T12:09:39.000Z</time>
      </trkpt>
      <trkpt lat="43.23126" lon="0.91247">
        <ele>374</ele>
        <time>2019-02-17T12:09:41.000Z</time>
      </trkpt>
      <trkpt lat="43.23126" lon="0.91247">
        <ele>374</ele>
        <time>2019-02-17T12:09:43.000Z</time>
      </trkpt>
      <trkpt lat="43.23126" lon="0.91247">
        <ele>374</ele>
        <time>2019-02-17T12:09:45.000Z</time>
      </trkpt>
      <trkpt lat="43.23126" lon="0.91248">
        <ele>374</ele>
        <time>2019-02-17T12:09:47.000Z</time>
      </trkpt>
      <trkpt lat="43.23126" lon="0.91248">
        <ele>374</ele>
        <time>2019-02-17T12:09:49.000Z</time>
      </trkpt>
      <trkpt lat="43.23125" lon="0.91248">
        <ele>374</ele>
        <time>2019-02-17T12:09:51.000Z</time>
      </trkpt>
      <trkpt lat="43.23125" lon="0.91248">
        <ele>374</ele>
        <time>2019-02-17T12:09:53.000Z</time>
      </trkpt>
      <trkpt lat="43.23125" lon="0.91247">
        <ele>374</ele>
        <time>2019-02-17T12:09:55.000Z</time>
      </trkpt>
      <trkpt lat="43.23125" lon="0.91246">
        <ele>374</ele>
        <time>2019-02-17T12:09:57.000Z</time>
      </trkpt>
      <trkpt lat="43.23125" lon="0.91246">
        <ele>374</ele>
        <time>2019-02-17T12:09:59.000Z</time>
      </trkpt>
      <trkpt lat="43.23126" lon="0.91246">
        <ele>374</ele>
        <time>2019-02-17T12:10:01.000Z</time>
      </trkpt>
      <trkpt lat="43.23126" lon="0.91246">
        <ele>374</ele>
        <time>2019-02-17T12:10:03.000Z</time>
      </trkpt>
      <trkpt lat="43.23126" lon="0.91246">
        <ele>374</ele>
        <time>2019-02-17T12:10:05.000Z</time>
      </trkpt>
      <trkpt lat="43.23126" lon="0.91245">
        <ele>374</ele>
        <time>2019-02-17T12:10:07.000Z</time>
      </trkpt>
      <trkpt lat="43.23126" lon="0.91245">
        <ele>374</ele>
        <time>2019-02-17T12:10:09.000Z</time>
      </trkpt>
      <trkpt lat="43.23126" lon="0.91245">
        <ele>374</ele>
        <time>2019-02-17T12:10:11.000Z</time>
      </trkpt>
      <trkpt lat="43.23126" lon="0.91245">
        <ele>374</ele>
        <time>2019-02-17T12:10:13.000Z</time>
      </trkpt>
      <trkpt lat="43.23126" lon="0.91245">
        <ele>374</ele>
        <time>2019-02-17T12:10:15.000Z</time>
      </trkpt>
      <trkpt lat="43.23125" lon="0.91244">
        <ele>374</ele>
        <time>2019-02-17T12:10:17.000Z</time>
      </trkpt>
      <trkpt lat="43.23125" lon="0.91243">
        <ele>374</ele>
        <time>2019-02-17T12:10:19.000Z</time>
      </trkpt>
      <trkpt lat="43.23125" lon="0.91243">
        <ele>374</ele>
        <time>2019-02-17T12:10:21.000Z</time>
      </trkpt>
      <trkpt lat="43.23125" lon="0.91243">
        <ele>374</ele>
        <time>2019-02-17T12:10:23.000Z</time>
      </trkpt>
      <trkpt lat="43.23125" lon="0.91243">
        <ele>374</ele>
        <time>2019-02-17T12:10:25.000Z</time>
      </trkpt>
      <trkpt lat="43.23125" lon="0.91244">
        <ele>374</ele>
        <time>2019-02-17T12:10:27.000Z</time>
      </trkpt>
      <trkpt lat="43.23125" lon="0.91244">
        <ele>374</ele>
        <time>2019-02-17T12:10:29.000Z</time>
      </trkpt>
      <trkpt lat="43.23125" lon="0.91244">
        <ele>374</ele>
        <time>2019-02-17T12:10:31.000Z</time>
      </trkpt>
      <trkpt lat="43.23125" lon="0.91244">
        <ele>374</ele>
        <time>2019-02-17T12:10:33.000Z</time>
      </trkpt>
      <trkpt lat="43.23124" lon="0.91245">
        <ele>374</ele>
        <time>2019-02-17T12:10:35.000Z</time>
      </trkpt>
      <trkpt lat="43.23124" lon="0.91245">
        <ele>374</ele>
        <time>2019-02-17T12:10:37.000Z</time>
      </trkpt>
      <trkpt lat="43.23124" lon="0.91244">
        <ele>374</ele>
        <time>2019-02-17T12:10:39.000Z</time>
      </trkpt>
      <trkpt lat="43.23124" lon="0.91245">
        <ele>374</ele>
        <time>2019-02-17T12:10:41.000Z</time>
      </trkpt>
      <trkpt lat="43.23124" lon="0.91245">
        <ele>374</ele>
        <time>2019-02-17T12:10:43.000Z</time>
      </trkpt>
      <trkpt lat="43.23124" lon="0.91245">
        <ele>374</ele>
        <time>2019-02-17T12:10:45.000Z</time>
      </trkpt>
      <trkpt lat="43.23124" lon="0.91245">
        <ele>374</ele>
        <time>2019-02-17T12:10:47.000Z</time>
      </trkpt>
      <trkpt lat="43.23124" lon="0.91245">
        <ele>374</ele>
        <time>2019-02-17T12:10:49.000Z</time>
      </trkpt>
      <trkpt lat="43.23124" lon="0.91245">
        <ele>374</ele>
        <time>2019-02-17T12:10:51.000Z</time>
      </trkpt>
      <trkpt lat="43.23125" lon="0.91245">
        <ele>374</ele>
        <time>2019-02-17T12:10:53.000Z</time>
      </trkpt>
      <trkpt lat="43.23125" lon="0.91245">
        <ele>374</ele>
        <time>2019-02-17T12:10:55.000Z</time>
      </trkpt>
      <trkpt lat="43.23125" lon="0.91244">
        <ele>374</ele>
        <time>2019-02-17T12:10:57.000Z</time>
      </trkpt>
      <trkpt lat="43.23126" lon="0.91243">
        <ele>374</ele>
        <time>2019-02-17T12:10:59.000Z</time>
      </trkpt>
      <trkpt lat="43.23126" lon="0.91243">
        <ele>374</ele>
        <time>2019-02-17T12:11:01.000Z</time>
      </trkpt>
      <trkpt lat="43.23126" lon="0.91242">
        <ele>374</ele>
        <time>2019-02-17T12:11:03.000Z</time>
      </trkpt>
      <trkpt lat="43.23127" lon="0.91242">
        <ele>374</ele>
        <time>2019-02-17T12:11:05.000Z</time>
      </trkpt>
      <trkpt lat="43.23127" lon="0.91242">
        <ele>374</ele>
        <time>2019-02-17T12:11:07.000Z</time>
      </trkpt>
      <trkpt lat="43.23128" lon="0.91242">
        <ele>374</ele>
        <time>2019-02-17T12:11:09.000Z</time>
      </trkpt>
      <trkpt lat="43.23128" lon="0.91241">
        <ele>374</ele>
        <time>2019-02-17T12:11:11.000Z</time>
      </trkpt>
      <trkpt lat="43.23128" lon="0.91241">
        <ele>374</ele>
        <time>2019-02-17T12:11:13.000Z</time>
      </trkpt>
      <trkpt lat="43.23128" lon="0.91241">
        <ele>374</ele>
        <time>2019-02-17T12:11:15.000Z</time>
      </trkpt>
      <trkpt lat="43.23127" lon="0.91241">
        <ele>374</ele>
        <time>2019-02-17T12:11:17.000Z</time>
      </trkpt>
      <trkpt lat="43.23127" lon="0.91242">
        <ele>374</ele>
        <time>2019-02-17T12:11:19.000Z</time>
      </trkpt>
      <trkpt lat="43.23127" lon="0.91243">
        <ele>374</ele>
        <time>2019-02-17T12:11:21.000Z</time>
      </trkpt>
      <trkpt lat="43.23127" lon="0.91244">
        <ele>374</ele>
        <time>2019-02-17T12:11:23.000Z</time>
      </trkpt>
      <trkpt lat="43.23127" lon="0.91245">
        <ele>374</ele>
        <time>2019-02-17T12:11:25.000Z</time>
      </trkpt>
      <trkpt lat="43.23128" lon="0.91245">
        <ele>374</ele>
        <time>2019-02-17T12:11:27.000Z</time>
      </trkpt>
      <trkpt lat="43.23127" lon="0.91245">
        <ele>374</ele>
        <time>2019-02-17T12:11:29.000Z</time>
      </trkpt>
      <trkpt lat="43.23127" lon="0.91245">
        <ele>374</ele>
        <time>2019-02-17T12:11:31.000Z</time>
      </trkpt>
      <trkpt lat="43.23127" lon="0.91245">
        <ele>374</ele>
        <time>2019-02-17T12:11:33.000Z</time>
      </trkpt>
      <trkpt lat="43.23127" lon="0.91245">
        <ele>374</ele>
        <time>2019-02-17T12:11:35.000Z</time>
      </trkpt>
      <trkpt lat="43.23127" lon="0.91245">
        <ele>374</ele>
        <time>2019-02-17T12:11:37.000Z</time>
      </trkpt>
      <trkpt lat="43.23127" lon="0.91245">
        <ele>374</ele>
        <time>2019-02-17T12:11:39.000Z</time>
      </trkpt>
      <trkpt lat="43.23127" lon="0.91246">
        <ele>374</ele>
        <time>2019-02-17T12:11:41.000Z</time>
      </trkpt>
      <trkpt lat="43.23127" lon="0.91246">
        <ele>374</ele>
        <time>2019-02-17T12:11:43.000Z</time>
      </trkpt>
      <trkpt lat="43.23127" lon="0.91246">
        <ele>374</ele>
        <time>2019-02-17T12:11:45.000Z</time>
      </trkpt>
      <trkpt lat="43.23127" lon="0.91245">
        <ele>374</ele>
        <time>2019-02-17T12:11:47.000Z</time>
      </trkpt>
      <trkpt lat="43.23127" lon="0.91245">
        <ele>374</ele>
        <time>2019-02-17T12:11:49.000Z</time>
      </trkpt>
      <trkpt lat="43.23127" lon="0.91245">
        <ele>374</ele>
        <time>2019-02-17T12:11:51.000Z</time>
      </trkpt>
      <trkpt lat="43.23128" lon="0.91245">
        <ele>374</ele>
        <time>2019-02-17T12:11:53.000Z</time>
      </trkpt>
      <trkpt lat="43.23128" lon="0.91244">
        <ele>374</ele>
        <time>2019-02-17T12:11:55.000Z</time>
      </trkpt>
      <trkpt lat="43.23128" lon="0.91244">
        <ele>374</ele>
        <time>2019-02-17T12:11:57.000Z</time>
      </trkpt>
      <trkpt lat="43.23129" lon="0.91245">
        <ele>374</ele>
        <time>2019-02-17T12:11:59.000Z</time>
      </trkpt>
      <trkpt lat="43.23129" lon="0.91245">
        <ele>374</ele>
        <time>2019-02-17T12:12:01.000Z</time>
      </trkpt>
      <trkpt lat="43.23129" lon="0.91245">
        <ele>374</ele>
        <time>2019-02-17T12:12:03.000Z</time>
      </trkpt>
      <trkpt lat="43.23128" lon="0.91245">
        <ele>374</ele>
        <time>2019-02-17T12:12:05.000Z</time>
      </trkpt>
      <trkpt lat="43.23128" lon="0.91245">
        <ele>374</ele>
        <time>2019-02-17T12:12:07.000Z</time>
      </trkpt>
      <trkpt lat="43.23127" lon="0.91245">
        <ele>374</ele>
        <time>2019-02-17T12:12:09.000Z</time>
      </trkpt>
      <trkpt lat="43.23127" lon="0.91245">
        <ele>374</ele>
        <time>2019-02-17T12:12:11.000Z</time>
      </trkpt>
      <trkpt lat="43.23127" lon="0.91245">
        <ele>374</ele>
        <time>2019-02-17T12:12:13.000Z</time>
      </trkpt>
      <trkpt lat="43.23127" lon="0.91245">
        <ele>374</ele>
        <time>2019-02-17T12:12:15.000Z</time>
      </trkpt>
      <trkpt lat="43.23127" lon="0.91245">
        <ele>374</ele>
        <time>2019-02-17T12:12:17.000Z</time>
      </trkpt>
      <trkpt lat="43.23128" lon="0.91245">
        <ele>374</ele>
        <time>2019-02-17T12:12:19.000Z</time>
      </trkpt>
      <trkpt lat="43.23128" lon="0.91245">
        <ele>374</ele>
        <time>2019-02-17T12:12:21.000Z</time>
      </trkpt>
      <trkpt lat="43.23127" lon="0.91247">
        <ele>374</ele>
        <time>2019-02-17T12:12:23.000Z</time>
      </trkpt>
      <trkpt lat="43.23126" lon="0.91247">
        <ele>374</ele>
        <time>2019-02-17T12:12:25.000Z</time>
      </trkpt>
      <trkpt lat="43.23126" lon="0.91247">
        <ele>374</ele>
        <time>2019-02-17T12:12:27.000Z</time>
      </trkpt>
      <trkpt lat="43.23126" lon="0.91247">
        <ele>374</ele>
        <time>2019-02-17T12:12:29.000Z</time>
      </trkpt>
      <trkpt lat="43.23126" lon="0.91247">
        <ele>374</ele>
        <time>2019-02-17T12:12:31.000Z</time>
      </trkpt>
      <trkpt lat="43.23126" lon="0.91246">
        <ele>374</ele>
        <time>2019-02-17T12:12:33.000Z</time>
      </trkpt>
      <trkpt lat="43.23125" lon="0.91246">
        <ele>374</ele>
        <time>2019-02-17T12:12:35.000Z</time>
      </trkpt>
      <trkpt lat="43.23125" lon="0.91245">
        <ele>374</ele>
        <time>2019-02-17T12:12:37.000Z</time>
      </trkpt>
      <trkpt lat="43.23125" lon="0.91246">
        <ele>374</ele>
        <time>2019-02-17T12:12:39.000Z</time>
      </trkpt>
      <trkpt lat="43.23125" lon="0.91246">
        <ele>374</ele>
        <time>2019-02-17T12:12:41.000Z</time>
      </trkpt>
      <trkpt lat="43.23125" lon="0.91245">
        <ele>374</ele>
        <time>2019-02-17T12:12:43.000Z</time>
      </trkpt>
      <trkpt lat="43.23124" lon="0.91245">
        <ele>374</ele>
        <time>2019-02-17T12:12:45.000Z</time>
      </trkpt>
      <trkpt lat="43.23124" lon="0.91246">
        <ele>374</ele>
        <time>2019-02-17T12:12:47.000Z</time>
      </trkpt>
      <trkpt lat="43.23124" lon="0.91246">
        <ele>374</ele>
        <time>2019-02-17T12:12:49.000Z</time>
      </trkpt>
      <trkpt lat="43.23124" lon="0.91245">
        <ele>374</ele>
        <time>2019-02-17T12:12:51.000Z</time>
      </trkpt>
      <trkpt lat="43.23124" lon="0.91244">
        <ele>374</ele>
        <time>2019-02-17T12:12:53.000Z</time>
      </trkpt>
      <trkpt lat="43.23125" lon="0.91243">
        <ele>374</ele>
        <time>2019-02-17T12:12:55.000Z</time>
      </trkpt>
      <trkpt lat="43.23125" lon="0.91244">
        <ele>374</ele>
        <time>2019-02-17T12:12:57.000Z</time>
      </trkpt>
      <trkpt lat="43.23125" lon="0.91244">
        <ele>374</ele>
        <time>2019-02-17T12:12:59.000Z</time>
      </trkpt>
      <trkpt lat="43.23126" lon="0.91244">
        <ele>374</ele>
        <time>2019-02-17T12:13:01.000Z</time>
      </trkpt>
      <trkpt lat="43.23126" lon="0.91244">
        <ele>374</ele>
        <time>2019-02-17T12:13:03.000Z</time>
      </trkpt>
      <trkpt lat="43.23126" lon="0.91243">
        <ele>374</ele>
        <time>2019-02-17T12:13:05.000Z</time>
      </trkpt>
      <trkpt lat="43.23126" lon="0.91243">
        <ele>374</ele>
        <time>2019-02-17T12:13:07.000Z</time>
      </trkpt>
      <trkpt lat="43.23126" lon="0.91243">
        <ele>374</ele>
        <time>2019-02-17T12:13:09.000Z</time>
      </trkpt>
      <trkpt lat="43.23126" lon="0.91243">
        <ele>374</ele>
        <time>2019-02-17T12:13:11.000Z</time>
      </trkpt>
      <trkpt lat="43.23127" lon="0.91243">
        <ele>374</ele>
        <time>2019-02-17T12:13:13.000Z</time>
      </trkpt>
      <trkpt lat="43.23127" lon="0.91243">
        <ele>374</ele>
        <time>2019-02-17T12:13:15.000Z</time>
      </trkpt>
      <trkpt lat="43.23126" lon="0.91243">
        <ele>374</ele>
        <time>2019-02-17T12:13:17.000Z</time>
      </trkpt>
      <trkpt lat="43.23126" lon="0.91243">
        <ele>374</ele>
        <time>2019-02-17T12:13:19.000Z</time>
      </trkpt>
      <trkpt lat="43.23126" lon="0.91243">
        <ele>374</ele>
        <time>2019-02-17T12:13:21.000Z</time>
      </trkpt>
      <trkpt lat="43.23126" lon="0.91243">
        <ele>374</ele>
        <time>2019-02-17T12:13:23.000Z</time>
      </trkpt>
      <trkpt lat="43.23127" lon="0.91243">
        <ele>374</ele>
        <time>2019-02-17T12:13:25.000Z</time>
      </trkpt>
      <trkpt lat="43.23127" lon="0.91243">
        <ele>374</ele>
        <time>2019-02-17T12:13:27.000Z</time>
      </trkpt>
      <trkpt lat="43.23127" lon="0.91242">
        <ele>374</ele>
        <time>2019-02-17T12:13:29.000Z</time>
      </trkpt>
      <trkpt lat="43.23127" lon="0.91242">
        <ele>374</ele>
        <time>2019-02-17T12:13:31.000Z</time>
      </trkpt>
      <trkpt lat="43.23127" lon="0.91242">
        <ele>374</ele>
        <time>2019-02-17T12:13:33.000Z</time>
      </trkpt>
      <trkpt lat="43.23127" lon="0.91242">
        <ele>374</ele>
        <time>2019-02-17T12:13:35.000Z</time>
      </trkpt>
      <trkpt lat="43.23127" lon="0.91242">
        <ele>374</ele>
        <time>2019-02-17T12:13:37.000Z</time>
      </trkpt>
      <trkpt lat="43.23127" lon="0.91242">
        <ele>374</ele>
        <time>2019-02-17T12:13:39.000Z</time>
      </trkpt>
      <trkpt lat="43.23127" lon="0.91242">
        <ele>374</ele>
        <time>2019-02-17T12:13:41.000Z</time>
      </trkpt>
      <trkpt lat="43.23127" lon="0.91241">
        <ele>374</ele>
        <time>2019-02-17T12:13:43.000Z</time>
      </trkpt>
      <trkpt lat="43.23126" lon="0.91241">
        <ele>374</ele>
        <time>2019-02-17T12:13:45.000Z</time>
      </trkpt>
      <trkpt lat="43.23126" lon="0.91242">
        <ele>374</ele>
        <time>2019-02-17T12:13:47.000Z</time>
      </trkpt>
      <trkpt lat="43.23126" lon="0.91241">
        <ele>374</ele>
        <time>2019-02-17T12:13:49.000Z</time>
      </trkpt>
      <trkpt lat="43.23126" lon="0.91241">
        <ele>374</ele>
        <time>2019-02-17T12:13:51.000Z</time>
      </trkpt>
      <trkpt lat="43.23125" lon="0.91241">
        <ele>374</ele>
        <time>2019-02-17T12:13:53.000Z</time>
      </trkpt>
      <trkpt lat="43.23125" lon="0.91241">
        <ele>374</ele>
        <time>2019-02-17T12:13:55.000Z</time>
      </trkpt>
      <trkpt lat="43.23126" lon="0.9124">
        <ele>374</ele>
        <time>2019-02-17T12:13:57.000Z</time>
      </trkpt>
      <trkpt lat="43.23125" lon="0.9124">
        <ele>374</ele>
        <time>2019-02-17T12:13:59.000Z</time>
      </trkpt>
      <trkpt lat="43.23126" lon="0.9124">
        <ele>374</ele>
        <time>2019-02-17T12:14:01.000Z</time>
      </trkpt>
      <trkpt lat="43.23126" lon="0.91241">
        <ele>374</ele>
        <time>2019-02-17T12:14:03.000Z</time>
      </trkpt>
      <trkpt lat="43.23126" lon="0.91241">
        <ele>374</ele>
        <time>2019-02-17T12:14:05.000Z</time>
      </trkpt>
      <trkpt lat="43.23126" lon="0.91242">
        <ele>374</ele>
        <time>2019-02-17T12:14:07.000Z</time>
      </trkpt>
      <trkpt lat="43.23126" lon="0.91242">
        <ele>374</ele>
        <time>2019-02-17T12:14:09.000Z</time>
      </trkpt>
      <trkpt lat="43.23126" lon="0.91242">
        <ele>374</ele>
        <time>2019-02-17T12:14:11.000Z</time>
      </trkpt>
      <trkpt lat="43.23126" lon="0.91242">
        <ele>374</ele>
        <time>2019-02-17T12:14:13.000Z</time>
      </trkpt>
      <trkpt lat="43.23126" lon="0.91243">
        <ele>374</ele>
        <time>2019-02-17T12:14:15.000Z</time>
      </trkpt>
      <trkpt lat="43.23126" lon="0.91243">
        <ele>374</ele>
        <time>2019-02-17T12:14:17.000Z</time>
      </trkpt>
      <trkpt lat="43.23126" lon="0.91243">
        <ele>374</ele>
        <time>2019-02-17T12:14:19.000Z</time>
      </trkpt>
      <trkpt lat="43.23126" lon="0.91243">
        <ele>374</ele>
        <time>2019-02-17T12:14:21.000Z</time>
      </trkpt>
      <trkpt lat="43.23127" lon="0.91243">
        <ele>374</ele>
        <time>2019-02-17T12:14:23.000Z</time>
      </trkpt>
      <trkpt lat="43.23127" lon="0.91242">
        <ele>374</ele>
        <time>2019-02-17T12:14:25.000Z</time>
      </trkpt>
      <trkpt lat="43.23126" lon="0.91242">
        <ele>374</ele>
        <time>2019-02-17T12:14:27.000Z</time>
      </trkpt>
      <trkpt lat="43.23127" lon="0.91242">
        <ele>374</ele>
        <time>2019-02-17T12:14:29.000Z</time>
      </trkpt>
      <trkpt lat="43.23127" lon="0.91242">
        <ele>374</ele>
        <time>2019-02-17T12:14:31.000Z</time>
      </trkpt>
      <trkpt lat="43.23127" lon="0.91242">
        <ele>374</ele>
        <time>2019-02-17T12:14:33.000Z</time>
      </trkpt>
      <trkpt lat="43.23127" lon="0.91242">
        <ele>374</ele>
        <time>2019-02-17T12:14:35.000Z</time>
      </trkpt>
      <trkpt lat="43.23127" lon="0.91241">
        <ele>374</ele>
        <time>2019-02-17T12:14:37.000Z</time>
      </trkpt>
      <trkpt lat="43.23127" lon="0.91241">
        <ele>374</ele>
        <time>2019-02-17T12:14:39.000Z</time>
      </trkpt>
      <trkpt lat="43.23127" lon="0.91241">
        <ele>374</ele>
        <time>2019-02-17T12:14:41.000Z</time>
      </trkpt>
      <trkpt lat="43.23127" lon="0.9124">
        <ele>374</ele>
        <time>2019-02-17T12:14:43.000Z</time>
      </trkpt>
      <trkpt lat="43.23127" lon="0.9124">
        <ele>374</ele>
        <time>2019-02-17T12:14:45.000Z</time>
      </trkpt>
      <trkpt lat="43.23127" lon="0.9124">
        <ele>374</ele>
        <time>2019-02-17T12:14:47.000Z</time>
      </trkpt>
      <trkpt lat="43.23128" lon="0.9124">
        <ele>374</ele>
        <time>2019-02-17T12:14:49.000Z</time>
      </trkpt>
      <trkpt lat="43.23128" lon="0.91241">
        <ele>374</ele>
        <time>2019-02-17T12:14:51.000Z</time>
      </trkpt>
      <trkpt lat="43.23128" lon="0.9124">
        <ele>374</ele>
        <time>2019-02-17T12:14:53.000Z</time>
      </trkpt>
      <trkpt lat="43.23128" lon="0.9124">
        <ele>374</ele>
        <time>2019-02-17T12:14:55.000Z</time>
      </trkpt>
      <trkpt lat="43.23128" lon="0.9124">
        <ele>374</ele>
        <time>2019-02-17T12:14:57.000Z</time>
      </trkpt>
      <trkpt lat="43.23128" lon="0.91241">
        <ele>374</ele>
        <time>2019-02-17T12:14:59.000Z</time>
      </trkpt>
      <trkpt lat="43.23127" lon="0.9124">
        <ele>374</ele>
        <time>2019-02-17T12:15:01.000Z</time>
      </trkpt>
      <trkpt lat="43.23128" lon="0.91241">
        <ele>374</ele>
        <time>2019-02-17T12:15:03.000Z</time>
      </trkpt>
      <trkpt lat="43.23127" lon="0.91242">
        <ele>374</ele>
        <time>2019-02-17T12:15:05.000Z</time>
      </trkpt>
      <trkpt lat="43.23127" lon="0.91242">
        <ele>374</ele>
        <time>2019-02-17T12:15:07.000Z</time>
      </trkpt>
      <trkpt lat="43.23127" lon="0.91242">
        <ele>374</ele>
        <time>2019-02-17T12:15:09.000Z</time>
      </trkpt>
      <trkpt lat="43.23126" lon="0.91243">
        <ele>374</ele>
        <time>2019-02-17T12:15:11.000Z</time>
      </trkpt>
      <trkpt lat="43.23126" lon="0.91244">
        <ele>374</ele>
        <time>2019-02-17T12:15:13.000Z</time>
      </trkpt>
      <trkpt lat="43.23126" lon="0.91245">
        <ele>374</ele>
        <time>2019-02-17T12:15:15.000Z</time>
      </trkpt>
      <trkpt lat="43.23126" lon="0.91246">
        <ele>374</ele>
        <time>2019-02-17T12:15:17.000Z</time>
      </trkpt>
      <trkpt lat="43.23125" lon="0.91246">
        <ele>374</ele>
        <time>2019-02-17T12:15:19.000Z</time>
      </trkpt>
      <trkpt lat="43.23126" lon="0.91246">
        <ele>374</ele>
        <time>2019-02-17T12:15:21.000Z</time>
      </trkpt>
      <trkpt lat="43.23126" lon="0.91247">
        <ele>374</ele>
        <time>2019-02-17T12:15:23.000Z</time>
      </trkpt>
      <trkpt lat="43.23126" lon="0.91247">
        <ele>374</ele>
        <time>2019-02-17T12:15:25.000Z</time>
      </trkpt>
      <trkpt lat="43.23125" lon="0.91247">
        <ele>374</ele>
        <time>2019-02-17T12:15:27.000Z</time>
      </trkpt>
      <trkpt lat="43.23126" lon="0.91247">
        <ele>374</ele>
        <time>2019-02-17T12:15:29.000Z</time>
      </trkpt>
      <trkpt lat="43.23126" lon="0.91247">
        <ele>374</ele>
        <time>2019-02-17T12:15:31.000Z</time>
      </trkpt>
      <trkpt lat="43.23126" lon="0.91247">
        <ele>374</ele>
        <time>2019-02-17T12:15:33.000Z</time>
      </trkpt>
      <trkpt lat="43.23126" lon="0.91247">
        <ele>374</ele>
        <time>2019-02-17T12:15:35.000Z</time>
      </trkpt>
      <trkpt lat="43.23126" lon="0.91247">
        <ele>374</ele>
        <time>2019-02-17T12:15:37.000Z</time>
      </trkpt>
      <trkpt lat="43.23126" lon="0.91247">
        <ele>374</ele>
        <time>2019-02-17T12:15:39.000Z</time>
      </trkpt>
      <trkpt lat="43.23126" lon="0.91248">
        <ele>374</ele>
        <time>2019-02-17T12:15:41.000Z</time>
      </trkpt>
      <trkpt lat="43.23126" lon="0.91248">
        <ele>374</ele>
        <time>2019-02-17T12:15:43.000Z</time>
      </trkpt>
      <trkpt lat="43.23126" lon="0.91249">
        <ele>374</ele>
        <time>2019-02-17T12:15:45.000Z</time>
      </trkpt>
      <trkpt lat="43.23126" lon="0.91249">
        <ele>374</ele>
        <time>2019-02-17T12:15:47.000Z</time>
      </trkpt>
      <trkpt lat="43.23126" lon="0.9125">
        <ele>374</ele>
        <time>2019-02-17T12:15:49.000Z</time>
      </trkpt>
      <trkpt lat="43.23126" lon="0.9125">
        <ele>374</ele>
        <time>2019-02-17T12:15:51.000Z</time>
      </trkpt>
      <trkpt lat="43.23126" lon="0.91251">
        <ele>374</ele>
        <time>2019-02-17T12:15:53.000Z</time>
      </trkpt>
      <trkpt lat="43.23126" lon="0.91251">
        <ele>374</ele>
        <time>2019-02-17T12:15:55.000Z</time>
      </trkpt>
      <trkpt lat="43.23125" lon="0.91251">
        <ele>374</ele>
        <time>2019-02-17T12:15:57.000Z</time>
      </trkpt>
      <trkpt lat="43.23124" lon="0.91252">
        <ele>374</ele>
        <time>2019-02-17T12:15:59.000Z</time>
      </trkpt>
      <trkpt lat="43.23124" lon="0.91253">
        <ele>374</ele>
        <time>2019-02-17T12:16:01.000Z</time>
      </trkpt>
      <trkpt lat="43.23122" lon="0.91252">
        <ele>374</ele>
        <time>2019-02-17T12:16:03.000Z</time>
      </trkpt>
      <trkpt lat="43.23121" lon="0.91252">
        <ele>374</ele>
        <time>2019-02-17T12:16:05.000Z</time>
      </trkpt>
      <trkpt lat="43.2312" lon="0.91252">
        <ele>374</ele>
        <time>2019-02-17T12:16:07.000Z</time>
      </trkpt>
      <trkpt lat="43.23119" lon="0.91253">
        <ele>375</ele>
        <time>2019-02-17T12:16:09.000Z</time>
      </trkpt>
      <trkpt lat="43.23119" lon="0.91255">
        <ele>375</ele>
        <time>2019-02-17T12:16:11.000Z</time>
      </trkpt>
      <trkpt lat="43.23118" lon="0.91257">
        <ele>375</ele>
        <time>2019-02-17T12:16:13.000Z</time>
      </trkpt>
      <trkpt lat="43.23117" lon="0.91258">
        <ele>375</ele>
        <time>2019-02-17T12:16:15.000Z</time>
      </trkpt>
      <trkpt lat="43.23115" lon="0.91259">
        <ele>376</ele>
        <time>2019-02-17T12:16:17.000Z</time>
      </trkpt>
      <trkpt lat="43.23114" lon="0.9126">
        <ele>376</ele>
        <time>2019-02-17T12:16:19.000Z</time>
      </trkpt>
      <trkpt lat="43.23113" lon="0.91261">
        <ele>376</ele>
        <time>2019-02-17T12:16:21.000Z</time>
      </trkpt>
      <trkpt lat="43.23113" lon="0.91262">
        <ele>376</ele>
        <time>2019-02-17T12:16:23.000Z</time>
      </trkpt>
      <trkpt lat="43.23112" lon="0.91261">
        <ele>376</ele>
        <time>2019-02-17T12:16:25.000Z</time>
      </trkpt>
      <trkpt lat="43.23112" lon="0.91261">
        <ele>376</ele>
        <time>2019-02-17T12:16:27.000Z</time>
      </trkpt>
      <trkpt lat="43.23112" lon="0.91261">
        <ele>376</ele>
        <time>2019-02-17T12:16:29.000Z</time>
      </trkpt>
      <trkpt lat="43.23112" lon="0.9126">
        <ele>376</ele>
        <time>2019-02-17T12:16:31.000Z</time>
      </trkpt>
      <trkpt lat="43.23113" lon="0.91259">
        <ele>376</ele>
        <time>2019-02-17T12:16:33.000Z</time>
      </trkpt>
      <trkpt lat="43.23113" lon="0.91259">
        <ele>376</ele>
        <time>2019-02-17T12:16:35.000Z</time>
      </trkpt>
      <trkpt lat="43.23113" lon="0.91259">
        <ele>376</ele>
        <time>2019-02-17T12:16:37.000Z</time>
      </trkpt>
      <trkpt lat="43.23113" lon="0.91258">
        <ele>376</ele>
        <time>2019-02-17T12:16:39.000Z</time>
      </trkpt>
      <trkpt lat="43.23113" lon="0.91258">
        <ele>376</ele>
        <time>2019-02-17T12:16:41.000Z</time>
      </trkpt>
      <trkpt lat="43.23112" lon="0.91258">
        <ele>376</ele>
        <time>2019-02-17T12:16:43.000Z</time>
      </trkpt>
      <trkpt lat="43.23112" lon="0.91258">
        <ele>376</ele>
        <time>2019-02-17T12:16:45.000Z</time>
      </trkpt>
      <trkpt lat="43.23112" lon="0.91258">
        <ele>376</ele>
        <time>2019-02-17T12:16:47.000Z</time>
      </trkpt>
      <trkpt lat="43.23112" lon="0.91259">
        <ele>376</ele>
        <time>2019-02-17T12:16:49.000Z</time>
      </trkpt>
      <trkpt lat="43.23112" lon="0.91258">
        <ele>376</ele>
        <time>2019-02-17T12:16:51.000Z</time>
      </trkpt>
      <trkpt lat="43.23112" lon="0.91258">
        <ele>376</ele>
        <time>2019-02-17T12:16:53.000Z</time>
      </trkpt>
      <trkpt lat="43.23115" lon="0.91258">
        <ele>375</ele>
        <time>2019-02-17T12:16:55.000Z</time>
      </trkpt>
      <trkpt lat="43.23116" lon="0.91258">
        <ele>375</ele>
        <time>2019-02-17T12:16:57.000Z</time>
      </trkpt>
      <trkpt lat="43.23117" lon="0.91257">
        <ele>375</ele>
        <time>2019-02-17T12:16:59.000Z</time>
      </trkpt>
      <trkpt lat="43.23119" lon="0.91256">
        <ele>375</ele>
        <time>2019-02-17T12:17:01.000Z</time>
      </trkpt>
      <trkpt lat="43.23119" lon="0.91256">
        <ele>375</ele>
        <time>2019-02-17T12:17:03.000Z</time>
      </trkpt>
      <trkpt lat="43.2312" lon="0.91256">
        <ele>375</ele>
        <time>2019-02-17T12:17:05.000Z</time>
      </trkpt>
      <trkpt lat="43.2312" lon="0.91256">
        <ele>375</ele>
        <time>2019-02-17T12:17:07.000Z</time>
      </trkpt>
      <trkpt lat="43.2312" lon="0.91256">
        <ele>375</ele>
        <time>2019-02-17T12:17:09.000Z</time>
      </trkpt>
      <trkpt lat="43.2312" lon="0.91257">
        <ele>375</ele>
        <time>2019-02-17T12:17:11.000Z</time>
      </trkpt>
      <trkpt lat="43.2312" lon="0.91257">
        <ele>375</ele>
        <time>2019-02-17T12:17:13.000Z</time>
      </trkpt>
      <trkpt lat="43.2312" lon="0.91256">
        <ele>375</ele>
        <time>2019-02-17T12:17:15.000Z</time>
      </trkpt>
      <trkpt lat="43.23119" lon="0.91255">
        <ele>375</ele>
        <time>2019-02-17T12:17:17.000Z</time>
      </trkpt>
      <trkpt lat="43.23119" lon="0.91254">
        <ele>375</ele>
        <time>2019-02-17T12:17:19.000Z</time>
      </trkpt>
      <trkpt lat="43.23118" lon="0.91252">
        <ele>374</ele>
        <time>2019-02-17T12:17:21.000Z</time>
      </trkpt>
      <trkpt lat="43.23118" lon="0.9125">
        <ele>374</ele>
        <time>2019-02-17T12:17:23.000Z</time>
      </trkpt>
      <trkpt lat="43.23118" lon="0.91248">
        <ele>374</ele>
        <time>2019-02-17T12:17:25.000Z</time>
      </trkpt>
      <trkpt lat="43.23118" lon="0.91247">
        <ele>374</ele>
        <time>2019-02-17T12:17:27.000Z</time>
      </trkpt>
      <trkpt lat="43.23118" lon="0.91246">
        <ele>374</ele>
        <time>2019-02-17T12:17:29.000Z</time>
      </trkpt>
      <trkpt lat="43.23118" lon="0.91245">
        <ele>374</ele>
        <time>2019-02-17T12:17:31.000Z</time>
      </trkpt>
      <trkpt lat="43.23118" lon="0.91245">
        <ele>374</ele>
        <time>2019-02-17T12:17:33.000Z</time>
      </trkpt>
      <trkpt lat="43.23118" lon="0.91246">
        <ele>374</ele>
        <time>2019-02-17T12:17:35.000Z</time>
      </trkpt>
      <trkpt lat="43.23118" lon="0.91247">
        <ele>374</ele>
        <time>2019-02-17T12:17:37.000Z</time>
      </trkpt>
      <trkpt lat="43.23119" lon="0.9125">
        <ele>374</ele>
        <time>2019-02-17T12:17:39.000Z</time>
      </trkpt>
      <trkpt lat="43.23118" lon="0.91254">
        <ele>375</ele>
        <time>2019-02-17T12:17:41.000Z</time>
      </trkpt>
      <trkpt lat="43.23117" lon="0.91257">
        <ele>375</ele>
        <time>2019-02-17T12:17:43.000Z</time>
      </trkpt>
      <trkpt lat="43.23116" lon="0.91261">
        <ele>376</ele>
        <time>2019-02-17T12:17:45.000Z</time>
      </trkpt>
      <trkpt lat="43.23115" lon="0.91263">
        <ele>376</ele>
        <time>2019-02-17T12:17:47.000Z</time>
      </trkpt>
      <trkpt lat="43.23112" lon="0.91266">
        <ele>377</ele>
        <time>2019-02-17T12:17:49.000Z</time>
      </trkpt>
      <trkpt lat="43.23111" lon="0.91268">
        <ele>377</ele>
        <time>2019-02-17T12:17:51.000Z</time>
      </trkpt>
      <trkpt lat="43.23109" lon="0.91271">
        <ele>378</ele>
        <time>2019-02-17T12:17:53.000Z</time>
      </trkpt>
      <trkpt lat="43.23107" lon="0.91273">
        <ele>378</ele>
        <time>2019-02-17T12:17:55.000Z</time>
      </trkpt>
      <trkpt lat="43.23106" lon="0.91275">
        <ele>378</ele>
        <time>2019-02-17T12:17:57.000Z</time>
      </trkpt>
      <trkpt lat="43.23104" lon="0.91277">
        <ele>379</ele>
        <time>2019-02-17T12:17:59.000Z</time>
      </trkpt>
      <trkpt lat="43.23103" lon="0.91278">
        <ele>379</ele>
        <time>2019-02-17T12:18:01.000Z</time>
      </trkpt>
      <trkpt lat="43.23101" lon="0.9128">
        <ele>379</ele>
        <time>2019-02-17T12:18:03.000Z</time>
      </trkpt>
      <trkpt lat="43.23099" lon="0.91281">
        <ele>380</ele>
        <time>2019-02-17T12:18:05.000Z</time>
      </trkpt>
      <trkpt lat="43.23097" lon="0.91283">
        <ele>380</ele>
        <time>2019-02-17T12:18:07.000Z</time>
      </trkpt>
      <trkpt lat="43.23095" lon="0.91285">
        <ele>380</ele>
        <time>2019-02-17T12:18:09.000Z</time>
      </trkpt>
      <trkpt lat="43.23094" lon="0.91287">
        <ele>381</ele>
        <time>2019-02-17T12:18:11.000Z</time>
      </trkpt>
      <trkpt lat="43.23093" lon="0.91288">
        <ele>381</ele>
        <time>2019-02-17T12:18:13.000Z</time>
      </trkpt>
      <trkpt lat="43.23092" lon="0.9129">
        <ele>381</ele>
        <time>2019-02-17T12:18:15.000Z</time>
      </trkpt>
      <trkpt lat="43.23091" lon="0.91292">
        <ele>381</ele>
        <time>2019-02-17T12:18:17.000Z</time>
      </trkpt>
      <trkpt lat="43.2309" lon="0.91294">
        <ele>382</ele>
        <time>2019-02-17T12:18:19.000Z</time>
      </trkpt>
      <trkpt lat="43.23088" lon="0.91295">
        <ele>382</ele>
        <time>2019-02-17T12:18:21.000Z</time>
      </trkpt>
      <trkpt lat="43.23087" lon="0.91296">
        <ele>382</ele>
        <time>2019-02-17T12:18:23.000Z</time>
      </trkpt>
      <trkpt lat="43.23086" lon="0.91298">
        <ele>382</ele>
        <time>2019-02-17T12:18:25.000Z</time>
      </trkpt>
      <trkpt lat="43.23085" lon="0.913">
        <ele>382</ele>
        <time>2019-02-17T12:18:27.000Z</time>
      </trkpt>
      <trkpt lat="43.23083" lon="0.91301">
        <ele>383</ele>
        <time>2019-02-17T12:18:29.000Z</time>
      </trkpt>
      <trkpt lat="43.23082" lon="0.91303">
        <ele>383</ele>
        <time>2019-02-17T12:18:31.000Z</time>
      </trkpt>
      <trkpt lat="43.23081" lon="0.91304">
        <ele>383</ele>
        <time>2019-02-17T12:18:33.000Z</time>
      </trkpt>
      <trkpt lat="43.23079" lon="0.91306">
        <ele>383</ele>
        <time>2019-02-17T12:18:35.000Z</time>
      </trkpt>
      <trkpt lat="43.23077" lon="0.91307">
        <ele>383</ele>
        <time>2019-02-17T12:18:37.000Z</time>
      </trkpt>
      <trkpt lat="43.23075" lon="0.91308">
        <ele>383</ele>
        <time>2019-02-17T12:18:39.000Z</time>
      </trkpt>
      <trkpt lat="43.23074" lon="0.91309">
        <ele>383</ele>
        <time>2019-02-17T12:18:41.000Z</time>
      </trkpt>
      <trkpt lat="43.23072" lon="0.9131">
        <ele>383</ele>
        <time>2019-02-17T12:18:43.000Z</time>
      </trkpt>
      <trkpt lat="43.23071" lon="0.9131">
        <ele>383</ele>
        <time>2019-02-17T12:18:45.000Z</time>
      </trkpt>
      <trkpt lat="43.23069" lon="0.9131">
        <ele>383</ele>
        <time>2019-02-17T12:18:47.000Z</time>
      </trkpt>
      <trkpt lat="43.23068" lon="0.9131">
        <ele>383</ele>
        <time>2019-02-17T12:18:49.000Z</time>
      </trkpt>
      <trkpt lat="43.23067" lon="0.9131">
        <ele>383</ele>
        <time>2019-02-17T12:18:51.000Z</time>
      </trkpt>
      <trkpt lat="43.23066" lon="0.9131">
        <ele>383</ele>
        <time>2019-02-17T12:18:53.000Z</time>
      </trkpt>
      <trkpt lat="43.23065" lon="0.9131">
        <ele>383</ele>
        <time>2019-02-17T12:18:55.000Z</time>
      </trkpt>
      <trkpt lat="43.23064" lon="0.9131">
        <ele>383</ele>
        <time>2019-02-17T12:18:57.000Z</time>
      </trkpt>
      <trkpt lat="43.23062" lon="0.9131">
        <ele>383</ele>
        <time>2019-02-17T12:18:59.000Z</time>
      </trkpt>
      <trkpt lat="43.23061" lon="0.9131">
        <ele>383</ele>
        <time>2019-02-17T12:19:01.000Z</time>
      </trkpt>
      <trkpt lat="43.2306" lon="0.9131">
        <ele>383</ele>
        <time>2019-02-17T12:19:03.000Z</time>
      </trkpt>
      <trkpt lat="43.23059" lon="0.91309">
        <ele>383</ele>
        <time>2019-02-17T12:19:05.000Z</time>
      </trkpt>
      <trkpt lat="43.23058" lon="0.91308">
        <ele>383</ele>
        <time>2019-02-17T12:19:07.000Z</time>
      </trkpt>
      <trkpt lat="43.23055" lon="0.91306">
        <ele>383</ele>
        <time>2019-02-17T12:19:09.000Z</time>
      </trkpt>
      <trkpt lat="43.23052" lon="0.91306">
        <ele>383</ele>
        <time>2019-02-17T12:19:11.000Z</time>
      </trkpt>
      <trkpt lat="43.2305" lon="0.91305">
        <ele>383</ele>
        <time>2019-02-17T12:19:13.000Z</time>
      </trkpt>
      <trkpt lat="43.23048" lon="0.91304">
        <ele>383</ele>
        <time>2019-02-17T12:19:15.000Z</time>
      </trkpt>
      <trkpt lat="43.23046" lon="0.91303">
        <ele>383</ele>
        <time>2019-02-17T12:19:17.000Z</time>
      </trkpt>
      <trkpt lat="43.23045" lon="0.91302">
        <ele>383</ele>
        <time>2019-02-17T12:19:19.000Z</time>
      </trkpt>
      <trkpt lat="43.23044" lon="0.91301">
        <ele>383</ele>
        <time>2019-02-17T12:19:21.000Z</time>
      </trkpt>
      <trkpt lat="43.23042" lon="0.913">
        <ele>383</ele>
        <time>2019-02-17T12:19:23.000Z</time>
      </trkpt>
      <trkpt lat="43.2304" lon="0.913">
        <ele>382</ele>
        <time>2019-02-17T12:19:25.000Z</time>
      </trkpt>
      <trkpt lat="43.23038" lon="0.913">
        <ele>382</ele>
        <time>2019-02-17T12:19:27.000Z</time>
      </trkpt>
      <trkpt lat="43.23036" lon="0.91299">
        <ele>382</ele>
        <time>2019-02-17T12:19:29.000Z</time>
      </trkpt>
      <trkpt lat="43.23033" lon="0.91298">
        <ele>382</ele>
        <time>2019-02-17T12:19:31.000Z</time>
      </trkpt>
      <trkpt lat="43.23029" lon="0.91298">
        <ele>382</ele>
        <time>2019-02-17T12:19:33.000Z</time>
      </trkpt>
      <trkpt lat="43.23026" lon="0.91297">
        <ele>382</ele>
        <time>2019-02-17T12:19:35.000Z</time>
      </trkpt>
      <trkpt lat="43.23023" lon="0.91297">
        <ele>382</ele>
        <time>2019-02-17T12:19:37.000Z</time>
      </trkpt>
      <trkpt lat="43.23021" lon="0.91297">
        <ele>382</ele>
        <time>2019-02-17T12:19:39.000Z</time>
      </trkpt>
      <trkpt lat="43.23019" lon="0.91297">
        <ele>382</ele>
        <time>2019-02-17T12:19:41.000Z</time>
      </trkpt>
      <trkpt lat="43.23018" lon="0.91297">
        <ele>382</ele>
        <time>2019-02-17T12:19:43.000Z</time>
      </trkpt>
      <trkpt lat="43.23015" lon="0.91297">
        <ele>382</ele>
        <time>2019-02-17T12:19:45.000Z</time>
      </trkpt>
      <trkpt lat="43.23014" lon="0.91297">
        <ele>382</ele>
        <time>2019-02-17T12:19:47.000Z</time>
      </trkpt>
      <trkpt lat="43.23012" lon="0.91297">
        <ele>382</ele>
        <time>2019-02-17T12:19:49.000Z</time>
      </trkpt>
      <trkpt lat="43.23011" lon="0.91297">
        <ele>382</ele>
        <time>2019-02-17T12:19:51.000Z</time>
      </trkpt>
      <trkpt lat="43.23009" lon="0.91298">
        <ele>382</ele>
        <time>2019-02-17T12:19:53.000Z</time>
      </trkpt>
      <trkpt lat="43.23007" lon="0.91298">
        <ele>382</ele>
        <time>2019-02-17T12:19:55.000Z</time>
      </trkpt>
      <trkpt lat="43.23005" lon="0.91298">
        <ele>382</ele>
        <time>2019-02-17T12:19:57.000Z</time>
      </trkpt>
      <trkpt lat="43.23003" lon="0.91298">
        <ele>382</ele>
        <time>2019-02-17T12:19:59.000Z</time>
      </trkpt>
      <trkpt lat="43.23001" lon="0.91297">
        <ele>382</ele>
        <time>2019-02-17T12:20:01.000Z</time>
      </trkpt>
      <trkpt lat="43.22999" lon="0.91298">
        <ele>382</ele>
        <time>2019-02-17T12:20:03.000Z</time>
      </trkpt>
      <trkpt lat="43.22997" lon="0.91297">
        <ele>382</ele>
        <time>2019-02-17T12:20:05.000Z</time>
      </trkpt>
      <trkpt lat="43.22995" lon="0.91298">
        <ele>382</ele>
        <time>2019-02-17T12:20:07.000Z</time>
      </trkpt>
      <trkpt lat="43.22992" lon="0.91298">
        <ele>382</ele>
        <time>2019-02-17T12:20:09.000Z</time>
      </trkpt>
      <trkpt lat="43.22989" lon="0.91298">
        <ele>382</ele>
        <time>2019-02-17T12:20:11.000Z</time>
      </trkpt>
      <trkpt lat="43.22987" lon="0.91298">
        <ele>382</ele>
        <time>2019-02-17T12:20:13.000Z</time>
      </trkpt>
      <trkpt lat="43.22985" lon="0.91298">
        <ele>381</ele>
        <time>2019-02-17T12:20:15.000Z</time>
      </trkpt>
      <trkpt lat="43.22984" lon="0.91298">
        <ele>381</ele>
        <time>2019-02-17T12:20:17.000Z</time>
      </trkpt>
      <trkpt lat="43.22982" lon="0.91299">
        <ele>381</ele>
        <time>2019-02-17T12:20:19.000Z</time>
      </trkpt>
      <trkpt lat="43.22981" lon="0.91299">
        <ele>381</ele>
        <time>2019-02-17T12:20:21.000Z</time>
      </trkpt>
      <trkpt lat="43.2298" lon="0.913">
        <ele>381</ele>
        <time>2019-02-17T12:20:23.000Z</time>
      </trkpt>
      <trkpt lat="43.22978" lon="0.91299">
        <ele>381</ele>
        <time>2019-02-17T12:20:25.000Z</time>
      </trkpt>
      <trkpt lat="43.22977" lon="0.91299">
        <ele>381</ele>
        <time>2019-02-17T12:20:27.000Z</time>
      </trkpt>
      <trkpt lat="43.22975" lon="0.91298">
        <ele>381</ele>
        <time>2019-02-17T12:20:29.000Z</time>
      </trkpt>
      <trkpt lat="43.22973" lon="0.91298">
        <ele>381</ele>
        <time>2019-02-17T12:20:31.000Z</time>
      </trkpt>
      <trkpt lat="43.2297" lon="0.91299">
        <ele>380</ele>
        <time>2019-02-17T12:20:33.000Z</time>
      </trkpt>
      <trkpt lat="43.22968" lon="0.91299">
        <ele>380</ele>
        <time>2019-02-17T12:20:35.000Z</time>
      </trkpt>
      <trkpt lat="43.22966" lon="0.913">
        <ele>380</ele>
        <time>2019-02-17T12:20:37.000Z</time>
      </trkpt>
      <trkpt lat="43.22964" lon="0.913">
        <ele>380</ele>
        <time>2019-02-17T12:20:39.000Z</time>
      </trkpt>
      <trkpt lat="43.22962" lon="0.91301">
        <ele>380</ele>
        <time>2019-02-17T12:20:41.000Z</time>
      </trkpt>
      <trkpt lat="43.2296" lon="0.91302">
        <ele>380</ele>
        <time>2019-02-17T12:20:43.000Z</time>
      </trkpt>
      <trkpt lat="43.22958" lon="0.91303">
        <ele>380</ele>
        <time>2019-02-17T12:20:45.000Z</time>
      </trkpt>
      <trkpt lat="43.22956" lon="0.91304">
        <ele>380</ele>
        <time>2019-02-17T12:20:47.000Z</time>
      </trkpt>
      <trkpt lat="43.22954" lon="0.91304">
        <ele>379</ele>
        <time>2019-02-17T12:20:49.000Z</time>
      </trkpt>
      <trkpt lat="43.22952" lon="0.91305">
        <ele>379</ele>
        <time>2019-02-17T12:20:51.000Z</time>
      </trkpt>
      <trkpt lat="43.2295" lon="0.91306">
        <ele>379</ele>
        <time>2019-02-17T12:20:53.000Z</time>
      </trkpt>
      <trkpt lat="43.22948" lon="0.91307">
        <ele>379</ele>
        <time>2019-02-17T12:20:55.000Z</time>
      </trkpt>
      <trkpt lat="43.22946" lon="0.91308">
        <ele>379</ele>
        <time>2019-02-17T12:20:57.000Z</time>
      </trkpt>
      <trkpt lat="43.22944" lon="0.91308">
        <ele>379</ele>
        <time>2019-02-17T12:20:59.000Z</time>
      </trkpt>
      <trkpt lat="43.22942" lon="0.91309">
        <ele>379</ele>
        <time>2019-02-17T12:21:01.000Z</time>
      </trkpt>
      <trkpt lat="43.2294" lon="0.9131">
        <ele>379</ele>
        <time>2019-02-17T12:21:03.000Z</time>
      </trkpt>
      <trkpt lat="43.22939" lon="0.91311">
        <ele>379</ele>
        <time>2019-02-17T12:21:05.000Z</time>
      </trkpt>
      <trkpt lat="43.22937" lon="0.91312">
        <ele>379</ele>
        <time>2019-02-17T12:21:07.000Z</time>
      </trkpt>
      <trkpt lat="43.22935" lon="0.91313">
        <ele>379</ele>
        <time>2019-02-17T12:21:09.000Z</time>
      </trkpt>
      <trkpt lat="43.22933" lon="0.91314">
        <ele>379</ele>
        <time>2019-02-17T12:21:11.000Z</time>
      </trkpt>
      <trkpt lat="43.22931" lon="0.91314">
        <ele>378</ele>
        <time>2019-02-17T12:21:13.000Z</time>
      </trkpt>
      <trkpt lat="43.22929" lon="0.91314">
        <ele>378</ele>
        <time>2019-02-17T12:21:15.000Z</time>
      </trkpt>
      <trkpt lat="43.22928" lon="0.91314">
        <ele>378</ele>
        <time>2019-02-17T12:21:17.000Z</time>
      </trkpt>
      <trkpt lat="43.22926" lon="0.91314">
        <ele>378</ele>
        <time>2019-02-17T12:21:19.000Z</time>
      </trkpt>
      <trkpt lat="43.22925" lon="0.91314">
        <ele>378</ele>
        <time>2019-02-17T12:21:21.000Z</time>
      </trkpt>
      <trkpt lat="43.22924" lon="0.91314">
        <ele>378</ele>
        <time>2019-02-17T12:21:23.000Z</time>
      </trkpt>
      <trkpt lat="43.22924" lon="0.91314">
        <ele>378</ele>
        <time>2019-02-17T12:21:25.000Z</time>
      </trkpt>
      <trkpt lat="43.22924" lon="0.91314">
        <ele>378</ele>
        <time>2019-02-17T12:21:27.000Z</time>
      </trkpt>
      <trkpt lat="43.22924" lon="0.91315">
        <ele>378</ele>
        <time>2019-02-17T12:21:29.000Z</time>
      </trkpt>
      <trkpt lat="43.22924" lon="0.91316">
        <ele>378</ele>
        <time>2019-02-17T12:21:31.000Z</time>
      </trkpt>
      <trkpt lat="43.22923" lon="0.91317">
        <ele>378</ele>
        <time>2019-02-17T12:21:33.000Z</time>
      </trkpt>
      <trkpt lat="43.22923" lon="0.91318">
        <ele>378</ele>
        <time>2019-02-17T12:21:35.000Z</time>
      </trkpt>
      <trkpt lat="43.22922" lon="0.91319">
        <ele>378</ele>
        <time>2019-02-17T12:21:37.000Z</time>
      </trkpt>
      <trkpt lat="43.22921" lon="0.91319">
        <ele>378</ele>
        <time>2019-02-17T12:21:39.000Z</time>
      </trkpt>
      <trkpt lat="43.22921" lon="0.91319">
        <ele>378</ele>
        <time>2019-02-17T12:21:41.000Z</time>
      </trkpt>
      <trkpt lat="43.2292" lon="0.91319">
        <ele>378</ele>
        <time>2019-02-17T12:21:43.000Z</time>
      </trkpt>
      <trkpt lat="43.22919" lon="0.9132">
        <ele>378</ele>
        <time>2019-02-17T12:21:45.000Z</time>
      </trkpt>
      <trkpt lat="43.22918" lon="0.91322">
        <ele>377</ele>
        <time>2019-02-17T12:21:47.000Z</time>
      </trkpt>
      <trkpt lat="43.22916" lon="0.91325">
        <ele>377</ele>
        <time>2019-02-17T12:21:49.000Z</time>
      </trkpt>
      <trkpt lat="43.22916" lon="0.91326">
        <ele>377</ele>
        <time>2019-02-17T12:21:51.000Z</time>
      </trkpt>
      <trkpt lat="43.22915" lon="0.91328">
        <ele>377</ele>
        <time>2019-02-17T12:21:53.000Z</time>
      </trkpt>
      <trkpt lat="43.22914" lon="0.91331">
        <ele>377</ele>
        <time>2019-02-17T12:21:55.000Z</time>
      </trkpt>
      <trkpt lat="43.22913" lon="0.91333">
        <ele>377</ele>
        <time>2019-02-17T12:21:57.000Z</time>
      </trkpt>
      <trkpt lat="43.22912" lon="0.91335">
        <ele>377</ele>
        <time>2019-02-17T12:21:59.000Z</time>
      </trkpt>
      <trkpt lat="43.2291" lon="0.91336">
        <ele>377</ele>
        <time>2019-02-17T12:22:01.000Z</time>
      </trkpt>
      <trkpt lat="43.22909" lon="0.91338">
        <ele>377</ele>
        <time>2019-02-17T12:22:03.000Z</time>
      </trkpt>
      <trkpt lat="43.22907" lon="0.9134">
        <ele>377</ele>
        <time>2019-02-17T12:22:05.000Z</time>
      </trkpt>
      <trkpt lat="43.22906" lon="0.91342">
        <ele>377</ele>
        <time>2019-02-17T12:22:07.000Z</time>
      </trkpt>
      <trkpt lat="43.22904" lon="0.91343">
        <ele>377</ele>
        <time>2019-02-17T12:22:09.000Z</time>
      </trkpt>
      <trkpt lat="43.22902" lon="0.91344">
        <ele>377</ele>
        <time>2019-02-17T12:22:11.000Z</time>
      </trkpt>
      <trkpt lat="43.229" lon="0.91345">
        <ele>377</ele>
        <time>2019-02-17T12:22:13.000Z</time>
      </trkpt>
      <trkpt lat="43.22898" lon="0.91346">
        <ele>376</ele>
        <time>2019-02-17T12:22:15.000Z</time>
      </trkpt>
      <trkpt lat="43.22896" lon="0.91347">
        <ele>376</ele>
        <time>2019-02-17T12:22:17.000Z</time>
      </trkpt>
      <trkpt lat="43.22894" lon="0.91348">
        <ele>376</ele>
        <time>2019-02-17T12:22:19.000Z</time>
      </trkpt>
      <trkpt lat="43.22892" lon="0.91349">
        <ele>376</ele>
        <time>2019-02-17T12:22:21.000Z</time>
      </trkpt>
      <trkpt lat="43.2289" lon="0.91349">
        <ele>376</ele>
        <time>2019-02-17T12:22:23.000Z</time>
      </trkpt>
      <trkpt lat="43.22888" lon="0.9135">
        <ele>376</ele>
        <time>2019-02-17T12:22:25.000Z</time>
      </trkpt>
      <trkpt lat="43.22886" lon="0.9135">
        <ele>375</ele>
        <time>2019-02-17T12:22:27.000Z</time>
      </trkpt>
      <trkpt lat="43.22884" lon="0.91351">
        <ele>375</ele>
        <time>2019-02-17T12:22:29.000Z</time>
      </trkpt>
      <trkpt lat="43.22882" lon="0.91352">
        <ele>375</ele>
        <time>2019-02-17T12:22:31.000Z</time>
      </trkpt>
      <trkpt lat="43.2288" lon="0.91352">
        <ele>375</ele>
        <time>2019-02-17T12:22:33.000Z</time>
      </trkpt>
      <trkpt lat="43.22878" lon="0.91353">
        <ele>374</ele>
        <time>2019-02-17T12:22:35.000Z</time>
      </trkpt>
      <trkpt lat="43.22876" lon="0.91354">
        <ele>374</ele>
        <time>2019-02-17T12:22:37.000Z</time>
      </trkpt>
      <trkpt lat="43.22874" lon="0.91354">
        <ele>374</ele>
        <time>2019-02-17T12:22:39.000Z</time>
      </trkpt>
      <trkpt lat="43.22872" lon="0.91355">
        <ele>374</ele>
        <time>2019-02-17T12:22:41.000Z</time>
      </trkpt>
      <trkpt lat="43.22869" lon="0.91356">
        <ele>373</ele>
        <time>2019-02-17T12:22:44.000Z</time>
      </trkpt>
      <trkpt lat="43.22868" lon="0.91357">
        <ele>373</ele>
        <time>2019-02-17T12:22:46.000Z</time>
      </trkpt>
      <trkpt lat="43.22866" lon="0.91358">
        <ele>373</ele>
        <time>2019-02-17T12:22:48.000Z</time>
      </trkpt>
      <trkpt lat="43.22864" lon="0.91359">
        <ele>373</ele>
        <time>2019-02-17T12:22:50.000Z</time>
      </trkpt>
      <trkpt lat="43.22862" lon="0.91359">
        <ele>372</ele>
        <time>2019-02-17T12:22:52.000Z</time>
      </trkpt>
      <trkpt lat="43.22861" lon="0.9136">
        <ele>372</ele>
        <time>2019-02-17T12:22:54.000Z</time>
      </trkpt>
      <trkpt lat="43.2286" lon="0.9136">
        <ele>372</ele>
        <time>2019-02-17T12:22:56.000Z</time>
      </trkpt>
      <trkpt lat="43.22858" lon="0.91361">
        <ele>372</ele>
        <time>2019-02-17T12:22:58.000Z</time>
      </trkpt>
      <trkpt lat="43.22858" lon="0.91361">
        <ele>372</ele>
        <time>2019-02-17T12:23:00.000Z</time>
      </trkpt>
      <trkpt lat="43.22856" lon="0.91362">
        <ele>372</ele>
        <time>2019-02-17T12:23:02.000Z</time>
      </trkpt>
      <trkpt lat="43.22854" lon="0.91363">
        <ele>371</ele>
        <time>2019-02-17T12:23:04.000Z</time>
      </trkpt>
      <trkpt lat="43.22853" lon="0.91364">
        <ele>371</ele>
        <time>2019-02-17T12:23:06.000Z</time>
      </trkpt>
      <trkpt lat="43.22852" lon="0.91365">
        <ele>371</ele>
        <time>2019-02-17T12:23:08.000Z</time>
      </trkpt>
      <trkpt lat="43.2285" lon="0.91366">
        <ele>371</ele>
        <time>2019-02-17T12:23:10.000Z</time>
      </trkpt>
      <trkpt lat="43.22849" lon="0.91366">
        <ele>371</ele>
        <time>2019-02-17T12:23:12.000Z</time>
      </trkpt>
      <trkpt lat="43.22847" lon="0.91367">
        <ele>370</ele>
        <time>2019-02-17T12:23:14.000Z</time>
      </trkpt>
      <trkpt lat="43.22845" lon="0.91368">
        <ele>370</ele>
        <time>2019-02-17T12:23:16.000Z</time>
      </trkpt>
      <trkpt lat="43.22843" lon="0.91369">
        <ele>370</ele>
        <time>2019-02-17T12:23:18.000Z</time>
      </trkpt>
      <trkpt lat="43.22841" lon="0.91369">
        <ele>370</ele>
        <time>2019-02-17T12:23:20.000Z</time>
      </trkpt>
      <trkpt lat="43.22839" lon="0.9137">
        <ele>370</ele>
        <time>2019-02-17T12:23:22.000Z</time>
      </trkpt>
      <trkpt lat="43.22838" lon="0.91371">
        <ele>370</ele>
        <time>2019-02-17T12:23:24.000Z</time>
      </trkpt>
      <trkpt lat="43.22836" lon="0.91371">
        <ele>369</ele>
        <time>2019-02-17T12:23:26.000Z</time>
      </trkpt>
      <trkpt lat="43.22834" lon="0.91372">
        <ele>369</ele>
        <time>2019-02-17T12:23:28.000Z</time>
      </trkpt>
      <trkpt lat="43.22833" lon="0.91372">
        <ele>369</ele>
        <time>2019-02-17T12:23:30.000Z</time>
      </trkpt>
      <trkpt lat="43.22831" lon="0.91373">
        <ele>369</ele>
        <time>2019-02-17T12:23:32.000Z</time>
      </trkpt>
      <trkpt lat="43.22829" lon="0.91374">
        <ele>369</ele>
        <time>2019-02-17T12:23:34.000Z</time>
      </trkpt>
      <trkpt lat="43.22828" lon="0.91375">
        <ele>369</ele>
        <time>2019-02-17T12:23:36.000Z</time>
      </trkpt>
      <trkpt lat="43.22827" lon="0.91375">
        <ele>368</ele>
        <time>2019-02-17T12:23:38.000Z</time>
      </trkpt>
      <trkpt lat="43.22824" lon="0.91376">
        <ele>368</ele>
        <time>2019-02-17T12:23:40.000Z</time>
      </trkpt>
      <trkpt lat="43.22823" lon="0.91376">
        <ele>368</ele>
        <time>2019-02-17T12:23:42.000Z</time>
      </trkpt>
      <trkpt lat="43.22821" lon="0.91375">
        <ele>368</ele>
        <time>2019-02-17T12:23:44.000Z</time>
      </trkpt>
      <trkpt lat="43.22819" lon="0.91375">
        <ele>368</ele>
        <time>2019-02-17T12:23:46.000Z</time>
      </trkpt>
      <trkpt lat="43.22817" lon="0.91374">
        <ele>368</ele>
        <time>2019-02-17T12:23:48.000Z</time>
      </trkpt>
      <trkpt lat="43.22815" lon="0.91374">
        <ele>367</ele>
        <time>2019-02-17T12:23:50.000Z</time>
      </trkpt>
      <trkpt lat="43.22813" lon="0.91373">
        <ele>367</ele>
        <time>2019-02-17T12:23:52.000Z</time>
      </trkpt>
      <trkpt lat="43.22811" lon="0.91373">
        <ele>367</ele>
        <time>2019-02-17T12:23:54.000Z</time>
      </trkpt>
      <trkpt lat="43.22809" lon="0.91373">
        <ele>367</ele>
        <time>2019-02-17T12:23:56.000Z</time>
      </trkpt>
      <trkpt lat="43.22807" lon="0.91372">
        <ele>367</ele>
        <time>2019-02-17T12:23:58.000Z</time>
      </trkpt>
      <trkpt lat="43.22806" lon="0.91372">
        <ele>366</ele>
        <time>2019-02-17T12:24:00.000Z</time>
      </trkpt>
      <trkpt lat="43.22804" lon="0.91371">
        <ele>366</ele>
        <time>2019-02-17T12:24:02.000Z</time>
      </trkpt>
      <trkpt lat="43.22802" lon="0.9137">
        <ele>366</ele>
        <time>2019-02-17T12:24:04.000Z</time>
      </trkpt>
      <trkpt lat="43.22801" lon="0.9137">
        <ele>366</ele>
        <time>2019-02-17T12:24:06.000Z</time>
      </trkpt>
      <trkpt lat="43.22799" lon="0.91369">
        <ele>366</ele>
        <time>2019-02-17T12:24:08.000Z</time>
      </trkpt>
      <trkpt lat="43.22798" lon="0.91368">
        <ele>366</ele>
        <time>2019-02-17T12:24:10.000Z</time>
      </trkpt>
      <trkpt lat="43.22796" lon="0.91368">
        <ele>366</ele>
        <time>2019-02-17T12:24:12.000Z</time>
      </trkpt>
      <trkpt lat="43.22795" lon="0.91367">
        <ele>365</ele>
        <time>2019-02-17T12:24:14.000Z</time>
      </trkpt>
      <trkpt lat="43.22793" lon="0.91366">
        <ele>365</ele>
        <time>2019-02-17T12:24:16.000Z</time>
      </trkpt>
      <trkpt lat="43.22792" lon="0.91364">
        <ele>365</ele>
        <time>2019-02-17T12:24:18.000Z</time>
      </trkpt>
      <trkpt lat="43.2279" lon="0.91363">
        <ele>365</ele>
        <time>2019-02-17T12:24:20.000Z</time>
      </trkpt>
      <trkpt lat="43.22789" lon="0.91363">
        <ele>365</ele>
        <time>2019-02-17T12:24:22.000Z</time>
      </trkpt>
      <trkpt lat="43.22787" lon="0.91362">
        <ele>365</ele>
        <time>2019-02-17T12:24:24.000Z</time>
      </trkpt>
      <trkpt lat="43.22786" lon="0.91361">
        <ele>365</ele>
        <time>2019-02-17T12:24:26.000Z</time>
      </trkpt>
      <trkpt lat="43.22784" lon="0.91361">
        <ele>364</ele>
        <time>2019-02-17T12:24:28.000Z</time>
      </trkpt>
      <trkpt lat="43.22782" lon="0.9136">
        <ele>364</ele>
        <time>2019-02-17T12:24:30.000Z</time>
      </trkpt>
      <trkpt lat="43.22781" lon="0.9136">
        <ele>364</ele>
        <time>2019-02-17T12:24:32.000Z</time>
      </trkpt>
      <trkpt lat="43.22779" lon="0.91359">
        <ele>364</ele>
        <time>2019-02-17T12:24:34.000Z</time>
      </trkpt>
      <trkpt lat="43.22777" lon="0.91358">
        <ele>364</ele>
        <time>2019-02-17T12:24:36.000Z</time>
      </trkpt>
      <trkpt lat="43.22776" lon="0.91359">
        <ele>364</ele>
        <time>2019-02-17T12:24:38.000Z</time>
      </trkpt>
      <trkpt lat="43.22774" lon="0.91359">
        <ele>363</ele>
        <time>2019-02-17T12:24:40.000Z</time>
      </trkpt>
      <trkpt lat="43.22773" lon="0.91359">
        <ele>363</ele>
        <time>2019-02-17T12:24:42.000Z</time>
      </trkpt>
      <trkpt lat="43.22771" lon="0.91359">
        <ele>363</ele>
        <time>2019-02-17T12:24:44.000Z</time>
      </trkpt>
      <trkpt lat="43.2277" lon="0.9136">
        <ele>363</ele>
        <time>2019-02-17T12:24:46.000Z</time>
      </trkpt>
      <trkpt lat="43.22768" lon="0.91361">
        <ele>363</ele>
        <time>2019-02-17T12:24:48.000Z</time>
      </trkpt>
      <trkpt lat="43.22767" lon="0.91361">
        <ele>363</ele>
        <time>2019-02-17T12:24:50.000Z</time>
      </trkpt>
      <trkpt lat="43.22766" lon="0.91361">
        <ele>362</ele>
        <time>2019-02-17T12:24:52.000Z</time>
      </trkpt>
      <trkpt lat="43.22764" lon="0.91362">
        <ele>362</ele>
        <time>2019-02-17T12:24:54.000Z</time>
      </trkpt>
      <trkpt lat="43.22763" lon="0.91362">
        <ele>362</ele>
        <time>2019-02-17T12:24:56.000Z</time>
      </trkpt>
      <trkpt lat="43.22762" lon="0.91363">
        <ele>362</ele>
        <time>2019-02-17T12:24:58.000Z</time>
      </trkpt>
      <trkpt lat="43.22761" lon="0.91363">
        <ele>362</ele>
        <time>2019-02-17T12:25:00.000Z</time>
      </trkpt>
      <trkpt lat="43.2276" lon="0.91364">
        <ele>362</ele>
        <time>2019-02-17T12:25:02.000Z</time>
      </trkpt>
      <trkpt lat="43.22758" lon="0.91365">
        <ele>362</ele>
        <time>2019-02-17T12:25:04.000Z</time>
      </trkpt>
      <trkpt lat="43.22757" lon="0.91367">
        <ele>362</ele>
        <time>2019-02-17T12:25:06.000Z</time>
      </trkpt>
      <trkpt lat="43.22756" lon="0.91369">
        <ele>362</ele>
        <time>2019-02-17T12:25:08.000Z</time>
      </trkpt>
      <trkpt lat="43.22754" lon="0.9137">
        <ele>362</ele>
        <time>2019-02-17T12:25:10.000Z</time>
      </trkpt>
      <trkpt lat="43.22753" lon="0.91371">
        <ele>362</ele>
        <time>2019-02-17T12:25:12.000Z</time>
      </trkpt>
      <trkpt lat="43.22752" lon="0.91372">
        <ele>362</ele>
        <time>2019-02-17T12:25:14.000Z</time>
      </trkpt>
      <trkpt lat="43.22751" lon="0.91373">
        <ele>362</ele>
        <time>2019-02-17T12:25:16.000Z</time>
      </trkpt>
      <trkpt lat="43.2275" lon="0.91374">
        <ele>362</ele>
        <time>2019-02-17T12:25:18.000Z</time>
      </trkpt>
      <trkpt lat="43.22749" lon="0.91375">
        <ele>362</ele>
        <time>2019-02-17T12:25:20.000Z</time>
      </trkpt>
      <trkpt lat="43.22749" lon="0.91377">
        <ele>361</ele>
        <time>2019-02-17T12:25:22.000Z</time>
      </trkpt>
      <trkpt lat="43.22747" lon="0.91377">
        <ele>362</ele>
        <time>2019-02-17T12:25:24.000Z</time>
      </trkpt>
      <trkpt lat="43.22746" lon="0.91378">
        <ele>362</ele>
        <time>2019-02-17T12:25:26.000Z</time>
      </trkpt>
      <trkpt lat="43.22745" lon="0.91379">
        <ele>362</ele>
        <time>2019-02-17T12:25:28.000Z</time>
      </trkpt>
      <trkpt lat="43.22744" lon="0.9138">
        <ele>362</ele>
        <time>2019-02-17T12:25:30.000Z</time>
      </trkpt>
      <trkpt lat="43.22742" lon="0.91381">
        <ele>362</ele>
        <time>2019-02-17T12:25:32.000Z</time>
      </trkpt>
      <trkpt lat="43.22741" lon="0.91382">
        <ele>362</ele>
        <time>2019-02-17T12:25:34.000Z</time>
      </trkpt>
      <trkpt lat="43.2274" lon="0.91382">
        <ele>362</ele>
        <time>2019-02-17T12:25:36.000Z</time>
      </trkpt>
      <trkpt lat="43.22739" lon="0.91383">
        <ele>362</ele>
        <time>2019-02-17T12:25:38.000Z</time>
      </trkpt>
      <trkpt lat="43.22738" lon="0.91384">
        <ele>362</ele>
        <time>2019-02-17T12:25:40.000Z</time>
      </trkpt>
      <trkpt lat="43.22737" lon="0.91385">
        <ele>362</ele>
        <time>2019-02-17T12:25:42.000Z</time>
      </trkpt>
      <trkpt lat="43.22736" lon="0.91386">
        <ele>362</ele>
        <time>2019-02-17T12:25:44.000Z</time>
      </trkpt>
      <trkpt lat="43.22734" lon="0.91387">
        <ele>362</ele>
        <time>2019-02-17T12:25:46.000Z</time>
      </trkpt>
      <trkpt lat="43.22733" lon="0.91387">
        <ele>362</ele>
        <time>2019-02-17T12:25:48.000Z</time>
      </trkpt>
      <trkpt lat="43.22733" lon="0.91388">
        <ele>362</ele>
        <time>2019-02-17T12:25:50.000Z</time>
      </trkpt>
      <trkpt lat="43.22731" lon="0.91388">
        <ele>362</ele>
        <time>2019-02-17T12:25:52.000Z</time>
      </trkpt>
      <trkpt lat="43.2273" lon="0.91389">
        <ele>362</ele>
        <time>2019-02-17T12:25:54.000Z</time>
      </trkpt>
      <trkpt lat="43.22728" lon="0.9139">
        <ele>362</ele>
        <time>2019-02-17T12:25:56.000Z</time>
      </trkpt>
      <trkpt lat="43.22726" lon="0.91391">
        <ele>362</ele>
        <time>2019-02-17T12:25:58.000Z</time>
      </trkpt>
      <trkpt lat="43.22724" lon="0.91392">
        <ele>362</ele>
        <time>2019-02-17T12:26:00.000Z</time>
      </trkpt>
      <trkpt lat="43.22723" lon="0.91393">
        <ele>362</ele>
        <time>2019-02-17T12:26:02.000Z</time>
      </trkpt>
      <trkpt lat="43.22721" lon="0.91394">
        <ele>362</ele>
        <time>2019-02-17T12:26:04.000Z</time>
      </trkpt>
      <trkpt lat="43.2272" lon="0.91395">
        <ele>362</ele>
        <time>2019-02-17T12:26:06.000Z</time>
      </trkpt>
      <trkpt lat="43.22719" lon="0.91397">
        <ele>362</ele>
        <time>2019-02-17T12:26:08.000Z</time>
      </trkpt>
      <trkpt lat="43.22718" lon="0.91398">
        <ele>362</ele>
        <time>2019-02-17T12:26:10.000Z</time>
      </trkpt>
      <trkpt lat="43.22717" lon="0.91399">
        <ele>362</ele>
        <time>2019-02-17T12:26:12.000Z</time>
      </trkpt>
      <trkpt lat="43.22714" lon="0.91401">
        <ele>362</ele>
        <time>2019-02-17T12:26:14.000Z</time>
      </trkpt>
      <trkpt lat="43.22713" lon="0.91402">
        <ele>362</ele>
        <time>2019-02-17T12:26:16.000Z</time>
      </trkpt>
      <trkpt lat="43.22711" lon="0.91403">
        <ele>362</ele>
        <time>2019-02-17T12:26:18.000Z</time>
      </trkpt>
      <trkpt lat="43.22709" lon="0.91404">
        <ele>362</ele>
        <time>2019-02-17T12:26:20.000Z</time>
      </trkpt>
      <trkpt lat="43.22708" lon="0.91405">
        <ele>362</ele>
        <time>2019-02-17T12:26:22.000Z</time>
      </trkpt>
      <trkpt lat="43.22706" lon="0.91406">
        <ele>362</ele>
        <time>2019-02-17T12:26:24.000Z</time>
      </trkpt>
      <trkpt lat="43.22705" lon="0.91407">
        <ele>362</ele>
        <time>2019-02-17T12:26:26.000Z</time>
      </trkpt>
      <trkpt lat="43.22704" lon="0.91408">
        <ele>362</ele>
        <time>2019-02-17T12:26:28.000Z</time>
      </trkpt>
      <trkpt lat="43.22703" lon="0.9141">
        <ele>361</ele>
        <time>2019-02-17T12:26:30.000Z</time>
      </trkpt>
      <trkpt lat="43.22702" lon="0.91411">
        <ele>361</ele>
        <time>2019-02-17T12:26:32.000Z</time>
      </trkpt>
      <trkpt lat="43.22701" lon="0.91412">
        <ele>361</ele>
        <time>2019-02-17T12:26:34.000Z</time>
      </trkpt>
      <trkpt lat="43.227" lon="0.91412">
        <ele>362</ele>
        <time>2019-02-17T12:26:36.000Z</time>
      </trkpt>
      <trkpt lat="43.22699" lon="0.91413">
        <ele>362</ele>
        <time>2019-02-17T12:26:38.000Z</time>
      </trkpt>
      <trkpt lat="43.22698" lon="0.91413">
        <ele>362</ele>
        <time>2019-02-17T12:26:40.000Z</time>
      </trkpt>
      <trkpt lat="43.22697" lon="0.91414">
        <ele>362</ele>
        <time>2019-02-17T12:26:42.000Z</time>
      </trkpt>
      <trkpt lat="43.22697" lon="0.91414">
        <ele>362</ele>
        <time>2019-02-17T12:26:44.000Z</time>
      </trkpt>
      <trkpt lat="43.22696" lon="0.91416">
        <ele>362</ele>
        <time>2019-02-17T12:26:46.000Z</time>
      </trkpt>
      <trkpt lat="43.22694" lon="0.91416">
        <ele>362</ele>
        <time>2019-02-17T12:26:48.000Z</time>
      </trkpt>
      <trkpt lat="43.22693" lon="0.91417">
        <ele>362</ele>
        <time>2019-02-17T12:26:50.000Z</time>
      </trkpt>
      <trkpt lat="43.22692" lon="0.91417">
        <ele>363</ele>
        <time>2019-02-17T12:26:52.000Z</time>
      </trkpt>
      <trkpt lat="43.22691" lon="0.91418">
        <ele>363</ele>
        <time>2019-02-17T12:26:54.000Z</time>
      </trkpt>
      <trkpt lat="43.2269" lon="0.91418">
        <ele>363</ele>
        <time>2019-02-17T12:26:56.000Z</time>
      </trkpt>
      <trkpt lat="43.22688" lon="0.9142">
        <ele>363</ele>
        <time>2019-02-17T12:26:58.000Z</time>
      </trkpt>
      <trkpt lat="43.22687" lon="0.9142">
        <ele>363</ele>
        <time>2019-02-17T12:27:00.000Z</time>
      </trkpt>
      <trkpt lat="43.22685" lon="0.91422">
        <ele>363</ele>
        <time>2019-02-17T12:27:02.000Z</time>
      </trkpt>
      <trkpt lat="43.22684" lon="0.91422">
        <ele>364</ele>
        <time>2019-02-17T12:27:04.000Z</time>
      </trkpt>
      <trkpt lat="43.22682" lon="0.91423">
        <ele>364</ele>
        <time>2019-02-17T12:27:06.000Z</time>
      </trkpt>
      <trkpt lat="43.22681" lon="0.91424">
        <ele>364</ele>
        <time>2019-02-17T12:27:08.000Z</time>
      </trkpt>
      <trkpt lat="43.22679" lon="0.91424">
        <ele>364</ele>
        <time>2019-02-17T12:27:10.000Z</time>
      </trkpt>
      <trkpt lat="43.22678" lon="0.91426">
        <ele>364</ele>
        <time>2019-02-17T12:27:12.000Z</time>
      </trkpt>
      <trkpt lat="43.22677" lon="0.91427">
        <ele>365</ele>
        <time>2019-02-17T12:27:14.000Z</time>
      </trkpt>
      <trkpt lat="43.22675" lon="0.91428">
        <ele>365</ele>
        <time>2019-02-17T12:27:16.000Z</time>
      </trkpt>
      <trkpt lat="43.22674" lon="0.91429">
        <ele>365</ele>
        <time>2019-02-17T12:27:18.000Z</time>
      </trkpt>
      <trkpt lat="43.22673" lon="0.9143">
        <ele>365</ele>
        <time>2019-02-17T12:27:20.000Z</time>
      </trkpt>
      <trkpt lat="43.22672" lon="0.91431">
        <ele>365</ele>
        <time>2019-02-17T12:27:22.000Z</time>
      </trkpt>
      <trkpt lat="43.2267" lon="0.91432">
        <ele>366</ele>
        <time>2019-02-17T12:27:24.000Z</time>
      </trkpt>
      <trkpt lat="43.22669" lon="0.91433">
        <ele>366</ele>
        <time>2019-02-17T12:27:26.000Z</time>
      </trkpt>
      <trkpt lat="43.22668" lon="0.91433">
        <ele>366</ele>
        <time>2019-02-17T12:27:28.000Z</time>
      </trkpt>
      <trkpt lat="43.22666" lon="0.91434">
        <ele>366</ele>
        <time>2019-02-17T12:27:30.000Z</time>
      </trkpt>
      <trkpt lat="43.22665" lon="0.91435">
        <ele>366</ele>
        <time>2019-02-17T12:27:32.000Z</time>
      </trkpt>
      <trkpt lat="43.22663" lon="0.91436">
        <ele>367</ele>
        <time>2019-02-17T12:27:34.000Z</time>
      </trkpt>
      <trkpt lat="43.22662" lon="0.91437">
        <ele>367</ele>
        <time>2019-02-17T12:27:36.000Z</time>
      </trkpt>
      <trkpt lat="43.2266" lon="0.91437">
        <ele>367</ele>
        <time>2019-02-17T12:27:38.000Z</time>
      </trkpt>
      <trkpt lat="43.22659" lon="0.91438">
        <ele>367</ele>
        <time>2019-02-17T12:27:40.000Z</time>
      </trkpt>
      <trkpt lat="43.22657" lon="0.91438">
        <ele>368</ele>
        <time>2019-02-17T12:27:42.000Z</time>
      </trkpt>
      <trkpt lat="43.22656" lon="0.91439">
        <ele>368</ele>
        <time>2019-02-17T12:27:44.000Z</time>
      </trkpt>
      <trkpt lat="43.22654" lon="0.9144">
        <ele>368</ele>
        <time>2019-02-17T12:27:46.000Z</time>
      </trkpt>
      <trkpt lat="43.22653" lon="0.91441">
        <ele>368</ele>
        <time>2019-02-17T12:27:48.000Z</time>
      </trkpt>
      <trkpt lat="43.22651" lon="0.91441">
        <ele>368</ele>
        <time>2019-02-17T12:27:50.000Z</time>
      </trkpt>
      <trkpt lat="43.2265" lon="0.91442">
        <ele>369</ele>
        <time>2019-02-17T12:27:52.000Z</time>
      </trkpt>
      <trkpt lat="43.22648" lon="0.91442">
        <ele>369</ele>
        <time>2019-02-17T12:27:54.000Z</time>
      </trkpt>
      <trkpt lat="43.22647" lon="0.91443">
        <ele>369</ele>
        <time>2019-02-17T12:27:56.000Z</time>
      </trkpt>
      <trkpt lat="43.22645" lon="0.91444">
        <ele>370</ele>
        <time>2019-02-17T12:27:58.000Z</time>
      </trkpt>
      <trkpt lat="43.22644" lon="0.91445">
        <ele>370</ele>
        <time>2019-02-17T12:28:00.000Z</time>
      </trkpt>
      <trkpt lat="43.22642" lon="0.91445">
        <ele>370</ele>
        <time>2019-02-17T12:28:02.000Z</time>
      </trkpt>
      <trkpt lat="43.22641" lon="0.91446">
        <ele>370</ele>
        <time>2019-02-17T12:28:04.000Z</time>
      </trkpt>
      <trkpt lat="43.22639" lon="0.91447">
        <ele>371</ele>
        <time>2019-02-17T12:28:06.000Z</time>
      </trkpt>
      <trkpt lat="43.22638" lon="0.91448">
        <ele>371</ele>
        <time>2019-02-17T12:28:08.000Z</time>
      </trkpt>
      <trkpt lat="43.22636" lon="0.91449">
        <ele>371</ele>
        <time>2019-02-17T12:28:10.000Z</time>
      </trkpt>
      <trkpt lat="43.22635" lon="0.9145">
        <ele>371</ele>
        <time>2019-02-17T12:28:12.000Z</time>
      </trkpt>
      <trkpt lat="43.22634" lon="0.91451">
        <ele>372</ele>
        <time>2019-02-17T12:28:14.000Z</time>
      </trkpt>
      <trkpt lat="43.22633" lon="0.91452">
        <ele>372</ele>
        <time>2019-02-17T12:28:16.000Z</time>
      </trkpt>
      <trkpt lat="43.22631" lon="0.91453">
        <ele>372</ele>
        <time>2019-02-17T12:28:18.000Z</time>
      </trkpt>
      <trkpt lat="43.2263" lon="0.91454">
        <ele>373</ele>
        <time>2019-02-17T12:28:20.000Z</time>
      </trkpt>
      <trkpt lat="43.22628" lon="0.91456">
        <ele>373</ele>
        <time>2019-02-17T12:28:22.000Z</time>
      </trkpt>
      <trkpt lat="43.22626" lon="0.91457">
        <ele>373</ele>
        <time>2019-02-17T12:28:24.000Z</time>
      </trkpt>
      <trkpt lat="43.22625" lon="0.91458">
        <ele>373</ele>
        <time>2019-02-17T12:28:26.000Z</time>
      </trkpt>
      <trkpt lat="43.22624" lon="0.91459">
        <ele>374</ele>
        <time>2019-02-17T12:28:28.000Z</time>
      </trkpt>
      <trkpt lat="43.22623" lon="0.91461">
        <ele>374</ele>
        <time>2019-02-17T12:28:30.000Z</time>
      </trkpt>
      <trkpt lat="43.22622" lon="0.91462">
        <ele>374</ele>
        <time>2019-02-17T12:28:32.000Z</time>
      </trkpt>
      <trkpt lat="43.22621" lon="0.91463">
        <ele>374</ele>
        <time>2019-02-17T12:28:34.000Z</time>
      </trkpt>
      <trkpt lat="43.2262" lon="0.91464">
        <ele>375</ele>
        <time>2019-02-17T12:28:36.000Z</time>
      </trkpt>
      <trkpt lat="43.22619" lon="0.91465">
        <ele>375</ele>
        <time>2019-02-17T12:28:38.000Z</time>
      </trkpt>
      <trkpt lat="43.22618" lon="0.91466">
        <ele>375</ele>
        <time>2019-02-17T12:28:40.000Z</time>
      </trkpt>
      <trkpt lat="43.22616" lon="0.91468">
        <ele>375</ele>
        <time>2019-02-17T12:28:42.000Z</time>
      </trkpt>
      <trkpt lat="43.22615" lon="0.91469">
        <ele>376</ele>
        <time>2019-02-17T12:28:44.000Z</time>
      </trkpt>
      <trkpt lat="43.22614" lon="0.9147">
        <ele>376</ele>
        <time>2019-02-17T12:28:46.000Z</time>
      </trkpt>
      <trkpt lat="43.22613" lon="0.9147">
        <ele>376</ele>
        <time>2019-02-17T12:28:48.000Z</time>
      </trkpt>
      <trkpt lat="43.22612" lon="0.91472">
        <ele>376</ele>
        <time>2019-02-17T12:28:50.000Z</time>
      </trkpt>
      <trkpt lat="43.22611" lon="0.91473">
        <ele>377</ele>
        <time>2019-02-17T12:28:52.000Z</time>
      </trkpt>
      <trkpt lat="43.2261" lon="0.91474">
        <ele>377</ele>
        <time>2019-02-17T12:28:54.000Z</time>
      </trkpt>
      <trkpt lat="43.22609" lon="0.91475">
        <ele>377</ele>
        <time>2019-02-17T12:28:56.000Z</time>
      </trkpt>
      <trkpt lat="43.22608" lon="0.91476">
        <ele>377</ele>
        <time>2019-02-17T12:28:58.000Z</time>
      </trkpt>
      <trkpt lat="43.22606" lon="0.91477">
        <ele>377</ele>
        <time>2019-02-17T12:29:00.000Z</time>
      </trkpt>
      <trkpt lat="43.22605" lon="0.91478">
        <ele>378</ele>
        <time>2019-02-17T12:29:02.000Z</time>
      </trkpt>
      <trkpt lat="43.22604" lon="0.91479">
        <ele>378</ele>
        <time>2019-02-17T12:29:04.000Z</time>
      </trkpt>
      <trkpt lat="43.22603" lon="0.9148">
        <ele>378</ele>
        <time>2019-02-17T12:29:06.000Z</time>
      </trkpt>
      <trkpt lat="43.22601" lon="0.9148">
        <ele>378</ele>
        <time>2019-02-17T12:29:08.000Z</time>
      </trkpt>
      <trkpt lat="43.226" lon="0.91482">
        <ele>379</ele>
        <time>2019-02-17T12:29:10.000Z</time>
      </trkpt>
      <trkpt lat="43.22598" lon="0.91483">
        <ele>379</ele>
        <time>2019-02-17T12:29:12.000Z</time>
      </trkpt>
      <trkpt lat="43.22597" lon="0.91484">
        <ele>380</ele>
        <time>2019-02-17T12:29:14.000Z</time>
      </trkpt>
      <trkpt lat="43.22596" lon="0.91486">
        <ele>380</ele>
        <time>2019-02-17T12:29:16.000Z</time>
      </trkpt>
      <trkpt lat="43.22595" lon="0.91488">
        <ele>380</ele>
        <time>2019-02-17T12:29:18.000Z</time>
      </trkpt>
      <trkpt lat="43.22593" lon="0.91489">
        <ele>380</ele>
        <time>2019-02-17T12:29:20.000Z</time>
      </trkpt>
      <trkpt lat="43.22592" lon="0.9149">
        <ele>381</ele>
        <time>2019-02-17T12:29:22.000Z</time>
      </trkpt>
      <trkpt lat="43.22591" lon="0.91492">
        <ele>381</ele>
        <time>2019-02-17T12:29:24.000Z</time>
      </trkpt>
      <trkpt lat="43.22591" lon="0.91494">
        <ele>381</ele>
        <time>2019-02-17T12:29:26.000Z</time>
      </trkpt>
      <trkpt lat="43.2259" lon="0.91496">
        <ele>382</ele>
        <time>2019-02-17T12:29:28.000Z</time>
      </trkpt>
      <trkpt lat="43.22588" lon="0.91497">
        <ele>382</ele>
        <time>2019-02-17T12:29:30.000Z</time>
      </trkpt>
      <trkpt lat="43.22587" lon="0.91498">
        <ele>382</ele>
        <time>2019-02-17T12:29:32.000Z</time>
      </trkpt>
      <trkpt lat="43.22586" lon="0.915">
        <ele>382</ele>
        <time>2019-02-17T12:29:34.000Z</time>
      </trkpt>
      <trkpt lat="43.22585" lon="0.91501">
        <ele>383</ele>
        <time>2019-02-17T12:29:36.000Z</time>
      </trkpt>
      <trkpt lat="43.22584" lon="0.91502">
        <ele>383</ele>
        <time>2019-02-17T12:29:38.000Z</time>
      </trkpt>
      <trkpt lat="43.22583" lon="0.91504">
        <ele>383</ele>
        <time>2019-02-17T12:29:40.000Z</time>
      </trkpt>
      <trkpt lat="43.22581" lon="0.91505">
        <ele>383</ele>
        <time>2019-02-17T12:29:42.000Z</time>
      </trkpt>
      <trkpt lat="43.22581" lon="0.91507">
        <ele>384</ele>
        <time>2019-02-17T12:29:44.000Z</time>
      </trkpt>
      <trkpt lat="43.2258" lon="0.91508">
        <ele>384</ele>
        <time>2019-02-17T12:29:46.000Z</time>
      </trkpt>
      <trkpt lat="43.22578" lon="0.91509">
        <ele>384</ele>
        <time>2019-02-17T12:29:48.000Z</time>
      </trkpt>
      <trkpt lat="43.22577" lon="0.9151">
        <ele>384</ele>
        <time>2019-02-17T12:29:50.000Z</time>
      </trkpt>
      <trkpt lat="43.22576" lon="0.91512">
        <ele>385</ele>
        <time>2019-02-17T12:29:52.000Z</time>
      </trkpt>
      <trkpt lat="43.22574" lon="0.91513">
        <ele>385</ele>
        <time>2019-02-17T12:29:54.000Z</time>
      </trkpt>
      <trkpt lat="43.22573" lon="0.91514">
        <ele>385</ele>
        <time>2019-02-17T12:29:56.000Z</time>
      </trkpt>
      <trkpt lat="43.22572" lon="0.91515">
        <ele>386</ele>
        <time>2019-02-17T12:29:58.000Z</time>
      </trkpt>
      <trkpt lat="43.2257" lon="0.91516">
        <ele>386</ele>
        <time>2019-02-17T12:30:00.000Z</time>
      </trkpt>
      <trkpt lat="43.22569" lon="0.91518">
        <ele>386</ele>
        <time>2019-02-17T12:30:02.000Z</time>
      </trkpt>
      <trkpt lat="43.22568" lon="0.91519">
        <ele>387</ele>
        <time>2019-02-17T12:30:04.000Z</time>
      </trkpt>
      <trkpt lat="43.22567" lon="0.9152">
        <ele>387</ele>
        <time>2019-02-17T12:30:06.000Z</time>
      </trkpt>
      <trkpt lat="43.22565" lon="0.91522">
        <ele>387</ele>
        <time>2019-02-17T12:30:08.000Z</time>
      </trkpt>
      <trkpt lat="43.22564" lon="0.91523">
        <ele>387</ele>
        <time>2019-02-17T12:30:10.000Z</time>
      </trkpt>
      <trkpt lat="43.22563" lon="0.91525">
        <ele>388</ele>
        <time>2019-02-17T12:30:12.000Z</time>
      </trkpt>
      <trkpt lat="43.22562" lon="0.91526">
        <ele>388</ele>
        <time>2019-02-17T12:30:14.000Z</time>
      </trkpt>
      <trkpt lat="43.22561" lon="0.91527">
        <ele>388</ele>
        <time>2019-02-17T12:30:16.000Z</time>
      </trkpt>
      <trkpt lat="43.22559" lon="0.91529">
        <ele>388</ele>
        <time>2019-02-17T12:30:18.000Z</time>
      </trkpt>
      <trkpt lat="43.22559" lon="0.9153">
        <ele>388</ele>
        <time>2019-02-17T12:30:20.000Z</time>
      </trkpt>
      <trkpt lat="43.22558" lon="0.91532">
        <ele>388</ele>
        <time>2019-02-17T12:30:22.000Z</time>
      </trkpt>
      <trkpt lat="43.22556" lon="0.91534">
        <ele>388</ele>
        <time>2019-02-17T12:30:24.000Z</time>
      </trkpt>
      <trkpt lat="43.22555" lon="0.91536">
        <ele>388</ele>
        <time>2019-02-17T12:30:26.000Z</time>
      </trkpt>
      <trkpt lat="43.22553" lon="0.91538">
        <ele>389</ele>
        <time>2019-02-17T12:30:28.000Z</time>
      </trkpt>
      <trkpt lat="43.22553" lon="0.91539">
        <ele>389</ele>
        <time>2019-02-17T12:30:30.000Z</time>
      </trkpt>
      <trkpt lat="43.22552" lon="0.91542">
        <ele>389</ele>
        <time>2019-02-17T12:30:32.000Z</time>
      </trkpt>
      <trkpt lat="43.22551" lon="0.91543">
        <ele>389</ele>
        <time>2019-02-17T12:30:34.000Z</time>
      </trkpt>
      <trkpt lat="43.2255" lon="0.91544">
        <ele>389</ele>
        <time>2019-02-17T12:30:36.000Z</time>
      </trkpt>
      <trkpt lat="43.22549" lon="0.91546">
        <ele>389</ele>
        <time>2019-02-17T12:30:38.000Z</time>
      </trkpt>
      <trkpt lat="43.22548" lon="0.91547">
        <ele>389</ele>
        <time>2019-02-17T12:30:40.000Z</time>
      </trkpt>
      <trkpt lat="43.22548" lon="0.91549">
        <ele>389</ele>
        <time>2019-02-17T12:30:42.000Z</time>
      </trkpt>
      <trkpt lat="43.22547" lon="0.91551">
        <ele>389</ele>
        <time>2019-02-17T12:30:44.000Z</time>
      </trkpt>
      <trkpt lat="43.22547" lon="0.91552">
        <ele>389</ele>
        <time>2019-02-17T12:30:46.000Z</time>
      </trkpt>
      <trkpt lat="43.22546" lon="0.91554">
        <ele>389</ele>
        <time>2019-02-17T12:30:48.000Z</time>
      </trkpt>
      <trkpt lat="43.22545" lon="0.91555">
        <ele>389</ele>
        <time>2019-02-17T12:30:50.000Z</time>
      </trkpt>
      <trkpt lat="43.22544" lon="0.91556">
        <ele>389</ele>
        <time>2019-02-17T12:30:52.000Z</time>
      </trkpt>
      <trkpt lat="43.22542" lon="0.91558">
        <ele>389</ele>
        <time>2019-02-17T12:30:54.000Z</time>
      </trkpt>
      <trkpt lat="43.22541" lon="0.91559">
        <ele>390</ele>
        <time>2019-02-17T12:30:56.000Z</time>
      </trkpt>
      <trkpt lat="43.2254" lon="0.9156">
        <ele>390</ele>
        <time>2019-02-17T12:30:58.000Z</time>
      </trkpt>
      <trkpt lat="43.22539" lon="0.91563">
        <ele>390</ele>
        <time>2019-02-17T12:31:00.000Z</time>
      </trkpt>
      <trkpt lat="43.22538" lon="0.91564">
        <ele>390</ele>
        <time>2019-02-17T12:31:02.000Z</time>
      </trkpt>
      <trkpt lat="43.22537" lon="0.91566">
        <ele>390</ele>
        <time>2019-02-17T12:31:04.000Z</time>
      </trkpt>
      <trkpt lat="43.22536" lon="0.91568">
        <ele>391</ele>
        <time>2019-02-17T12:31:06.000Z</time>
      </trkpt>
      <trkpt lat="43.22534" lon="0.9157">
        <ele>391</ele>
        <time>2019-02-17T12:31:08.000Z</time>
      </trkpt>
      <trkpt lat="43.22534" lon="0.91572">
        <ele>391</ele>
        <time>2019-02-17T12:31:10.000Z</time>
      </trkpt>
      <trkpt lat="43.22532" lon="0.91573">
        <ele>391</ele>
        <time>2019-02-17T12:31:12.000Z</time>
      </trkpt>
      <trkpt lat="43.22531" lon="0.91574">
        <ele>391</ele>
        <time>2019-02-17T12:31:14.000Z</time>
      </trkpt>
      <trkpt lat="43.2253" lon="0.91576">
        <ele>391</ele>
        <time>2019-02-17T12:31:16.000Z</time>
      </trkpt>
      <trkpt lat="43.22529" lon="0.91578">
        <ele>392</ele>
        <time>2019-02-17T12:31:18.000Z</time>
      </trkpt>
      <trkpt lat="43.22528" lon="0.9158">
        <ele>392</ele>
        <time>2019-02-17T12:31:20.000Z</time>
      </trkpt>
      <trkpt lat="43.22527" lon="0.91581">
        <ele>392</ele>
        <time>2019-02-17T12:31:22.000Z</time>
      </trkpt>
      <trkpt lat="43.22526" lon="0.91583">
        <ele>392</ele>
        <time>2019-02-17T12:31:24.000Z</time>
      </trkpt>
      <trkpt lat="43.22525" lon="0.91585">
        <ele>392</ele>
        <time>2019-02-17T12:31:26.000Z</time>
      </trkpt>
      <trkpt lat="43.22524" lon="0.91587">
        <ele>392</ele>
        <time>2019-02-17T12:31:28.000Z</time>
      </trkpt>
      <trkpt lat="43.22523" lon="0.91589">
        <ele>392</ele>
        <time>2019-02-17T12:31:30.000Z</time>
      </trkpt>
      <trkpt lat="43.22521" lon="0.9159">
        <ele>393</ele>
        <time>2019-02-17T12:31:32.000Z</time>
      </trkpt>
      <trkpt lat="43.2252" lon="0.91592">
        <ele>393</ele>
        <time>2019-02-17T12:31:34.000Z</time>
      </trkpt>
      <trkpt lat="43.22519" lon="0.91594">
        <ele>393</ele>
        <time>2019-02-17T12:31:36.000Z</time>
      </trkpt>
      <trkpt lat="43.22518" lon="0.91595">
        <ele>393</ele>
        <time>2019-02-17T12:31:38.000Z</time>
      </trkpt>
      <trkpt lat="43.22517" lon="0.91596">
        <ele>393</ele>
        <time>2019-02-17T12:31:40.000Z</time>
      </trkpt>
      <trkpt lat="43.22516" lon="0.91598">
        <ele>393</ele>
        <time>2019-02-17T12:31:42.000Z</time>
      </trkpt>
      <trkpt lat="43.22515" lon="0.91599">
        <ele>393</ele>
        <time>2019-02-17T12:31:44.000Z</time>
      </trkpt>
      <trkpt lat="43.22514" lon="0.916">
        <ele>393</ele>
        <time>2019-02-17T12:31:46.000Z</time>
      </trkpt>
      <trkpt lat="43.22514" lon="0.91601">
        <ele>393</ele>
        <time>2019-02-17T12:31:48.000Z</time>
      </trkpt>
      <trkpt lat="43.22513" lon="0.91603">
        <ele>394</ele>
        <time>2019-02-17T12:31:50.000Z</time>
      </trkpt>
      <trkpt lat="43.22512" lon="0.91605">
        <ele>394</ele>
        <time>2019-02-17T12:31:52.000Z</time>
      </trkpt>
      <trkpt lat="43.2251" lon="0.91607">
        <ele>394</ele>
        <time>2019-02-17T12:31:54.000Z</time>
      </trkpt>
      <trkpt lat="43.22509" lon="0.91609">
        <ele>394</ele>
        <time>2019-02-17T12:31:56.000Z</time>
      </trkpt>
      <trkpt lat="43.22507" lon="0.91611">
        <ele>394</ele>
        <time>2019-02-17T12:31:58.000Z</time>
      </trkpt>
      <trkpt lat="43.22506" lon="0.91612">
        <ele>395</ele>
        <time>2019-02-17T12:32:00.000Z</time>
      </trkpt>
      <trkpt lat="43.22504" lon="0.91614">
        <ele>395</ele>
        <time>2019-02-17T12:32:02.000Z</time>
      </trkpt>
      <trkpt lat="43.22503" lon="0.91615">
        <ele>395</ele>
        <time>2019-02-17T12:32:04.000Z</time>
      </trkpt>
      <trkpt lat="43.22501" lon="0.91618">
        <ele>395</ele>
        <time>2019-02-17T12:32:06.000Z</time>
      </trkpt>
      <trkpt lat="43.22499" lon="0.9162">
        <ele>395</ele>
        <time>2019-02-17T12:32:08.000Z</time>
      </trkpt>
      <trkpt lat="43.22498" lon="0.91621">
        <ele>396</ele>
        <time>2019-02-17T12:32:10.000Z</time>
      </trkpt>
      <trkpt lat="43.22496" lon="0.91623">
        <ele>396</ele>
        <time>2019-02-17T12:32:12.000Z</time>
      </trkpt>
      <trkpt lat="43.22495" lon="0.91624">
        <ele>396</ele>
        <time>2019-02-17T12:32:14.000Z</time>
      </trkpt>
      <trkpt lat="43.22493" lon="0.91626">
        <ele>396</ele>
        <time>2019-02-17T12:32:16.000Z</time>
      </trkpt>
      <trkpt lat="43.22492" lon="0.91627">
        <ele>396</ele>
        <time>2019-02-17T12:32:18.000Z</time>
      </trkpt>
      <trkpt lat="43.2249" lon="0.91628">
        <ele>396</ele>
        <time>2019-02-17T12:32:20.000Z</time>
      </trkpt>
      <trkpt lat="43.22488" lon="0.91629">
        <ele>396</ele>
        <time>2019-02-17T12:32:22.000Z</time>
      </trkpt>
      <trkpt lat="43.22486" lon="0.91631">
        <ele>396</ele>
        <time>2019-02-17T12:32:24.000Z</time>
      </trkpt>
      <trkpt lat="43.22485" lon="0.91633">
        <ele>396</ele>
        <time>2019-02-17T12:32:26.000Z</time>
      </trkpt>
      <trkpt lat="43.22483" lon="0.91634">
        <ele>396</ele>
        <time>2019-02-17T12:32:28.000Z</time>
      </trkpt>
      <trkpt lat="43.22481" lon="0.91635">
        <ele>396</ele>
        <time>2019-02-17T12:32:30.000Z</time>
      </trkpt>
      <trkpt lat="43.22479" lon="0.91636">
        <ele>396</ele>
        <time>2019-02-17T12:32:32.000Z</time>
      </trkpt>
      <trkpt lat="43.22477" lon="0.91637">
        <ele>396</ele>
        <time>2019-02-17T12:32:34.000Z</time>
      </trkpt>
      <trkpt lat="43.22475" lon="0.91638">
        <ele>396</ele>
        <time>2019-02-17T12:32:36.000Z</time>
      </trkpt>
      <trkpt lat="43.22473" lon="0.91639">
        <ele>396</ele>
        <time>2019-02-17T12:32:38.000Z</time>
      </trkpt>
      <trkpt lat="43.22472" lon="0.9164">
        <ele>395</ele>
        <time>2019-02-17T12:32:40.000Z</time>
      </trkpt>
      <trkpt lat="43.22471" lon="0.91642">
        <ele>395</ele>
        <time>2019-02-17T12:32:42.000Z</time>
      </trkpt>
      <trkpt lat="43.22469" lon="0.91644">
        <ele>395</ele>
        <time>2019-02-17T12:32:44.000Z</time>
      </trkpt>
      <trkpt lat="43.22468" lon="0.91645">
        <ele>395</ele>
        <time>2019-02-17T12:32:46.000Z</time>
      </trkpt>
      <trkpt lat="43.22467" lon="0.91646">
        <ele>395</ele>
        <time>2019-02-17T12:32:48.000Z</time>
      </trkpt>
      <trkpt lat="43.22466" lon="0.91648">
        <ele>395</ele>
        <time>2019-02-17T12:32:50.000Z</time>
      </trkpt>
      <trkpt lat="43.22464" lon="0.9165">
        <ele>395</ele>
        <time>2019-02-17T12:32:52.000Z</time>
      </trkpt>
      <trkpt lat="43.22463" lon="0.91651">
        <ele>395</ele>
        <time>2019-02-17T12:32:54.000Z</time>
      </trkpt>
      <trkpt lat="43.22461" lon="0.91652">
        <ele>395</ele>
        <time>2019-02-17T12:32:56.000Z</time>
      </trkpt>
      <trkpt lat="43.22459" lon="0.91654">
        <ele>395</ele>
        <time>2019-02-17T12:32:58.000Z</time>
      </trkpt>
      <trkpt lat="43.22457" lon="0.91655">
        <ele>395</ele>
        <time>2019-02-17T12:33:00.000Z</time>
      </trkpt>
      <trkpt lat="43.22455" lon="0.91656">
        <ele>395</ele>
        <time>2019-02-17T12:33:02.000Z</time>
      </trkpt>
      <trkpt lat="43.22454" lon="0.91658">
        <ele>395</ele>
        <time>2019-02-17T12:33:04.000Z</time>
      </trkpt>
      <trkpt lat="43.22452" lon="0.91659">
        <ele>395</ele>
        <time>2019-02-17T12:33:06.000Z</time>
      </trkpt>
      <trkpt lat="43.22451" lon="0.91661">
        <ele>395</ele>
        <time>2019-02-17T12:33:08.000Z</time>
      </trkpt>
      <trkpt lat="43.2245" lon="0.91662">
        <ele>395</ele>
        <time>2019-02-17T12:33:10.000Z</time>
      </trkpt>
      <trkpt lat="43.22449" lon="0.91663">
        <ele>395</ele>
        <time>2019-02-17T12:33:12.000Z</time>
      </trkpt>
      <trkpt lat="43.22448" lon="0.91664">
        <ele>395</ele>
        <time>2019-02-17T12:33:14.000Z</time>
      </trkpt>
      <trkpt lat="43.22447" lon="0.91665">
        <ele>395</ele>
        <time>2019-02-17T12:33:16.000Z</time>
      </trkpt>
      <trkpt lat="43.22445" lon="0.91666">
        <ele>395</ele>
        <time>2019-02-17T12:33:18.000Z</time>
      </trkpt>
      <trkpt lat="43.22444" lon="0.91667">
        <ele>395</ele>
        <time>2019-02-17T12:33:20.000Z</time>
      </trkpt>
      <trkpt lat="43.22443" lon="0.91668">
        <ele>395</ele>
        <time>2019-02-17T12:33:22.000Z</time>
      </trkpt>
      <trkpt lat="43.22441" lon="0.9167">
        <ele>395</ele>
        <time>2019-02-17T12:33:24.000Z</time>
      </trkpt>
      <trkpt lat="43.2244" lon="0.91671">
        <ele>395</ele>
        <time>2019-02-17T12:33:26.000Z</time>
      </trkpt>
      <trkpt lat="43.22439" lon="0.91673">
        <ele>395</ele>
        <time>2019-02-17T12:33:28.000Z</time>
      </trkpt>
      <trkpt lat="43.22438" lon="0.91675">
        <ele>395</ele>
        <time>2019-02-17T12:33:30.000Z</time>
      </trkpt>
      <trkpt lat="43.22436" lon="0.91676">
        <ele>395</ele>
        <time>2019-02-17T12:33:32.000Z</time>
      </trkpt>
      <trkpt lat="43.22434" lon="0.91677">
        <ele>395</ele>
        <time>2019-02-17T12:33:34.000Z</time>
      </trkpt>
      <trkpt lat="43.22433" lon="0.91678">
        <ele>395</ele>
        <time>2019-02-17T12:33:36.000Z</time>
      </trkpt>
      <trkpt lat="43.22431" lon="0.91678">
        <ele>395</ele>
        <time>2019-02-17T12:33:38.000Z</time>
      </trkpt>
      <trkpt lat="43.2243" lon="0.91679">
        <ele>395</ele>
        <time>2019-02-17T12:33:40.000Z</time>
      </trkpt>
      <trkpt lat="43.22427" lon="0.9168">
        <ele>394</ele>
        <time>2019-02-17T12:33:42.000Z</time>
      </trkpt>
      <trkpt lat="43.22425" lon="0.91681">
        <ele>394</ele>
        <time>2019-02-17T12:33:44.000Z</time>
      </trkpt>
      <trkpt lat="43.22423" lon="0.91681">
        <ele>394</ele>
        <time>2019-02-17T12:33:46.000Z</time>
      </trkpt>
      <trkpt lat="43.2242" lon="0.91682">
        <ele>394</ele>
        <time>2019-02-17T12:33:48.000Z</time>
      </trkpt>
      <trkpt lat="43.22418" lon="0.91682">
        <ele>394</ele>
        <time>2019-02-17T12:33:50.000Z</time>
      </trkpt>
      <trkpt lat="43.22416" lon="0.91683">
        <ele>394</ele>
        <time>2019-02-17T12:33:52.000Z</time>
      </trkpt>
      <trkpt lat="43.22413" lon="0.91684">
        <ele>394</ele>
        <time>2019-02-17T12:33:54.000Z</time>
      </trkpt>
      <trkpt lat="43.22411" lon="0.91686">
        <ele>394</ele>
        <time>2019-02-17T12:33:56.000Z</time>
      </trkpt>
      <trkpt lat="43.2241" lon="0.91688">
        <ele>393</ele>
        <time>2019-02-17T12:33:58.000Z</time>
      </trkpt>
      <trkpt lat="43.22408" lon="0.9169">
        <ele>393</ele>
        <time>2019-02-17T12:34:00.000Z</time>
      </trkpt>
      <trkpt lat="43.22407" lon="0.9169">
        <ele>393</ele>
        <time>2019-02-17T12:34:02.000Z</time>
      </trkpt>
      <trkpt lat="43.22406" lon="0.91691">
        <ele>393</ele>
        <time>2019-02-17T12:34:04.000Z</time>
      </trkpt>
      <trkpt lat="43.22404" lon="0.91692">
        <ele>393</ele>
        <time>2019-02-17T12:34:06.000Z</time>
      </trkpt>
      <trkpt lat="43.22403" lon="0.91693">
        <ele>393</ele>
        <time>2019-02-17T12:34:08.000Z</time>
      </trkpt>
      <trkpt lat="43.22401" lon="0.91693">
        <ele>393</ele>
        <time>2019-02-17T12:34:10.000Z</time>
      </trkpt>
      <trkpt lat="43.22401" lon="0.91694">
        <ele>393</ele>
        <time>2019-02-17T12:34:12.000Z</time>
      </trkpt>
      <trkpt lat="43.22401" lon="0.91694">
        <ele>393</ele>
        <time>2019-02-17T12:34:14.000Z</time>
      </trkpt>
      <trkpt lat="43.22401" lon="0.91693">
        <ele>393</ele>
        <time>2019-02-17T12:34:16.000Z</time>
      </trkpt>
      <trkpt lat="43.22401" lon="0.91694">
        <ele>393</ele>
        <time>2019-02-17T12:34:18.000Z</time>
      </trkpt>
      <trkpt lat="43.22401" lon="0.91693">
        <ele>393</ele>
        <time>2019-02-17T12:34:20.000Z</time>
      </trkpt>
      <trkpt lat="43.22402" lon="0.91693">
        <ele>393</ele>
        <time>2019-02-17T12:34:22.000Z</time>
      </trkpt>
      <trkpt lat="43.22402" lon="0.91693">
        <ele>393</ele>
        <time>2019-02-17T12:34:24.000Z</time>
      </trkpt>
      <trkpt lat="43.22402" lon="0.91692">
        <ele>393</ele>
        <time>2019-02-17T12:34:26.000Z</time>
      </trkpt>
      <trkpt lat="43.22403" lon="0.91692">
        <ele>393</ele>
        <time>2019-02-17T12:34:28.000Z</time>
      </trkpt>
      <trkpt lat="43.22403" lon="0.91691">
        <ele>393</ele>
        <time>2019-02-17T12:34:30.000Z</time>
      </trkpt>
      <trkpt lat="43.22404" lon="0.9169">
        <ele>393</ele>
        <time>2019-02-17T12:34:32.000Z</time>
      </trkpt>
      <trkpt lat="43.22405" lon="0.91689">
        <ele>393</ele>
        <time>2019-02-17T12:34:34.000Z</time>
      </trkpt>
      <trkpt lat="43.22405" lon="0.91689">
        <ele>393</ele>
        <time>2019-02-17T12:34:36.000Z</time>
      </trkpt>
      <trkpt lat="43.22406" lon="0.91688">
        <ele>393</ele>
        <time>2019-02-17T12:34:38.000Z</time>
      </trkpt>
      <trkpt lat="43.22405" lon="0.91688">
        <ele>393</ele>
        <time>2019-02-17T12:34:40.000Z</time>
      </trkpt>
      <trkpt lat="43.22405" lon="0.91687">
        <ele>393</ele>
        <time>2019-02-17T12:34:42.000Z</time>
      </trkpt>
      <trkpt lat="43.22405" lon="0.91687">
        <ele>393</ele>
        <time>2019-02-17T12:34:44.000Z</time>
      </trkpt>
      <trkpt lat="43.22403" lon="0.91686">
        <ele>393</ele>
        <time>2019-02-17T12:34:46.000Z</time>
      </trkpt>
      <trkpt lat="43.22403" lon="0.91686">
        <ele>393</ele>
        <time>2019-02-17T12:34:48.000Z</time>
      </trkpt>
      <trkpt lat="43.22403" lon="0.91685">
        <ele>393</ele>
        <time>2019-02-17T12:34:50.000Z</time>
      </trkpt>
      <trkpt lat="43.22403" lon="0.91685">
        <ele>393</ele>
        <time>2019-02-17T12:34:52.000Z</time>
      </trkpt>
      <trkpt lat="43.22403" lon="0.91686">
        <ele>393</ele>
        <time>2019-02-17T12:34:54.000Z</time>
      </trkpt>
      <trkpt lat="43.22403" lon="0.91686">
        <ele>393</ele>
        <time>2019-02-17T12:34:56.000Z</time>
      </trkpt>
      <trkpt lat="43.22403" lon="0.91684">
        <ele>393</ele>
        <time>2019-02-17T12:34:58.000Z</time>
      </trkpt>
      <trkpt lat="43.22404" lon="0.91684">
        <ele>393</ele>
        <time>2019-02-17T12:35:00.000Z</time>
      </trkpt>
      <trkpt lat="43.22404" lon="0.91684">
        <ele>393</ele>
        <time>2019-02-17T12:35:02.000Z</time>
      </trkpt>
      <trkpt lat="43.22405" lon="0.91685">
        <ele>393</ele>
        <time>2019-02-17T12:35:04.000Z</time>
      </trkpt>
      <trkpt lat="43.22405" lon="0.91685">
        <ele>393</ele>
        <time>2019-02-17T12:35:06.000Z</time>
      </trkpt>
      <trkpt lat="43.22405" lon="0.91685">
        <ele>393</ele>
        <time>2019-02-17T12:35:08.000Z</time>
      </trkpt>
      <trkpt lat="43.22403" lon="0.91685">
        <ele>393</ele>
        <time>2019-02-17T12:35:10.000Z</time>
      </trkpt>
      <trkpt lat="43.22403" lon="0.91686">
        <ele>393</ele>
        <time>2019-02-17T12:35:12.000Z</time>
      </trkpt>
      <trkpt lat="43.22402" lon="0.91686">
        <ele>393</ele>
        <time>2019-02-17T12:35:14.000Z</time>
      </trkpt>
      <trkpt lat="43.22399" lon="0.91687">
        <ele>393</ele>
        <time>2019-02-17T12:35:16.000Z</time>
      </trkpt>
      <trkpt lat="43.22398" lon="0.91687">
        <ele>393</ele>
        <time>2019-02-17T12:35:18.000Z</time>
      </trkpt>
      <trkpt lat="43.22396" lon="0.91687">
        <ele>393</ele>
        <time>2019-02-17T12:35:20.000Z</time>
      </trkpt>
      <trkpt lat="43.22394" lon="0.91686">
        <ele>393</ele>
        <time>2019-02-17T12:35:22.000Z</time>
      </trkpt>
      <trkpt lat="43.22393" lon="0.91685">
        <ele>393</ele>
        <time>2019-02-17T12:35:24.000Z</time>
      </trkpt>
      <trkpt lat="43.22391" lon="0.91684">
        <ele>393</ele>
        <time>2019-02-17T12:35:26.000Z</time>
      </trkpt>
      <trkpt lat="43.2239" lon="0.91684">
        <ele>393</ele>
        <time>2019-02-17T12:35:28.000Z</time>
      </trkpt>
      <trkpt lat="43.22388" lon="0.91683">
        <ele>392</ele>
        <time>2019-02-17T12:35:30.000Z</time>
      </trkpt>
      <trkpt lat="43.22386" lon="0.91682">
        <ele>392</ele>
        <time>2019-02-17T12:35:32.000Z</time>
      </trkpt>
      <trkpt lat="43.22384" lon="0.91681">
        <ele>392</ele>
        <time>2019-02-17T12:35:34.000Z</time>
      </trkpt>
      <trkpt lat="43.22383" lon="0.9168">
        <ele>392</ele>
        <time>2019-02-17T12:35:36.000Z</time>
      </trkpt>
      <trkpt lat="43.22381" lon="0.91679">
        <ele>392</ele>
        <time>2019-02-17T12:35:38.000Z</time>
      </trkpt>
      <trkpt lat="43.22379" lon="0.91678">
        <ele>392</ele>
        <time>2019-02-17T12:35:40.000Z</time>
      </trkpt>
      <trkpt lat="43.22377" lon="0.91677">
        <ele>392</ele>
        <time>2019-02-17T12:35:42.000Z</time>
      </trkpt>
      <trkpt lat="43.22376" lon="0.91674">
        <ele>392</ele>
        <time>2019-02-17T12:35:44.000Z</time>
      </trkpt>
      <trkpt lat="43.22375" lon="0.91672">
        <ele>392</ele>
        <time>2019-02-17T12:35:46.000Z</time>
      </trkpt>
      <trkpt lat="43.22374" lon="0.9167">
        <ele>392</ele>
        <time>2019-02-17T12:35:48.000Z</time>
      </trkpt>
      <trkpt lat="43.22372" lon="0.91668">
        <ele>392</ele>
        <time>2019-02-17T12:35:50.000Z</time>
      </trkpt>
      <trkpt lat="43.22371" lon="0.91666">
        <ele>392</ele>
        <time>2019-02-17T12:35:52.000Z</time>
      </trkpt>
      <trkpt lat="43.22369" lon="0.91664">
        <ele>392</ele>
        <time>2019-02-17T12:35:54.000Z</time>
      </trkpt>
      <trkpt lat="43.22368" lon="0.91662">
        <ele>392</ele>
        <time>2019-02-17T12:35:56.000Z</time>
      </trkpt>
      <trkpt lat="43.22366" lon="0.91661">
        <ele>392</ele>
        <time>2019-02-17T12:35:58.000Z</time>
      </trkpt>
      <trkpt lat="43.22365" lon="0.91659">
        <ele>392</ele>
        <time>2019-02-17T12:36:00.000Z</time>
      </trkpt>
      <trkpt lat="43.22363" lon="0.91657">
        <ele>392</ele>
        <time>2019-02-17T12:36:02.000Z</time>
      </trkpt>
      <trkpt lat="43.22362" lon="0.91655">
        <ele>392</ele>
        <time>2019-02-17T12:36:04.000Z</time>
      </trkpt>
      <trkpt lat="43.22359" lon="0.91652">
        <ele>392</ele>
        <time>2019-02-17T12:36:06.000Z</time>
      </trkpt>
      <trkpt lat="43.22358" lon="0.91649">
        <ele>392</ele>
        <time>2019-02-17T12:36:08.000Z</time>
      </trkpt>
      <trkpt lat="43.22356" lon="0.91645">
        <ele>392</ele>
        <time>2019-02-17T12:36:10.000Z</time>
      </trkpt>
      <trkpt lat="43.22355" lon="0.91642">
        <ele>392</ele>
        <time>2019-02-17T12:36:12.000Z</time>
      </trkpt>
      <trkpt lat="43.22354" lon="0.91639">
        <ele>392</ele>
        <time>2019-02-17T12:36:14.000Z</time>
      </trkpt>
      <trkpt lat="43.22352" lon="0.91636">
        <ele>393</ele>
        <time>2019-02-17T12:36:16.000Z</time>
      </trkpt>
      <trkpt lat="43.22352" lon="0.91634">
        <ele>393</ele>
        <time>2019-02-17T12:36:18.000Z</time>
      </trkpt>
      <trkpt lat="43.22351" lon="0.91632">
        <ele>393</ele>
        <time>2019-02-17T12:36:20.000Z</time>
      </trkpt>
      <trkpt lat="43.22351" lon="0.91629">
        <ele>393</ele>
        <time>2019-02-17T12:36:22.000Z</time>
      </trkpt>
      <trkpt lat="43.2235" lon="0.91627">
        <ele>393</ele>
        <time>2019-02-17T12:36:24.000Z</time>
      </trkpt>
      <trkpt lat="43.22349" lon="0.91624">
        <ele>393</ele>
        <time>2019-02-17T12:36:26.000Z</time>
      </trkpt>
      <trkpt lat="43.22349" lon="0.91622">
        <ele>393</ele>
        <time>2019-02-17T12:36:28.000Z</time>
      </trkpt>
      <trkpt lat="43.22348" lon="0.9162">
        <ele>393</ele>
        <time>2019-02-17T12:36:30.000Z</time>
      </trkpt>
      <trkpt lat="43.22348" lon="0.91619">
        <ele>393</ele>
        <time>2019-02-17T12:36:32.000Z</time>
      </trkpt>
      <trkpt lat="43.22347" lon="0.91617">
        <ele>393</ele>
        <time>2019-02-17T12:36:34.000Z</time>
      </trkpt>
      <trkpt lat="43.22346" lon="0.91615">
        <ele>394</ele>
        <time>2019-02-17T12:36:36.000Z</time>
      </trkpt>
      <trkpt lat="43.22346" lon="0.91612">
        <ele>394</ele>
        <time>2019-02-17T12:36:38.000Z</time>
      </trkpt>
      <trkpt lat="43.22345" lon="0.9161">
        <ele>394</ele>
        <time>2019-02-17T12:36:40.000Z</time>
      </trkpt>
      <trkpt lat="43.22344" lon="0.91608">
        <ele>394</ele>
        <time>2019-02-17T12:36:42.000Z</time>
      </trkpt>
      <trkpt lat="43.22343" lon="0.91606">
        <ele>394</ele>
        <time>2019-02-17T12:36:44.000Z</time>
      </trkpt>
      <trkpt lat="43.22343" lon="0.91603">
        <ele>394</ele>
        <time>2019-02-17T12:36:46.000Z</time>
      </trkpt>
      <trkpt lat="43.22342" lon="0.91601">
        <ele>394</ele>
        <time>2019-02-17T12:36:48.000Z</time>
      </trkpt>
      <trkpt lat="43.22342" lon="0.91598">
        <ele>394</ele>
        <time>2019-02-17T12:36:50.000Z</time>
      </trkpt>
      <trkpt lat="43.22342" lon="0.91595">
        <ele>394</ele>
        <time>2019-02-17T12:36:52.000Z</time>
      </trkpt>
      <trkpt lat="43.22341" lon="0.91592">
        <ele>394</ele>
        <time>2019-02-17T12:36:54.000Z</time>
      </trkpt>
      <trkpt lat="43.2234" lon="0.9159">
        <ele>395</ele>
        <time>2019-02-17T12:36:56.000Z</time>
      </trkpt>
      <trkpt lat="43.2234" lon="0.91588">
        <ele>395</ele>
        <time>2019-02-17T12:36:58.000Z</time>
      </trkpt>
      <trkpt lat="43.2234" lon="0.91585">
        <ele>395</ele>
        <time>2019-02-17T12:37:00.000Z</time>
      </trkpt>
      <trkpt lat="43.2234" lon="0.91583">
        <ele>395</ele>
        <time>2019-02-17T12:37:02.000Z</time>
      </trkpt>
      <trkpt lat="43.22339" lon="0.9158">
        <ele>395</ele>
        <time>2019-02-17T12:37:04.000Z</time>
      </trkpt>
      <trkpt lat="43.22339" lon="0.91578">
        <ele>395</ele>
        <time>2019-02-17T12:37:06.000Z</time>
      </trkpt>
      <trkpt lat="43.22338" lon="0.91575">
        <ele>395</ele>
        <time>2019-02-17T12:37:08.000Z</time>
      </trkpt>
      <trkpt lat="43.22337" lon="0.91573">
        <ele>395</ele>
        <time>2019-02-17T12:37:10.000Z</time>
      </trkpt>
      <trkpt lat="43.22337" lon="0.91571">
        <ele>395</ele>
        <time>2019-02-17T12:37:12.000Z</time>
      </trkpt>
      <trkpt lat="43.22336" lon="0.91568">
        <ele>395</ele>
        <time>2019-02-17T12:37:14.000Z</time>
      </trkpt>
      <trkpt lat="43.22335" lon="0.91566">
        <ele>396</ele>
        <time>2019-02-17T12:37:16.000Z</time>
      </trkpt>
      <trkpt lat="43.22335" lon="0.91564">
        <ele>396</ele>
        <time>2019-02-17T12:37:18.000Z</time>
      </trkpt>
      <trkpt lat="43.22334" lon="0.91561">
        <ele>396</ele>
        <time>2019-02-17T12:37:20.000Z</time>
      </trkpt>
      <trkpt lat="43.22333" lon="0.91559">
        <ele>396</ele>
        <time>2019-02-17T12:37:22.000Z</time>
      </trkpt>
      <trkpt lat="43.22332" lon="0.91556">
        <ele>396</ele>
        <time>2019-02-17T12:37:24.000Z</time>
      </trkpt>
      <trkpt lat="43.22332" lon="0.91554">
        <ele>396</ele>
        <time>2019-02-17T12:37:26.000Z</time>
      </trkpt>
      <trkpt lat="43.22332" lon="0.91551">
        <ele>396</ele>
        <time>2019-02-17T12:37:28.000Z</time>
      </trkpt>
      <trkpt lat="43.22331" lon="0.91548">
        <ele>397</ele>
        <time>2019-02-17T12:37:30.000Z</time>
      </trkpt>
      <trkpt lat="43.22331" lon="0.91545">
        <ele>397</ele>
        <time>2019-02-17T12:37:32.000Z</time>
      </trkpt>
      <trkpt lat="43.2233" lon="0.91543">
        <ele>397</ele>
        <time>2019-02-17T12:37:34.000Z</time>
      </trkpt>
      <trkpt lat="43.22329" lon="0.9154">
        <ele>397</ele>
        <time>2019-02-17T12:37:36.000Z</time>
      </trkpt>
      <trkpt lat="43.22328" lon="0.91537">
        <ele>397</ele>
        <time>2019-02-17T12:37:38.000Z</time>
      </trkpt>
      <trkpt lat="43.22327" lon="0.91535">
        <ele>397</ele>
        <time>2019-02-17T12:37:40.000Z</time>
      </trkpt>
      <trkpt lat="43.22326" lon="0.91533">
        <ele>397</ele>
        <time>2019-02-17T12:37:42.000Z</time>
      </trkpt>
      <trkpt lat="43.22325" lon="0.91531">
        <ele>397</ele>
        <time>2019-02-17T12:37:44.000Z</time>
      </trkpt>
      <trkpt lat="43.22323" lon="0.91529">
        <ele>397</ele>
        <time>2019-02-17T12:37:46.000Z</time>
      </trkpt>
      <trkpt lat="43.22322" lon="0.91527">
        <ele>398</ele>
        <time>2019-02-17T12:37:48.000Z</time>
      </trkpt>
      <trkpt lat="43.22321" lon="0.91525">
        <ele>398</ele>
        <time>2019-02-17T12:37:50.000Z</time>
      </trkpt>
      <trkpt lat="43.2232" lon="0.91522">
        <ele>398</ele>
        <time>2019-02-17T12:37:52.000Z</time>
      </trkpt>
      <trkpt lat="43.22319" lon="0.9152">
        <ele>398</ele>
        <time>2019-02-17T12:37:54.000Z</time>
      </trkpt>
      <trkpt lat="43.22318" lon="0.91517">
        <ele>398</ele>
        <time>2019-02-17T12:37:56.000Z</time>
      </trkpt>
      <trkpt lat="43.22317" lon="0.91515">
        <ele>398</ele>
        <time>2019-02-17T12:37:58.000Z</time>
      </trkpt>
      <trkpt lat="43.22316" lon="0.91512">
        <ele>398</ele>
        <time>2019-02-17T12:38:00.000Z</time>
      </trkpt>
      <trkpt lat="43.22315" lon="0.9151">
        <ele>398</ele>
        <time>2019-02-17T12:38:02.000Z</time>
      </trkpt>
      <trkpt lat="43.22314" lon="0.91507">
        <ele>398</ele>
        <time>2019-02-17T12:38:04.000Z</time>
      </trkpt>
      <trkpt lat="43.22313" lon="0.91505">
        <ele>398</ele>
        <time>2019-02-17T12:38:06.000Z</time>
      </trkpt>
      <trkpt lat="43.22312" lon="0.91503">
        <ele>398</ele>
        <time>2019-02-17T12:38:08.000Z</time>
      </trkpt>
      <trkpt lat="43.22311" lon="0.91501">
        <ele>398</ele>
        <time>2019-02-17T12:38:10.000Z</time>
      </trkpt>
      <trkpt lat="43.22309" lon="0.91499">
        <ele>398</ele>
        <time>2019-02-17T12:38:12.000Z</time>
      </trkpt>
      <trkpt lat="43.22308" lon="0.91497">
        <ele>398</ele>
        <time>2019-02-17T12:38:14.000Z</time>
      </trkpt>
      <trkpt lat="43.22307" lon="0.91496">
        <ele>398</ele>
        <time>2019-02-17T12:38:16.000Z</time>
      </trkpt>
      <trkpt lat="43.22306" lon="0.91495">
        <ele>398</ele>
        <time>2019-02-17T12:38:18.000Z</time>
      </trkpt>
      <trkpt lat="43.22306" lon="0.91494">
        <ele>398</ele>
        <time>2019-02-17T12:38:20.000Z</time>
      </trkpt>
      <trkpt lat="43.22305" lon="0.91493">
        <ele>398</ele>
        <time>2019-02-17T12:38:22.000Z</time>
      </trkpt>
      <trkpt lat="43.22304" lon="0.91492">
        <ele>398</ele>
        <time>2019-02-17T12:38:24.000Z</time>
      </trkpt>
      <trkpt lat="43.22302" lon="0.91492">
        <ele>398</ele>
        <time>2019-02-17T12:38:26.000Z</time>
      </trkpt>
      <trkpt lat="43.22301" lon="0.91491">
        <ele>398</ele>
        <time>2019-02-17T12:38:28.000Z</time>
      </trkpt>
      <trkpt lat="43.22299" lon="0.9149">
        <ele>398</ele>
        <time>2019-02-17T12:38:30.000Z</time>
      </trkpt>
      <trkpt lat="43.22299" lon="0.91489">
        <ele>398</ele>
        <time>2019-02-17T12:38:32.000Z</time>
      </trkpt>
      <trkpt lat="43.22298" lon="0.91487">
        <ele>398</ele>
        <time>2019-02-17T12:38:34.000Z</time>
      </trkpt>
      <trkpt lat="43.22297" lon="0.91486">
        <ele>398</ele>
        <time>2019-02-17T12:38:36.000Z</time>
      </trkpt>
      <trkpt lat="43.22296" lon="0.91485">
        <ele>398</ele>
        <time>2019-02-17T12:38:38.000Z</time>
      </trkpt>
      <trkpt lat="43.22295" lon="0.91484">
        <ele>398</ele>
        <time>2019-02-17T12:38:40.000Z</time>
      </trkpt>
      <trkpt lat="43.22294" lon="0.91484">
        <ele>398</ele>
        <time>2019-02-17T12:38:42.000Z</time>
      </trkpt>
      <trkpt lat="43.22293" lon="0.91482">
        <ele>398</ele>
        <time>2019-02-17T12:38:44.000Z</time>
      </trkpt>
      <trkpt lat="43.22295" lon="0.91481">
        <ele>399</ele>
        <time>2019-02-17T12:38:46.000Z</time>
      </trkpt>
      <trkpt lat="43.22295" lon="0.91481">
        <ele>399</ele>
        <time>2019-02-17T12:38:48.000Z</time>
      </trkpt>
      <trkpt lat="43.22294" lon="0.9148">
        <ele>399</ele>
        <time>2019-02-17T12:38:50.000Z</time>
      </trkpt>
      <trkpt lat="43.22292" lon="0.91479">
        <ele>399</ele>
        <time>2019-02-17T12:38:52.000Z</time>
      </trkpt>
      <trkpt lat="43.22291" lon="0.91478">
        <ele>399</ele>
        <time>2019-02-17T12:38:54.000Z</time>
      </trkpt>
      <trkpt lat="43.22289" lon="0.91476">
        <ele>399</ele>
        <time>2019-02-17T12:38:56.000Z</time>
      </trkpt>
      <trkpt lat="43.22288" lon="0.91475">
        <ele>399</ele>
        <time>2019-02-17T12:38:58.000Z</time>
      </trkpt>
      <trkpt lat="43.22286" lon="0.91473">
        <ele>399</ele>
        <time>2019-02-17T12:39:00.000Z</time>
      </trkpt>
      <trkpt lat="43.22285" lon="0.91472">
        <ele>399</ele>
        <time>2019-02-17T12:39:02.000Z</time>
      </trkpt>
      <trkpt lat="43.22283" lon="0.9147">
        <ele>399</ele>
        <time>2019-02-17T12:39:04.000Z</time>
      </trkpt>
      <trkpt lat="43.22282" lon="0.91469">
        <ele>399</ele>
        <time>2019-02-17T12:39:06.000Z</time>
      </trkpt>
      <trkpt lat="43.2228" lon="0.91468">
        <ele>399</ele>
        <time>2019-02-17T12:39:08.000Z</time>
      </trkpt>
      <trkpt lat="43.22279" lon="0.91466">
        <ele>399</ele>
        <time>2019-02-17T12:39:10.000Z</time>
      </trkpt>
      <trkpt lat="43.22277" lon="0.91465">
        <ele>399</ele>
        <time>2019-02-17T12:39:12.000Z</time>
      </trkpt>
      <trkpt lat="43.22275" lon="0.91464">
        <ele>399</ele>
        <time>2019-02-17T12:39:14.000Z</time>
      </trkpt>
      <trkpt lat="43.22274" lon="0.91462">
        <ele>399</ele>
        <time>2019-02-17T12:39:16.000Z</time>
      </trkpt>
      <trkpt lat="43.22272" lon="0.91461">
        <ele>399</ele>
        <time>2019-02-17T12:39:18.000Z</time>
      </trkpt>
      <trkpt lat="43.22271" lon="0.9146">
        <ele>399</ele>
        <time>2019-02-17T12:39:20.000Z</time>
      </trkpt>
      <trkpt lat="43.22269" lon="0.91459">
        <ele>399</ele>
        <time>2019-02-17T12:39:22.000Z</time>
      </trkpt>
      <trkpt lat="43.22268" lon="0.91458">
        <ele>399</ele>
        <time>2019-02-17T12:39:24.000Z</time>
      </trkpt>
      <trkpt lat="43.22268" lon="0.91457">
        <ele>399</ele>
        <time>2019-02-17T12:39:26.000Z</time>
      </trkpt>
      <trkpt lat="43.22268" lon="0.91457">
        <ele>399</ele>
        <time>2019-02-17T12:39:28.000Z</time>
      </trkpt>
      <trkpt lat="43.22268" lon="0.91457">
        <ele>399</ele>
        <time>2019-02-17T12:39:30.000Z</time>
      </trkpt>
      <trkpt lat="43.22268" lon="0.91456">
        <ele>399</ele>
        <time>2019-02-17T12:39:32.000Z</time>
      </trkpt>
      <trkpt lat="43.22268" lon="0.91457">
        <ele>399</ele>
        <time>2019-02-17T12:39:34.000Z</time>
      </trkpt>
      <trkpt lat="43.22269" lon="0.91456">
        <ele>399</ele>
        <time>2019-02-17T12:39:36.000Z</time>
      </trkpt>
      <trkpt lat="43.22268" lon="0.91456">
        <ele>399</ele>
        <time>2019-02-17T12:39:38.000Z</time>
      </trkpt>
      <trkpt lat="43.22268" lon="0.91456">
        <ele>399</ele>
        <time>2019-02-17T12:39:40.000Z</time>
      </trkpt>
      <trkpt lat="43.22269" lon="0.91456">
        <ele>399</ele>
        <time>2019-02-17T12:39:42.000Z</time>
      </trkpt>
      <trkpt lat="43.22269" lon="0.91457">
        <ele>399</ele>
        <time>2019-02-17T12:39:44.000Z</time>
      </trkpt>
      <trkpt lat="43.22269" lon="0.91457">
        <ele>399</ele>
        <time>2019-02-17T12:39:46.000Z</time>
      </trkpt>
      <trkpt lat="43.22269" lon="0.91457">
        <ele>399</ele>
        <time>2019-02-17T12:39:48.000Z</time>
      </trkpt>
      <trkpt lat="43.22269" lon="0.91457">
        <ele>399</ele>
        <time>2019-02-17T12:39:50.000Z</time>
      </trkpt>
      <trkpt lat="43.22269" lon="0.91457">
        <ele>399</ele>
        <time>2019-02-17T12:39:52.000Z</time>
      </trkpt>
      <trkpt lat="43.2227" lon="0.91457">
        <ele>399</ele>
        <time>2019-02-17T12:39:54.000Z</time>
      </trkpt>
      <trkpt lat="43.2227" lon="0.91457">
        <ele>399</ele>
        <time>2019-02-17T12:39:56.000Z</time>
      </trkpt>
      <trkpt lat="43.2227" lon="0.91458">
        <ele>399</ele>
        <time>2019-02-17T12:39:58.000Z</time>
      </trkpt>
      <trkpt lat="43.2227" lon="0.91458">
        <ele>399</ele>
        <time>2019-02-17T12:40:00.000Z</time>
      </trkpt>
      <trkpt lat="43.2227" lon="0.91459">
        <ele>399</ele>
        <time>2019-02-17T12:40:02.000Z</time>
      </trkpt>
      <trkpt lat="43.2227" lon="0.91459">
        <ele>399</ele>
        <time>2019-02-17T12:40:04.000Z</time>
      </trkpt>
      <trkpt lat="43.2227" lon="0.91459">
        <ele>399</ele>
        <time>2019-02-17T12:40:06.000Z</time>
      </trkpt>
      <trkpt lat="43.22269" lon="0.91459">
        <ele>399</ele>
        <time>2019-02-17T12:40:08.000Z</time>
      </trkpt>
      <trkpt lat="43.22269" lon="0.91459">
        <ele>399</ele>
        <time>2019-02-17T12:40:10.000Z</time>
      </trkpt>
      <trkpt lat="43.2227" lon="0.91459">
        <ele>399</ele>
        <time>2019-02-17T12:40:12.000Z</time>
      </trkpt>
      <trkpt lat="43.22269" lon="0.91459">
        <ele>399</ele>
        <time>2019-02-17T12:40:14.000Z</time>
      </trkpt>
      <trkpt lat="43.22269" lon="0.91459">
        <ele>399</ele>
        <time>2019-02-17T12:40:16.000Z</time>
      </trkpt>
      <trkpt lat="43.22269" lon="0.91459">
        <ele>399</ele>
        <time>2019-02-17T12:40:18.000Z</time>
      </trkpt>
      <trkpt lat="43.22269" lon="0.91459">
        <ele>399</ele>
        <time>2019-02-17T12:40:20.000Z</time>
      </trkpt>
      <trkpt lat="43.22269" lon="0.91458">
        <ele>399</ele>
        <time>2019-02-17T12:40:22.000Z</time>
      </trkpt>
      <trkpt lat="43.22269" lon="0.91459">
        <ele>399</ele>
        <time>2019-02-17T12:40:24.000Z</time>
      </trkpt>
      <trkpt lat="43.22269" lon="0.91459">
        <ele>399</ele>
        <time>2019-02-17T12:40:26.000Z</time>
      </trkpt>
      <trkpt lat="43.22269" lon="0.91459">
        <ele>399</ele>
        <time>2019-02-17T12:40:28.000Z</time>
      </trkpt>
      <trkpt lat="43.22269" lon="0.91459">
        <ele>399</ele>
        <time>2019-02-17T12:40:30.000Z</time>
      </trkpt>
      <trkpt lat="43.22269" lon="0.91459">
        <ele>399</ele>
        <time>2019-02-17T12:40:32.000Z</time>
      </trkpt>
      <trkpt lat="43.22269" lon="0.91459">
        <ele>399</ele>
        <time>2019-02-17T12:40:34.000Z</time>
      </trkpt>
      <trkpt lat="43.22269" lon="0.9146">
        <ele>399</ele>
        <time>2019-02-17T12:40:36.000Z</time>
      </trkpt>
      <trkpt lat="43.2227" lon="0.9146">
        <ele>399</ele>
        <time>2019-02-17T12:40:38.000Z</time>
      </trkpt>
      <trkpt lat="43.2227" lon="0.9146">
        <ele>399</ele>
        <time>2019-02-17T12:40:40.000Z</time>
      </trkpt>
      <trkpt lat="43.2227" lon="0.9146">
        <ele>399</ele>
        <time>2019-02-17T12:40:42.000Z</time>
      </trkpt>
      <trkpt lat="43.22271" lon="0.91461">
        <ele>399</ele>
        <time>2019-02-17T12:40:44.000Z</time>
      </trkpt>
      <trkpt lat="43.22271" lon="0.91461">
        <ele>399</ele>
        <time>2019-02-17T12:40:46.000Z</time>
      </trkpt>
      <trkpt lat="43.22272" lon="0.91461">
        <ele>399</ele>
        <time>2019-02-17T12:40:48.000Z</time>
      </trkpt>
      <trkpt lat="43.22271" lon="0.91461">
        <ele>399</ele>
        <time>2019-02-17T12:40:50.000Z</time>
      </trkpt>
      <trkpt lat="43.22272" lon="0.9146">
        <ele>399</ele>
        <time>2019-02-17T12:40:52.000Z</time>
      </trkpt>
      <trkpt lat="43.22272" lon="0.91461">
        <ele>399</ele>
        <time>2019-02-17T12:40:54.000Z</time>
      </trkpt>
      <trkpt lat="43.22271" lon="0.9146">
        <ele>399</ele>
        <time>2019-02-17T12:40:56.000Z</time>
      </trkpt>
      <trkpt lat="43.22271" lon="0.9146">
        <ele>399</ele>
        <time>2019-02-17T12:40:58.000Z</time>
      </trkpt>
      <trkpt lat="43.2227" lon="0.91459">
        <ele>399</ele>
        <time>2019-02-17T12:41:00.000Z</time>
      </trkpt>
      <trkpt lat="43.2227" lon="0.9146">
        <ele>399</ele>
        <time>2019-02-17T12:41:02.000Z</time>
      </trkpt>
      <trkpt lat="43.22269" lon="0.91459">
        <ele>399</ele>
        <time>2019-02-17T12:41:04.000Z</time>
      </trkpt>
      <trkpt lat="43.22269" lon="0.91459">
        <ele>399</ele>
        <time>2019-02-17T12:41:06.000Z</time>
      </trkpt>
      <trkpt lat="43.22269" lon="0.91459">
        <ele>399</ele>
        <time>2019-02-17T12:41:08.000Z</time>
      </trkpt>
      <trkpt lat="43.22269" lon="0.91458">
        <ele>399</ele>
        <time>2019-02-17T12:41:10.000Z</time>
      </trkpt>
      <trkpt lat="43.22269" lon="0.91458">
        <ele>399</ele>
        <time>2019-02-17T12:41:12.000Z</time>
      </trkpt>
      <trkpt lat="43.22269" lon="0.91458">
        <ele>399</ele>
        <time>2019-02-17T12:41:14.000Z</time>
      </trkpt>
      <trkpt lat="43.22269" lon="0.91459">
        <ele>399</ele>
        <time>2019-02-17T12:41:16.000Z</time>
      </trkpt>
      <trkpt lat="43.22269" lon="0.91459">
        <ele>399</ele>
        <time>2019-02-17T12:41:18.000Z</time>
      </trkpt>
      <trkpt lat="43.22268" lon="0.91459">
        <ele>399</ele>
        <time>2019-02-17T12:41:20.000Z</time>
      </trkpt>
      <trkpt lat="43.22268" lon="0.91459">
        <ele>399</ele>
        <time>2019-02-17T12:41:22.000Z</time>
      </trkpt>
      <trkpt lat="43.22268" lon="0.91458">
        <ele>399</ele>
        <time>2019-02-17T12:41:24.000Z</time>
      </trkpt>
      <trkpt lat="43.22267" lon="0.91458">
        <ele>399</ele>
        <time>2019-02-17T12:41:26.000Z</time>
      </trkpt>
      <trkpt lat="43.22267" lon="0.91459">
        <ele>399</ele>
        <time>2019-02-17T12:41:28.000Z</time>
      </trkpt>
      <trkpt lat="43.22267" lon="0.91458">
        <ele>399</ele>
        <time>2019-02-17T12:41:30.000Z</time>
      </trkpt>
      <trkpt lat="43.22266" lon="0.91457">
        <ele>399</ele>
        <time>2019-02-17T12:41:32.000Z</time>
      </trkpt>
      <trkpt lat="43.22264" lon="0.91456">
        <ele>399</ele>
        <time>2019-02-17T12:41:34.000Z</time>
      </trkpt>
      <trkpt lat="43.22262" lon="0.91455">
        <ele>399</ele>
        <time>2019-02-17T12:41:36.000Z</time>
      </trkpt>
      <trkpt lat="43.22261" lon="0.91455">
        <ele>399</ele>
        <time>2019-02-17T12:41:38.000Z</time>
      </trkpt>
      <trkpt lat="43.22259" lon="0.91453">
        <ele>399</ele>
        <time>2019-02-17T12:41:40.000Z</time>
      </trkpt>
      <trkpt lat="43.22257" lon="0.91452">
        <ele>400</ele>
        <time>2019-02-17T12:41:42.000Z</time>
      </trkpt>
      <trkpt lat="43.22254" lon="0.9145">
        <ele>400</ele>
        <time>2019-02-17T12:41:44.000Z</time>
      </trkpt>
      <trkpt lat="43.22251" lon="0.9145">
        <ele>400</ele>
        <time>2019-02-17T12:41:46.000Z</time>
      </trkpt>
      <trkpt lat="43.22249" lon="0.91449">
        <ele>400</ele>
        <time>2019-02-17T12:41:48.000Z</time>
      </trkpt>
      <trkpt lat="43.22247" lon="0.91448">
        <ele>400</ele>
        <time>2019-02-17T12:41:50.000Z</time>
      </trkpt>
      <trkpt lat="43.22245" lon="0.91447">
        <ele>400</ele>
        <time>2019-02-17T12:41:52.000Z</time>
      </trkpt>
      <trkpt lat="43.22243" lon="0.91445">
        <ele>400</ele>
        <time>2019-02-17T12:41:54.000Z</time>
      </trkpt>
      <trkpt lat="43.22241" lon="0.91444">
        <ele>401</ele>
        <time>2019-02-17T12:41:56.000Z</time>
      </trkpt>
      <trkpt lat="43.22239" lon="0.91444">
        <ele>401</ele>
        <time>2019-02-17T12:41:58.000Z</time>
      </trkpt>
      <trkpt lat="43.22236" lon="0.91443">
        <ele>401</ele>
        <time>2019-02-17T12:42:00.000Z</time>
      </trkpt>
      <trkpt lat="43.22235" lon="0.91442">
        <ele>401</ele>
        <time>2019-02-17T12:42:02.000Z</time>
      </trkpt>
      <trkpt lat="43.22232" lon="0.91441">
        <ele>401</ele>
        <time>2019-02-17T12:42:04.000Z</time>
      </trkpt>
      <trkpt lat="43.2223" lon="0.91441">
        <ele>401</ele>
        <time>2019-02-17T12:42:06.000Z</time>
      </trkpt>
      <trkpt lat="43.22228" lon="0.9144">
        <ele>401</ele>
        <time>2019-02-17T12:42:08.000Z</time>
      </trkpt>
      <trkpt lat="43.22225" lon="0.9144">
        <ele>401</ele>
        <time>2019-02-17T12:42:10.000Z</time>
      </trkpt>
      <trkpt lat="43.22223" lon="0.91439">
        <ele>401</ele>
        <time>2019-02-17T12:42:12.000Z</time>
      </trkpt>
      <trkpt lat="43.22221" lon="0.91439">
        <ele>401</ele>
        <time>2019-02-17T12:42:14.000Z</time>
      </trkpt>
      <trkpt lat="43.22219" lon="0.91438">
        <ele>401</ele>
        <time>2019-02-17T12:42:16.000Z</time>
      </trkpt>
      <trkpt lat="43.22218" lon="0.91438">
        <ele>402</ele>
        <time>2019-02-17T12:42:18.000Z</time>
      </trkpt>
      <trkpt lat="43.22216" lon="0.91438">
        <ele>402</ele>
        <time>2019-02-17T12:42:20.000Z</time>
      </trkpt>
      <trkpt lat="43.22214" lon="0.91438">
        <ele>402</ele>
        <time>2019-02-17T12:42:22.000Z</time>
      </trkpt>
      <trkpt lat="43.22212" lon="0.91438">
        <ele>402</ele>
        <time>2019-02-17T12:42:24.000Z</time>
      </trkpt>
      <trkpt lat="43.2221" lon="0.91438">
        <ele>402</ele>
        <time>2019-02-17T12:42:26.000Z</time>
      </trkpt>
      <trkpt lat="43.22208" lon="0.91437">
        <ele>402</ele>
        <time>2019-02-17T12:42:28.000Z</time>
      </trkpt>
      <trkpt lat="43.22205" lon="0.91436">
        <ele>402</ele>
        <time>2019-02-17T12:42:30.000Z</time>
      </trkpt>
      <trkpt lat="43.22204" lon="0.91435">
        <ele>402</ele>
        <time>2019-02-17T12:42:32.000Z</time>
      </trkpt>
      <trkpt lat="43.22201" lon="0.91434">
        <ele>402</ele>
        <time>2019-02-17T12:42:34.000Z</time>
      </trkpt>
      <trkpt lat="43.22198" lon="0.91433">
        <ele>402</ele>
        <time>2019-02-17T12:42:36.000Z</time>
      </trkpt>
      <trkpt lat="43.22196" lon="0.91432">
        <ele>402</ele>
        <time>2019-02-17T12:42:38.000Z</time>
      </trkpt>
      <trkpt lat="43.22194" lon="0.91431">
        <ele>402</ele>
        <time>2019-02-17T12:42:40.000Z</time>
      </trkpt>
      <trkpt lat="43.22192" lon="0.9143">
        <ele>402</ele>
        <time>2019-02-17T12:42:42.000Z</time>
      </trkpt>
      <trkpt lat="43.2219" lon="0.91429">
        <ele>403</ele>
        <time>2019-02-17T12:42:44.000Z</time>
      </trkpt>
      <trkpt lat="43.22188" lon="0.91428">
        <ele>403</ele>
        <time>2019-02-17T12:42:46.000Z</time>
      </trkpt>
      <trkpt lat="43.22187" lon="0.91427">
        <ele>403</ele>
        <time>2019-02-17T12:42:48.000Z</time>
      </trkpt>
      <trkpt lat="43.22185" lon="0.91426">
        <ele>403</ele>
        <time>2019-02-17T12:42:50.000Z</time>
      </trkpt>
      <trkpt lat="43.22183" lon="0.91426">
        <ele>403</ele>
        <time>2019-02-17T12:42:52.000Z</time>
      </trkpt>
      <trkpt lat="43.22181" lon="0.91425">
        <ele>403</ele>
        <time>2019-02-17T12:42:54.000Z</time>
      </trkpt>
      <trkpt lat="43.22178" lon="0.91423">
        <ele>403</ele>
        <time>2019-02-17T12:42:56.000Z</time>
      </trkpt>
      <trkpt lat="43.22176" lon="0.91423">
        <ele>403</ele>
        <time>2019-02-17T12:42:58.000Z</time>
      </trkpt>
      <trkpt lat="43.22173" lon="0.91422">
        <ele>403</ele>
        <time>2019-02-17T12:43:00.000Z</time>
      </trkpt>
      <trkpt lat="43.22171" lon="0.91422">
        <ele>403</ele>
        <time>2019-02-17T12:43:02.000Z</time>
      </trkpt>
      <trkpt lat="43.22168" lon="0.91422">
        <ele>403</ele>
        <time>2019-02-17T12:43:04.000Z</time>
      </trkpt>
      <trkpt lat="43.22166" lon="0.91421">
        <ele>403</ele>
        <time>2019-02-17T12:43:06.000Z</time>
      </trkpt>
      <trkpt lat="43.22164" lon="0.91421">
        <ele>403</ele>
        <time>2019-02-17T12:43:08.000Z</time>
      </trkpt>
      <trkpt lat="43.22163" lon="0.91421">
        <ele>403</ele>
        <time>2019-02-17T12:43:10.000Z</time>
      </trkpt>
      <trkpt lat="43.22161" lon="0.91421">
        <ele>403</ele>
        <time>2019-02-17T12:43:12.000Z</time>
      </trkpt>
      <trkpt lat="43.22159" lon="0.91421">
        <ele>403</ele>
        <time>2019-02-17T12:43:14.000Z</time>
      </trkpt>
      <trkpt lat="43.22158" lon="0.91421">
        <ele>403</ele>
        <time>2019-02-17T12:43:16.000Z</time>
      </trkpt>
      <trkpt lat="43.22156" lon="0.91421">
        <ele>403</ele>
        <time>2019-02-17T12:43:18.000Z</time>
      </trkpt>
      <trkpt lat="43.22154" lon="0.9142">
        <ele>403</ele>
        <time>2019-02-17T12:43:20.000Z</time>
      </trkpt>
      <trkpt lat="43.22152" lon="0.9142">
        <ele>404</ele>
        <time>2019-02-17T12:43:22.000Z</time>
      </trkpt>
      <trkpt lat="43.2215" lon="0.9142">
        <ele>404</ele>
        <time>2019-02-17T12:43:24.000Z</time>
      </trkpt>
      <trkpt lat="43.22149" lon="0.91419">
        <ele>404</ele>
        <time>2019-02-17T12:43:26.000Z</time>
      </trkpt>
      <trkpt lat="43.22148" lon="0.9142">
        <ele>404</ele>
        <time>2019-02-17T12:43:28.000Z</time>
      </trkpt>
      <trkpt lat="43.22146" lon="0.91419">
        <ele>404</ele>
        <time>2019-02-17T12:43:30.000Z</time>
      </trkpt>
      <trkpt lat="43.22144" lon="0.91419">
        <ele>404</ele>
        <time>2019-02-17T12:43:32.000Z</time>
      </trkpt>
      <trkpt lat="43.22143" lon="0.91419">
        <ele>404</ele>
        <time>2019-02-17T12:43:34.000Z</time>
      </trkpt>
      <trkpt lat="43.22141" lon="0.91418">
        <ele>404</ele>
        <time>2019-02-17T12:43:36.000Z</time>
      </trkpt>
      <trkpt lat="43.22139" lon="0.91417">
        <ele>404</ele>
        <time>2019-02-17T12:43:38.000Z</time>
      </trkpt>
      <trkpt lat="43.22137" lon="0.91417">
        <ele>404</ele>
        <time>2019-02-17T12:43:40.000Z</time>
      </trkpt>
      <trkpt lat="43.22133" lon="0.91416">
        <ele>404</ele>
        <time>2019-02-17T12:43:42.000Z</time>
      </trkpt>
      <trkpt lat="43.22132" lon="0.91416">
        <ele>404</ele>
        <time>2019-02-17T12:43:44.000Z</time>
      </trkpt>
      <trkpt lat="43.22129" lon="0.91415">
        <ele>404</ele>
        <time>2019-02-17T12:43:46.000Z</time>
      </trkpt>
      <trkpt lat="43.22127" lon="0.91414">
        <ele>404</ele>
        <time>2019-02-17T12:43:48.000Z</time>
      </trkpt>
      <trkpt lat="43.22125" lon="0.91413">
        <ele>404</ele>
        <time>2019-02-17T12:43:50.000Z</time>
      </trkpt>
      <trkpt lat="43.22123" lon="0.91413">
        <ele>404</ele>
        <time>2019-02-17T12:43:52.000Z</time>
      </trkpt>
      <trkpt lat="43.22121" lon="0.91412">
        <ele>404</ele>
        <time>2019-02-17T12:43:54.000Z</time>
      </trkpt>
      <trkpt lat="43.22119" lon="0.91411">
        <ele>404</ele>
        <time>2019-02-17T12:43:56.000Z</time>
      </trkpt>
      <trkpt lat="43.22117" lon="0.9141">
        <ele>404</ele>
        <time>2019-02-17T12:43:58.000Z</time>
      </trkpt>
      <trkpt lat="43.22115" lon="0.91409">
        <ele>404</ele>
        <time>2019-02-17T12:44:00.000Z</time>
      </trkpt>
      <trkpt lat="43.22113" lon="0.91409">
        <ele>404</ele>
        <time>2019-02-17T12:44:02.000Z</time>
      </trkpt>
      <trkpt lat="43.22111" lon="0.91409">
        <ele>405</ele>
        <time>2019-02-17T12:44:04.000Z</time>
      </trkpt>
      <trkpt lat="43.2211" lon="0.91409">
        <ele>405</ele>
        <time>2019-02-17T12:44:06.000Z</time>
      </trkpt>
      <trkpt lat="43.22109" lon="0.91409">
        <ele>405</ele>
        <time>2019-02-17T12:44:08.000Z</time>
      </trkpt>
      <trkpt lat="43.22107" lon="0.91409">
        <ele>405</ele>
        <time>2019-02-17T12:44:10.000Z</time>
      </trkpt>
      <trkpt lat="43.22105" lon="0.9141">
        <ele>405</ele>
        <time>2019-02-17T12:44:12.000Z</time>
      </trkpt>
      <trkpt lat="43.22104" lon="0.91409">
        <ele>405</ele>
        <time>2019-02-17T12:44:14.000Z</time>
      </trkpt>
      <trkpt lat="43.22103" lon="0.91409">
        <ele>405</ele>
        <time>2019-02-17T12:44:16.000Z</time>
      </trkpt>
      <trkpt lat="43.22101" lon="0.91409">
        <ele>405</ele>
        <time>2019-02-17T12:44:18.000Z</time>
      </trkpt>
      <trkpt lat="43.22099" lon="0.91409">
        <ele>405</ele>
        <time>2019-02-17T12:44:20.000Z</time>
      </trkpt>
      <trkpt lat="43.22097" lon="0.91409">
        <ele>405</ele>
        <time>2019-02-17T12:44:22.000Z</time>
      </trkpt>
      <trkpt lat="43.22094" lon="0.91409">
        <ele>405</ele>
        <time>2019-02-17T12:44:24.000Z</time>
      </trkpt>
      <trkpt lat="43.22091" lon="0.91408">
        <ele>405</ele>
        <time>2019-02-17T12:44:26.000Z</time>
      </trkpt>
      <trkpt lat="43.22089" lon="0.91407">
        <ele>406</ele>
        <time>2019-02-17T12:44:28.000Z</time>
      </trkpt>
      <trkpt lat="43.22086" lon="0.91407">
        <ele>406</ele>
        <time>2019-02-17T12:44:30.000Z</time>
      </trkpt>
      <trkpt lat="43.22084" lon="0.91408">
        <ele>406</ele>
        <time>2019-02-17T12:44:32.000Z</time>
      </trkpt>
      <trkpt lat="43.22081" lon="0.91408">
        <ele>406</ele>
        <time>2019-02-17T12:44:34.000Z</time>
      </trkpt>
      <trkpt lat="43.22079" lon="0.91408">
        <ele>406</ele>
        <time>2019-02-17T12:44:36.000Z</time>
      </trkpt>
      <trkpt lat="43.22077" lon="0.91408">
        <ele>407</ele>
        <time>2019-02-17T12:44:38.000Z</time>
      </trkpt>
      <trkpt lat="43.22075" lon="0.91409">
        <ele>407</ele>
        <time>2019-02-17T12:44:40.000Z</time>
      </trkpt>
      <trkpt lat="43.22072" lon="0.91409">
        <ele>407</ele>
        <time>2019-02-17T12:44:42.000Z</time>
      </trkpt>
      <trkpt lat="43.22071" lon="0.91408">
        <ele>407</ele>
        <time>2019-02-17T12:44:44.000Z</time>
      </trkpt>
      <trkpt lat="43.22069" lon="0.91408">
        <ele>407</ele>
        <time>2019-02-17T12:44:46.000Z</time>
      </trkpt>
      <trkpt lat="43.22068" lon="0.91408">
        <ele>408</ele>
        <time>2019-02-17T12:44:48.000Z</time>
      </trkpt>
      <trkpt lat="43.22065" lon="0.91407">
        <ele>408</ele>
        <time>2019-02-17T12:44:50.000Z</time>
      </trkpt>
      <trkpt lat="43.22063" lon="0.91406">
        <ele>408</ele>
        <time>2019-02-17T12:44:52.000Z</time>
      </trkpt>
      <trkpt lat="43.22062" lon="0.91405">
        <ele>408</ele>
        <time>2019-02-17T12:44:54.000Z</time>
      </trkpt>
      <trkpt lat="43.22059" lon="0.91404">
        <ele>409</ele>
        <time>2019-02-17T12:44:56.000Z</time>
      </trkpt>
      <trkpt lat="43.22058" lon="0.91403">
        <ele>409</ele>
        <time>2019-02-17T12:44:58.000Z</time>
      </trkpt>
      <trkpt lat="43.22056" lon="0.91402">
        <ele>409</ele>
        <time>2019-02-17T12:45:00.000Z</time>
      </trkpt>
      <trkpt lat="43.22054" lon="0.91401">
        <ele>409</ele>
        <time>2019-02-17T12:45:02.000Z</time>
      </trkpt>
      <trkpt lat="43.22052" lon="0.914">
        <ele>410</ele>
        <time>2019-02-17T12:45:04.000Z</time>
      </trkpt>
      <trkpt lat="43.22051" lon="0.91399">
        <ele>410</ele>
        <time>2019-02-17T12:45:06.000Z</time>
      </trkpt>
      <trkpt lat="43.22048" lon="0.91398">
        <ele>410</ele>
        <time>2019-02-17T12:45:08.000Z</time>
      </trkpt>
      <trkpt lat="43.22046" lon="0.91397">
        <ele>410</ele>
        <time>2019-02-17T12:45:10.000Z</time>
      </trkpt>
      <trkpt lat="43.22045" lon="0.91396">
        <ele>411</ele>
        <time>2019-02-17T12:45:12.000Z</time>
      </trkpt>
      <trkpt lat="43.22043" lon="0.91395">
        <ele>411</ele>
        <time>2019-02-17T12:45:14.000Z</time>
      </trkpt>
      <trkpt lat="43.22041" lon="0.91394">
        <ele>411</ele>
        <time>2019-02-17T12:45:16.000Z</time>
      </trkpt>
      <trkpt lat="43.2204" lon="0.91392">
        <ele>411</ele>
        <time>2019-02-17T12:45:18.000Z</time>
      </trkpt>
      <trkpt lat="43.22038" lon="0.91392">
        <ele>411</ele>
        <time>2019-02-17T12:45:20.000Z</time>
      </trkpt>
      <trkpt lat="43.22037" lon="0.91391">
        <ele>412</ele>
        <time>2019-02-17T12:45:22.000Z</time>
      </trkpt>
      <trkpt lat="43.22035" lon="0.91391">
        <ele>412</ele>
        <time>2019-02-17T12:45:24.000Z</time>
      </trkpt>
      <trkpt lat="43.22034" lon="0.9139">
        <ele>412</ele>
        <time>2019-02-17T12:45:26.000Z</time>
      </trkpt>
      <trkpt lat="43.22033" lon="0.91389">
        <ele>412</ele>
        <time>2019-02-17T12:45:28.000Z</time>
      </trkpt>
      <trkpt lat="43.22031" lon="0.91387">
        <ele>412</ele>
        <time>2019-02-17T12:45:30.000Z</time>
      </trkpt>
      <trkpt lat="43.2203" lon="0.91386">
        <ele>412</ele>
        <time>2019-02-17T12:45:32.000Z</time>
      </trkpt>
      <trkpt lat="43.22029" lon="0.91385">
        <ele>412</ele>
        <time>2019-02-17T12:45:34.000Z</time>
      </trkpt>
      <trkpt lat="43.22027" lon="0.91384">
        <ele>412</ele>
        <time>2019-02-17T12:45:36.000Z</time>
      </trkpt>
      <trkpt lat="43.22025" lon="0.91382">
        <ele>413</ele>
        <time>2019-02-17T12:45:38.000Z</time>
      </trkpt>
      <trkpt lat="43.22023" lon="0.91381">
        <ele>413</ele>
        <time>2019-02-17T12:45:40.000Z</time>
      </trkpt>
      <trkpt lat="43.22021" lon="0.9138">
        <ele>413</ele>
        <time>2019-02-17T12:45:42.000Z</time>
      </trkpt>
      <trkpt lat="43.22019" lon="0.91378">
        <ele>413</ele>
        <time>2019-02-17T12:45:44.000Z</time>
      </trkpt>
      <trkpt lat="43.22018" lon="0.91377">
        <ele>413</ele>
        <time>2019-02-17T12:45:46.000Z</time>
      </trkpt>
      <trkpt lat="43.22016" lon="0.91376">
        <ele>413</ele>
        <time>2019-02-17T12:45:48.000Z</time>
      </trkpt>
      <trkpt lat="43.22014" lon="0.91374">
        <ele>413</ele>
        <time>2019-02-17T12:45:50.000Z</time>
      </trkpt>
      <trkpt lat="43.22012" lon="0.91373">
        <ele>414</ele>
        <time>2019-02-17T12:45:52.000Z</time>
      </trkpt>
      <trkpt lat="43.2201" lon="0.9137">
        <ele>414</ele>
        <time>2019-02-17T12:45:54.000Z</time>
      </trkpt>
      <trkpt lat="43.22009" lon="0.91369">
        <ele>414</ele>
        <time>2019-02-17T12:45:56.000Z</time>
      </trkpt>
      <trkpt lat="43.22007" lon="0.91367">
        <ele>414</ele>
        <time>2019-02-17T12:45:58.000Z</time>
      </trkpt>
      <trkpt lat="43.22006" lon="0.91366">
        <ele>414</ele>
        <time>2019-02-17T12:46:00.000Z</time>
      </trkpt>
      <trkpt lat="43.22004" lon="0.91365">
        <ele>414</ele>
        <time>2019-02-17T12:46:02.000Z</time>
      </trkpt>
      <trkpt lat="43.22002" lon="0.91364">
        <ele>414</ele>
        <time>2019-02-17T12:46:04.000Z</time>
      </trkpt>
      <trkpt lat="43.22" lon="0.91362">
        <ele>414</ele>
        <time>2019-02-17T12:46:06.000Z</time>
      </trkpt>
      <trkpt lat="43.21999" lon="0.91361">
        <ele>414</ele>
        <time>2019-02-17T12:46:08.000Z</time>
      </trkpt>
      <trkpt lat="43.21996" lon="0.9136">
        <ele>414</ele>
        <time>2019-02-17T12:46:10.000Z</time>
      </trkpt>
      <trkpt lat="43.21995" lon="0.91359">
        <ele>414</ele>
        <time>2019-02-17T12:46:12.000Z</time>
      </trkpt>
      <trkpt lat="43.21993" lon="0.91358">
        <ele>414</ele>
        <time>2019-02-17T12:46:14.000Z</time>
      </trkpt>
      <trkpt lat="43.21992" lon="0.91357">
        <ele>414</ele>
        <time>2019-02-17T12:46:16.000Z</time>
      </trkpt>
      <trkpt lat="43.2199" lon="0.91355">
        <ele>414</ele>
        <time>2019-02-17T12:46:18.000Z</time>
      </trkpt>
      <trkpt lat="43.21989" lon="0.91354">
        <ele>414</ele>
        <time>2019-02-17T12:46:20.000Z</time>
      </trkpt>
      <trkpt lat="43.21988" lon="0.91353">
        <ele>414</ele>
        <time>2019-02-17T12:46:22.000Z</time>
      </trkpt>
      <trkpt lat="43.21985" lon="0.91352">
        <ele>414</ele>
        <time>2019-02-17T12:46:24.000Z</time>
      </trkpt>
      <trkpt lat="43.21984" lon="0.9135">
        <ele>414</ele>
        <time>2019-02-17T12:46:26.000Z</time>
      </trkpt>
      <trkpt lat="43.21982" lon="0.9135">
        <ele>414</ele>
        <time>2019-02-17T12:46:28.000Z</time>
      </trkpt>
      <trkpt lat="43.2198" lon="0.91349">
        <ele>414</ele>
        <time>2019-02-17T12:46:30.000Z</time>
      </trkpt>
      <trkpt lat="43.21978" lon="0.91348">
        <ele>414</ele>
        <time>2019-02-17T12:46:32.000Z</time>
      </trkpt>
      <trkpt lat="43.21976" lon="0.91348">
        <ele>414</ele>
        <time>2019-02-17T12:46:34.000Z</time>
      </trkpt>
      <trkpt lat="43.21974" lon="0.91346">
        <ele>414</ele>
        <time>2019-02-17T12:46:36.000Z</time>
      </trkpt>
      <trkpt lat="43.21972" lon="0.91345">
        <ele>414</ele>
        <time>2019-02-17T12:46:38.000Z</time>
      </trkpt>
      <trkpt lat="43.2197" lon="0.91344">
        <ele>414</ele>
        <time>2019-02-17T12:46:40.000Z</time>
      </trkpt>
      <trkpt lat="43.21969" lon="0.91342">
        <ele>414</ele>
        <time>2019-02-17T12:46:42.000Z</time>
      </trkpt>
      <trkpt lat="43.21968" lon="0.9134">
        <ele>414</ele>
        <time>2019-02-17T12:46:44.000Z</time>
      </trkpt>
      <trkpt lat="43.21966" lon="0.91339">
        <ele>414</ele>
        <time>2019-02-17T12:46:46.000Z</time>
      </trkpt>
      <trkpt lat="43.21964" lon="0.91338">
        <ele>414</ele>
        <time>2019-02-17T12:46:48.000Z</time>
      </trkpt>
      <trkpt lat="43.21963" lon="0.91336">
        <ele>414</ele>
        <time>2019-02-17T12:46:50.000Z</time>
      </trkpt>
      <trkpt lat="43.21961" lon="0.91334">
        <ele>414</ele>
        <time>2019-02-17T12:46:52.000Z</time>
      </trkpt>
      <trkpt lat="43.21959" lon="0.91332">
        <ele>414</ele>
        <time>2019-02-17T12:46:54.000Z</time>
      </trkpt>
      <trkpt lat="43.21958" lon="0.91331">
        <ele>414</ele>
        <time>2019-02-17T12:46:56.000Z</time>
      </trkpt>
      <trkpt lat="43.21956" lon="0.9133">
        <ele>414</ele>
        <time>2019-02-17T12:46:58.000Z</time>
      </trkpt>
      <trkpt lat="43.21954" lon="0.91329">
        <ele>414</ele>
        <time>2019-02-17T12:47:00.000Z</time>
      </trkpt>
      <trkpt lat="43.21953" lon="0.91327">
        <ele>414</ele>
        <time>2019-02-17T12:47:02.000Z</time>
      </trkpt>
      <trkpt lat="43.21952" lon="0.91326">
        <ele>414</ele>
        <time>2019-02-17T12:47:04.000Z</time>
      </trkpt>
      <trkpt lat="43.2195" lon="0.91324">
        <ele>414</ele>
        <time>2019-02-17T12:47:06.000Z</time>
      </trkpt>
      <trkpt lat="43.21949" lon="0.91322">
        <ele>414</ele>
        <time>2019-02-17T12:47:08.000Z</time>
      </trkpt>
      <trkpt lat="43.21947" lon="0.91321">
        <ele>414</ele>
        <time>2019-02-17T12:47:10.000Z</time>
      </trkpt>
      <trkpt lat="43.21945" lon="0.91319">
        <ele>414</ele>
        <time>2019-02-17T12:47:12.000Z</time>
      </trkpt>
      <trkpt lat="43.21944" lon="0.91318">
        <ele>414</ele>
        <time>2019-02-17T12:47:14.000Z</time>
      </trkpt>
      <trkpt lat="43.21943" lon="0.91317">
        <ele>414</ele>
        <time>2019-02-17T12:47:16.000Z</time>
      </trkpt>
      <trkpt lat="43.21941" lon="0.91315">
        <ele>414</ele>
        <time>2019-02-17T12:47:18.000Z</time>
      </trkpt>
      <trkpt lat="43.21939" lon="0.91314">
        <ele>414</ele>
        <time>2019-02-17T12:47:20.000Z</time>
      </trkpt>
      <trkpt lat="43.21937" lon="0.91313">
        <ele>414</ele>
        <time>2019-02-17T12:47:22.000Z</time>
      </trkpt>
      <trkpt lat="43.21935" lon="0.91312">
        <ele>414</ele>
        <time>2019-02-17T12:47:24.000Z</time>
      </trkpt>
      <trkpt lat="43.21934" lon="0.9131">
        <ele>414</ele>
        <time>2019-02-17T12:47:26.000Z</time>
      </trkpt>
      <trkpt lat="43.21933" lon="0.91308">
        <ele>414</ele>
        <time>2019-02-17T12:47:28.000Z</time>
      </trkpt>
      <trkpt lat="43.21931" lon="0.91307">
        <ele>414</ele>
        <time>2019-02-17T12:47:30.000Z</time>
      </trkpt>
      <trkpt lat="43.21929" lon="0.91305">
        <ele>414</ele>
        <time>2019-02-17T12:47:32.000Z</time>
      </trkpt>
      <trkpt lat="43.21928" lon="0.91303">
        <ele>414</ele>
        <time>2019-02-17T12:47:34.000Z</time>
      </trkpt>
      <trkpt lat="43.21927" lon="0.91302">
        <ele>415</ele>
        <time>2019-02-17T12:47:36.000Z</time>
      </trkpt>
      <trkpt lat="43.21926" lon="0.913">
        <ele>415</ele>
        <time>2019-02-17T12:47:38.000Z</time>
      </trkpt>
      <trkpt lat="43.21924" lon="0.91299">
        <ele>415</ele>
        <time>2019-02-17T12:47:40.000Z</time>
      </trkpt>
      <trkpt lat="43.21923" lon="0.91297">
        <ele>415</ele>
        <time>2019-02-17T12:47:42.000Z</time>
      </trkpt>
      <trkpt lat="43.21921" lon="0.91296">
        <ele>415</ele>
        <time>2019-02-17T12:47:44.000Z</time>
      </trkpt>
      <trkpt lat="43.21919" lon="0.91294">
        <ele>415</ele>
        <time>2019-02-17T12:47:46.000Z</time>
      </trkpt>
      <trkpt lat="43.21917" lon="0.91293">
        <ele>415</ele>
        <time>2019-02-17T12:47:48.000Z</time>
      </trkpt>
      <trkpt lat="43.21916" lon="0.91292">
        <ele>416</ele>
        <time>2019-02-17T12:47:50.000Z</time>
      </trkpt>
      <trkpt lat="43.21915" lon="0.9129">
        <ele>416</ele>
        <time>2019-02-17T12:47:52.000Z</time>
      </trkpt>
      <trkpt lat="43.21914" lon="0.91288">
        <ele>416</ele>
        <time>2019-02-17T12:47:54.000Z</time>
      </trkpt>
      <trkpt lat="43.21913" lon="0.91286">
        <ele>416</ele>
        <time>2019-02-17T12:47:56.000Z</time>
      </trkpt>
      <trkpt lat="43.21912" lon="0.91285">
        <ele>416</ele>
        <time>2019-02-17T12:47:58.000Z</time>
      </trkpt>
      <trkpt lat="43.2191" lon="0.91283">
        <ele>416</ele>
        <time>2019-02-17T12:48:00.000Z</time>
      </trkpt>
      <trkpt lat="43.21909" lon="0.91283">
        <ele>417</ele>
        <time>2019-02-17T12:48:02.000Z</time>
      </trkpt>
      <trkpt lat="43.21908" lon="0.91282">
        <ele>417</ele>
        <time>2019-02-17T12:48:04.000Z</time>
      </trkpt>
      <trkpt lat="43.21907" lon="0.9128">
        <ele>417</ele>
        <time>2019-02-17T12:48:06.000Z</time>
      </trkpt>
      <trkpt lat="43.21906" lon="0.91278">
        <ele>417</ele>
        <time>2019-02-17T12:48:08.000Z</time>
      </trkpt>
      <trkpt lat="43.21905" lon="0.91277">
        <ele>417</ele>
        <time>2019-02-17T12:48:10.000Z</time>
      </trkpt>
      <trkpt lat="43.21903" lon="0.91275">
        <ele>417</ele>
        <time>2019-02-17T12:48:12.000Z</time>
      </trkpt>
      <trkpt lat="43.21902" lon="0.91274">
        <ele>418</ele>
        <time>2019-02-17T12:48:14.000Z</time>
      </trkpt>
      <trkpt lat="43.21901" lon="0.91272">
        <ele>418</ele>
        <time>2019-02-17T12:48:16.000Z</time>
      </trkpt>
      <trkpt lat="43.219" lon="0.91271">
        <ele>418</ele>
        <time>2019-02-17T12:48:18.000Z</time>
      </trkpt>
      <trkpt lat="43.21898" lon="0.91269">
        <ele>418</ele>
        <time>2019-02-17T12:48:20.000Z</time>
      </trkpt>
      <trkpt lat="43.21896" lon="0.91268">
        <ele>418</ele>
        <time>2019-02-17T12:48:22.000Z</time>
      </trkpt>
      <trkpt lat="43.21895" lon="0.91267">
        <ele>418</ele>
        <time>2019-02-17T12:48:24.000Z</time>
      </trkpt>
      <trkpt lat="43.21894" lon="0.91266">
        <ele>418</ele>
        <time>2019-02-17T12:48:26.000Z</time>
      </trkpt>
      <trkpt lat="43.21892" lon="0.91265">
        <ele>418</ele>
        <time>2019-02-17T12:48:28.000Z</time>
      </trkpt>
      <trkpt lat="43.2189" lon="0.91264">
        <ele>419</ele>
        <time>2019-02-17T12:48:30.000Z</time>
      </trkpt>
      <trkpt lat="43.21889" lon="0.91263">
        <ele>419</ele>
        <time>2019-02-17T12:48:32.000Z</time>
      </trkpt>
      <trkpt lat="43.21888" lon="0.91261">
        <ele>419</ele>
        <time>2019-02-17T12:48:34.000Z</time>
      </trkpt>
      <trkpt lat="43.21886" lon="0.9126">
        <ele>419</ele>
        <time>2019-02-17T12:48:36.000Z</time>
      </trkpt>
      <trkpt lat="43.21885" lon="0.91258">
        <ele>419</ele>
        <time>2019-02-17T12:48:38.000Z</time>
      </trkpt>
      <trkpt lat="43.21883" lon="0.91257">
        <ele>419</ele>
        <time>2019-02-17T12:48:40.000Z</time>
      </trkpt>
      <trkpt lat="43.21881" lon="0.91255">
        <ele>420</ele>
        <time>2019-02-17T12:48:42.000Z</time>
      </trkpt>
      <trkpt lat="43.2188" lon="0.91253">
        <ele>420</ele>
        <time>2019-02-17T12:48:44.000Z</time>
      </trkpt>
      <trkpt lat="43.21878" lon="0.91251">
        <ele>420</ele>
        <time>2019-02-17T12:48:46.000Z</time>
      </trkpt>
      <trkpt lat="43.21877" lon="0.91249">
        <ele>420</ele>
        <time>2019-02-17T12:48:48.000Z</time>
      </trkpt>
      <trkpt lat="43.21875" lon="0.91248">
        <ele>420</ele>
        <time>2019-02-17T12:48:50.000Z</time>
      </trkpt>
      <trkpt lat="43.21874" lon="0.91247">
        <ele>420</ele>
        <time>2019-02-17T12:48:52.000Z</time>
      </trkpt>
      <trkpt lat="43.21873" lon="0.91245">
        <ele>421</ele>
        <time>2019-02-17T12:48:54.000Z</time>
      </trkpt>
      <trkpt lat="43.21871" lon="0.91244">
        <ele>421</ele>
        <time>2019-02-17T12:48:56.000Z</time>
      </trkpt>
      <trkpt lat="43.2187" lon="0.91242">
        <ele>421</ele>
        <time>2019-02-17T12:48:58.000Z</time>
      </trkpt>
      <trkpt lat="43.21868" lon="0.91241">
        <ele>421</ele>
        <time>2019-02-17T12:49:00.000Z</time>
      </trkpt>
      <trkpt lat="43.21867" lon="0.91239">
        <ele>421</ele>
        <time>2019-02-17T12:49:02.000Z</time>
      </trkpt>
      <trkpt lat="43.21866" lon="0.91237">
        <ele>421</ele>
        <time>2019-02-17T12:49:04.000Z</time>
      </trkpt>
      <trkpt lat="43.21864" lon="0.91236">
        <ele>422</ele>
        <time>2019-02-17T12:49:06.000Z</time>
      </trkpt>
      <trkpt lat="43.21862" lon="0.91234">
        <ele>422</ele>
        <time>2019-02-17T12:49:08.000Z</time>
      </trkpt>
      <trkpt lat="43.2186" lon="0.91233">
        <ele>422</ele>
        <time>2019-02-17T12:49:10.000Z</time>
      </trkpt>
      <trkpt lat="43.21858" lon="0.91231">
        <ele>422</ele>
        <time>2019-02-17T12:49:12.000Z</time>
      </trkpt>
      <trkpt lat="43.21857" lon="0.9123">
        <ele>422</ele>
        <time>2019-02-17T12:49:14.000Z</time>
      </trkpt>
      <trkpt lat="43.21856" lon="0.91228">
        <ele>422</ele>
        <time>2019-02-17T12:49:16.000Z</time>
      </trkpt>
      <trkpt lat="43.21855" lon="0.91227">
        <ele>423</ele>
        <time>2019-02-17T12:49:18.000Z</time>
      </trkpt>
      <trkpt lat="43.21853" lon="0.91225">
        <ele>423</ele>
        <time>2019-02-17T12:49:20.000Z</time>
      </trkpt>
      <trkpt lat="43.21852" lon="0.91224">
        <ele>423</ele>
        <time>2019-02-17T12:49:22.000Z</time>
      </trkpt>
      <trkpt lat="43.21851" lon="0.91223">
        <ele>423</ele>
        <time>2019-02-17T12:49:24.000Z</time>
      </trkpt>
      <trkpt lat="43.21849" lon="0.91222">
        <ele>423</ele>
        <time>2019-02-17T12:49:26.000Z</time>
      </trkpt>
      <trkpt lat="43.21847" lon="0.91221">
        <ele>423</ele>
        <time>2019-02-17T12:49:28.000Z</time>
      </trkpt>
      <trkpt lat="43.21846" lon="0.91221">
        <ele>423</ele>
        <time>2019-02-17T12:49:30.000Z</time>
      </trkpt>
      <trkpt lat="43.21845" lon="0.9122">
        <ele>423</ele>
        <time>2019-02-17T12:49:32.000Z</time>
      </trkpt>
      <trkpt lat="43.21844" lon="0.91219">
        <ele>423</ele>
        <time>2019-02-17T12:49:34.000Z</time>
      </trkpt>
      <trkpt lat="43.21843" lon="0.91218">
        <ele>423</ele>
        <time>2019-02-17T12:49:36.000Z</time>
      </trkpt>
      <trkpt lat="43.21842" lon="0.91218">
        <ele>423</ele>
        <time>2019-02-17T12:49:38.000Z</time>
      </trkpt>
      <trkpt lat="43.2184" lon="0.91217">
        <ele>423</ele>
        <time>2019-02-17T12:49:40.000Z</time>
      </trkpt>
      <trkpt lat="43.21839" lon="0.91216">
        <ele>423</ele>
        <time>2019-02-17T12:49:42.000Z</time>
      </trkpt>
      <trkpt lat="43.21838" lon="0.91215">
        <ele>424</ele>
        <time>2019-02-17T12:49:44.000Z</time>
      </trkpt>
      <trkpt lat="43.21837" lon="0.91214">
        <ele>424</ele>
        <time>2019-02-17T12:49:46.000Z</time>
      </trkpt>
      <trkpt lat="43.21835" lon="0.91213">
        <ele>424</ele>
        <time>2019-02-17T12:49:48.000Z</time>
      </trkpt>
      <trkpt lat="43.21834" lon="0.91212">
        <ele>424</ele>
        <time>2019-02-17T12:49:50.000Z</time>
      </trkpt>
      <trkpt lat="43.21833" lon="0.91211">
        <ele>424</ele>
        <time>2019-02-17T12:49:52.000Z</time>
      </trkpt>
      <trkpt lat="43.21831" lon="0.9121">
        <ele>424</ele>
        <time>2019-02-17T12:49:54.000Z</time>
      </trkpt>
      <trkpt lat="43.21829" lon="0.91209">
        <ele>424</ele>
        <time>2019-02-17T12:49:56.000Z</time>
      </trkpt>
      <trkpt lat="43.21828" lon="0.91208">
        <ele>424</ele>
        <time>2019-02-17T12:49:58.000Z</time>
      </trkpt>
      <trkpt lat="43.21827" lon="0.91207">
        <ele>424</ele>
        <time>2019-02-17T12:50:00.000Z</time>
      </trkpt>
      <trkpt lat="43.21825" lon="0.91206">
        <ele>424</ele>
        <time>2019-02-17T12:50:02.000Z</time>
      </trkpt>
      <trkpt lat="43.21824" lon="0.91205">
        <ele>424</ele>
        <time>2019-02-17T12:50:04.000Z</time>
      </trkpt>
      <trkpt lat="43.21822" lon="0.91203">
        <ele>424</ele>
        <time>2019-02-17T12:50:06.000Z</time>
      </trkpt>
      <trkpt lat="43.21822" lon="0.91201">
        <ele>424</ele>
        <time>2019-02-17T12:50:08.000Z</time>
      </trkpt>
      <trkpt lat="43.21821" lon="0.912">
        <ele>424</ele>
        <time>2019-02-17T12:50:10.000Z</time>
      </trkpt>
      <trkpt lat="43.2182" lon="0.91199">
        <ele>424</ele>
        <time>2019-02-17T12:50:12.000Z</time>
      </trkpt>
      <trkpt lat="43.21819" lon="0.91197">
        <ele>425</ele>
        <time>2019-02-17T12:50:14.000Z</time>
      </trkpt>
      <trkpt lat="43.21818" lon="0.91196">
        <ele>425</ele>
        <time>2019-02-17T12:50:16.000Z</time>
      </trkpt>
      <trkpt lat="43.21817" lon="0.91195">
        <ele>425</ele>
        <time>2019-02-17T12:50:18.000Z</time>
      </trkpt>
      <trkpt lat="43.21816" lon="0.91193">
        <ele>425</ele>
        <time>2019-02-17T12:50:20.000Z</time>
      </trkpt>
      <trkpt lat="43.21815" lon="0.91192">
        <ele>425</ele>
        <time>2019-02-17T12:50:22.000Z</time>
      </trkpt>
      <trkpt lat="43.21813" lon="0.91191">
        <ele>425</ele>
        <time>2019-02-17T12:50:24.000Z</time>
      </trkpt>
      <trkpt lat="43.21812" lon="0.9119">
        <ele>425</ele>
        <time>2019-02-17T12:50:26.000Z</time>
      </trkpt>
      <trkpt lat="43.21811" lon="0.91188">
        <ele>425</ele>
        <time>2019-02-17T12:50:28.000Z</time>
      </trkpt>
      <trkpt lat="43.2181" lon="0.91187">
        <ele>425</ele>
        <time>2019-02-17T12:50:30.000Z</time>
      </trkpt>
      <trkpt lat="43.21808" lon="0.91186">
        <ele>425</ele>
        <time>2019-02-17T12:50:32.000Z</time>
      </trkpt>
      <trkpt lat="43.21806" lon="0.91184">
        <ele>425</ele>
        <time>2019-02-17T12:50:34.000Z</time>
      </trkpt>
      <trkpt lat="43.21805" lon="0.91183">
        <ele>425</ele>
        <time>2019-02-17T12:50:36.000Z</time>
      </trkpt>
      <trkpt lat="43.21803" lon="0.91182">
        <ele>425</ele>
        <time>2019-02-17T12:50:38.000Z</time>
      </trkpt>
      <trkpt lat="43.21801" lon="0.91181">
        <ele>426</ele>
        <time>2019-02-17T12:50:40.000Z</time>
      </trkpt>
      <trkpt lat="43.218" lon="0.91179">
        <ele>426</ele>
        <time>2019-02-17T12:50:42.000Z</time>
      </trkpt>
      <trkpt lat="43.21798" lon="0.91177">
        <ele>426</ele>
        <time>2019-02-17T12:50:44.000Z</time>
      </trkpt>
      <trkpt lat="43.21797" lon="0.91176">
        <ele>426</ele>
        <time>2019-02-17T12:50:46.000Z</time>
      </trkpt>
      <trkpt lat="43.21795" lon="0.91174">
        <ele>426</ele>
        <time>2019-02-17T12:50:48.000Z</time>
      </trkpt>
      <trkpt lat="43.21794" lon="0.91172">
        <ele>426</ele>
        <time>2019-02-17T12:50:50.000Z</time>
      </trkpt>
      <trkpt lat="43.21792" lon="0.91171">
        <ele>426</ele>
        <time>2019-02-17T12:50:52.000Z</time>
      </trkpt>
      <trkpt lat="43.21791" lon="0.91169">
        <ele>426</ele>
        <time>2019-02-17T12:50:54.000Z</time>
      </trkpt>
      <trkpt lat="43.21789" lon="0.91168">
        <ele>426</ele>
        <time>2019-02-17T12:50:56.000Z</time>
      </trkpt>
      <trkpt lat="43.21787" lon="0.91167">
        <ele>426</ele>
        <time>2019-02-17T12:50:58.000Z</time>
      </trkpt>
      <trkpt lat="43.21786" lon="0.91166">
        <ele>426</ele>
        <time>2019-02-17T12:51:00.000Z</time>
      </trkpt>
      <trkpt lat="43.21784" lon="0.91165">
        <ele>426</ele>
        <time>2019-02-17T12:51:02.000Z</time>
      </trkpt>
      <trkpt lat="43.21783" lon="0.91164">
        <ele>427</ele>
        <time>2019-02-17T12:51:04.000Z</time>
      </trkpt>
      <trkpt lat="43.21782" lon="0.91162">
        <ele>427</ele>
        <time>2019-02-17T12:51:06.000Z</time>
      </trkpt>
      <trkpt lat="43.2178" lon="0.9116">
        <ele>427</ele>
        <time>2019-02-17T12:51:08.000Z</time>
      </trkpt>
      <trkpt lat="43.21779" lon="0.91159">
        <ele>427</ele>
        <time>2019-02-17T12:51:10.000Z</time>
      </trkpt>
      <trkpt lat="43.21777" lon="0.91158">
        <ele>427</ele>
        <time>2019-02-17T12:51:12.000Z</time>
      </trkpt>
      <trkpt lat="43.21775" lon="0.91157">
        <ele>427</ele>
        <time>2019-02-17T12:51:14.000Z</time>
      </trkpt>
      <trkpt lat="43.21774" lon="0.91155">
        <ele>427</ele>
        <time>2019-02-17T12:51:16.000Z</time>
      </trkpt>
      <trkpt lat="43.21773" lon="0.91154">
        <ele>427</ele>
        <time>2019-02-17T12:51:18.000Z</time>
      </trkpt>
      <trkpt lat="43.21771" lon="0.91153">
        <ele>427</ele>
        <time>2019-02-17T12:51:20.000Z</time>
      </trkpt>
      <trkpt lat="43.2177" lon="0.91152">
        <ele>427</ele>
        <time>2019-02-17T12:51:22.000Z</time>
      </trkpt>
      <trkpt lat="43.21769" lon="0.91151">
        <ele>427</ele>
        <time>2019-02-17T12:51:24.000Z</time>
      </trkpt>
      <trkpt lat="43.21767" lon="0.9115">
        <ele>427</ele>
        <time>2019-02-17T12:51:26.000Z</time>
      </trkpt>
      <trkpt lat="43.21765" lon="0.91149">
        <ele>427</ele>
        <time>2019-02-17T12:51:28.000Z</time>
      </trkpt>
      <trkpt lat="43.21764" lon="0.91149">
        <ele>427</ele>
        <time>2019-02-17T12:51:30.000Z</time>
      </trkpt>
      <trkpt lat="43.21762" lon="0.91148">
        <ele>427</ele>
        <time>2019-02-17T12:51:32.000Z</time>
      </trkpt>
      <trkpt lat="43.21761" lon="0.91146">
        <ele>428</ele>
        <time>2019-02-17T12:51:34.000Z</time>
      </trkpt>
      <trkpt lat="43.2176" lon="0.91145">
        <ele>428</ele>
        <time>2019-02-17T12:51:36.000Z</time>
      </trkpt>
      <trkpt lat="43.21758" lon="0.91144">
        <ele>428</ele>
        <time>2019-02-17T12:51:38.000Z</time>
      </trkpt>
      <trkpt lat="43.21757" lon="0.91142">
        <ele>428</ele>
        <time>2019-02-17T12:51:40.000Z</time>
      </trkpt>
      <trkpt lat="43.21755" lon="0.91141">
        <ele>428</ele>
        <time>2019-02-17T12:51:42.000Z</time>
      </trkpt>
      <trkpt lat="43.21754" lon="0.9114">
        <ele>428</ele>
        <time>2019-02-17T12:51:44.000Z</time>
      </trkpt>
      <trkpt lat="43.21752" lon="0.91139">
        <ele>428</ele>
        <time>2019-02-17T12:51:46.000Z</time>
      </trkpt>
      <trkpt lat="43.21751" lon="0.91138">
        <ele>428</ele>
        <time>2019-02-17T12:51:48.000Z</time>
      </trkpt>
      <trkpt lat="43.2175" lon="0.91137">
        <ele>428</ele>
        <time>2019-02-17T12:51:50.000Z</time>
      </trkpt>
      <trkpt lat="43.21749" lon="0.91136">
        <ele>428</ele>
        <time>2019-02-17T12:51:52.000Z</time>
      </trkpt>
      <trkpt lat="43.21748" lon="0.91134">
        <ele>428</ele>
        <time>2019-02-17T12:51:54.000Z</time>
      </trkpt>
      <trkpt lat="43.21747" lon="0.91132">
        <ele>428</ele>
        <time>2019-02-17T12:51:56.000Z</time>
      </trkpt>
      <trkpt lat="43.21746" lon="0.9113">
        <ele>428</ele>
        <time>2019-02-17T12:51:58.000Z</time>
      </trkpt>
      <trkpt lat="43.21745" lon="0.91129">
        <ele>428</ele>
        <time>2019-02-17T12:52:00.000Z</time>
      </trkpt>
      <trkpt lat="43.21744" lon="0.91127">
        <ele>429</ele>
        <time>2019-02-17T12:52:02.000Z</time>
      </trkpt>
      <trkpt lat="43.21743" lon="0.91125">
        <ele>429</ele>
        <time>2019-02-17T12:52:04.000Z</time>
      </trkpt>
      <trkpt lat="43.21742" lon="0.91123">
        <ele>429</ele>
        <time>2019-02-17T12:52:06.000Z</time>
      </trkpt>
      <trkpt lat="43.21741" lon="0.91122">
        <ele>429</ele>
        <time>2019-02-17T12:52:08.000Z</time>
      </trkpt>
      <trkpt lat="43.2174" lon="0.91121">
        <ele>429</ele>
        <time>2019-02-17T12:52:10.000Z</time>
      </trkpt>
      <trkpt lat="43.21739" lon="0.91119">
        <ele>429</ele>
        <time>2019-02-17T12:52:12.000Z</time>
      </trkpt>
      <trkpt lat="43.21737" lon="0.91118">
        <ele>429</ele>
        <time>2019-02-17T12:52:14.000Z</time>
      </trkpt>
      <trkpt lat="43.21736" lon="0.91116">
        <ele>429</ele>
        <time>2019-02-17T12:52:16.000Z</time>
      </trkpt>
      <trkpt lat="43.21735" lon="0.91114">
        <ele>429</ele>
        <time>2019-02-17T12:52:18.000Z</time>
      </trkpt>
      <trkpt lat="43.21733" lon="0.91114">
        <ele>429</ele>
        <time>2019-02-17T12:52:20.000Z</time>
      </trkpt>
      <trkpt lat="43.21732" lon="0.91112">
        <ele>430</ele>
        <time>2019-02-17T12:52:22.000Z</time>
      </trkpt>
      <trkpt lat="43.21731" lon="0.91111">
        <ele>430</ele>
        <time>2019-02-17T12:52:24.000Z</time>
      </trkpt>
      <trkpt lat="43.21729" lon="0.9111">
        <ele>430</ele>
        <time>2019-02-17T12:52:26.000Z</time>
      </trkpt>
      <trkpt lat="43.21728" lon="0.91108">
        <ele>430</ele>
        <time>2019-02-17T12:52:28.000Z</time>
      </trkpt>
      <trkpt lat="43.21726" lon="0.91107">
        <ele>430</ele>
        <time>2019-02-17T12:52:30.000Z</time>
      </trkpt>
      <trkpt lat="43.21725" lon="0.91106">
        <ele>430</ele>
        <time>2019-02-17T12:52:32.000Z</time>
      </trkpt>
      <trkpt lat="43.21723" lon="0.91105">
        <ele>430</ele>
        <time>2019-02-17T12:52:34.000Z</time>
      </trkpt>
      <trkpt lat="43.21722" lon="0.91103">
        <ele>430</ele>
        <time>2019-02-17T12:52:36.000Z</time>
      </trkpt>
      <trkpt lat="43.21721" lon="0.91101">
        <ele>430</ele>
        <time>2019-02-17T12:52:38.000Z</time>
      </trkpt>
      <trkpt lat="43.2172" lon="0.91101">
        <ele>430</ele>
        <time>2019-02-17T12:52:40.000Z</time>
      </trkpt>
      <trkpt lat="43.21718" lon="0.91099">
        <ele>430</ele>
        <time>2019-02-17T12:52:42.000Z</time>
      </trkpt>
      <trkpt lat="43.21717" lon="0.91098">
        <ele>430</ele>
        <time>2019-02-17T12:52:44.000Z</time>
      </trkpt>
      <trkpt lat="43.21716" lon="0.91096">
        <ele>431</ele>
        <time>2019-02-17T12:52:46.000Z</time>
      </trkpt>
      <trkpt lat="43.21715" lon="0.91094">
        <ele>431</ele>
        <time>2019-02-17T12:52:48.000Z</time>
      </trkpt>
      <trkpt lat="43.21714" lon="0.91093">
        <ele>431</ele>
        <time>2019-02-17T12:52:50.000Z</time>
      </trkpt>
      <trkpt lat="43.21713" lon="0.91091">
        <ele>431</ele>
        <time>2019-02-17T12:52:52.000Z</time>
      </trkpt>
      <trkpt lat="43.21713" lon="0.91089">
        <ele>431</ele>
        <time>2019-02-17T12:52:54.000Z</time>
      </trkpt>
      <trkpt lat="43.21712" lon="0.91087">
        <ele>431</ele>
        <time>2019-02-17T12:52:56.000Z</time>
      </trkpt>
      <trkpt lat="43.21711" lon="0.91086">
        <ele>431</ele>
        <time>2019-02-17T12:52:58.000Z</time>
      </trkpt>
      <trkpt lat="43.2171" lon="0.91084">
        <ele>431</ele>
        <time>2019-02-17T12:53:00.000Z</time>
      </trkpt>
      <trkpt lat="43.21709" lon="0.91083">
        <ele>431</ele>
        <time>2019-02-17T12:53:02.000Z</time>
      </trkpt>
      <trkpt lat="43.21708" lon="0.91081">
        <ele>432</ele>
        <time>2019-02-17T12:53:04.000Z</time>
      </trkpt>
      <trkpt lat="43.21707" lon="0.91079">
        <ele>432</ele>
        <time>2019-02-17T12:53:06.000Z</time>
      </trkpt>
      <trkpt lat="43.21707" lon="0.91078">
        <ele>432</ele>
        <time>2019-02-17T12:53:08.000Z</time>
      </trkpt>
      <trkpt lat="43.21706" lon="0.91075">
        <ele>432</ele>
        <time>2019-02-17T12:53:10.000Z</time>
      </trkpt>
      <trkpt lat="43.21705" lon="0.91074">
        <ele>432</ele>
        <time>2019-02-17T12:53:12.000Z</time>
      </trkpt>
      <trkpt lat="43.21705" lon="0.91072">
        <ele>432</ele>
        <time>2019-02-17T12:53:14.000Z</time>
      </trkpt>
      <trkpt lat="43.21704" lon="0.91071">
        <ele>432</ele>
        <time>2019-02-17T12:53:16.000Z</time>
      </trkpt>
      <trkpt lat="43.21703" lon="0.9107">
        <ele>432</ele>
        <time>2019-02-17T12:53:18.000Z</time>
      </trkpt>
      <trkpt lat="43.21703" lon="0.91069">
        <ele>432</ele>
        <time>2019-02-17T12:53:20.000Z</time>
      </trkpt>
      <trkpt lat="43.21703" lon="0.9107">
        <ele>432</ele>
        <time>2019-02-17T12:53:22.000Z</time>
      </trkpt>
      <trkpt lat="43.21702" lon="0.91069">
        <ele>432</ele>
        <time>2019-02-17T12:53:24.000Z</time>
      </trkpt>
      <trkpt lat="43.21702" lon="0.9107">
        <ele>432</ele>
        <time>2019-02-17T12:53:26.000Z</time>
      </trkpt>
      <trkpt lat="43.21703" lon="0.9107">
        <ele>432</ele>
        <time>2019-02-17T12:53:28.000Z</time>
      </trkpt>
      <trkpt lat="43.21703" lon="0.9107">
        <ele>432</ele>
        <time>2019-02-17T12:53:30.000Z</time>
      </trkpt>
      <trkpt lat="43.21703" lon="0.9107">
        <ele>432</ele>
        <time>2019-02-17T12:53:32.000Z</time>
      </trkpt>
      <trkpt lat="43.21704" lon="0.91069">
        <ele>432</ele>
        <time>2019-02-17T12:53:34.000Z</time>
      </trkpt>
      <trkpt lat="43.21704" lon="0.91069">
        <ele>432</ele>
        <time>2019-02-17T12:53:36.000Z</time>
      </trkpt>
      <trkpt lat="43.21704" lon="0.91069">
        <ele>432</ele>
        <time>2019-02-17T12:53:38.000Z</time>
      </trkpt>
      <trkpt lat="43.21704" lon="0.91069">
        <ele>432</ele>
        <time>2019-02-17T12:53:40.000Z</time>
      </trkpt>
      <trkpt lat="43.21704" lon="0.9107">
        <ele>432</ele>
        <time>2019-02-17T12:53:42.000Z</time>
      </trkpt>
      <trkpt lat="43.21704" lon="0.9107">
        <ele>432</ele>
        <time>2019-02-17T12:53:44.000Z</time>
      </trkpt>
      <trkpt lat="43.21704" lon="0.9107">
        <ele>432</ele>
        <time>2019-02-17T12:53:46.000Z</time>
      </trkpt>
      <trkpt lat="43.21704" lon="0.9107">
        <ele>432</ele>
        <time>2019-02-17T12:53:48.000Z</time>
      </trkpt>
      <trkpt lat="43.21704" lon="0.9107">
        <ele>432</ele>
        <time>2019-02-17T12:53:50.000Z</time>
      </trkpt>
      <trkpt lat="43.21704" lon="0.9107">
        <ele>432</ele>
        <time>2019-02-17T12:53:52.000Z</time>
      </trkpt>
      <trkpt lat="43.21703" lon="0.9107">
        <ele>432</ele>
        <time>2019-02-17T12:53:54.000Z</time>
      </trkpt>
      <trkpt lat="43.21703" lon="0.91071">
        <ele>432</ele>
        <time>2019-02-17T12:53:56.000Z</time>
      </trkpt>
      <trkpt lat="43.21703" lon="0.91071">
        <ele>432</ele>
        <time>2019-02-17T12:53:58.000Z</time>
      </trkpt>
      <trkpt lat="43.21703" lon="0.91071">
        <ele>432</ele>
        <time>2019-02-17T12:54:00.000Z</time>
      </trkpt>
      <trkpt lat="43.21703" lon="0.91071">
        <ele>432</ele>
        <time>2019-02-17T12:54:02.000Z</time>
      </trkpt>
      <trkpt lat="43.21703" lon="0.91071">
        <ele>432</ele>
        <time>2019-02-17T12:54:04.000Z</time>
      </trkpt>
      <trkpt lat="43.21703" lon="0.91071">
        <ele>432</ele>
        <time>2019-02-17T12:54:06.000Z</time>
      </trkpt>
      <trkpt lat="43.21703" lon="0.9107">
        <ele>432</ele>
        <time>2019-02-17T12:54:08.000Z</time>
      </trkpt>
      <trkpt lat="43.21703" lon="0.9107">
        <ele>432</ele>
        <time>2019-02-17T12:54:10.000Z</time>
      </trkpt>
      <trkpt lat="43.21703" lon="0.91069">
        <ele>432</ele>
        <time>2019-02-17T12:54:12.000Z</time>
      </trkpt>
      <trkpt lat="43.21704" lon="0.91068">
        <ele>432</ele>
        <time>2019-02-17T12:54:14.000Z</time>
      </trkpt>
      <trkpt lat="43.21705" lon="0.91068">
        <ele>432</ele>
        <time>2019-02-17T12:54:16.000Z</time>
      </trkpt>
      <trkpt lat="43.21705" lon="0.91068">
        <ele>432</ele>
        <time>2019-02-17T12:54:18.000Z</time>
      </trkpt>
      <trkpt lat="43.21705" lon="0.91068">
        <ele>432</ele>
        <time>2019-02-17T12:54:20.000Z</time>
      </trkpt>
      <trkpt lat="43.21705" lon="0.91068">
        <ele>432</ele>
        <time>2019-02-17T12:54:22.000Z</time>
      </trkpt>
      <trkpt lat="43.21706" lon="0.91067">
        <ele>432</ele>
        <time>2019-02-17T12:54:24.000Z</time>
      </trkpt>
      <trkpt lat="43.21705" lon="0.91067">
        <ele>432</ele>
        <time>2019-02-17T12:54:26.000Z</time>
      </trkpt>
      <trkpt lat="43.21705" lon="0.91067">
        <ele>432</ele>
        <time>2019-02-17T12:54:28.000Z</time>
      </trkpt>
      <trkpt lat="43.21706" lon="0.91066">
        <ele>432</ele>
        <time>2019-02-17T12:54:30.000Z</time>
      </trkpt>
      <trkpt lat="43.21706" lon="0.91066">
        <ele>432</ele>
        <time>2019-02-17T12:54:32.000Z</time>
      </trkpt>
      <trkpt lat="43.21706" lon="0.91066">
        <ele>432</ele>
        <time>2019-02-17T12:54:34.000Z</time>
      </trkpt>
      <trkpt lat="43.21706" lon="0.91066">
        <ele>432</ele>
        <time>2019-02-17T12:54:36.000Z</time>
      </trkpt>
      <trkpt lat="43.21706" lon="0.91066">
        <ele>432</ele>
        <time>2019-02-17T12:54:38.000Z</time>
      </trkpt>
      <trkpt lat="43.21706" lon="0.91066">
        <ele>432</ele>
        <time>2019-02-17T12:54:40.000Z</time>
      </trkpt>
      <trkpt lat="43.21706" lon="0.91067">
        <ele>432</ele>
        <time>2019-02-17T12:54:42.000Z</time>
      </trkpt>
      <trkpt lat="43.21706" lon="0.91067">
        <ele>432</ele>
        <time>2019-02-17T12:54:44.000Z</time>
      </trkpt>
      <trkpt lat="43.21706" lon="0.91067">
        <ele>432</ele>
        <time>2019-02-17T12:54:46.000Z</time>
      </trkpt>
      <trkpt lat="43.21706" lon="0.91067">
        <ele>432</ele>
        <time>2019-02-17T12:54:48.000Z</time>
      </trkpt>
      <trkpt lat="43.21706" lon="0.91067">
        <ele>432</ele>
        <time>2019-02-17T12:54:50.000Z</time>
      </trkpt>
      <trkpt lat="43.21706" lon="0.91067">
        <ele>432</ele>
        <time>2019-02-17T12:54:52.000Z</time>
      </trkpt>
      <trkpt lat="43.21706" lon="0.91067">
        <ele>432</ele>
        <time>2019-02-17T12:54:54.000Z</time>
      </trkpt>
      <trkpt lat="43.21705" lon="0.91067">
        <ele>432</ele>
        <time>2019-02-17T12:54:56.000Z</time>
      </trkpt>
      <trkpt lat="43.21705" lon="0.91067">
        <ele>432</ele>
        <time>2019-02-17T12:54:58.000Z</time>
      </trkpt>
      <trkpt lat="43.21705" lon="0.91067">
        <ele>432</ele>
        <time>2019-02-17T12:55:00.000Z</time>
      </trkpt>
      <trkpt lat="43.21705" lon="0.91067">
        <ele>432</ele>
        <time>2019-02-17T12:55:02.000Z</time>
      </trkpt>
      <trkpt lat="43.21705" lon="0.91068">
        <ele>432</ele>
        <time>2019-02-17T12:55:04.000Z</time>
      </trkpt>
      <trkpt lat="43.21704" lon="0.91066">
        <ele>432</ele>
        <time>2019-02-17T12:55:06.000Z</time>
      </trkpt>
      <trkpt lat="43.21704" lon="0.91065">
        <ele>432</ele>
        <time>2019-02-17T12:55:08.000Z</time>
      </trkpt>
      <trkpt lat="43.21704" lon="0.91065">
        <ele>433</ele>
        <time>2019-02-17T12:55:10.000Z</time>
      </trkpt>
      <trkpt lat="43.21704" lon="0.91065">
        <ele>432</ele>
        <time>2019-02-17T12:55:12.000Z</time>
      </trkpt>
      <trkpt lat="43.21704" lon="0.91065">
        <ele>432</ele>
        <time>2019-02-17T12:55:14.000Z</time>
      </trkpt>
      <trkpt lat="43.21704" lon="0.91066">
        <ele>432</ele>
        <time>2019-02-17T12:55:16.000Z</time>
      </trkpt>
      <trkpt lat="43.21705" lon="0.91066">
        <ele>432</ele>
        <time>2019-02-17T12:55:18.000Z</time>
      </trkpt>
      <trkpt lat="43.21705" lon="0.91066">
        <ele>432</ele>
        <time>2019-02-17T12:55:20.000Z</time>
      </trkpt>
      <trkpt lat="43.21704" lon="0.91066">
        <ele>432</ele>
        <time>2019-02-17T12:55:22.000Z</time>
      </trkpt>
      <trkpt lat="43.21704" lon="0.91066">
        <ele>432</ele>
        <time>2019-02-17T12:55:24.000Z</time>
      </trkpt>
      <trkpt lat="43.21704" lon="0.91066">
        <ele>432</ele>
        <time>2019-02-17T12:55:26.000Z</time>
      </trkpt>
      <trkpt lat="43.21704" lon="0.91065">
        <ele>432</ele>
        <time>2019-02-17T12:55:28.000Z</time>
      </trkpt>
      <trkpt lat="43.21704" lon="0.91066">
        <ele>432</ele>
        <time>2019-02-17T12:55:30.000Z</time>
      </trkpt>
      <trkpt lat="43.21704" lon="0.91066">
        <ele>432</ele>
        <time>2019-02-17T12:55:32.000Z</time>
      </trkpt>
      <trkpt lat="43.21703" lon="0.91066">
        <ele>432</ele>
        <time>2019-02-17T12:55:34.000Z</time>
      </trkpt>
      <trkpt lat="43.21703" lon="0.91065">
        <ele>432</ele>
        <time>2019-02-17T12:55:36.000Z</time>
      </trkpt>
      <trkpt lat="43.21703" lon="0.91065">
        <ele>432</ele>
        <time>2019-02-17T12:55:38.000Z</time>
      </trkpt>
      <trkpt lat="43.21702" lon="0.91065">
        <ele>433</ele>
        <time>2019-02-17T12:55:40.000Z</time>
      </trkpt>
      <trkpt lat="43.21702" lon="0.91064">
        <ele>433</ele>
        <time>2019-02-17T12:55:42.000Z</time>
      </trkpt>
      <trkpt lat="43.21701" lon="0.91064">
        <ele>433</ele>
        <time>2019-02-17T12:55:44.000Z</time>
      </trkpt>
      <trkpt lat="43.21701" lon="0.91064">
        <ele>433</ele>
        <time>2019-02-17T12:55:46.000Z</time>
      </trkpt>
      <trkpt lat="43.21701" lon="0.91064">
        <ele>433</ele>
        <time>2019-02-17T12:55:48.000Z</time>
      </trkpt>
      <trkpt lat="43.21701" lon="0.91064">
        <ele>433</ele>
        <time>2019-02-17T12:55:50.000Z</time>
      </trkpt>
      <trkpt lat="43.21701" lon="0.91064">
        <ele>433</ele>
        <time>2019-02-17T12:55:52.000Z</time>
      </trkpt>
      <trkpt lat="43.21701" lon="0.91064">
        <ele>433</ele>
        <time>2019-02-17T12:55:54.000Z</time>
      </trkpt>
      <trkpt lat="43.21701" lon="0.91064">
        <ele>433</ele>
        <time>2019-02-17T12:55:56.000Z</time>
      </trkpt>
      <trkpt lat="43.21701" lon="0.91065">
        <ele>433</ele>
        <time>2019-02-17T12:55:58.000Z</time>
      </trkpt>
      <trkpt lat="43.21701" lon="0.91065">
        <ele>433</ele>
        <time>2019-02-17T12:56:00.000Z</time>
      </trkpt>
      <trkpt lat="43.21701" lon="0.91065">
        <ele>432</ele>
        <time>2019-02-17T12:56:02.000Z</time>
      </trkpt>
      <trkpt lat="43.21701" lon="0.91065">
        <ele>433</ele>
        <time>2019-02-17T12:56:04.000Z</time>
      </trkpt>
      <trkpt lat="43.21699" lon="0.91064">
        <ele>433</ele>
        <time>2019-02-17T12:56:06.000Z</time>
      </trkpt>
      <trkpt lat="43.21698" lon="0.91062">
        <ele>433</ele>
        <time>2019-02-17T12:56:08.000Z</time>
      </trkpt>
      <trkpt lat="43.21698" lon="0.9106">
        <ele>433</ele>
        <time>2019-02-17T12:56:10.000Z</time>
      </trkpt>
      <trkpt lat="43.21698" lon="0.91058">
        <ele>433</ele>
        <time>2019-02-17T12:56:12.000Z</time>
      </trkpt>
      <trkpt lat="43.21697" lon="0.91056">
        <ele>433</ele>
        <time>2019-02-17T12:56:14.000Z</time>
      </trkpt>
      <trkpt lat="43.21696" lon="0.91054">
        <ele>433</ele>
        <time>2019-02-17T12:56:16.000Z</time>
      </trkpt>
      <trkpt lat="43.21696" lon="0.91052">
        <ele>433</ele>
        <time>2019-02-17T12:56:18.000Z</time>
      </trkpt>
      <trkpt lat="43.21696" lon="0.91051">
        <ele>433</ele>
        <time>2019-02-17T12:56:20.000Z</time>
      </trkpt>
      <trkpt lat="43.21695" lon="0.9105">
        <ele>433</ele>
        <time>2019-02-17T12:56:22.000Z</time>
      </trkpt>
      <trkpt lat="43.21695" lon="0.91049">
        <ele>433</ele>
        <time>2019-02-17T12:56:24.000Z</time>
      </trkpt>
      <trkpt lat="43.21694" lon="0.91048">
        <ele>434</ele>
        <time>2019-02-17T12:56:26.000Z</time>
      </trkpt>
      <trkpt lat="43.21694" lon="0.91048">
        <ele>434</ele>
        <time>2019-02-17T12:56:28.000Z</time>
      </trkpt>
      <trkpt lat="43.21694" lon="0.91047">
        <ele>434</ele>
        <time>2019-02-17T12:56:30.000Z</time>
      </trkpt>
      <trkpt lat="43.21694" lon="0.91047">
        <ele>434</ele>
        <time>2019-02-17T12:56:32.000Z</time>
      </trkpt>
      <trkpt lat="43.21693" lon="0.91048">
        <ele>434</ele>
        <time>2019-02-17T12:56:34.000Z</time>
      </trkpt>
      <trkpt lat="43.21693" lon="0.91048">
        <ele>434</ele>
        <time>2019-02-17T12:56:36.000Z</time>
      </trkpt>
      <trkpt lat="43.21693" lon="0.91048">
        <ele>434</ele>
        <time>2019-02-17T12:56:38.000Z</time>
      </trkpt>
      <trkpt lat="43.21694" lon="0.91048">
        <ele>434</ele>
        <time>2019-02-17T12:56:40.000Z</time>
      </trkpt>
      <trkpt lat="43.21694" lon="0.91048">
        <ele>434</ele>
        <time>2019-02-17T12:56:42.000Z</time>
      </trkpt>
      <trkpt lat="43.21694" lon="0.91048">
        <ele>434</ele>
        <time>2019-02-17T12:56:44.000Z</time>
      </trkpt>
      <trkpt lat="43.21694" lon="0.91048">
        <ele>434</ele>
        <time>2019-02-17T12:56:46.000Z</time>
      </trkpt>
      <trkpt lat="43.21694" lon="0.91048">
        <ele>434</ele>
        <time>2019-02-17T12:56:48.000Z</time>
      </trkpt>
      <trkpt lat="43.21694" lon="0.91048">
        <ele>434</ele>
        <time>2019-02-17T12:56:50.000Z</time>
      </trkpt>
      <trkpt lat="43.21694" lon="0.91048">
        <ele>434</ele>
        <time>2019-02-17T12:56:52.000Z</time>
      </trkpt>
      <trkpt lat="43.21694" lon="0.91048">
        <ele>434</ele>
        <time>2019-02-17T12:56:54.000Z</time>
      </trkpt>
      <trkpt lat="43.21694" lon="0.91048">
        <ele>434</ele>
        <time>2019-02-17T12:56:56.000Z</time>
      </trkpt>
      <trkpt lat="43.21694" lon="0.91048">
        <ele>434</ele>
        <time>2019-02-17T12:56:58.000Z</time>
      </trkpt>
      <trkpt lat="43.21694" lon="0.91047">
        <ele>434</ele>
        <time>2019-02-17T12:57:00.000Z</time>
      </trkpt>
      <trkpt lat="43.21694" lon="0.91047">
        <ele>434</ele>
        <time>2019-02-17T12:57:02.000Z</time>
      </trkpt>
      <trkpt lat="43.21694" lon="0.91047">
        <ele>434</ele>
        <time>2019-02-17T12:57:04.000Z</time>
      </trkpt>
      <trkpt lat="43.21694" lon="0.91047">
        <ele>434</ele>
        <time>2019-02-17T12:57:06.000Z</time>
      </trkpt>
      <trkpt lat="43.21695" lon="0.91046">
        <ele>434</ele>
        <time>2019-02-17T12:57:08.000Z</time>
      </trkpt>
      <trkpt lat="43.21695" lon="0.91046">
        <ele>434</ele>
        <time>2019-02-17T12:57:10.000Z</time>
      </trkpt>
      <trkpt lat="43.21695" lon="0.91046">
        <ele>434</ele>
        <time>2019-02-17T12:57:12.000Z</time>
      </trkpt>
      <trkpt lat="43.21695" lon="0.91046">
        <ele>434</ele>
        <time>2019-02-17T12:57:14.000Z</time>
      </trkpt>
      <trkpt lat="43.21695" lon="0.91046">
        <ele>434</ele>
        <time>2019-02-17T12:57:16.000Z</time>
      </trkpt>
      <trkpt lat="43.21695" lon="0.91046">
        <ele>434</ele>
        <time>2019-02-17T12:57:18.000Z</time>
      </trkpt>
      <trkpt lat="43.21695" lon="0.91046">
        <ele>434</ele>
        <time>2019-02-17T12:57:20.000Z</time>
      </trkpt>
      <trkpt lat="43.21695" lon="0.91046">
        <ele>434</ele>
        <time>2019-02-17T12:57:22.000Z</time>
      </trkpt>
      <trkpt lat="43.21695" lon="0.91046">
        <ele>434</ele>
        <time>2019-02-17T12:57:24.000Z</time>
      </trkpt>
      <trkpt lat="43.21695" lon="0.91046">
        <ele>434</ele>
        <time>2019-02-17T12:57:26.000Z</time>
      </trkpt>
      <trkpt lat="43.21695" lon="0.91046">
        <ele>434</ele>
        <time>2019-02-17T12:57:28.000Z</time>
      </trkpt>
      <trkpt lat="43.21695" lon="0.91046">
        <ele>434</ele>
        <time>2019-02-17T12:57:30.000Z</time>
      </trkpt>
      <trkpt lat="43.21695" lon="0.91046">
        <ele>434</ele>
        <time>2019-02-17T12:57:32.000Z</time>
      </trkpt>
      <trkpt lat="43.21695" lon="0.91046">
        <ele>434</ele>
        <time>2019-02-17T12:57:34.000Z</time>
      </trkpt>
      <trkpt lat="43.21696" lon="0.91046">
        <ele>434</ele>
        <time>2019-02-17T12:57:36.000Z</time>
      </trkpt>
      <trkpt lat="43.21696" lon="0.91046">
        <ele>434</ele>
        <time>2019-02-17T12:57:38.000Z</time>
      </trkpt>
      <trkpt lat="43.21695" lon="0.91046">
        <ele>434</ele>
        <time>2019-02-17T12:57:40.000Z</time>
      </trkpt>
      <trkpt lat="43.21695" lon="0.91046">
        <ele>434</ele>
        <time>2019-02-17T12:57:42.000Z</time>
      </trkpt>
      <trkpt lat="43.21695" lon="0.91046">
        <ele>434</ele>
        <time>2019-02-17T12:57:44.000Z</time>
      </trkpt>
      <trkpt lat="43.21695" lon="0.91047">
        <ele>434</ele>
        <time>2019-02-17T12:57:46.000Z</time>
      </trkpt>
      <trkpt lat="43.21695" lon="0.91048">
        <ele>434</ele>
        <time>2019-02-17T12:57:48.000Z</time>
      </trkpt>
      <trkpt lat="43.21695" lon="0.91048">
        <ele>434</ele>
        <time>2019-02-17T12:57:50.000Z</time>
      </trkpt>
      <trkpt lat="43.21695" lon="0.91048">
        <ele>434</ele>
        <time>2019-02-17T12:57:52.000Z</time>
      </trkpt>
      <trkpt lat="43.21695" lon="0.91048">
        <ele>434</ele>
        <time>2019-02-17T12:57:54.000Z</time>
      </trkpt>
      <trkpt lat="43.21695" lon="0.91048">
        <ele>434</ele>
        <time>2019-02-17T12:57:56.000Z</time>
      </trkpt>
      <trkpt lat="43.21694" lon="0.91048">
        <ele>434</ele>
        <time>2019-02-17T12:57:58.000Z</time>
      </trkpt>
      <trkpt lat="43.21694" lon="0.91048">
        <ele>434</ele>
        <time>2019-02-17T12:58:00.000Z</time>
      </trkpt>
      <trkpt lat="43.21695" lon="0.91047">
        <ele>434</ele>
        <time>2019-02-17T12:58:02.000Z</time>
      </trkpt>
      <trkpt lat="43.21695" lon="0.91047">
        <ele>434</ele>
        <time>2019-02-17T12:58:04.000Z</time>
      </trkpt>
      <trkpt lat="43.21694" lon="0.91047">
        <ele>434</ele>
        <time>2019-02-17T12:58:06.000Z</time>
      </trkpt>
      <trkpt lat="43.21694" lon="0.91047">
        <ele>434</ele>
        <time>2019-02-17T12:58:08.000Z</time>
      </trkpt>
      <trkpt lat="43.21694" lon="0.91047">
        <ele>434</ele>
        <time>2019-02-17T12:58:10.000Z</time>
      </trkpt>
      <trkpt lat="43.21694" lon="0.91047">
        <ele>434</ele>
        <time>2019-02-17T12:58:12.000Z</time>
      </trkpt>
      <trkpt lat="43.21694" lon="0.91047">
        <ele>434</ele>
        <time>2019-02-17T12:58:14.000Z</time>
      </trkpt>
      <trkpt lat="43.21694" lon="0.91047">
        <ele>434</ele>
        <time>2019-02-17T12:58:16.000Z</time>
      </trkpt>
      <trkpt lat="43.21694" lon="0.91047">
        <ele>434</ele>
        <time>2019-02-17T12:58:18.000Z</time>
      </trkpt>
      <trkpt lat="43.21694" lon="0.91047">
        <ele>434</ele>
        <time>2019-02-17T12:58:20.000Z</time>
      </trkpt>
      <trkpt lat="43.21694" lon="0.91047">
        <ele>434</ele>
        <time>2019-02-17T12:58:22.000Z</time>
      </trkpt>
      <trkpt lat="43.21694" lon="0.91047">
        <ele>434</ele>
        <time>2019-02-17T12:58:24.000Z</time>
      </trkpt>
      <trkpt lat="43.21694" lon="0.91047">
        <ele>434</ele>
        <time>2019-02-17T12:58:26.000Z</time>
      </trkpt>
      <trkpt lat="43.21695" lon="0.91047">
        <ele>434</ele>
        <time>2019-02-17T12:58:28.000Z</time>
      </trkpt>
      <trkpt lat="43.21695" lon="0.91047">
        <ele>434</ele>
        <time>2019-02-17T12:58:30.000Z</time>
      </trkpt>
      <trkpt lat="43.21696" lon="0.91048">
        <ele>434</ele>
        <time>2019-02-17T12:58:32.000Z</time>
      </trkpt>
      <trkpt lat="43.21696" lon="0.91048">
        <ele>434</ele>
        <time>2019-02-17T12:58:34.000Z</time>
      </trkpt>
      <trkpt lat="43.21695" lon="0.91048">
        <ele>434</ele>
        <time>2019-02-17T12:58:36.000Z</time>
      </trkpt>
      <trkpt lat="43.21695" lon="0.91048">
        <ele>434</ele>
        <time>2019-02-17T12:58:38.000Z</time>
      </trkpt>
      <trkpt lat="43.21695" lon="0.91048">
        <ele>434</ele>
        <time>2019-02-17T12:58:40.000Z</time>
      </trkpt>
      <trkpt lat="43.21695" lon="0.91048">
        <ele>434</ele>
        <time>2019-02-17T12:58:42.000Z</time>
      </trkpt>
      <trkpt lat="43.21695" lon="0.91048">
        <ele>434</ele>
        <time>2019-02-17T12:58:44.000Z</time>
      </trkpt>
      <trkpt lat="43.21695" lon="0.91048">
        <ele>434</ele>
        <time>2019-02-17T12:58:46.000Z</time>
      </trkpt>
      <trkpt lat="43.21694" lon="0.91048">
        <ele>434</ele>
        <time>2019-02-17T12:58:48.000Z</time>
      </trkpt>
      <trkpt lat="43.21694" lon="0.91048">
        <ele>434</ele>
        <time>2019-02-17T12:58:50.000Z</time>
      </trkpt>
      <trkpt lat="43.21694" lon="0.91049">
        <ele>433</ele>
        <time>2019-02-17T12:58:52.000Z</time>
      </trkpt>
      <trkpt lat="43.21694" lon="0.91049">
        <ele>433</ele>
        <time>2019-02-17T12:58:54.000Z</time>
      </trkpt>
      <trkpt lat="43.21693" lon="0.91048">
        <ele>434</ele>
        <time>2019-02-17T12:58:56.000Z</time>
      </trkpt>
      <trkpt lat="43.21693" lon="0.91048">
        <ele>434</ele>
        <time>2019-02-17T12:58:58.000Z</time>
      </trkpt>
      <trkpt lat="43.21693" lon="0.91048">
        <ele>434</ele>
        <time>2019-02-17T12:59:00.000Z</time>
      </trkpt>
      <trkpt lat="43.21692" lon="0.91048">
        <ele>434</ele>
        <time>2019-02-17T12:59:02.000Z</time>
      </trkpt>
      <trkpt lat="43.21692" lon="0.91048">
        <ele>434</ele>
        <time>2019-02-17T12:59:04.000Z</time>
      </trkpt>
      <trkpt lat="43.21693" lon="0.91048">
        <ele>434</ele>
        <time>2019-02-17T12:59:06.000Z</time>
      </trkpt>
      <trkpt lat="43.21693" lon="0.91049">
        <ele>434</ele>
        <time>2019-02-17T12:59:08.000Z</time>
      </trkpt>
      <trkpt lat="43.21694" lon="0.91049">
        <ele>433</ele>
        <time>2019-02-17T12:59:10.000Z</time>
      </trkpt>
      <trkpt lat="43.21693" lon="0.91049">
        <ele>433</ele>
        <time>2019-02-17T12:59:12.000Z</time>
      </trkpt>
      <trkpt lat="43.21693" lon="0.91049">
        <ele>433</ele>
        <time>2019-02-17T12:59:14.000Z</time>
      </trkpt>
      <trkpt lat="43.21693" lon="0.91049">
        <ele>433</ele>
        <time>2019-02-17T12:59:16.000Z</time>
      </trkpt>
      <trkpt lat="43.21693" lon="0.91049">
        <ele>433</ele>
        <time>2019-02-17T12:59:18.000Z</time>
      </trkpt>
      <trkpt lat="43.21693" lon="0.91049">
        <ele>433</ele>
        <time>2019-02-17T12:59:20.000Z</time>
      </trkpt>
      <trkpt lat="43.21693" lon="0.91049">
        <ele>433</ele>
        <time>2019-02-17T12:59:22.000Z</time>
      </trkpt>
      <trkpt lat="43.21693" lon="0.91049">
        <ele>433</ele>
        <time>2019-02-17T12:59:24.000Z</time>
      </trkpt>
      <trkpt lat="43.21693" lon="0.91049">
        <ele>433</ele>
        <time>2019-02-17T12:59:26.000Z</time>
      </trkpt>
      <trkpt lat="43.21693" lon="0.91049">
        <ele>433</ele>
        <time>2019-02-17T12:59:28.000Z</time>
      </trkpt>
      <trkpt lat="43.21692" lon="0.91048">
        <ele>434</ele>
        <time>2019-02-17T12:59:30.000Z</time>
      </trkpt>
      <trkpt lat="43.21693" lon="0.91048">
        <ele>434</ele>
        <time>2019-02-17T12:59:32.000Z</time>
      </trkpt>
      <trkpt lat="43.21693" lon="0.91048">
        <ele>434</ele>
        <time>2019-02-17T12:59:34.000Z</time>
      </trkpt>
      <trkpt lat="43.21693" lon="0.91048">
        <ele>434</ele>
        <time>2019-02-17T12:59:36.000Z</time>
      </trkpt>
      <trkpt lat="43.21693" lon="0.91048">
        <ele>434</ele>
        <time>2019-02-17T12:59:38.000Z</time>
      </trkpt>
      <trkpt lat="43.21693" lon="0.91048">
        <ele>434</ele>
        <time>2019-02-17T12:59:40.000Z</time>
      </trkpt>
      <trkpt lat="43.21693" lon="0.91048">
        <ele>434</ele>
        <time>2019-02-17T12:59:42.000Z</time>
      </trkpt>
      <trkpt lat="43.21693" lon="0.91047">
        <ele>434</ele>
        <time>2019-02-17T12:59:44.000Z</time>
      </trkpt>
      <trkpt lat="43.21691" lon="0.91046">
        <ele>434</ele>
        <time>2019-02-17T12:59:46.000Z</time>
      </trkpt>
      <trkpt lat="43.2169" lon="0.91044">
        <ele>434</ele>
        <time>2019-02-17T12:59:48.000Z</time>
      </trkpt>
      <trkpt lat="43.21689" lon="0.91042">
        <ele>434</ele>
        <time>2019-02-17T12:59:50.000Z</time>
      </trkpt>
      <trkpt lat="43.21688" lon="0.9104">
        <ele>434</ele>
        <time>2019-02-17T12:59:52.000Z</time>
      </trkpt>
      <trkpt lat="43.21687" lon="0.91038">
        <ele>434</ele>
        <time>2019-02-17T12:59:54.000Z</time>
      </trkpt>
      <trkpt lat="43.21686" lon="0.91036">
        <ele>434</ele>
        <time>2019-02-17T12:59:56.000Z</time>
      </trkpt>
      <trkpt lat="43.21686" lon="0.91034">
        <ele>434</ele>
        <time>2019-02-17T12:59:58.000Z</time>
      </trkpt>
      <trkpt lat="43.21685" lon="0.91032">
        <ele>434</ele>
        <time>2019-02-17T13:00:00.000Z</time>
      </trkpt>
      <trkpt lat="43.21684" lon="0.91031">
        <ele>435</ele>
        <time>2019-02-17T13:00:02.000Z</time>
      </trkpt>
      <trkpt lat="43.21684" lon="0.91029">
        <ele>435</ele>
        <time>2019-02-17T13:00:04.000Z</time>
      </trkpt>
      <trkpt lat="43.21683" lon="0.91027">
        <ele>435</ele>
        <time>2019-02-17T13:00:06.000Z</time>
      </trkpt>
      <trkpt lat="43.21682" lon="0.91025">
        <ele>435</ele>
        <time>2019-02-17T13:00:08.000Z</time>
      </trkpt>
      <trkpt lat="43.21681" lon="0.91023">
        <ele>435</ele>
        <time>2019-02-17T13:00:10.000Z</time>
      </trkpt>
      <trkpt lat="43.2168" lon="0.91021">
        <ele>435</ele>
        <time>2019-02-17T13:00:12.000Z</time>
      </trkpt>
      <trkpt lat="43.2168" lon="0.91019">
        <ele>435</ele>
        <time>2019-02-17T13:00:14.000Z</time>
      </trkpt>
      <trkpt lat="43.21679" lon="0.91017">
        <ele>435</ele>
        <time>2019-02-17T13:00:16.000Z</time>
      </trkpt>
      <trkpt lat="43.21678" lon="0.91015">
        <ele>436</ele>
        <time>2019-02-17T13:00:18.000Z</time>
      </trkpt>
      <trkpt lat="43.21677" lon="0.91014">
        <ele>436</ele>
        <time>2019-02-17T13:00:20.000Z</time>
      </trkpt>
      <trkpt lat="43.21676" lon="0.91012">
        <ele>436</ele>
        <time>2019-02-17T13:00:22.000Z</time>
      </trkpt>
      <trkpt lat="43.21674" lon="0.91011">
        <ele>436</ele>
        <time>2019-02-17T13:00:24.000Z</time>
      </trkpt>
      <trkpt lat="43.21674" lon="0.9101">
        <ele>436</ele>
        <time>2019-02-17T13:00:26.000Z</time>
      </trkpt>
      <trkpt lat="43.21674" lon="0.9101">
        <ele>436</ele>
        <time>2019-02-17T13:00:28.000Z</time>
      </trkpt>
      <trkpt lat="43.21674" lon="0.91009">
        <ele>436</ele>
        <time>2019-02-17T13:00:30.000Z</time>
      </trkpt>
      <trkpt lat="43.21674" lon="0.9101">
        <ele>436</ele>
        <time>2019-02-17T13:00:32.000Z</time>
      </trkpt>
      <trkpt lat="43.21674" lon="0.9101">
        <ele>436</ele>
        <time>2019-02-17T13:00:34.000Z</time>
      </trkpt>
      <trkpt lat="43.21673" lon="0.9101">
        <ele>436</ele>
        <time>2019-02-17T13:00:36.000Z</time>
      </trkpt>
      <trkpt lat="43.21673" lon="0.9101">
        <ele>436</ele>
        <time>2019-02-17T13:00:38.000Z</time>
      </trkpt>
      <trkpt lat="43.21674" lon="0.9101">
        <ele>436</ele>
        <time>2019-02-17T13:00:40.000Z</time>
      </trkpt>
      <trkpt lat="43.21674" lon="0.9101">
        <ele>436</ele>
        <time>2019-02-17T13:00:42.000Z</time>
      </trkpt>
      <trkpt lat="43.21674" lon="0.91009">
        <ele>436</ele>
        <time>2019-02-17T13:00:44.000Z</time>
      </trkpt>
      <trkpt lat="43.21674" lon="0.91009">
        <ele>436</ele>
        <time>2019-02-17T13:00:46.000Z</time>
      </trkpt>
      <trkpt lat="43.21674" lon="0.91009">
        <ele>436</ele>
        <time>2019-02-17T13:00:48.000Z</time>
      </trkpt>
      <trkpt lat="43.21674" lon="0.91009">
        <ele>436</ele>
        <time>2019-02-17T13:00:50.000Z</time>
      </trkpt>
      <trkpt lat="43.21674" lon="0.91009">
        <ele>436</ele>
        <time>2019-02-17T13:00:52.000Z</time>
      </trkpt>
      <trkpt lat="43.21674" lon="0.91009">
        <ele>436</ele>
        <time>2019-02-17T13:00:54.000Z</time>
      </trkpt>
      <trkpt lat="43.21674" lon="0.91009">
        <ele>436</ele>
        <time>2019-02-17T13:00:56.000Z</time>
      </trkpt>
      <trkpt lat="43.21674" lon="0.91009">
        <ele>436</ele>
        <time>2019-02-17T13:00:58.000Z</time>
      </trkpt>
      <trkpt lat="43.21674" lon="0.91009">
        <ele>436</ele>
        <time>2019-02-17T13:01:00.000Z</time>
      </trkpt>
      <trkpt lat="43.21674" lon="0.91009">
        <ele>436</ele>
        <time>2019-02-17T13:01:02.000Z</time>
      </trkpt>
      <trkpt lat="43.21673" lon="0.91009">
        <ele>436</ele>
        <time>2019-02-17T13:01:04.000Z</time>
      </trkpt>
      <trkpt lat="43.21673" lon="0.91008">
        <ele>436</ele>
        <time>2019-02-17T13:01:06.000Z</time>
      </trkpt>
      <trkpt lat="43.21673" lon="0.91007">
        <ele>436</ele>
        <time>2019-02-17T13:01:08.000Z</time>
      </trkpt>
      <trkpt lat="43.21672" lon="0.91005">
        <ele>436</ele>
        <time>2019-02-17T13:01:10.000Z</time>
      </trkpt>
      <trkpt lat="43.2167" lon="0.91004">
        <ele>436</ele>
        <time>2019-02-17T13:01:12.000Z</time>
      </trkpt>
      <trkpt lat="43.21669" lon="0.91003">
        <ele>436</ele>
        <time>2019-02-17T13:01:14.000Z</time>
      </trkpt>
      <trkpt lat="43.21667" lon="0.91001">
        <ele>436</ele>
        <time>2019-02-17T13:01:16.000Z</time>
      </trkpt>
      <trkpt lat="43.21666" lon="0.91">
        <ele>436</ele>
        <time>2019-02-17T13:01:18.000Z</time>
      </trkpt>
      <trkpt lat="43.21665" lon="0.90998">
        <ele>436</ele>
        <time>2019-02-17T13:01:20.000Z</time>
      </trkpt>
      <trkpt lat="43.21664" lon="0.90997">
        <ele>436</ele>
        <time>2019-02-17T13:01:22.000Z</time>
      </trkpt>
      <trkpt lat="43.21663" lon="0.90996">
        <ele>436</ele>
        <time>2019-02-17T13:01:24.000Z</time>
      </trkpt>
      <trkpt lat="43.21662" lon="0.90995">
        <ele>437</ele>
        <time>2019-02-17T13:01:26.000Z</time>
      </trkpt>
      <trkpt lat="43.2166" lon="0.90993">
        <ele>437</ele>
        <time>2019-02-17T13:01:28.000Z</time>
      </trkpt>
      <trkpt lat="43.21659" lon="0.90992">
        <ele>437</ele>
        <time>2019-02-17T13:01:30.000Z</time>
      </trkpt>
      <trkpt lat="43.21657" lon="0.90991">
        <ele>437</ele>
        <time>2019-02-17T13:01:32.000Z</time>
      </trkpt>
      <trkpt lat="43.21655" lon="0.90989">
        <ele>437</ele>
        <time>2019-02-17T13:01:34.000Z</time>
      </trkpt>
      <trkpt lat="43.21655" lon="0.90988">
        <ele>437</ele>
        <time>2019-02-17T13:01:36.000Z</time>
      </trkpt>
      <trkpt lat="43.21653" lon="0.90987">
        <ele>437</ele>
        <time>2019-02-17T13:01:38.000Z</time>
      </trkpt>
      <trkpt lat="43.21652" lon="0.90986">
        <ele>437</ele>
        <time>2019-02-17T13:01:40.000Z</time>
      </trkpt>
      <trkpt lat="43.21651" lon="0.90984">
        <ele>437</ele>
        <time>2019-02-17T13:01:42.000Z</time>
      </trkpt>
      <trkpt lat="43.21649" lon="0.90983">
        <ele>437</ele>
        <time>2019-02-17T13:01:44.000Z</time>
      </trkpt>
      <trkpt lat="43.21647" lon="0.90981">
        <ele>437</ele>
        <time>2019-02-17T13:01:46.000Z</time>
      </trkpt>
      <trkpt lat="43.21646" lon="0.9098">
        <ele>437</ele>
        <time>2019-02-17T13:01:48.000Z</time>
      </trkpt>
      <trkpt lat="43.21645" lon="0.90979">
        <ele>437</ele>
        <time>2019-02-17T13:01:50.000Z</time>
      </trkpt>
      <trkpt lat="43.21644" lon="0.90977">
        <ele>437</ele>
        <time>2019-02-17T13:01:52.000Z</time>
      </trkpt>
      <trkpt lat="43.21642" lon="0.90975">
        <ele>437</ele>
        <time>2019-02-17T13:01:54.000Z</time>
      </trkpt>
      <trkpt lat="43.2164" lon="0.90973">
        <ele>438</ele>
        <time>2019-02-17T13:01:56.000Z</time>
      </trkpt>
      <trkpt lat="43.21638" lon="0.90972">
        <ele>438</ele>
        <time>2019-02-17T13:01:58.000Z</time>
      </trkpt>
      <trkpt lat="43.21637" lon="0.90971">
        <ele>438</ele>
        <time>2019-02-17T13:02:00.000Z</time>
      </trkpt>
      <trkpt lat="43.21636" lon="0.9097">
        <ele>438</ele>
        <time>2019-02-17T13:02:02.000Z</time>
      </trkpt>
      <trkpt lat="43.21635" lon="0.90969">
        <ele>438</ele>
        <time>2019-02-17T13:02:04.000Z</time>
      </trkpt>
      <trkpt lat="43.21634" lon="0.90968">
        <ele>438</ele>
        <time>2019-02-17T13:02:06.000Z</time>
      </trkpt>
      <trkpt lat="43.21633" lon="0.90967">
        <ele>438</ele>
        <time>2019-02-17T13:02:08.000Z</time>
      </trkpt>
      <trkpt lat="43.2163" lon="0.90965">
        <ele>438</ele>
        <time>2019-02-17T13:02:10.000Z</time>
      </trkpt>
      <trkpt lat="43.21629" lon="0.90964">
        <ele>438</ele>
        <time>2019-02-17T13:02:12.000Z</time>
      </trkpt>
      <trkpt lat="43.21627" lon="0.90962">
        <ele>438</ele>
        <time>2019-02-17T13:02:14.000Z</time>
      </trkpt>
      <trkpt lat="43.21626" lon="0.90961">
        <ele>438</ele>
        <time>2019-02-17T13:02:16.000Z</time>
      </trkpt>
      <trkpt lat="43.21624" lon="0.90959">
        <ele>438</ele>
        <time>2019-02-17T13:02:18.000Z</time>
      </trkpt>
      <trkpt lat="43.21623" lon="0.90958">
        <ele>438</ele>
        <time>2019-02-17T13:02:20.000Z</time>
      </trkpt>
      <trkpt lat="43.2162" lon="0.90956">
        <ele>438</ele>
        <time>2019-02-17T13:02:22.000Z</time>
      </trkpt>
      <trkpt lat="43.21619" lon="0.90955">
        <ele>438</ele>
        <time>2019-02-17T13:02:24.000Z</time>
      </trkpt>
      <trkpt lat="43.21617" lon="0.90953">
        <ele>438</ele>
        <time>2019-02-17T13:02:26.000Z</time>
      </trkpt>
      <trkpt lat="43.21615" lon="0.90952">
        <ele>437</ele>
        <time>2019-02-17T13:02:28.000Z</time>
      </trkpt>
      <trkpt lat="43.21614" lon="0.9095">
        <ele>437</ele>
        <time>2019-02-17T13:02:30.000Z</time>
      </trkpt>
      <trkpt lat="43.21612" lon="0.90949">
        <ele>437</ele>
        <time>2019-02-17T13:02:32.000Z</time>
      </trkpt>
      <trkpt lat="43.2161" lon="0.90948">
        <ele>437</ele>
        <time>2019-02-17T13:02:34.000Z</time>
      </trkpt>
      <trkpt lat="43.21609" lon="0.90947">
        <ele>437</ele>
        <time>2019-02-17T13:02:36.000Z</time>
      </trkpt>
      <trkpt lat="43.21608" lon="0.90946">
        <ele>437</ele>
        <time>2019-02-17T13:02:38.000Z</time>
      </trkpt>
      <trkpt lat="43.21606" lon="0.90944">
        <ele>437</ele>
        <time>2019-02-17T13:02:40.000Z</time>
      </trkpt>
      <trkpt lat="43.21604" lon="0.90943">
        <ele>437</ele>
        <time>2019-02-17T13:02:42.000Z</time>
      </trkpt>
      <trkpt lat="43.21603" lon="0.90942">
        <ele>437</ele>
        <time>2019-02-17T13:02:44.000Z</time>
      </trkpt>
      <trkpt lat="43.21601" lon="0.9094">
        <ele>437</ele>
        <time>2019-02-17T13:02:46.000Z</time>
      </trkpt>
      <trkpt lat="43.21599" lon="0.90939">
        <ele>437</ele>
        <time>2019-02-17T13:02:48.000Z</time>
      </trkpt>
      <trkpt lat="43.21598" lon="0.90938">
        <ele>437</ele>
        <time>2019-02-17T13:02:50.000Z</time>
      </trkpt>
      <trkpt lat="43.21596" lon="0.90937">
        <ele>437</ele>
        <time>2019-02-17T13:02:52.000Z</time>
      </trkpt>
      <trkpt lat="43.21595" lon="0.90936">
        <ele>438</ele>
        <time>2019-02-17T13:02:54.000Z</time>
      </trkpt>
      <trkpt lat="43.21593" lon="0.90935">
        <ele>438</ele>
        <time>2019-02-17T13:02:56.000Z</time>
      </trkpt>
      <trkpt lat="43.21591" lon="0.90934">
        <ele>438</ele>
        <time>2019-02-17T13:02:58.000Z</time>
      </trkpt>
      <trkpt lat="43.21589" lon="0.90934">
        <ele>438</ele>
        <time>2019-02-17T13:03:00.000Z</time>
      </trkpt>
      <trkpt lat="43.21587" lon="0.90933">
        <ele>438</ele>
        <time>2019-02-17T13:03:02.000Z</time>
      </trkpt>
      <trkpt lat="43.21585" lon="0.90933">
        <ele>439</ele>
        <time>2019-02-17T13:03:04.000Z</time>
      </trkpt>
      <trkpt lat="43.21584" lon="0.90932">
        <ele>439</ele>
        <time>2019-02-17T13:03:06.000Z</time>
      </trkpt>
      <trkpt lat="43.21582" lon="0.90932">
        <ele>439</ele>
        <time>2019-02-17T13:03:08.000Z</time>
      </trkpt>
      <trkpt lat="43.21581" lon="0.90931">
        <ele>439</ele>
        <time>2019-02-17T13:03:10.000Z</time>
      </trkpt>
      <trkpt lat="43.21579" lon="0.90931">
        <ele>439</ele>
        <time>2019-02-17T13:03:12.000Z</time>
      </trkpt>
      <trkpt lat="43.21578" lon="0.90931">
        <ele>439</ele>
        <time>2019-02-17T13:03:14.000Z</time>
      </trkpt>
      <trkpt lat="43.21577" lon="0.90931">
        <ele>440</ele>
        <time>2019-02-17T13:03:16.000Z</time>
      </trkpt>
      <trkpt lat="43.21575" lon="0.90931">
        <ele>440</ele>
        <time>2019-02-17T13:03:18.000Z</time>
      </trkpt>
      <trkpt lat="43.21574" lon="0.90931">
        <ele>440</ele>
        <time>2019-02-17T13:03:20.000Z</time>
      </trkpt>
      <trkpt lat="43.21572" lon="0.9093">
        <ele>440</ele>
        <time>2019-02-17T13:03:22.000Z</time>
      </trkpt>
      <trkpt lat="43.21571" lon="0.9093">
        <ele>440</ele>
        <time>2019-02-17T13:03:24.000Z</time>
      </trkpt>
      <trkpt lat="43.21569" lon="0.90929">
        <ele>440</ele>
        <time>2019-02-17T13:03:26.000Z</time>
      </trkpt>
      <trkpt lat="43.21567" lon="0.90929">
        <ele>441</ele>
        <time>2019-02-17T13:03:28.000Z</time>
      </trkpt>
      <trkpt lat="43.21566" lon="0.90929">
        <ele>441</ele>
        <time>2019-02-17T13:03:30.000Z</time>
      </trkpt>
      <trkpt lat="43.21564" lon="0.90929">
        <ele>441</ele>
        <time>2019-02-17T13:03:32.000Z</time>
      </trkpt>
      <trkpt lat="43.21562" lon="0.90929">
        <ele>441</ele>
        <time>2019-02-17T13:03:34.000Z</time>
      </trkpt>
      <trkpt lat="43.2156" lon="0.90929">
        <ele>441</ele>
        <time>2019-02-17T13:03:36.000Z</time>
      </trkpt>
      <trkpt lat="43.21558" lon="0.90929">
        <ele>442</ele>
        <time>2019-02-17T13:03:38.000Z</time>
      </trkpt>
      <trkpt lat="43.21557" lon="0.90928">
        <ele>442</ele>
        <time>2019-02-17T13:03:40.000Z</time>
      </trkpt>
      <trkpt lat="43.21555" lon="0.90928">
        <ele>442</ele>
        <time>2019-02-17T13:03:42.000Z</time>
      </trkpt>
      <trkpt lat="43.21554" lon="0.90927">
        <ele>442</ele>
        <time>2019-02-17T13:03:44.000Z</time>
      </trkpt>
      <trkpt lat="43.21552" lon="0.90927">
        <ele>442</ele>
        <time>2019-02-17T13:03:46.000Z</time>
      </trkpt>
      <trkpt lat="43.2155" lon="0.90926">
        <ele>442</ele>
        <time>2019-02-17T13:03:48.000Z</time>
      </trkpt>
      <trkpt lat="43.21549" lon="0.90926">
        <ele>443</ele>
        <time>2019-02-17T13:03:50.000Z</time>
      </trkpt>
      <trkpt lat="43.21547" lon="0.90925">
        <ele>443</ele>
        <time>2019-02-17T13:03:52.000Z</time>
      </trkpt>
      <trkpt lat="43.21544" lon="0.90925">
        <ele>443</ele>
        <time>2019-02-17T13:03:54.000Z</time>
      </trkpt>
      <trkpt lat="43.21543" lon="0.90924">
        <ele>443</ele>
        <time>2019-02-17T13:03:56.000Z</time>
      </trkpt>
      <trkpt lat="43.21541" lon="0.90924">
        <ele>443</ele>
        <time>2019-02-17T13:03:58.000Z</time>
      </trkpt>
      <trkpt lat="43.21539" lon="0.90923">
        <ele>443</ele>
        <time>2019-02-17T13:04:00.000Z</time>
      </trkpt>
      <trkpt lat="43.21537" lon="0.90923">
        <ele>443</ele>
        <time>2019-02-17T13:04:02.000Z</time>
      </trkpt>
      <trkpt lat="43.21535" lon="0.90922">
        <ele>443</ele>
        <time>2019-02-17T13:04:04.000Z</time>
      </trkpt>
      <trkpt lat="43.21533" lon="0.90922">
        <ele>443</ele>
        <time>2019-02-17T13:04:06.000Z</time>
      </trkpt>
      <trkpt lat="43.21531" lon="0.90922">
        <ele>443</ele>
        <time>2019-02-17T13:04:08.000Z</time>
      </trkpt>
      <trkpt lat="43.21529" lon="0.90922">
        <ele>443</ele>
        <time>2019-02-17T13:04:10.000Z</time>
      </trkpt>
      <trkpt lat="43.21527" lon="0.90922">
        <ele>443</ele>
        <time>2019-02-17T13:04:12.000Z</time>
      </trkpt>
      <trkpt lat="43.21526" lon="0.90922">
        <ele>443</ele>
        <time>2019-02-17T13:04:14.000Z</time>
      </trkpt>
      <trkpt lat="43.21524" lon="0.90922">
        <ele>443</ele>
        <time>2019-02-17T13:04:16.000Z</time>
      </trkpt>
      <trkpt lat="43.21522" lon="0.90922">
        <ele>443</ele>
        <time>2019-02-17T13:04:18.000Z</time>
      </trkpt>
      <trkpt lat="43.21521" lon="0.90921">
        <ele>443</ele>
        <time>2019-02-17T13:04:20.000Z</time>
      </trkpt>
      <trkpt lat="43.2152" lon="0.90921">
        <ele>443</ele>
        <time>2019-02-17T13:04:22.000Z</time>
      </trkpt>
      <trkpt lat="43.21519" lon="0.90921">
        <ele>443</ele>
        <time>2019-02-17T13:04:24.000Z</time>
      </trkpt>
      <trkpt lat="43.21518" lon="0.9092">
        <ele>443</ele>
        <time>2019-02-17T13:04:26.000Z</time>
      </trkpt>
      <trkpt lat="43.21516" lon="0.9092">
        <ele>443</ele>
        <time>2019-02-17T13:04:28.000Z</time>
      </trkpt>
      <trkpt lat="43.21515" lon="0.90919">
        <ele>443</ele>
        <time>2019-02-17T13:04:30.000Z</time>
      </trkpt>
      <trkpt lat="43.21514" lon="0.90919">
        <ele>443</ele>
        <time>2019-02-17T13:04:32.000Z</time>
      </trkpt>
      <trkpt lat="43.21512" lon="0.90918">
        <ele>443</ele>
        <time>2019-02-17T13:04:34.000Z</time>
      </trkpt>
      <trkpt lat="43.21511" lon="0.90917">
        <ele>444</ele>
        <time>2019-02-17T13:04:36.000Z</time>
      </trkpt>
      <trkpt lat="43.2151" lon="0.90917">
        <ele>444</ele>
        <time>2019-02-17T13:04:38.000Z</time>
      </trkpt>
      <trkpt lat="43.21509" lon="0.90916">
        <ele>444</ele>
        <time>2019-02-17T13:04:40.000Z</time>
      </trkpt>
      <trkpt lat="43.21507" lon="0.90915">
        <ele>445</ele>
        <time>2019-02-17T13:04:42.000Z</time>
      </trkpt>
      <trkpt lat="43.21506" lon="0.90915">
        <ele>445</ele>
        <time>2019-02-17T13:04:44.000Z</time>
      </trkpt>
      <trkpt lat="43.21505" lon="0.90915">
        <ele>445</ele>
        <time>2019-02-17T13:04:46.000Z</time>
      </trkpt>
      <trkpt lat="43.21504" lon="0.90915">
        <ele>445</ele>
        <time>2019-02-17T13:04:48.000Z</time>
      </trkpt>
      <trkpt lat="43.21502" lon="0.90915">
        <ele>446</ele>
        <time>2019-02-17T13:04:50.000Z</time>
      </trkpt>
      <trkpt lat="43.21501" lon="0.90916">
        <ele>446</ele>
        <time>2019-02-17T13:04:52.000Z</time>
      </trkpt>
      <trkpt lat="43.21499" lon="0.90916">
        <ele>446</ele>
        <time>2019-02-17T13:04:54.000Z</time>
      </trkpt>
      <trkpt lat="43.21497" lon="0.90916">
        <ele>447</ele>
        <time>2019-02-17T13:04:56.000Z</time>
      </trkpt>
      <trkpt lat="43.21495" lon="0.90916">
        <ele>447</ele>
        <time>2019-02-17T13:04:58.000Z</time>
      </trkpt>
      <trkpt lat="43.21493" lon="0.90916">
        <ele>448</ele>
        <time>2019-02-17T13:05:00.000Z</time>
      </trkpt>
      <trkpt lat="43.21491" lon="0.90915">
        <ele>448</ele>
        <time>2019-02-17T13:05:02.000Z</time>
      </trkpt>
      <trkpt lat="43.21488" lon="0.90915">
        <ele>449</ele>
        <time>2019-02-17T13:05:04.000Z</time>
      </trkpt>
      <trkpt lat="43.21487" lon="0.90914">
        <ele>449</ele>
        <time>2019-02-17T13:05:06.000Z</time>
      </trkpt>
      <trkpt lat="43.21485" lon="0.90914">
        <ele>450</ele>
        <time>2019-02-17T13:05:08.000Z</time>
      </trkpt>
      <trkpt lat="43.21484" lon="0.90914">
        <ele>450</ele>
        <time>2019-02-17T13:05:10.000Z</time>
      </trkpt>
      <trkpt lat="43.21482" lon="0.90914">
        <ele>450</ele>
        <time>2019-02-17T13:05:12.000Z</time>
      </trkpt>
      <trkpt lat="43.2148" lon="0.90914">
        <ele>451</ele>
        <time>2019-02-17T13:05:14.000Z</time>
      </trkpt>
      <trkpt lat="43.21479" lon="0.90914">
        <ele>451</ele>
        <time>2019-02-17T13:05:16.000Z</time>
      </trkpt>
      <trkpt lat="43.21477" lon="0.90914">
        <ele>451</ele>
        <time>2019-02-17T13:05:18.000Z</time>
      </trkpt>
      <trkpt lat="43.21476" lon="0.90914">
        <ele>452</ele>
        <time>2019-02-17T13:05:20.000Z</time>
      </trkpt>
      <trkpt lat="43.21475" lon="0.90915">
        <ele>452</ele>
        <time>2019-02-17T13:05:22.000Z</time>
      </trkpt>
      <trkpt lat="43.21474" lon="0.90916">
        <ele>452</ele>
        <time>2019-02-17T13:05:24.000Z</time>
      </trkpt>
      <trkpt lat="43.21473" lon="0.90918">
        <ele>452</ele>
        <time>2019-02-17T13:05:26.000Z</time>
      </trkpt>
      <trkpt lat="43.21472" lon="0.90918">
        <ele>452</ele>
        <time>2019-02-17T13:05:28.000Z</time>
      </trkpt>
      <trkpt lat="43.21471" lon="0.90919">
        <ele>452</ele>
        <time>2019-02-17T13:05:30.000Z</time>
      </trkpt>
      <trkpt lat="43.21469" lon="0.9092">
        <ele>452</ele>
        <time>2019-02-17T13:05:32.000Z</time>
      </trkpt>
      <trkpt lat="43.21469" lon="0.9092">
        <ele>452</ele>
        <time>2019-02-17T13:05:34.000Z</time>
      </trkpt>
      <trkpt lat="43.21468" lon="0.90921">
        <ele>452</ele>
        <time>2019-02-17T13:05:36.000Z</time>
      </trkpt>
      <trkpt lat="43.21467" lon="0.90922">
        <ele>453</ele>
        <time>2019-02-17T13:05:38.000Z</time>
      </trkpt>
      <trkpt lat="43.21466" lon="0.90922">
        <ele>453</ele>
        <time>2019-02-17T13:05:40.000Z</time>
      </trkpt>
      <trkpt lat="43.21465" lon="0.90923">
        <ele>453</ele>
        <time>2019-02-17T13:05:42.000Z</time>
      </trkpt>
      <trkpt lat="43.21464" lon="0.90924">
        <ele>453</ele>
        <time>2019-02-17T13:05:44.000Z</time>
      </trkpt>
      <trkpt lat="43.21463" lon="0.90925">
        <ele>453</ele>
        <time>2019-02-17T13:05:46.000Z</time>
      </trkpt>
      <trkpt lat="43.21462" lon="0.90926">
        <ele>453</ele>
        <time>2019-02-17T13:05:48.000Z</time>
      </trkpt>
      <trkpt lat="43.21462" lon="0.90927">
        <ele>453</ele>
        <time>2019-02-17T13:05:50.000Z</time>
      </trkpt>
      <trkpt lat="43.21461" lon="0.90928">
        <ele>453</ele>
        <time>2019-02-17T13:05:52.000Z</time>
      </trkpt>
      <trkpt lat="43.21459" lon="0.90929">
        <ele>453</ele>
        <time>2019-02-17T13:05:54.000Z</time>
      </trkpt>
      <trkpt lat="43.21458" lon="0.9093">
        <ele>453</ele>
        <time>2019-02-17T13:05:56.000Z</time>
      </trkpt>
      <trkpt lat="43.21457" lon="0.9093">
        <ele>453</ele>
        <time>2019-02-17T13:05:58.000Z</time>
      </trkpt>
      <trkpt lat="43.21455" lon="0.9093">
        <ele>453</ele>
        <time>2019-02-17T13:06:00.000Z</time>
      </trkpt>
      <trkpt lat="43.21454" lon="0.90931">
        <ele>453</ele>
        <time>2019-02-17T13:06:02.000Z</time>
      </trkpt>
      <trkpt lat="43.21453" lon="0.90931">
        <ele>454</ele>
        <time>2019-02-17T13:06:04.000Z</time>
      </trkpt>
      <trkpt lat="43.21451" lon="0.90932">
        <ele>454</ele>
        <time>2019-02-17T13:06:06.000Z</time>
      </trkpt>
      <trkpt lat="43.2145" lon="0.90932">
        <ele>454</ele>
        <time>2019-02-17T13:06:08.000Z</time>
      </trkpt>
      <trkpt lat="43.21449" lon="0.90933">
        <ele>454</ele>
        <time>2019-02-17T13:06:10.000Z</time>
      </trkpt>
      <trkpt lat="43.21447" lon="0.90934">
        <ele>454</ele>
        <time>2019-02-17T13:06:12.000Z</time>
      </trkpt>
      <trkpt lat="43.21446" lon="0.90934">
        <ele>454</ele>
        <time>2019-02-17T13:06:14.000Z</time>
      </trkpt>
      <trkpt lat="43.21445" lon="0.90934">
        <ele>454</ele>
        <time>2019-02-17T13:06:16.000Z</time>
      </trkpt>
      <trkpt lat="43.21444" lon="0.90934">
        <ele>454</ele>
        <time>2019-02-17T13:06:18.000Z</time>
      </trkpt>
      <trkpt lat="43.21443" lon="0.90934">
        <ele>455</ele>
        <time>2019-02-17T13:06:20.000Z</time>
      </trkpt>
      <trkpt lat="43.21442" lon="0.90934">
        <ele>455</ele>
        <time>2019-02-17T13:06:22.000Z</time>
      </trkpt>
      <trkpt lat="43.21441" lon="0.90935">
        <ele>455</ele>
        <time>2019-02-17T13:06:24.000Z</time>
      </trkpt>
      <trkpt lat="43.2144" lon="0.90935">
        <ele>455</ele>
        <time>2019-02-17T13:06:26.000Z</time>
      </trkpt>
      <trkpt lat="43.21439" lon="0.90935">
        <ele>455</ele>
        <time>2019-02-17T13:06:28.000Z</time>
      </trkpt>
      <trkpt lat="43.21438" lon="0.90936">
        <ele>455</ele>
        <time>2019-02-17T13:06:30.000Z</time>
      </trkpt>
      <trkpt lat="43.21438" lon="0.90937">
        <ele>455</ele>
        <time>2019-02-17T13:06:32.000Z</time>
      </trkpt>
      <trkpt lat="43.21437" lon="0.90937">
        <ele>455</ele>
        <time>2019-02-17T13:06:34.000Z</time>
      </trkpt>
      <trkpt lat="43.21437" lon="0.90937">
        <ele>455</ele>
        <time>2019-02-17T13:06:36.000Z</time>
      </trkpt>
      <trkpt lat="43.21437" lon="0.90937">
        <ele>455</ele>
        <time>2019-02-17T13:06:38.000Z</time>
      </trkpt>
      <trkpt lat="43.21437" lon="0.90937">
        <ele>455</ele>
        <time>2019-02-17T13:06:40.000Z</time>
      </trkpt>
      <trkpt lat="43.21437" lon="0.90937">
        <ele>455</ele>
        <time>2019-02-17T13:06:42.000Z</time>
      </trkpt>
      <trkpt lat="43.21437" lon="0.90938">
        <ele>455</ele>
        <time>2019-02-17T13:06:44.000Z</time>
      </trkpt>
      <trkpt lat="43.21436" lon="0.90938">
        <ele>455</ele>
        <time>2019-02-17T13:06:46.000Z</time>
      </trkpt>
      <trkpt lat="43.21435" lon="0.90938">
        <ele>455</ele>
        <time>2019-02-17T13:06:48.000Z</time>
      </trkpt>
      <trkpt lat="43.21434" lon="0.90939">
        <ele>455</ele>
        <time>2019-02-17T13:06:50.000Z</time>
      </trkpt>
      <trkpt lat="43.21433" lon="0.90939">
        <ele>456</ele>
        <time>2019-02-17T13:06:52.000Z</time>
      </trkpt>
      <trkpt lat="43.21431" lon="0.90939">
        <ele>456</ele>
        <time>2019-02-17T13:06:54.000Z</time>
      </trkpt>
      <trkpt lat="43.2143" lon="0.9094">
        <ele>456</ele>
        <time>2019-02-17T13:06:56.000Z</time>
      </trkpt>
      <trkpt lat="43.21429" lon="0.90941">
        <ele>456</ele>
        <time>2019-02-17T13:06:58.000Z</time>
      </trkpt>
      <trkpt lat="43.21428" lon="0.90941">
        <ele>456</ele>
        <time>2019-02-17T13:07:00.000Z</time>
      </trkpt>
      <trkpt lat="43.21427" lon="0.90941">
        <ele>456</ele>
        <time>2019-02-17T13:07:02.000Z</time>
      </trkpt>
      <trkpt lat="43.21426" lon="0.90942">
        <ele>456</ele>
        <time>2019-02-17T13:07:04.000Z</time>
      </trkpt>
      <trkpt lat="43.21425" lon="0.90942">
        <ele>456</ele>
        <time>2019-02-17T13:07:06.000Z</time>
      </trkpt>
      <trkpt lat="43.21424" lon="0.90942">
        <ele>457</ele>
        <time>2019-02-17T13:07:08.000Z</time>
      </trkpt>
      <trkpt lat="43.21423" lon="0.90942">
        <ele>457</ele>
        <time>2019-02-17T13:07:10.000Z</time>
      </trkpt>
      <trkpt lat="43.21423" lon="0.90942">
        <ele>457</ele>
        <time>2019-02-17T13:07:12.000Z</time>
      </trkpt>
      <trkpt lat="43.21422" lon="0.90943">
        <ele>457</ele>
        <time>2019-02-17T13:07:14.000Z</time>
      </trkpt>
      <trkpt lat="43.21421" lon="0.90943">
        <ele>457</ele>
        <time>2019-02-17T13:07:16.000Z</time>
      </trkpt>
      <trkpt lat="43.2142" lon="0.90944">
        <ele>457</ele>
        <time>2019-02-17T13:07:18.000Z</time>
      </trkpt>
      <trkpt lat="43.2142" lon="0.90943">
        <ele>457</ele>
        <time>2019-02-17T13:07:20.000Z</time>
      </trkpt>
      <trkpt lat="43.21419" lon="0.90944">
        <ele>457</ele>
        <time>2019-02-17T13:07:22.000Z</time>
      </trkpt>
      <trkpt lat="43.21419" lon="0.90944">
        <ele>457</ele>
        <time>2019-02-17T13:07:24.000Z</time>
      </trkpt>
      <trkpt lat="43.21418" lon="0.90945">
        <ele>457</ele>
        <time>2019-02-17T13:07:26.000Z</time>
      </trkpt>
      <trkpt lat="43.21417" lon="0.90945">
        <ele>457</ele>
        <time>2019-02-17T13:07:28.000Z</time>
      </trkpt>
      <trkpt lat="43.21416" lon="0.90946">
        <ele>457</ele>
        <time>2019-02-17T13:07:30.000Z</time>
      </trkpt>
      <trkpt lat="43.21414" lon="0.90946">
        <ele>458</ele>
        <time>2019-02-17T13:07:32.000Z</time>
      </trkpt>
      <trkpt lat="43.21413" lon="0.90947">
        <ele>458</ele>
        <time>2019-02-17T13:07:34.000Z</time>
      </trkpt>
      <trkpt lat="43.21411" lon="0.90947">
        <ele>458</ele>
        <time>2019-02-17T13:07:36.000Z</time>
      </trkpt>
      <trkpt lat="43.2141" lon="0.90948">
        <ele>458</ele>
        <time>2019-02-17T13:07:38.000Z</time>
      </trkpt>
      <trkpt lat="43.21408" lon="0.90949">
        <ele>458</ele>
        <time>2019-02-17T13:07:40.000Z</time>
      </trkpt>
      <trkpt lat="43.21407" lon="0.9095">
        <ele>459</ele>
        <time>2019-02-17T13:07:42.000Z</time>
      </trkpt>
      <trkpt lat="43.21406" lon="0.9095">
        <ele>459</ele>
        <time>2019-02-17T13:07:44.000Z</time>
      </trkpt>
      <trkpt lat="43.21404" lon="0.90951">
        <ele>459</ele>
        <time>2019-02-17T13:07:46.000Z</time>
      </trkpt>
      <trkpt lat="43.21404" lon="0.90951">
        <ele>459</ele>
        <time>2019-02-17T13:07:48.000Z</time>
      </trkpt>
      <trkpt lat="43.21403" lon="0.90951">
        <ele>459</ele>
        <time>2019-02-17T13:07:50.000Z</time>
      </trkpt>
      <trkpt lat="43.21402" lon="0.90951">
        <ele>459</ele>
        <time>2019-02-17T13:07:52.000Z</time>
      </trkpt>
      <trkpt lat="43.21401" lon="0.90951">
        <ele>460</ele>
        <time>2019-02-17T13:07:54.000Z</time>
      </trkpt>
      <trkpt lat="43.21401" lon="0.90952">
        <ele>460</ele>
        <time>2019-02-17T13:07:56.000Z</time>
      </trkpt>
      <trkpt lat="43.214" lon="0.90952">
        <ele>460</ele>
        <time>2019-02-17T13:07:58.000Z</time>
      </trkpt>
      <trkpt lat="43.21398" lon="0.90952">
        <ele>460</ele>
        <time>2019-02-17T13:08:00.000Z</time>
      </trkpt>
      <trkpt lat="43.21397" lon="0.90952">
        <ele>461</ele>
        <time>2019-02-17T13:08:02.000Z</time>
      </trkpt>
      <trkpt lat="43.21396" lon="0.90952">
        <ele>461</ele>
        <time>2019-02-17T13:08:04.000Z</time>
      </trkpt>
      <trkpt lat="43.21396" lon="0.90953">
        <ele>461</ele>
        <time>2019-02-17T13:08:06.000Z</time>
      </trkpt>
      <trkpt lat="43.21395" lon="0.90953">
        <ele>461</ele>
        <time>2019-02-17T13:08:08.000Z</time>
      </trkpt>
      <trkpt lat="43.21394" lon="0.90952">
        <ele>461</ele>
        <time>2019-02-17T13:08:10.000Z</time>
      </trkpt>
      <trkpt lat="43.21395" lon="0.90952">
        <ele>461</ele>
        <time>2019-02-17T13:08:12.000Z</time>
      </trkpt>
      <trkpt lat="43.21394" lon="0.90953">
        <ele>461</ele>
        <time>2019-02-17T13:08:14.000Z</time>
      </trkpt>
      <trkpt lat="43.21393" lon="0.90953">
        <ele>461</ele>
        <time>2019-02-17T13:08:16.000Z</time>
      </trkpt>
      <trkpt lat="43.21393" lon="0.90953">
        <ele>461</ele>
        <time>2019-02-17T13:08:18.000Z</time>
      </trkpt>
      <trkpt lat="43.21392" lon="0.90952">
        <ele>462</ele>
        <time>2019-02-17T13:08:20.000Z</time>
      </trkpt>
      <trkpt lat="43.21392" lon="0.90952">
        <ele>462</ele>
        <time>2019-02-17T13:08:22.000Z</time>
      </trkpt>
      <trkpt lat="43.21392" lon="0.90951">
        <ele>462</ele>
        <time>2019-02-17T13:08:24.000Z</time>
      </trkpt>
      <trkpt lat="43.21392" lon="0.90952">
        <ele>462</ele>
        <time>2019-02-17T13:08:26.000Z</time>
      </trkpt>
      <trkpt lat="43.21392" lon="0.90952">
        <ele>462</ele>
        <time>2019-02-17T13:08:28.000Z</time>
      </trkpt>
      <trkpt lat="43.21392" lon="0.90952">
        <ele>462</ele>
        <time>2019-02-17T13:08:30.000Z</time>
      </trkpt>
      <trkpt lat="43.21391" lon="0.90953">
        <ele>462</ele>
        <time>2019-02-17T13:08:32.000Z</time>
      </trkpt>
      <trkpt lat="43.2139" lon="0.90953">
        <ele>462</ele>
        <time>2019-02-17T13:08:34.000Z</time>
      </trkpt>
      <trkpt lat="43.21389" lon="0.90953">
        <ele>462</ele>
        <time>2019-02-17T13:08:36.000Z</time>
      </trkpt>
      <trkpt lat="43.21389" lon="0.90954">
        <ele>462</ele>
        <time>2019-02-17T13:08:38.000Z</time>
      </trkpt>
      <trkpt lat="43.2139" lon="0.90954">
        <ele>462</ele>
        <time>2019-02-17T13:08:40.000Z</time>
      </trkpt>
      <trkpt lat="43.2139" lon="0.90955">
        <ele>462</ele>
        <time>2019-02-17T13:08:42.000Z</time>
      </trkpt>
      <trkpt lat="43.21389" lon="0.90955">
        <ele>462</ele>
        <time>2019-02-17T13:08:44.000Z</time>
      </trkpt>
      <trkpt lat="43.21389" lon="0.90956">
        <ele>462</ele>
        <time>2019-02-17T13:08:46.000Z</time>
      </trkpt>
      <trkpt lat="43.21388" lon="0.90956">
        <ele>462</ele>
        <time>2019-02-17T13:08:48.000Z</time>
      </trkpt>
      <trkpt lat="43.21388" lon="0.90957">
        <ele>462</ele>
        <time>2019-02-17T13:08:50.000Z</time>
      </trkpt>
      <trkpt lat="43.21387" lon="0.90958">
        <ele>462</ele>
        <time>2019-02-17T13:08:52.000Z</time>
      </trkpt>
      <trkpt lat="43.21387" lon="0.90958">
        <ele>462</ele>
        <time>2019-02-17T13:08:54.000Z</time>
      </trkpt>
      <trkpt lat="43.21386" lon="0.90959">
        <ele>462</ele>
        <time>2019-02-17T13:08:56.000Z</time>
      </trkpt>
      <trkpt lat="43.21385" lon="0.9096">
        <ele>463</ele>
        <time>2019-02-17T13:08:58.000Z</time>
      </trkpt>
      <trkpt lat="43.21385" lon="0.90961">
        <ele>463</ele>
        <time>2019-02-17T13:09:00.000Z</time>
      </trkpt>
      <trkpt lat="43.21384" lon="0.90961">
        <ele>463</ele>
        <time>2019-02-17T13:09:02.000Z</time>
      </trkpt>
      <trkpt lat="43.21383" lon="0.90961">
        <ele>463</ele>
        <time>2019-02-17T13:09:04.000Z</time>
      </trkpt>
      <trkpt lat="43.21382" lon="0.90961">
        <ele>463</ele>
        <time>2019-02-17T13:09:06.000Z</time>
      </trkpt>
      <trkpt lat="43.21381" lon="0.90962">
        <ele>463</ele>
        <time>2019-02-17T13:09:08.000Z</time>
      </trkpt>
      <trkpt lat="43.2138" lon="0.90962">
        <ele>464</ele>
        <time>2019-02-17T13:09:10.000Z</time>
      </trkpt>
      <trkpt lat="43.21379" lon="0.90963">
        <ele>464</ele>
        <time>2019-02-17T13:09:12.000Z</time>
      </trkpt>
      <trkpt lat="43.21378" lon="0.90963">
        <ele>464</ele>
        <time>2019-02-17T13:09:14.000Z</time>
      </trkpt>
      <trkpt lat="43.21377" lon="0.90964">
        <ele>464</ele>
        <time>2019-02-17T13:09:16.000Z</time>
      </trkpt>
      <trkpt lat="43.21376" lon="0.90965">
        <ele>464</ele>
        <time>2019-02-17T13:09:18.000Z</time>
      </trkpt>
      <trkpt lat="43.21375" lon="0.90965">
        <ele>465</ele>
        <time>2019-02-17T13:09:20.000Z</time>
      </trkpt>
      <trkpt lat="43.21373" lon="0.90966">
        <ele>465</ele>
        <time>2019-02-17T13:09:22.000Z</time>
      </trkpt>
      <trkpt lat="43.21371" lon="0.90966">
        <ele>465</ele>
        <time>2019-02-17T13:09:24.000Z</time>
      </trkpt>
      <trkpt lat="43.2137" lon="0.90967">
        <ele>465</ele>
        <time>2019-02-17T13:09:26.000Z</time>
      </trkpt>
      <trkpt lat="43.21369" lon="0.90968">
        <ele>466</ele>
        <time>2019-02-17T13:09:28.000Z</time>
      </trkpt>
      <trkpt lat="43.21368" lon="0.90968">
        <ele>466</ele>
        <time>2019-02-17T13:09:30.000Z</time>
      </trkpt>
      <trkpt lat="43.21368" lon="0.90968">
        <ele>466</ele>
        <time>2019-02-17T13:09:32.000Z</time>
      </trkpt>
      <trkpt lat="43.21367" lon="0.90968">
        <ele>466</ele>
        <time>2019-02-17T13:09:34.000Z</time>
      </trkpt>
      <trkpt lat="43.21367" lon="0.90969">
        <ele>466</ele>
        <time>2019-02-17T13:09:36.000Z</time>
      </trkpt>
      <trkpt lat="43.21367" lon="0.90969">
        <ele>466</ele>
        <time>2019-02-17T13:09:38.000Z</time>
      </trkpt>
      <trkpt lat="43.21367" lon="0.90969">
        <ele>466</ele>
        <time>2019-02-17T13:09:40.000Z</time>
      </trkpt>
      <trkpt lat="43.21367" lon="0.90968">
        <ele>466</ele>
        <time>2019-02-17T13:09:42.000Z</time>
      </trkpt>
      <trkpt lat="43.21367" lon="0.90968">
        <ele>466</ele>
        <time>2019-02-17T13:09:44.000Z</time>
      </trkpt>
      <trkpt lat="43.21368" lon="0.90969">
        <ele>466</ele>
        <time>2019-02-17T13:09:46.000Z</time>
      </trkpt>
      <trkpt lat="43.21368" lon="0.9097">
        <ele>466</ele>
        <time>2019-02-17T13:09:48.000Z</time>
      </trkpt>
      <trkpt lat="43.21369" lon="0.90971">
        <ele>466</ele>
        <time>2019-02-17T13:09:50.000Z</time>
      </trkpt>
      <trkpt lat="43.21369" lon="0.90971">
        <ele>465</ele>
        <time>2019-02-17T13:09:52.000Z</time>
      </trkpt>
      <trkpt lat="43.21369" lon="0.90972">
        <ele>465</ele>
        <time>2019-02-17T13:09:54.000Z</time>
      </trkpt>
      <trkpt lat="43.21368" lon="0.90974">
        <ele>465</ele>
        <time>2019-02-17T13:09:56.000Z</time>
      </trkpt>
      <trkpt lat="43.21367" lon="0.90976">
        <ele>465</ele>
        <time>2019-02-17T13:09:59.000Z</time>
      </trkpt>
      <trkpt lat="43.21366" lon="0.90977">
        <ele>465</ele>
        <time>2019-02-17T13:10:01.000Z</time>
      </trkpt>
      <trkpt lat="43.21365" lon="0.90979">
        <ele>465</ele>
        <time>2019-02-17T13:10:03.000Z</time>
      </trkpt>
      <trkpt lat="43.21364" lon="0.90981">
        <ele>465</ele>
        <time>2019-02-17T13:10:05.000Z</time>
      </trkpt>
      <trkpt lat="43.21363" lon="0.90983">
        <ele>465</ele>
        <time>2019-02-17T13:10:07.000Z</time>
      </trkpt>
      <trkpt lat="43.21361" lon="0.90985">
        <ele>465</ele>
        <time>2019-02-17T13:10:09.000Z</time>
      </trkpt>
      <trkpt lat="43.21359" lon="0.90986">
        <ele>466</ele>
        <time>2019-02-17T13:10:11.000Z</time>
      </trkpt>
      <trkpt lat="43.21358" lon="0.90989">
        <ele>465</ele>
        <time>2019-02-17T13:10:13.000Z</time>
      </trkpt>
      <trkpt lat="43.21357" lon="0.90991">
        <ele>465</ele>
        <time>2019-02-17T13:10:15.000Z</time>
      </trkpt>
      <trkpt lat="43.21355" lon="0.90994">
        <ele>465</ele>
        <time>2019-02-17T13:10:17.000Z</time>
      </trkpt>
      <trkpt lat="43.21354" lon="0.90996">
        <ele>465</ele>
        <time>2019-02-17T13:10:19.000Z</time>
      </trkpt>
      <trkpt lat="43.21353" lon="0.90998">
        <ele>465</ele>
        <time>2019-02-17T13:10:21.000Z</time>
      </trkpt>
      <trkpt lat="43.21351" lon="0.90999">
        <ele>465</ele>
        <time>2019-02-17T13:10:23.000Z</time>
      </trkpt>
      <trkpt lat="43.21349" lon="0.91001">
        <ele>465</ele>
        <time>2019-02-17T13:10:25.000Z</time>
      </trkpt>
      <trkpt lat="43.21348" lon="0.91002">
        <ele>465</ele>
        <time>2019-02-17T13:10:27.000Z</time>
      </trkpt>
      <trkpt lat="43.21347" lon="0.91003">
        <ele>465</ele>
        <time>2019-02-17T13:10:29.000Z</time>
      </trkpt>
      <trkpt lat="43.21346" lon="0.91005">
        <ele>465</ele>
        <time>2019-02-17T13:10:31.000Z</time>
      </trkpt>
      <trkpt lat="43.21345" lon="0.91007">
        <ele>465</ele>
        <time>2019-02-17T13:10:33.000Z</time>
      </trkpt>
      <trkpt lat="43.21345" lon="0.91008">
        <ele>465</ele>
        <time>2019-02-17T13:10:35.000Z</time>
      </trkpt>
      <trkpt lat="43.21344" lon="0.91009">
        <ele>465</ele>
        <time>2019-02-17T13:10:37.000Z</time>
      </trkpt>
      <trkpt lat="43.21343" lon="0.91009">
        <ele>465</ele>
        <time>2019-02-17T13:10:39.000Z</time>
      </trkpt>
      <trkpt lat="43.21343" lon="0.9101">
        <ele>465</ele>
        <time>2019-02-17T13:10:41.000Z</time>
      </trkpt>
      <trkpt lat="43.21342" lon="0.9101">
        <ele>465</ele>
        <time>2019-02-17T13:10:43.000Z</time>
      </trkpt>
      <trkpt lat="43.21341" lon="0.9101">
        <ele>465</ele>
        <time>2019-02-17T13:10:45.000Z</time>
      </trkpt>
      <trkpt lat="43.2134" lon="0.9101">
        <ele>465</ele>
        <time>2019-02-17T13:10:47.000Z</time>
      </trkpt>
      <trkpt lat="43.2134" lon="0.91011">
        <ele>465</ele>
        <time>2019-02-17T13:10:49.000Z</time>
      </trkpt>
      <trkpt lat="43.21339" lon="0.91011">
        <ele>465</ele>
        <time>2019-02-17T13:10:51.000Z</time>
      </trkpt>
      <trkpt lat="43.21338" lon="0.91011">
        <ele>465</ele>
        <time>2019-02-17T13:10:53.000Z</time>
      </trkpt>
      <trkpt lat="43.21338" lon="0.91011">
        <ele>465</ele>
        <time>2019-02-17T13:10:55.000Z</time>
      </trkpt>
      <trkpt lat="43.21338" lon="0.9101">
        <ele>465</ele>
        <time>2019-02-17T13:10:57.000Z</time>
      </trkpt>
      <trkpt lat="43.21339" lon="0.9101">
        <ele>465</ele>
        <time>2019-02-17T13:10:59.000Z</time>
      </trkpt>
      <trkpt lat="43.21339" lon="0.91009">
        <ele>465</ele>
        <time>2019-02-17T13:11:01.000Z</time>
      </trkpt>
      <trkpt lat="43.21339" lon="0.91009">
        <ele>465</ele>
        <time>2019-02-17T13:11:03.000Z</time>
      </trkpt>
      <trkpt lat="43.2134" lon="0.91009">
        <ele>465</ele>
        <time>2019-02-17T13:11:05.000Z</time>
      </trkpt>
      <trkpt lat="43.2134" lon="0.91008">
        <ele>465</ele>
        <time>2019-02-17T13:11:07.000Z</time>
      </trkpt>
      <trkpt lat="43.2134" lon="0.91009">
        <ele>465</ele>
        <time>2019-02-17T13:11:09.000Z</time>
      </trkpt>
      <trkpt lat="43.21339" lon="0.9101">
        <ele>465</ele>
        <time>2019-02-17T13:11:11.000Z</time>
      </trkpt>
      <trkpt lat="43.21339" lon="0.9101">
        <ele>465</ele>
        <time>2019-02-17T13:11:13.000Z</time>
      </trkpt>
      <trkpt lat="43.21339" lon="0.91011">
        <ele>465</ele>
        <time>2019-02-17T13:11:15.000Z</time>
      </trkpt>
      <trkpt lat="43.21339" lon="0.91012">
        <ele>465</ele>
        <time>2019-02-17T13:11:17.000Z</time>
      </trkpt>
      <trkpt lat="43.21339" lon="0.91012">
        <ele>465</ele>
        <time>2019-02-17T13:11:19.000Z</time>
      </trkpt>
      <trkpt lat="43.21339" lon="0.91012">
        <ele>465</ele>
        <time>2019-02-17T13:11:21.000Z</time>
      </trkpt>
      <trkpt lat="43.21338" lon="0.91013">
        <ele>465</ele>
        <time>2019-02-17T13:11:23.000Z</time>
      </trkpt>
      <trkpt lat="43.21339" lon="0.91013">
        <ele>465</ele>
        <time>2019-02-17T13:11:25.000Z</time>
      </trkpt>
      <trkpt lat="43.21339" lon="0.91014">
        <ele>465</ele>
        <time>2019-02-17T13:11:27.000Z</time>
      </trkpt>
      <trkpt lat="43.21338" lon="0.91014">
        <ele>465</ele>
        <time>2019-02-17T13:11:29.000Z</time>
      </trkpt>
      <trkpt lat="43.21338" lon="0.91015">
        <ele>465</ele>
        <time>2019-02-17T13:11:31.000Z</time>
      </trkpt>
      <trkpt lat="43.21339" lon="0.91015">
        <ele>464</ele>
        <time>2019-02-17T13:11:33.000Z</time>
      </trkpt>
      <trkpt lat="43.21339" lon="0.91015">
        <ele>464</ele>
        <time>2019-02-17T13:11:35.000Z</time>
      </trkpt>
      <trkpt lat="43.21339" lon="0.91014">
        <ele>465</ele>
        <time>2019-02-17T13:11:37.000Z</time>
      </trkpt>
      <trkpt lat="43.21339" lon="0.91014">
        <ele>465</ele>
        <time>2019-02-17T13:11:39.000Z</time>
      </trkpt>
      <trkpt lat="43.21339" lon="0.91014">
        <ele>465</ele>
        <time>2019-02-17T13:11:41.000Z</time>
      </trkpt>
      <trkpt lat="43.21339" lon="0.91015">
        <ele>464</ele>
        <time>2019-02-17T13:11:43.000Z</time>
      </trkpt>
      <trkpt lat="43.21338" lon="0.91016">
        <ele>464</ele>
        <time>2019-02-17T13:11:45.000Z</time>
      </trkpt>
      <trkpt lat="43.21338" lon="0.91015">
        <ele>464</ele>
        <time>2019-02-17T13:11:47.000Z</time>
      </trkpt>
      <trkpt lat="43.21337" lon="0.91016">
        <ele>464</ele>
        <time>2019-02-17T13:11:49.000Z</time>
      </trkpt>
      <trkpt lat="43.21337" lon="0.91018">
        <ele>464</ele>
        <time>2019-02-17T13:11:51.000Z</time>
      </trkpt>
      <trkpt lat="43.21337" lon="0.9102">
        <ele>464</ele>
        <time>2019-02-17T13:11:53.000Z</time>
      </trkpt>
      <trkpt lat="43.21336" lon="0.91022">
        <ele>463</ele>
        <time>2019-02-17T13:11:55.000Z</time>
      </trkpt>
      <trkpt lat="43.21336" lon="0.91024">
        <ele>463</ele>
        <time>2019-02-17T13:11:57.000Z</time>
      </trkpt>
      <trkpt lat="43.21335" lon="0.91026">
        <ele>463</ele>
        <time>2019-02-17T13:11:59.000Z</time>
      </trkpt>
      <trkpt lat="43.21335" lon="0.91027">
        <ele>463</ele>
        <time>2019-02-17T13:12:01.000Z</time>
      </trkpt>
      <trkpt lat="43.21335" lon="0.91029">
        <ele>462</ele>
        <time>2019-02-17T13:12:03.000Z</time>
      </trkpt>
      <trkpt lat="43.21335" lon="0.9103">
        <ele>462</ele>
        <time>2019-02-17T13:12:05.000Z</time>
      </trkpt>
      <trkpt lat="43.21334" lon="0.91032">
        <ele>462</ele>
        <time>2019-02-17T13:12:07.000Z</time>
      </trkpt>
      <trkpt lat="43.21334" lon="0.91034">
        <ele>462</ele>
        <time>2019-02-17T13:12:09.000Z</time>
      </trkpt>
      <trkpt lat="43.21334" lon="0.91037">
        <ele>461</ele>
        <time>2019-02-17T13:12:11.000Z</time>
      </trkpt>
      <trkpt lat="43.21333" lon="0.9104">
        <ele>461</ele>
        <time>2019-02-17T13:12:13.000Z</time>
      </trkpt>
      <trkpt lat="43.21333" lon="0.91043">
        <ele>460</ele>
        <time>2019-02-17T13:12:15.000Z</time>
      </trkpt>
      <trkpt lat="43.21332" lon="0.91046">
        <ele>460</ele>
        <time>2019-02-17T13:12:17.000Z</time>
      </trkpt>
      <trkpt lat="43.21331" lon="0.91049">
        <ele>460</ele>
        <time>2019-02-17T13:12:19.000Z</time>
      </trkpt>
      <trkpt lat="43.2133" lon="0.91051">
        <ele>460</ele>
        <time>2019-02-17T13:12:21.000Z</time>
      </trkpt>
      <trkpt lat="43.21329" lon="0.91054">
        <ele>460</ele>
        <time>2019-02-17T13:12:23.000Z</time>
      </trkpt>
      <trkpt lat="43.21328" lon="0.91056">
        <ele>459</ele>
        <time>2019-02-17T13:12:25.000Z</time>
      </trkpt>
      <trkpt lat="43.21327" lon="0.91059">
        <ele>459</ele>
        <time>2019-02-17T13:12:27.000Z</time>
      </trkpt>
      <trkpt lat="43.21325" lon="0.9106">
        <ele>459</ele>
        <time>2019-02-17T13:12:29.000Z</time>
      </trkpt>
      <trkpt lat="43.21323" lon="0.91062">
        <ele>460</ele>
        <time>2019-02-17T13:12:31.000Z</time>
      </trkpt>
      <trkpt lat="43.21321" lon="0.91064">
        <ele>460</ele>
        <time>2019-02-17T13:12:33.000Z</time>
      </trkpt>
      <trkpt lat="43.21319" lon="0.91066">
        <ele>460</ele>
        <time>2019-02-17T13:12:35.000Z</time>
      </trkpt>
      <trkpt lat="43.21318" lon="0.91067">
        <ele>460</ele>
        <time>2019-02-17T13:12:37.000Z</time>
      </trkpt>
      <trkpt lat="43.21316" lon="0.91069">
        <ele>460</ele>
        <time>2019-02-17T13:12:39.000Z</time>
      </trkpt>
      <trkpt lat="43.21314" lon="0.91071">
        <ele>460</ele>
        <time>2019-02-17T13:12:41.000Z</time>
      </trkpt>
      <trkpt lat="43.21312" lon="0.91072">
        <ele>460</ele>
        <time>2019-02-17T13:12:43.000Z</time>
      </trkpt>
      <trkpt lat="43.2131" lon="0.91073">
        <ele>460</ele>
        <time>2019-02-17T13:12:45.000Z</time>
      </trkpt>
      <trkpt lat="43.21307" lon="0.91074">
        <ele>461</ele>
        <time>2019-02-17T13:12:47.000Z</time>
      </trkpt>
      <trkpt lat="43.21306" lon="0.91074">
        <ele>461</ele>
        <time>2019-02-17T13:12:49.000Z</time>
      </trkpt>
      <trkpt lat="43.21304" lon="0.91074">
        <ele>461</ele>
        <time>2019-02-17T13:12:51.000Z</time>
      </trkpt>
      <trkpt lat="43.21302" lon="0.91075">
        <ele>462</ele>
        <time>2019-02-17T13:12:53.000Z</time>
      </trkpt>
      <trkpt lat="43.213" lon="0.91076">
        <ele>462</ele>
        <time>2019-02-17T13:12:55.000Z</time>
      </trkpt>
      <trkpt lat="43.21297" lon="0.91077">
        <ele>462</ele>
        <time>2019-02-17T13:12:57.000Z</time>
      </trkpt>
      <trkpt lat="43.21295" lon="0.91078">
        <ele>463</ele>
        <time>2019-02-17T13:12:59.000Z</time>
      </trkpt>
      <trkpt lat="43.21293" lon="0.91079">
        <ele>463</ele>
        <time>2019-02-17T13:13:01.000Z</time>
      </trkpt>
      <trkpt lat="43.2129" lon="0.9108">
        <ele>463</ele>
        <time>2019-02-17T13:13:03.000Z</time>
      </trkpt>
      <trkpt lat="43.21287" lon="0.91081">
        <ele>464</ele>
        <time>2019-02-17T13:13:05.000Z</time>
      </trkpt>
      <trkpt lat="43.21284" lon="0.91083">
        <ele>464</ele>
        <time>2019-02-17T13:13:07.000Z</time>
      </trkpt>
      <trkpt lat="43.21282" lon="0.91084">
        <ele>465</ele>
        <time>2019-02-17T13:13:09.000Z</time>
      </trkpt>
      <trkpt lat="43.21279" lon="0.91085">
        <ele>465</ele>
        <time>2019-02-17T13:13:11.000Z</time>
      </trkpt>
      <trkpt lat="43.21277" lon="0.91085">
        <ele>466</ele>
        <time>2019-02-17T13:13:13.000Z</time>
      </trkpt>
      <trkpt lat="43.21275" lon="0.91086">
        <ele>466</ele>
        <time>2019-02-17T13:13:15.000Z</time>
      </trkpt>
      <trkpt lat="43.21272" lon="0.91087">
        <ele>467</ele>
        <time>2019-02-17T13:13:17.000Z</time>
      </trkpt>
      <trkpt lat="43.2127" lon="0.91087">
        <ele>467</ele>
        <time>2019-02-17T13:13:19.000Z</time>
      </trkpt>
      <trkpt lat="43.21267" lon="0.91088">
        <ele>468</ele>
        <time>2019-02-17T13:13:21.000Z</time>
      </trkpt>
      <trkpt lat="43.21264" lon="0.91088">
        <ele>468</ele>
        <time>2019-02-17T13:13:23.000Z</time>
      </trkpt>
      <trkpt lat="43.21262" lon="0.91088">
        <ele>469</ele>
        <time>2019-02-17T13:13:25.000Z</time>
      </trkpt>
      <trkpt lat="43.2126" lon="0.91088">
        <ele>469</ele>
        <time>2019-02-17T13:13:27.000Z</time>
      </trkpt>
      <trkpt lat="43.21257" lon="0.91088">
        <ele>470</ele>
        <time>2019-02-17T13:13:29.000Z</time>
      </trkpt>
      <trkpt lat="43.21255" lon="0.91088">
        <ele>470</ele>
        <time>2019-02-17T13:13:31.000Z</time>
      </trkpt>
      <trkpt lat="43.21254" lon="0.91088">
        <ele>470</ele>
        <time>2019-02-17T13:13:33.000Z</time>
      </trkpt>
      <trkpt lat="43.21253" lon="0.91089">
        <ele>470</ele>
        <time>2019-02-17T13:13:35.000Z</time>
      </trkpt>
      <trkpt lat="43.21251" lon="0.91089">
        <ele>471</ele>
        <time>2019-02-17T13:13:37.000Z</time>
      </trkpt>
      <trkpt lat="43.21249" lon="0.91088">
        <ele>471</ele>
        <time>2019-02-17T13:13:39.000Z</time>
      </trkpt>
      <trkpt lat="43.21247" lon="0.91088">
        <ele>471</ele>
        <time>2019-02-17T13:13:41.000Z</time>
      </trkpt>
      <trkpt lat="43.21246" lon="0.91088">
        <ele>471</ele>
        <time>2019-02-17T13:13:43.000Z</time>
      </trkpt>
      <trkpt lat="43.21245" lon="0.91088">
        <ele>471</ele>
        <time>2019-02-17T13:13:45.000Z</time>
      </trkpt>
      <trkpt lat="43.21244" lon="0.91087">
        <ele>472</ele>
        <time>2019-02-17T13:13:47.000Z</time>
      </trkpt>
      <trkpt lat="43.21242" lon="0.91087">
        <ele>472</ele>
        <time>2019-02-17T13:13:49.000Z</time>
      </trkpt>
      <trkpt lat="43.2124" lon="0.91087">
        <ele>472</ele>
        <time>2019-02-17T13:13:51.000Z</time>
      </trkpt>
      <trkpt lat="43.21238" lon="0.91087">
        <ele>473</ele>
        <time>2019-02-17T13:13:53.000Z</time>
      </trkpt>
      <trkpt lat="43.21236" lon="0.91086">
        <ele>473</ele>
        <time>2019-02-17T13:13:55.000Z</time>
      </trkpt>
      <trkpt lat="43.21234" lon="0.91086">
        <ele>473</ele>
        <time>2019-02-17T13:13:57.000Z</time>
      </trkpt>
      <trkpt lat="43.21231" lon="0.91086">
        <ele>474</ele>
        <time>2019-02-17T13:13:59.000Z</time>
      </trkpt>
      <trkpt lat="43.21229" lon="0.91086">
        <ele>474</ele>
        <time>2019-02-17T13:14:01.000Z</time>
      </trkpt>
      <trkpt lat="43.21227" lon="0.91086">
        <ele>474</ele>
        <time>2019-02-17T13:14:03.000Z</time>
      </trkpt>
      <trkpt lat="43.21225" lon="0.91086">
        <ele>475</ele>
        <time>2019-02-17T13:14:05.000Z</time>
      </trkpt>
      <trkpt lat="43.21223" lon="0.91086">
        <ele>475</ele>
        <time>2019-02-17T13:14:07.000Z</time>
      </trkpt>
      <trkpt lat="43.21221" lon="0.91086">
        <ele>475</ele>
        <time>2019-02-17T13:14:09.000Z</time>
      </trkpt>
      <trkpt lat="43.2122" lon="0.91086">
        <ele>475</ele>
        <time>2019-02-17T13:14:11.000Z</time>
      </trkpt>
      <trkpt lat="43.21219" lon="0.91086">
        <ele>475</ele>
        <time>2019-02-17T13:14:13.000Z</time>
      </trkpt>
      <trkpt lat="43.21218" lon="0.91086">
        <ele>476</ele>
        <time>2019-02-17T13:14:15.000Z</time>
      </trkpt>
      <trkpt lat="43.21216" lon="0.91086">
        <ele>476</ele>
        <time>2019-02-17T13:14:17.000Z</time>
      </trkpt>
      <trkpt lat="43.21216" lon="0.91085">
        <ele>476</ele>
        <time>2019-02-17T13:14:19.000Z</time>
      </trkpt>
      <trkpt lat="43.21214" lon="0.91085">
        <ele>476</ele>
        <time>2019-02-17T13:14:21.000Z</time>
      </trkpt>
      <trkpt lat="43.21213" lon="0.91085">
        <ele>476</ele>
        <time>2019-02-17T13:14:23.000Z</time>
      </trkpt>
      <trkpt lat="43.21212" lon="0.91085">
        <ele>477</ele>
        <time>2019-02-17T13:14:25.000Z</time>
      </trkpt>
      <trkpt lat="43.2121" lon="0.91084">
        <ele>477</ele>
        <time>2019-02-17T13:14:27.000Z</time>
      </trkpt>
      <trkpt lat="43.21209" lon="0.91084">
        <ele>477</ele>
        <time>2019-02-17T13:14:29.000Z</time>
      </trkpt>
      <trkpt lat="43.21207" lon="0.91085">
        <ele>477</ele>
        <time>2019-02-17T13:14:31.000Z</time>
      </trkpt>
      <trkpt lat="43.21207" lon="0.91085">
        <ele>477</ele>
        <time>2019-02-17T13:14:33.000Z</time>
      </trkpt>
      <trkpt lat="43.21205" lon="0.91086">
        <ele>478</ele>
        <time>2019-02-17T13:14:35.000Z</time>
      </trkpt>
      <trkpt lat="43.21205" lon="0.91086">
        <ele>478</ele>
        <time>2019-02-17T13:14:37.000Z</time>
      </trkpt>
      <trkpt lat="43.21203" lon="0.91086">
        <ele>478</ele>
        <time>2019-02-17T13:14:39.000Z</time>
      </trkpt>
      <trkpt lat="43.21201" lon="0.91086">
        <ele>479</ele>
        <time>2019-02-17T13:14:41.000Z</time>
      </trkpt>
      <trkpt lat="43.21199" lon="0.91087">
        <ele>479</ele>
        <time>2019-02-17T13:14:43.000Z</time>
      </trkpt>
      <trkpt lat="43.21198" lon="0.91087">
        <ele>479</ele>
        <time>2019-02-17T13:14:45.000Z</time>
      </trkpt>
      <trkpt lat="43.21199" lon="0.91088">
        <ele>479</ele>
        <time>2019-02-17T13:14:47.000Z</time>
      </trkpt>
      <trkpt lat="43.21198" lon="0.91089">
        <ele>479</ele>
        <time>2019-02-17T13:14:49.000Z</time>
      </trkpt>
      <trkpt lat="43.21197" lon="0.91089">
        <ele>479</ele>
        <time>2019-02-17T13:14:51.000Z</time>
      </trkpt>
      <trkpt lat="43.21196" lon="0.91089">
        <ele>480</ele>
        <time>2019-02-17T13:14:53.000Z</time>
      </trkpt>
      <trkpt lat="43.21195" lon="0.9109">
        <ele>480</ele>
        <time>2019-02-17T13:14:55.000Z</time>
      </trkpt>
      <trkpt lat="43.21194" lon="0.91092">
        <ele>480</ele>
        <time>2019-02-17T13:14:57.000Z</time>
      </trkpt>
      <trkpt lat="43.21193" lon="0.91093">
        <ele>480</ele>
        <time>2019-02-17T13:14:59.000Z</time>
      </trkpt>
      <trkpt lat="43.21193" lon="0.91095">
        <ele>480</ele>
        <time>2019-02-17T13:15:01.000Z</time>
      </trkpt>
      <trkpt lat="43.21192" lon="0.91096">
        <ele>480</ele>
        <time>2019-02-17T13:15:03.000Z</time>
      </trkpt>
      <trkpt lat="43.21192" lon="0.91097">
        <ele>481</ele>
        <time>2019-02-17T13:15:05.000Z</time>
      </trkpt>
      <trkpt lat="43.21191" lon="0.91099">
        <ele>481</ele>
        <time>2019-02-17T13:15:07.000Z</time>
      </trkpt>
      <trkpt lat="43.21192" lon="0.911">
        <ele>481</ele>
        <time>2019-02-17T13:15:09.000Z</time>
      </trkpt>
      <trkpt lat="43.21192" lon="0.91101">
        <ele>481</ele>
        <time>2019-02-17T13:15:11.000Z</time>
      </trkpt>
      <trkpt lat="43.21191" lon="0.91102">
        <ele>481</ele>
        <time>2019-02-17T13:15:13.000Z</time>
      </trkpt>
      <trkpt lat="43.2119" lon="0.91103">
        <ele>481</ele>
        <time>2019-02-17T13:15:15.000Z</time>
      </trkpt>
      <trkpt lat="43.21189" lon="0.91103">
        <ele>481</ele>
        <time>2019-02-17T13:15:17.000Z</time>
      </trkpt>
      <trkpt lat="43.21189" lon="0.91104">
        <ele>481</ele>
        <time>2019-02-17T13:15:19.000Z</time>
      </trkpt>
      <trkpt lat="43.21187" lon="0.91105">
        <ele>481</ele>
        <time>2019-02-17T13:15:21.000Z</time>
      </trkpt>
      <trkpt lat="43.21186" lon="0.91106">
        <ele>482</ele>
        <time>2019-02-17T13:15:23.000Z</time>
      </trkpt>
      <trkpt lat="43.21185" lon="0.91107">
        <ele>482</ele>
        <time>2019-02-17T13:15:25.000Z</time>
      </trkpt>
      <trkpt lat="43.21185" lon="0.91109">
        <ele>482</ele>
        <time>2019-02-17T13:15:27.000Z</time>
      </trkpt>
      <trkpt lat="43.21184" lon="0.9111">
        <ele>482</ele>
        <time>2019-02-17T13:15:29.000Z</time>
      </trkpt>
      <trkpt lat="43.21183" lon="0.91113">
        <ele>482</ele>
        <time>2019-02-17T13:15:31.000Z</time>
      </trkpt>
      <trkpt lat="43.21182" lon="0.91115">
        <ele>483</ele>
        <time>2019-02-17T13:15:33.000Z</time>
      </trkpt>
      <trkpt lat="43.21181" lon="0.91117">
        <ele>483</ele>
        <time>2019-02-17T13:15:35.000Z</time>
      </trkpt>
      <trkpt lat="43.2118" lon="0.91119">
        <ele>483</ele>
        <time>2019-02-17T13:15:37.000Z</time>
      </trkpt>
      <trkpt lat="43.21179" lon="0.9112">
        <ele>483</ele>
        <time>2019-02-17T13:15:39.000Z</time>
      </trkpt>
      <trkpt lat="43.21178" lon="0.91122">
        <ele>483</ele>
        <time>2019-02-17T13:15:41.000Z</time>
      </trkpt>
      <trkpt lat="43.21178" lon="0.91123">
        <ele>483</ele>
        <time>2019-02-17T13:15:43.000Z</time>
      </trkpt>
      <trkpt lat="43.21177" lon="0.91125">
        <ele>483</ele>
        <time>2019-02-17T13:15:45.000Z</time>
      </trkpt>
      <trkpt lat="43.21176" lon="0.91127">
        <ele>483</ele>
        <time>2019-02-17T13:15:47.000Z</time>
      </trkpt>
      <trkpt lat="43.21175" lon="0.91128">
        <ele>483</ele>
        <time>2019-02-17T13:15:49.000Z</time>
      </trkpt>
      <trkpt lat="43.21174" lon="0.91129">
        <ele>483</ele>
        <time>2019-02-17T13:15:51.000Z</time>
      </trkpt>
      <trkpt lat="43.21173" lon="0.91131">
        <ele>483</ele>
        <time>2019-02-17T13:15:53.000Z</time>
      </trkpt>
      <trkpt lat="43.21172" lon="0.91132">
        <ele>483</ele>
        <time>2019-02-17T13:15:55.000Z</time>
      </trkpt>
      <trkpt lat="43.21171" lon="0.91134">
        <ele>483</ele>
        <time>2019-02-17T13:15:57.000Z</time>
      </trkpt>
      <trkpt lat="43.21171" lon="0.91135">
        <ele>483</ele>
        <time>2019-02-17T13:15:59.000Z</time>
      </trkpt>
      <trkpt lat="43.2117" lon="0.91136">
        <ele>483</ele>
        <time>2019-02-17T13:16:01.000Z</time>
      </trkpt>
      <trkpt lat="43.21168" lon="0.91137">
        <ele>483</ele>
        <time>2019-02-17T13:16:03.000Z</time>
      </trkpt>
      <trkpt lat="43.21166" lon="0.91138">
        <ele>483</ele>
        <time>2019-02-17T13:16:05.000Z</time>
      </trkpt>
      <trkpt lat="43.21164" lon="0.91138">
        <ele>483</ele>
        <time>2019-02-17T13:16:07.000Z</time>
      </trkpt>
      <trkpt lat="43.21162" lon="0.91138">
        <ele>483</ele>
        <time>2019-02-17T13:16:09.000Z</time>
      </trkpt>
      <trkpt lat="43.21161" lon="0.91139">
        <ele>483</ele>
        <time>2019-02-17T13:16:11.000Z</time>
      </trkpt>
      <trkpt lat="43.21159" lon="0.91138">
        <ele>483</ele>
        <time>2019-02-17T13:16:13.000Z</time>
      </trkpt>
      <trkpt lat="43.21157" lon="0.91137">
        <ele>483</ele>
        <time>2019-02-17T13:16:15.000Z</time>
      </trkpt>
      <trkpt lat="43.21156" lon="0.91136">
        <ele>483</ele>
        <time>2019-02-17T13:16:17.000Z</time>
      </trkpt>
      <trkpt lat="43.21154" lon="0.91136">
        <ele>483</ele>
        <time>2019-02-17T13:16:19.000Z</time>
      </trkpt>
      <trkpt lat="43.21151" lon="0.91134">
        <ele>483</ele>
        <time>2019-02-17T13:16:21.000Z</time>
      </trkpt>
      <trkpt lat="43.21149" lon="0.91134">
        <ele>483</ele>
        <time>2019-02-17T13:16:23.000Z</time>
      </trkpt>
      <trkpt lat="43.21146" lon="0.91133">
        <ele>483</ele>
        <time>2019-02-17T13:16:25.000Z</time>
      </trkpt>
      <trkpt lat="43.21144" lon="0.91131">
        <ele>483</ele>
        <time>2019-02-17T13:16:27.000Z</time>
      </trkpt>
      <trkpt lat="43.21143" lon="0.91131">
        <ele>483</ele>
        <time>2019-02-17T13:16:29.000Z</time>
      </trkpt>
      <trkpt lat="43.2114" lon="0.9113">
        <ele>483</ele>
        <time>2019-02-17T13:16:31.000Z</time>
      </trkpt>
      <trkpt lat="43.21139" lon="0.91129">
        <ele>483</ele>
        <time>2019-02-17T13:16:33.000Z</time>
      </trkpt>
      <trkpt lat="43.21136" lon="0.91127">
        <ele>483</ele>
        <time>2019-02-17T13:16:35.000Z</time>
      </trkpt>
      <trkpt lat="43.21133" lon="0.91126">
        <ele>483</ele>
        <time>2019-02-17T13:16:37.000Z</time>
      </trkpt>
      <trkpt lat="43.21131" lon="0.91125">
        <ele>483</ele>
        <time>2019-02-17T13:16:39.000Z</time>
      </trkpt>
      <trkpt lat="43.21129" lon="0.91126">
        <ele>483</ele>
        <time>2019-02-17T13:16:41.000Z</time>
      </trkpt>
      <trkpt lat="43.21128" lon="0.91125">
        <ele>483</ele>
        <time>2019-02-17T13:16:43.000Z</time>
      </trkpt>
      <trkpt lat="43.21126" lon="0.91125">
        <ele>483</ele>
        <time>2019-02-17T13:16:45.000Z</time>
      </trkpt>
      <trkpt lat="43.21125" lon="0.91124">
        <ele>483</ele>
        <time>2019-02-17T13:16:47.000Z</time>
      </trkpt>
      <trkpt lat="43.21125" lon="0.91124">
        <ele>483</ele>
        <time>2019-02-17T13:16:49.000Z</time>
      </trkpt>
      <trkpt lat="43.21124" lon="0.91123">
        <ele>483</ele>
        <time>2019-02-17T13:16:51.000Z</time>
      </trkpt>
      <trkpt lat="43.21124" lon="0.91123">
        <ele>483</ele>
        <time>2019-02-17T13:16:53.000Z</time>
      </trkpt>
      <trkpt lat="43.21123" lon="0.91122">
        <ele>483</ele>
        <time>2019-02-17T13:16:55.000Z</time>
      </trkpt>
      <trkpt lat="43.21123" lon="0.91122">
        <ele>483</ele>
        <time>2019-02-17T13:16:57.000Z</time>
      </trkpt>
      <trkpt lat="43.21122" lon="0.91121">
        <ele>483</ele>
        <time>2019-02-17T13:16:59.000Z</time>
      </trkpt>
      <trkpt lat="43.21122" lon="0.91121">
        <ele>483</ele>
        <time>2019-02-17T13:17:01.000Z</time>
      </trkpt>
      <trkpt lat="43.21121" lon="0.9112">
        <ele>483</ele>
        <time>2019-02-17T13:17:03.000Z</time>
      </trkpt>
      <trkpt lat="43.21121" lon="0.9112">
        <ele>483</ele>
        <time>2019-02-17T13:17:05.000Z</time>
      </trkpt>
      <trkpt lat="43.21121" lon="0.9112">
        <ele>483</ele>
        <time>2019-02-17T13:17:07.000Z</time>
      </trkpt>
      <trkpt lat="43.2112" lon="0.91119">
        <ele>483</ele>
        <time>2019-02-17T13:17:09.000Z</time>
      </trkpt>
      <trkpt lat="43.21121" lon="0.9112">
        <ele>483</ele>
        <time>2019-02-17T13:17:11.000Z</time>
      </trkpt>
      <trkpt lat="43.21121" lon="0.9112">
        <ele>483</ele>
        <time>2019-02-17T13:17:13.000Z</time>
      </trkpt>
      <trkpt lat="43.21121" lon="0.91119">
        <ele>483</ele>
        <time>2019-02-17T13:17:15.000Z</time>
      </trkpt>
      <trkpt lat="43.21121" lon="0.91119">
        <ele>483</ele>
        <time>2019-02-17T13:17:17.000Z</time>
      </trkpt>
      <trkpt lat="43.21121" lon="0.91119">
        <ele>483</ele>
        <time>2019-02-17T13:17:19.000Z</time>
      </trkpt>
      <trkpt lat="43.2112" lon="0.91118">
        <ele>483</ele>
        <time>2019-02-17T13:17:21.000Z</time>
      </trkpt>
      <trkpt lat="43.2112" lon="0.91118">
        <ele>483</ele>
        <time>2019-02-17T13:17:23.000Z</time>
      </trkpt>
      <trkpt lat="43.21121" lon="0.91118">
        <ele>483</ele>
        <time>2019-02-17T13:17:25.000Z</time>
      </trkpt>
      <trkpt lat="43.21121" lon="0.91119">
        <ele>483</ele>
        <time>2019-02-17T13:17:27.000Z</time>
      </trkpt>
      <trkpt lat="43.21121" lon="0.91118">
        <ele>483</ele>
        <time>2019-02-17T13:17:29.000Z</time>
      </trkpt>
      <trkpt lat="43.21121" lon="0.91119">
        <ele>483</ele>
        <time>2019-02-17T13:17:31.000Z</time>
      </trkpt>
      <trkpt lat="43.21121" lon="0.91118">
        <ele>483</ele>
        <time>2019-02-17T13:17:33.000Z</time>
      </trkpt>
      <trkpt lat="43.21121" lon="0.91119">
        <ele>483</ele>
        <time>2019-02-17T13:17:35.000Z</time>
      </trkpt>
      <trkpt lat="43.21121" lon="0.91119">
        <ele>483</ele>
        <time>2019-02-17T13:17:37.000Z</time>
      </trkpt>
      <trkpt lat="43.21122" lon="0.91118">
        <ele>483</ele>
        <time>2019-02-17T13:17:39.000Z</time>
      </trkpt>
      <trkpt lat="43.21122" lon="0.91118">
        <ele>483</ele>
        <time>2019-02-17T13:17:41.000Z</time>
      </trkpt>
      <trkpt lat="43.21122" lon="0.91118">
        <ele>483</ele>
        <time>2019-02-17T13:17:43.000Z</time>
      </trkpt>
      <trkpt lat="43.21122" lon="0.91118">
        <ele>483</ele>
        <time>2019-02-17T13:17:45.000Z</time>
      </trkpt>
      <trkpt lat="43.21122" lon="0.91117">
        <ele>483</ele>
        <time>2019-02-17T13:17:47.000Z</time>
      </trkpt>
      <trkpt lat="43.21122" lon="0.91117">
        <ele>483</ele>
        <time>2019-02-17T13:17:49.000Z</time>
      </trkpt>
      <trkpt lat="43.21123" lon="0.91116">
        <ele>483</ele>
        <time>2019-02-17T13:17:51.000Z</time>
      </trkpt>
      <trkpt lat="43.21123" lon="0.91116">
        <ele>483</ele>
        <time>2019-02-17T13:17:53.000Z</time>
      </trkpt>
      <trkpt lat="43.21123" lon="0.91116">
        <ele>483</ele>
        <time>2019-02-17T13:17:55.000Z</time>
      </trkpt>
      <trkpt lat="43.21124" lon="0.91116">
        <ele>483</ele>
        <time>2019-02-17T13:17:57.000Z</time>
      </trkpt>
      <trkpt lat="43.21124" lon="0.91116">
        <ele>483</ele>
        <time>2019-02-17T13:17:59.000Z</time>
      </trkpt>
      <trkpt lat="43.21124" lon="0.91116">
        <ele>483</ele>
        <time>2019-02-17T13:18:01.000Z</time>
      </trkpt>
      <trkpt lat="43.21124" lon="0.91115">
        <ele>483</ele>
        <time>2019-02-17T13:18:03.000Z</time>
      </trkpt>
      <trkpt lat="43.21123" lon="0.91115">
        <ele>483</ele>
        <time>2019-02-17T13:18:05.000Z</time>
      </trkpt>
      <trkpt lat="43.21123" lon="0.91116">
        <ele>483</ele>
        <time>2019-02-17T13:18:07.000Z</time>
      </trkpt>
      <trkpt lat="43.21122" lon="0.91116">
        <ele>483</ele>
        <time>2019-02-17T13:18:09.000Z</time>
      </trkpt>
      <trkpt lat="43.21122" lon="0.91116">
        <ele>483</ele>
        <time>2019-02-17T13:18:11.000Z</time>
      </trkpt>
      <trkpt lat="43.21121" lon="0.91116">
        <ele>483</ele>
        <time>2019-02-17T13:18:13.000Z</time>
      </trkpt>
      <trkpt lat="43.21121" lon="0.91116">
        <ele>483</ele>
        <time>2019-02-17T13:18:15.000Z</time>
      </trkpt>
      <trkpt lat="43.21121" lon="0.91117">
        <ele>483</ele>
        <time>2019-02-17T13:18:17.000Z</time>
      </trkpt>
      <trkpt lat="43.21121" lon="0.91117">
        <ele>483</ele>
        <time>2019-02-17T13:18:19.000Z</time>
      </trkpt>
      <trkpt lat="43.21121" lon="0.91118">
        <ele>483</ele>
        <time>2019-02-17T13:18:21.000Z</time>
      </trkpt>
      <trkpt lat="43.21121" lon="0.91118">
        <ele>483</ele>
        <time>2019-02-17T13:18:23.000Z</time>
      </trkpt>
      <trkpt lat="43.21121" lon="0.91118">
        <ele>483</ele>
        <time>2019-02-17T13:18:25.000Z</time>
      </trkpt>
      <trkpt lat="43.21121" lon="0.91118">
        <ele>483</ele>
        <time>2019-02-17T13:18:27.000Z</time>
      </trkpt>
      <trkpt lat="43.2112" lon="0.91118">
        <ele>483</ele>
        <time>2019-02-17T13:18:29.000Z</time>
      </trkpt>
      <trkpt lat="43.2112" lon="0.91118">
        <ele>483</ele>
        <time>2019-02-17T13:18:31.000Z</time>
      </trkpt>
      <trkpt lat="43.2112" lon="0.91119">
        <ele>483</ele>
        <time>2019-02-17T13:18:33.000Z</time>
      </trkpt>
      <trkpt lat="43.2112" lon="0.91119">
        <ele>483</ele>
        <time>2019-02-17T13:18:35.000Z</time>
      </trkpt>
      <trkpt lat="43.21119" lon="0.91119">
        <ele>483</ele>
        <time>2019-02-17T13:18:37.000Z</time>
      </trkpt>
      <trkpt lat="43.21119" lon="0.9112">
        <ele>483</ele>
        <time>2019-02-17T13:18:39.000Z</time>
      </trkpt>
      <trkpt lat="43.21119" lon="0.9112">
        <ele>483</ele>
        <time>2019-02-17T13:18:41.000Z</time>
      </trkpt>
      <trkpt lat="43.21119" lon="0.91121">
        <ele>483</ele>
        <time>2019-02-17T13:18:43.000Z</time>
      </trkpt>
      <trkpt lat="43.2112" lon="0.9112">
        <ele>483</ele>
        <time>2019-02-17T13:18:45.000Z</time>
      </trkpt>
      <trkpt lat="43.2112" lon="0.9112">
        <ele>483</ele>
        <time>2019-02-17T13:18:47.000Z</time>
      </trkpt>
      <trkpt lat="43.2112" lon="0.9112">
        <ele>483</ele>
        <time>2019-02-17T13:18:49.000Z</time>
      </trkpt>
      <trkpt lat="43.21121" lon="0.9112">
        <ele>483</ele>
        <time>2019-02-17T13:18:51.000Z</time>
      </trkpt>
      <trkpt lat="43.21121" lon="0.91121">
        <ele>483</ele>
        <time>2019-02-17T13:18:53.000Z</time>
      </trkpt>
      <trkpt lat="43.21121" lon="0.91121">
        <ele>483</ele>
        <time>2019-02-17T13:18:55.000Z</time>
      </trkpt>
      <trkpt lat="43.21121" lon="0.91121">
        <ele>483</ele>
        <time>2019-02-17T13:18:57.000Z</time>
      </trkpt>
      <trkpt lat="43.21122" lon="0.9112">
        <ele>483</ele>
        <time>2019-02-17T13:18:59.000Z</time>
      </trkpt>
      <trkpt lat="43.21123" lon="0.9112">
        <ele>483</ele>
        <time>2019-02-17T13:19:01.000Z</time>
      </trkpt>
      <trkpt lat="43.21123" lon="0.91118">
        <ele>483</ele>
        <time>2019-02-17T13:19:03.000Z</time>
      </trkpt>
      <trkpt lat="43.21123" lon="0.91118">
        <ele>483</ele>
        <time>2019-02-17T13:19:05.000Z</time>
      </trkpt>
      <trkpt lat="43.21123" lon="0.91117">
        <ele>483</ele>
        <time>2019-02-17T13:19:07.000Z</time>
      </trkpt>
      <trkpt lat="43.21123" lon="0.91117">
        <ele>483</ele>
        <time>2019-02-17T13:19:09.000Z</time>
      </trkpt>
      <trkpt lat="43.21123" lon="0.91117">
        <ele>483</ele>
        <time>2019-02-17T13:19:11.000Z</time>
      </trkpt>
      <trkpt lat="43.21123" lon="0.91116">
        <ele>483</ele>
        <time>2019-02-17T13:19:13.000Z</time>
      </trkpt>
      <trkpt lat="43.21122" lon="0.91117">
        <ele>483</ele>
        <time>2019-02-17T13:19:15.000Z</time>
      </trkpt>
      <trkpt lat="43.21122" lon="0.91117">
        <ele>483</ele>
        <time>2019-02-17T13:19:17.000Z</time>
      </trkpt>
      <trkpt lat="43.21121" lon="0.91117">
        <ele>483</ele>
        <time>2019-02-17T13:19:19.000Z</time>
      </trkpt>
      <trkpt lat="43.21122" lon="0.91117">
        <ele>483</ele>
        <time>2019-02-17T13:19:21.000Z</time>
      </trkpt>
      <trkpt lat="43.21121" lon="0.91117">
        <ele>483</ele>
        <time>2019-02-17T13:19:23.000Z</time>
      </trkpt>
      <trkpt lat="43.21121" lon="0.91117">
        <ele>483</ele>
        <time>2019-02-17T13:19:25.000Z</time>
      </trkpt>
      <trkpt lat="43.21121" lon="0.91118">
        <ele>483</ele>
        <time>2019-02-17T13:19:27.000Z</time>
      </trkpt>
      <trkpt lat="43.21121" lon="0.91118">
        <ele>483</ele>
        <time>2019-02-17T13:19:29.000Z</time>
      </trkpt>
      <trkpt lat="43.21121" lon="0.91118">
        <ele>483</ele>
        <time>2019-02-17T13:19:31.000Z</time>
      </trkpt>
      <trkpt lat="43.2112" lon="0.91117">
        <ele>483</ele>
        <time>2019-02-17T13:19:33.000Z</time>
      </trkpt>
      <trkpt lat="43.21119" lon="0.91117">
        <ele>483</ele>
        <time>2019-02-17T13:19:35.000Z</time>
      </trkpt>
      <trkpt lat="43.21119" lon="0.91117">
        <ele>483</ele>
        <time>2019-02-17T13:19:37.000Z</time>
      </trkpt>
      <trkpt lat="43.21119" lon="0.91115">
        <ele>483</ele>
        <time>2019-02-17T13:19:39.000Z</time>
      </trkpt>
      <trkpt lat="43.21118" lon="0.91115">
        <ele>483</ele>
        <time>2019-02-17T13:19:41.000Z</time>
      </trkpt>
      <trkpt lat="43.21117" lon="0.91113">
        <ele>483</ele>
        <time>2019-02-17T13:19:43.000Z</time>
      </trkpt>
      <trkpt lat="43.21116" lon="0.91111">
        <ele>483</ele>
        <time>2019-02-17T13:19:45.000Z</time>
      </trkpt>
      <trkpt lat="43.21114" lon="0.91108">
        <ele>483</ele>
        <time>2019-02-17T13:19:47.000Z</time>
      </trkpt>
      <trkpt lat="43.21113" lon="0.91106">
        <ele>483</ele>
        <time>2019-02-17T13:19:49.000Z</time>
      </trkpt>
      <trkpt lat="43.21112" lon="0.91103">
        <ele>483</ele>
        <time>2019-02-17T13:19:51.000Z</time>
      </trkpt>
      <trkpt lat="43.21111" lon="0.91101">
        <ele>483</ele>
        <time>2019-02-17T13:19:53.000Z</time>
      </trkpt>
      <trkpt lat="43.21111" lon="0.911">
        <ele>483</ele>
        <time>2019-02-17T13:19:55.000Z</time>
      </trkpt>
      <trkpt lat="43.21111" lon="0.91099">
        <ele>483</ele>
        <time>2019-02-17T13:19:57.000Z</time>
      </trkpt>
      <trkpt lat="43.21111" lon="0.91098">
        <ele>482</ele>
        <time>2019-02-17T13:19:59.000Z</time>
      </trkpt>
      <trkpt lat="43.21111" lon="0.91098">
        <ele>482</ele>
        <time>2019-02-17T13:20:01.000Z</time>
      </trkpt>
      <trkpt lat="43.2111" lon="0.91098">
        <ele>482</ele>
        <time>2019-02-17T13:20:03.000Z</time>
      </trkpt>
      <trkpt lat="43.2111" lon="0.91098">
        <ele>482</ele>
        <time>2019-02-17T13:20:05.000Z</time>
      </trkpt>
      <trkpt lat="43.21111" lon="0.91098">
        <ele>482</ele>
        <time>2019-02-17T13:20:07.000Z</time>
      </trkpt>
      <trkpt lat="43.21111" lon="0.91098">
        <ele>482</ele>
        <time>2019-02-17T13:20:09.000Z</time>
      </trkpt>
      <trkpt lat="43.21112" lon="0.91098">
        <ele>482</ele>
        <time>2019-02-17T13:20:11.000Z</time>
      </trkpt>
      <trkpt lat="43.21112" lon="0.91098">
        <ele>482</ele>
        <time>2019-02-17T13:20:13.000Z</time>
      </trkpt>
      <trkpt lat="43.21111" lon="0.91098">
        <ele>482</ele>
        <time>2019-02-17T13:20:15.000Z</time>
      </trkpt>
      <trkpt lat="43.21112" lon="0.91098">
        <ele>482</ele>
        <time>2019-02-17T13:20:17.000Z</time>
      </trkpt>
      <trkpt lat="43.21112" lon="0.91098">
        <ele>482</ele>
        <time>2019-02-17T13:20:19.000Z</time>
      </trkpt>
      <trkpt lat="43.21112" lon="0.91097">
        <ele>482</ele>
        <time>2019-02-17T13:20:21.000Z</time>
      </trkpt>
      <trkpt lat="43.21112" lon="0.91097">
        <ele>482</ele>
        <time>2019-02-17T13:20:23.000Z</time>
      </trkpt>
      <trkpt lat="43.21112" lon="0.91096">
        <ele>482</ele>
        <time>2019-02-17T13:20:25.000Z</time>
      </trkpt>
      <trkpt lat="43.21112" lon="0.91096">
        <ele>482</ele>
        <time>2019-02-17T13:20:27.000Z</time>
      </trkpt>
      <trkpt lat="43.21112" lon="0.91095">
        <ele>482</ele>
        <time>2019-02-17T13:20:29.000Z</time>
      </trkpt>
      <trkpt lat="43.21112" lon="0.91095">
        <ele>482</ele>
        <time>2019-02-17T13:20:31.000Z</time>
      </trkpt>
      <trkpt lat="43.21112" lon="0.91094">
        <ele>482</ele>
        <time>2019-02-17T13:20:33.000Z</time>
      </trkpt>
      <trkpt lat="43.21111" lon="0.91094">
        <ele>482</ele>
        <time>2019-02-17T13:20:35.000Z</time>
      </trkpt>
      <trkpt lat="43.2111" lon="0.91093">
        <ele>482</ele>
        <time>2019-02-17T13:20:37.000Z</time>
      </trkpt>
      <trkpt lat="43.2111" lon="0.91093">
        <ele>482</ele>
        <time>2019-02-17T13:20:39.000Z</time>
      </trkpt>
      <trkpt lat="43.21109" lon="0.91093">
        <ele>482</ele>
        <time>2019-02-17T13:20:41.000Z</time>
      </trkpt>
      <trkpt lat="43.21109" lon="0.91093">
        <ele>482</ele>
        <time>2019-02-17T13:20:43.000Z</time>
      </trkpt>
      <trkpt lat="43.21109" lon="0.91093">
        <ele>482</ele>
        <time>2019-02-17T13:20:45.000Z</time>
      </trkpt>
      <trkpt lat="43.21109" lon="0.91093">
        <ele>482</ele>
        <time>2019-02-17T13:20:47.000Z</time>
      </trkpt>
      <trkpt lat="43.21109" lon="0.91094">
        <ele>482</ele>
        <time>2019-02-17T13:20:49.000Z</time>
      </trkpt>
      <trkpt lat="43.21111" lon="0.91096">
        <ele>482</ele>
        <time>2019-02-17T13:20:51.000Z</time>
      </trkpt>
      <trkpt lat="43.21113" lon="0.91097">
        <ele>482</ele>
        <time>2019-02-17T13:20:53.000Z</time>
      </trkpt>
      <trkpt lat="43.21115" lon="0.91098">
        <ele>482</ele>
        <time>2019-02-17T13:20:55.000Z</time>
      </trkpt>
      <trkpt lat="43.21116" lon="0.911">
        <ele>483</ele>
        <time>2019-02-17T13:20:57.000Z</time>
      </trkpt>
      <trkpt lat="43.21118" lon="0.91102">
        <ele>483</ele>
        <time>2019-02-17T13:20:59.000Z</time>
      </trkpt>
      <trkpt lat="43.21119" lon="0.91103">
        <ele>483</ele>
        <time>2019-02-17T13:21:01.000Z</time>
      </trkpt>
      <trkpt lat="43.2112" lon="0.91105">
        <ele>483</ele>
        <time>2019-02-17T13:21:03.000Z</time>
      </trkpt>
      <trkpt lat="43.2112" lon="0.91106">
        <ele>483</ele>
        <time>2019-02-17T13:21:05.000Z</time>
      </trkpt>
      <trkpt lat="43.2112" lon="0.91107">
        <ele>483</ele>
        <time>2019-02-17T13:21:07.000Z</time>
      </trkpt>
      <trkpt lat="43.21121" lon="0.91107">
        <ele>483</ele>
        <time>2019-02-17T13:21:09.000Z</time>
      </trkpt>
      <trkpt lat="43.21121" lon="0.91107">
        <ele>483</ele>
        <time>2019-02-17T13:21:11.000Z</time>
      </trkpt>
      <trkpt lat="43.21121" lon="0.91107">
        <ele>483</ele>
        <time>2019-02-17T13:21:13.000Z</time>
      </trkpt>
      <trkpt lat="43.21122" lon="0.91107">
        <ele>483</ele>
        <time>2019-02-17T13:21:15.000Z</time>
      </trkpt>
      <trkpt lat="43.21122" lon="0.91107">
        <ele>483</ele>
        <time>2019-02-17T13:21:17.000Z</time>
      </trkpt>
      <trkpt lat="43.21122" lon="0.91107">
        <ele>483</ele>
        <time>2019-02-17T13:21:19.000Z</time>
      </trkpt>
      <trkpt lat="43.21123" lon="0.91107">
        <ele>483</ele>
        <time>2019-02-17T13:21:21.000Z</time>
      </trkpt>
      <trkpt lat="43.21123" lon="0.91107">
        <ele>483</ele>
        <time>2019-02-17T13:21:23.000Z</time>
      </trkpt>
      <trkpt lat="43.21123" lon="0.91107">
        <ele>483</ele>
        <time>2019-02-17T13:21:25.000Z</time>
      </trkpt>
      <trkpt lat="43.21123" lon="0.91108">
        <ele>483</ele>
        <time>2019-02-17T13:21:27.000Z</time>
      </trkpt>
      <trkpt lat="43.21123" lon="0.91108">
        <ele>483</ele>
        <time>2019-02-17T13:21:29.000Z</time>
      </trkpt>
      <trkpt lat="43.21123" lon="0.91109">
        <ele>483</ele>
        <time>2019-02-17T13:21:31.000Z</time>
      </trkpt>
      <trkpt lat="43.21124" lon="0.9111">
        <ele>483</ele>
        <time>2019-02-17T13:21:33.000Z</time>
      </trkpt>
      <trkpt lat="43.21124" lon="0.9111">
        <ele>483</ele>
        <time>2019-02-17T13:21:35.000Z</time>
      </trkpt>
      <trkpt lat="43.21124" lon="0.91111">
        <ele>483</ele>
        <time>2019-02-17T13:21:37.000Z</time>
      </trkpt>
      <trkpt lat="43.21125" lon="0.91111">
        <ele>483</ele>
        <time>2019-02-17T13:21:39.000Z</time>
      </trkpt>
      <trkpt lat="43.21124" lon="0.91112">
        <ele>483</ele>
        <time>2019-02-17T13:21:41.000Z</time>
      </trkpt>
      <trkpt lat="43.21124" lon="0.91112">
        <ele>483</ele>
        <time>2019-02-17T13:21:43.000Z</time>
      </trkpt>
      <trkpt lat="43.21123" lon="0.91113">
        <ele>483</ele>
        <time>2019-02-17T13:21:45.000Z</time>
      </trkpt>
      <trkpt lat="43.21123" lon="0.91113">
        <ele>483</ele>
        <time>2019-02-17T13:21:47.000Z</time>
      </trkpt>
      <trkpt lat="43.21122" lon="0.91113">
        <ele>483</ele>
        <time>2019-02-17T13:21:49.000Z</time>
      </trkpt>
      <trkpt lat="43.21122" lon="0.91113">
        <ele>483</ele>
        <time>2019-02-17T13:21:51.000Z</time>
      </trkpt>
      <trkpt lat="43.21122" lon="0.91113">
        <ele>483</ele>
        <time>2019-02-17T13:21:53.000Z</time>
      </trkpt>
      <trkpt lat="43.21123" lon="0.91113">
        <ele>483</ele>
        <time>2019-02-17T13:21:55.000Z</time>
      </trkpt>
      <trkpt lat="43.21123" lon="0.91113">
        <ele>483</ele>
        <time>2019-02-17T13:21:57.000Z</time>
      </trkpt>
      <trkpt lat="43.21124" lon="0.91113">
        <ele>483</ele>
        <time>2019-02-17T13:21:59.000Z</time>
      </trkpt>
      <trkpt lat="43.21124" lon="0.91113">
        <ele>483</ele>
        <time>2019-02-17T13:22:01.000Z</time>
      </trkpt>
      <trkpt lat="43.21124" lon="0.91112">
        <ele>483</ele>
        <time>2019-02-17T13:22:03.000Z</time>
      </trkpt>
      <trkpt lat="43.21125" lon="0.91113">
        <ele>483</ele>
        <time>2019-02-17T13:22:05.000Z</time>
      </trkpt>
      <trkpt lat="43.21125" lon="0.91113">
        <ele>483</ele>
        <time>2019-02-17T13:22:07.000Z</time>
      </trkpt>
      <trkpt lat="43.21126" lon="0.91113">
        <ele>483</ele>
        <time>2019-02-17T13:22:09.000Z</time>
      </trkpt>
      <trkpt lat="43.21126" lon="0.91114">
        <ele>483</ele>
        <time>2019-02-17T13:22:11.000Z</time>
      </trkpt>
      <trkpt lat="43.21126" lon="0.91114">
        <ele>483</ele>
        <time>2019-02-17T13:22:13.000Z</time>
      </trkpt>
      <trkpt lat="43.21126" lon="0.91114">
        <ele>483</ele>
        <time>2019-02-17T13:22:15.000Z</time>
      </trkpt>
      <trkpt lat="43.21127" lon="0.91114">
        <ele>483</ele>
        <time>2019-02-17T13:22:17.000Z</time>
      </trkpt>
      <trkpt lat="43.21126" lon="0.91115">
        <ele>483</ele>
        <time>2019-02-17T13:22:19.000Z</time>
      </trkpt>
      <trkpt lat="43.21126" lon="0.91116">
        <ele>483</ele>
        <time>2019-02-17T13:22:21.000Z</time>
      </trkpt>
      <trkpt lat="43.21124" lon="0.91116">
        <ele>483</ele>
        <time>2019-02-17T13:22:23.000Z</time>
      </trkpt>
      <trkpt lat="43.21123" lon="0.91116">
        <ele>483</ele>
        <time>2019-02-17T13:22:25.000Z</time>
      </trkpt>
      <trkpt lat="43.21124" lon="0.91117">
        <ele>483</ele>
        <time>2019-02-17T13:22:27.000Z</time>
      </trkpt>
      <trkpt lat="43.21123" lon="0.91118">
        <ele>483</ele>
        <time>2019-02-17T13:22:29.000Z</time>
      </trkpt>
      <trkpt lat="43.21123" lon="0.91118">
        <ele>483</ele>
        <time>2019-02-17T13:22:31.000Z</time>
      </trkpt>
      <trkpt lat="43.21123" lon="0.91117">
        <ele>483</ele>
        <time>2019-02-17T13:22:33.000Z</time>
      </trkpt>
      <trkpt lat="43.21123" lon="0.91118">
        <ele>483</ele>
        <time>2019-02-17T13:22:35.000Z</time>
      </trkpt>
      <trkpt lat="43.21122" lon="0.91117">
        <ele>483</ele>
        <time>2019-02-17T13:22:37.000Z</time>
      </trkpt>
      <trkpt lat="43.21122" lon="0.91116">
        <ele>483</ele>
        <time>2019-02-17T13:22:39.000Z</time>
      </trkpt>
      <trkpt lat="43.21122" lon="0.91116">
        <ele>483</ele>
        <time>2019-02-17T13:22:41.000Z</time>
      </trkpt>
      <trkpt lat="43.21121" lon="0.91115">
        <ele>483</ele>
        <time>2019-02-17T13:22:43.000Z</time>
      </trkpt>
      <trkpt lat="43.21121" lon="0.91115">
        <ele>483</ele>
        <time>2019-02-17T13:22:45.000Z</time>
      </trkpt>
      <trkpt lat="43.21121" lon="0.91115">
        <ele>483</ele>
        <time>2019-02-17T13:22:47.000Z</time>
      </trkpt>
      <trkpt lat="43.21121" lon="0.91115">
        <ele>483</ele>
        <time>2019-02-17T13:22:49.000Z</time>
      </trkpt>
      <trkpt lat="43.21121" lon="0.91115">
        <ele>483</ele>
        <time>2019-02-17T13:22:51.000Z</time>
      </trkpt>
      <trkpt lat="43.21121" lon="0.91114">
        <ele>483</ele>
        <time>2019-02-17T13:22:53.000Z</time>
      </trkpt>
      <trkpt lat="43.21121" lon="0.91115">
        <ele>483</ele>
        <time>2019-02-17T13:22:55.000Z</time>
      </trkpt>
      <trkpt lat="43.21122" lon="0.91114">
        <ele>483</ele>
        <time>2019-02-17T13:22:57.000Z</time>
      </trkpt>
      <trkpt lat="43.21121" lon="0.91114">
        <ele>483</ele>
        <time>2019-02-17T13:22:59.000Z</time>
      </trkpt>
      <trkpt lat="43.21121" lon="0.91114">
        <ele>483</ele>
        <time>2019-02-17T13:23:01.000Z</time>
      </trkpt>
      <trkpt lat="43.21121" lon="0.91114">
        <ele>483</ele>
        <time>2019-02-17T13:23:03.000Z</time>
      </trkpt>
      <trkpt lat="43.21121" lon="0.91113">
        <ele>483</ele>
        <time>2019-02-17T13:23:05.000Z</time>
      </trkpt>
      <trkpt lat="43.21121" lon="0.91113">
        <ele>483</ele>
        <time>2019-02-17T13:23:07.000Z</time>
      </trkpt>
      <trkpt lat="43.21121" lon="0.91112">
        <ele>483</ele>
        <time>2019-02-17T13:23:09.000Z</time>
      </trkpt>
      <trkpt lat="43.21121" lon="0.91112">
        <ele>483</ele>
        <time>2019-02-17T13:23:11.000Z</time>
      </trkpt>
      <trkpt lat="43.21121" lon="0.91112">
        <ele>483</ele>
        <time>2019-02-17T13:23:13.000Z</time>
      </trkpt>
      <trkpt lat="43.21121" lon="0.91112">
        <ele>483</ele>
        <time>2019-02-17T13:23:15.000Z</time>
      </trkpt>
      <trkpt lat="43.2112" lon="0.91111">
        <ele>483</ele>
        <time>2019-02-17T13:23:17.000Z</time>
      </trkpt>
      <trkpt lat="43.2112" lon="0.91111">
        <ele>483</ele>
        <time>2019-02-17T13:23:19.000Z</time>
      </trkpt>
      <trkpt lat="43.21119" lon="0.91111">
        <ele>483</ele>
        <time>2019-02-17T13:23:21.000Z</time>
      </trkpt>
      <trkpt lat="43.21118" lon="0.9111">
        <ele>483</ele>
        <time>2019-02-17T13:23:23.000Z</time>
      </trkpt>
      <trkpt lat="43.21118" lon="0.9111">
        <ele>483</ele>
        <time>2019-02-17T13:23:25.000Z</time>
      </trkpt>
      <trkpt lat="43.21117" lon="0.91109">
        <ele>483</ele>
        <time>2019-02-17T13:23:27.000Z</time>
      </trkpt>
      <trkpt lat="43.21117" lon="0.91109">
        <ele>483</ele>
        <time>2019-02-17T13:23:29.000Z</time>
      </trkpt>
      <trkpt lat="43.21117" lon="0.91109">
        <ele>483</ele>
        <time>2019-02-17T13:23:31.000Z</time>
      </trkpt>
      <trkpt lat="43.21118" lon="0.91109">
        <ele>483</ele>
        <time>2019-02-17T13:23:33.000Z</time>
      </trkpt>
      <trkpt lat="43.21118" lon="0.91108">
        <ele>483</ele>
        <time>2019-02-17T13:23:35.000Z</time>
      </trkpt>
      <trkpt lat="43.21117" lon="0.91108">
        <ele>483</ele>
        <time>2019-02-17T13:23:37.000Z</time>
      </trkpt>
      <trkpt lat="43.21117" lon="0.91107">
        <ele>483</ele>
        <time>2019-02-17T13:23:39.000Z</time>
      </trkpt>
      <trkpt lat="43.21117" lon="0.91108">
        <ele>483</ele>
        <time>2019-02-17T13:23:41.000Z</time>
      </trkpt>
      <trkpt lat="43.21116" lon="0.91109">
        <ele>483</ele>
        <time>2019-02-17T13:23:43.000Z</time>
      </trkpt>
      <trkpt lat="43.21117" lon="0.91109">
        <ele>483</ele>
        <time>2019-02-17T13:23:45.000Z</time>
      </trkpt>
      <trkpt lat="43.21117" lon="0.9111">
        <ele>483</ele>
        <time>2019-02-17T13:23:47.000Z</time>
      </trkpt>
      <trkpt lat="43.21119" lon="0.9111">
        <ele>483</ele>
        <time>2019-02-17T13:23:49.000Z</time>
      </trkpt>
      <trkpt lat="43.2112" lon="0.91111">
        <ele>483</ele>
        <time>2019-02-17T13:23:51.000Z</time>
      </trkpt>
      <trkpt lat="43.2112" lon="0.91112">
        <ele>483</ele>
        <time>2019-02-17T13:23:53.000Z</time>
      </trkpt>
      <trkpt lat="43.2112" lon="0.91112">
        <ele>483</ele>
        <time>2019-02-17T13:23:55.000Z</time>
      </trkpt>
      <trkpt lat="43.2112" lon="0.91113">
        <ele>483</ele>
        <time>2019-02-17T13:23:57.000Z</time>
      </trkpt>
      <trkpt lat="43.2112" lon="0.91114">
        <ele>483</ele>
        <time>2019-02-17T13:23:59.000Z</time>
      </trkpt>
      <trkpt lat="43.21121" lon="0.91115">
        <ele>483</ele>
        <time>2019-02-17T13:24:01.000Z</time>
      </trkpt>
      <trkpt lat="43.2112" lon="0.91115">
        <ele>483</ele>
        <time>2019-02-17T13:24:03.000Z</time>
      </trkpt>
      <trkpt lat="43.21121" lon="0.91116">
        <ele>483</ele>
        <time>2019-02-17T13:24:05.000Z</time>
      </trkpt>
      <trkpt lat="43.21121" lon="0.91116">
        <ele>483</ele>
        <time>2019-02-17T13:24:07.000Z</time>
      </trkpt>
      <trkpt lat="43.2112" lon="0.91116">
        <ele>483</ele>
        <time>2019-02-17T13:24:09.000Z</time>
      </trkpt>
      <trkpt lat="43.2112" lon="0.91115">
        <ele>483</ele>
        <time>2019-02-17T13:24:11.000Z</time>
      </trkpt>
      <trkpt lat="43.2112" lon="0.91115">
        <ele>483</ele>
        <time>2019-02-17T13:24:13.000Z</time>
      </trkpt>
      <trkpt lat="43.2112" lon="0.91115">
        <ele>483</ele>
        <time>2019-02-17T13:24:15.000Z</time>
      </trkpt>
      <trkpt lat="43.2112" lon="0.91115">
        <ele>483</ele>
        <time>2019-02-17T13:24:17.000Z</time>
      </trkpt>
      <trkpt lat="43.2112" lon="0.91115">
        <ele>483</ele>
        <time>2019-02-17T13:24:19.000Z</time>
      </trkpt>
      <trkpt lat="43.2112" lon="0.91115">
        <ele>483</ele>
        <time>2019-02-17T13:24:21.000Z</time>
      </trkpt>
      <trkpt lat="43.2112" lon="0.91115">
        <ele>483</ele>
        <time>2019-02-17T13:24:23.000Z</time>
      </trkpt>
      <trkpt lat="43.2112" lon="0.91115">
        <ele>483</ele>
        <time>2019-02-17T13:24:25.000Z</time>
      </trkpt>
      <trkpt lat="43.21119" lon="0.91115">
        <ele>483</ele>
        <time>2019-02-17T13:24:27.000Z</time>
      </trkpt>
      <trkpt lat="43.21119" lon="0.91115">
        <ele>483</ele>
        <time>2019-02-17T13:24:29.000Z</time>
      </trkpt>
      <trkpt lat="43.21119" lon="0.91115">
        <ele>483</ele>
        <time>2019-02-17T13:24:31.000Z</time>
      </trkpt>
      <trkpt lat="43.2112" lon="0.91115">
        <ele>483</ele>
        <time>2019-02-17T13:24:33.000Z</time>
      </trkpt>
      <trkpt lat="43.2112" lon="0.91115">
        <ele>483</ele>
        <time>2019-02-17T13:24:35.000Z</time>
      </trkpt>
      <trkpt lat="43.21121" lon="0.91114">
        <ele>483</ele>
        <time>2019-02-17T13:24:37.000Z</time>
      </trkpt>
      <trkpt lat="43.21121" lon="0.91114">
        <ele>483</ele>
        <time>2019-02-17T13:24:39.000Z</time>
      </trkpt>
      <trkpt lat="43.21121" lon="0.91114">
        <ele>483</ele>
        <time>2019-02-17T13:24:41.000Z</time>
      </trkpt>
      <trkpt lat="43.21121" lon="0.91114">
        <ele>483</ele>
        <time>2019-02-17T13:24:43.000Z</time>
      </trkpt>
      <trkpt lat="43.21122" lon="0.91114">
        <ele>483</ele>
        <time>2019-02-17T13:24:45.000Z</time>
      </trkpt>
      <trkpt lat="43.21123" lon="0.91112">
        <ele>483</ele>
        <time>2019-02-17T13:24:47.000Z</time>
      </trkpt>
      <trkpt lat="43.21123" lon="0.9111">
        <ele>483</ele>
        <time>2019-02-17T13:24:49.000Z</time>
      </trkpt>
      <trkpt lat="43.21124" lon="0.91108">
        <ele>483</ele>
        <time>2019-02-17T13:24:51.000Z</time>
      </trkpt>
      <trkpt lat="43.21124" lon="0.91106">
        <ele>483</ele>
        <time>2019-02-17T13:24:53.000Z</time>
      </trkpt>
      <trkpt lat="43.21125" lon="0.91103">
        <ele>483</ele>
        <time>2019-02-17T13:24:55.000Z</time>
      </trkpt>
      <trkpt lat="43.21125" lon="0.91102">
        <ele>483</ele>
        <time>2019-02-17T13:24:57.000Z</time>
      </trkpt>
      <trkpt lat="43.21126" lon="0.91099">
        <ele>483</ele>
        <time>2019-02-17T13:24:59.000Z</time>
      </trkpt>
      <trkpt lat="43.21126" lon="0.91097">
        <ele>482</ele>
        <time>2019-02-17T13:25:01.000Z</time>
      </trkpt>
      <trkpt lat="43.21127" lon="0.91095">
        <ele>482</ele>
        <time>2019-02-17T13:25:03.000Z</time>
      </trkpt>
      <trkpt lat="43.21126" lon="0.91091">
        <ele>482</ele>
        <time>2019-02-17T13:25:05.000Z</time>
      </trkpt>
      <trkpt lat="43.21126" lon="0.91089">
        <ele>482</ele>
        <time>2019-02-17T13:25:07.000Z</time>
      </trkpt>
      <trkpt lat="43.21126" lon="0.91086">
        <ele>482</ele>
        <time>2019-02-17T13:25:09.000Z</time>
      </trkpt>
      <trkpt lat="43.21126" lon="0.91084">
        <ele>482</ele>
        <time>2019-02-17T13:25:11.000Z</time>
      </trkpt>
      <trkpt lat="43.21126" lon="0.91081">
        <ele>482</ele>
        <time>2019-02-17T13:25:13.000Z</time>
      </trkpt>
      <trkpt lat="43.21126" lon="0.91079">
        <ele>482</ele>
        <time>2019-02-17T13:25:15.000Z</time>
      </trkpt>
      <trkpt lat="43.21126" lon="0.91077">
        <ele>483</ele>
        <time>2019-02-17T13:25:17.000Z</time>
      </trkpt>
      <trkpt lat="43.21126" lon="0.91076">
        <ele>483</ele>
        <time>2019-02-17T13:25:19.000Z</time>
      </trkpt>
      <trkpt lat="43.21125" lon="0.91075">
        <ele>483</ele>
        <time>2019-02-17T13:25:21.000Z</time>
      </trkpt>
      <trkpt lat="43.21126" lon="0.91073">
        <ele>483</ele>
        <time>2019-02-17T13:25:23.000Z</time>
      </trkpt>
      <trkpt lat="43.21126" lon="0.91071">
        <ele>483</ele>
        <time>2019-02-17T13:25:25.000Z</time>
      </trkpt>
      <trkpt lat="43.21127" lon="0.91069">
        <ele>483</ele>
        <time>2019-02-17T13:25:27.000Z</time>
      </trkpt>
      <trkpt lat="43.21128" lon="0.91067">
        <ele>483</ele>
        <time>2019-02-17T13:25:29.000Z</time>
      </trkpt>
      <trkpt lat="43.21129" lon="0.91065">
        <ele>483</ele>
        <time>2019-02-17T13:25:31.000Z</time>
      </trkpt>
      <trkpt lat="43.2113" lon="0.91063">
        <ele>483</ele>
        <time>2019-02-17T13:25:33.000Z</time>
      </trkpt>
      <trkpt lat="43.21131" lon="0.91061">
        <ele>483</ele>
        <time>2019-02-17T13:25:35.000Z</time>
      </trkpt>
      <trkpt lat="43.21132" lon="0.91058">
        <ele>483</ele>
        <time>2019-02-17T13:25:37.000Z</time>
      </trkpt>
      <trkpt lat="43.21133" lon="0.91055">
        <ele>483</ele>
        <time>2019-02-17T13:25:39.000Z</time>
      </trkpt>
      <trkpt lat="43.21133" lon="0.91053">
        <ele>483</ele>
        <time>2019-02-17T13:25:41.000Z</time>
      </trkpt>
      <trkpt lat="43.21134" lon="0.91051">
        <ele>483</ele>
        <time>2019-02-17T13:25:43.000Z</time>
      </trkpt>
      <trkpt lat="43.21135" lon="0.91049">
        <ele>483</ele>
        <time>2019-02-17T13:25:45.000Z</time>
      </trkpt>
      <trkpt lat="43.21136" lon="0.91047">
        <ele>483</ele>
        <time>2019-02-17T13:25:47.000Z</time>
      </trkpt>
      <trkpt lat="43.21136" lon="0.91045">
        <ele>483</ele>
        <time>2019-02-17T13:25:49.000Z</time>
      </trkpt>
      <trkpt lat="43.21138" lon="0.91043">
        <ele>483</ele>
        <time>2019-02-17T13:25:51.000Z</time>
      </trkpt>
      <trkpt lat="43.21139" lon="0.91042">
        <ele>483</ele>
        <time>2019-02-17T13:25:53.000Z</time>
      </trkpt>
      <trkpt lat="43.2114" lon="0.9104">
        <ele>483</ele>
        <time>2019-02-17T13:25:55.000Z</time>
      </trkpt>
      <trkpt lat="43.21141" lon="0.91038">
        <ele>483</ele>
        <time>2019-02-17T13:25:57.000Z</time>
      </trkpt>
      <trkpt lat="43.21142" lon="0.91036">
        <ele>483</ele>
        <time>2019-02-17T13:25:59.000Z</time>
      </trkpt>
      <trkpt lat="43.21143" lon="0.91034">
        <ele>483</ele>
        <time>2019-02-17T13:26:01.000Z</time>
      </trkpt>
      <trkpt lat="43.21145" lon="0.91031">
        <ele>483</ele>
        <time>2019-02-17T13:26:03.000Z</time>
      </trkpt>
      <trkpt lat="43.21146" lon="0.91029">
        <ele>483</ele>
        <time>2019-02-17T13:26:05.000Z</time>
      </trkpt>
      <trkpt lat="43.21148" lon="0.91027">
        <ele>483</ele>
        <time>2019-02-17T13:26:07.000Z</time>
      </trkpt>
      <trkpt lat="43.2115" lon="0.91026">
        <ele>483</ele>
        <time>2019-02-17T13:26:09.000Z</time>
      </trkpt>
      <trkpt lat="43.21152" lon="0.91024">
        <ele>483</ele>
        <time>2019-02-17T13:26:11.000Z</time>
      </trkpt>
      <trkpt lat="43.21153" lon="0.91022">
        <ele>483</ele>
        <time>2019-02-17T13:26:13.000Z</time>
      </trkpt>
      <trkpt lat="43.21155" lon="0.91021">
        <ele>484</ele>
        <time>2019-02-17T13:26:15.000Z</time>
      </trkpt>
      <trkpt lat="43.21156" lon="0.91018">
        <ele>484</ele>
        <time>2019-02-17T13:26:17.000Z</time>
      </trkpt>
      <trkpt lat="43.21157" lon="0.91017">
        <ele>484</ele>
        <time>2019-02-17T13:26:19.000Z</time>
      </trkpt>
      <trkpt lat="43.21158" lon="0.91015">
        <ele>484</ele>
        <time>2019-02-17T13:26:21.000Z</time>
      </trkpt>
      <trkpt lat="43.21159" lon="0.91012">
        <ele>484</ele>
        <time>2019-02-17T13:26:23.000Z</time>
      </trkpt>
      <trkpt lat="43.21159" lon="0.9101">
        <ele>484</ele>
        <time>2019-02-17T13:26:25.000Z</time>
      </trkpt>
      <trkpt lat="43.2116" lon="0.91009">
        <ele>484</ele>
        <time>2019-02-17T13:26:27.000Z</time>
      </trkpt>
      <trkpt lat="43.21161" lon="0.91007">
        <ele>485</ele>
        <time>2019-02-17T13:26:29.000Z</time>
      </trkpt>
      <trkpt lat="43.21162" lon="0.91005">
        <ele>485</ele>
        <time>2019-02-17T13:26:31.000Z</time>
      </trkpt>
      <trkpt lat="43.21163" lon="0.91004">
        <ele>485</ele>
        <time>2019-02-17T13:26:33.000Z</time>
      </trkpt>
      <trkpt lat="43.21163" lon="0.91002">
        <ele>485</ele>
        <time>2019-02-17T13:26:35.000Z</time>
      </trkpt>
      <trkpt lat="43.21164" lon="0.91">
        <ele>485</ele>
        <time>2019-02-17T13:26:37.000Z</time>
      </trkpt>
      <trkpt lat="43.21164" lon="0.90997">
        <ele>485</ele>
        <time>2019-02-17T13:26:39.000Z</time>
      </trkpt>
      <trkpt lat="43.21165" lon="0.90996">
        <ele>485</ele>
        <time>2019-02-17T13:26:41.000Z</time>
      </trkpt>
      <trkpt lat="43.21166" lon="0.90994">
        <ele>485</ele>
        <time>2019-02-17T13:26:43.000Z</time>
      </trkpt>
      <trkpt lat="43.21166" lon="0.90993">
        <ele>485</ele>
        <time>2019-02-17T13:26:45.000Z</time>
      </trkpt>
      <trkpt lat="43.21166" lon="0.90992">
        <ele>485</ele>
        <time>2019-02-17T13:26:47.000Z</time>
      </trkpt>
      <trkpt lat="43.21167" lon="0.9099">
        <ele>486</ele>
        <time>2019-02-17T13:26:49.000Z</time>
      </trkpt>
      <trkpt lat="43.21167" lon="0.90988">
        <ele>486</ele>
        <time>2019-02-17T13:26:51.000Z</time>
      </trkpt>
      <trkpt lat="43.21168" lon="0.90986">
        <ele>486</ele>
        <time>2019-02-17T13:26:53.000Z</time>
      </trkpt>
      <trkpt lat="43.21168" lon="0.90984">
        <ele>486</ele>
        <time>2019-02-17T13:26:55.000Z</time>
      </trkpt>
      <trkpt lat="43.21169" lon="0.90982">
        <ele>486</ele>
        <time>2019-02-17T13:26:57.000Z</time>
      </trkpt>
      <trkpt lat="43.2117" lon="0.9098">
        <ele>486</ele>
        <time>2019-02-17T13:26:59.000Z</time>
      </trkpt>
      <trkpt lat="43.21171" lon="0.90978">
        <ele>486</ele>
        <time>2019-02-17T13:27:01.000Z</time>
      </trkpt>
      <trkpt lat="43.21172" lon="0.90977">
        <ele>486</ele>
        <time>2019-02-17T13:27:03.000Z</time>
      </trkpt>
      <trkpt lat="43.21172" lon="0.90976">
        <ele>486</ele>
        <time>2019-02-17T13:27:05.000Z</time>
      </trkpt>
      <trkpt lat="43.21172" lon="0.90975">
        <ele>486</ele>
        <time>2019-02-17T13:27:07.000Z</time>
      </trkpt>
      <trkpt lat="43.21173" lon="0.90973">
        <ele>487</ele>
        <time>2019-02-17T13:27:09.000Z</time>
      </trkpt>
      <trkpt lat="43.21174" lon="0.90971">
        <ele>487</ele>
        <time>2019-02-17T13:27:11.000Z</time>
      </trkpt>
      <trkpt lat="43.21175" lon="0.90969">
        <ele>487</ele>
        <time>2019-02-17T13:27:13.000Z</time>
      </trkpt>
      <trkpt lat="43.21175" lon="0.90968">
        <ele>487</ele>
        <time>2019-02-17T13:27:15.000Z</time>
      </trkpt>
      <trkpt lat="43.21177" lon="0.90966">
        <ele>487</ele>
        <time>2019-02-17T13:27:17.000Z</time>
      </trkpt>
      <trkpt lat="43.21178" lon="0.90964">
        <ele>487</ele>
        <time>2019-02-17T13:27:19.000Z</time>
      </trkpt>
      <trkpt lat="43.21179" lon="0.90963">
        <ele>487</ele>
        <time>2019-02-17T13:27:21.000Z</time>
      </trkpt>
      <trkpt lat="43.2118" lon="0.90961">
        <ele>487</ele>
        <time>2019-02-17T13:27:23.000Z</time>
      </trkpt>
      <trkpt lat="43.21181" lon="0.9096">
        <ele>487</ele>
        <time>2019-02-17T13:27:25.000Z</time>
      </trkpt>
      <trkpt lat="43.21182" lon="0.90958">
        <ele>487</ele>
        <time>2019-02-17T13:27:27.000Z</time>
      </trkpt>
      <trkpt lat="43.21182" lon="0.90957">
        <ele>487</ele>
        <time>2019-02-17T13:27:29.000Z</time>
      </trkpt>
      <trkpt lat="43.21183" lon="0.90955">
        <ele>487</ele>
        <time>2019-02-17T13:27:31.000Z</time>
      </trkpt>
      <trkpt lat="43.21184" lon="0.90953">
        <ele>487</ele>
        <time>2019-02-17T13:27:33.000Z</time>
      </trkpt>
      <trkpt lat="43.21186" lon="0.90952">
        <ele>487</ele>
        <time>2019-02-17T13:27:35.000Z</time>
      </trkpt>
      <trkpt lat="43.21187" lon="0.90949">
        <ele>487</ele>
        <time>2019-02-17T13:27:37.000Z</time>
      </trkpt>
      <trkpt lat="43.21188" lon="0.90948">
        <ele>487</ele>
        <time>2019-02-17T13:27:39.000Z</time>
      </trkpt>
      <trkpt lat="43.21189" lon="0.90946">
        <ele>487</ele>
        <time>2019-02-17T13:27:41.000Z</time>
      </trkpt>
      <trkpt lat="43.2119" lon="0.90945">
        <ele>487</ele>
        <time>2019-02-17T13:27:43.000Z</time>
      </trkpt>
      <trkpt lat="43.21192" lon="0.90943">
        <ele>487</ele>
        <time>2019-02-17T13:27:45.000Z</time>
      </trkpt>
      <trkpt lat="43.21193" lon="0.90941">
        <ele>487</ele>
        <time>2019-02-17T13:27:47.000Z</time>
      </trkpt>
      <trkpt lat="43.21193" lon="0.90939">
        <ele>487</ele>
        <time>2019-02-17T13:27:49.000Z</time>
      </trkpt>
      <trkpt lat="43.21194" lon="0.90937">
        <ele>487</ele>
        <time>2019-02-17T13:27:51.000Z</time>
      </trkpt>
      <trkpt lat="43.21195" lon="0.90935">
        <ele>486</ele>
        <time>2019-02-17T13:27:53.000Z</time>
      </trkpt>
      <trkpt lat="43.21196" lon="0.90934">
        <ele>486</ele>
        <time>2019-02-17T13:27:55.000Z</time>
      </trkpt>
      <trkpt lat="43.21197" lon="0.90931">
        <ele>486</ele>
        <time>2019-02-17T13:27:57.000Z</time>
      </trkpt>
      <trkpt lat="43.21198" lon="0.9093">
        <ele>486</ele>
        <time>2019-02-17T13:27:59.000Z</time>
      </trkpt>
      <trkpt lat="43.21198" lon="0.90928">
        <ele>486</ele>
        <time>2019-02-17T13:28:01.000Z</time>
      </trkpt>
      <trkpt lat="43.212" lon="0.90926">
        <ele>486</ele>
        <time>2019-02-17T13:28:03.000Z</time>
      </trkpt>
      <trkpt lat="43.21201" lon="0.90924">
        <ele>486</ele>
        <time>2019-02-17T13:28:05.000Z</time>
      </trkpt>
      <trkpt lat="43.21202" lon="0.90921">
        <ele>486</ele>
        <time>2019-02-17T13:28:07.000Z</time>
      </trkpt>
      <trkpt lat="43.21203" lon="0.90919">
        <ele>486</ele>
        <time>2019-02-17T13:28:09.000Z</time>
      </trkpt>
      <trkpt lat="43.21204" lon="0.90917">
        <ele>486</ele>
        <time>2019-02-17T13:28:11.000Z</time>
      </trkpt>
      <trkpt lat="43.21204" lon="0.90915">
        <ele>486</ele>
        <time>2019-02-17T13:28:13.000Z</time>
      </trkpt>
      <trkpt lat="43.21205" lon="0.90913">
        <ele>486</ele>
        <time>2019-02-17T13:28:15.000Z</time>
      </trkpt>
      <trkpt lat="43.21205" lon="0.90911">
        <ele>487</ele>
        <time>2019-02-17T13:28:17.000Z</time>
      </trkpt>
      <trkpt lat="43.21206" lon="0.90909">
        <ele>487</ele>
        <time>2019-02-17T13:28:19.000Z</time>
      </trkpt>
      <trkpt lat="43.21207" lon="0.90907">
        <ele>487</ele>
        <time>2019-02-17T13:28:21.000Z</time>
      </trkpt>
      <trkpt lat="43.21208" lon="0.90905">
        <ele>487</ele>
        <time>2019-02-17T13:28:23.000Z</time>
      </trkpt>
      <trkpt lat="43.21209" lon="0.90902">
        <ele>488</ele>
        <time>2019-02-17T13:28:25.000Z</time>
      </trkpt>
      <trkpt lat="43.2121" lon="0.909">
        <ele>488</ele>
        <time>2019-02-17T13:28:27.000Z</time>
      </trkpt>
      <trkpt lat="43.2121" lon="0.90898">
        <ele>488</ele>
        <time>2019-02-17T13:28:29.000Z</time>
      </trkpt>
      <trkpt lat="43.21211" lon="0.90896">
        <ele>488</ele>
        <time>2019-02-17T13:28:31.000Z</time>
      </trkpt>
      <trkpt lat="43.21212" lon="0.90895">
        <ele>488</ele>
        <time>2019-02-17T13:28:33.000Z</time>
      </trkpt>
      <trkpt lat="43.21213" lon="0.90893">
        <ele>489</ele>
        <time>2019-02-17T13:28:35.000Z</time>
      </trkpt>
      <trkpt lat="43.21213" lon="0.90891">
        <ele>489</ele>
        <time>2019-02-17T13:28:37.000Z</time>
      </trkpt>
      <trkpt lat="43.21213" lon="0.90889">
        <ele>489</ele>
        <time>2019-02-17T13:28:39.000Z</time>
      </trkpt>
      <trkpt lat="43.21214" lon="0.90887">
        <ele>489</ele>
        <time>2019-02-17T13:28:41.000Z</time>
      </trkpt>
      <trkpt lat="43.21214" lon="0.90885">
        <ele>489</ele>
        <time>2019-02-17T13:28:43.000Z</time>
      </trkpt>
      <trkpt lat="43.21215" lon="0.90883">
        <ele>489</ele>
        <time>2019-02-17T13:28:45.000Z</time>
      </trkpt>
      <trkpt lat="43.21215" lon="0.90882">
        <ele>489</ele>
        <time>2019-02-17T13:28:47.000Z</time>
      </trkpt>
      <trkpt lat="43.21216" lon="0.9088">
        <ele>489</ele>
        <time>2019-02-17T13:28:49.000Z</time>
      </trkpt>
      <trkpt lat="43.21216" lon="0.90878">
        <ele>488</ele>
        <time>2019-02-17T13:28:51.000Z</time>
      </trkpt>
      <trkpt lat="43.21217" lon="0.90877">
        <ele>488</ele>
        <time>2019-02-17T13:28:53.000Z</time>
      </trkpt>
      <trkpt lat="43.21218" lon="0.90875">
        <ele>488</ele>
        <time>2019-02-17T13:28:55.000Z</time>
      </trkpt>
      <trkpt lat="43.21218" lon="0.90874">
        <ele>488</ele>
        <time>2019-02-17T13:28:57.000Z</time>
      </trkpt>
      <trkpt lat="43.21219" lon="0.90872">
        <ele>488</ele>
        <time>2019-02-17T13:28:59.000Z</time>
      </trkpt>
      <trkpt lat="43.21221" lon="0.9087">
        <ele>488</ele>
        <time>2019-02-17T13:29:01.000Z</time>
      </trkpt>
      <trkpt lat="43.21222" lon="0.90868">
        <ele>488</ele>
        <time>2019-02-17T13:29:03.000Z</time>
      </trkpt>
      <trkpt lat="43.21224" lon="0.90866">
        <ele>488</ele>
        <time>2019-02-17T13:29:05.000Z</time>
      </trkpt>
      <trkpt lat="43.21225" lon="0.90865">
        <ele>488</ele>
        <time>2019-02-17T13:29:07.000Z</time>
      </trkpt>
      <trkpt lat="43.21226" lon="0.90864">
        <ele>488</ele>
        <time>2019-02-17T13:29:09.000Z</time>
      </trkpt>
      <trkpt lat="43.21227" lon="0.90862">
        <ele>488</ele>
        <time>2019-02-17T13:29:11.000Z</time>
      </trkpt>
      <trkpt lat="43.21228" lon="0.9086">
        <ele>488</ele>
        <time>2019-02-17T13:29:13.000Z</time>
      </trkpt>
      <trkpt lat="43.21228" lon="0.90859">
        <ele>488</ele>
        <time>2019-02-17T13:29:15.000Z</time>
      </trkpt>
      <trkpt lat="43.21229" lon="0.90857">
        <ele>488</ele>
        <time>2019-02-17T13:29:17.000Z</time>
      </trkpt>
      <trkpt lat="43.2123" lon="0.90855">
        <ele>488</ele>
        <time>2019-02-17T13:29:19.000Z</time>
      </trkpt>
      <trkpt lat="43.21231" lon="0.90853">
        <ele>488</ele>
        <time>2019-02-17T13:29:21.000Z</time>
      </trkpt>
      <trkpt lat="43.21232" lon="0.90851">
        <ele>488</ele>
        <time>2019-02-17T13:29:23.000Z</time>
      </trkpt>
      <trkpt lat="43.21233" lon="0.90849">
        <ele>489</ele>
        <time>2019-02-17T13:29:25.000Z</time>
      </trkpt>
      <trkpt lat="43.21234" lon="0.90846">
        <ele>489</ele>
        <time>2019-02-17T13:29:27.000Z</time>
      </trkpt>
      <trkpt lat="43.21235" lon="0.90845">
        <ele>489</ele>
        <time>2019-02-17T13:29:29.000Z</time>
      </trkpt>
      <trkpt lat="43.21236" lon="0.90842">
        <ele>489</ele>
        <time>2019-02-17T13:29:31.000Z</time>
      </trkpt>
      <trkpt lat="43.21237" lon="0.90839">
        <ele>489</ele>
        <time>2019-02-17T13:29:33.000Z</time>
      </trkpt>
      <trkpt lat="43.21238" lon="0.90837">
        <ele>489</ele>
        <time>2019-02-17T13:29:35.000Z</time>
      </trkpt>
      <trkpt lat="43.21239" lon="0.90835">
        <ele>489</ele>
        <time>2019-02-17T13:29:37.000Z</time>
      </trkpt>
      <trkpt lat="43.2124" lon="0.90833">
        <ele>490</ele>
        <time>2019-02-17T13:29:39.000Z</time>
      </trkpt>
      <trkpt lat="43.21241" lon="0.90831">
        <ele>490</ele>
        <time>2019-02-17T13:29:41.000Z</time>
      </trkpt>
      <trkpt lat="43.21242" lon="0.9083">
        <ele>490</ele>
        <time>2019-02-17T13:29:43.000Z</time>
      </trkpt>
      <trkpt lat="43.21243" lon="0.90828">
        <ele>490</ele>
        <time>2019-02-17T13:29:45.000Z</time>
      </trkpt>
      <trkpt lat="43.21244" lon="0.90826">
        <ele>490</ele>
        <time>2019-02-17T13:29:47.000Z</time>
      </trkpt>
      <trkpt lat="43.21245" lon="0.90825">
        <ele>490</ele>
        <time>2019-02-17T13:29:49.000Z</time>
      </trkpt>
      <trkpt lat="43.21246" lon="0.90823">
        <ele>490</ele>
        <time>2019-02-17T13:29:51.000Z</time>
      </trkpt>
      <trkpt lat="43.21247" lon="0.90821">
        <ele>490</ele>
        <time>2019-02-17T13:29:53.000Z</time>
      </trkpt>
      <trkpt lat="43.21248" lon="0.90819">
        <ele>490</ele>
        <time>2019-02-17T13:29:55.000Z</time>
      </trkpt>
      <trkpt lat="43.21248" lon="0.90818">
        <ele>491</ele>
        <time>2019-02-17T13:29:57.000Z</time>
      </trkpt>
      <trkpt lat="43.21249" lon="0.90816">
        <ele>491</ele>
        <time>2019-02-17T13:29:59.000Z</time>
      </trkpt>
      <trkpt lat="43.2125" lon="0.90814">
        <ele>491</ele>
        <time>2019-02-17T13:30:01.000Z</time>
      </trkpt>
      <trkpt lat="43.21251" lon="0.90812">
        <ele>491</ele>
        <time>2019-02-17T13:30:03.000Z</time>
      </trkpt>
      <trkpt lat="43.21252" lon="0.9081">
        <ele>491</ele>
        <time>2019-02-17T13:30:05.000Z</time>
      </trkpt>
      <trkpt lat="43.21253" lon="0.90808">
        <ele>491</ele>
        <time>2019-02-17T13:30:07.000Z</time>
      </trkpt>
      <trkpt lat="43.21255" lon="0.90807">
        <ele>491</ele>
        <time>2019-02-17T13:30:09.000Z</time>
      </trkpt>
      <trkpt lat="43.21256" lon="0.90804">
        <ele>491</ele>
        <time>2019-02-17T13:30:11.000Z</time>
      </trkpt>
      <trkpt lat="43.21257" lon="0.90804">
        <ele>491</ele>
        <time>2019-02-17T13:30:13.000Z</time>
      </trkpt>
      <trkpt lat="43.21258" lon="0.90801">
        <ele>491</ele>
        <time>2019-02-17T13:30:15.000Z</time>
      </trkpt>
      <trkpt lat="43.2126" lon="0.908">
        <ele>492</ele>
        <time>2019-02-17T13:30:17.000Z</time>
      </trkpt>
      <trkpt lat="43.21261" lon="0.90797">
        <ele>492</ele>
        <time>2019-02-17T13:30:19.000Z</time>
      </trkpt>
      <trkpt lat="43.21262" lon="0.90796">
        <ele>492</ele>
        <time>2019-02-17T13:30:21.000Z</time>
      </trkpt>
      <trkpt lat="43.21263" lon="0.90794">
        <ele>492</ele>
        <time>2019-02-17T13:30:23.000Z</time>
      </trkpt>
      <trkpt lat="43.21264" lon="0.90792">
        <ele>492</ele>
        <time>2019-02-17T13:30:25.000Z</time>
      </trkpt>
      <trkpt lat="43.21264" lon="0.9079">
        <ele>492</ele>
        <time>2019-02-17T13:30:27.000Z</time>
      </trkpt>
      <trkpt lat="43.21266" lon="0.90788">
        <ele>492</ele>
        <time>2019-02-17T13:30:29.000Z</time>
      </trkpt>
      <trkpt lat="43.21267" lon="0.90786">
        <ele>491</ele>
        <time>2019-02-17T13:30:31.000Z</time>
      </trkpt>
      <trkpt lat="43.21268" lon="0.90784">
        <ele>491</ele>
        <time>2019-02-17T13:30:33.000Z</time>
      </trkpt>
      <trkpt lat="43.21269" lon="0.90782">
        <ele>491</ele>
        <time>2019-02-17T13:30:35.000Z</time>
      </trkpt>
      <trkpt lat="43.2127" lon="0.9078">
        <ele>491</ele>
        <time>2019-02-17T13:30:37.000Z</time>
      </trkpt>
      <trkpt lat="43.21271" lon="0.90778">
        <ele>491</ele>
        <time>2019-02-17T13:30:39.000Z</time>
      </trkpt>
      <trkpt lat="43.21273" lon="0.90776">
        <ele>491</ele>
        <time>2019-02-17T13:30:41.000Z</time>
      </trkpt>
      <trkpt lat="43.21274" lon="0.90774">
        <ele>491</ele>
        <time>2019-02-17T13:30:43.000Z</time>
      </trkpt>
      <trkpt lat="43.21275" lon="0.90772">
        <ele>491</ele>
        <time>2019-02-17T13:30:45.000Z</time>
      </trkpt>
      <trkpt lat="43.21276" lon="0.90769">
        <ele>491</ele>
        <time>2019-02-17T13:30:47.000Z</time>
      </trkpt>
      <trkpt lat="43.21277" lon="0.90767">
        <ele>491</ele>
        <time>2019-02-17T13:30:49.000Z</time>
      </trkpt>
      <trkpt lat="43.21278" lon="0.90764">
        <ele>491</ele>
        <time>2019-02-17T13:30:51.000Z</time>
      </trkpt>
      <trkpt lat="43.21279" lon="0.90762">
        <ele>490</ele>
        <time>2019-02-17T13:30:53.000Z</time>
      </trkpt>
      <trkpt lat="43.2128" lon="0.9076">
        <ele>490</ele>
        <time>2019-02-17T13:30:55.000Z</time>
      </trkpt>
      <trkpt lat="43.21281" lon="0.90758">
        <ele>490</ele>
        <time>2019-02-17T13:30:57.000Z</time>
      </trkpt>
      <trkpt lat="43.21282" lon="0.90756">
        <ele>490</ele>
        <time>2019-02-17T13:30:59.000Z</time>
      </trkpt>
      <trkpt lat="43.21282" lon="0.90754">
        <ele>490</ele>
        <time>2019-02-17T13:31:01.000Z</time>
      </trkpt>
      <trkpt lat="43.21283" lon="0.90751">
        <ele>490</ele>
        <time>2019-02-17T13:31:03.000Z</time>
      </trkpt>
      <trkpt lat="43.21283" lon="0.90749">
        <ele>490</ele>
        <time>2019-02-17T13:31:05.000Z</time>
      </trkpt>
      <trkpt lat="43.21283" lon="0.90746">
        <ele>490</ele>
        <time>2019-02-17T13:31:07.000Z</time>
      </trkpt>
      <trkpt lat="43.21283" lon="0.90744">
        <ele>490</ele>
        <time>2019-02-17T13:31:09.000Z</time>
      </trkpt>
      <trkpt lat="43.21283" lon="0.90743">
        <ele>490</ele>
        <time>2019-02-17T13:31:11.000Z</time>
      </trkpt>
      <trkpt lat="43.21283" lon="0.90742">
        <ele>490</ele>
        <time>2019-02-17T13:31:13.000Z</time>
      </trkpt>
      <trkpt lat="43.21283" lon="0.90742">
        <ele>490</ele>
        <time>2019-02-17T13:31:15.000Z</time>
      </trkpt>
      <trkpt lat="43.21283" lon="0.90739">
        <ele>490</ele>
        <time>2019-02-17T13:31:17.000Z</time>
      </trkpt>
      <trkpt lat="43.21283" lon="0.90737">
        <ele>490</ele>
        <time>2019-02-17T13:31:19.000Z</time>
      </trkpt>
      <trkpt lat="43.21283" lon="0.90733">
        <ele>490</ele>
        <time>2019-02-17T13:31:21.000Z</time>
      </trkpt>
      <trkpt lat="43.21284" lon="0.9073">
        <ele>490</ele>
        <time>2019-02-17T13:31:23.000Z</time>
      </trkpt>
      <trkpt lat="43.21284" lon="0.90728">
        <ele>490</ele>
        <time>2019-02-17T13:31:25.000Z</time>
      </trkpt>
      <trkpt lat="43.21284" lon="0.90726">
        <ele>490</ele>
        <time>2019-02-17T13:31:27.000Z</time>
      </trkpt>
      <trkpt lat="43.21284" lon="0.90723">
        <ele>490</ele>
        <time>2019-02-17T13:31:29.000Z</time>
      </trkpt>
      <trkpt lat="43.21284" lon="0.90721">
        <ele>490</ele>
        <time>2019-02-17T13:31:31.000Z</time>
      </trkpt>
      <trkpt lat="43.21284" lon="0.90718">
        <ele>490</ele>
        <time>2019-02-17T13:31:33.000Z</time>
      </trkpt>
      <trkpt lat="43.21285" lon="0.90716">
        <ele>490</ele>
        <time>2019-02-17T13:31:35.000Z</time>
      </trkpt>
      <trkpt lat="43.21285" lon="0.90714">
        <ele>490</ele>
        <time>2019-02-17T13:31:37.000Z</time>
      </trkpt>
      <trkpt lat="43.21285" lon="0.90712">
        <ele>490</ele>
        <time>2019-02-17T13:31:39.000Z</time>
      </trkpt>
      <trkpt lat="43.21286" lon="0.90709">
        <ele>489</ele>
        <time>2019-02-17T13:31:41.000Z</time>
      </trkpt>
      <trkpt lat="43.21286" lon="0.90706">
        <ele>489</ele>
        <time>2019-02-17T13:31:43.000Z</time>
      </trkpt>
      <trkpt lat="43.21286" lon="0.90704">
        <ele>489</ele>
        <time>2019-02-17T13:31:45.000Z</time>
      </trkpt>
      <trkpt lat="43.21286" lon="0.90701">
        <ele>489</ele>
        <time>2019-02-17T13:31:47.000Z</time>
      </trkpt>
      <trkpt lat="43.21286" lon="0.90699">
        <ele>489</ele>
        <time>2019-02-17T13:31:49.000Z</time>
      </trkpt>
      <trkpt lat="43.21287" lon="0.90697">
        <ele>489</ele>
        <time>2019-02-17T13:31:51.000Z</time>
      </trkpt>
      <trkpt lat="43.21287" lon="0.90695">
        <ele>489</ele>
        <time>2019-02-17T13:31:53.000Z</time>
      </trkpt>
      <trkpt lat="43.21287" lon="0.90692">
        <ele>489</ele>
        <time>2019-02-17T13:31:55.000Z</time>
      </trkpt>
      <trkpt lat="43.21287" lon="0.90689">
        <ele>488</ele>
        <time>2019-02-17T13:31:57.000Z</time>
      </trkpt>
      <trkpt lat="43.21286" lon="0.90686">
        <ele>488</ele>
        <time>2019-02-17T13:31:59.000Z</time>
      </trkpt>
      <trkpt lat="43.21287" lon="0.90685">
        <ele>488</ele>
        <time>2019-02-17T13:32:01.000Z</time>
      </trkpt>
      <trkpt lat="43.21287" lon="0.90682">
        <ele>488</ele>
        <time>2019-02-17T13:32:03.000Z</time>
      </trkpt>
      <trkpt lat="43.21288" lon="0.9068">
        <ele>488</ele>
        <time>2019-02-17T13:32:05.000Z</time>
      </trkpt>
      <trkpt lat="43.21288" lon="0.90676">
        <ele>488</ele>
        <time>2019-02-17T13:32:07.000Z</time>
      </trkpt>
      <trkpt lat="43.21288" lon="0.90674">
        <ele>488</ele>
        <time>2019-02-17T13:32:09.000Z</time>
      </trkpt>
      <trkpt lat="43.21287" lon="0.90671">
        <ele>488</ele>
        <time>2019-02-17T13:32:11.000Z</time>
      </trkpt>
      <trkpt lat="43.21287" lon="0.90669">
        <ele>487</ele>
        <time>2019-02-17T13:32:13.000Z</time>
      </trkpt>
      <trkpt lat="43.21288" lon="0.90666">
        <ele>487</ele>
        <time>2019-02-17T13:32:15.000Z</time>
      </trkpt>
      <trkpt lat="43.21288" lon="0.90664">
        <ele>487</ele>
        <time>2019-02-17T13:32:17.000Z</time>
      </trkpt>
      <trkpt lat="43.21288" lon="0.90661">
        <ele>487</ele>
        <time>2019-02-17T13:32:19.000Z</time>
      </trkpt>
      <trkpt lat="43.21289" lon="0.90658">
        <ele>487</ele>
        <time>2019-02-17T13:32:21.000Z</time>
      </trkpt>
      <trkpt lat="43.21289" lon="0.90656">
        <ele>487</ele>
        <time>2019-02-17T13:32:23.000Z</time>
      </trkpt>
      <trkpt lat="43.21289" lon="0.90653">
        <ele>487</ele>
        <time>2019-02-17T13:32:25.000Z</time>
      </trkpt>
      <trkpt lat="43.2129" lon="0.90651">
        <ele>487</ele>
        <time>2019-02-17T13:32:27.000Z</time>
      </trkpt>
      <trkpt lat="43.21289" lon="0.90648">
        <ele>487</ele>
        <time>2019-02-17T13:32:29.000Z</time>
      </trkpt>
      <trkpt lat="43.21289" lon="0.90645">
        <ele>487</ele>
        <time>2019-02-17T13:32:31.000Z</time>
      </trkpt>
      <trkpt lat="43.21289" lon="0.90642">
        <ele>487</ele>
        <time>2019-02-17T13:32:33.000Z</time>
      </trkpt>
      <trkpt lat="43.21289" lon="0.90639">
        <ele>487</ele>
        <time>2019-02-17T13:32:35.000Z</time>
      </trkpt>
      <trkpt lat="43.21289" lon="0.90636">
        <ele>487</ele>
        <time>2019-02-17T13:32:37.000Z</time>
      </trkpt>
      <trkpt lat="43.21289" lon="0.90633">
        <ele>487</ele>
        <time>2019-02-17T13:32:39.000Z</time>
      </trkpt>
      <trkpt lat="43.2129" lon="0.9063">
        <ele>486</ele>
        <time>2019-02-17T13:32:41.000Z</time>
      </trkpt>
      <trkpt lat="43.2129" lon="0.90628">
        <ele>486</ele>
        <time>2019-02-17T13:32:43.000Z</time>
      </trkpt>
      <trkpt lat="43.2129" lon="0.90624">
        <ele>486</ele>
        <time>2019-02-17T13:32:45.000Z</time>
      </trkpt>
      <trkpt lat="43.2129" lon="0.90622">
        <ele>486</ele>
        <time>2019-02-17T13:32:47.000Z</time>
      </trkpt>
      <trkpt lat="43.2129" lon="0.9062">
        <ele>486</ele>
        <time>2019-02-17T13:32:49.000Z</time>
      </trkpt>
      <trkpt lat="43.2129" lon="0.90617">
        <ele>486</ele>
        <time>2019-02-17T13:32:51.000Z</time>
      </trkpt>
      <trkpt lat="43.21289" lon="0.90615">
        <ele>486</ele>
        <time>2019-02-17T13:32:53.000Z</time>
      </trkpt>
      <trkpt lat="43.21289" lon="0.90613">
        <ele>486</ele>
        <time>2019-02-17T13:32:55.000Z</time>
      </trkpt>
      <trkpt lat="43.2129" lon="0.90611">
        <ele>486</ele>
        <time>2019-02-17T13:32:57.000Z</time>
      </trkpt>
      <trkpt lat="43.2129" lon="0.9061">
        <ele>486</ele>
        <time>2019-02-17T13:32:59.000Z</time>
      </trkpt>
      <trkpt lat="43.2129" lon="0.90608">
        <ele>486</ele>
        <time>2019-02-17T13:33:01.000Z</time>
      </trkpt>
      <trkpt lat="43.2129" lon="0.90606">
        <ele>486</ele>
        <time>2019-02-17T13:33:03.000Z</time>
      </trkpt>
      <trkpt lat="43.21289" lon="0.90603">
        <ele>486</ele>
        <time>2019-02-17T13:33:05.000Z</time>
      </trkpt>
      <trkpt lat="43.2129" lon="0.906">
        <ele>486</ele>
        <time>2019-02-17T13:33:07.000Z</time>
      </trkpt>
      <trkpt lat="43.2129" lon="0.90598">
        <ele>486</ele>
        <time>2019-02-17T13:33:09.000Z</time>
      </trkpt>
      <trkpt lat="43.21289" lon="0.90595">
        <ele>486</ele>
        <time>2019-02-17T13:33:11.000Z</time>
      </trkpt>
      <trkpt lat="43.2129" lon="0.90592">
        <ele>486</ele>
        <time>2019-02-17T13:33:13.000Z</time>
      </trkpt>
      <trkpt lat="43.2129" lon="0.9059">
        <ele>485</ele>
        <time>2019-02-17T13:33:15.000Z</time>
      </trkpt>
      <trkpt lat="43.2129" lon="0.90587">
        <ele>485</ele>
        <time>2019-02-17T13:33:17.000Z</time>
      </trkpt>
      <trkpt lat="43.2129" lon="0.90585">
        <ele>485</ele>
        <time>2019-02-17T13:33:19.000Z</time>
      </trkpt>
      <trkpt lat="43.2129" lon="0.90582">
        <ele>485</ele>
        <time>2019-02-17T13:33:21.000Z</time>
      </trkpt>
      <trkpt lat="43.2129" lon="0.90579">
        <ele>485</ele>
        <time>2019-02-17T13:33:23.000Z</time>
      </trkpt>
      <trkpt lat="43.2129" lon="0.90577">
        <ele>485</ele>
        <time>2019-02-17T13:33:25.000Z</time>
      </trkpt>
      <trkpt lat="43.2129" lon="0.90574">
        <ele>485</ele>
        <time>2019-02-17T13:33:27.000Z</time>
      </trkpt>
      <trkpt lat="43.21289" lon="0.90572">
        <ele>485</ele>
        <time>2019-02-17T13:33:29.000Z</time>
      </trkpt>
      <trkpt lat="43.2129" lon="0.9057">
        <ele>485</ele>
        <time>2019-02-17T13:33:31.000Z</time>
      </trkpt>
      <trkpt lat="43.2129" lon="0.90568">
        <ele>485</ele>
        <time>2019-02-17T13:33:33.000Z</time>
      </trkpt>
      <trkpt lat="43.2129" lon="0.90567">
        <ele>485</ele>
        <time>2019-02-17T13:33:35.000Z</time>
      </trkpt>
      <trkpt lat="43.21291" lon="0.90567">
        <ele>485</ele>
        <time>2019-02-17T13:33:37.000Z</time>
      </trkpt>
      <trkpt lat="43.21291" lon="0.90566">
        <ele>485</ele>
        <time>2019-02-17T13:33:39.000Z</time>
      </trkpt>
      <trkpt lat="43.21291" lon="0.90565">
        <ele>485</ele>
        <time>2019-02-17T13:33:41.000Z</time>
      </trkpt>
      <trkpt lat="43.21291" lon="0.90563">
        <ele>485</ele>
        <time>2019-02-17T13:33:43.000Z</time>
      </trkpt>
      <trkpt lat="43.21291" lon="0.9056">
        <ele>485</ele>
        <time>2019-02-17T13:33:45.000Z</time>
      </trkpt>
      <trkpt lat="43.21291" lon="0.90558">
        <ele>485</ele>
        <time>2019-02-17T13:33:47.000Z</time>
      </trkpt>
      <trkpt lat="43.21292" lon="0.90555">
        <ele>485</ele>
        <time>2019-02-17T13:33:49.000Z</time>
      </trkpt>
      <trkpt lat="43.21291" lon="0.90552">
        <ele>485</ele>
        <time>2019-02-17T13:33:51.000Z</time>
      </trkpt>
      <trkpt lat="43.21292" lon="0.90549">
        <ele>485</ele>
        <time>2019-02-17T13:33:53.000Z</time>
      </trkpt>
      <trkpt lat="43.21292" lon="0.90547">
        <ele>485</ele>
        <time>2019-02-17T13:33:55.000Z</time>
      </trkpt>
      <trkpt lat="43.21292" lon="0.90544">
        <ele>485</ele>
        <time>2019-02-17T13:33:57.000Z</time>
      </trkpt>
      <trkpt lat="43.21293" lon="0.90542">
        <ele>485</ele>
        <time>2019-02-17T13:33:59.000Z</time>
      </trkpt>
      <trkpt lat="43.21293" lon="0.90539">
        <ele>485</ele>
        <time>2019-02-17T13:34:01.000Z</time>
      </trkpt>
      <trkpt lat="43.21293" lon="0.90536">
        <ele>485</ele>
        <time>2019-02-17T13:34:03.000Z</time>
      </trkpt>
      <trkpt lat="43.21293" lon="0.90534">
        <ele>485</ele>
        <time>2019-02-17T13:34:05.000Z</time>
      </trkpt>
      <trkpt lat="43.21293" lon="0.90532">
        <ele>485</ele>
        <time>2019-02-17T13:34:07.000Z</time>
      </trkpt>
      <trkpt lat="43.21293" lon="0.9053">
        <ele>485</ele>
        <time>2019-02-17T13:34:09.000Z</time>
      </trkpt>
      <trkpt lat="43.21294" lon="0.90527">
        <ele>485</ele>
        <time>2019-02-17T13:34:11.000Z</time>
      </trkpt>
      <trkpt lat="43.21293" lon="0.90525">
        <ele>485</ele>
        <time>2019-02-17T13:34:13.000Z</time>
      </trkpt>
      <trkpt lat="43.21293" lon="0.90522">
        <ele>485</ele>
        <time>2019-02-17T13:34:15.000Z</time>
      </trkpt>
      <trkpt lat="43.21294" lon="0.9052">
        <ele>485</ele>
        <time>2019-02-17T13:34:17.000Z</time>
      </trkpt>
      <trkpt lat="43.21294" lon="0.90517">
        <ele>485</ele>
        <time>2019-02-17T13:34:19.000Z</time>
      </trkpt>
      <trkpt lat="43.21294" lon="0.90515">
        <ele>485</ele>
        <time>2019-02-17T13:34:21.000Z</time>
      </trkpt>
      <trkpt lat="43.21294" lon="0.90513">
        <ele>485</ele>
        <time>2019-02-17T13:34:23.000Z</time>
      </trkpt>
      <trkpt lat="43.21294" lon="0.90511">
        <ele>485</ele>
        <time>2019-02-17T13:34:25.000Z</time>
      </trkpt>
      <trkpt lat="43.21293" lon="0.90508">
        <ele>485</ele>
        <time>2019-02-17T13:34:27.000Z</time>
      </trkpt>
      <trkpt lat="43.21293" lon="0.90506">
        <ele>485</ele>
        <time>2019-02-17T13:34:29.000Z</time>
      </trkpt>
      <trkpt lat="43.21293" lon="0.90503">
        <ele>485</ele>
        <time>2019-02-17T13:34:31.000Z</time>
      </trkpt>
      <trkpt lat="43.21293" lon="0.905">
        <ele>485</ele>
        <time>2019-02-17T13:34:33.000Z</time>
      </trkpt>
      <trkpt lat="43.21294" lon="0.90498">
        <ele>485</ele>
        <time>2019-02-17T13:34:35.000Z</time>
      </trkpt>
      <trkpt lat="43.21294" lon="0.90495">
        <ele>484</ele>
        <time>2019-02-17T13:34:37.000Z</time>
      </trkpt>
      <trkpt lat="43.21295" lon="0.90493">
        <ele>484</ele>
        <time>2019-02-17T13:34:39.000Z</time>
      </trkpt>
      <trkpt lat="43.21296" lon="0.90492">
        <ele>484</ele>
        <time>2019-02-17T13:34:41.000Z</time>
      </trkpt>
      <trkpt lat="43.21296" lon="0.9049">
        <ele>484</ele>
        <time>2019-02-17T13:34:43.000Z</time>
      </trkpt>
      <trkpt lat="43.21297" lon="0.9049">
        <ele>484</ele>
        <time>2019-02-17T13:34:45.000Z</time>
      </trkpt>
      <trkpt lat="43.21297" lon="0.90489">
        <ele>484</ele>
        <time>2019-02-17T13:34:47.000Z</time>
      </trkpt>
      <trkpt lat="43.21297" lon="0.90488">
        <ele>484</ele>
        <time>2019-02-17T13:34:49.000Z</time>
      </trkpt>
      <trkpt lat="43.21298" lon="0.90486">
        <ele>484</ele>
        <time>2019-02-17T13:34:51.000Z</time>
      </trkpt>
      <trkpt lat="43.21297" lon="0.90486">
        <ele>484</ele>
        <time>2019-02-17T13:34:53.000Z</time>
      </trkpt>
      <trkpt lat="43.21297" lon="0.90485">
        <ele>484</ele>
        <time>2019-02-17T13:34:55.000Z</time>
      </trkpt>
      <trkpt lat="43.21296" lon="0.90485">
        <ele>484</ele>
        <time>2019-02-17T13:34:57.000Z</time>
      </trkpt>
      <trkpt lat="43.21296" lon="0.90485">
        <ele>484</ele>
        <time>2019-02-17T13:34:59.000Z</time>
      </trkpt>
      <trkpt lat="43.21296" lon="0.90485">
        <ele>484</ele>
        <time>2019-02-17T13:35:01.000Z</time>
      </trkpt>
      <trkpt lat="43.21298" lon="0.90486">
        <ele>484</ele>
        <time>2019-02-17T13:35:03.000Z</time>
      </trkpt>
      <trkpt lat="43.21298" lon="0.90485">
        <ele>484</ele>
        <time>2019-02-17T13:35:05.000Z</time>
      </trkpt>
      <trkpt lat="43.21297" lon="0.90484">
        <ele>484</ele>
        <time>2019-02-17T13:35:07.000Z</time>
      </trkpt>
      <trkpt lat="43.21297" lon="0.90483">
        <ele>484</ele>
        <time>2019-02-17T13:35:09.000Z</time>
      </trkpt>
      <trkpt lat="43.21297" lon="0.90483">
        <ele>484</ele>
        <time>2019-02-17T13:35:11.000Z</time>
      </trkpt>
      <trkpt lat="43.21297" lon="0.90482">
        <ele>484</ele>
        <time>2019-02-17T13:35:13.000Z</time>
      </trkpt>
      <trkpt lat="43.21298" lon="0.90482">
        <ele>484</ele>
        <time>2019-02-17T13:35:15.000Z</time>
      </trkpt>
      <trkpt lat="43.21298" lon="0.90481">
        <ele>484</ele>
        <time>2019-02-17T13:35:17.000Z</time>
      </trkpt>
      <trkpt lat="43.21298" lon="0.90481">
        <ele>484</ele>
        <time>2019-02-17T13:35:19.000Z</time>
      </trkpt>
      <trkpt lat="43.21297" lon="0.9048">
        <ele>484</ele>
        <time>2019-02-17T13:35:21.000Z</time>
      </trkpt>
      <trkpt lat="43.21296" lon="0.90481">
        <ele>484</ele>
        <time>2019-02-17T13:35:23.000Z</time>
      </trkpt>
      <trkpt lat="43.21296" lon="0.90481">
        <ele>484</ele>
        <time>2019-02-17T13:35:25.000Z</time>
      </trkpt>
      <trkpt lat="43.21297" lon="0.9048">
        <ele>484</ele>
        <time>2019-02-17T13:35:27.000Z</time>
      </trkpt>
      <trkpt lat="43.21298" lon="0.90478">
        <ele>484</ele>
        <time>2019-02-17T13:35:29.000Z</time>
      </trkpt>
      <trkpt lat="43.21298" lon="0.90477">
        <ele>484</ele>
        <time>2019-02-17T13:35:31.000Z</time>
      </trkpt>
      <trkpt lat="43.21298" lon="0.90477">
        <ele>484</ele>
        <time>2019-02-17T13:35:33.000Z</time>
      </trkpt>
      <trkpt lat="43.21298" lon="0.90476">
        <ele>484</ele>
        <time>2019-02-17T13:35:35.000Z</time>
      </trkpt>
      <trkpt lat="43.21299" lon="0.90476">
        <ele>484</ele>
        <time>2019-02-17T13:35:37.000Z</time>
      </trkpt>
      <trkpt lat="43.21299" lon="0.90474">
        <ele>484</ele>
        <time>2019-02-17T13:35:39.000Z</time>
      </trkpt>
      <trkpt lat="43.21299" lon="0.90474">
        <ele>484</ele>
        <time>2019-02-17T13:35:41.000Z</time>
      </trkpt>
      <trkpt lat="43.21299" lon="0.90474">
        <ele>484</ele>
        <time>2019-02-17T13:35:43.000Z</time>
      </trkpt>
      <trkpt lat="43.21299" lon="0.90474">
        <ele>484</ele>
        <time>2019-02-17T13:35:45.000Z</time>
      </trkpt>
      <trkpt lat="43.21299" lon="0.90473">
        <ele>484</ele>
        <time>2019-02-17T13:35:47.000Z</time>
      </trkpt>
      <trkpt lat="43.21298" lon="0.90474">
        <ele>484</ele>
        <time>2019-02-17T13:35:49.000Z</time>
      </trkpt>
      <trkpt lat="43.21297" lon="0.90473">
        <ele>484</ele>
        <time>2019-02-17T13:35:51.000Z</time>
      </trkpt>
      <trkpt lat="43.21297" lon="0.90472">
        <ele>484</ele>
        <time>2019-02-17T13:35:53.000Z</time>
      </trkpt>
      <trkpt lat="43.21297" lon="0.90472">
        <ele>484</ele>
        <time>2019-02-17T13:35:55.000Z</time>
      </trkpt>
      <trkpt lat="43.21296" lon="0.90471">
        <ele>484</ele>
        <time>2019-02-17T13:35:57.000Z</time>
      </trkpt>
      <trkpt lat="43.21296" lon="0.90471">
        <ele>484</ele>
        <time>2019-02-17T13:35:59.000Z</time>
      </trkpt>
      <trkpt lat="43.21295" lon="0.90469">
        <ele>484</ele>
        <time>2019-02-17T13:36:01.000Z</time>
      </trkpt>
      <trkpt lat="43.21296" lon="0.90467">
        <ele>484</ele>
        <time>2019-02-17T13:36:03.000Z</time>
      </trkpt>
      <trkpt lat="43.21297" lon="0.90466">
        <ele>485</ele>
        <time>2019-02-17T13:36:05.000Z</time>
      </trkpt>
      <trkpt lat="43.21296" lon="0.90464">
        <ele>485</ele>
        <time>2019-02-17T13:36:07.000Z</time>
      </trkpt>
      <trkpt lat="43.21296" lon="0.90461">
        <ele>485</ele>
        <time>2019-02-17T13:36:09.000Z</time>
      </trkpt>
      <trkpt lat="43.21295" lon="0.90459">
        <ele>485</ele>
        <time>2019-02-17T13:36:11.000Z</time>
      </trkpt>
      <trkpt lat="43.21295" lon="0.90457">
        <ele>485</ele>
        <time>2019-02-17T13:36:13.000Z</time>
      </trkpt>
      <trkpt lat="43.21297" lon="0.90455">
        <ele>485</ele>
        <time>2019-02-17T13:36:15.000Z</time>
      </trkpt>
      <trkpt lat="43.21297" lon="0.90453">
        <ele>485</ele>
        <time>2019-02-17T13:36:17.000Z</time>
      </trkpt>
      <trkpt lat="43.21297" lon="0.9045">
        <ele>485</ele>
        <time>2019-02-17T13:36:19.000Z</time>
      </trkpt>
      <trkpt lat="43.21297" lon="0.90448">
        <ele>485</ele>
        <time>2019-02-17T13:36:21.000Z</time>
      </trkpt>
      <trkpt lat="43.21297" lon="0.90446">
        <ele>485</ele>
        <time>2019-02-17T13:36:23.000Z</time>
      </trkpt>
      <trkpt lat="43.21298" lon="0.90444">
        <ele>486</ele>
        <time>2019-02-17T13:36:25.000Z</time>
      </trkpt>
      <trkpt lat="43.21298" lon="0.90441">
        <ele>486</ele>
        <time>2019-02-17T13:36:27.000Z</time>
      </trkpt>
      <trkpt lat="43.21299" lon="0.90439">
        <ele>486</ele>
        <time>2019-02-17T13:36:29.000Z</time>
      </trkpt>
      <trkpt lat="43.21299" lon="0.90438">
        <ele>486</ele>
        <time>2019-02-17T13:36:31.000Z</time>
      </trkpt>
      <trkpt lat="43.21299" lon="0.90436">
        <ele>486</ele>
        <time>2019-02-17T13:36:33.000Z</time>
      </trkpt>
      <trkpt lat="43.213" lon="0.90436">
        <ele>486</ele>
        <time>2019-02-17T13:36:35.000Z</time>
      </trkpt>
      <trkpt lat="43.21301" lon="0.90434">
        <ele>486</ele>
        <time>2019-02-17T13:36:38.000Z</time>
      </trkpt>
      <trkpt lat="43.21301" lon="0.90434">
        <ele>486</ele>
        <time>2019-02-17T13:36:40.000Z</time>
      </trkpt>
      <trkpt lat="43.21301" lon="0.90434">
        <ele>486</ele>
        <time>2019-02-17T13:36:42.000Z</time>
      </trkpt>
      <trkpt lat="43.21301" lon="0.90435">
        <ele>486</ele>
        <time>2019-02-17T13:36:44.000Z</time>
      </trkpt>
      <trkpt lat="43.21302" lon="0.90435">
        <ele>486</ele>
        <time>2019-02-17T13:36:46.000Z</time>
      </trkpt>
      <trkpt lat="43.21303" lon="0.90435">
        <ele>486</ele>
        <time>2019-02-17T13:36:48.000Z</time>
      </trkpt>
      <trkpt lat="43.21303" lon="0.90436">
        <ele>486</ele>
        <time>2019-02-17T13:36:50.000Z</time>
      </trkpt>
      <trkpt lat="43.21304" lon="0.90435">
        <ele>486</ele>
        <time>2019-02-17T13:36:52.000Z</time>
      </trkpt>
      <trkpt lat="43.21305" lon="0.90436">
        <ele>486</ele>
        <time>2019-02-17T13:36:54.000Z</time>
      </trkpt>
      <trkpt lat="43.21306" lon="0.90436">
        <ele>486</ele>
        <time>2019-02-17T13:36:56.000Z</time>
      </trkpt>
      <trkpt lat="43.21307" lon="0.90435">
        <ele>486</ele>
        <time>2019-02-17T13:36:58.000Z</time>
      </trkpt>
      <trkpt lat="43.21308" lon="0.90434">
        <ele>486</ele>
        <time>2019-02-17T13:37:00.000Z</time>
      </trkpt>
      <trkpt lat="43.21309" lon="0.90432">
        <ele>486</ele>
        <time>2019-02-17T13:37:02.000Z</time>
      </trkpt>
      <trkpt lat="43.2131" lon="0.90432">
        <ele>486</ele>
        <time>2019-02-17T13:37:04.000Z</time>
      </trkpt>
      <trkpt lat="43.21311" lon="0.90431">
        <ele>486</ele>
        <time>2019-02-17T13:37:06.000Z</time>
      </trkpt>
      <trkpt lat="43.21312" lon="0.90429">
        <ele>486</ele>
        <time>2019-02-17T13:37:08.000Z</time>
      </trkpt>
      <trkpt lat="43.21313" lon="0.90427">
        <ele>487</ele>
        <time>2019-02-17T13:37:10.000Z</time>
      </trkpt>
      <trkpt lat="43.21315" lon="0.90426">
        <ele>487</ele>
        <time>2019-02-17T13:37:12.000Z</time>
      </trkpt>
      <trkpt lat="43.21316" lon="0.90424">
        <ele>487</ele>
        <time>2019-02-17T13:37:14.000Z</time>
      </trkpt>
      <trkpt lat="43.21317" lon="0.90423">
        <ele>487</ele>
        <time>2019-02-17T13:37:16.000Z</time>
      </trkpt>
      <trkpt lat="43.21318" lon="0.90422">
        <ele>487</ele>
        <time>2019-02-17T13:37:18.000Z</time>
      </trkpt>
      <trkpt lat="43.21319" lon="0.90421">
        <ele>487</ele>
        <time>2019-02-17T13:37:20.000Z</time>
      </trkpt>
      <trkpt lat="43.2132" lon="0.9042">
        <ele>487</ele>
        <time>2019-02-17T13:37:22.000Z</time>
      </trkpt>
      <trkpt lat="43.21321" lon="0.9042">
        <ele>488</ele>
        <time>2019-02-17T13:37:24.000Z</time>
      </trkpt>
      <trkpt lat="43.21321" lon="0.90419">
        <ele>488</ele>
        <time>2019-02-17T13:37:26.000Z</time>
      </trkpt>
      <trkpt lat="43.21322" lon="0.90419">
        <ele>488</ele>
        <time>2019-02-17T13:37:28.000Z</time>
      </trkpt>
      <trkpt lat="43.21322" lon="0.90419">
        <ele>488</ele>
        <time>2019-02-17T13:37:30.000Z</time>
      </trkpt>
      <trkpt lat="43.21323" lon="0.90418">
        <ele>488</ele>
        <time>2019-02-17T13:37:32.000Z</time>
      </trkpt>
      <trkpt lat="43.21324" lon="0.90418">
        <ele>488</ele>
        <time>2019-02-17T13:37:34.000Z</time>
      </trkpt>
      <trkpt lat="43.21325" lon="0.90418">
        <ele>488</ele>
        <time>2019-02-17T13:37:36.000Z</time>
      </trkpt>
      <trkpt lat="43.21326" lon="0.90417">
        <ele>488</ele>
        <time>2019-02-17T13:37:38.000Z</time>
      </trkpt>
      <trkpt lat="43.21327" lon="0.90415">
        <ele>488</ele>
        <time>2019-02-17T13:37:40.000Z</time>
      </trkpt>
      <trkpt lat="43.21329" lon="0.90415">
        <ele>488</ele>
        <time>2019-02-17T13:37:42.000Z</time>
      </trkpt>
      <trkpt lat="43.2133" lon="0.90414">
        <ele>488</ele>
        <time>2019-02-17T13:37:44.000Z</time>
      </trkpt>
      <trkpt lat="43.21331" lon="0.90412">
        <ele>489</ele>
        <time>2019-02-17T13:37:46.000Z</time>
      </trkpt>
      <trkpt lat="43.21334" lon="0.9041">
        <ele>489</ele>
        <time>2019-02-17T13:37:48.000Z</time>
      </trkpt>
      <trkpt lat="43.21336" lon="0.90409">
        <ele>489</ele>
        <time>2019-02-17T13:37:50.000Z</time>
      </trkpt>
      <trkpt lat="43.21338" lon="0.90408">
        <ele>489</ele>
        <time>2019-02-17T13:37:52.000Z</time>
      </trkpt>
      <trkpt lat="43.2134" lon="0.90407">
        <ele>489</ele>
        <time>2019-02-17T13:37:54.000Z</time>
      </trkpt>
      <trkpt lat="43.21341" lon="0.90406">
        <ele>489</ele>
        <time>2019-02-17T13:37:56.000Z</time>
      </trkpt>
      <trkpt lat="43.21343" lon="0.90404">
        <ele>490</ele>
        <time>2019-02-17T13:37:58.000Z</time>
      </trkpt>
      <trkpt lat="43.21345" lon="0.90403">
        <ele>490</ele>
        <time>2019-02-17T13:38:00.000Z</time>
      </trkpt>
      <trkpt lat="43.21346" lon="0.90402">
        <ele>490</ele>
        <time>2019-02-17T13:38:02.000Z</time>
      </trkpt>
      <trkpt lat="43.21347" lon="0.90401">
        <ele>489</ele>
        <time>2019-02-17T13:38:04.000Z</time>
      </trkpt>
      <trkpt lat="43.21348" lon="0.904">
        <ele>489</ele>
        <time>2019-02-17T13:38:06.000Z</time>
      </trkpt>
      <trkpt lat="43.2135" lon="0.90399">
        <ele>489</ele>
        <time>2019-02-17T13:38:08.000Z</time>
      </trkpt>
      <trkpt lat="43.21351" lon="0.90398">
        <ele>488</ele>
        <time>2019-02-17T13:38:10.000Z</time>
      </trkpt>
      <trkpt lat="43.21352" lon="0.90396">
        <ele>488</ele>
        <time>2019-02-17T13:38:12.000Z</time>
      </trkpt>
      <trkpt lat="43.21353" lon="0.90395">
        <ele>488</ele>
        <time>2019-02-17T13:38:14.000Z</time>
      </trkpt>
      <trkpt lat="43.21354" lon="0.90393">
        <ele>488</ele>
        <time>2019-02-17T13:38:16.000Z</time>
      </trkpt>
      <trkpt lat="43.21355" lon="0.90392">
        <ele>488</ele>
        <time>2019-02-17T13:38:18.000Z</time>
      </trkpt>
      <trkpt lat="43.21357" lon="0.90392">
        <ele>487</ele>
        <time>2019-02-17T13:38:20.000Z</time>
      </trkpt>
      <trkpt lat="43.21358" lon="0.90392">
        <ele>487</ele>
        <time>2019-02-17T13:38:22.000Z</time>
      </trkpt>
      <trkpt lat="43.2136" lon="0.90391">
        <ele>487</ele>
        <time>2019-02-17T13:38:24.000Z</time>
      </trkpt>
      <trkpt lat="43.21361" lon="0.90391">
        <ele>486</ele>
        <time>2019-02-17T13:38:26.000Z</time>
      </trkpt>
      <trkpt lat="43.21363" lon="0.90391">
        <ele>486</ele>
        <time>2019-02-17T13:38:28.000Z</time>
      </trkpt>
      <trkpt lat="43.21365" lon="0.9039">
        <ele>485</ele>
        <time>2019-02-17T13:38:30.000Z</time>
      </trkpt>
      <trkpt lat="43.21367" lon="0.9039">
        <ele>485</ele>
        <time>2019-02-17T13:38:32.000Z</time>
      </trkpt>
      <trkpt lat="43.21368" lon="0.90389">
        <ele>484</ele>
        <time>2019-02-17T13:38:34.000Z</time>
      </trkpt>
      <trkpt lat="43.2137" lon="0.90388">
        <ele>484</ele>
        <time>2019-02-17T13:38:36.000Z</time>
      </trkpt>
      <trkpt lat="43.21372" lon="0.90388">
        <ele>483</ele>
        <time>2019-02-17T13:38:38.000Z</time>
      </trkpt>
      <trkpt lat="43.21373" lon="0.90387">
        <ele>483</ele>
        <time>2019-02-17T13:38:40.000Z</time>
      </trkpt>
      <trkpt lat="43.21374" lon="0.90387">
        <ele>483</ele>
        <time>2019-02-17T13:38:42.000Z</time>
      </trkpt>
      <trkpt lat="43.21376" lon="0.90387">
        <ele>482</ele>
        <time>2019-02-17T13:38:44.000Z</time>
      </trkpt>
      <trkpt lat="43.21377" lon="0.90388">
        <ele>482</ele>
        <time>2019-02-17T13:38:46.000Z</time>
      </trkpt>
      <trkpt lat="43.21379" lon="0.90387">
        <ele>481</ele>
        <time>2019-02-17T13:38:48.000Z</time>
      </trkpt>
      <trkpt lat="43.21381" lon="0.90387">
        <ele>481</ele>
        <time>2019-02-17T13:38:50.000Z</time>
      </trkpt>
      <trkpt lat="43.21383" lon="0.90386">
        <ele>480</ele>
        <time>2019-02-17T13:38:52.000Z</time>
      </trkpt>
      <trkpt lat="43.21385" lon="0.90385">
        <ele>480</ele>
        <time>2019-02-17T13:38:54.000Z</time>
      </trkpt>
      <trkpt lat="43.21386" lon="0.90385">
        <ele>480</ele>
        <time>2019-02-17T13:38:56.000Z</time>
      </trkpt>
      <trkpt lat="43.21387" lon="0.90384">
        <ele>479</ele>
        <time>2019-02-17T13:38:58.000Z</time>
      </trkpt>
      <trkpt lat="43.21388" lon="0.90383">
        <ele>479</ele>
        <time>2019-02-17T13:39:00.000Z</time>
      </trkpt>
      <trkpt lat="43.21389" lon="0.90382">
        <ele>479</ele>
        <time>2019-02-17T13:39:02.000Z</time>
      </trkpt>
      <trkpt lat="43.2139" lon="0.90381">
        <ele>479</ele>
        <time>2019-02-17T13:39:04.000Z</time>
      </trkpt>
      <trkpt lat="43.21391" lon="0.90381">
        <ele>479</ele>
        <time>2019-02-17T13:39:06.000Z</time>
      </trkpt>
      <trkpt lat="43.21392" lon="0.9038">
        <ele>478</ele>
        <time>2019-02-17T13:39:08.000Z</time>
      </trkpt>
      <trkpt lat="43.21394" lon="0.90379">
        <ele>478</ele>
        <time>2019-02-17T13:39:10.000Z</time>
      </trkpt>
      <trkpt lat="43.21395" lon="0.90378">
        <ele>478</ele>
        <time>2019-02-17T13:39:12.000Z</time>
      </trkpt>
      <trkpt lat="43.21397" lon="0.90376">
        <ele>478</ele>
        <time>2019-02-17T13:39:14.000Z</time>
      </trkpt>
      <trkpt lat="43.21399" lon="0.90374">
        <ele>477</ele>
        <time>2019-02-17T13:39:16.000Z</time>
      </trkpt>
      <trkpt lat="43.21401" lon="0.90373">
        <ele>477</ele>
        <time>2019-02-17T13:39:18.000Z</time>
      </trkpt>
      <trkpt lat="43.21402" lon="0.90371">
        <ele>477</ele>
        <time>2019-02-17T13:39:20.000Z</time>
      </trkpt>
      <trkpt lat="43.21403" lon="0.90369">
        <ele>477</ele>
        <time>2019-02-17T13:39:22.000Z</time>
      </trkpt>
      <trkpt lat="43.21404" lon="0.90367">
        <ele>477</ele>
        <time>2019-02-17T13:39:24.000Z</time>
      </trkpt>
      <trkpt lat="43.21406" lon="0.90366">
        <ele>477</ele>
        <time>2019-02-17T13:39:26.000Z</time>
      </trkpt>
      <trkpt lat="43.21407" lon="0.90365">
        <ele>477</ele>
        <time>2019-02-17T13:39:28.000Z</time>
      </trkpt>
      <trkpt lat="43.21408" lon="0.90363">
        <ele>477</ele>
        <time>2019-02-17T13:39:30.000Z</time>
      </trkpt>
      <trkpt lat="43.21409" lon="0.90362">
        <ele>477</ele>
        <time>2019-02-17T13:39:32.000Z</time>
      </trkpt>
      <trkpt lat="43.2141" lon="0.9036">
        <ele>477</ele>
        <time>2019-02-17T13:39:34.000Z</time>
      </trkpt>
      <trkpt lat="43.21411" lon="0.90359">
        <ele>478</ele>
        <time>2019-02-17T13:39:36.000Z</time>
      </trkpt>
      <trkpt lat="43.21412" lon="0.90357">
        <ele>478</ele>
        <time>2019-02-17T13:39:38.000Z</time>
      </trkpt>
      <trkpt lat="43.21413" lon="0.90355">
        <ele>478</ele>
        <time>2019-02-17T13:39:40.000Z</time>
      </trkpt>
      <trkpt lat="43.21414" lon="0.90353">
        <ele>478</ele>
        <time>2019-02-17T13:39:42.000Z</time>
      </trkpt>
      <trkpt lat="43.21415" lon="0.90351">
        <ele>478</ele>
        <time>2019-02-17T13:39:44.000Z</time>
      </trkpt>
      <trkpt lat="43.21417" lon="0.9035">
        <ele>479</ele>
        <time>2019-02-17T13:39:46.000Z</time>
      </trkpt>
      <trkpt lat="43.21417" lon="0.90349">
        <ele>479</ele>
        <time>2019-02-17T13:39:48.000Z</time>
      </trkpt>
      <trkpt lat="43.21419" lon="0.90348">
        <ele>479</ele>
        <time>2019-02-17T13:39:50.000Z</time>
      </trkpt>
      <trkpt lat="43.21419" lon="0.90346">
        <ele>479</ele>
        <time>2019-02-17T13:39:52.000Z</time>
      </trkpt>
      <trkpt lat="43.2142" lon="0.90345">
        <ele>479</ele>
        <time>2019-02-17T13:39:54.000Z</time>
      </trkpt>
      <trkpt lat="43.21421" lon="0.90343">
        <ele>479</ele>
        <time>2019-02-17T13:39:56.000Z</time>
      </trkpt>
      <trkpt lat="43.21422" lon="0.90342">
        <ele>480</ele>
        <time>2019-02-17T13:39:58.000Z</time>
      </trkpt>
      <trkpt lat="43.21423" lon="0.9034">
        <ele>480</ele>
        <time>2019-02-17T13:40:00.000Z</time>
      </trkpt>
      <trkpt lat="43.21425" lon="0.90339">
        <ele>480</ele>
        <time>2019-02-17T13:40:02.000Z</time>
      </trkpt>
      <trkpt lat="43.21426" lon="0.90337">
        <ele>480</ele>
        <time>2019-02-17T13:40:04.000Z</time>
      </trkpt>
      <trkpt lat="43.21427" lon="0.90335">
        <ele>480</ele>
        <time>2019-02-17T13:40:06.000Z</time>
      </trkpt>
      <trkpt lat="43.21428" lon="0.90335">
        <ele>480</ele>
        <time>2019-02-17T13:40:08.000Z</time>
      </trkpt>
      <trkpt lat="43.2143" lon="0.90334">
        <ele>480</ele>
        <time>2019-02-17T13:40:10.000Z</time>
      </trkpt>
      <trkpt lat="43.21431" lon="0.90333">
        <ele>480</ele>
        <time>2019-02-17T13:40:12.000Z</time>
      </trkpt>
      <trkpt lat="43.21433" lon="0.90332">
        <ele>480</ele>
        <time>2019-02-17T13:40:14.000Z</time>
      </trkpt>
      <trkpt lat="43.21435" lon="0.9033">
        <ele>480</ele>
        <time>2019-02-17T13:40:16.000Z</time>
      </trkpt>
      <trkpt lat="43.21436" lon="0.90327">
        <ele>480</ele>
        <time>2019-02-17T13:40:18.000Z</time>
      </trkpt>
      <trkpt lat="43.21438" lon="0.90325">
        <ele>480</ele>
        <time>2019-02-17T13:40:20.000Z</time>
      </trkpt>
      <trkpt lat="43.21439" lon="0.90324">
        <ele>480</ele>
        <time>2019-02-17T13:40:22.000Z</time>
      </trkpt>
      <trkpt lat="43.2144" lon="0.90322">
        <ele>480</ele>
        <time>2019-02-17T13:40:24.000Z</time>
      </trkpt>
      <trkpt lat="43.21442" lon="0.90321">
        <ele>480</ele>
        <time>2019-02-17T13:40:26.000Z</time>
      </trkpt>
      <trkpt lat="43.21444" lon="0.90319">
        <ele>480</ele>
        <time>2019-02-17T13:40:28.000Z</time>
      </trkpt>
      <trkpt lat="43.21444" lon="0.90317">
        <ele>480</ele>
        <time>2019-02-17T13:40:30.000Z</time>
      </trkpt>
      <trkpt lat="43.21446" lon="0.90316">
        <ele>479</ele>
        <time>2019-02-17T13:40:32.000Z</time>
      </trkpt>
      <trkpt lat="43.21446" lon="0.90315">
        <ele>479</ele>
        <time>2019-02-17T13:40:34.000Z</time>
      </trkpt>
      <trkpt lat="43.21447" lon="0.90315">
        <ele>479</ele>
        <time>2019-02-17T13:40:36.000Z</time>
      </trkpt>
      <trkpt lat="43.21448" lon="0.90315">
        <ele>478</ele>
        <time>2019-02-17T13:40:38.000Z</time>
      </trkpt>
      <trkpt lat="43.21448" lon="0.90314">
        <ele>478</ele>
        <time>2019-02-17T13:40:40.000Z</time>
      </trkpt>
      <trkpt lat="43.21448" lon="0.90314">
        <ele>479</ele>
        <time>2019-02-17T13:40:42.000Z</time>
      </trkpt>
      <trkpt lat="43.21447" lon="0.90314">
        <ele>479</ele>
        <time>2019-02-17T13:40:44.000Z</time>
      </trkpt>
      <trkpt lat="43.21448" lon="0.90313">
        <ele>478</ele>
        <time>2019-02-17T13:40:46.000Z</time>
      </trkpt>
      <trkpt lat="43.2145" lon="0.90313">
        <ele>478</ele>
        <time>2019-02-17T13:40:48.000Z</time>
      </trkpt>
      <trkpt lat="43.21451" lon="0.90312">
        <ele>477</ele>
        <time>2019-02-17T13:40:50.000Z</time>
      </trkpt>
      <trkpt lat="43.21451" lon="0.90312">
        <ele>477</ele>
        <time>2019-02-17T13:40:52.000Z</time>
      </trkpt>
      <trkpt lat="43.21451" lon="0.90312">
        <ele>477</ele>
        <time>2019-02-17T13:40:54.000Z</time>
      </trkpt>
      <trkpt lat="43.21452" lon="0.90311">
        <ele>477</ele>
        <time>2019-02-17T13:40:56.000Z</time>
      </trkpt>
      <trkpt lat="43.21452" lon="0.9031">
        <ele>477</ele>
        <time>2019-02-17T13:40:58.000Z</time>
      </trkpt>
      <trkpt lat="43.21453" lon="0.90309">
        <ele>477</ele>
        <time>2019-02-17T13:41:00.000Z</time>
      </trkpt>
      <trkpt lat="43.21455" lon="0.90308">
        <ele>476</ele>
        <time>2019-02-17T13:41:02.000Z</time>
      </trkpt>
      <trkpt lat="43.21456" lon="0.90307">
        <ele>476</ele>
        <time>2019-02-17T13:41:04.000Z</time>
      </trkpt>
      <trkpt lat="43.21457" lon="0.90307">
        <ele>475</ele>
        <time>2019-02-17T13:41:06.000Z</time>
      </trkpt>
      <trkpt lat="43.21458" lon="0.90306">
        <ele>475</ele>
        <time>2019-02-17T13:41:08.000Z</time>
      </trkpt>
      <trkpt lat="43.21459" lon="0.90304">
        <ele>475</ele>
        <time>2019-02-17T13:41:10.000Z</time>
      </trkpt>
      <trkpt lat="43.2146" lon="0.90304">
        <ele>475</ele>
        <time>2019-02-17T13:41:12.000Z</time>
      </trkpt>
      <trkpt lat="43.21461" lon="0.90303">
        <ele>474</ele>
        <time>2019-02-17T13:41:14.000Z</time>
      </trkpt>
      <trkpt lat="43.21462" lon="0.90302">
        <ele>474</ele>
        <time>2019-02-17T13:41:16.000Z</time>
      </trkpt>
      <trkpt lat="43.21463" lon="0.903">
        <ele>474</ele>
        <time>2019-02-17T13:41:18.000Z</time>
      </trkpt>
      <trkpt lat="43.21464" lon="0.90299">
        <ele>474</ele>
        <time>2019-02-17T13:41:20.000Z</time>
      </trkpt>
      <trkpt lat="43.21465" lon="0.90297">
        <ele>473</ele>
        <time>2019-02-17T13:41:22.000Z</time>
      </trkpt>
      <trkpt lat="43.21466" lon="0.90297">
        <ele>473</ele>
        <time>2019-02-17T13:41:24.000Z</time>
      </trkpt>
      <trkpt lat="43.21468" lon="0.90295">
        <ele>473</ele>
        <time>2019-02-17T13:41:26.000Z</time>
      </trkpt>
      <trkpt lat="43.21469" lon="0.90294">
        <ele>472</ele>
        <time>2019-02-17T13:41:28.000Z</time>
      </trkpt>
      <trkpt lat="43.2147" lon="0.90292">
        <ele>472</ele>
        <time>2019-02-17T13:41:30.000Z</time>
      </trkpt>
      <trkpt lat="43.21471" lon="0.9029">
        <ele>472</ele>
        <time>2019-02-17T13:41:32.000Z</time>
      </trkpt>
      <trkpt lat="43.21473" lon="0.90289">
        <ele>471</ele>
        <time>2019-02-17T13:41:34.000Z</time>
      </trkpt>
      <trkpt lat="43.21474" lon="0.90288">
        <ele>471</ele>
        <time>2019-02-17T13:41:36.000Z</time>
      </trkpt>
      <trkpt lat="43.21476" lon="0.90287">
        <ele>471</ele>
        <time>2019-02-17T13:41:38.000Z</time>
      </trkpt>
      <trkpt lat="43.21477" lon="0.90287">
        <ele>470</ele>
        <time>2019-02-17T13:41:40.000Z</time>
      </trkpt>
      <trkpt lat="43.21478" lon="0.90286">
        <ele>470</ele>
        <time>2019-02-17T13:41:42.000Z</time>
      </trkpt>
      <trkpt lat="43.2148" lon="0.90284">
        <ele>469</ele>
        <time>2019-02-17T13:41:44.000Z</time>
      </trkpt>
      <trkpt lat="43.2148" lon="0.90284">
        <ele>469</ele>
        <time>2019-02-17T13:41:46.000Z</time>
      </trkpt>
      <trkpt lat="43.21481" lon="0.90283">
        <ele>469</ele>
        <time>2019-02-17T13:41:48.000Z</time>
      </trkpt>
      <trkpt lat="43.21482" lon="0.90282">
        <ele>468</ele>
        <time>2019-02-17T13:41:50.000Z</time>
      </trkpt>
      <trkpt lat="43.21483" lon="0.90281">
        <ele>468</ele>
        <time>2019-02-17T13:41:52.000Z</time>
      </trkpt>
      <trkpt lat="43.21484" lon="0.90281">
        <ele>468</ele>
        <time>2019-02-17T13:41:54.000Z</time>
      </trkpt>
      <trkpt lat="43.21485" lon="0.9028">
        <ele>468</ele>
        <time>2019-02-17T13:41:56.000Z</time>
      </trkpt>
      <trkpt lat="43.21487" lon="0.90279">
        <ele>467</ele>
        <time>2019-02-17T13:41:58.000Z</time>
      </trkpt>
      <trkpt lat="43.21489" lon="0.90277">
        <ele>467</ele>
        <time>2019-02-17T13:42:00.000Z</time>
      </trkpt>
      <trkpt lat="43.2149" lon="0.90276">
        <ele>466</ele>
        <time>2019-02-17T13:42:02.000Z</time>
      </trkpt>
      <trkpt lat="43.21493" lon="0.90277">
        <ele>466</ele>
        <time>2019-02-17T13:42:04.000Z</time>
      </trkpt>
      <trkpt lat="43.21494" lon="0.90277">
        <ele>465</ele>
        <time>2019-02-17T13:42:06.000Z</time>
      </trkpt>
      <trkpt lat="43.21496" lon="0.90276">
        <ele>465</ele>
        <time>2019-02-17T13:42:08.000Z</time>
      </trkpt>
      <trkpt lat="43.21498" lon="0.90276">
        <ele>464</ele>
        <time>2019-02-17T13:42:10.000Z</time>
      </trkpt>
      <trkpt lat="43.215" lon="0.90275">
        <ele>464</ele>
        <time>2019-02-17T13:42:12.000Z</time>
      </trkpt>
      <trkpt lat="43.21502" lon="0.90275">
        <ele>463</ele>
        <time>2019-02-17T13:42:14.000Z</time>
      </trkpt>
      <trkpt lat="43.21504" lon="0.90274">
        <ele>462</ele>
        <time>2019-02-17T13:42:16.000Z</time>
      </trkpt>
      <trkpt lat="43.21506" lon="0.90272">
        <ele>462</ele>
        <time>2019-02-17T13:42:18.000Z</time>
      </trkpt>
      <trkpt lat="43.21508" lon="0.90271">
        <ele>462</ele>
        <time>2019-02-17T13:42:20.000Z</time>
      </trkpt>
      <trkpt lat="43.21509" lon="0.90271">
        <ele>461</ele>
        <time>2019-02-17T13:42:22.000Z</time>
      </trkpt>
      <trkpt lat="43.21511" lon="0.9027">
        <ele>461</ele>
        <time>2019-02-17T13:42:24.000Z</time>
      </trkpt>
      <trkpt lat="43.21513" lon="0.9027">
        <ele>460</ele>
        <time>2019-02-17T13:42:26.000Z</time>
      </trkpt>
      <trkpt lat="43.21514" lon="0.90269">
        <ele>461</ele>
        <time>2019-02-17T13:42:28.000Z</time>
      </trkpt>
      <trkpt lat="43.21516" lon="0.90269">
        <ele>460</ele>
        <time>2019-02-17T13:42:30.000Z</time>
      </trkpt>
      <trkpt lat="43.21517" lon="0.9027">
        <ele>460</ele>
        <time>2019-02-17T13:42:32.000Z</time>
      </trkpt>
      <trkpt lat="43.21518" lon="0.9027">
        <ele>460</ele>
        <time>2019-02-17T13:42:34.000Z</time>
      </trkpt>
      <trkpt lat="43.2152" lon="0.9027">
        <ele>460</ele>
        <time>2019-02-17T13:42:36.000Z</time>
      </trkpt>
      <trkpt lat="43.21522" lon="0.90269">
        <ele>460</ele>
        <time>2019-02-17T13:42:38.000Z</time>
      </trkpt>
      <trkpt lat="43.21524" lon="0.90269">
        <ele>460</ele>
        <time>2019-02-17T13:42:40.000Z</time>
      </trkpt>
      <trkpt lat="43.21526" lon="0.90269">
        <ele>460</ele>
        <time>2019-02-17T13:42:42.000Z</time>
      </trkpt>
      <trkpt lat="43.21527" lon="0.90269">
        <ele>460</ele>
        <time>2019-02-17T13:42:44.000Z</time>
      </trkpt>
      <trkpt lat="43.21529" lon="0.90269">
        <ele>460</ele>
        <time>2019-02-17T13:42:46.000Z</time>
      </trkpt>
      <trkpt lat="43.21531" lon="0.9027">
        <ele>459</ele>
        <time>2019-02-17T13:42:48.000Z</time>
      </trkpt>
      <trkpt lat="43.21533" lon="0.9027">
        <ele>459</ele>
        <time>2019-02-17T13:42:50.000Z</time>
      </trkpt>
      <trkpt lat="43.21535" lon="0.90271">
        <ele>459</ele>
        <time>2019-02-17T13:42:52.000Z</time>
      </trkpt>
      <trkpt lat="43.21537" lon="0.90273">
        <ele>458</ele>
        <time>2019-02-17T13:42:54.000Z</time>
      </trkpt>
      <trkpt lat="43.21538" lon="0.90275">
        <ele>458</ele>
        <time>2019-02-17T13:42:56.000Z</time>
      </trkpt>
      <trkpt lat="43.21539" lon="0.90275">
        <ele>458</ele>
        <time>2019-02-17T13:42:58.000Z</time>
      </trkpt>
      <trkpt lat="43.21541" lon="0.90277">
        <ele>457</ele>
        <time>2019-02-17T13:43:00.000Z</time>
      </trkpt>
      <trkpt lat="43.21543" lon="0.90278">
        <ele>457</ele>
        <time>2019-02-17T13:43:02.000Z</time>
      </trkpt>
      <trkpt lat="43.21545" lon="0.90279">
        <ele>457</ele>
        <time>2019-02-17T13:43:04.000Z</time>
      </trkpt>
      <trkpt lat="43.21547" lon="0.9028">
        <ele>456</ele>
        <time>2019-02-17T13:43:06.000Z</time>
      </trkpt>
      <trkpt lat="43.21548" lon="0.90282">
        <ele>456</ele>
        <time>2019-02-17T13:43:08.000Z</time>
      </trkpt>
      <trkpt lat="43.2155" lon="0.90283">
        <ele>455</ele>
        <time>2019-02-17T13:43:10.000Z</time>
      </trkpt>
      <trkpt lat="43.21551" lon="0.90285">
        <ele>455</ele>
        <time>2019-02-17T13:43:12.000Z</time>
      </trkpt>
      <trkpt lat="43.21553" lon="0.90285">
        <ele>455</ele>
        <time>2019-02-17T13:43:14.000Z</time>
      </trkpt>
      <trkpt lat="43.21555" lon="0.90285">
        <ele>455</ele>
        <time>2019-02-17T13:43:16.000Z</time>
      </trkpt>
      <trkpt lat="43.21558" lon="0.90284">
        <ele>455</ele>
        <time>2019-02-17T13:43:18.000Z</time>
      </trkpt>
      <trkpt lat="43.21559" lon="0.90283">
        <ele>455</ele>
        <time>2019-02-17T13:43:20.000Z</time>
      </trkpt>
      <trkpt lat="43.2156" lon="0.90281">
        <ele>455</ele>
        <time>2019-02-17T13:43:22.000Z</time>
      </trkpt>
      <trkpt lat="43.21561" lon="0.9028">
        <ele>456</ele>
        <time>2019-02-17T13:43:24.000Z</time>
      </trkpt>
      <trkpt lat="43.21562" lon="0.90279">
        <ele>456</ele>
        <time>2019-02-17T13:43:26.000Z</time>
      </trkpt>
      <trkpt lat="43.21563" lon="0.90278">
        <ele>456</ele>
        <time>2019-02-17T13:43:28.000Z</time>
      </trkpt>
      <trkpt lat="43.21564" lon="0.90277">
        <ele>456</ele>
        <time>2019-02-17T13:43:30.000Z</time>
      </trkpt>
      <trkpt lat="43.21564" lon="0.90277">
        <ele>456</ele>
        <time>2019-02-17T13:43:32.000Z</time>
      </trkpt>
      <trkpt lat="43.21564" lon="0.90277">
        <ele>456</ele>
        <time>2019-02-17T13:43:34.000Z</time>
      </trkpt>
      <trkpt lat="43.21564" lon="0.90276">
        <ele>456</ele>
        <time>2019-02-17T13:43:36.000Z</time>
      </trkpt>
      <trkpt lat="43.21564" lon="0.90276">
        <ele>456</ele>
        <time>2019-02-17T13:43:38.000Z</time>
      </trkpt>
      <trkpt lat="43.21564" lon="0.90276">
        <ele>456</ele>
        <time>2019-02-17T13:43:40.000Z</time>
      </trkpt>
      <trkpt lat="43.21564" lon="0.90276">
        <ele>456</ele>
        <time>2019-02-17T13:43:42.000Z</time>
      </trkpt>
      <trkpt lat="43.21564" lon="0.90277">
        <ele>456</ele>
        <time>2019-02-17T13:43:44.000Z</time>
      </trkpt>
      <trkpt lat="43.21564" lon="0.90277">
        <ele>456</ele>
        <time>2019-02-17T13:43:46.000Z</time>
      </trkpt>
      <trkpt lat="43.21565" lon="0.90278">
        <ele>456</ele>
        <time>2019-02-17T13:43:48.000Z</time>
      </trkpt>
      <trkpt lat="43.21565" lon="0.90278">
        <ele>456</ele>
        <time>2019-02-17T13:43:50.000Z</time>
      </trkpt>
      <trkpt lat="43.21565" lon="0.90278">
        <ele>456</ele>
        <time>2019-02-17T13:43:52.000Z</time>
      </trkpt>
      <trkpt lat="43.21566" lon="0.90279">
        <ele>456</ele>
        <time>2019-02-17T13:43:54.000Z</time>
      </trkpt>
      <trkpt lat="43.21566" lon="0.90279">
        <ele>455</ele>
        <time>2019-02-17T13:43:56.000Z</time>
      </trkpt>
      <trkpt lat="43.21567" lon="0.90279">
        <ele>455</ele>
        <time>2019-02-17T13:43:58.000Z</time>
      </trkpt>
      <trkpt lat="43.21567" lon="0.90279">
        <ele>455</ele>
        <time>2019-02-17T13:44:00.000Z</time>
      </trkpt>
      <trkpt lat="43.21566" lon="0.90279">
        <ele>455</ele>
        <time>2019-02-17T13:44:02.000Z</time>
      </trkpt>
      <trkpt lat="43.21566" lon="0.90279">
        <ele>455</ele>
        <time>2019-02-17T13:44:04.000Z</time>
      </trkpt>
      <trkpt lat="43.21565" lon="0.90278">
        <ele>456</ele>
        <time>2019-02-17T13:44:06.000Z</time>
      </trkpt>
      <trkpt lat="43.21565" lon="0.90278">
        <ele>456</ele>
        <time>2019-02-17T13:44:08.000Z</time>
      </trkpt>
      <trkpt lat="43.21564" lon="0.90278">
        <ele>456</ele>
        <time>2019-02-17T13:44:10.000Z</time>
      </trkpt>
      <trkpt lat="43.21564" lon="0.90277">
        <ele>456</ele>
        <time>2019-02-17T13:44:12.000Z</time>
      </trkpt>
      <trkpt lat="43.21563" lon="0.90277">
        <ele>456</ele>
        <time>2019-02-17T13:44:14.000Z</time>
      </trkpt>
      <trkpt lat="43.21563" lon="0.90276">
        <ele>456</ele>
        <time>2019-02-17T13:44:16.000Z</time>
      </trkpt>
      <trkpt lat="43.21562" lon="0.90275">
        <ele>456</ele>
        <time>2019-02-17T13:44:18.000Z</time>
      </trkpt>
      <trkpt lat="43.21563" lon="0.90273">
        <ele>457</ele>
        <time>2019-02-17T13:44:20.000Z</time>
      </trkpt>
      <trkpt lat="43.21564" lon="0.90271">
        <ele>456</ele>
        <time>2019-02-17T13:44:22.000Z</time>
      </trkpt>
      <trkpt lat="43.21566" lon="0.90269">
        <ele>456</ele>
        <time>2019-02-17T13:44:24.000Z</time>
      </trkpt>
      <trkpt lat="43.21568" lon="0.90268">
        <ele>456</ele>
        <time>2019-02-17T13:44:26.000Z</time>
      </trkpt>
      <trkpt lat="43.2157" lon="0.90267">
        <ele>455</ele>
        <time>2019-02-17T13:44:28.000Z</time>
      </trkpt>
      <trkpt lat="43.21571" lon="0.90265">
        <ele>455</ele>
        <time>2019-02-17T13:44:30.000Z</time>
      </trkpt>
      <trkpt lat="43.21573" lon="0.90264">
        <ele>455</ele>
        <time>2019-02-17T13:44:32.000Z</time>
      </trkpt>
      <trkpt lat="43.21575" lon="0.90262">
        <ele>455</ele>
        <time>2019-02-17T13:44:34.000Z</time>
      </trkpt>
      <trkpt lat="43.21577" lon="0.90261">
        <ele>454</ele>
        <time>2019-02-17T13:44:36.000Z</time>
      </trkpt>
      <trkpt lat="43.21578" lon="0.9026">
        <ele>454</ele>
        <time>2019-02-17T13:44:38.000Z</time>
      </trkpt>
      <trkpt lat="43.2158" lon="0.90259">
        <ele>454</ele>
        <time>2019-02-17T13:44:40.000Z</time>
      </trkpt>
      <trkpt lat="43.21582" lon="0.90258">
        <ele>453</ele>
        <time>2019-02-17T13:44:42.000Z</time>
      </trkpt>
      <trkpt lat="43.21584" lon="0.90257">
        <ele>453</ele>
        <time>2019-02-17T13:44:44.000Z</time>
      </trkpt>
      <trkpt lat="43.21586" lon="0.90255">
        <ele>453</ele>
        <time>2019-02-17T13:44:46.000Z</time>
      </trkpt>
      <trkpt lat="43.21587" lon="0.90254">
        <ele>452</ele>
        <time>2019-02-17T13:44:48.000Z</time>
      </trkpt>
      <trkpt lat="43.21589" lon="0.90253">
        <ele>452</ele>
        <time>2019-02-17T13:44:50.000Z</time>
      </trkpt>
      <trkpt lat="43.2159" lon="0.90252">
        <ele>452</ele>
        <time>2019-02-17T13:44:52.000Z</time>
      </trkpt>
      <trkpt lat="43.21591" lon="0.90249">
        <ele>452</ele>
        <time>2019-02-17T13:44:54.000Z</time>
      </trkpt>
      <trkpt lat="43.21592" lon="0.90248">
        <ele>452</ele>
        <time>2019-02-17T13:44:56.000Z</time>
      </trkpt>
      <trkpt lat="43.21593" lon="0.90246">
        <ele>451</ele>
        <time>2019-02-17T13:44:58.000Z</time>
      </trkpt>
      <trkpt lat="43.21594" lon="0.90244">
        <ele>451</ele>
        <time>2019-02-17T13:45:00.000Z</time>
      </trkpt>
      <trkpt lat="43.21596" lon="0.90241">
        <ele>451</ele>
        <time>2019-02-17T13:45:02.000Z</time>
      </trkpt>
      <trkpt lat="43.21597" lon="0.9024">
        <ele>451</ele>
        <time>2019-02-17T13:45:04.000Z</time>
      </trkpt>
      <trkpt lat="43.21598" lon="0.90237">
        <ele>451</ele>
        <time>2019-02-17T13:45:06.000Z</time>
      </trkpt>
      <trkpt lat="43.216" lon="0.90235">
        <ele>451</ele>
        <time>2019-02-17T13:45:08.000Z</time>
      </trkpt>
      <trkpt lat="43.21601" lon="0.90234">
        <ele>451</ele>
        <time>2019-02-17T13:45:10.000Z</time>
      </trkpt>
      <trkpt lat="43.21602" lon="0.90231">
        <ele>451</ele>
        <time>2019-02-17T13:45:12.000Z</time>
      </trkpt>
      <trkpt lat="43.21602" lon="0.90229">
        <ele>451</ele>
        <time>2019-02-17T13:45:14.000Z</time>
      </trkpt>
      <trkpt lat="43.21603" lon="0.90228">
        <ele>451</ele>
        <time>2019-02-17T13:45:16.000Z</time>
      </trkpt>
      <trkpt lat="43.21604" lon="0.90225">
        <ele>451</ele>
        <time>2019-02-17T13:45:18.000Z</time>
      </trkpt>
      <trkpt lat="43.21605" lon="0.90224">
        <ele>451</ele>
        <time>2019-02-17T13:45:20.000Z</time>
      </trkpt>
      <trkpt lat="43.21605" lon="0.90222">
        <ele>451</ele>
        <time>2019-02-17T13:45:22.000Z</time>
      </trkpt>
      <trkpt lat="43.21605" lon="0.90221">
        <ele>451</ele>
        <time>2019-02-17T13:45:24.000Z</time>
      </trkpt>
      <trkpt lat="43.21607" lon="0.90218">
        <ele>450</ele>
        <time>2019-02-17T13:45:26.000Z</time>
      </trkpt>
      <trkpt lat="43.21607" lon="0.90215">
        <ele>450</ele>
        <time>2019-02-17T13:45:28.000Z</time>
      </trkpt>
      <trkpt lat="43.21608" lon="0.90213">
        <ele>450</ele>
        <time>2019-02-17T13:45:30.000Z</time>
      </trkpt>
      <trkpt lat="43.21609" lon="0.9021">
        <ele>450</ele>
        <time>2019-02-17T13:45:32.000Z</time>
      </trkpt>
      <trkpt lat="43.2161" lon="0.90208">
        <ele>450</ele>
        <time>2019-02-17T13:45:34.000Z</time>
      </trkpt>
      <trkpt lat="43.2161" lon="0.90206">
        <ele>450</ele>
        <time>2019-02-17T13:45:36.000Z</time>
      </trkpt>
      <trkpt lat="43.21611" lon="0.90203">
        <ele>450</ele>
        <time>2019-02-17T13:45:38.000Z</time>
      </trkpt>
      <trkpt lat="43.21612" lon="0.90201">
        <ele>449</ele>
        <time>2019-02-17T13:45:40.000Z</time>
      </trkpt>
      <trkpt lat="43.21613" lon="0.90198">
        <ele>449</ele>
        <time>2019-02-17T13:45:42.000Z</time>
      </trkpt>
      <trkpt lat="43.21614" lon="0.90196">
        <ele>449</ele>
        <time>2019-02-17T13:45:44.000Z</time>
      </trkpt>
      <trkpt lat="43.21615" lon="0.90194">
        <ele>449</ele>
        <time>2019-02-17T13:45:46.000Z</time>
      </trkpt>
      <trkpt lat="43.21615" lon="0.90192">
        <ele>449</ele>
        <time>2019-02-17T13:45:48.000Z</time>
      </trkpt>
      <trkpt lat="43.21616" lon="0.90189">
        <ele>449</ele>
        <time>2019-02-17T13:45:50.000Z</time>
      </trkpt>
      <trkpt lat="43.21616" lon="0.90187">
        <ele>449</ele>
        <time>2019-02-17T13:45:52.000Z</time>
      </trkpt>
      <trkpt lat="43.21616" lon="0.90184">
        <ele>449</ele>
        <time>2019-02-17T13:45:54.000Z</time>
      </trkpt>
      <trkpt lat="43.21616" lon="0.90181">
        <ele>448</ele>
        <time>2019-02-17T13:45:56.000Z</time>
      </trkpt>
      <trkpt lat="43.21617" lon="0.90179">
        <ele>448</ele>
        <time>2019-02-17T13:45:58.000Z</time>
      </trkpt>
      <trkpt lat="43.21618" lon="0.90176">
        <ele>448</ele>
        <time>2019-02-17T13:46:00.000Z</time>
      </trkpt>
      <trkpt lat="43.21619" lon="0.90173">
        <ele>448</ele>
        <time>2019-02-17T13:46:02.000Z</time>
      </trkpt>
      <trkpt lat="43.2162" lon="0.90171">
        <ele>448</ele>
        <time>2019-02-17T13:46:04.000Z</time>
      </trkpt>
      <trkpt lat="43.21621" lon="0.90169">
        <ele>448</ele>
        <time>2019-02-17T13:46:06.000Z</time>
      </trkpt>
      <trkpt lat="43.21621" lon="0.90166">
        <ele>448</ele>
        <time>2019-02-17T13:46:08.000Z</time>
      </trkpt>
      <trkpt lat="43.21622" lon="0.90163">
        <ele>447</ele>
        <time>2019-02-17T13:46:10.000Z</time>
      </trkpt>
      <trkpt lat="43.21622" lon="0.90161">
        <ele>447</ele>
        <time>2019-02-17T13:46:12.000Z</time>
      </trkpt>
      <trkpt lat="43.21623" lon="0.90158">
        <ele>447</ele>
        <time>2019-02-17T13:46:14.000Z</time>
      </trkpt>
      <trkpt lat="43.21623" lon="0.90155">
        <ele>447</ele>
        <time>2019-02-17T13:46:16.000Z</time>
      </trkpt>
      <trkpt lat="43.21623" lon="0.90152">
        <ele>447</ele>
        <time>2019-02-17T13:46:18.000Z</time>
      </trkpt>
      <trkpt lat="43.21625" lon="0.9015">
        <ele>446</ele>
        <time>2019-02-17T13:46:20.000Z</time>
      </trkpt>
      <trkpt lat="43.21626" lon="0.90147">
        <ele>446</ele>
        <time>2019-02-17T13:46:22.000Z</time>
      </trkpt>
      <trkpt lat="43.21627" lon="0.90145">
        <ele>446</ele>
        <time>2019-02-17T13:46:24.000Z</time>
      </trkpt>
      <trkpt lat="43.21628" lon="0.90142">
        <ele>445</ele>
        <time>2019-02-17T13:46:26.000Z</time>
      </trkpt>
      <trkpt lat="43.21629" lon="0.9014">
        <ele>445</ele>
        <time>2019-02-17T13:46:28.000Z</time>
      </trkpt>
      <trkpt lat="43.2163" lon="0.90138">
        <ele>445</ele>
        <time>2019-02-17T13:46:30.000Z</time>
      </trkpt>
      <trkpt lat="43.21631" lon="0.90135">
        <ele>445</ele>
        <time>2019-02-17T13:46:32.000Z</time>
      </trkpt>
      <trkpt lat="43.21632" lon="0.90133">
        <ele>445</ele>
        <time>2019-02-17T13:46:34.000Z</time>
      </trkpt>
      <trkpt lat="43.21633" lon="0.90131">
        <ele>444</ele>
        <time>2019-02-17T13:46:36.000Z</time>
      </trkpt>
      <trkpt lat="43.21634" lon="0.9013">
        <ele>444</ele>
        <time>2019-02-17T13:46:38.000Z</time>
      </trkpt>
      <trkpt lat="43.21634" lon="0.90129">
        <ele>444</ele>
        <time>2019-02-17T13:46:40.000Z</time>
      </trkpt>
      <trkpt lat="43.21635" lon="0.90127">
        <ele>444</ele>
        <time>2019-02-17T13:46:42.000Z</time>
      </trkpt>
      <trkpt lat="43.21637" lon="0.90125">
        <ele>444</ele>
        <time>2019-02-17T13:46:44.000Z</time>
      </trkpt>
      <trkpt lat="43.21638" lon="0.90124">
        <ele>443</ele>
        <time>2019-02-17T13:46:46.000Z</time>
      </trkpt>
      <trkpt lat="43.21639" lon="0.90121">
        <ele>443</ele>
        <time>2019-02-17T13:46:48.000Z</time>
      </trkpt>
      <trkpt lat="43.21639" lon="0.90118">
        <ele>443</ele>
        <time>2019-02-17T13:46:50.000Z</time>
      </trkpt>
      <trkpt lat="43.2164" lon="0.90115">
        <ele>443</ele>
        <time>2019-02-17T13:46:52.000Z</time>
      </trkpt>
      <trkpt lat="43.21641" lon="0.90113">
        <ele>443</ele>
        <time>2019-02-17T13:46:54.000Z</time>
      </trkpt>
      <trkpt lat="43.21642" lon="0.9011">
        <ele>443</ele>
        <time>2019-02-17T13:46:56.000Z</time>
      </trkpt>
      <trkpt lat="43.21643" lon="0.90108">
        <ele>442</ele>
        <time>2019-02-17T13:46:58.000Z</time>
      </trkpt>
      <trkpt lat="43.21644" lon="0.90105">
        <ele>442</ele>
        <time>2019-02-17T13:47:00.000Z</time>
      </trkpt>
      <trkpt lat="43.21645" lon="0.90103">
        <ele>442</ele>
        <time>2019-02-17T13:47:02.000Z</time>
      </trkpt>
      <trkpt lat="43.21646" lon="0.901">
        <ele>442</ele>
        <time>2019-02-17T13:47:04.000Z</time>
      </trkpt>
      <trkpt lat="43.21647" lon="0.90098">
        <ele>441</ele>
        <time>2019-02-17T13:47:06.000Z</time>
      </trkpt>
      <trkpt lat="43.21648" lon="0.90095">
        <ele>441</ele>
        <time>2019-02-17T13:47:08.000Z</time>
      </trkpt>
      <trkpt lat="43.21649" lon="0.90093">
        <ele>441</ele>
        <time>2019-02-17T13:47:10.000Z</time>
      </trkpt>
      <trkpt lat="43.2165" lon="0.9009">
        <ele>440</ele>
        <time>2019-02-17T13:47:12.000Z</time>
      </trkpt>
      <trkpt lat="43.2165" lon="0.90087">
        <ele>440</ele>
        <time>2019-02-17T13:47:14.000Z</time>
      </trkpt>
      <trkpt lat="43.2165" lon="0.90084">
        <ele>440</ele>
        <time>2019-02-17T13:47:16.000Z</time>
      </trkpt>
      <trkpt lat="43.2165" lon="0.90081">
        <ele>440</ele>
        <time>2019-02-17T13:47:18.000Z</time>
      </trkpt>
      <trkpt lat="43.21651" lon="0.90078">
        <ele>440</ele>
        <time>2019-02-17T13:47:20.000Z</time>
      </trkpt>
      <trkpt lat="43.21652" lon="0.90075">
        <ele>439</ele>
        <time>2019-02-17T13:47:22.000Z</time>
      </trkpt>
      <trkpt lat="43.21653" lon="0.90072">
        <ele>439</ele>
        <time>2019-02-17T13:47:24.000Z</time>
      </trkpt>
      <trkpt lat="43.21654" lon="0.90069">
        <ele>439</ele>
        <time>2019-02-17T13:47:26.000Z</time>
      </trkpt>
      <trkpt lat="43.21655" lon="0.90066">
        <ele>439</ele>
        <time>2019-02-17T13:47:28.000Z</time>
      </trkpt>
      <trkpt lat="43.21656" lon="0.90064">
        <ele>438</ele>
        <time>2019-02-17T13:47:30.000Z</time>
      </trkpt>
      <trkpt lat="43.21657" lon="0.90062">
        <ele>438</ele>
        <time>2019-02-17T13:47:32.000Z</time>
      </trkpt>
      <trkpt lat="43.21658" lon="0.90059">
        <ele>438</ele>
        <time>2019-02-17T13:47:34.000Z</time>
      </trkpt>
      <trkpt lat="43.21658" lon="0.90056">
        <ele>438</ele>
        <time>2019-02-17T13:47:36.000Z</time>
      </trkpt>
      <trkpt lat="43.21658" lon="0.90054">
        <ele>437</ele>
        <time>2019-02-17T13:47:38.000Z</time>
      </trkpt>
      <trkpt lat="43.21659" lon="0.90051">
        <ele>437</ele>
        <time>2019-02-17T13:47:40.000Z</time>
      </trkpt>
      <trkpt lat="43.21659" lon="0.90048">
        <ele>437</ele>
        <time>2019-02-17T13:47:42.000Z</time>
      </trkpt>
      <trkpt lat="43.2166" lon="0.90045">
        <ele>437</ele>
        <time>2019-02-17T13:47:44.000Z</time>
      </trkpt>
      <trkpt lat="43.2166" lon="0.90042">
        <ele>437</ele>
        <time>2019-02-17T13:47:46.000Z</time>
      </trkpt>
      <trkpt lat="43.21661" lon="0.9004">
        <ele>437</ele>
        <time>2019-02-17T13:47:48.000Z</time>
      </trkpt>
      <trkpt lat="43.21661" lon="0.90037">
        <ele>437</ele>
        <time>2019-02-17T13:47:50.000Z</time>
      </trkpt>
      <trkpt lat="43.2166" lon="0.90034">
        <ele>437</ele>
        <time>2019-02-17T13:47:52.000Z</time>
      </trkpt>
      <trkpt lat="43.2166" lon="0.90031">
        <ele>437</ele>
        <time>2019-02-17T13:47:54.000Z</time>
      </trkpt>
      <trkpt lat="43.2166" lon="0.90028">
        <ele>437</ele>
        <time>2019-02-17T13:47:56.000Z</time>
      </trkpt>
      <trkpt lat="43.21661" lon="0.90026">
        <ele>436</ele>
        <time>2019-02-17T13:47:58.000Z</time>
      </trkpt>
      <trkpt lat="43.21661" lon="0.90022">
        <ele>436</ele>
        <time>2019-02-17T13:48:00.000Z</time>
      </trkpt>
      <trkpt lat="43.21661" lon="0.9002">
        <ele>436</ele>
        <time>2019-02-17T13:48:02.000Z</time>
      </trkpt>
      <trkpt lat="43.21662" lon="0.90017">
        <ele>435</ele>
        <time>2019-02-17T13:48:04.000Z</time>
      </trkpt>
      <trkpt lat="43.21663" lon="0.90014">
        <ele>435</ele>
        <time>2019-02-17T13:48:06.000Z</time>
      </trkpt>
      <trkpt lat="43.21664" lon="0.90012">
        <ele>435</ele>
        <time>2019-02-17T13:48:08.000Z</time>
      </trkpt>
      <trkpt lat="43.21664" lon="0.90009">
        <ele>435</ele>
        <time>2019-02-17T13:48:10.000Z</time>
      </trkpt>
      <trkpt lat="43.21665" lon="0.90005">
        <ele>434</ele>
        <time>2019-02-17T13:48:12.000Z</time>
      </trkpt>
      <trkpt lat="43.21666" lon="0.90002">
        <ele>434</ele>
        <time>2019-02-17T13:48:14.000Z</time>
      </trkpt>
      <trkpt lat="43.21666" lon="0.9">
        <ele>434</ele>
        <time>2019-02-17T13:48:16.000Z</time>
      </trkpt>
      <trkpt lat="43.21667" lon="0.89997">
        <ele>433</ele>
        <time>2019-02-17T13:48:18.000Z</time>
      </trkpt>
      <trkpt lat="43.21668" lon="0.89993">
        <ele>433</ele>
        <time>2019-02-17T13:48:20.000Z</time>
      </trkpt>
      <trkpt lat="43.21669" lon="0.89991">
        <ele>433</ele>
        <time>2019-02-17T13:48:22.000Z</time>
      </trkpt>
      <trkpt lat="43.21669" lon="0.89987">
        <ele>433</ele>
        <time>2019-02-17T13:48:24.000Z</time>
      </trkpt>
      <trkpt lat="43.2167" lon="0.89984">
        <ele>432</ele>
        <time>2019-02-17T13:48:26.000Z</time>
      </trkpt>
      <trkpt lat="43.2167" lon="0.89981">
        <ele>432</ele>
        <time>2019-02-17T13:48:28.000Z</time>
      </trkpt>
      <trkpt lat="43.21671" lon="0.89978">
        <ele>432</ele>
        <time>2019-02-17T13:48:30.000Z</time>
      </trkpt>
      <trkpt lat="43.21672" lon="0.89976">
        <ele>432</ele>
        <time>2019-02-17T13:48:32.000Z</time>
      </trkpt>
      <trkpt lat="43.21673" lon="0.89973">
        <ele>431</ele>
        <time>2019-02-17T13:48:34.000Z</time>
      </trkpt>
      <trkpt lat="43.21674" lon="0.8997">
        <ele>431</ele>
        <time>2019-02-17T13:48:36.000Z</time>
      </trkpt>
      <trkpt lat="43.21674" lon="0.89967">
        <ele>431</ele>
        <time>2019-02-17T13:48:38.000Z</time>
      </trkpt>
      <trkpt lat="43.21675" lon="0.89964">
        <ele>430</ele>
        <time>2019-02-17T13:48:40.000Z</time>
      </trkpt>
      <trkpt lat="43.21677" lon="0.89962">
        <ele>430</ele>
        <time>2019-02-17T13:48:42.000Z</time>
      </trkpt>
      <trkpt lat="43.21678" lon="0.89959">
        <ele>430</ele>
        <time>2019-02-17T13:48:44.000Z</time>
      </trkpt>
      <trkpt lat="43.21679" lon="0.89957">
        <ele>430</ele>
        <time>2019-02-17T13:48:46.000Z</time>
      </trkpt>
      <trkpt lat="43.2168" lon="0.89956">
        <ele>430</ele>
        <time>2019-02-17T13:48:48.000Z</time>
      </trkpt>
      <trkpt lat="43.2168" lon="0.89954">
        <ele>430</ele>
        <time>2019-02-17T13:48:50.000Z</time>
      </trkpt>
      <trkpt lat="43.21681" lon="0.89951">
        <ele>430</ele>
        <time>2019-02-17T13:48:52.000Z</time>
      </trkpt>
      <trkpt lat="43.21682" lon="0.89948">
        <ele>430</ele>
        <time>2019-02-17T13:48:54.000Z</time>
      </trkpt>
      <trkpt lat="43.21682" lon="0.89945">
        <ele>430</ele>
        <time>2019-02-17T13:48:56.000Z</time>
      </trkpt>
      <trkpt lat="43.21683" lon="0.89943">
        <ele>429</ele>
        <time>2019-02-17T13:48:58.000Z</time>
      </trkpt>
      <trkpt lat="43.21683" lon="0.89942">
        <ele>429</ele>
        <time>2019-02-17T13:49:00.000Z</time>
      </trkpt>
      <trkpt lat="43.21684" lon="0.8994">
        <ele>429</ele>
        <time>2019-02-17T13:49:02.000Z</time>
      </trkpt>
      <trkpt lat="43.21684" lon="0.89939">
        <ele>429</ele>
        <time>2019-02-17T13:49:04.000Z</time>
      </trkpt>
      <trkpt lat="43.21685" lon="0.89938">
        <ele>429</ele>
        <time>2019-02-17T13:49:06.000Z</time>
      </trkpt>
      <trkpt lat="43.21685" lon="0.89938">
        <ele>429</ele>
        <time>2019-02-17T13:49:08.000Z</time>
      </trkpt>
      <trkpt lat="43.21685" lon="0.89937">
        <ele>429</ele>
        <time>2019-02-17T13:49:10.000Z</time>
      </trkpt>
      <trkpt lat="43.21686" lon="0.89937">
        <ele>429</ele>
        <time>2019-02-17T13:49:12.000Z</time>
      </trkpt>
      <trkpt lat="43.21685" lon="0.89937">
        <ele>429</ele>
        <time>2019-02-17T13:49:14.000Z</time>
      </trkpt>
      <trkpt lat="43.21685" lon="0.89936">
        <ele>429</ele>
        <time>2019-02-17T13:49:16.000Z</time>
      </trkpt>
      <trkpt lat="43.21685" lon="0.89936">
        <ele>429</ele>
        <time>2019-02-17T13:49:18.000Z</time>
      </trkpt>
      <trkpt lat="43.21685" lon="0.89936">
        <ele>429</ele>
        <time>2019-02-17T13:49:20.000Z</time>
      </trkpt>
      <trkpt lat="43.21685" lon="0.89936">
        <ele>429</ele>
        <time>2019-02-17T13:49:22.000Z</time>
      </trkpt>
      <trkpt lat="43.21685" lon="0.89936">
        <ele>429</ele>
        <time>2019-02-17T13:49:24.000Z</time>
      </trkpt>
      <trkpt lat="43.21686" lon="0.89935">
        <ele>429</ele>
        <time>2019-02-17T13:49:26.000Z</time>
      </trkpt>
      <trkpt lat="43.21686" lon="0.89934">
        <ele>429</ele>
        <time>2019-02-17T13:49:28.000Z</time>
      </trkpt>
      <trkpt lat="43.21687" lon="0.89934">
        <ele>429</ele>
        <time>2019-02-17T13:49:30.000Z</time>
      </trkpt>
      <trkpt lat="43.21687" lon="0.89933">
        <ele>429</ele>
        <time>2019-02-17T13:49:32.000Z</time>
      </trkpt>
      <trkpt lat="43.21688" lon="0.89933">
        <ele>429</ele>
        <time>2019-02-17T13:49:34.000Z</time>
      </trkpt>
      <trkpt lat="43.21689" lon="0.89932">
        <ele>429</ele>
        <time>2019-02-17T13:49:36.000Z</time>
      </trkpt>
      <trkpt lat="43.21689" lon="0.89931">
        <ele>430</ele>
        <time>2019-02-17T13:49:38.000Z</time>
      </trkpt>
      <trkpt lat="43.21689" lon="0.89932">
        <ele>430</ele>
        <time>2019-02-17T13:49:40.000Z</time>
      </trkpt>
      <trkpt lat="43.21689" lon="0.89931">
        <ele>429</ele>
        <time>2019-02-17T13:49:42.000Z</time>
      </trkpt>
      <trkpt lat="43.21689" lon="0.89931">
        <ele>430</ele>
        <time>2019-02-17T13:49:44.000Z</time>
      </trkpt>
      <trkpt lat="43.21689" lon="0.89931">
        <ele>429</ele>
        <time>2019-02-17T13:49:46.000Z</time>
      </trkpt>
      <trkpt lat="43.2169" lon="0.89931">
        <ele>430</ele>
        <time>2019-02-17T13:49:48.000Z</time>
      </trkpt>
      <trkpt lat="43.2169" lon="0.89931">
        <ele>430</ele>
        <time>2019-02-17T13:49:50.000Z</time>
      </trkpt>
      <trkpt lat="43.21691" lon="0.89932">
        <ele>430</ele>
        <time>2019-02-17T13:49:52.000Z</time>
      </trkpt>
      <trkpt lat="43.21691" lon="0.89933">
        <ele>430</ele>
        <time>2019-02-17T13:49:54.000Z</time>
      </trkpt>
      <trkpt lat="43.21692" lon="0.89933">
        <ele>430</ele>
        <time>2019-02-17T13:49:56.000Z</time>
      </trkpt>
      <trkpt lat="43.21692" lon="0.89933">
        <ele>430</ele>
        <time>2019-02-17T13:49:58.000Z</time>
      </trkpt>
      <trkpt lat="43.21692" lon="0.89933">
        <ele>430</ele>
        <time>2019-02-17T13:50:00.000Z</time>
      </trkpt>
      <trkpt lat="43.21692" lon="0.89933">
        <ele>430</ele>
        <time>2019-02-17T13:50:02.000Z</time>
      </trkpt>
      <trkpt lat="43.21692" lon="0.89933">
        <ele>430</ele>
        <time>2019-02-17T13:50:04.000Z</time>
      </trkpt>
      <trkpt lat="43.21692" lon="0.89933">
        <ele>430</ele>
        <time>2019-02-17T13:50:06.000Z</time>
      </trkpt>
      <trkpt lat="43.21692" lon="0.89933">
        <ele>430</ele>
        <time>2019-02-17T13:50:08.000Z</time>
      </trkpt>
      <trkpt lat="43.21692" lon="0.89934">
        <ele>430</ele>
        <time>2019-02-17T13:50:10.000Z</time>
      </trkpt>
      <trkpt lat="43.21691" lon="0.89933">
        <ele>430</ele>
        <time>2019-02-17T13:50:12.000Z</time>
      </trkpt>
      <trkpt lat="43.21692" lon="0.89933">
        <ele>430</ele>
        <time>2019-02-17T13:50:14.000Z</time>
      </trkpt>
      <trkpt lat="43.21692" lon="0.89932">
        <ele>430</ele>
        <time>2019-02-17T13:50:16.000Z</time>
      </trkpt>
      <trkpt lat="43.21693" lon="0.8993">
        <ele>430</ele>
        <time>2019-02-17T13:50:18.000Z</time>
      </trkpt>
      <trkpt lat="43.21694" lon="0.8993">
        <ele>430</ele>
        <time>2019-02-17T13:50:20.000Z</time>
      </trkpt>
      <trkpt lat="43.21694" lon="0.8993">
        <ele>430</ele>
        <time>2019-02-17T13:50:22.000Z</time>
      </trkpt>
      <trkpt lat="43.21695" lon="0.8993">
        <ele>430</ele>
        <time>2019-02-17T13:50:24.000Z</time>
      </trkpt>
      <trkpt lat="43.21695" lon="0.89929">
        <ele>430</ele>
        <time>2019-02-17T13:50:26.000Z</time>
      </trkpt>
      <trkpt lat="43.21695" lon="0.8993">
        <ele>430</ele>
        <time>2019-02-17T13:50:28.000Z</time>
      </trkpt>
      <trkpt lat="43.21694" lon="0.8993">
        <ele>430</ele>
        <time>2019-02-17T13:50:30.000Z</time>
      </trkpt>
      <trkpt lat="43.21695" lon="0.8993">
        <ele>430</ele>
        <time>2019-02-17T13:50:32.000Z</time>
      </trkpt>
      <trkpt lat="43.21695" lon="0.8993">
        <ele>430</ele>
        <time>2019-02-17T13:50:34.000Z</time>
      </trkpt>
      <trkpt lat="43.21695" lon="0.8993">
        <ele>430</ele>
        <time>2019-02-17T13:50:36.000Z</time>
      </trkpt>
      <trkpt lat="43.21694" lon="0.89931">
        <ele>430</ele>
        <time>2019-02-17T13:50:38.000Z</time>
      </trkpt>
      <trkpt lat="43.21694" lon="0.89931">
        <ele>430</ele>
        <time>2019-02-17T13:50:40.000Z</time>
      </trkpt>
      <trkpt lat="43.21694" lon="0.89931">
        <ele>430</ele>
        <time>2019-02-17T13:50:42.000Z</time>
      </trkpt>
      <trkpt lat="43.21694" lon="0.8993">
        <ele>430</ele>
        <time>2019-02-17T13:50:44.000Z</time>
      </trkpt>
      <trkpt lat="43.21694" lon="0.8993">
        <ele>430</ele>
        <time>2019-02-17T13:50:46.000Z</time>
      </trkpt>
      <trkpt lat="43.21694" lon="0.8993">
        <ele>430</ele>
        <time>2019-02-17T13:50:48.000Z</time>
      </trkpt>
      <trkpt lat="43.21694" lon="0.8993">
        <ele>430</ele>
        <time>2019-02-17T13:50:50.000Z</time>
      </trkpt>
      <trkpt lat="43.21694" lon="0.89929">
        <ele>430</ele>
        <time>2019-02-17T13:50:52.000Z</time>
      </trkpt>
      <trkpt lat="43.21694" lon="0.8993">
        <ele>430</ele>
        <time>2019-02-17T13:50:54.000Z</time>
      </trkpt>
      <trkpt lat="43.21694" lon="0.89929">
        <ele>430</ele>
        <time>2019-02-17T13:50:56.000Z</time>
      </trkpt>
      <trkpt lat="43.21694" lon="0.89929">
        <ele>430</ele>
        <time>2019-02-17T13:50:58.000Z</time>
      </trkpt>
      <trkpt lat="43.21694" lon="0.89929">
        <ele>430</ele>
        <time>2019-02-17T13:51:00.000Z</time>
      </trkpt>
      <trkpt lat="43.21694" lon="0.89929">
        <ele>430</ele>
        <time>2019-02-17T13:51:02.000Z</time>
      </trkpt>
      <trkpt lat="43.21694" lon="0.89928">
        <ele>430</ele>
        <time>2019-02-17T13:51:04.000Z</time>
      </trkpt>
      <trkpt lat="43.21694" lon="0.89928">
        <ele>430</ele>
        <time>2019-02-17T13:51:06.000Z</time>
      </trkpt>
      <trkpt lat="43.21694" lon="0.89927">
        <ele>430</ele>
        <time>2019-02-17T13:51:08.000Z</time>
      </trkpt>
      <trkpt lat="43.21694" lon="0.89928">
        <ele>430</ele>
        <time>2019-02-17T13:51:10.000Z</time>
      </trkpt>
      <trkpt lat="43.21695" lon="0.89928">
        <ele>430</ele>
        <time>2019-02-17T13:51:12.000Z</time>
      </trkpt>
      <trkpt lat="43.21695" lon="0.89928">
        <ele>430</ele>
        <time>2019-02-17T13:51:14.000Z</time>
      </trkpt>
      <trkpt lat="43.21695" lon="0.89928">
        <ele>430</ele>
        <time>2019-02-17T13:51:16.000Z</time>
      </trkpt>
      <trkpt lat="43.21694" lon="0.89929">
        <ele>430</ele>
        <time>2019-02-17T13:51:18.000Z</time>
      </trkpt>
      <trkpt lat="43.21694" lon="0.89928">
        <ele>430</ele>
        <time>2019-02-17T13:51:20.000Z</time>
      </trkpt>
      <trkpt lat="43.21695" lon="0.89928">
        <ele>430</ele>
        <time>2019-02-17T13:51:22.000Z</time>
      </trkpt>
      <trkpt lat="43.21694" lon="0.89928">
        <ele>430</ele>
        <time>2019-02-17T13:51:24.000Z</time>
      </trkpt>
      <trkpt lat="43.21694" lon="0.89929">
        <ele>430</ele>
        <time>2019-02-17T13:51:26.000Z</time>
      </trkpt>
      <trkpt lat="43.21694" lon="0.89928">
        <ele>430</ele>
        <time>2019-02-17T13:51:28.000Z</time>
      </trkpt>
      <trkpt lat="43.21694" lon="0.89928">
        <ele>430</ele>
        <time>2019-02-17T13:51:30.000Z</time>
      </trkpt>
      <trkpt lat="43.21694" lon="0.89928">
        <ele>430</ele>
        <time>2019-02-17T13:51:32.000Z</time>
      </trkpt>
      <trkpt lat="43.21694" lon="0.89928">
        <ele>430</ele>
        <time>2019-02-17T13:51:34.000Z</time>
      </trkpt>
      <trkpt lat="43.21694" lon="0.89927">
        <ele>430</ele>
        <time>2019-02-17T13:51:36.000Z</time>
      </trkpt>
      <trkpt lat="43.21694" lon="0.89927">
        <ele>430</ele>
        <time>2019-02-17T13:51:38.000Z</time>
      </trkpt>
      <trkpt lat="43.21694" lon="0.89928">
        <ele>430</ele>
        <time>2019-02-17T13:51:40.000Z</time>
      </trkpt>
      <trkpt lat="43.21695" lon="0.89927">
        <ele>430</ele>
        <time>2019-02-17T13:51:42.000Z</time>
      </trkpt>
      <trkpt lat="43.21695" lon="0.89927">
        <ele>430</ele>
        <time>2019-02-17T13:51:44.000Z</time>
      </trkpt>
      <trkpt lat="43.21694" lon="0.89927">
        <ele>430</ele>
        <time>2019-02-17T13:51:46.000Z</time>
      </trkpt>
      <trkpt lat="43.21694" lon="0.89928">
        <ele>430</ele>
        <time>2019-02-17T13:51:48.000Z</time>
      </trkpt>
      <trkpt lat="43.21694" lon="0.89927">
        <ele>430</ele>
        <time>2019-02-17T13:51:50.000Z</time>
      </trkpt>
      <trkpt lat="43.21694" lon="0.89927">
        <ele>430</ele>
        <time>2019-02-17T13:51:52.000Z</time>
      </trkpt>
      <trkpt lat="43.21694" lon="0.89926">
        <ele>430</ele>
        <time>2019-02-17T13:51:54.000Z</time>
      </trkpt>
      <trkpt lat="43.21695" lon="0.89925">
        <ele>430</ele>
        <time>2019-02-17T13:51:56.000Z</time>
      </trkpt>
      <trkpt lat="43.21696" lon="0.89924">
        <ele>430</ele>
        <time>2019-02-17T13:51:58.000Z</time>
      </trkpt>
      <trkpt lat="43.21697" lon="0.89923">
        <ele>430</ele>
        <time>2019-02-17T13:52:00.000Z</time>
      </trkpt>
      <trkpt lat="43.21698" lon="0.89921">
        <ele>430</ele>
        <time>2019-02-17T13:52:02.000Z</time>
      </trkpt>
      <trkpt lat="43.21698" lon="0.89919">
        <ele>430</ele>
        <time>2019-02-17T13:52:04.000Z</time>
      </trkpt>
      <trkpt lat="43.21699" lon="0.89917">
        <ele>430</ele>
        <time>2019-02-17T13:52:06.000Z</time>
      </trkpt>
      <trkpt lat="43.21699" lon="0.89916">
        <ele>430</ele>
        <time>2019-02-17T13:52:08.000Z</time>
      </trkpt>
      <trkpt lat="43.217" lon="0.89914">
        <ele>430</ele>
        <time>2019-02-17T13:52:10.000Z</time>
      </trkpt>
      <trkpt lat="43.217" lon="0.89912">
        <ele>430</ele>
        <time>2019-02-17T13:52:12.000Z</time>
      </trkpt>
      <trkpt lat="43.217" lon="0.89909">
        <ele>429</ele>
        <time>2019-02-17T13:52:14.000Z</time>
      </trkpt>
      <trkpt lat="43.21701" lon="0.89907">
        <ele>429</ele>
        <time>2019-02-17T13:52:16.000Z</time>
      </trkpt>
      <trkpt lat="43.21701" lon="0.89905">
        <ele>429</ele>
        <time>2019-02-17T13:52:18.000Z</time>
      </trkpt>
      <trkpt lat="43.21702" lon="0.89904">
        <ele>429</ele>
        <time>2019-02-17T13:52:20.000Z</time>
      </trkpt>
      <trkpt lat="43.21703" lon="0.89902">
        <ele>429</ele>
        <time>2019-02-17T13:52:22.000Z</time>
      </trkpt>
      <trkpt lat="43.21704" lon="0.899">
        <ele>429</ele>
        <time>2019-02-17T13:52:24.000Z</time>
      </trkpt>
      <trkpt lat="43.21704" lon="0.89898">
        <ele>429</ele>
        <time>2019-02-17T13:52:26.000Z</time>
      </trkpt>
      <trkpt lat="43.21704" lon="0.89896">
        <ele>428</ele>
        <time>2019-02-17T13:52:28.000Z</time>
      </trkpt>
      <trkpt lat="43.21705" lon="0.89895">
        <ele>428</ele>
        <time>2019-02-17T13:52:30.000Z</time>
      </trkpt>
      <trkpt lat="43.21705" lon="0.89893">
        <ele>428</ele>
        <time>2019-02-17T13:52:32.000Z</time>
      </trkpt>
      <trkpt lat="43.21706" lon="0.89891">
        <ele>428</ele>
        <time>2019-02-17T13:52:34.000Z</time>
      </trkpt>
      <trkpt lat="43.21706" lon="0.89888">
        <ele>428</ele>
        <time>2019-02-17T13:52:36.000Z</time>
      </trkpt>
      <trkpt lat="43.21707" lon="0.89886">
        <ele>428</ele>
        <time>2019-02-17T13:52:38.000Z</time>
      </trkpt>
      <trkpt lat="43.21708" lon="0.89884">
        <ele>428</ele>
        <time>2019-02-17T13:52:40.000Z</time>
      </trkpt>
      <trkpt lat="43.21709" lon="0.89882">
        <ele>428</ele>
        <time>2019-02-17T13:52:42.000Z</time>
      </trkpt>
      <trkpt lat="43.21709" lon="0.8988">
        <ele>427</ele>
        <time>2019-02-17T13:52:44.000Z</time>
      </trkpt>
      <trkpt lat="43.21709" lon="0.89878">
        <ele>427</ele>
        <time>2019-02-17T13:52:46.000Z</time>
      </trkpt>
      <trkpt lat="43.2171" lon="0.89876">
        <ele>427</ele>
        <time>2019-02-17T13:52:48.000Z</time>
      </trkpt>
      <trkpt lat="43.21711" lon="0.89874">
        <ele>427</ele>
        <time>2019-02-17T13:52:50.000Z</time>
      </trkpt>
      <trkpt lat="43.21712" lon="0.89872">
        <ele>427</ele>
        <time>2019-02-17T13:52:52.000Z</time>
      </trkpt>
      <trkpt lat="43.21713" lon="0.8987">
        <ele>427</ele>
        <time>2019-02-17T13:52:54.000Z</time>
      </trkpt>
      <trkpt lat="43.21713" lon="0.89867">
        <ele>427</ele>
        <time>2019-02-17T13:52:56.000Z</time>
      </trkpt>
      <trkpt lat="43.21713" lon="0.89865">
        <ele>427</ele>
        <time>2019-02-17T13:52:58.000Z</time>
      </trkpt>
      <trkpt lat="43.21714" lon="0.89862">
        <ele>427</ele>
        <time>2019-02-17T13:53:00.000Z</time>
      </trkpt>
      <trkpt lat="43.21714" lon="0.89859">
        <ele>427</ele>
        <time>2019-02-17T13:53:02.000Z</time>
      </trkpt>
      <trkpt lat="43.21714" lon="0.89857">
        <ele>426</ele>
        <time>2019-02-17T13:53:04.000Z</time>
      </trkpt>
      <trkpt lat="43.21715" lon="0.89855">
        <ele>426</ele>
        <time>2019-02-17T13:53:06.000Z</time>
      </trkpt>
      <trkpt lat="43.21715" lon="0.89852">
        <ele>426</ele>
        <time>2019-02-17T13:53:08.000Z</time>
      </trkpt>
      <trkpt lat="43.21716" lon="0.8985">
        <ele>426</ele>
        <time>2019-02-17T13:53:10.000Z</time>
      </trkpt>
      <trkpt lat="43.21717" lon="0.89848">
        <ele>426</ele>
        <time>2019-02-17T13:53:12.000Z</time>
      </trkpt>
      <trkpt lat="43.21718" lon="0.89847">
        <ele>426</ele>
        <time>2019-02-17T13:53:14.000Z</time>
      </trkpt>
      <trkpt lat="43.21719" lon="0.89846">
        <ele>426</ele>
        <time>2019-02-17T13:53:16.000Z</time>
      </trkpt>
      <trkpt lat="43.21721" lon="0.89846">
        <ele>426</ele>
        <time>2019-02-17T13:53:18.000Z</time>
      </trkpt>
      <trkpt lat="43.21722" lon="0.89845">
        <ele>426</ele>
        <time>2019-02-17T13:53:20.000Z</time>
      </trkpt>
      <trkpt lat="43.21723" lon="0.89846">
        <ele>426</ele>
        <time>2019-02-17T13:53:22.000Z</time>
      </trkpt>
      <trkpt lat="43.21723" lon="0.89846">
        <ele>426</ele>
        <time>2019-02-17T13:53:24.000Z</time>
      </trkpt>
      <trkpt lat="43.21725" lon="0.89848">
        <ele>426</ele>
        <time>2019-02-17T13:53:26.000Z</time>
      </trkpt>
      <trkpt lat="43.21725" lon="0.89849">
        <ele>426</ele>
        <time>2019-02-17T13:53:28.000Z</time>
      </trkpt>
      <trkpt lat="43.21726" lon="0.89851">
        <ele>426</ele>
        <time>2019-02-17T13:53:30.000Z</time>
      </trkpt>
      <trkpt lat="43.21727" lon="0.89852">
        <ele>426</ele>
        <time>2019-02-17T13:53:32.000Z</time>
      </trkpt>
      <trkpt lat="43.21728" lon="0.89854">
        <ele>426</ele>
        <time>2019-02-17T13:53:34.000Z</time>
      </trkpt>
      <trkpt lat="43.21728" lon="0.89855">
        <ele>426</ele>
        <time>2019-02-17T13:53:36.000Z</time>
      </trkpt>
      <trkpt lat="43.21729" lon="0.89856">
        <ele>426</ele>
        <time>2019-02-17T13:53:38.000Z</time>
      </trkpt>
      <trkpt lat="43.21729" lon="0.89858">
        <ele>426</ele>
        <time>2019-02-17T13:53:40.000Z</time>
      </trkpt>
      <trkpt lat="43.2173" lon="0.89859">
        <ele>427</ele>
        <time>2019-02-17T13:53:42.000Z</time>
      </trkpt>
      <trkpt lat="43.2173" lon="0.8986">
        <ele>427</ele>
        <time>2019-02-17T13:53:44.000Z</time>
      </trkpt>
      <trkpt lat="43.21731" lon="0.89862">
        <ele>427</ele>
        <time>2019-02-17T13:53:46.000Z</time>
      </trkpt>
      <trkpt lat="43.21733" lon="0.89863">
        <ele>427</ele>
        <time>2019-02-17T13:53:48.000Z</time>
      </trkpt>
      <trkpt lat="43.21734" lon="0.89864">
        <ele>427</ele>
        <time>2019-02-17T13:53:50.000Z</time>
      </trkpt>
      <trkpt lat="43.21735" lon="0.89866">
        <ele>427</ele>
        <time>2019-02-17T13:53:52.000Z</time>
      </trkpt>
      <trkpt lat="43.21736" lon="0.89867">
        <ele>427</ele>
        <time>2019-02-17T13:53:54.000Z</time>
      </trkpt>
      <trkpt lat="43.21737" lon="0.89869">
        <ele>427</ele>
        <time>2019-02-17T13:53:56.000Z</time>
      </trkpt>
      <trkpt lat="43.21738" lon="0.89871">
        <ele>427</ele>
        <time>2019-02-17T13:53:58.000Z</time>
      </trkpt>
      <trkpt lat="43.21739" lon="0.89873">
        <ele>427</ele>
        <time>2019-02-17T13:54:00.000Z</time>
      </trkpt>
      <trkpt lat="43.21739" lon="0.89875">
        <ele>427</ele>
        <time>2019-02-17T13:54:02.000Z</time>
      </trkpt>
      <trkpt lat="43.2174" lon="0.89876">
        <ele>427</ele>
        <time>2019-02-17T13:54:04.000Z</time>
      </trkpt>
      <trkpt lat="43.21741" lon="0.89878">
        <ele>427</ele>
        <time>2019-02-17T13:54:06.000Z</time>
      </trkpt>
      <trkpt lat="43.21742" lon="0.89879">
        <ele>427</ele>
        <time>2019-02-17T13:54:08.000Z</time>
      </trkpt>
      <trkpt lat="43.21743" lon="0.8988">
        <ele>428</ele>
        <time>2019-02-17T13:54:10.000Z</time>
      </trkpt>
      <trkpt lat="43.21745" lon="0.89881">
        <ele>428</ele>
        <time>2019-02-17T13:54:12.000Z</time>
      </trkpt>
      <trkpt lat="43.21745" lon="0.89881">
        <ele>428</ele>
        <time>2019-02-17T13:54:14.000Z</time>
      </trkpt>
      <trkpt lat="43.21746" lon="0.89882">
        <ele>428</ele>
        <time>2019-02-17T13:54:16.000Z</time>
      </trkpt>
      <trkpt lat="43.21747" lon="0.89883">
        <ele>428</ele>
        <time>2019-02-17T13:54:18.000Z</time>
      </trkpt>
      <trkpt lat="43.21748" lon="0.89883">
        <ele>428</ele>
        <time>2019-02-17T13:54:20.000Z</time>
      </trkpt>
      <trkpt lat="43.21749" lon="0.89884">
        <ele>428</ele>
        <time>2019-02-17T13:54:22.000Z</time>
      </trkpt>
      <trkpt lat="43.2175" lon="0.89885">
        <ele>428</ele>
        <time>2019-02-17T13:54:24.000Z</time>
      </trkpt>
      <trkpt lat="43.2175" lon="0.89885">
        <ele>428</ele>
        <time>2019-02-17T13:54:26.000Z</time>
      </trkpt>
      <trkpt lat="43.21751" lon="0.89886">
        <ele>428</ele>
        <time>2019-02-17T13:54:28.000Z</time>
      </trkpt>
      <trkpt lat="43.21752" lon="0.89888">
        <ele>428</ele>
        <time>2019-02-17T13:54:30.000Z</time>
      </trkpt>
      <trkpt lat="43.21753" lon="0.89889">
        <ele>428</ele>
        <time>2019-02-17T13:54:32.000Z</time>
      </trkpt>
      <trkpt lat="43.21754" lon="0.8989">
        <ele>428</ele>
        <time>2019-02-17T13:54:34.000Z</time>
      </trkpt>
      <trkpt lat="43.21755" lon="0.89892">
        <ele>428</ele>
        <time>2019-02-17T13:54:36.000Z</time>
      </trkpt>
      <trkpt lat="43.21756" lon="0.89893">
        <ele>428</ele>
        <time>2019-02-17T13:54:38.000Z</time>
      </trkpt>
      <trkpt lat="43.21757" lon="0.89894">
        <ele>428</ele>
        <time>2019-02-17T13:54:40.000Z</time>
      </trkpt>
      <trkpt lat="43.21758" lon="0.89894">
        <ele>428</ele>
        <time>2019-02-17T13:54:42.000Z</time>
      </trkpt>
      <trkpt lat="43.21759" lon="0.89895">
        <ele>428</ele>
        <time>2019-02-17T13:54:44.000Z</time>
      </trkpt>
      <trkpt lat="43.2176" lon="0.89895">
        <ele>428</ele>
        <time>2019-02-17T13:54:46.000Z</time>
      </trkpt>
      <trkpt lat="43.21761" lon="0.89895">
        <ele>428</ele>
        <time>2019-02-17T13:54:48.000Z</time>
      </trkpt>
      <trkpt lat="43.21761" lon="0.89895">
        <ele>428</ele>
        <time>2019-02-17T13:54:50.000Z</time>
      </trkpt>
      <trkpt lat="43.21762" lon="0.89895">
        <ele>428</ele>
        <time>2019-02-17T13:54:52.000Z</time>
      </trkpt>
      <trkpt lat="43.21762" lon="0.89896">
        <ele>428</ele>
        <time>2019-02-17T13:54:54.000Z</time>
      </trkpt>
      <trkpt lat="43.21762" lon="0.89897">
        <ele>429</ele>
        <time>2019-02-17T13:54:56.000Z</time>
      </trkpt>
      <trkpt lat="43.21763" lon="0.89898">
        <ele>429</ele>
        <time>2019-02-17T13:54:58.000Z</time>
      </trkpt>
      <trkpt lat="43.21763" lon="0.89898">
        <ele>429</ele>
        <time>2019-02-17T13:55:00.000Z</time>
      </trkpt>
      <trkpt lat="43.21764" lon="0.89898">
        <ele>429</ele>
        <time>2019-02-17T13:55:02.000Z</time>
      </trkpt>
      <trkpt lat="43.21764" lon="0.89899">
        <ele>429</ele>
        <time>2019-02-17T13:55:04.000Z</time>
      </trkpt>
      <trkpt lat="43.21765" lon="0.899">
        <ele>429</ele>
        <time>2019-02-17T13:55:06.000Z</time>
      </trkpt>
      <trkpt lat="43.21765" lon="0.899">
        <ele>429</ele>
        <time>2019-02-17T13:55:08.000Z</time>
      </trkpt>
      <trkpt lat="43.21765" lon="0.89901">
        <ele>429</ele>
        <time>2019-02-17T13:55:10.000Z</time>
      </trkpt>
      <trkpt lat="43.21765" lon="0.89901">
        <ele>429</ele>
        <time>2019-02-17T13:55:12.000Z</time>
      </trkpt>
      <trkpt lat="43.21765" lon="0.899">
        <ele>429</ele>
        <time>2019-02-17T13:55:14.000Z</time>
      </trkpt>
      <trkpt lat="43.21765" lon="0.899">
        <ele>429</ele>
        <time>2019-02-17T13:55:16.000Z</time>
      </trkpt>
      <trkpt lat="43.21766" lon="0.899">
        <ele>429</ele>
        <time>2019-02-17T13:55:18.000Z</time>
      </trkpt>
      <trkpt lat="43.21766" lon="0.899">
        <ele>429</ele>
        <time>2019-02-17T13:55:20.000Z</time>
      </trkpt>
      <trkpt lat="43.21766" lon="0.899">
        <ele>429</ele>
        <time>2019-02-17T13:55:22.000Z</time>
      </trkpt>
      <trkpt lat="43.21766" lon="0.899">
        <ele>429</ele>
        <time>2019-02-17T13:55:24.000Z</time>
      </trkpt>
      <trkpt lat="43.21766" lon="0.899">
        <ele>429</ele>
        <time>2019-02-17T13:55:26.000Z</time>
      </trkpt>
      <trkpt lat="43.21766" lon="0.899">
        <ele>429</ele>
        <time>2019-02-17T13:55:28.000Z</time>
      </trkpt>
      <trkpt lat="43.21766" lon="0.89901">
        <ele>429</ele>
        <time>2019-02-17T13:55:30.000Z</time>
      </trkpt>
      <trkpt lat="43.21766" lon="0.89901">
        <ele>429</ele>
        <time>2019-02-17T13:55:32.000Z</time>
      </trkpt>
      <trkpt lat="43.21767" lon="0.89901">
        <ele>429</ele>
        <time>2019-02-17T13:55:34.000Z</time>
      </trkpt>
      <trkpt lat="43.21767" lon="0.89901">
        <ele>429</ele>
        <time>2019-02-17T13:55:36.000Z</time>
      </trkpt>
      <trkpt lat="43.21767" lon="0.89901">
        <ele>429</ele>
        <time>2019-02-17T13:55:38.000Z</time>
      </trkpt>
      <trkpt lat="43.21768" lon="0.899">
        <ele>429</ele>
        <time>2019-02-17T13:55:40.000Z</time>
      </trkpt>
      <trkpt lat="43.21768" lon="0.899">
        <ele>429</ele>
        <time>2019-02-17T13:55:42.000Z</time>
      </trkpt>
      <trkpt lat="43.21768" lon="0.89898">
        <ele>429</ele>
        <time>2019-02-17T13:55:44.000Z</time>
      </trkpt>
      <trkpt lat="43.21769" lon="0.89899">
        <ele>429</ele>
        <time>2019-02-17T13:55:46.000Z</time>
      </trkpt>
      <trkpt lat="43.2177" lon="0.89899">
        <ele>429</ele>
        <time>2019-02-17T13:55:48.000Z</time>
      </trkpt>
      <trkpt lat="43.2177" lon="0.899">
        <ele>429</ele>
        <time>2019-02-17T13:55:50.000Z</time>
      </trkpt>
      <trkpt lat="43.21769" lon="0.899">
        <ele>429</ele>
        <time>2019-02-17T13:55:52.000Z</time>
      </trkpt>
      <trkpt lat="43.21769" lon="0.899">
        <ele>429</ele>
        <time>2019-02-17T13:55:54.000Z</time>
      </trkpt>
      <trkpt lat="43.21769" lon="0.899">
        <ele>429</ele>
        <time>2019-02-17T13:55:56.000Z</time>
      </trkpt>
      <trkpt lat="43.21769" lon="0.899">
        <ele>429</ele>
        <time>2019-02-17T13:55:58.000Z</time>
      </trkpt>
      <trkpt lat="43.2177" lon="0.89899">
        <ele>429</ele>
        <time>2019-02-17T13:56:00.000Z</time>
      </trkpt>
      <trkpt lat="43.21771" lon="0.899">
        <ele>429</ele>
        <time>2019-02-17T13:56:02.000Z</time>
      </trkpt>
      <trkpt lat="43.21772" lon="0.89902">
        <ele>429</ele>
        <time>2019-02-17T13:56:04.000Z</time>
      </trkpt>
      <trkpt lat="43.21773" lon="0.89903">
        <ele>430</ele>
        <time>2019-02-17T13:56:06.000Z</time>
      </trkpt>
      <trkpt lat="43.21775" lon="0.89904">
        <ele>430</ele>
        <time>2019-02-17T13:56:08.000Z</time>
      </trkpt>
      <trkpt lat="43.21776" lon="0.89904">
        <ele>430</ele>
        <time>2019-02-17T13:56:10.000Z</time>
      </trkpt>
      <trkpt lat="43.21777" lon="0.89905">
        <ele>430</ele>
        <time>2019-02-17T13:56:12.000Z</time>
      </trkpt>
      <trkpt lat="43.21777" lon="0.89904">
        <ele>430</ele>
        <time>2019-02-17T13:56:14.000Z</time>
      </trkpt>
      <trkpt lat="43.21778" lon="0.89902">
        <ele>430</ele>
        <time>2019-02-17T13:56:16.000Z</time>
      </trkpt>
      <trkpt lat="43.21778" lon="0.89901">
        <ele>430</ele>
        <time>2019-02-17T13:56:18.000Z</time>
      </trkpt>
      <trkpt lat="43.21778" lon="0.89899">
        <ele>430</ele>
        <time>2019-02-17T13:56:20.000Z</time>
      </trkpt>
      <trkpt lat="43.21777" lon="0.89898">
        <ele>429</ele>
        <time>2019-02-17T13:56:22.000Z</time>
      </trkpt>
      <trkpt lat="43.21777" lon="0.89895">
        <ele>429</ele>
        <time>2019-02-17T13:56:24.000Z</time>
      </trkpt>
      <trkpt lat="43.21777" lon="0.89893">
        <ele>429</ele>
        <time>2019-02-17T13:56:26.000Z</time>
      </trkpt>
      <trkpt lat="43.21777" lon="0.89891">
        <ele>429</ele>
        <time>2019-02-17T13:56:28.000Z</time>
      </trkpt>
      <trkpt lat="43.21777" lon="0.89889">
        <ele>429</ele>
        <time>2019-02-17T13:56:30.000Z</time>
      </trkpt>
      <trkpt lat="43.21777" lon="0.89888">
        <ele>429</ele>
        <time>2019-02-17T13:56:32.000Z</time>
      </trkpt>
      <trkpt lat="43.21777" lon="0.89886">
        <ele>429</ele>
        <time>2019-02-17T13:56:34.000Z</time>
      </trkpt>
      <trkpt lat="43.21777" lon="0.89885">
        <ele>428</ele>
        <time>2019-02-17T13:56:36.000Z</time>
      </trkpt>
      <trkpt lat="43.21777" lon="0.89884">
        <ele>428</ele>
        <time>2019-02-17T13:56:38.000Z</time>
      </trkpt>
      <trkpt lat="43.21777" lon="0.89883">
        <ele>428</ele>
        <time>2019-02-17T13:56:40.000Z</time>
      </trkpt>
      <trkpt lat="43.21777" lon="0.89882">
        <ele>428</ele>
        <time>2019-02-17T13:56:42.000Z</time>
      </trkpt>
      <trkpt lat="43.21777" lon="0.8988">
        <ele>428</ele>
        <time>2019-02-17T13:56:44.000Z</time>
      </trkpt>
      <trkpt lat="43.21777" lon="0.89879">
        <ele>428</ele>
        <time>2019-02-17T13:56:46.000Z</time>
      </trkpt>
      <trkpt lat="43.21777" lon="0.89876">
        <ele>428</ele>
        <time>2019-02-17T13:56:48.000Z</time>
      </trkpt>
      <trkpt lat="43.21777" lon="0.89874">
        <ele>427</ele>
        <time>2019-02-17T13:56:50.000Z</time>
      </trkpt>
      <trkpt lat="43.21777" lon="0.89871">
        <ele>427</ele>
        <time>2019-02-17T13:56:52.000Z</time>
      </trkpt>
      <trkpt lat="43.21777" lon="0.89868">
        <ele>427</ele>
        <time>2019-02-17T13:56:54.000Z</time>
      </trkpt>
      <trkpt lat="43.21777" lon="0.89865">
        <ele>427</ele>
        <time>2019-02-17T13:56:56.000Z</time>
      </trkpt>
      <trkpt lat="43.21777" lon="0.89863">
        <ele>426</ele>
        <time>2019-02-17T13:56:58.000Z</time>
      </trkpt>
      <trkpt lat="43.21777" lon="0.89861">
        <ele>426</ele>
        <time>2019-02-17T13:57:00.000Z</time>
      </trkpt>
      <trkpt lat="43.21776" lon="0.89859">
        <ele>426</ele>
        <time>2019-02-17T13:57:02.000Z</time>
      </trkpt>
      <trkpt lat="43.21775" lon="0.89857">
        <ele>426</ele>
        <time>2019-02-17T13:57:04.000Z</time>
      </trkpt>
      <trkpt lat="43.21775" lon="0.89854">
        <ele>425</ele>
        <time>2019-02-17T13:57:06.000Z</time>
      </trkpt>
      <trkpt lat="43.21775" lon="0.89852">
        <ele>425</ele>
        <time>2019-02-17T13:57:08.000Z</time>
      </trkpt>
      <trkpt lat="43.21775" lon="0.89848">
        <ele>425</ele>
        <time>2019-02-17T13:57:10.000Z</time>
      </trkpt>
      <trkpt lat="43.21775" lon="0.89846">
        <ele>425</ele>
        <time>2019-02-17T13:57:12.000Z</time>
      </trkpt>
      <trkpt lat="43.21775" lon="0.89843">
        <ele>424</ele>
        <time>2019-02-17T13:57:14.000Z</time>
      </trkpt>
      <trkpt lat="43.21775" lon="0.8984">
        <ele>424</ele>
        <time>2019-02-17T13:57:16.000Z</time>
      </trkpt>
      <trkpt lat="43.21775" lon="0.89838">
        <ele>424</ele>
        <time>2019-02-17T13:57:18.000Z</time>
      </trkpt>
      <trkpt lat="43.21775" lon="0.89834">
        <ele>423</ele>
        <time>2019-02-17T13:57:20.000Z</time>
      </trkpt>
      <trkpt lat="43.21775" lon="0.89831">
        <ele>423</ele>
        <time>2019-02-17T13:57:22.000Z</time>
      </trkpt>
      <trkpt lat="43.21776" lon="0.89828">
        <ele>423</ele>
        <time>2019-02-17T13:57:24.000Z</time>
      </trkpt>
      <trkpt lat="43.21776" lon="0.89826">
        <ele>423</ele>
        <time>2019-02-17T13:57:26.000Z</time>
      </trkpt>
      <trkpt lat="43.21777" lon="0.89823">
        <ele>422</ele>
        <time>2019-02-17T13:57:28.000Z</time>
      </trkpt>
      <trkpt lat="43.21777" lon="0.8982">
        <ele>422</ele>
        <time>2019-02-17T13:57:30.000Z</time>
      </trkpt>
      <trkpt lat="43.21777" lon="0.89817">
        <ele>422</ele>
        <time>2019-02-17T13:57:32.000Z</time>
      </trkpt>
      <trkpt lat="43.21777" lon="0.89815">
        <ele>422</ele>
        <time>2019-02-17T13:57:34.000Z</time>
      </trkpt>
      <trkpt lat="43.21778" lon="0.89812">
        <ele>422</ele>
        <time>2019-02-17T13:57:36.000Z</time>
      </trkpt>
      <trkpt lat="43.2178" lon="0.89809">
        <ele>422</ele>
        <time>2019-02-17T13:57:38.000Z</time>
      </trkpt>
      <trkpt lat="43.21781" lon="0.89807">
        <ele>422</ele>
        <time>2019-02-17T13:57:40.000Z</time>
      </trkpt>
      <trkpt lat="43.21782" lon="0.89805">
        <ele>422</ele>
        <time>2019-02-17T13:57:42.000Z</time>
      </trkpt>
      <trkpt lat="43.21783" lon="0.89803">
        <ele>422</ele>
        <time>2019-02-17T13:57:44.000Z</time>
      </trkpt>
      <trkpt lat="43.21784" lon="0.89801">
        <ele>422</ele>
        <time>2019-02-17T13:57:46.000Z</time>
      </trkpt>
      <trkpt lat="43.21786" lon="0.89799">
        <ele>422</ele>
        <time>2019-02-17T13:57:48.000Z</time>
      </trkpt>
      <trkpt lat="43.21787" lon="0.89798">
        <ele>422</ele>
        <time>2019-02-17T13:57:50.000Z</time>
      </trkpt>
      <trkpt lat="43.21786" lon="0.89797">
        <ele>422</ele>
        <time>2019-02-17T13:57:52.000Z</time>
      </trkpt>
      <trkpt lat="43.21786" lon="0.89795">
        <ele>422</ele>
        <time>2019-02-17T13:57:54.000Z</time>
      </trkpt>
      <trkpt lat="43.21785" lon="0.89792">
        <ele>422</ele>
        <time>2019-02-17T13:57:56.000Z</time>
      </trkpt>
      <trkpt lat="43.21785" lon="0.89789">
        <ele>421</ele>
        <time>2019-02-17T13:57:58.000Z</time>
      </trkpt>
      <trkpt lat="43.21785" lon="0.89786">
        <ele>421</ele>
        <time>2019-02-17T13:58:00.000Z</time>
      </trkpt>
      <trkpt lat="43.21786" lon="0.89784">
        <ele>421</ele>
        <time>2019-02-17T13:58:02.000Z</time>
      </trkpt>
      <trkpt lat="43.21786" lon="0.89781">
        <ele>421</ele>
        <time>2019-02-17T13:58:04.000Z</time>
      </trkpt>
      <trkpt lat="43.21786" lon="0.89779">
        <ele>421</ele>
        <time>2019-02-17T13:58:06.000Z</time>
      </trkpt>
      <trkpt lat="43.21786" lon="0.89776">
        <ele>421</ele>
        <time>2019-02-17T13:58:08.000Z</time>
      </trkpt>
      <trkpt lat="43.21787" lon="0.89772">
        <ele>421</ele>
        <time>2019-02-17T13:58:11.000Z</time>
      </trkpt>
      <trkpt lat="43.21788" lon="0.89769">
        <ele>421</ele>
        <time>2019-02-17T13:58:13.000Z</time>
      </trkpt>
      <trkpt lat="43.21788" lon="0.89766">
        <ele>421</ele>
        <time>2019-02-17T13:58:15.000Z</time>
      </trkpt>
      <trkpt lat="43.21788" lon="0.89763">
        <ele>420</ele>
        <time>2019-02-17T13:58:17.000Z</time>
      </trkpt>
      <trkpt lat="43.21788" lon="0.89761">
        <ele>420</ele>
        <time>2019-02-17T13:58:19.000Z</time>
      </trkpt>
      <trkpt lat="43.21788" lon="0.89758">
        <ele>420</ele>
        <time>2019-02-17T13:58:21.000Z</time>
      </trkpt>
      <trkpt lat="43.21788" lon="0.89755">
        <ele>420</ele>
        <time>2019-02-17T13:58:23.000Z</time>
      </trkpt>
      <trkpt lat="43.21788" lon="0.89752">
        <ele>420</ele>
        <time>2019-02-17T13:58:25.000Z</time>
      </trkpt>
      <trkpt lat="43.21788" lon="0.89749">
        <ele>420</ele>
        <time>2019-02-17T13:58:27.000Z</time>
      </trkpt>
      <trkpt lat="43.21788" lon="0.89746">
        <ele>420</ele>
        <time>2019-02-17T13:58:29.000Z</time>
      </trkpt>
      <trkpt lat="43.21788" lon="0.89743">
        <ele>419</ele>
        <time>2019-02-17T13:58:31.000Z</time>
      </trkpt>
      <trkpt lat="43.21788" lon="0.89741">
        <ele>419</ele>
        <time>2019-02-17T13:58:33.000Z</time>
      </trkpt>
      <trkpt lat="43.21788" lon="0.89738">
        <ele>419</ele>
        <time>2019-02-17T13:58:35.000Z</time>
      </trkpt>
      <trkpt lat="43.21788" lon="0.89735">
        <ele>419</ele>
        <time>2019-02-17T13:58:37.000Z</time>
      </trkpt>
      <trkpt lat="43.21788" lon="0.89731">
        <ele>419</ele>
        <time>2019-02-17T13:58:39.000Z</time>
      </trkpt>
      <trkpt lat="43.21789" lon="0.89728">
        <ele>419</ele>
        <time>2019-02-17T13:58:41.000Z</time>
      </trkpt>
      <trkpt lat="43.21789" lon="0.89726">
        <ele>418</ele>
        <time>2019-02-17T13:58:43.000Z</time>
      </trkpt>
      <trkpt lat="43.21789" lon="0.89722">
        <ele>418</ele>
        <time>2019-02-17T13:58:45.000Z</time>
      </trkpt>
      <trkpt lat="43.21789" lon="0.89719">
        <ele>418</ele>
        <time>2019-02-17T13:58:47.000Z</time>
      </trkpt>
      <trkpt lat="43.2179" lon="0.89716">
        <ele>418</ele>
        <time>2019-02-17T13:58:49.000Z</time>
      </trkpt>
      <trkpt lat="43.2179" lon="0.89713">
        <ele>418</ele>
        <time>2019-02-17T13:58:51.000Z</time>
      </trkpt>
      <trkpt lat="43.21791" lon="0.8971">
        <ele>418</ele>
        <time>2019-02-17T13:58:53.000Z</time>
      </trkpt>
      <trkpt lat="43.21791" lon="0.89707">
        <ele>418</ele>
        <time>2019-02-17T13:58:55.000Z</time>
      </trkpt>
      <trkpt lat="43.21792" lon="0.89704">
        <ele>418</ele>
        <time>2019-02-17T13:58:57.000Z</time>
      </trkpt>
      <trkpt lat="43.21792" lon="0.89702">
        <ele>418</ele>
        <time>2019-02-17T13:58:59.000Z</time>
      </trkpt>
      <trkpt lat="43.21792" lon="0.89698">
        <ele>418</ele>
        <time>2019-02-17T13:59:01.000Z</time>
      </trkpt>
      <trkpt lat="43.21792" lon="0.89696">
        <ele>417</ele>
        <time>2019-02-17T13:59:03.000Z</time>
      </trkpt>
      <trkpt lat="43.21792" lon="0.89693">
        <ele>417</ele>
        <time>2019-02-17T13:59:05.000Z</time>
      </trkpt>
      <trkpt lat="43.21793" lon="0.8969">
        <ele>417</ele>
        <time>2019-02-17T13:59:07.000Z</time>
      </trkpt>
      <trkpt lat="43.21793" lon="0.89688">
        <ele>417</ele>
        <time>2019-02-17T13:59:09.000Z</time>
      </trkpt>
      <trkpt lat="43.21793" lon="0.89685">
        <ele>417</ele>
        <time>2019-02-17T13:59:11.000Z</time>
      </trkpt>
      <trkpt lat="43.21794" lon="0.89684">
        <ele>417</ele>
        <time>2019-02-17T13:59:13.000Z</time>
      </trkpt>
      <trkpt lat="43.21794" lon="0.89683">
        <ele>417</ele>
        <time>2019-02-17T13:59:15.000Z</time>
      </trkpt>
      <trkpt lat="43.21794" lon="0.89681">
        <ele>417</ele>
        <time>2019-02-17T13:59:17.000Z</time>
      </trkpt>
      <trkpt lat="43.21795" lon="0.89678">
        <ele>417</ele>
        <time>2019-02-17T13:59:19.000Z</time>
      </trkpt>
      <trkpt lat="43.21795" lon="0.89676">
        <ele>417</ele>
        <time>2019-02-17T13:59:21.000Z</time>
      </trkpt>
      <trkpt lat="43.21795" lon="0.89673">
        <ele>417</ele>
        <time>2019-02-17T13:59:23.000Z</time>
      </trkpt>
      <trkpt lat="43.21796" lon="0.8967">
        <ele>417</ele>
        <time>2019-02-17T13:59:25.000Z</time>
      </trkpt>
      <trkpt lat="43.21796" lon="0.89667">
        <ele>417</ele>
        <time>2019-02-17T13:59:27.000Z</time>
      </trkpt>
      <trkpt lat="43.21797" lon="0.89664">
        <ele>417</ele>
        <time>2019-02-17T13:59:29.000Z</time>
      </trkpt>
      <trkpt lat="43.21798" lon="0.89661">
        <ele>416</ele>
        <time>2019-02-17T13:59:31.000Z</time>
      </trkpt>
      <trkpt lat="43.21799" lon="0.89658">
        <ele>416</ele>
        <time>2019-02-17T13:59:33.000Z</time>
      </trkpt>
      <trkpt lat="43.218" lon="0.89655">
        <ele>416</ele>
        <time>2019-02-17T13:59:35.000Z</time>
      </trkpt>
      <trkpt lat="43.21801" lon="0.89652">
        <ele>416</ele>
        <time>2019-02-17T13:59:37.000Z</time>
      </trkpt>
      <trkpt lat="43.21802" lon="0.89649">
        <ele>416</ele>
        <time>2019-02-17T13:59:39.000Z</time>
      </trkpt>
      <trkpt lat="43.21803" lon="0.89647">
        <ele>416</ele>
        <time>2019-02-17T13:59:41.000Z</time>
      </trkpt>
      <trkpt lat="43.21804" lon="0.89644">
        <ele>416</ele>
        <time>2019-02-17T13:59:43.000Z</time>
      </trkpt>
      <trkpt lat="43.21805" lon="0.89642">
        <ele>416</ele>
        <time>2019-02-17T13:59:45.000Z</time>
      </trkpt>
      <trkpt lat="43.21807" lon="0.89639">
        <ele>416</ele>
        <time>2019-02-17T13:59:47.000Z</time>
      </trkpt>
      <trkpt lat="43.21808" lon="0.89637">
        <ele>416</ele>
        <time>2019-02-17T13:59:49.000Z</time>
      </trkpt>
      <trkpt lat="43.2181" lon="0.89634">
        <ele>416</ele>
        <time>2019-02-17T13:59:51.000Z</time>
      </trkpt>
      <trkpt lat="43.21811" lon="0.89631">
        <ele>416</ele>
        <time>2019-02-17T13:59:53.000Z</time>
      </trkpt>
      <trkpt lat="43.21812" lon="0.89629">
        <ele>416</ele>
        <time>2019-02-17T13:59:55.000Z</time>
      </trkpt>
      <trkpt lat="43.21814" lon="0.89627">
        <ele>416</ele>
        <time>2019-02-17T13:59:57.000Z</time>
      </trkpt>
      <trkpt lat="43.21815" lon="0.89625">
        <ele>416</ele>
        <time>2019-02-17T13:59:59.000Z</time>
      </trkpt>
      <trkpt lat="43.21816" lon="0.89622">
        <ele>416</ele>
        <time>2019-02-17T14:00:01.000Z</time>
      </trkpt>
      <trkpt lat="43.21817" lon="0.8962">
        <ele>416</ele>
        <time>2019-02-17T14:00:03.000Z</time>
      </trkpt>
      <trkpt lat="43.21819" lon="0.89618">
        <ele>416</ele>
        <time>2019-02-17T14:00:05.000Z</time>
      </trkpt>
      <trkpt lat="43.2182" lon="0.89616">
        <ele>416</ele>
        <time>2019-02-17T14:00:07.000Z</time>
      </trkpt>
      <trkpt lat="43.21822" lon="0.89612">
        <ele>416</ele>
        <time>2019-02-17T14:00:09.000Z</time>
      </trkpt>
      <trkpt lat="43.21823" lon="0.8961">
        <ele>416</ele>
        <time>2019-02-17T14:00:11.000Z</time>
      </trkpt>
      <trkpt lat="43.21825" lon="0.89608">
        <ele>416</ele>
        <time>2019-02-17T14:00:13.000Z</time>
      </trkpt>
      <trkpt lat="43.21826" lon="0.89605">
        <ele>416</ele>
        <time>2019-02-17T14:00:15.000Z</time>
      </trkpt>
      <trkpt lat="43.21827" lon="0.89603">
        <ele>416</ele>
        <time>2019-02-17T14:00:17.000Z</time>
      </trkpt>
      <trkpt lat="43.21829" lon="0.896">
        <ele>416</ele>
        <time>2019-02-17T14:00:19.000Z</time>
      </trkpt>
      <trkpt lat="43.2183" lon="0.89598">
        <ele>416</ele>
        <time>2019-02-17T14:00:21.000Z</time>
      </trkpt>
      <trkpt lat="43.21831" lon="0.89596">
        <ele>416</ele>
        <time>2019-02-17T14:00:23.000Z</time>
      </trkpt>
      <trkpt lat="43.21832" lon="0.89594">
        <ele>416</ele>
        <time>2019-02-17T14:00:25.000Z</time>
      </trkpt>
      <trkpt lat="43.21834" lon="0.89591">
        <ele>416</ele>
        <time>2019-02-17T14:00:27.000Z</time>
      </trkpt>
      <trkpt lat="43.21835" lon="0.89589">
        <ele>416</ele>
        <time>2019-02-17T14:00:29.000Z</time>
      </trkpt>
      <trkpt lat="43.21837" lon="0.89586">
        <ele>416</ele>
        <time>2019-02-17T14:00:31.000Z</time>
      </trkpt>
      <trkpt lat="43.21838" lon="0.89583">
        <ele>416</ele>
        <time>2019-02-17T14:00:33.000Z</time>
      </trkpt>
      <trkpt lat="43.21839" lon="0.89581">
        <ele>416</ele>
        <time>2019-02-17T14:00:35.000Z</time>
      </trkpt>
      <trkpt lat="43.21841" lon="0.89578">
        <ele>416</ele>
        <time>2019-02-17T14:00:37.000Z</time>
      </trkpt>
      <trkpt lat="43.21842" lon="0.89576">
        <ele>416</ele>
        <time>2019-02-17T14:00:39.000Z</time>
      </trkpt>
      <trkpt lat="43.21843" lon="0.89573">
        <ele>416</ele>
        <time>2019-02-17T14:00:41.000Z</time>
      </trkpt>
      <trkpt lat="43.21844" lon="0.8957">
        <ele>416</ele>
        <time>2019-02-17T14:00:43.000Z</time>
      </trkpt>
      <trkpt lat="43.21845" lon="0.89568">
        <ele>416</ele>
        <time>2019-02-17T14:00:45.000Z</time>
      </trkpt>
      <trkpt lat="43.21846" lon="0.89565">
        <ele>416</ele>
        <time>2019-02-17T14:00:47.000Z</time>
      </trkpt>
      <trkpt lat="43.21847" lon="0.89562">
        <ele>416</ele>
        <time>2019-02-17T14:00:49.000Z</time>
      </trkpt>
      <trkpt lat="43.21848" lon="0.89559">
        <ele>416</ele>
        <time>2019-02-17T14:00:51.000Z</time>
      </trkpt>
      <trkpt lat="43.21849" lon="0.89556">
        <ele>416</ele>
        <time>2019-02-17T14:00:53.000Z</time>
      </trkpt>
      <trkpt lat="43.2185" lon="0.89553">
        <ele>416</ele>
        <time>2019-02-17T14:00:55.000Z</time>
      </trkpt>
      <trkpt lat="43.21852" lon="0.8955">
        <ele>416</ele>
        <time>2019-02-17T14:00:57.000Z</time>
      </trkpt>
      <trkpt lat="43.21852" lon="0.89548">
        <ele>416</ele>
        <time>2019-02-17T14:00:59.000Z</time>
      </trkpt>
      <trkpt lat="43.21853" lon="0.89545">
        <ele>416</ele>
        <time>2019-02-17T14:01:01.000Z</time>
      </trkpt>
      <trkpt lat="43.21854" lon="0.89543">
        <ele>416</ele>
        <time>2019-02-17T14:01:03.000Z</time>
      </trkpt>
      <trkpt lat="43.21855" lon="0.8954">
        <ele>417</ele>
        <time>2019-02-17T14:01:05.000Z</time>
      </trkpt>
      <trkpt lat="43.21856" lon="0.89537">
        <ele>417</ele>
        <time>2019-02-17T14:01:07.000Z</time>
      </trkpt>
      <trkpt lat="43.21857" lon="0.89535">
        <ele>417</ele>
        <time>2019-02-17T14:01:09.000Z</time>
      </trkpt>
      <trkpt lat="43.21858" lon="0.89532">
        <ele>417</ele>
        <time>2019-02-17T14:01:11.000Z</time>
      </trkpt>
      <trkpt lat="43.21859" lon="0.89529">
        <ele>417</ele>
        <time>2019-02-17T14:01:13.000Z</time>
      </trkpt>
      <trkpt lat="43.2186" lon="0.89527">
        <ele>417</ele>
        <time>2019-02-17T14:01:15.000Z</time>
      </trkpt>
      <trkpt lat="43.21862" lon="0.89525">
        <ele>417</ele>
        <time>2019-02-17T14:01:17.000Z</time>
      </trkpt>
      <trkpt lat="43.21863" lon="0.89523">
        <ele>417</ele>
        <time>2019-02-17T14:01:19.000Z</time>
      </trkpt>
      <trkpt lat="43.21865" lon="0.8952">
        <ele>417</ele>
        <time>2019-02-17T14:01:21.000Z</time>
      </trkpt>
      <trkpt lat="43.21866" lon="0.89518">
        <ele>417</ele>
        <time>2019-02-17T14:01:23.000Z</time>
      </trkpt>
      <trkpt lat="43.21867" lon="0.89515">
        <ele>417</ele>
        <time>2019-02-17T14:01:25.000Z</time>
      </trkpt>
      <trkpt lat="43.21868" lon="0.89513">
        <ele>417</ele>
        <time>2019-02-17T14:01:27.000Z</time>
      </trkpt>
      <trkpt lat="43.21869" lon="0.8951">
        <ele>417</ele>
        <time>2019-02-17T14:01:29.000Z</time>
      </trkpt>
      <trkpt lat="43.2187" lon="0.89507">
        <ele>417</ele>
        <time>2019-02-17T14:01:31.000Z</time>
      </trkpt>
      <trkpt lat="43.21871" lon="0.89505">
        <ele>417</ele>
        <time>2019-02-17T14:01:33.000Z</time>
      </trkpt>
      <trkpt lat="43.21872" lon="0.89502">
        <ele>417</ele>
        <time>2019-02-17T14:01:35.000Z</time>
      </trkpt>
      <trkpt lat="43.21873" lon="0.895">
        <ele>417</ele>
        <time>2019-02-17T14:01:37.000Z</time>
      </trkpt>
      <trkpt lat="43.21874" lon="0.89497">
        <ele>417</ele>
        <time>2019-02-17T14:01:39.000Z</time>
      </trkpt>
      <trkpt lat="43.21875" lon="0.89494">
        <ele>417</ele>
        <time>2019-02-17T14:01:41.000Z</time>
      </trkpt>
      <trkpt lat="43.21876" lon="0.89492">
        <ele>418</ele>
        <time>2019-02-17T14:01:43.000Z</time>
      </trkpt>
      <trkpt lat="43.21877" lon="0.89489">
        <ele>418</ele>
        <time>2019-02-17T14:01:45.000Z</time>
      </trkpt>
      <trkpt lat="43.21878" lon="0.89487">
        <ele>418</ele>
        <time>2019-02-17T14:01:47.000Z</time>
      </trkpt>
      <trkpt lat="43.2188" lon="0.89485">
        <ele>418</ele>
        <time>2019-02-17T14:01:49.000Z</time>
      </trkpt>
      <trkpt lat="43.21881" lon="0.89483">
        <ele>418</ele>
        <time>2019-02-17T14:01:51.000Z</time>
      </trkpt>
      <trkpt lat="43.21882" lon="0.89481">
        <ele>418</ele>
        <time>2019-02-17T14:01:53.000Z</time>
      </trkpt>
      <trkpt lat="43.21883" lon="0.89478">
        <ele>418</ele>
        <time>2019-02-17T14:01:55.000Z</time>
      </trkpt>
      <trkpt lat="43.21884" lon="0.89475">
        <ele>418</ele>
        <time>2019-02-17T14:01:57.000Z</time>
      </trkpt>
      <trkpt lat="43.21885" lon="0.89473">
        <ele>418</ele>
        <time>2019-02-17T14:01:59.000Z</time>
      </trkpt>
      <trkpt lat="43.21886" lon="0.8947">
        <ele>418</ele>
        <time>2019-02-17T14:02:01.000Z</time>
      </trkpt>
      <trkpt lat="43.21886" lon="0.89468">
        <ele>418</ele>
        <time>2019-02-17T14:02:03.000Z</time>
      </trkpt>
      <trkpt lat="43.21887" lon="0.89466">
        <ele>419</ele>
        <time>2019-02-17T14:02:05.000Z</time>
      </trkpt>
      <trkpt lat="43.21888" lon="0.89463">
        <ele>419</ele>
        <time>2019-02-17T14:02:07.000Z</time>
      </trkpt>
      <trkpt lat="43.2189" lon="0.89461">
        <ele>419</ele>
        <time>2019-02-17T14:02:09.000Z</time>
      </trkpt>
      <trkpt lat="43.21891" lon="0.89458">
        <ele>419</ele>
        <time>2019-02-17T14:02:11.000Z</time>
      </trkpt>
      <trkpt lat="43.21892" lon="0.89456">
        <ele>419</ele>
        <time>2019-02-17T14:02:13.000Z</time>
      </trkpt>
      <trkpt lat="43.21893" lon="0.89453">
        <ele>419</ele>
        <time>2019-02-17T14:02:15.000Z</time>
      </trkpt>
      <trkpt lat="43.21894" lon="0.89451">
        <ele>420</ele>
        <time>2019-02-17T14:02:17.000Z</time>
      </trkpt>
      <trkpt lat="43.21895" lon="0.89448">
        <ele>420</ele>
        <time>2019-02-17T14:02:19.000Z</time>
      </trkpt>
      <trkpt lat="43.21896" lon="0.89446">
        <ele>420</ele>
        <time>2019-02-17T14:02:21.000Z</time>
      </trkpt>
      <trkpt lat="43.21897" lon="0.89443">
        <ele>420</ele>
        <time>2019-02-17T14:02:23.000Z</time>
      </trkpt>
      <trkpt lat="43.21898" lon="0.89441">
        <ele>420</ele>
        <time>2019-02-17T14:02:25.000Z</time>
      </trkpt>
      <trkpt lat="43.219" lon="0.89438">
        <ele>420</ele>
        <time>2019-02-17T14:02:27.000Z</time>
      </trkpt>
      <trkpt lat="43.21901" lon="0.89436">
        <ele>420</ele>
        <time>2019-02-17T14:02:29.000Z</time>
      </trkpt>
      <trkpt lat="43.21901" lon="0.89434">
        <ele>420</ele>
        <time>2019-02-17T14:02:31.000Z</time>
      </trkpt>
      <trkpt lat="43.21903" lon="0.89432">
        <ele>421</ele>
        <time>2019-02-17T14:02:33.000Z</time>
      </trkpt>
      <trkpt lat="43.21904" lon="0.89429">
        <ele>421</ele>
        <time>2019-02-17T14:02:35.000Z</time>
      </trkpt>
      <trkpt lat="43.21905" lon="0.89426">
        <ele>421</ele>
        <time>2019-02-17T14:02:37.000Z</time>
      </trkpt>
      <trkpt lat="43.21906" lon="0.89424">
        <ele>421</ele>
        <time>2019-02-17T14:02:39.000Z</time>
      </trkpt>
      <trkpt lat="43.21907" lon="0.8942">
        <ele>421</ele>
        <time>2019-02-17T14:02:41.000Z</time>
      </trkpt>
      <trkpt lat="43.21907" lon="0.89418">
        <ele>421</ele>
        <time>2019-02-17T14:02:43.000Z</time>
      </trkpt>
      <trkpt lat="43.21909" lon="0.89416">
        <ele>421</ele>
        <time>2019-02-17T14:02:45.000Z</time>
      </trkpt>
      <trkpt lat="43.21909" lon="0.89414">
        <ele>421</ele>
        <time>2019-02-17T14:02:47.000Z</time>
      </trkpt>
      <trkpt lat="43.2191" lon="0.89412">
        <ele>421</ele>
        <time>2019-02-17T14:02:49.000Z</time>
      </trkpt>
      <trkpt lat="43.21911" lon="0.89409">
        <ele>421</ele>
        <time>2019-02-17T14:02:51.000Z</time>
      </trkpt>
      <trkpt lat="43.21912" lon="0.89407">
        <ele>421</ele>
        <time>2019-02-17T14:02:53.000Z</time>
      </trkpt>
      <trkpt lat="43.21913" lon="0.89405">
        <ele>421</ele>
        <time>2019-02-17T14:02:55.000Z</time>
      </trkpt>
      <trkpt lat="43.21915" lon="0.89402">
        <ele>422</ele>
        <time>2019-02-17T14:02:57.000Z</time>
      </trkpt>
      <trkpt lat="43.21916" lon="0.894">
        <ele>422</ele>
        <time>2019-02-17T14:02:59.000Z</time>
      </trkpt>
      <trkpt lat="43.21918" lon="0.89398">
        <ele>422</ele>
        <time>2019-02-17T14:03:01.000Z</time>
      </trkpt>
      <trkpt lat="43.21919" lon="0.89397">
        <ele>422</ele>
        <time>2019-02-17T14:03:03.000Z</time>
      </trkpt>
      <trkpt lat="43.2192" lon="0.89395">
        <ele>422</ele>
        <time>2019-02-17T14:03:05.000Z</time>
      </trkpt>
      <trkpt lat="43.21921" lon="0.89393">
        <ele>422</ele>
        <time>2019-02-17T14:03:07.000Z</time>
      </trkpt>
      <trkpt lat="43.21922" lon="0.89391">
        <ele>422</ele>
        <time>2019-02-17T14:03:09.000Z</time>
      </trkpt>
      <trkpt lat="43.21922" lon="0.89388">
        <ele>422</ele>
        <time>2019-02-17T14:03:11.000Z</time>
      </trkpt>
      <trkpt lat="43.21924" lon="0.89386">
        <ele>422</ele>
        <time>2019-02-17T14:03:13.000Z</time>
      </trkpt>
      <trkpt lat="43.21925" lon="0.89384">
        <ele>422</ele>
        <time>2019-02-17T14:03:15.000Z</time>
      </trkpt>
      <trkpt lat="43.21926" lon="0.89381">
        <ele>422</ele>
        <time>2019-02-17T14:03:17.000Z</time>
      </trkpt>
      <trkpt lat="43.21926" lon="0.89379">
        <ele>423</ele>
        <time>2019-02-17T14:03:19.000Z</time>
      </trkpt>
      <trkpt lat="43.21928" lon="0.89376">
        <ele>423</ele>
        <time>2019-02-17T14:03:21.000Z</time>
      </trkpt>
      <trkpt lat="43.21929" lon="0.89374">
        <ele>423</ele>
        <time>2019-02-17T14:03:23.000Z</time>
      </trkpt>
      <trkpt lat="43.2193" lon="0.89372">
        <ele>423</ele>
        <time>2019-02-17T14:03:25.000Z</time>
      </trkpt>
      <trkpt lat="43.2193" lon="0.8937">
        <ele>423</ele>
        <time>2019-02-17T14:03:27.000Z</time>
      </trkpt>
      <trkpt lat="43.21931" lon="0.89368">
        <ele>423</ele>
        <time>2019-02-17T14:03:29.000Z</time>
      </trkpt>
      <trkpt lat="43.21932" lon="0.89365">
        <ele>423</ele>
        <time>2019-02-17T14:03:31.000Z</time>
      </trkpt>
      <trkpt lat="43.21934" lon="0.89363">
        <ele>423</ele>
        <time>2019-02-17T14:03:33.000Z</time>
      </trkpt>
      <trkpt lat="43.21935" lon="0.89361">
        <ele>423</ele>
        <time>2019-02-17T14:03:35.000Z</time>
      </trkpt>
      <trkpt lat="43.21937" lon="0.89359">
        <ele>423</ele>
        <time>2019-02-17T14:03:37.000Z</time>
      </trkpt>
      <trkpt lat="43.21938" lon="0.89357">
        <ele>423</ele>
        <time>2019-02-17T14:03:39.000Z</time>
      </trkpt>
      <trkpt lat="43.21939" lon="0.89355">
        <ele>423</ele>
        <time>2019-02-17T14:03:41.000Z</time>
      </trkpt>
      <trkpt lat="43.21941" lon="0.89354">
        <ele>423</ele>
        <time>2019-02-17T14:03:43.000Z</time>
      </trkpt>
      <trkpt lat="43.21942" lon="0.89352">
        <ele>423</ele>
        <time>2019-02-17T14:03:45.000Z</time>
      </trkpt>
      <trkpt lat="43.21944" lon="0.8935">
        <ele>423</ele>
        <time>2019-02-17T14:03:47.000Z</time>
      </trkpt>
      <trkpt lat="43.21944" lon="0.8935">
        <ele>423</ele>
        <time>2019-02-17T14:03:49.000Z</time>
      </trkpt>
      <trkpt lat="43.21944" lon="0.8935">
        <ele>423</ele>
        <time>2019-02-17T14:03:51.000Z</time>
      </trkpt>
      <trkpt lat="43.21944" lon="0.8935">
        <ele>423</ele>
        <time>2019-02-17T14:03:53.000Z</time>
      </trkpt>
      <trkpt lat="43.21945" lon="0.8935">
        <ele>423</ele>
        <time>2019-02-17T14:03:55.000Z</time>
      </trkpt>
      <trkpt lat="43.21944" lon="0.8935">
        <ele>423</ele>
        <time>2019-02-17T14:03:57.000Z</time>
      </trkpt>
      <trkpt lat="43.21944" lon="0.8935">
        <ele>423</ele>
        <time>2019-02-17T14:03:59.000Z</time>
      </trkpt>
      <trkpt lat="43.21944" lon="0.8935">
        <ele>423</ele>
        <time>2019-02-17T14:04:01.000Z</time>
      </trkpt>
      <trkpt lat="43.21944" lon="0.8935">
        <ele>423</ele>
        <time>2019-02-17T14:04:03.000Z</time>
      </trkpt>
      <trkpt lat="43.21944" lon="0.8935">
        <ele>423</ele>
        <time>2019-02-17T14:04:05.000Z</time>
      </trkpt>
      <trkpt lat="43.21943" lon="0.8935">
        <ele>423</ele>
        <time>2019-02-17T14:04:07.000Z</time>
      </trkpt>
      <trkpt lat="43.21944" lon="0.8935">
        <ele>423</ele>
        <time>2019-02-17T14:04:09.000Z</time>
      </trkpt>
      <trkpt lat="43.21944" lon="0.8935">
        <ele>423</ele>
        <time>2019-02-17T14:04:11.000Z</time>
      </trkpt>
      <trkpt lat="43.21944" lon="0.8935">
        <ele>423</ele>
        <time>2019-02-17T14:04:13.000Z</time>
      </trkpt>
      <trkpt lat="43.21944" lon="0.89349">
        <ele>423</ele>
        <time>2019-02-17T14:04:15.000Z</time>
      </trkpt>
      <trkpt lat="43.21944" lon="0.89349">
        <ele>423</ele>
        <time>2019-02-17T14:04:17.000Z</time>
      </trkpt>
      <trkpt lat="43.21944" lon="0.89349">
        <ele>423</ele>
        <time>2019-02-17T14:04:19.000Z</time>
      </trkpt>
      <trkpt lat="43.21945" lon="0.89349">
        <ele>423</ele>
        <time>2019-02-17T14:04:21.000Z</time>
      </trkpt>
      <trkpt lat="43.21945" lon="0.89349">
        <ele>423</ele>
        <time>2019-02-17T14:04:23.000Z</time>
      </trkpt>
      <trkpt lat="43.21945" lon="0.89349">
        <ele>423</ele>
        <time>2019-02-17T14:04:25.000Z</time>
      </trkpt>
      <trkpt lat="43.21945" lon="0.89349">
        <ele>423</ele>
        <time>2019-02-17T14:04:27.000Z</time>
      </trkpt>
      <trkpt lat="43.21944" lon="0.89349">
        <ele>423</ele>
        <time>2019-02-17T14:04:29.000Z</time>
      </trkpt>
      <trkpt lat="43.21944" lon="0.89349">
        <ele>423</ele>
        <time>2019-02-17T14:04:31.000Z</time>
      </trkpt>
      <trkpt lat="43.21944" lon="0.89349">
        <ele>423</ele>
        <time>2019-02-17T14:04:33.000Z</time>
      </trkpt>
      <trkpt lat="43.21944" lon="0.89349">
        <ele>423</ele>
        <time>2019-02-17T14:04:35.000Z</time>
      </trkpt>
      <trkpt lat="43.21944" lon="0.89349">
        <ele>423</ele>
        <time>2019-02-17T14:04:37.000Z</time>
      </trkpt>
      <trkpt lat="43.21944" lon="0.89349">
        <ele>423</ele>
        <time>2019-02-17T14:04:39.000Z</time>
      </trkpt>
      <trkpt lat="43.21943" lon="0.89349">
        <ele>423</ele>
        <time>2019-02-17T14:04:41.000Z</time>
      </trkpt>
      <trkpt lat="43.21943" lon="0.89348">
        <ele>423</ele>
        <time>2019-02-17T14:04:43.000Z</time>
      </trkpt>
      <trkpt lat="43.21943" lon="0.89348">
        <ele>423</ele>
        <time>2019-02-17T14:04:45.000Z</time>
      </trkpt>
      <trkpt lat="43.21943" lon="0.89348">
        <ele>423</ele>
        <time>2019-02-17T14:04:47.000Z</time>
      </trkpt>
      <trkpt lat="43.21943" lon="0.89348">
        <ele>423</ele>
        <time>2019-02-17T14:04:49.000Z</time>
      </trkpt>
      <trkpt lat="43.21943" lon="0.89348">
        <ele>423</ele>
        <time>2019-02-17T14:04:51.000Z</time>
      </trkpt>
      <trkpt lat="43.21943" lon="0.89348">
        <ele>423</ele>
        <time>2019-02-17T14:04:53.000Z</time>
      </trkpt>
      <trkpt lat="43.21943" lon="0.89348">
        <ele>423</ele>
        <time>2019-02-17T14:04:55.000Z</time>
      </trkpt>
      <trkpt lat="43.21943" lon="0.89348">
        <ele>423</ele>
        <time>2019-02-17T14:04:57.000Z</time>
      </trkpt>
      <trkpt lat="43.21943" lon="0.89348">
        <ele>423</ele>
        <time>2019-02-17T14:04:59.000Z</time>
      </trkpt>
      <trkpt lat="43.21943" lon="0.89348">
        <ele>423</ele>
        <time>2019-02-17T14:05:01.000Z</time>
      </trkpt>
      <trkpt lat="43.21943" lon="0.89348">
        <ele>423</ele>
        <time>2019-02-17T14:05:03.000Z</time>
      </trkpt>
      <trkpt lat="43.21943" lon="0.89348">
        <ele>423</ele>
        <time>2019-02-17T14:05:05.000Z</time>
      </trkpt>
      <trkpt lat="43.21943" lon="0.89348">
        <ele>423</ele>
        <time>2019-02-17T14:05:07.000Z</time>
      </trkpt>
      <trkpt lat="43.21943" lon="0.89348">
        <ele>423</ele>
        <time>2019-02-17T14:05:09.000Z</time>
      </trkpt>
      <trkpt lat="43.21943" lon="0.89348">
        <ele>423</ele>
        <time>2019-02-17T14:05:11.000Z</time>
      </trkpt>
      <trkpt lat="43.21943" lon="0.89348">
        <ele>423</ele>
        <time>2019-02-17T14:05:13.000Z</time>
      </trkpt>
      <trkpt lat="43.21943" lon="0.89348">
        <ele>423</ele>
        <time>2019-02-17T14:05:15.000Z</time>
      </trkpt>
      <trkpt lat="43.21943" lon="0.89348">
        <ele>423</ele>
        <time>2019-02-17T14:05:17.000Z</time>
      </trkpt>
      <trkpt lat="43.21943" lon="0.89348">
        <ele>423</ele>
        <time>2019-02-17T14:05:19.000Z</time>
      </trkpt>
      <trkpt lat="43.21943" lon="0.89348">
        <ele>423</ele>
        <time>2019-02-17T14:05:21.000Z</time>
      </trkpt>
      <trkpt lat="43.21943" lon="0.89348">
        <ele>423</ele>
        <time>2019-02-17T14:05:23.000Z</time>
      </trkpt>
      <trkpt lat="43.21943" lon="0.89348">
        <ele>423</ele>
        <time>2019-02-17T14:05:25.000Z</time>
      </trkpt>
      <trkpt lat="43.21943" lon="0.89348">
        <ele>423</ele>
        <time>2019-02-17T14:05:27.000Z</time>
      </trkpt>
      <trkpt lat="43.21943" lon="0.89348">
        <ele>423</ele>
        <time>2019-02-17T14:05:29.000Z</time>
      </trkpt>
      <trkpt lat="43.21943" lon="0.89348">
        <ele>423</ele>
        <time>2019-02-17T14:05:31.000Z</time>
      </trkpt>
      <trkpt lat="43.21943" lon="0.89348">
        <ele>423</ele>
        <time>2019-02-17T14:05:33.000Z</time>
      </trkpt>
      <trkpt lat="43.21943" lon="0.89348">
        <ele>423</ele>
        <time>2019-02-17T14:05:35.000Z</time>
      </trkpt>
      <trkpt lat="43.21943" lon="0.89348">
        <ele>423</ele>
        <time>2019-02-17T14:05:37.000Z</time>
      </trkpt>
      <trkpt lat="43.21943" lon="0.89348">
        <ele>423</ele>
        <time>2019-02-17T14:05:39.000Z</time>
      </trkpt>
      <trkpt lat="43.21943" lon="0.89348">
        <ele>423</ele>
        <time>2019-02-17T14:05:41.000Z</time>
      </trkpt>
      <trkpt lat="43.21943" lon="0.89348">
        <ele>423</ele>
        <time>2019-02-17T14:05:43.000Z</time>
      </trkpt>
      <trkpt lat="43.21943" lon="0.89348">
        <ele>423</ele>
        <time>2019-02-17T14:05:45.000Z</time>
      </trkpt>
      <trkpt lat="43.21943" lon="0.89348">
        <ele>423</ele>
        <time>2019-02-17T14:05:47.000Z</time>
      </trkpt>
      <trkpt lat="43.21943" lon="0.89348">
        <ele>423</ele>
        <time>2019-02-17T14:05:49.000Z</time>
      </trkpt>
      <trkpt lat="43.21943" lon="0.89348">
        <ele>423</ele>
        <time>2019-02-17T14:05:51.000Z</time>
      </trkpt>
      <trkpt lat="43.21943" lon="0.89349">
        <ele>423</ele>
        <time>2019-02-17T14:05:53.000Z</time>
      </trkpt>
      <trkpt lat="43.21943" lon="0.89349">
        <ele>423</ele>
        <time>2019-02-17T14:05:55.000Z</time>
      </trkpt>
      <trkpt lat="43.21943" lon="0.89349">
        <ele>423</ele>
        <time>2019-02-17T14:05:57.000Z</time>
      </trkpt>
      <trkpt lat="43.21943" lon="0.89349">
        <ele>423</ele>
        <time>2019-02-17T14:05:59.000Z</time>
      </trkpt>
      <trkpt lat="43.21943" lon="0.89349">
        <ele>423</ele>
        <time>2019-02-17T14:06:01.000Z</time>
      </trkpt>
      <trkpt lat="43.21943" lon="0.89349">
        <ele>423</ele>
        <time>2019-02-17T14:06:03.000Z</time>
      </trkpt>
      <trkpt lat="43.21943" lon="0.89349">
        <ele>423</ele>
        <time>2019-02-17T14:06:05.000Z</time>
      </trkpt>
      <trkpt lat="43.21943" lon="0.89349">
        <ele>423</ele>
        <time>2019-02-17T14:06:07.000Z</time>
      </trkpt>
      <trkpt lat="43.21943" lon="0.89349">
        <ele>423</ele>
        <time>2019-02-17T14:06:09.000Z</time>
      </trkpt>
      <trkpt lat="43.21943" lon="0.89349">
        <ele>423</ele>
        <time>2019-02-17T14:06:11.000Z</time>
      </trkpt>
      <trkpt lat="43.21943" lon="0.89349">
        <ele>423</ele>
        <time>2019-02-17T14:06:13.000Z</time>
      </trkpt>
      <trkpt lat="43.21944" lon="0.89349">
        <ele>423</ele>
        <time>2019-02-17T14:06:15.000Z</time>
      </trkpt>
      <trkpt lat="43.21943" lon="0.89349">
        <ele>423</ele>
        <time>2019-02-17T14:06:17.000Z</time>
      </trkpt>
      <trkpt lat="43.21944" lon="0.89349">
        <ele>423</ele>
        <time>2019-02-17T14:06:19.000Z</time>
      </trkpt>
      <trkpt lat="43.21943" lon="0.89349">
        <ele>423</ele>
        <time>2019-02-17T14:06:21.000Z</time>
      </trkpt>
      <trkpt lat="43.21944" lon="0.89349">
        <ele>423</ele>
        <time>2019-02-17T14:06:23.000Z</time>
      </trkpt>
      <trkpt lat="43.21944" lon="0.89348">
        <ele>423</ele>
        <time>2019-02-17T14:06:25.000Z</time>
      </trkpt>
      <trkpt lat="43.21944" lon="0.89348">
        <ele>423</ele>
        <time>2019-02-17T14:06:27.000Z</time>
      </trkpt>
      <trkpt lat="43.21943" lon="0.89348">
        <ele>423</ele>
        <time>2019-02-17T14:06:29.000Z</time>
      </trkpt>
      <trkpt lat="43.21943" lon="0.89348">
        <ele>423</ele>
        <time>2019-02-17T14:06:31.000Z</time>
      </trkpt>
      <trkpt lat="43.21943" lon="0.89348">
        <ele>423</ele>
        <time>2019-02-17T14:06:33.000Z</time>
      </trkpt>
      <trkpt lat="43.21943" lon="0.89348">
        <ele>423</ele>
        <time>2019-02-17T14:06:35.000Z</time>
      </trkpt>
      <trkpt lat="43.21944" lon="0.89348">
        <ele>423</ele>
        <time>2019-02-17T14:06:37.000Z</time>
      </trkpt>
      <trkpt lat="43.21944" lon="0.89348">
        <ele>423</ele>
        <time>2019-02-17T14:06:39.000Z</time>
      </trkpt>
      <trkpt lat="43.21944" lon="0.89348">
        <ele>423</ele>
        <time>2019-02-17T14:06:41.000Z</time>
      </trkpt>
      <trkpt lat="43.21944" lon="0.89347">
        <ele>423</ele>
        <time>2019-02-17T14:06:43.000Z</time>
      </trkpt>
      <trkpt lat="43.21945" lon="0.89345">
        <ele>423</ele>
        <time>2019-02-17T14:06:45.000Z</time>
      </trkpt>
      <trkpt lat="43.21945" lon="0.89344">
        <ele>423</ele>
        <time>2019-02-17T14:06:47.000Z</time>
      </trkpt>
      <trkpt lat="43.21945" lon="0.89344">
        <ele>423</ele>
        <time>2019-02-17T14:06:49.000Z</time>
      </trkpt>
      <trkpt lat="43.21944" lon="0.89343">
        <ele>423</ele>
        <time>2019-02-17T14:06:51.000Z</time>
      </trkpt>
      <trkpt lat="43.21944" lon="0.89343">
        <ele>423</ele>
        <time>2019-02-17T14:06:53.000Z</time>
      </trkpt>
      <trkpt lat="43.21945" lon="0.89343">
        <ele>423</ele>
        <time>2019-02-17T14:06:55.000Z</time>
      </trkpt>
      <trkpt lat="43.21945" lon="0.89343">
        <ele>423</ele>
        <time>2019-02-17T14:06:57.000Z</time>
      </trkpt>
      <trkpt lat="43.21945" lon="0.89343">
        <ele>423</ele>
        <time>2019-02-17T14:06:59.000Z</time>
      </trkpt>
      <trkpt lat="43.21945" lon="0.89343">
        <ele>423</ele>
        <time>2019-02-17T14:07:01.000Z</time>
      </trkpt>
      <trkpt lat="43.21945" lon="0.89343">
        <ele>423</ele>
        <time>2019-02-17T14:07:03.000Z</time>
      </trkpt>
      <trkpt lat="43.21945" lon="0.89344">
        <ele>423</ele>
        <time>2019-02-17T14:07:05.000Z</time>
      </trkpt>
      <trkpt lat="43.21945" lon="0.89345">
        <ele>423</ele>
        <time>2019-02-17T14:07:07.000Z</time>
      </trkpt>
      <trkpt lat="43.21946" lon="0.89346">
        <ele>423</ele>
        <time>2019-02-17T14:07:09.000Z</time>
      </trkpt>
      <trkpt lat="43.21946" lon="0.89346">
        <ele>423</ele>
        <time>2019-02-17T14:07:11.000Z</time>
      </trkpt>
      <trkpt lat="43.21947" lon="0.89346">
        <ele>423</ele>
        <time>2019-02-17T14:07:13.000Z</time>
      </trkpt>
      <trkpt lat="43.21948" lon="0.89346">
        <ele>423</ele>
        <time>2019-02-17T14:07:15.000Z</time>
      </trkpt>
      <trkpt lat="43.2195" lon="0.89345">
        <ele>423</ele>
        <time>2019-02-17T14:07:17.000Z</time>
      </trkpt>
      <trkpt lat="43.21952" lon="0.89347">
        <ele>423</ele>
        <time>2019-02-17T14:07:19.000Z</time>
      </trkpt>
      <trkpt lat="43.21952" lon="0.89349">
        <ele>423</ele>
        <time>2019-02-17T14:07:21.000Z</time>
      </trkpt>
      <trkpt lat="43.21953" lon="0.89352">
        <ele>423</ele>
        <time>2019-02-17T14:07:23.000Z</time>
      </trkpt>
      <trkpt lat="43.21954" lon="0.89354">
        <ele>423</ele>
        <time>2019-02-17T14:07:25.000Z</time>
      </trkpt>
      <trkpt lat="43.21955" lon="0.89356">
        <ele>424</ele>
        <time>2019-02-17T14:07:27.000Z</time>
      </trkpt>
      <trkpt lat="43.21955" lon="0.89359">
        <ele>424</ele>
        <time>2019-02-17T14:07:29.000Z</time>
      </trkpt>
      <trkpt lat="43.21956" lon="0.89361">
        <ele>424</ele>
        <time>2019-02-17T14:07:31.000Z</time>
      </trkpt>
      <trkpt lat="43.21957" lon="0.89364">
        <ele>424</ele>
        <time>2019-02-17T14:07:33.000Z</time>
      </trkpt>
      <trkpt lat="43.21959" lon="0.89365">
        <ele>424</ele>
        <time>2019-02-17T14:07:35.000Z</time>
      </trkpt>
      <trkpt lat="43.2196" lon="0.89368">
        <ele>424</ele>
        <time>2019-02-17T14:07:37.000Z</time>
      </trkpt>
      <trkpt lat="43.2196" lon="0.89371">
        <ele>424</ele>
        <time>2019-02-17T14:07:39.000Z</time>
      </trkpt>
      <trkpt lat="43.21961" lon="0.89374">
        <ele>424</ele>
        <time>2019-02-17T14:07:41.000Z</time>
      </trkpt>
      <trkpt lat="43.21962" lon="0.89377">
        <ele>424</ele>
        <time>2019-02-17T14:07:43.000Z</time>
      </trkpt>
      <trkpt lat="43.21962" lon="0.8938">
        <ele>424</ele>
        <time>2019-02-17T14:07:45.000Z</time>
      </trkpt>
      <trkpt lat="43.21963" lon="0.89383">
        <ele>424</ele>
        <time>2019-02-17T14:07:47.000Z</time>
      </trkpt>
      <trkpt lat="43.21964" lon="0.89386">
        <ele>424</ele>
        <time>2019-02-17T14:07:49.000Z</time>
      </trkpt>
      <trkpt lat="43.21964" lon="0.89388">
        <ele>424</ele>
        <time>2019-02-17T14:07:51.000Z</time>
      </trkpt>
      <trkpt lat="43.21965" lon="0.8939">
        <ele>424</ele>
        <time>2019-02-17T14:07:53.000Z</time>
      </trkpt>
      <trkpt lat="43.21966" lon="0.89392">
        <ele>424</ele>
        <time>2019-02-17T14:07:55.000Z</time>
      </trkpt>
      <trkpt lat="43.21967" lon="0.89395">
        <ele>425</ele>
        <time>2019-02-17T14:07:57.000Z</time>
      </trkpt>
      <trkpt lat="43.21968" lon="0.89397">
        <ele>425</ele>
        <time>2019-02-17T14:07:59.000Z</time>
      </trkpt>
      <trkpt lat="43.21968" lon="0.89398">
        <ele>425</ele>
        <time>2019-02-17T14:08:01.000Z</time>
      </trkpt>
      <trkpt lat="43.21969" lon="0.894">
        <ele>425</ele>
        <time>2019-02-17T14:08:03.000Z</time>
      </trkpt>
      <trkpt lat="43.2197" lon="0.89402">
        <ele>425</ele>
        <time>2019-02-17T14:08:05.000Z</time>
      </trkpt>
      <trkpt lat="43.21971" lon="0.89404">
        <ele>425</ele>
        <time>2019-02-17T14:08:07.000Z</time>
      </trkpt>
      <trkpt lat="43.21972" lon="0.89407">
        <ele>425</ele>
        <time>2019-02-17T14:08:09.000Z</time>
      </trkpt>
      <trkpt lat="43.21973" lon="0.89409">
        <ele>426</ele>
        <time>2019-02-17T14:08:11.000Z</time>
      </trkpt>
      <trkpt lat="43.21974" lon="0.89412">
        <ele>426</ele>
        <time>2019-02-17T14:08:13.000Z</time>
      </trkpt>
      <trkpt lat="43.21976" lon="0.89414">
        <ele>426</ele>
        <time>2019-02-17T14:08:15.000Z</time>
      </trkpt>
      <trkpt lat="43.21977" lon="0.89416">
        <ele>426</ele>
        <time>2019-02-17T14:08:17.000Z</time>
      </trkpt>
      <trkpt lat="43.21978" lon="0.89418">
        <ele>426</ele>
        <time>2019-02-17T14:08:19.000Z</time>
      </trkpt>
      <trkpt lat="43.2198" lon="0.89421">
        <ele>426</ele>
        <time>2019-02-17T14:08:21.000Z</time>
      </trkpt>
      <trkpt lat="43.21981" lon="0.89423">
        <ele>426</ele>
        <time>2019-02-17T14:08:23.000Z</time>
      </trkpt>
      <trkpt lat="43.21982" lon="0.89426">
        <ele>427</ele>
        <time>2019-02-17T14:08:25.000Z</time>
      </trkpt>
      <trkpt lat="43.21983" lon="0.89428">
        <ele>427</ele>
        <time>2019-02-17T14:08:27.000Z</time>
      </trkpt>
      <trkpt lat="43.21985" lon="0.89431">
        <ele>427</ele>
        <time>2019-02-17T14:08:29.000Z</time>
      </trkpt>
      <trkpt lat="43.21986" lon="0.89432">
        <ele>427</ele>
        <time>2019-02-17T14:08:31.000Z</time>
      </trkpt>
      <trkpt lat="43.21988" lon="0.89435">
        <ele>427</ele>
        <time>2019-02-17T14:08:33.000Z</time>
      </trkpt>
      <trkpt lat="43.21989" lon="0.89437">
        <ele>427</ele>
        <time>2019-02-17T14:08:35.000Z</time>
      </trkpt>
      <trkpt lat="43.21991" lon="0.89439">
        <ele>428</ele>
        <time>2019-02-17T14:08:37.000Z</time>
      </trkpt>
      <trkpt lat="43.21992" lon="0.89441">
        <ele>428</ele>
        <time>2019-02-17T14:08:39.000Z</time>
      </trkpt>
      <trkpt lat="43.21994" lon="0.89444">
        <ele>428</ele>
        <time>2019-02-17T14:08:41.000Z</time>
      </trkpt>
      <trkpt lat="43.21995" lon="0.89445">
        <ele>428</ele>
        <time>2019-02-17T14:08:43.000Z</time>
      </trkpt>
      <trkpt lat="43.21997" lon="0.89448">
        <ele>428</ele>
        <time>2019-02-17T14:08:45.000Z</time>
      </trkpt>
      <trkpt lat="43.21999" lon="0.8945">
        <ele>428</ele>
        <time>2019-02-17T14:08:47.000Z</time>
      </trkpt>
      <trkpt lat="43.22" lon="0.89452">
        <ele>429</ele>
        <time>2019-02-17T14:08:49.000Z</time>
      </trkpt>
      <trkpt lat="43.22001" lon="0.89454">
        <ele>429</ele>
        <time>2019-02-17T14:08:51.000Z</time>
      </trkpt>
      <trkpt lat="43.22003" lon="0.89457">
        <ele>429</ele>
        <time>2019-02-17T14:08:53.000Z</time>
      </trkpt>
      <trkpt lat="43.22005" lon="0.89459">
        <ele>429</ele>
        <time>2019-02-17T14:08:55.000Z</time>
      </trkpt>
      <trkpt lat="43.22006" lon="0.89462">
        <ele>429</ele>
        <time>2019-02-17T14:08:57.000Z</time>
      </trkpt>
      <trkpt lat="43.22008" lon="0.89463">
        <ele>429</ele>
        <time>2019-02-17T14:08:59.000Z</time>
      </trkpt>
      <trkpt lat="43.22009" lon="0.89464">
        <ele>429</ele>
        <time>2019-02-17T14:09:01.000Z</time>
      </trkpt>
      <trkpt lat="43.22011" lon="0.89466">
        <ele>430</ele>
        <time>2019-02-17T14:09:03.000Z</time>
      </trkpt>
      <trkpt lat="43.22012" lon="0.89468">
        <ele>430</ele>
        <time>2019-02-17T14:09:05.000Z</time>
      </trkpt>
      <trkpt lat="43.22014" lon="0.8947">
        <ele>430</ele>
        <time>2019-02-17T14:09:07.000Z</time>
      </trkpt>
      <trkpt lat="43.22015" lon="0.89471">
        <ele>430</ele>
        <time>2019-02-17T14:09:09.000Z</time>
      </trkpt>
      <trkpt lat="43.22017" lon="0.89473">
        <ele>430</ele>
        <time>2019-02-17T14:09:11.000Z</time>
      </trkpt>
      <trkpt lat="43.22018" lon="0.89474">
        <ele>430</ele>
        <time>2019-02-17T14:09:13.000Z</time>
      </trkpt>
      <trkpt lat="43.2202" lon="0.89476">
        <ele>430</ele>
        <time>2019-02-17T14:09:15.000Z</time>
      </trkpt>
      <trkpt lat="43.22021" lon="0.89478">
        <ele>431</ele>
        <time>2019-02-17T14:09:17.000Z</time>
      </trkpt>
      <trkpt lat="43.22023" lon="0.8948">
        <ele>431</ele>
        <time>2019-02-17T14:09:19.000Z</time>
      </trkpt>
      <trkpt lat="43.22024" lon="0.89481">
        <ele>431</ele>
        <time>2019-02-17T14:09:21.000Z</time>
      </trkpt>
      <trkpt lat="43.22026" lon="0.89483">
        <ele>431</ele>
        <time>2019-02-17T14:09:23.000Z</time>
      </trkpt>
      <trkpt lat="43.22027" lon="0.89484">
        <ele>431</ele>
        <time>2019-02-17T14:09:25.000Z</time>
      </trkpt>
      <trkpt lat="43.22029" lon="0.89486">
        <ele>431</ele>
        <time>2019-02-17T14:09:27.000Z</time>
      </trkpt>
      <trkpt lat="43.22031" lon="0.89487">
        <ele>431</ele>
        <time>2019-02-17T14:09:29.000Z</time>
      </trkpt>
      <trkpt lat="43.22033" lon="0.89489">
        <ele>432</ele>
        <time>2019-02-17T14:09:31.000Z</time>
      </trkpt>
      <trkpt lat="43.22035" lon="0.8949">
        <ele>432</ele>
        <time>2019-02-17T14:09:33.000Z</time>
      </trkpt>
      <trkpt lat="43.22036" lon="0.89491">
        <ele>432</ele>
        <time>2019-02-17T14:09:35.000Z</time>
      </trkpt>
      <trkpt lat="43.22038" lon="0.89492">
        <ele>432</ele>
        <time>2019-02-17T14:09:37.000Z</time>
      </trkpt>
      <trkpt lat="43.22039" lon="0.89494">
        <ele>432</ele>
        <time>2019-02-17T14:09:39.000Z</time>
      </trkpt>
      <trkpt lat="43.22041" lon="0.89495">
        <ele>432</ele>
        <time>2019-02-17T14:09:41.000Z</time>
      </trkpt>
      <trkpt lat="43.22041" lon="0.89496">
        <ele>432</ele>
        <time>2019-02-17T14:09:43.000Z</time>
      </trkpt>
      <trkpt lat="43.22042" lon="0.89496">
        <ele>432</ele>
        <time>2019-02-17T14:09:45.000Z</time>
      </trkpt>
      <trkpt lat="43.22043" lon="0.89498">
        <ele>432</ele>
        <time>2019-02-17T14:09:47.000Z</time>
      </trkpt>
      <trkpt lat="43.22044" lon="0.89499">
        <ele>433</ele>
        <time>2019-02-17T14:09:49.000Z</time>
      </trkpt>
      <trkpt lat="43.22045" lon="0.89501">
        <ele>433</ele>
        <time>2019-02-17T14:09:51.000Z</time>
      </trkpt>
      <trkpt lat="43.22046" lon="0.89502">
        <ele>433</ele>
        <time>2019-02-17T14:09:53.000Z</time>
      </trkpt>
      <trkpt lat="43.22047" lon="0.89504">
        <ele>433</ele>
        <time>2019-02-17T14:09:55.000Z</time>
      </trkpt>
      <trkpt lat="43.22048" lon="0.89506">
        <ele>433</ele>
        <time>2019-02-17T14:09:57.000Z</time>
      </trkpt>
      <trkpt lat="43.22049" lon="0.89508">
        <ele>433</ele>
        <time>2019-02-17T14:09:59.000Z</time>
      </trkpt>
      <trkpt lat="43.22051" lon="0.89509">
        <ele>434</ele>
        <time>2019-02-17T14:10:01.000Z</time>
      </trkpt>
      <trkpt lat="43.22052" lon="0.89511">
        <ele>434</ele>
        <time>2019-02-17T14:10:03.000Z</time>
      </trkpt>
      <trkpt lat="43.22053" lon="0.89512">
        <ele>434</ele>
        <time>2019-02-17T14:10:05.000Z</time>
      </trkpt>
      <trkpt lat="43.22054" lon="0.89513">
        <ele>434</ele>
        <time>2019-02-17T14:10:07.000Z</time>
      </trkpt>
      <trkpt lat="43.22055" lon="0.89514">
        <ele>434</ele>
        <time>2019-02-17T14:10:09.000Z</time>
      </trkpt>
      <trkpt lat="43.22056" lon="0.89516">
        <ele>434</ele>
        <time>2019-02-17T14:10:11.000Z</time>
      </trkpt>
      <trkpt lat="43.22058" lon="0.89517">
        <ele>434</ele>
        <time>2019-02-17T14:10:13.000Z</time>
      </trkpt>
      <trkpt lat="43.2206" lon="0.89518">
        <ele>434</ele>
        <time>2019-02-17T14:10:15.000Z</time>
      </trkpt>
      <trkpt lat="43.22061" lon="0.89519">
        <ele>434</ele>
        <time>2019-02-17T14:10:17.000Z</time>
      </trkpt>
      <trkpt lat="43.22063" lon="0.89521">
        <ele>435</ele>
        <time>2019-02-17T14:10:19.000Z</time>
      </trkpt>
      <trkpt lat="43.22064" lon="0.89522">
        <ele>435</ele>
        <time>2019-02-17T14:10:21.000Z</time>
      </trkpt>
      <trkpt lat="43.22066" lon="0.89524">
        <ele>435</ele>
        <time>2019-02-17T14:10:23.000Z</time>
      </trkpt>
      <trkpt lat="43.22067" lon="0.89525">
        <ele>435</ele>
        <time>2019-02-17T14:10:25.000Z</time>
      </trkpt>
      <trkpt lat="43.22069" lon="0.89526">
        <ele>435</ele>
        <time>2019-02-17T14:10:27.000Z</time>
      </trkpt>
      <trkpt lat="43.22071" lon="0.89527">
        <ele>435</ele>
        <time>2019-02-17T14:10:29.000Z</time>
      </trkpt>
      <trkpt lat="43.22073" lon="0.89529">
        <ele>435</ele>
        <time>2019-02-17T14:10:31.000Z</time>
      </trkpt>
      <trkpt lat="43.22074" lon="0.8953">
        <ele>436</ele>
        <time>2019-02-17T14:10:33.000Z</time>
      </trkpt>
      <trkpt lat="43.22076" lon="0.89532">
        <ele>436</ele>
        <time>2019-02-17T14:10:35.000Z</time>
      </trkpt>
      <trkpt lat="43.22078" lon="0.89533">
        <ele>436</ele>
        <time>2019-02-17T14:10:37.000Z</time>
      </trkpt>
      <trkpt lat="43.22079" lon="0.89535">
        <ele>436</ele>
        <time>2019-02-17T14:10:39.000Z</time>
      </trkpt>
      <trkpt lat="43.2208" lon="0.89537">
        <ele>436</ele>
        <time>2019-02-17T14:10:41.000Z</time>
      </trkpt>
      <trkpt lat="43.22082" lon="0.89538">
        <ele>436</ele>
        <time>2019-02-17T14:10:43.000Z</time>
      </trkpt>
      <trkpt lat="43.22083" lon="0.8954">
        <ele>436</ele>
        <time>2019-02-17T14:10:45.000Z</time>
      </trkpt>
      <trkpt lat="43.22085" lon="0.89541">
        <ele>437</ele>
        <time>2019-02-17T14:10:47.000Z</time>
      </trkpt>
      <trkpt lat="43.22086" lon="0.89543">
        <ele>437</ele>
        <time>2019-02-17T14:10:49.000Z</time>
      </trkpt>
      <trkpt lat="43.22087" lon="0.89544">
        <ele>437</ele>
        <time>2019-02-17T14:10:51.000Z</time>
      </trkpt>
      <trkpt lat="43.22089" lon="0.89546">
        <ele>437</ele>
        <time>2019-02-17T14:10:53.000Z</time>
      </trkpt>
      <trkpt lat="43.2209" lon="0.89548">
        <ele>437</ele>
        <time>2019-02-17T14:10:55.000Z</time>
      </trkpt>
      <trkpt lat="43.22092" lon="0.89549">
        <ele>437</ele>
        <time>2019-02-17T14:10:57.000Z</time>
      </trkpt>
      <trkpt lat="43.22094" lon="0.8955">
        <ele>438</ele>
        <time>2019-02-17T14:10:59.000Z</time>
      </trkpt>
      <trkpt lat="43.22096" lon="0.89552">
        <ele>438</ele>
        <time>2019-02-17T14:11:01.000Z</time>
      </trkpt>
      <trkpt lat="43.22098" lon="0.89553">
        <ele>438</ele>
        <time>2019-02-17T14:11:03.000Z</time>
      </trkpt>
      <trkpt lat="43.22099" lon="0.89554">
        <ele>438</ele>
        <time>2019-02-17T14:11:05.000Z</time>
      </trkpt>
      <trkpt lat="43.22101" lon="0.89555">
        <ele>438</ele>
        <time>2019-02-17T14:11:07.000Z</time>
      </trkpt>
      <trkpt lat="43.22103" lon="0.89556">
        <ele>438</ele>
        <time>2019-02-17T14:11:09.000Z</time>
      </trkpt>
      <trkpt lat="43.22105" lon="0.89557">
        <ele>438</ele>
        <time>2019-02-17T14:11:11.000Z</time>
      </trkpt>
      <trkpt lat="43.22107" lon="0.89559">
        <ele>439</ele>
        <time>2019-02-17T14:11:13.000Z</time>
      </trkpt>
      <trkpt lat="43.22108" lon="0.8956">
        <ele>439</ele>
        <time>2019-02-17T14:11:15.000Z</time>
      </trkpt>
      <trkpt lat="43.2211" lon="0.89562">
        <ele>439</ele>
        <time>2019-02-17T14:11:17.000Z</time>
      </trkpt>
      <trkpt lat="43.22111" lon="0.89564">
        <ele>439</ele>
        <time>2019-02-17T14:11:19.000Z</time>
      </trkpt>
      <trkpt lat="43.22113" lon="0.89565">
        <ele>439</ele>
        <time>2019-02-17T14:11:21.000Z</time>
      </trkpt>
      <trkpt lat="43.22114" lon="0.89567">
        <ele>439</ele>
        <time>2019-02-17T14:11:23.000Z</time>
      </trkpt>
      <trkpt lat="43.22116" lon="0.89568">
        <ele>439</ele>
        <time>2019-02-17T14:11:25.000Z</time>
      </trkpt>
      <trkpt lat="43.22117" lon="0.89569">
        <ele>439</ele>
        <time>2019-02-17T14:11:27.000Z</time>
      </trkpt>
      <trkpt lat="43.22119" lon="0.89571">
        <ele>439</ele>
        <time>2019-02-17T14:11:29.000Z</time>
      </trkpt>
      <trkpt lat="43.22121" lon="0.89572">
        <ele>440</ele>
        <time>2019-02-17T14:11:31.000Z</time>
      </trkpt>
      <trkpt lat="43.22123" lon="0.89573">
        <ele>440</ele>
        <time>2019-02-17T14:11:33.000Z</time>
      </trkpt>
      <trkpt lat="43.22124" lon="0.89574">
        <ele>440</ele>
        <time>2019-02-17T14:11:35.000Z</time>
      </trkpt>
      <trkpt lat="43.22126" lon="0.89575">
        <ele>440</ele>
        <time>2019-02-17T14:11:37.000Z</time>
      </trkpt>
      <trkpt lat="43.22127" lon="0.89577">
        <ele>440</ele>
        <time>2019-02-17T14:11:39.000Z</time>
      </trkpt>
      <trkpt lat="43.22129" lon="0.89579">
        <ele>440</ele>
        <time>2019-02-17T14:11:41.000Z</time>
      </trkpt>
      <trkpt lat="43.2213" lon="0.8958">
        <ele>440</ele>
        <time>2019-02-17T14:11:43.000Z</time>
      </trkpt>
      <trkpt lat="43.22132" lon="0.89582">
        <ele>440</ele>
        <time>2019-02-17T14:11:45.000Z</time>
      </trkpt>
      <trkpt lat="43.22133" lon="0.89584">
        <ele>440</ele>
        <time>2019-02-17T14:11:47.000Z</time>
      </trkpt>
      <trkpt lat="43.22135" lon="0.89585">
        <ele>441</ele>
        <time>2019-02-17T14:11:49.000Z</time>
      </trkpt>
      <trkpt lat="43.22136" lon="0.89587">
        <ele>441</ele>
        <time>2019-02-17T14:11:51.000Z</time>
      </trkpt>
      <trkpt lat="43.22137" lon="0.89588">
        <ele>441</ele>
        <time>2019-02-17T14:11:53.000Z</time>
      </trkpt>
      <trkpt lat="43.22139" lon="0.8959">
        <ele>441</ele>
        <time>2019-02-17T14:11:55.000Z</time>
      </trkpt>
      <trkpt lat="43.2214" lon="0.89591">
        <ele>441</ele>
        <time>2019-02-17T14:11:57.000Z</time>
      </trkpt>
      <trkpt lat="43.22141" lon="0.89593">
        <ele>441</ele>
        <time>2019-02-17T14:11:59.000Z</time>
      </trkpt>
      <trkpt lat="43.22143" lon="0.89595">
        <ele>441</ele>
        <time>2019-02-17T14:12:01.000Z</time>
      </trkpt>
      <trkpt lat="43.22144" lon="0.89597">
        <ele>441</ele>
        <time>2019-02-17T14:12:03.000Z</time>
      </trkpt>
      <trkpt lat="43.22146" lon="0.89598">
        <ele>441</ele>
        <time>2019-02-17T14:12:05.000Z</time>
      </trkpt>
      <trkpt lat="43.22148" lon="0.89599">
        <ele>442</ele>
        <time>2019-02-17T14:12:07.000Z</time>
      </trkpt>
      <trkpt lat="43.22149" lon="0.896">
        <ele>442</ele>
        <time>2019-02-17T14:12:09.000Z</time>
      </trkpt>
      <trkpt lat="43.22151" lon="0.89601">
        <ele>442</ele>
        <time>2019-02-17T14:12:11.000Z</time>
      </trkpt>
      <trkpt lat="43.22152" lon="0.89602">
        <ele>442</ele>
        <time>2019-02-17T14:12:13.000Z</time>
      </trkpt>
      <trkpt lat="43.22154" lon="0.89604">
        <ele>442</ele>
        <time>2019-02-17T14:12:15.000Z</time>
      </trkpt>
      <trkpt lat="43.22156" lon="0.89605">
        <ele>442</ele>
        <time>2019-02-17T14:12:17.000Z</time>
      </trkpt>
      <trkpt lat="43.22158" lon="0.89606">
        <ele>442</ele>
        <time>2019-02-17T14:12:19.000Z</time>
      </trkpt>
      <trkpt lat="43.22159" lon="0.89607">
        <ele>442</ele>
        <time>2019-02-17T14:12:21.000Z</time>
      </trkpt>
      <trkpt lat="43.2216" lon="0.89609">
        <ele>442</ele>
        <time>2019-02-17T14:12:23.000Z</time>
      </trkpt>
      <trkpt lat="43.22162" lon="0.89611">
        <ele>442</ele>
        <time>2019-02-17T14:12:25.000Z</time>
      </trkpt>
      <trkpt lat="43.22163" lon="0.89614">
        <ele>443</ele>
        <time>2019-02-17T14:12:27.000Z</time>
      </trkpt>
      <trkpt lat="43.22164" lon="0.89616">
        <ele>443</ele>
        <time>2019-02-17T14:12:29.000Z</time>
      </trkpt>
      <trkpt lat="43.22166" lon="0.89617">
        <ele>443</ele>
        <time>2019-02-17T14:12:31.000Z</time>
      </trkpt>
      <trkpt lat="43.22167" lon="0.89619">
        <ele>443</ele>
        <time>2019-02-17T14:12:33.000Z</time>
      </trkpt>
      <trkpt lat="43.22168" lon="0.89621">
        <ele>443</ele>
        <time>2019-02-17T14:12:35.000Z</time>
      </trkpt>
      <trkpt lat="43.22169" lon="0.89623">
        <ele>443</ele>
        <time>2019-02-17T14:12:37.000Z</time>
      </trkpt>
      <trkpt lat="43.22171" lon="0.89624">
        <ele>443</ele>
        <time>2019-02-17T14:12:39.000Z</time>
      </trkpt>
      <trkpt lat="43.22172" lon="0.89625">
        <ele>443</ele>
        <time>2019-02-17T14:12:41.000Z</time>
      </trkpt>
      <trkpt lat="43.22174" lon="0.89626">
        <ele>443</ele>
        <time>2019-02-17T14:12:43.000Z</time>
      </trkpt>
      <trkpt lat="43.22176" lon="0.89627">
        <ele>444</ele>
        <time>2019-02-17T14:12:45.000Z</time>
      </trkpt>
      <trkpt lat="43.22178" lon="0.89629">
        <ele>444</ele>
        <time>2019-02-17T14:12:47.000Z</time>
      </trkpt>
      <trkpt lat="43.2218" lon="0.8963">
        <ele>444</ele>
        <time>2019-02-17T14:12:49.000Z</time>
      </trkpt>
      <trkpt lat="43.22182" lon="0.89632">
        <ele>444</ele>
        <time>2019-02-17T14:12:51.000Z</time>
      </trkpt>
      <trkpt lat="43.22183" lon="0.89633">
        <ele>444</ele>
        <time>2019-02-17T14:12:53.000Z</time>
      </trkpt>
      <trkpt lat="43.22185" lon="0.89633">
        <ele>443</ele>
        <time>2019-02-17T14:12:55.000Z</time>
      </trkpt>
      <trkpt lat="43.22187" lon="0.89634">
        <ele>443</ele>
        <time>2019-02-17T14:12:57.000Z</time>
      </trkpt>
      <trkpt lat="43.22189" lon="0.89634">
        <ele>443</ele>
        <time>2019-02-17T14:12:59.000Z</time>
      </trkpt>
      <trkpt lat="43.2219" lon="0.89634">
        <ele>443</ele>
        <time>2019-02-17T14:13:01.000Z</time>
      </trkpt>
      <trkpt lat="43.22191" lon="0.89633">
        <ele>443</ele>
        <time>2019-02-17T14:13:03.000Z</time>
      </trkpt>
      <trkpt lat="43.22192" lon="0.89632">
        <ele>443</ele>
        <time>2019-02-17T14:13:05.000Z</time>
      </trkpt>
      <trkpt lat="43.22194" lon="0.8963">
        <ele>443</ele>
        <time>2019-02-17T14:13:07.000Z</time>
      </trkpt>
      <trkpt lat="43.22196" lon="0.89628">
        <ele>442</ele>
        <time>2019-02-17T14:13:09.000Z</time>
      </trkpt>
      <trkpt lat="43.22197" lon="0.89625">
        <ele>442</ele>
        <time>2019-02-17T14:13:11.000Z</time>
      </trkpt>
      <trkpt lat="43.22198" lon="0.89623">
        <ele>442</ele>
        <time>2019-02-17T14:13:13.000Z</time>
      </trkpt>
      <trkpt lat="43.22199" lon="0.89621">
        <ele>442</ele>
        <time>2019-02-17T14:13:15.000Z</time>
      </trkpt>
      <trkpt lat="43.22201" lon="0.89619">
        <ele>442</ele>
        <time>2019-02-17T14:13:17.000Z</time>
      </trkpt>
      <trkpt lat="43.22202" lon="0.89616">
        <ele>442</ele>
        <time>2019-02-17T14:13:19.000Z</time>
      </trkpt>
      <trkpt lat="43.22203" lon="0.89614">
        <ele>442</ele>
        <time>2019-02-17T14:13:21.000Z</time>
      </trkpt>
      <trkpt lat="43.22204" lon="0.89611">
        <ele>441</ele>
        <time>2019-02-17T14:13:23.000Z</time>
      </trkpt>
      <trkpt lat="43.22205" lon="0.89608">
        <ele>441</ele>
        <time>2019-02-17T14:13:25.000Z</time>
      </trkpt>
      <trkpt lat="43.22205" lon="0.89605">
        <ele>441</ele>
        <time>2019-02-17T14:13:27.000Z</time>
      </trkpt>
      <trkpt lat="43.22206" lon="0.89603">
        <ele>441</ele>
        <time>2019-02-17T14:13:29.000Z</time>
      </trkpt>
      <trkpt lat="43.22207" lon="0.89601">
        <ele>441</ele>
        <time>2019-02-17T14:13:31.000Z</time>
      </trkpt>
      <trkpt lat="43.22208" lon="0.89599">
        <ele>441</ele>
        <time>2019-02-17T14:13:33.000Z</time>
      </trkpt>
      <trkpt lat="43.22209" lon="0.89596">
        <ele>441</ele>
        <time>2019-02-17T14:13:35.000Z</time>
      </trkpt>
      <trkpt lat="43.2221" lon="0.89594">
        <ele>441</ele>
        <time>2019-02-17T14:13:37.000Z</time>
      </trkpt>
      <trkpt lat="43.22212" lon="0.89591">
        <ele>440</ele>
        <time>2019-02-17T14:13:39.000Z</time>
      </trkpt>
      <trkpt lat="43.22213" lon="0.89588">
        <ele>440</ele>
        <time>2019-02-17T14:13:41.000Z</time>
      </trkpt>
      <trkpt lat="43.22214" lon="0.89586">
        <ele>440</ele>
        <time>2019-02-17T14:13:43.000Z</time>
      </trkpt>
      <trkpt lat="43.22215" lon="0.89583">
        <ele>440</ele>
        <time>2019-02-17T14:13:45.000Z</time>
      </trkpt>
      <trkpt lat="43.22215" lon="0.89581">
        <ele>440</ele>
        <time>2019-02-17T14:13:47.000Z</time>
      </trkpt>
      <trkpt lat="43.22216" lon="0.89579">
        <ele>440</ele>
        <time>2019-02-17T14:13:49.000Z</time>
      </trkpt>
      <trkpt lat="43.22217" lon="0.89576">
        <ele>440</ele>
        <time>2019-02-17T14:13:51.000Z</time>
      </trkpt>
      <trkpt lat="43.22218" lon="0.89574">
        <ele>440</ele>
        <time>2019-02-17T14:13:53.000Z</time>
      </trkpt>
      <trkpt lat="43.22219" lon="0.89572">
        <ele>440</ele>
        <time>2019-02-17T14:13:55.000Z</time>
      </trkpt>
      <trkpt lat="43.2222" lon="0.89569">
        <ele>440</ele>
        <time>2019-02-17T14:13:57.000Z</time>
      </trkpt>
      <trkpt lat="43.22221" lon="0.89567">
        <ele>440</ele>
        <time>2019-02-17T14:13:59.000Z</time>
      </trkpt>
      <trkpt lat="43.22222" lon="0.89565">
        <ele>440</ele>
        <time>2019-02-17T14:14:01.000Z</time>
      </trkpt>
      <trkpt lat="43.22223" lon="0.89562">
        <ele>440</ele>
        <time>2019-02-17T14:14:03.000Z</time>
      </trkpt>
      <trkpt lat="43.22223" lon="0.89559">
        <ele>440</ele>
        <time>2019-02-17T14:14:05.000Z</time>
      </trkpt>
      <trkpt lat="43.22224" lon="0.89556">
        <ele>440</ele>
        <time>2019-02-17T14:14:07.000Z</time>
      </trkpt>
      <trkpt lat="43.22224" lon="0.89554">
        <ele>440</ele>
        <time>2019-02-17T14:14:09.000Z</time>
      </trkpt>
      <trkpt lat="43.22225" lon="0.89551">
        <ele>439</ele>
        <time>2019-02-17T14:14:11.000Z</time>
      </trkpt>
      <trkpt lat="43.22225" lon="0.89549">
        <ele>439</ele>
        <time>2019-02-17T14:14:13.000Z</time>
      </trkpt>
      <trkpt lat="43.22226" lon="0.89546">
        <ele>439</ele>
        <time>2019-02-17T14:14:15.000Z</time>
      </trkpt>
      <trkpt lat="43.22227" lon="0.89543">
        <ele>439</ele>
        <time>2019-02-17T14:14:17.000Z</time>
      </trkpt>
      <trkpt lat="43.22228" lon="0.8954">
        <ele>438</ele>
        <time>2019-02-17T14:14:19.000Z</time>
      </trkpt>
      <trkpt lat="43.22229" lon="0.89537">
        <ele>438</ele>
        <time>2019-02-17T14:14:21.000Z</time>
      </trkpt>
      <trkpt lat="43.2223" lon="0.89534">
        <ele>438</ele>
        <time>2019-02-17T14:14:23.000Z</time>
      </trkpt>
      <trkpt lat="43.22231" lon="0.89531">
        <ele>438</ele>
        <time>2019-02-17T14:14:25.000Z</time>
      </trkpt>
      <trkpt lat="43.22232" lon="0.89528">
        <ele>437</ele>
        <time>2019-02-17T14:14:27.000Z</time>
      </trkpt>
      <trkpt lat="43.22233" lon="0.89525">
        <ele>437</ele>
        <time>2019-02-17T14:14:29.000Z</time>
      </trkpt>
      <trkpt lat="43.22234" lon="0.89523">
        <ele>438</ele>
        <time>2019-02-17T14:14:31.000Z</time>
      </trkpt>
      <trkpt lat="43.22234" lon="0.8952">
        <ele>438</ele>
        <time>2019-02-17T14:14:33.000Z</time>
      </trkpt>
      <trkpt lat="43.22235" lon="0.89518">
        <ele>438</ele>
        <time>2019-02-17T14:14:35.000Z</time>
      </trkpt>
      <trkpt lat="43.22236" lon="0.89516">
        <ele>438</ele>
        <time>2019-02-17T14:14:37.000Z</time>
      </trkpt>
      <trkpt lat="43.22238" lon="0.89514">
        <ele>438</ele>
        <time>2019-02-17T14:14:39.000Z</time>
      </trkpt>
      <trkpt lat="43.22238" lon="0.89511">
        <ele>438</ele>
        <time>2019-02-17T14:14:41.000Z</time>
      </trkpt>
      <trkpt lat="43.2224" lon="0.89509">
        <ele>439</ele>
        <time>2019-02-17T14:14:43.000Z</time>
      </trkpt>
      <trkpt lat="43.2224" lon="0.89506">
        <ele>439</ele>
        <time>2019-02-17T14:14:45.000Z</time>
      </trkpt>
      <trkpt lat="43.22241" lon="0.89503">
        <ele>439</ele>
        <time>2019-02-17T14:14:47.000Z</time>
      </trkpt>
      <trkpt lat="43.22242" lon="0.89501">
        <ele>439</ele>
        <time>2019-02-17T14:14:49.000Z</time>
      </trkpt>
      <trkpt lat="43.22243" lon="0.89498">
        <ele>439</ele>
        <time>2019-02-17T14:14:51.000Z</time>
      </trkpt>
      <trkpt lat="43.22243" lon="0.89496">
        <ele>440</ele>
        <time>2019-02-17T14:14:53.000Z</time>
      </trkpt>
      <trkpt lat="43.22244" lon="0.89493">
        <ele>440</ele>
        <time>2019-02-17T14:14:55.000Z</time>
      </trkpt>
      <trkpt lat="43.22244" lon="0.89491">
        <ele>440</ele>
        <time>2019-02-17T14:14:57.000Z</time>
      </trkpt>
      <trkpt lat="43.22245" lon="0.89488">
        <ele>440</ele>
        <time>2019-02-17T14:14:59.000Z</time>
      </trkpt>
      <trkpt lat="43.22245" lon="0.89486">
        <ele>440</ele>
        <time>2019-02-17T14:15:01.000Z</time>
      </trkpt>
      <trkpt lat="43.22246" lon="0.89483">
        <ele>440</ele>
        <time>2019-02-17T14:15:03.000Z</time>
      </trkpt>
      <trkpt lat="43.22246" lon="0.8948">
        <ele>441</ele>
        <time>2019-02-17T14:15:05.000Z</time>
      </trkpt>
      <trkpt lat="43.22247" lon="0.89478">
        <ele>441</ele>
        <time>2019-02-17T14:15:07.000Z</time>
      </trkpt>
      <trkpt lat="43.22248" lon="0.89475">
        <ele>441</ele>
        <time>2019-02-17T14:15:09.000Z</time>
      </trkpt>
      <trkpt lat="43.22249" lon="0.89473">
        <ele>441</ele>
        <time>2019-02-17T14:15:11.000Z</time>
      </trkpt>
      <trkpt lat="43.22249" lon="0.89471">
        <ele>441</ele>
        <time>2019-02-17T14:15:13.000Z</time>
      </trkpt>
      <trkpt lat="43.2225" lon="0.89469">
        <ele>441</ele>
        <time>2019-02-17T14:15:15.000Z</time>
      </trkpt>
      <trkpt lat="43.2225" lon="0.89467">
        <ele>441</ele>
        <time>2019-02-17T14:15:17.000Z</time>
      </trkpt>
      <trkpt lat="43.22251" lon="0.89464">
        <ele>441</ele>
        <time>2019-02-17T14:15:19.000Z</time>
      </trkpt>
      <trkpt lat="43.22251" lon="0.89461">
        <ele>441</ele>
        <time>2019-02-17T14:15:21.000Z</time>
      </trkpt>
      <trkpt lat="43.22252" lon="0.89459">
        <ele>441</ele>
        <time>2019-02-17T14:15:23.000Z</time>
      </trkpt>
      <trkpt lat="43.22253" lon="0.89456">
        <ele>441</ele>
        <time>2019-02-17T14:15:25.000Z</time>
      </trkpt>
      <trkpt lat="43.22254" lon="0.89453">
        <ele>441</ele>
        <time>2019-02-17T14:15:27.000Z</time>
      </trkpt>
      <trkpt lat="43.22255" lon="0.8945">
        <ele>441</ele>
        <time>2019-02-17T14:15:29.000Z</time>
      </trkpt>
      <trkpt lat="43.22257" lon="0.89447">
        <ele>442</ele>
        <time>2019-02-17T14:15:31.000Z</time>
      </trkpt>
      <trkpt lat="43.22258" lon="0.89444">
        <ele>442</ele>
        <time>2019-02-17T14:15:33.000Z</time>
      </trkpt>
      <trkpt lat="43.22259" lon="0.89442">
        <ele>442</ele>
        <time>2019-02-17T14:15:35.000Z</time>
      </trkpt>
      <trkpt lat="43.2226" lon="0.8944">
        <ele>442</ele>
        <time>2019-02-17T14:15:37.000Z</time>
      </trkpt>
      <trkpt lat="43.2226" lon="0.89438">
        <ele>442</ele>
        <time>2019-02-17T14:15:39.000Z</time>
      </trkpt>
      <trkpt lat="43.2226" lon="0.89436">
        <ele>442</ele>
        <time>2019-02-17T14:15:41.000Z</time>
      </trkpt>
      <trkpt lat="43.22262" lon="0.89434">
        <ele>442</ele>
        <time>2019-02-17T14:15:43.000Z</time>
      </trkpt>
      <trkpt lat="43.22263" lon="0.89432">
        <ele>442</ele>
        <time>2019-02-17T14:15:45.000Z</time>
      </trkpt>
      <trkpt lat="43.22263" lon="0.89429">
        <ele>442</ele>
        <time>2019-02-17T14:15:47.000Z</time>
      </trkpt>
      <trkpt lat="43.22264" lon="0.89427">
        <ele>442</ele>
        <time>2019-02-17T14:15:49.000Z</time>
      </trkpt>
      <trkpt lat="43.22265" lon="0.89424">
        <ele>442</ele>
        <time>2019-02-17T14:15:51.000Z</time>
      </trkpt>
      <trkpt lat="43.22266" lon="0.89422">
        <ele>442</ele>
        <time>2019-02-17T14:15:53.000Z</time>
      </trkpt>
      <trkpt lat="43.22267" lon="0.8942">
        <ele>442</ele>
        <time>2019-02-17T14:15:55.000Z</time>
      </trkpt>
      <trkpt lat="43.22267" lon="0.89418">
        <ele>442</ele>
        <time>2019-02-17T14:15:57.000Z</time>
      </trkpt>
      <trkpt lat="43.22268" lon="0.89415">
        <ele>442</ele>
        <time>2019-02-17T14:15:59.000Z</time>
      </trkpt>
      <trkpt lat="43.22268" lon="0.89412">
        <ele>442</ele>
        <time>2019-02-17T14:16:01.000Z</time>
      </trkpt>
      <trkpt lat="43.2227" lon="0.89409">
        <ele>442</ele>
        <time>2019-02-17T14:16:03.000Z</time>
      </trkpt>
      <trkpt lat="43.2227" lon="0.89406">
        <ele>442</ele>
        <time>2019-02-17T14:16:05.000Z</time>
      </trkpt>
      <trkpt lat="43.22271" lon="0.89403">
        <ele>442</ele>
        <time>2019-02-17T14:16:07.000Z</time>
      </trkpt>
      <trkpt lat="43.22272" lon="0.89401">
        <ele>442</ele>
        <time>2019-02-17T14:16:09.000Z</time>
      </trkpt>
      <trkpt lat="43.22273" lon="0.89399">
        <ele>442</ele>
        <time>2019-02-17T14:16:11.000Z</time>
      </trkpt>
      <trkpt lat="43.22275" lon="0.89397">
        <ele>442</ele>
        <time>2019-02-17T14:16:13.000Z</time>
      </trkpt>
      <trkpt lat="43.22276" lon="0.89394">
        <ele>442</ele>
        <time>2019-02-17T14:16:15.000Z</time>
      </trkpt>
      <trkpt lat="43.22277" lon="0.89391">
        <ele>442</ele>
        <time>2019-02-17T14:16:17.000Z</time>
      </trkpt>
      <trkpt lat="43.22278" lon="0.89389">
        <ele>442</ele>
        <time>2019-02-17T14:16:19.000Z</time>
      </trkpt>
      <trkpt lat="43.2228" lon="0.89387">
        <ele>442</ele>
        <time>2019-02-17T14:16:21.000Z</time>
      </trkpt>
      <trkpt lat="43.2228" lon="0.89385">
        <ele>442</ele>
        <time>2019-02-17T14:16:23.000Z</time>
      </trkpt>
      <trkpt lat="43.22281" lon="0.89383">
        <ele>442</ele>
        <time>2019-02-17T14:16:25.000Z</time>
      </trkpt>
      <trkpt lat="43.22282" lon="0.89381">
        <ele>442</ele>
        <time>2019-02-17T14:16:27.000Z</time>
      </trkpt>
      <trkpt lat="43.22283" lon="0.89379">
        <ele>442</ele>
        <time>2019-02-17T14:16:29.000Z</time>
      </trkpt>
      <trkpt lat="43.22284" lon="0.89376">
        <ele>442</ele>
        <time>2019-02-17T14:16:31.000Z</time>
      </trkpt>
      <trkpt lat="43.22285" lon="0.89374">
        <ele>442</ele>
        <time>2019-02-17T14:16:33.000Z</time>
      </trkpt>
      <trkpt lat="43.22285" lon="0.89371">
        <ele>442</ele>
        <time>2019-02-17T14:16:35.000Z</time>
      </trkpt>
      <trkpt lat="43.22286" lon="0.89368">
        <ele>442</ele>
        <time>2019-02-17T14:16:37.000Z</time>
      </trkpt>
      <trkpt lat="43.22288" lon="0.89366">
        <ele>441</ele>
        <time>2019-02-17T14:16:39.000Z</time>
      </trkpt>
      <trkpt lat="43.22288" lon="0.89363">
        <ele>441</ele>
        <time>2019-02-17T14:16:41.000Z</time>
      </trkpt>
      <trkpt lat="43.22289" lon="0.8936">
        <ele>441</ele>
        <time>2019-02-17T14:16:43.000Z</time>
      </trkpt>
      <trkpt lat="43.22289" lon="0.89357">
        <ele>441</ele>
        <time>2019-02-17T14:16:45.000Z</time>
      </trkpt>
      <trkpt lat="43.22289" lon="0.89355">
        <ele>441</ele>
        <time>2019-02-17T14:16:47.000Z</time>
      </trkpt>
      <trkpt lat="43.2229" lon="0.89351">
        <ele>441</ele>
        <time>2019-02-17T14:16:49.000Z</time>
      </trkpt>
      <trkpt lat="43.22291" lon="0.89349">
        <ele>441</ele>
        <time>2019-02-17T14:16:51.000Z</time>
      </trkpt>
      <trkpt lat="43.22291" lon="0.89346">
        <ele>441</ele>
        <time>2019-02-17T14:16:53.000Z</time>
      </trkpt>
      <trkpt lat="43.22291" lon="0.89343">
        <ele>441</ele>
        <time>2019-02-17T14:16:55.000Z</time>
      </trkpt>
      <trkpt lat="43.22292" lon="0.8934">
        <ele>441</ele>
        <time>2019-02-17T14:16:57.000Z</time>
      </trkpt>
      <trkpt lat="43.22292" lon="0.89337">
        <ele>441</ele>
        <time>2019-02-17T14:16:59.000Z</time>
      </trkpt>
      <trkpt lat="43.22293" lon="0.89335">
        <ele>441</ele>
        <time>2019-02-17T14:17:01.000Z</time>
      </trkpt>
      <trkpt lat="43.22293" lon="0.89331">
        <ele>441</ele>
        <time>2019-02-17T14:17:03.000Z</time>
      </trkpt>
      <trkpt lat="43.22294" lon="0.89328">
        <ele>442</ele>
        <time>2019-02-17T14:17:05.000Z</time>
      </trkpt>
      <trkpt lat="43.22294" lon="0.89325">
        <ele>442</ele>
        <time>2019-02-17T14:17:07.000Z</time>
      </trkpt>
      <trkpt lat="43.22294" lon="0.89322">
        <ele>442</ele>
        <time>2019-02-17T14:17:09.000Z</time>
      </trkpt>
      <trkpt lat="43.22295" lon="0.89319">
        <ele>442</ele>
        <time>2019-02-17T14:17:11.000Z</time>
      </trkpt>
      <trkpt lat="43.22295" lon="0.89317">
        <ele>443</ele>
        <time>2019-02-17T14:17:13.000Z</time>
      </trkpt>
      <trkpt lat="43.22295" lon="0.89313">
        <ele>443</ele>
        <time>2019-02-17T14:17:15.000Z</time>
      </trkpt>
      <trkpt lat="43.22295" lon="0.89311">
        <ele>443</ele>
        <time>2019-02-17T14:17:17.000Z</time>
      </trkpt>
      <trkpt lat="43.22295" lon="0.89309">
        <ele>443</ele>
        <time>2019-02-17T14:17:19.000Z</time>
      </trkpt>
      <trkpt lat="43.22295" lon="0.89306">
        <ele>444</ele>
        <time>2019-02-17T14:17:21.000Z</time>
      </trkpt>
      <trkpt lat="43.22295" lon="0.89303">
        <ele>443</ele>
        <time>2019-02-17T14:17:23.000Z</time>
      </trkpt>
      <trkpt lat="43.22296" lon="0.893">
        <ele>443</ele>
        <time>2019-02-17T14:17:25.000Z</time>
      </trkpt>
      <trkpt lat="43.22297" lon="0.89298">
        <ele>443</ele>
        <time>2019-02-17T14:17:27.000Z</time>
      </trkpt>
      <trkpt lat="43.22298" lon="0.89294">
        <ele>443</ele>
        <time>2019-02-17T14:17:29.000Z</time>
      </trkpt>
      <trkpt lat="43.22298" lon="0.89292">
        <ele>443</ele>
        <time>2019-02-17T14:17:31.000Z</time>
      </trkpt>
      <trkpt lat="43.22299" lon="0.89289">
        <ele>443</ele>
        <time>2019-02-17T14:17:33.000Z</time>
      </trkpt>
      <trkpt lat="43.22299" lon="0.89286">
        <ele>443</ele>
        <time>2019-02-17T14:17:35.000Z</time>
      </trkpt>
      <trkpt lat="43.223" lon="0.89283">
        <ele>443</ele>
        <time>2019-02-17T14:17:37.000Z</time>
      </trkpt>
      <trkpt lat="43.223" lon="0.8928">
        <ele>443</ele>
        <time>2019-02-17T14:17:39.000Z</time>
      </trkpt>
      <trkpt lat="43.22301" lon="0.89277">
        <ele>443</ele>
        <time>2019-02-17T14:17:41.000Z</time>
      </trkpt>
      <trkpt lat="43.22302" lon="0.89274">
        <ele>443</ele>
        <time>2019-02-17T14:17:43.000Z</time>
      </trkpt>
      <trkpt lat="43.22303" lon="0.89272">
        <ele>443</ele>
        <time>2019-02-17T14:17:45.000Z</time>
      </trkpt>
      <trkpt lat="43.22304" lon="0.89269">
        <ele>443</ele>
        <time>2019-02-17T14:17:47.000Z</time>
      </trkpt>
      <trkpt lat="43.22304" lon="0.89267">
        <ele>443</ele>
        <time>2019-02-17T14:17:49.000Z</time>
      </trkpt>
      <trkpt lat="43.22305" lon="0.89264">
        <ele>443</ele>
        <time>2019-02-17T14:17:51.000Z</time>
      </trkpt>
      <trkpt lat="43.22306" lon="0.89262">
        <ele>443</ele>
        <time>2019-02-17T14:17:53.000Z</time>
      </trkpt>
      <trkpt lat="43.22306" lon="0.89261">
        <ele>443</ele>
        <time>2019-02-17T14:17:55.000Z</time>
      </trkpt>
      <trkpt lat="43.22307" lon="0.89258">
        <ele>443</ele>
        <time>2019-02-17T14:17:57.000Z</time>
      </trkpt>
      <trkpt lat="43.22308" lon="0.89256">
        <ele>443</ele>
        <time>2019-02-17T14:17:59.000Z</time>
      </trkpt>
      <trkpt lat="43.22309" lon="0.89253">
        <ele>443</ele>
        <time>2019-02-17T14:18:01.000Z</time>
      </trkpt>
      <trkpt lat="43.22309" lon="0.89251">
        <ele>443</ele>
        <time>2019-02-17T14:18:03.000Z</time>
      </trkpt>
      <trkpt lat="43.2231" lon="0.89248">
        <ele>443</ele>
        <time>2019-02-17T14:18:05.000Z</time>
      </trkpt>
      <trkpt lat="43.22311" lon="0.89246">
        <ele>443</ele>
        <time>2019-02-17T14:18:07.000Z</time>
      </trkpt>
      <trkpt lat="43.22312" lon="0.89244">
        <ele>444</ele>
        <time>2019-02-17T14:18:09.000Z</time>
      </trkpt>
      <trkpt lat="43.22313" lon="0.89241">
        <ele>444</ele>
        <time>2019-02-17T14:18:11.000Z</time>
      </trkpt>
      <trkpt lat="43.22313" lon="0.89238">
        <ele>444</ele>
        <time>2019-02-17T14:18:13.000Z</time>
      </trkpt>
      <trkpt lat="43.22314" lon="0.89236">
        <ele>444</ele>
        <time>2019-02-17T14:18:15.000Z</time>
      </trkpt>
      <trkpt lat="43.22314" lon="0.89233">
        <ele>444</ele>
        <time>2019-02-17T14:18:17.000Z</time>
      </trkpt>
      <trkpt lat="43.22315" lon="0.8923">
        <ele>444</ele>
        <time>2019-02-17T14:18:19.000Z</time>
      </trkpt>
      <trkpt lat="43.22316" lon="0.89227">
        <ele>444</ele>
        <time>2019-02-17T14:18:21.000Z</time>
      </trkpt>
      <trkpt lat="43.22316" lon="0.89225">
        <ele>444</ele>
        <time>2019-02-17T14:18:23.000Z</time>
      </trkpt>
      <trkpt lat="43.22317" lon="0.89223">
        <ele>444</ele>
        <time>2019-02-17T14:18:25.000Z</time>
      </trkpt>
      <trkpt lat="43.22317" lon="0.8922">
        <ele>444</ele>
        <time>2019-02-17T14:18:27.000Z</time>
      </trkpt>
      <trkpt lat="43.22317" lon="0.89218">
        <ele>444</ele>
        <time>2019-02-17T14:18:29.000Z</time>
      </trkpt>
      <trkpt lat="43.22318" lon="0.89216">
        <ele>444</ele>
        <time>2019-02-17T14:18:31.000Z</time>
      </trkpt>
      <trkpt lat="43.22318" lon="0.89213">
        <ele>444</ele>
        <time>2019-02-17T14:18:33.000Z</time>
      </trkpt>
      <trkpt lat="43.22319" lon="0.8921">
        <ele>444</ele>
        <time>2019-02-17T14:18:35.000Z</time>
      </trkpt>
      <trkpt lat="43.22319" lon="0.89208">
        <ele>444</ele>
        <time>2019-02-17T14:18:37.000Z</time>
      </trkpt>
      <trkpt lat="43.2232" lon="0.89205">
        <ele>444</ele>
        <time>2019-02-17T14:18:39.000Z</time>
      </trkpt>
      <trkpt lat="43.2232" lon="0.89203">
        <ele>444</ele>
        <time>2019-02-17T14:18:41.000Z</time>
      </trkpt>
      <trkpt lat="43.22321" lon="0.89201">
        <ele>444</ele>
        <time>2019-02-17T14:18:43.000Z</time>
      </trkpt>
      <trkpt lat="43.22322" lon="0.89198">
        <ele>445</ele>
        <time>2019-02-17T14:18:45.000Z</time>
      </trkpt>
      <trkpt lat="43.22323" lon="0.89196">
        <ele>445</ele>
        <time>2019-02-17T14:18:47.000Z</time>
      </trkpt>
      <trkpt lat="43.22323" lon="0.89193">
        <ele>446</ele>
        <time>2019-02-17T14:18:49.000Z</time>
      </trkpt>
      <trkpt lat="43.22324" lon="0.8919">
        <ele>446</ele>
        <time>2019-02-17T14:18:51.000Z</time>
      </trkpt>
      <trkpt lat="43.22325" lon="0.89188">
        <ele>446</ele>
        <time>2019-02-17T14:18:53.000Z</time>
      </trkpt>
      <trkpt lat="43.22326" lon="0.89186">
        <ele>447</ele>
        <time>2019-02-17T14:18:55.000Z</time>
      </trkpt>
      <trkpt lat="43.22326" lon="0.89184">
        <ele>447</ele>
        <time>2019-02-17T14:18:57.000Z</time>
      </trkpt>
      <trkpt lat="43.22327" lon="0.89182">
        <ele>447</ele>
        <time>2019-02-17T14:18:59.000Z</time>
      </trkpt>
      <trkpt lat="43.22328" lon="0.8918">
        <ele>448</ele>
        <time>2019-02-17T14:19:01.000Z</time>
      </trkpt>
      <trkpt lat="43.22328" lon="0.89177">
        <ele>448</ele>
        <time>2019-02-17T14:19:03.000Z</time>
      </trkpt>
      <trkpt lat="43.22329" lon="0.89175">
        <ele>449</ele>
        <time>2019-02-17T14:19:05.000Z</time>
      </trkpt>
      <trkpt lat="43.2233" lon="0.89173">
        <ele>449</ele>
        <time>2019-02-17T14:19:07.000Z</time>
      </trkpt>
      <trkpt lat="43.2233" lon="0.89171">
        <ele>449</ele>
        <time>2019-02-17T14:19:09.000Z</time>
      </trkpt>
      <trkpt lat="43.2233" lon="0.89169">
        <ele>449</ele>
        <time>2019-02-17T14:19:11.000Z</time>
      </trkpt>
      <trkpt lat="43.22331" lon="0.89167">
        <ele>450</ele>
        <time>2019-02-17T14:19:13.000Z</time>
      </trkpt>
      <trkpt lat="43.22331" lon="0.89165">
        <ele>450</ele>
        <time>2019-02-17T14:19:15.000Z</time>
      </trkpt>
      <trkpt lat="43.22332" lon="0.89163">
        <ele>450</ele>
        <time>2019-02-17T14:19:17.000Z</time>
      </trkpt>
      <trkpt lat="43.22332" lon="0.89162">
        <ele>451</ele>
        <time>2019-02-17T14:19:19.000Z</time>
      </trkpt>
      <trkpt lat="43.22333" lon="0.8916">
        <ele>451</ele>
        <time>2019-02-17T14:19:21.000Z</time>
      </trkpt>
      <trkpt lat="43.22333" lon="0.89158">
        <ele>451</ele>
        <time>2019-02-17T14:19:23.000Z</time>
      </trkpt>
      <trkpt lat="43.22334" lon="0.89156">
        <ele>452</ele>
        <time>2019-02-17T14:19:25.000Z</time>
      </trkpt>
      <trkpt lat="43.22334" lon="0.89154">
        <ele>452</ele>
        <time>2019-02-17T14:19:27.000Z</time>
      </trkpt>
      <trkpt lat="43.22335" lon="0.89151">
        <ele>453</ele>
        <time>2019-02-17T14:19:29.000Z</time>
      </trkpt>
      <trkpt lat="43.22336" lon="0.89149">
        <ele>453</ele>
        <time>2019-02-17T14:19:31.000Z</time>
      </trkpt>
      <trkpt lat="43.22337" lon="0.89147">
        <ele>453</ele>
        <time>2019-02-17T14:19:33.000Z</time>
      </trkpt>
      <trkpt lat="43.22337" lon="0.89145">
        <ele>454</ele>
        <time>2019-02-17T14:19:35.000Z</time>
      </trkpt>
      <trkpt lat="43.22337" lon="0.89142">
        <ele>454</ele>
        <time>2019-02-17T14:19:37.000Z</time>
      </trkpt>
      <trkpt lat="43.22338" lon="0.89141">
        <ele>454</ele>
        <time>2019-02-17T14:19:39.000Z</time>
      </trkpt>
      <trkpt lat="43.22338" lon="0.89139">
        <ele>455</ele>
        <time>2019-02-17T14:19:41.000Z</time>
      </trkpt>
      <trkpt lat="43.22339" lon="0.89137">
        <ele>455</ele>
        <time>2019-02-17T14:19:43.000Z</time>
      </trkpt>
      <trkpt lat="43.22339" lon="0.89135">
        <ele>455</ele>
        <time>2019-02-17T14:19:45.000Z</time>
      </trkpt>
      <trkpt lat="43.2234" lon="0.89133">
        <ele>456</ele>
        <time>2019-02-17T14:19:47.000Z</time>
      </trkpt>
      <trkpt lat="43.2234" lon="0.89132">
        <ele>456</ele>
        <time>2019-02-17T14:19:49.000Z</time>
      </trkpt>
      <trkpt lat="43.22341" lon="0.89131">
        <ele>456</ele>
        <time>2019-02-17T14:19:51.000Z</time>
      </trkpt>
      <trkpt lat="43.22342" lon="0.89129">
        <ele>456</ele>
        <time>2019-02-17T14:19:53.000Z</time>
      </trkpt>
      <trkpt lat="43.22342" lon="0.89127">
        <ele>456</ele>
        <time>2019-02-17T14:19:55.000Z</time>
      </trkpt>
      <trkpt lat="43.22343" lon="0.89125">
        <ele>457</ele>
        <time>2019-02-17T14:19:57.000Z</time>
      </trkpt>
      <trkpt lat="43.22343" lon="0.89123">
        <ele>457</ele>
        <time>2019-02-17T14:19:59.000Z</time>
      </trkpt>
      <trkpt lat="43.22343" lon="0.89121">
        <ele>457</ele>
        <time>2019-02-17T14:20:01.000Z</time>
      </trkpt>
      <trkpt lat="43.22344" lon="0.8912">
        <ele>457</ele>
        <time>2019-02-17T14:20:03.000Z</time>
      </trkpt>
      <trkpt lat="43.22344" lon="0.89118">
        <ele>458</ele>
        <time>2019-02-17T14:20:05.000Z</time>
      </trkpt>
      <trkpt lat="43.22345" lon="0.89116">
        <ele>458</ele>
        <time>2019-02-17T14:20:07.000Z</time>
      </trkpt>
      <trkpt lat="43.22345" lon="0.89114">
        <ele>458</ele>
        <time>2019-02-17T14:20:09.000Z</time>
      </trkpt>
      <trkpt lat="43.22345" lon="0.89112">
        <ele>458</ele>
        <time>2019-02-17T14:20:11.000Z</time>
      </trkpt>
      <trkpt lat="43.22345" lon="0.8911">
        <ele>458</ele>
        <time>2019-02-17T14:20:13.000Z</time>
      </trkpt>
      <trkpt lat="43.22345" lon="0.89108">
        <ele>459</ele>
        <time>2019-02-17T14:20:15.000Z</time>
      </trkpt>
      <trkpt lat="43.22345" lon="0.89106">
        <ele>459</ele>
        <time>2019-02-17T14:20:17.000Z</time>
      </trkpt>
      <trkpt lat="43.22345" lon="0.89103">
        <ele>459</ele>
        <time>2019-02-17T14:20:19.000Z</time>
      </trkpt>
      <trkpt lat="43.22346" lon="0.89101">
        <ele>459</ele>
        <time>2019-02-17T14:20:21.000Z</time>
      </trkpt>
      <trkpt lat="43.22346" lon="0.89099">
        <ele>459</ele>
        <time>2019-02-17T14:20:23.000Z</time>
      </trkpt>
      <trkpt lat="43.22347" lon="0.89097">
        <ele>460</ele>
        <time>2019-02-17T14:20:25.000Z</time>
      </trkpt>
      <trkpt lat="43.22347" lon="0.89095">
        <ele>460</ele>
        <time>2019-02-17T14:20:27.000Z</time>
      </trkpt>
      <trkpt lat="43.22347" lon="0.89092">
        <ele>460</ele>
        <time>2019-02-17T14:20:29.000Z</time>
      </trkpt>
      <trkpt lat="43.22348" lon="0.89091">
        <ele>460</ele>
        <time>2019-02-17T14:20:31.000Z</time>
      </trkpt>
      <trkpt lat="43.22348" lon="0.89088">
        <ele>460</ele>
        <time>2019-02-17T14:20:33.000Z</time>
      </trkpt>
      <trkpt lat="43.22348" lon="0.89086">
        <ele>461</ele>
        <time>2019-02-17T14:20:35.000Z</time>
      </trkpt>
      <trkpt lat="43.22348" lon="0.89084">
        <ele>461</ele>
        <time>2019-02-17T14:20:37.000Z</time>
      </trkpt>
      <trkpt lat="43.22348" lon="0.89081">
        <ele>461</ele>
        <time>2019-02-17T14:20:39.000Z</time>
      </trkpt>
      <trkpt lat="43.22348" lon="0.89078">
        <ele>461</ele>
        <time>2019-02-17T14:20:41.000Z</time>
      </trkpt>
      <trkpt lat="43.22347" lon="0.89075">
        <ele>461</ele>
        <time>2019-02-17T14:20:43.000Z</time>
      </trkpt>
      <trkpt lat="43.22347" lon="0.89073">
        <ele>462</ele>
        <time>2019-02-17T14:20:45.000Z</time>
      </trkpt>
      <trkpt lat="43.22347" lon="0.89071">
        <ele>462</ele>
        <time>2019-02-17T14:20:47.000Z</time>
      </trkpt>
      <trkpt lat="43.22347" lon="0.89068">
        <ele>462</ele>
        <time>2019-02-17T14:20:49.000Z</time>
      </trkpt>
      <trkpt lat="43.22347" lon="0.89065">
        <ele>462</ele>
        <time>2019-02-17T14:20:51.000Z</time>
      </trkpt>
      <trkpt lat="43.22347" lon="0.89063">
        <ele>462</ele>
        <time>2019-02-17T14:20:53.000Z</time>
      </trkpt>
      <trkpt lat="43.22346" lon="0.89061">
        <ele>463</ele>
        <time>2019-02-17T14:20:55.000Z</time>
      </trkpt>
      <trkpt lat="43.22346" lon="0.89058">
        <ele>463</ele>
        <time>2019-02-17T14:20:57.000Z</time>
      </trkpt>
      <trkpt lat="43.22346" lon="0.89055">
        <ele>463</ele>
        <time>2019-02-17T14:20:59.000Z</time>
      </trkpt>
      <trkpt lat="43.22345" lon="0.89053">
        <ele>463</ele>
        <time>2019-02-17T14:21:01.000Z</time>
      </trkpt>
      <trkpt lat="43.22345" lon="0.89051">
        <ele>463</ele>
        <time>2019-02-17T14:21:03.000Z</time>
      </trkpt>
      <trkpt lat="43.22344" lon="0.89048">
        <ele>463</ele>
        <time>2019-02-17T14:21:05.000Z</time>
      </trkpt>
      <trkpt lat="43.22343" lon="0.89046">
        <ele>463</ele>
        <time>2019-02-17T14:21:07.000Z</time>
      </trkpt>
      <trkpt lat="43.22342" lon="0.89044">
        <ele>463</ele>
        <time>2019-02-17T14:21:09.000Z</time>
      </trkpt>
      <trkpt lat="43.22341" lon="0.89041">
        <ele>463</ele>
        <time>2019-02-17T14:21:11.000Z</time>
      </trkpt>
      <trkpt lat="43.2234" lon="0.89039">
        <ele>463</ele>
        <time>2019-02-17T14:21:13.000Z</time>
      </trkpt>
      <trkpt lat="43.22339" lon="0.89036">
        <ele>462</ele>
        <time>2019-02-17T14:21:15.000Z</time>
      </trkpt>
      <trkpt lat="43.22339" lon="0.89033">
        <ele>462</ele>
        <time>2019-02-17T14:21:17.000Z</time>
      </trkpt>
      <trkpt lat="43.22338" lon="0.89031">
        <ele>462</ele>
        <time>2019-02-17T14:21:19.000Z</time>
      </trkpt>
      <trkpt lat="43.22337" lon="0.89029">
        <ele>462</ele>
        <time>2019-02-17T14:21:21.000Z</time>
      </trkpt>
      <trkpt lat="43.22336" lon="0.89027">
        <ele>462</ele>
        <time>2019-02-17T14:21:23.000Z</time>
      </trkpt>
      <trkpt lat="43.22336" lon="0.89025">
        <ele>462</ele>
        <time>2019-02-17T14:21:25.000Z</time>
      </trkpt>
      <trkpt lat="43.22337" lon="0.89022">
        <ele>462</ele>
        <time>2019-02-17T14:21:27.000Z</time>
      </trkpt>
      <trkpt lat="43.22336" lon="0.8902">
        <ele>462</ele>
        <time>2019-02-17T14:21:29.000Z</time>
      </trkpt>
      <trkpt lat="43.22337" lon="0.89018">
        <ele>463</ele>
        <time>2019-02-17T14:21:31.000Z</time>
      </trkpt>
      <trkpt lat="43.22338" lon="0.89016">
        <ele>463</ele>
        <time>2019-02-17T14:21:33.000Z</time>
      </trkpt>
      <trkpt lat="43.22338" lon="0.89013">
        <ele>463</ele>
        <time>2019-02-17T14:21:35.000Z</time>
      </trkpt>
      <trkpt lat="43.22339" lon="0.8901">
        <ele>463</ele>
        <time>2019-02-17T14:21:37.000Z</time>
      </trkpt>
      <trkpt lat="43.22339" lon="0.89008">
        <ele>463</ele>
        <time>2019-02-17T14:21:39.000Z</time>
      </trkpt>
      <trkpt lat="43.22339" lon="0.89006">
        <ele>463</ele>
        <time>2019-02-17T14:21:41.000Z</time>
      </trkpt>
      <trkpt lat="43.2234" lon="0.89003">
        <ele>463</ele>
        <time>2019-02-17T14:21:43.000Z</time>
      </trkpt>
      <trkpt lat="43.2234" lon="0.88999">
        <ele>463</ele>
        <time>2019-02-17T14:21:45.000Z</time>
      </trkpt>
      <trkpt lat="43.22341" lon="0.88996">
        <ele>464</ele>
        <time>2019-02-17T14:21:47.000Z</time>
      </trkpt>
      <trkpt lat="43.22341" lon="0.88994">
        <ele>464</ele>
        <time>2019-02-17T14:21:49.000Z</time>
      </trkpt>
      <trkpt lat="43.22342" lon="0.88992">
        <ele>464</ele>
        <time>2019-02-17T14:21:51.000Z</time>
      </trkpt>
      <trkpt lat="43.22343" lon="0.8899">
        <ele>464</ele>
        <time>2019-02-17T14:21:53.000Z</time>
      </trkpt>
      <trkpt lat="43.22343" lon="0.88987">
        <ele>464</ele>
        <time>2019-02-17T14:21:55.000Z</time>
      </trkpt>
      <trkpt lat="43.22344" lon="0.88985">
        <ele>464</ele>
        <time>2019-02-17T14:21:57.000Z</time>
      </trkpt>
      <trkpt lat="43.22344" lon="0.88982">
        <ele>465</ele>
        <time>2019-02-17T14:21:59.000Z</time>
      </trkpt>
      <trkpt lat="43.22345" lon="0.88978">
        <ele>465</ele>
        <time>2019-02-17T14:22:01.000Z</time>
      </trkpt>
      <trkpt lat="43.22346" lon="0.88976">
        <ele>465</ele>
        <time>2019-02-17T14:22:03.000Z</time>
      </trkpt>
      <trkpt lat="43.22346" lon="0.88973">
        <ele>465</ele>
        <time>2019-02-17T14:22:05.000Z</time>
      </trkpt>
      <trkpt lat="43.22347" lon="0.8897">
        <ele>465</ele>
        <time>2019-02-17T14:22:07.000Z</time>
      </trkpt>
      <trkpt lat="43.22348" lon="0.88968">
        <ele>465</ele>
        <time>2019-02-17T14:22:09.000Z</time>
      </trkpt>
      <trkpt lat="43.22349" lon="0.88965">
        <ele>465</ele>
        <time>2019-02-17T14:22:11.000Z</time>
      </trkpt>
      <trkpt lat="43.2235" lon="0.88963">
        <ele>465</ele>
        <time>2019-02-17T14:22:13.000Z</time>
      </trkpt>
      <trkpt lat="43.22351" lon="0.88961">
        <ele>465</ele>
        <time>2019-02-17T14:22:15.000Z</time>
      </trkpt>
      <trkpt lat="43.22352" lon="0.88958">
        <ele>465</ele>
        <time>2019-02-17T14:22:17.000Z</time>
      </trkpt>
      <trkpt lat="43.22353" lon="0.88955">
        <ele>464</ele>
        <time>2019-02-17T14:22:19.000Z</time>
      </trkpt>
      <trkpt lat="43.22354" lon="0.88953">
        <ele>464</ele>
        <time>2019-02-17T14:22:21.000Z</time>
      </trkpt>
      <trkpt lat="43.22355" lon="0.88951">
        <ele>464</ele>
        <time>2019-02-17T14:22:23.000Z</time>
      </trkpt>
      <trkpt lat="43.22357" lon="0.88949">
        <ele>464</ele>
        <time>2019-02-17T14:22:25.000Z</time>
      </trkpt>
      <trkpt lat="43.22358" lon="0.88947">
        <ele>464</ele>
        <time>2019-02-17T14:22:27.000Z</time>
      </trkpt>
      <trkpt lat="43.2236" lon="0.88946">
        <ele>464</ele>
        <time>2019-02-17T14:22:29.000Z</time>
      </trkpt>
      <trkpt lat="43.22362" lon="0.88944">
        <ele>464</ele>
        <time>2019-02-17T14:22:31.000Z</time>
      </trkpt>
      <trkpt lat="43.22364" lon="0.88942">
        <ele>464</ele>
        <time>2019-02-17T14:22:33.000Z</time>
      </trkpt>
      <trkpt lat="43.22365" lon="0.88939">
        <ele>464</ele>
        <time>2019-02-17T14:22:35.000Z</time>
      </trkpt>
      <trkpt lat="43.22367" lon="0.88937">
        <ele>464</ele>
        <time>2019-02-17T14:22:37.000Z</time>
      </trkpt>
      <trkpt lat="43.22368" lon="0.88934">
        <ele>464</ele>
        <time>2019-02-17T14:22:39.000Z</time>
      </trkpt>
      <trkpt lat="43.22369" lon="0.88931">
        <ele>464</ele>
        <time>2019-02-17T14:22:41.000Z</time>
      </trkpt>
      <trkpt lat="43.22371" lon="0.88929">
        <ele>464</ele>
        <time>2019-02-17T14:22:43.000Z</time>
      </trkpt>
      <trkpt lat="43.22372" lon="0.88927">
        <ele>464</ele>
        <time>2019-02-17T14:22:45.000Z</time>
      </trkpt>
      <trkpt lat="43.22373" lon="0.88924">
        <ele>464</ele>
        <time>2019-02-17T14:22:47.000Z</time>
      </trkpt>
      <trkpt lat="43.22375" lon="0.88921">
        <ele>463</ele>
        <time>2019-02-17T14:22:49.000Z</time>
      </trkpt>
      <trkpt lat="43.22376" lon="0.88919">
        <ele>463</ele>
        <time>2019-02-17T14:22:51.000Z</time>
      </trkpt>
      <trkpt lat="43.22376" lon="0.88917">
        <ele>463</ele>
        <time>2019-02-17T14:22:53.000Z</time>
      </trkpt>
      <trkpt lat="43.22376" lon="0.88914">
        <ele>463</ele>
        <time>2019-02-17T14:22:55.000Z</time>
      </trkpt>
      <trkpt lat="43.22377" lon="0.88911">
        <ele>463</ele>
        <time>2019-02-17T14:22:57.000Z</time>
      </trkpt>
      <trkpt lat="43.22377" lon="0.88909">
        <ele>463</ele>
        <time>2019-02-17T14:22:59.000Z</time>
      </trkpt>
      <trkpt lat="43.22379" lon="0.88907">
        <ele>463</ele>
        <time>2019-02-17T14:23:01.000Z</time>
      </trkpt>
      <trkpt lat="43.22379" lon="0.88906">
        <ele>463</ele>
        <time>2019-02-17T14:23:03.000Z</time>
      </trkpt>
      <trkpt lat="43.2238" lon="0.88904">
        <ele>462</ele>
        <time>2019-02-17T14:23:05.000Z</time>
      </trkpt>
      <trkpt lat="43.22381" lon="0.88902">
        <ele>462</ele>
        <time>2019-02-17T14:23:07.000Z</time>
      </trkpt>
      <trkpt lat="43.22381" lon="0.88899">
        <ele>462</ele>
        <time>2019-02-17T14:23:09.000Z</time>
      </trkpt>
      <trkpt lat="43.22381" lon="0.88897">
        <ele>462</ele>
        <time>2019-02-17T14:23:11.000Z</time>
      </trkpt>
      <trkpt lat="43.22382" lon="0.88895">
        <ele>462</ele>
        <time>2019-02-17T14:23:13.000Z</time>
      </trkpt>
      <trkpt lat="43.22382" lon="0.88893">
        <ele>462</ele>
        <time>2019-02-17T14:23:15.000Z</time>
      </trkpt>
      <trkpt lat="43.22383" lon="0.88891">
        <ele>462</ele>
        <time>2019-02-17T14:23:17.000Z</time>
      </trkpt>
      <trkpt lat="43.22385" lon="0.88889">
        <ele>461</ele>
        <time>2019-02-17T14:23:19.000Z</time>
      </trkpt>
      <trkpt lat="43.22385" lon="0.88887">
        <ele>461</ele>
        <time>2019-02-17T14:23:21.000Z</time>
      </trkpt>
      <trkpt lat="43.22387" lon="0.88885">
        <ele>461</ele>
        <time>2019-02-17T14:23:23.000Z</time>
      </trkpt>
      <trkpt lat="43.22388" lon="0.88883">
        <ele>461</ele>
        <time>2019-02-17T14:23:25.000Z</time>
      </trkpt>
      <trkpt lat="43.22389" lon="0.88881">
        <ele>461</ele>
        <time>2019-02-17T14:23:27.000Z</time>
      </trkpt>
      <trkpt lat="43.2239" lon="0.8888">
        <ele>461</ele>
        <time>2019-02-17T14:23:29.000Z</time>
      </trkpt>
      <trkpt lat="43.22392" lon="0.88878">
        <ele>461</ele>
        <time>2019-02-17T14:23:31.000Z</time>
      </trkpt>
      <trkpt lat="43.22393" lon="0.88876">
        <ele>461</ele>
        <time>2019-02-17T14:23:33.000Z</time>
      </trkpt>
      <trkpt lat="43.22394" lon="0.88874">
        <ele>460</ele>
        <time>2019-02-17T14:23:35.000Z</time>
      </trkpt>
      <trkpt lat="43.22395" lon="0.88872">
        <ele>460</ele>
        <time>2019-02-17T14:23:37.000Z</time>
      </trkpt>
      <trkpt lat="43.22396" lon="0.8887">
        <ele>460</ele>
        <time>2019-02-17T14:23:39.000Z</time>
      </trkpt>
      <trkpt lat="43.22397" lon="0.88868">
        <ele>460</ele>
        <time>2019-02-17T14:23:41.000Z</time>
      </trkpt>
      <trkpt lat="43.22397" lon="0.88866">
        <ele>460</ele>
        <time>2019-02-17T14:23:43.000Z</time>
      </trkpt>
      <trkpt lat="43.22399" lon="0.88864">
        <ele>460</ele>
        <time>2019-02-17T14:23:45.000Z</time>
      </trkpt>
      <trkpt lat="43.224" lon="0.88862">
        <ele>460</ele>
        <time>2019-02-17T14:23:47.000Z</time>
      </trkpt>
      <trkpt lat="43.22401" lon="0.8886">
        <ele>459</ele>
        <time>2019-02-17T14:23:49.000Z</time>
      </trkpt>
      <trkpt lat="43.22402" lon="0.88858">
        <ele>459</ele>
        <time>2019-02-17T14:23:51.000Z</time>
      </trkpt>
      <trkpt lat="43.22403" lon="0.88855">
        <ele>459</ele>
        <time>2019-02-17T14:23:53.000Z</time>
      </trkpt>
      <trkpt lat="43.22404" lon="0.88853">
        <ele>459</ele>
        <time>2019-02-17T14:23:55.000Z</time>
      </trkpt>
      <trkpt lat="43.22404" lon="0.88851">
        <ele>459</ele>
        <time>2019-02-17T14:23:57.000Z</time>
      </trkpt>
      <trkpt lat="43.22405" lon="0.88848">
        <ele>458</ele>
        <time>2019-02-17T14:23:59.000Z</time>
      </trkpt>
      <trkpt lat="43.22406" lon="0.88847">
        <ele>458</ele>
        <time>2019-02-17T14:24:01.000Z</time>
      </trkpt>
      <trkpt lat="43.22406" lon="0.88845">
        <ele>458</ele>
        <time>2019-02-17T14:24:03.000Z</time>
      </trkpt>
      <trkpt lat="43.22407" lon="0.88843">
        <ele>458</ele>
        <time>2019-02-17T14:24:05.000Z</time>
      </trkpt>
      <trkpt lat="43.22408" lon="0.8884">
        <ele>458</ele>
        <time>2019-02-17T14:24:07.000Z</time>
      </trkpt>
      <trkpt lat="43.22409" lon="0.88839">
        <ele>457</ele>
        <time>2019-02-17T14:24:09.000Z</time>
      </trkpt>
      <trkpt lat="43.2241" lon="0.88836">
        <ele>457</ele>
        <time>2019-02-17T14:24:11.000Z</time>
      </trkpt>
      <trkpt lat="43.22409" lon="0.88835">
        <ele>457</ele>
        <time>2019-02-17T14:24:13.000Z</time>
      </trkpt>
      <trkpt lat="43.2241" lon="0.88833">
        <ele>457</ele>
        <time>2019-02-17T14:24:15.000Z</time>
      </trkpt>
      <trkpt lat="43.2241" lon="0.88832">
        <ele>457</ele>
        <time>2019-02-17T14:24:17.000Z</time>
      </trkpt>
      <trkpt lat="43.2241" lon="0.8883">
        <ele>457</ele>
        <time>2019-02-17T14:24:19.000Z</time>
      </trkpt>
      <trkpt lat="43.22411" lon="0.88828">
        <ele>456</ele>
        <time>2019-02-17T14:24:21.000Z</time>
      </trkpt>
      <trkpt lat="43.22412" lon="0.88824">
        <ele>456</ele>
        <time>2019-02-17T14:24:23.000Z</time>
      </trkpt>
      <trkpt lat="43.22413" lon="0.88822">
        <ele>456</ele>
        <time>2019-02-17T14:24:25.000Z</time>
      </trkpt>
      <trkpt lat="43.22413" lon="0.88819">
        <ele>456</ele>
        <time>2019-02-17T14:24:27.000Z</time>
      </trkpt>
      <trkpt lat="43.22414" lon="0.88816">
        <ele>455</ele>
        <time>2019-02-17T14:24:29.000Z</time>
      </trkpt>
      <trkpt lat="43.22415" lon="0.88813">
        <ele>455</ele>
        <time>2019-02-17T14:24:31.000Z</time>
      </trkpt>
      <trkpt lat="43.22416" lon="0.8881">
        <ele>455</ele>
        <time>2019-02-17T14:24:33.000Z</time>
      </trkpt>
      <trkpt lat="43.22416" lon="0.88808">
        <ele>455</ele>
        <time>2019-02-17T14:24:35.000Z</time>
      </trkpt>
      <trkpt lat="43.22417" lon="0.88805">
        <ele>454</ele>
        <time>2019-02-17T14:24:37.000Z</time>
      </trkpt>
      <trkpt lat="43.22418" lon="0.88803">
        <ele>454</ele>
        <time>2019-02-17T14:24:39.000Z</time>
      </trkpt>
      <trkpt lat="43.22418" lon="0.88802">
        <ele>454</ele>
        <time>2019-02-17T14:24:41.000Z</time>
      </trkpt>
      <trkpt lat="43.22418" lon="0.888">
        <ele>454</ele>
        <time>2019-02-17T14:24:43.000Z</time>
      </trkpt>
      <trkpt lat="43.22419" lon="0.88798">
        <ele>454</ele>
        <time>2019-02-17T14:24:45.000Z</time>
      </trkpt>
      <trkpt lat="43.2242" lon="0.88796">
        <ele>453</ele>
        <time>2019-02-17T14:24:47.000Z</time>
      </trkpt>
      <trkpt lat="43.2242" lon="0.88793">
        <ele>453</ele>
        <time>2019-02-17T14:24:49.000Z</time>
      </trkpt>
      <trkpt lat="43.22421" lon="0.88791">
        <ele>453</ele>
        <time>2019-02-17T14:24:51.000Z</time>
      </trkpt>
      <trkpt lat="43.22421" lon="0.88788">
        <ele>453</ele>
        <time>2019-02-17T14:24:53.000Z</time>
      </trkpt>
      <trkpt lat="43.22422" lon="0.88786">
        <ele>453</ele>
        <time>2019-02-17T14:24:55.000Z</time>
      </trkpt>
      <trkpt lat="43.22422" lon="0.88783">
        <ele>452</ele>
        <time>2019-02-17T14:24:57.000Z</time>
      </trkpt>
      <trkpt lat="43.22422" lon="0.88781">
        <ele>452</ele>
        <time>2019-02-17T14:24:59.000Z</time>
      </trkpt>
      <trkpt lat="43.22422" lon="0.88779">
        <ele>452</ele>
        <time>2019-02-17T14:25:01.000Z</time>
      </trkpt>
      <trkpt lat="43.22421" lon="0.88777">
        <ele>452</ele>
        <time>2019-02-17T14:25:03.000Z</time>
      </trkpt>
      <trkpt lat="43.22421" lon="0.88775">
        <ele>452</ele>
        <time>2019-02-17T14:25:05.000Z</time>
      </trkpt>
      <trkpt lat="43.22421" lon="0.88772">
        <ele>452</ele>
        <time>2019-02-17T14:25:07.000Z</time>
      </trkpt>
      <trkpt lat="43.22421" lon="0.8877">
        <ele>451</ele>
        <time>2019-02-17T14:25:09.000Z</time>
      </trkpt>
      <trkpt lat="43.22421" lon="0.88768">
        <ele>451</ele>
        <time>2019-02-17T14:25:11.000Z</time>
      </trkpt>
      <trkpt lat="43.22421" lon="0.88765">
        <ele>451</ele>
        <time>2019-02-17T14:25:13.000Z</time>
      </trkpt>
      <trkpt lat="43.22421" lon="0.88763">
        <ele>451</ele>
        <time>2019-02-17T14:25:15.000Z</time>
      </trkpt>
      <trkpt lat="43.22421" lon="0.88761">
        <ele>451</ele>
        <time>2019-02-17T14:25:17.000Z</time>
      </trkpt>
      <trkpt lat="43.22421" lon="0.88759">
        <ele>451</ele>
        <time>2019-02-17T14:25:19.000Z</time>
      </trkpt>
      <trkpt lat="43.22421" lon="0.88757">
        <ele>451</ele>
        <time>2019-02-17T14:25:21.000Z</time>
      </trkpt>
      <trkpt lat="43.22422" lon="0.88754">
        <ele>450</ele>
        <time>2019-02-17T14:25:23.000Z</time>
      </trkpt>
      <trkpt lat="43.22422" lon="0.88751">
        <ele>450</ele>
        <time>2019-02-17T14:25:25.000Z</time>
      </trkpt>
      <trkpt lat="43.22422" lon="0.88749">
        <ele>450</ele>
        <time>2019-02-17T14:25:27.000Z</time>
      </trkpt>
      <trkpt lat="43.22422" lon="0.88746">
        <ele>450</ele>
        <time>2019-02-17T14:25:29.000Z</time>
      </trkpt>
      <trkpt lat="43.22422" lon="0.88743">
        <ele>449</ele>
        <time>2019-02-17T14:25:31.000Z</time>
      </trkpt>
      <trkpt lat="43.22422" lon="0.8874">
        <ele>449</ele>
        <time>2019-02-17T14:25:33.000Z</time>
      </trkpt>
      <trkpt lat="43.22422" lon="0.88737">
        <ele>449</ele>
        <time>2019-02-17T14:25:35.000Z</time>
      </trkpt>
      <trkpt lat="43.22423" lon="0.88734">
        <ele>449</ele>
        <time>2019-02-17T14:25:37.000Z</time>
      </trkpt>
      <trkpt lat="43.22423" lon="0.88731">
        <ele>449</ele>
        <time>2019-02-17T14:25:39.000Z</time>
      </trkpt>
      <trkpt lat="43.22424" lon="0.88729">
        <ele>448</ele>
        <time>2019-02-17T14:25:41.000Z</time>
      </trkpt>
      <trkpt lat="43.22424" lon="0.88725">
        <ele>448</ele>
        <time>2019-02-17T14:25:43.000Z</time>
      </trkpt>
      <trkpt lat="43.22425" lon="0.88723">
        <ele>448</ele>
        <time>2019-02-17T14:25:45.000Z</time>
      </trkpt>
      <trkpt lat="43.22426" lon="0.8872">
        <ele>448</ele>
        <time>2019-02-17T14:25:47.000Z</time>
      </trkpt>
      <trkpt lat="43.22426" lon="0.88717">
        <ele>447</ele>
        <time>2019-02-17T14:25:49.000Z</time>
      </trkpt>
      <trkpt lat="43.22426" lon="0.88716">
        <ele>447</ele>
        <time>2019-02-17T14:25:51.000Z</time>
      </trkpt>
      <trkpt lat="43.22427" lon="0.88714">
        <ele>447</ele>
        <time>2019-02-17T14:25:53.000Z</time>
      </trkpt>
      <trkpt lat="43.22427" lon="0.88713">
        <ele>447</ele>
        <time>2019-02-17T14:25:55.000Z</time>
      </trkpt>
      <trkpt lat="43.22426" lon="0.88711">
        <ele>447</ele>
        <time>2019-02-17T14:25:57.000Z</time>
      </trkpt>
      <trkpt lat="43.22427" lon="0.88708">
        <ele>446</ele>
        <time>2019-02-17T14:25:59.000Z</time>
      </trkpt>
      <trkpt lat="43.22427" lon="0.88705">
        <ele>446</ele>
        <time>2019-02-17T14:26:01.000Z</time>
      </trkpt>
      <trkpt lat="43.22427" lon="0.88703">
        <ele>446</ele>
        <time>2019-02-17T14:26:03.000Z</time>
      </trkpt>
      <trkpt lat="43.22428" lon="0.88701">
        <ele>446</ele>
        <time>2019-02-17T14:26:05.000Z</time>
      </trkpt>
      <trkpt lat="43.22428" lon="0.88699">
        <ele>445</ele>
        <time>2019-02-17T14:26:07.000Z</time>
      </trkpt>
      <trkpt lat="43.2243" lon="0.88696">
        <ele>445</ele>
        <time>2019-02-17T14:26:09.000Z</time>
      </trkpt>
      <trkpt lat="43.22431" lon="0.88694">
        <ele>445</ele>
        <time>2019-02-17T14:26:11.000Z</time>
      </trkpt>
      <trkpt lat="43.22432" lon="0.88691">
        <ele>444</ele>
        <time>2019-02-17T14:26:13.000Z</time>
      </trkpt>
      <trkpt lat="43.22432" lon="0.88688">
        <ele>444</ele>
        <time>2019-02-17T14:26:15.000Z</time>
      </trkpt>
      <trkpt lat="43.22432" lon="0.88685">
        <ele>443</ele>
        <time>2019-02-17T14:26:17.000Z</time>
      </trkpt>
      <trkpt lat="43.22433" lon="0.88683">
        <ele>443</ele>
        <time>2019-02-17T14:26:19.000Z</time>
      </trkpt>
      <trkpt lat="43.22434" lon="0.8868">
        <ele>443</ele>
        <time>2019-02-17T14:26:21.000Z</time>
      </trkpt>
      <trkpt lat="43.22435" lon="0.88678">
        <ele>442</ele>
        <time>2019-02-17T14:26:23.000Z</time>
      </trkpt>
      <trkpt lat="43.22435" lon="0.88676">
        <ele>442</ele>
        <time>2019-02-17T14:26:25.000Z</time>
      </trkpt>
      <trkpt lat="43.22436" lon="0.88673">
        <ele>442</ele>
        <time>2019-02-17T14:26:27.000Z</time>
      </trkpt>
      <trkpt lat="43.22437" lon="0.88671">
        <ele>441</ele>
        <time>2019-02-17T14:26:29.000Z</time>
      </trkpt>
      <trkpt lat="43.22437" lon="0.88669">
        <ele>441</ele>
        <time>2019-02-17T14:26:31.000Z</time>
      </trkpt>
      <trkpt lat="43.22437" lon="0.88667">
        <ele>441</ele>
        <time>2019-02-17T14:26:33.000Z</time>
      </trkpt>
      <trkpt lat="43.22439" lon="0.88665">
        <ele>440</ele>
        <time>2019-02-17T14:26:35.000Z</time>
      </trkpt>
      <trkpt lat="43.22439" lon="0.88663">
        <ele>440</ele>
        <time>2019-02-17T14:26:37.000Z</time>
      </trkpt>
      <trkpt lat="43.22439" lon="0.88661">
        <ele>440</ele>
        <time>2019-02-17T14:26:39.000Z</time>
      </trkpt>
      <trkpt lat="43.22439" lon="0.8866">
        <ele>440</ele>
        <time>2019-02-17T14:26:41.000Z</time>
      </trkpt>
      <trkpt lat="43.22439" lon="0.88658">
        <ele>440</ele>
        <time>2019-02-17T14:26:43.000Z</time>
      </trkpt>
      <trkpt lat="43.22439" lon="0.88656">
        <ele>439</ele>
        <time>2019-02-17T14:26:45.000Z</time>
      </trkpt>
      <trkpt lat="43.22439" lon="0.88653">
        <ele>439</ele>
        <time>2019-02-17T14:26:47.000Z</time>
      </trkpt>
      <trkpt lat="43.22439" lon="0.88651">
        <ele>439</ele>
        <time>2019-02-17T14:26:49.000Z</time>
      </trkpt>
      <trkpt lat="43.2244" lon="0.88649">
        <ele>438</ele>
        <time>2019-02-17T14:26:51.000Z</time>
      </trkpt>
      <trkpt lat="43.22441" lon="0.88646">
        <ele>438</ele>
        <time>2019-02-17T14:26:53.000Z</time>
      </trkpt>
      <trkpt lat="43.22441" lon="0.88643">
        <ele>438</ele>
        <time>2019-02-17T14:26:55.000Z</time>
      </trkpt>
      <trkpt lat="43.22442" lon="0.8864">
        <ele>438</ele>
        <time>2019-02-17T14:26:57.000Z</time>
      </trkpt>
      <trkpt lat="43.22443" lon="0.88638">
        <ele>437</ele>
        <time>2019-02-17T14:26:59.000Z</time>
      </trkpt>
      <trkpt lat="43.22444" lon="0.88635">
        <ele>437</ele>
        <time>2019-02-17T14:27:01.000Z</time>
      </trkpt>
      <trkpt lat="43.22445" lon="0.88633">
        <ele>436</ele>
        <time>2019-02-17T14:27:03.000Z</time>
      </trkpt>
      <trkpt lat="43.22445" lon="0.8863">
        <ele>436</ele>
        <time>2019-02-17T14:27:05.000Z</time>
      </trkpt>
      <trkpt lat="43.22445" lon="0.88628">
        <ele>436</ele>
        <time>2019-02-17T14:27:07.000Z</time>
      </trkpt>
      <trkpt lat="43.22446" lon="0.88626">
        <ele>436</ele>
        <time>2019-02-17T14:27:09.000Z</time>
      </trkpt>
      <trkpt lat="43.22446" lon="0.88622">
        <ele>435</ele>
        <time>2019-02-17T14:27:11.000Z</time>
      </trkpt>
      <trkpt lat="43.22447" lon="0.8862">
        <ele>435</ele>
        <time>2019-02-17T14:27:13.000Z</time>
      </trkpt>
      <trkpt lat="43.22447" lon="0.88618">
        <ele>435</ele>
        <time>2019-02-17T14:27:15.000Z</time>
      </trkpt>
      <trkpt lat="43.22447" lon="0.88616">
        <ele>434</ele>
        <time>2019-02-17T14:27:17.000Z</time>
      </trkpt>
      <trkpt lat="43.22448" lon="0.88613">
        <ele>434</ele>
        <time>2019-02-17T14:27:19.000Z</time>
      </trkpt>
      <trkpt lat="43.22449" lon="0.88611">
        <ele>434</ele>
        <time>2019-02-17T14:27:21.000Z</time>
      </trkpt>
      <trkpt lat="43.22449" lon="0.88607">
        <ele>433</ele>
        <time>2019-02-17T14:27:23.000Z</time>
      </trkpt>
      <trkpt lat="43.22449" lon="0.88604">
        <ele>433</ele>
        <time>2019-02-17T14:27:25.000Z</time>
      </trkpt>
      <trkpt lat="43.22449" lon="0.88601">
        <ele>433</ele>
        <time>2019-02-17T14:27:27.000Z</time>
      </trkpt>
      <trkpt lat="43.22449" lon="0.88599">
        <ele>432</ele>
        <time>2019-02-17T14:27:29.000Z</time>
      </trkpt>
      <trkpt lat="43.22449" lon="0.88596">
        <ele>432</ele>
        <time>2019-02-17T14:27:31.000Z</time>
      </trkpt>
      <trkpt lat="43.22448" lon="0.88593">
        <ele>432</ele>
        <time>2019-02-17T14:27:33.000Z</time>
      </trkpt>
      <trkpt lat="43.22448" lon="0.88591">
        <ele>432</ele>
        <time>2019-02-17T14:27:35.000Z</time>
      </trkpt>
      <trkpt lat="43.22448" lon="0.88588">
        <ele>431</ele>
        <time>2019-02-17T14:27:37.000Z</time>
      </trkpt>
      <trkpt lat="43.22448" lon="0.88586">
        <ele>431</ele>
        <time>2019-02-17T14:27:39.000Z</time>
      </trkpt>
      <trkpt lat="43.22448" lon="0.88585">
        <ele>431</ele>
        <time>2019-02-17T14:27:41.000Z</time>
      </trkpt>
      <trkpt lat="43.22448" lon="0.88583">
        <ele>431</ele>
        <time>2019-02-17T14:27:43.000Z</time>
      </trkpt>
      <trkpt lat="43.22447" lon="0.8858">
        <ele>431</ele>
        <time>2019-02-17T14:27:45.000Z</time>
      </trkpt>
      <trkpt lat="43.22447" lon="0.88578">
        <ele>430</ele>
        <time>2019-02-17T14:27:47.000Z</time>
      </trkpt>
      <trkpt lat="43.22446" lon="0.88575">
        <ele>430</ele>
        <time>2019-02-17T14:27:49.000Z</time>
      </trkpt>
      <trkpt lat="43.22445" lon="0.88572">
        <ele>430</ele>
        <time>2019-02-17T14:27:51.000Z</time>
      </trkpt>
      <trkpt lat="43.22445" lon="0.8857">
        <ele>430</ele>
        <time>2019-02-17T14:27:53.000Z</time>
      </trkpt>
      <trkpt lat="43.22444" lon="0.88567">
        <ele>430</ele>
        <time>2019-02-17T14:27:55.000Z</time>
      </trkpt>
      <trkpt lat="43.22444" lon="0.88565">
        <ele>429</ele>
        <time>2019-02-17T14:27:57.000Z</time>
      </trkpt>
      <trkpt lat="43.22444" lon="0.88562">
        <ele>429</ele>
        <time>2019-02-17T14:27:59.000Z</time>
      </trkpt>
      <trkpt lat="43.22444" lon="0.88559">
        <ele>429</ele>
        <time>2019-02-17T14:28:01.000Z</time>
      </trkpt>
      <trkpt lat="43.22443" lon="0.88556">
        <ele>429</ele>
        <time>2019-02-17T14:28:03.000Z</time>
      </trkpt>
      <trkpt lat="43.22443" lon="0.88554">
        <ele>428</ele>
        <time>2019-02-17T14:28:05.000Z</time>
      </trkpt>
      <trkpt lat="43.22442" lon="0.88552">
        <ele>428</ele>
        <time>2019-02-17T14:28:07.000Z</time>
      </trkpt>
      <trkpt lat="43.22442" lon="0.8855">
        <ele>428</ele>
        <time>2019-02-17T14:28:09.000Z</time>
      </trkpt>
      <trkpt lat="43.22442" lon="0.88549">
        <ele>428</ele>
        <time>2019-02-17T14:28:11.000Z</time>
      </trkpt>
      <trkpt lat="43.22441" lon="0.88545">
        <ele>427</ele>
        <time>2019-02-17T14:28:13.000Z</time>
      </trkpt>
      <trkpt lat="43.22441" lon="0.88543">
        <ele>427</ele>
        <time>2019-02-17T14:28:15.000Z</time>
      </trkpt>
      <trkpt lat="43.22442" lon="0.88541">
        <ele>427</ele>
        <time>2019-02-17T14:28:17.000Z</time>
      </trkpt>
      <trkpt lat="43.22442" lon="0.88539">
        <ele>427</ele>
        <time>2019-02-17T14:28:19.000Z</time>
      </trkpt>
      <trkpt lat="43.22443" lon="0.88536">
        <ele>426</ele>
        <time>2019-02-17T14:28:21.000Z</time>
      </trkpt>
      <trkpt lat="43.22443" lon="0.88534">
        <ele>426</ele>
        <time>2019-02-17T14:28:23.000Z</time>
      </trkpt>
      <trkpt lat="43.22443" lon="0.88533">
        <ele>426</ele>
        <time>2019-02-17T14:28:25.000Z</time>
      </trkpt>
      <trkpt lat="43.22443" lon="0.88531">
        <ele>426</ele>
        <time>2019-02-17T14:28:27.000Z</time>
      </trkpt>
      <trkpt lat="43.22443" lon="0.88529">
        <ele>425</ele>
        <time>2019-02-17T14:28:29.000Z</time>
      </trkpt>
      <trkpt lat="43.22443" lon="0.88527">
        <ele>425</ele>
        <time>2019-02-17T14:28:31.000Z</time>
      </trkpt>
      <trkpt lat="43.22443" lon="0.88526">
        <ele>425</ele>
        <time>2019-02-17T14:28:33.000Z</time>
      </trkpt>
      <trkpt lat="43.22443" lon="0.88525">
        <ele>425</ele>
        <time>2019-02-17T14:28:35.000Z</time>
      </trkpt>
      <trkpt lat="43.22443" lon="0.88524">
        <ele>425</ele>
        <time>2019-02-17T14:28:37.000Z</time>
      </trkpt>
      <trkpt lat="43.22443" lon="0.88524">
        <ele>425</ele>
        <time>2019-02-17T14:28:39.000Z</time>
      </trkpt>
      <trkpt lat="43.22443" lon="0.88523">
        <ele>425</ele>
        <time>2019-02-17T14:28:41.000Z</time>
      </trkpt>
      <trkpt lat="43.22443" lon="0.88523">
        <ele>425</ele>
        <time>2019-02-17T14:28:43.000Z</time>
      </trkpt>
      <trkpt lat="43.22443" lon="0.88523">
        <ele>425</ele>
        <time>2019-02-17T14:28:45.000Z</time>
      </trkpt>
      <trkpt lat="43.22443" lon="0.88522">
        <ele>425</ele>
        <time>2019-02-17T14:28:47.000Z</time>
      </trkpt>
      <trkpt lat="43.22442" lon="0.88522">
        <ele>425</ele>
        <time>2019-02-17T14:28:49.000Z</time>
      </trkpt>
      <trkpt lat="43.22442" lon="0.88522">
        <ele>425</ele>
        <time>2019-02-17T14:28:51.000Z</time>
      </trkpt>
      <trkpt lat="43.22442" lon="0.88522">
        <ele>425</ele>
        <time>2019-02-17T14:28:53.000Z</time>
      </trkpt>
      <trkpt lat="43.22442" lon="0.88522">
        <ele>425</ele>
        <time>2019-02-17T14:28:55.000Z</time>
      </trkpt>
      <trkpt lat="43.22442" lon="0.88522">
        <ele>425</ele>
        <time>2019-02-17T14:28:57.000Z</time>
      </trkpt>
      <trkpt lat="43.22442" lon="0.88521">
        <ele>424</ele>
        <time>2019-02-17T14:28:59.000Z</time>
      </trkpt>
      <trkpt lat="43.22442" lon="0.8852">
        <ele>424</ele>
        <time>2019-02-17T14:29:01.000Z</time>
      </trkpt>
      <trkpt lat="43.22442" lon="0.8852">
        <ele>424</ele>
        <time>2019-02-17T14:29:03.000Z</time>
      </trkpt>
      <trkpt lat="43.22442" lon="0.8852">
        <ele>424</ele>
        <time>2019-02-17T14:29:05.000Z</time>
      </trkpt>
      <trkpt lat="43.22442" lon="0.88519">
        <ele>424</ele>
        <time>2019-02-17T14:29:07.000Z</time>
      </trkpt>
      <trkpt lat="43.22443" lon="0.88519">
        <ele>424</ele>
        <time>2019-02-17T14:29:09.000Z</time>
      </trkpt>
      <trkpt lat="43.22443" lon="0.88519">
        <ele>424</ele>
        <time>2019-02-17T14:29:11.000Z</time>
      </trkpt>
      <trkpt lat="43.22443" lon="0.88519">
        <ele>424</ele>
        <time>2019-02-17T14:29:13.000Z</time>
      </trkpt>
      <trkpt lat="43.22443" lon="0.88518">
        <ele>424</ele>
        <time>2019-02-17T14:29:15.000Z</time>
      </trkpt>
      <trkpt lat="43.22442" lon="0.88518">
        <ele>424</ele>
        <time>2019-02-17T14:29:17.000Z</time>
      </trkpt>
      <trkpt lat="43.22442" lon="0.88518">
        <ele>424</ele>
        <time>2019-02-17T14:29:19.000Z</time>
      </trkpt>
      <trkpt lat="43.22441" lon="0.88517">
        <ele>424</ele>
        <time>2019-02-17T14:29:21.000Z</time>
      </trkpt>
      <trkpt lat="43.22441" lon="0.88517">
        <ele>424</ele>
        <time>2019-02-17T14:29:23.000Z</time>
      </trkpt>
      <trkpt lat="43.22441" lon="0.88517">
        <ele>424</ele>
        <time>2019-02-17T14:29:25.000Z</time>
      </trkpt>
      <trkpt lat="43.22441" lon="0.88517">
        <ele>424</ele>
        <time>2019-02-17T14:29:27.000Z</time>
      </trkpt>
      <trkpt lat="43.22441" lon="0.88516">
        <ele>424</ele>
        <time>2019-02-17T14:29:29.000Z</time>
      </trkpt>
      <trkpt lat="43.22441" lon="0.88516">
        <ele>424</ele>
        <time>2019-02-17T14:29:31.000Z</time>
      </trkpt>
      <trkpt lat="43.22441" lon="0.88517">
        <ele>424</ele>
        <time>2019-02-17T14:29:33.000Z</time>
      </trkpt>
      <trkpt lat="43.22441" lon="0.88517">
        <ele>424</ele>
        <time>2019-02-17T14:29:35.000Z</time>
      </trkpt>
      <trkpt lat="43.22441" lon="0.88518">
        <ele>424</ele>
        <time>2019-02-17T14:29:37.000Z</time>
      </trkpt>
      <trkpt lat="43.22441" lon="0.88518">
        <ele>424</ele>
        <time>2019-02-17T14:29:39.000Z</time>
      </trkpt>
      <trkpt lat="43.22441" lon="0.88519">
        <ele>424</ele>
        <time>2019-02-17T14:29:41.000Z</time>
      </trkpt>
      <trkpt lat="43.22441" lon="0.8852">
        <ele>424</ele>
        <time>2019-02-17T14:29:43.000Z</time>
      </trkpt>
      <trkpt lat="43.22441" lon="0.88521">
        <ele>425</ele>
        <time>2019-02-17T14:29:45.000Z</time>
      </trkpt>
      <trkpt lat="43.22441" lon="0.88521">
        <ele>425</ele>
        <time>2019-02-17T14:29:47.000Z</time>
      </trkpt>
      <trkpt lat="43.22441" lon="0.88521">
        <ele>425</ele>
        <time>2019-02-17T14:29:49.000Z</time>
      </trkpt>
      <trkpt lat="43.22441" lon="0.88522">
        <ele>425</ele>
        <time>2019-02-17T14:29:51.000Z</time>
      </trkpt>
      <trkpt lat="43.22441" lon="0.88523">
        <ele>425</ele>
        <time>2019-02-17T14:29:53.000Z</time>
      </trkpt>
      <trkpt lat="43.22442" lon="0.88524">
        <ele>425</ele>
        <time>2019-02-17T14:29:55.000Z</time>
      </trkpt>
      <trkpt lat="43.22441" lon="0.88525">
        <ele>425</ele>
        <time>2019-02-17T14:29:57.000Z</time>
      </trkpt>
      <trkpt lat="43.22441" lon="0.88525">
        <ele>425</ele>
        <time>2019-02-17T14:29:59.000Z</time>
      </trkpt>
      <trkpt lat="43.22442" lon="0.88525">
        <ele>425</ele>
        <time>2019-02-17T14:30:01.000Z</time>
      </trkpt>
      <trkpt lat="43.22442" lon="0.88526">
        <ele>425</ele>
        <time>2019-02-17T14:30:03.000Z</time>
      </trkpt>
      <trkpt lat="43.22442" lon="0.88526">
        <ele>425</ele>
        <time>2019-02-17T14:30:05.000Z</time>
      </trkpt>
      <trkpt lat="43.22442" lon="0.88527">
        <ele>425</ele>
        <time>2019-02-17T14:30:07.000Z</time>
      </trkpt>
      <trkpt lat="43.22442" lon="0.88528">
        <ele>425</ele>
        <time>2019-02-17T14:30:09.000Z</time>
      </trkpt>
      <trkpt lat="43.22443" lon="0.88529">
        <ele>425</ele>
        <time>2019-02-17T14:30:11.000Z</time>
      </trkpt>
      <trkpt lat="43.22443" lon="0.88528">
        <ele>425</ele>
        <time>2019-02-17T14:30:13.000Z</time>
      </trkpt>
      <trkpt lat="43.22443" lon="0.88529">
        <ele>425</ele>
        <time>2019-02-17T14:30:15.000Z</time>
      </trkpt>
      <trkpt lat="43.22443" lon="0.88529">
        <ele>425</ele>
        <time>2019-02-17T14:30:17.000Z</time>
      </trkpt>
      <trkpt lat="43.22444" lon="0.88529">
        <ele>425</ele>
        <time>2019-02-17T14:30:19.000Z</time>
      </trkpt>
      <trkpt lat="43.22444" lon="0.88529">
        <ele>425</ele>
        <time>2019-02-17T14:30:21.000Z</time>
      </trkpt>
      <trkpt lat="43.22444" lon="0.8853">
        <ele>425</ele>
        <time>2019-02-17T14:30:23.000Z</time>
      </trkpt>
      <trkpt lat="43.22444" lon="0.8853">
        <ele>425</ele>
        <time>2019-02-17T14:30:25.000Z</time>
      </trkpt>
      <trkpt lat="43.22445" lon="0.88529">
        <ele>425</ele>
        <time>2019-02-17T14:30:27.000Z</time>
      </trkpt>
      <trkpt lat="43.22445" lon="0.88528">
        <ele>425</ele>
        <time>2019-02-17T14:30:29.000Z</time>
      </trkpt>
      <trkpt lat="43.22446" lon="0.88527">
        <ele>425</ele>
        <time>2019-02-17T14:30:31.000Z</time>
      </trkpt>
      <trkpt lat="43.22446" lon="0.88526">
        <ele>425</ele>
        <time>2019-02-17T14:30:33.000Z</time>
      </trkpt>
      <trkpt lat="43.22446" lon="0.88526">
        <ele>425</ele>
        <time>2019-02-17T14:30:35.000Z</time>
      </trkpt>
      <trkpt lat="43.22446" lon="0.88525">
        <ele>425</ele>
        <time>2019-02-17T14:30:37.000Z</time>
      </trkpt>
      <trkpt lat="43.22446" lon="0.88525">
        <ele>425</ele>
        <time>2019-02-17T14:30:39.000Z</time>
      </trkpt>
      <trkpt lat="43.22447" lon="0.88524">
        <ele>424</ele>
        <time>2019-02-17T14:30:41.000Z</time>
      </trkpt>
      <trkpt lat="43.22447" lon="0.88523">
        <ele>424</ele>
        <time>2019-02-17T14:30:43.000Z</time>
      </trkpt>
      <trkpt lat="43.22449" lon="0.88521">
        <ele>424</ele>
        <time>2019-02-17T14:30:45.000Z</time>
      </trkpt>
      <trkpt lat="43.22449" lon="0.88521">
        <ele>424</ele>
        <time>2019-02-17T14:30:47.000Z</time>
      </trkpt>
      <trkpt lat="43.22449" lon="0.8852">
        <ele>424</ele>
        <time>2019-02-17T14:30:49.000Z</time>
      </trkpt>
      <trkpt lat="43.22448" lon="0.88519">
        <ele>424</ele>
        <time>2019-02-17T14:30:51.000Z</time>
      </trkpt>
      <trkpt lat="43.22448" lon="0.88519">
        <ele>424</ele>
        <time>2019-02-17T14:30:53.000Z</time>
      </trkpt>
      <trkpt lat="43.22447" lon="0.88518">
        <ele>424</ele>
        <time>2019-02-17T14:30:55.000Z</time>
      </trkpt>
      <trkpt lat="43.22447" lon="0.88519">
        <ele>424</ele>
        <time>2019-02-17T14:30:57.000Z</time>
      </trkpt>
      <trkpt lat="43.22446" lon="0.88519">
        <ele>424</ele>
        <time>2019-02-17T14:30:59.000Z</time>
      </trkpt>
      <trkpt lat="43.22445" lon="0.88521">
        <ele>424</ele>
        <time>2019-02-17T14:31:01.000Z</time>
      </trkpt>
      <trkpt lat="43.22444" lon="0.88522">
        <ele>424</ele>
        <time>2019-02-17T14:31:03.000Z</time>
      </trkpt>
      <trkpt lat="43.22443" lon="0.88522">
        <ele>424</ele>
        <time>2019-02-17T14:31:05.000Z</time>
      </trkpt>
      <trkpt lat="43.22443" lon="0.88522">
        <ele>424</ele>
        <time>2019-02-17T14:31:07.000Z</time>
      </trkpt>
      <trkpt lat="43.22443" lon="0.88522">
        <ele>424</ele>
        <time>2019-02-17T14:31:09.000Z</time>
      </trkpt>
      <trkpt lat="43.22443" lon="0.88521">
        <ele>424</ele>
        <time>2019-02-17T14:31:11.000Z</time>
      </trkpt>
      <trkpt lat="43.22443" lon="0.88522">
        <ele>424</ele>
        <time>2019-02-17T14:31:13.000Z</time>
      </trkpt>
      <trkpt lat="43.22443" lon="0.88522">
        <ele>425</ele>
        <time>2019-02-17T14:31:15.000Z</time>
      </trkpt>
      <trkpt lat="43.22442" lon="0.88523">
        <ele>425</ele>
        <time>2019-02-17T14:31:17.000Z</time>
      </trkpt>
      <trkpt lat="43.22441" lon="0.88524">
        <ele>425</ele>
        <time>2019-02-17T14:31:19.000Z</time>
      </trkpt>
      <trkpt lat="43.22441" lon="0.88524">
        <ele>425</ele>
        <time>2019-02-17T14:31:21.000Z</time>
      </trkpt>
      <trkpt lat="43.22441" lon="0.88524">
        <ele>425</ele>
        <time>2019-02-17T14:31:23.000Z</time>
      </trkpt>
      <trkpt lat="43.2244" lon="0.88523">
        <ele>425</ele>
        <time>2019-02-17T14:31:25.000Z</time>
      </trkpt>
      <trkpt lat="43.22439" lon="0.88521">
        <ele>425</ele>
        <time>2019-02-17T14:31:27.000Z</time>
      </trkpt>
      <trkpt lat="43.22438" lon="0.88519">
        <ele>425</ele>
        <time>2019-02-17T14:31:29.000Z</time>
      </trkpt>
      <trkpt lat="43.22437" lon="0.88518">
        <ele>425</ele>
        <time>2019-02-17T14:31:31.000Z</time>
      </trkpt>
      <trkpt lat="43.22436" lon="0.88517">
        <ele>425</ele>
        <time>2019-02-17T14:31:33.000Z</time>
      </trkpt>
      <trkpt lat="43.22435" lon="0.88516">
        <ele>425</ele>
        <time>2019-02-17T14:31:35.000Z</time>
      </trkpt>
      <trkpt lat="43.22433" lon="0.88515">
        <ele>425</ele>
        <time>2019-02-17T14:31:37.000Z</time>
      </trkpt>
      <trkpt lat="43.22432" lon="0.88514">
        <ele>425</ele>
        <time>2019-02-17T14:31:39.000Z</time>
      </trkpt>
      <trkpt lat="43.2243" lon="0.88513">
        <ele>425</ele>
        <time>2019-02-17T14:31:41.000Z</time>
      </trkpt>
      <trkpt lat="43.22429" lon="0.88512">
        <ele>425</ele>
        <time>2019-02-17T14:31:43.000Z</time>
      </trkpt>
      <trkpt lat="43.22427" lon="0.88511">
        <ele>424</ele>
        <time>2019-02-17T14:31:45.000Z</time>
      </trkpt>
      <trkpt lat="43.22426" lon="0.88509">
        <ele>424</ele>
        <time>2019-02-17T14:31:47.000Z</time>
      </trkpt>
      <trkpt lat="43.22424" lon="0.88509">
        <ele>424</ele>
        <time>2019-02-17T14:31:49.000Z</time>
      </trkpt>
      <trkpt lat="43.22423" lon="0.88508">
        <ele>424</ele>
        <time>2019-02-17T14:31:51.000Z</time>
      </trkpt>
      <trkpt lat="43.22421" lon="0.88507">
        <ele>424</ele>
        <time>2019-02-17T14:31:53.000Z</time>
      </trkpt>
      <trkpt lat="43.22421" lon="0.88507">
        <ele>424</ele>
        <time>2019-02-17T14:31:55.000Z</time>
      </trkpt>
      <trkpt lat="43.2242" lon="0.88505">
        <ele>424</ele>
        <time>2019-02-17T14:31:57.000Z</time>
      </trkpt>
      <trkpt lat="43.22419" lon="0.88504">
        <ele>423</ele>
        <time>2019-02-17T14:31:59.000Z</time>
      </trkpt>
      <trkpt lat="43.22417" lon="0.88503">
        <ele>423</ele>
        <time>2019-02-17T14:32:01.000Z</time>
      </trkpt>
      <trkpt lat="43.22416" lon="0.88502">
        <ele>423</ele>
        <time>2019-02-17T14:32:03.000Z</time>
      </trkpt>
      <trkpt lat="43.22416" lon="0.88501">
        <ele>423</ele>
        <time>2019-02-17T14:32:05.000Z</time>
      </trkpt>
      <trkpt lat="43.22415" lon="0.88499">
        <ele>423</ele>
        <time>2019-02-17T14:32:07.000Z</time>
      </trkpt>
      <trkpt lat="43.22414" lon="0.88497">
        <ele>422</ele>
        <time>2019-02-17T14:32:09.000Z</time>
      </trkpt>
      <trkpt lat="43.22413" lon="0.88495">
        <ele>422</ele>
        <time>2019-02-17T14:32:11.000Z</time>
      </trkpt>
      <trkpt lat="43.22413" lon="0.88494">
        <ele>422</ele>
        <time>2019-02-17T14:32:13.000Z</time>
      </trkpt>
      <trkpt lat="43.22413" lon="0.88491">
        <ele>422</ele>
        <time>2019-02-17T14:32:15.000Z</time>
      </trkpt>
      <trkpt lat="43.22411" lon="0.8849">
        <ele>421</ele>
        <time>2019-02-17T14:32:17.000Z</time>
      </trkpt>
      <trkpt lat="43.22409" lon="0.8849">
        <ele>421</ele>
        <time>2019-02-17T14:32:19.000Z</time>
      </trkpt>
      <trkpt lat="43.22408" lon="0.8849">
        <ele>421</ele>
        <time>2019-02-17T14:32:21.000Z</time>
      </trkpt>
      <trkpt lat="43.22406" lon="0.88489">
        <ele>421</ele>
        <time>2019-02-17T14:32:23.000Z</time>
      </trkpt>
      <trkpt lat="43.22403" lon="0.88489">
        <ele>421</ele>
        <time>2019-02-17T14:32:25.000Z</time>
      </trkpt>
      <trkpt lat="43.22402" lon="0.88489">
        <ele>421</ele>
        <time>2019-02-17T14:32:27.000Z</time>
      </trkpt>
      <trkpt lat="43.224" lon="0.88489">
        <ele>421</ele>
        <time>2019-02-17T14:32:29.000Z</time>
      </trkpt>
      <trkpt lat="43.22398" lon="0.88489">
        <ele>421</ele>
        <time>2019-02-17T14:32:31.000Z</time>
      </trkpt>
      <trkpt lat="43.22396" lon="0.88489">
        <ele>421</ele>
        <time>2019-02-17T14:32:33.000Z</time>
      </trkpt>
      <trkpt lat="43.22395" lon="0.8849">
        <ele>421</ele>
        <time>2019-02-17T14:32:35.000Z</time>
      </trkpt>
      <trkpt lat="43.22393" lon="0.88489">
        <ele>421</ele>
        <time>2019-02-17T14:32:37.000Z</time>
      </trkpt>
      <trkpt lat="43.22391" lon="0.88489">
        <ele>421</ele>
        <time>2019-02-17T14:32:39.000Z</time>
      </trkpt>
      <trkpt lat="43.2239" lon="0.88489">
        <ele>420</ele>
        <time>2019-02-17T14:32:41.000Z</time>
      </trkpt>
      <trkpt lat="43.22388" lon="0.88488">
        <ele>420</ele>
        <time>2019-02-17T14:32:43.000Z</time>
      </trkpt>
      <trkpt lat="43.22387" lon="0.88487">
        <ele>420</ele>
        <time>2019-02-17T14:32:45.000Z</time>
      </trkpt>
      <trkpt lat="43.22385" lon="0.88487">
        <ele>420</ele>
        <time>2019-02-17T14:32:47.000Z</time>
      </trkpt>
      <trkpt lat="43.22383" lon="0.88486">
        <ele>420</ele>
        <time>2019-02-17T14:32:49.000Z</time>
      </trkpt>
      <trkpt lat="43.22382" lon="0.88485">
        <ele>420</ele>
        <time>2019-02-17T14:32:51.000Z</time>
      </trkpt>
      <trkpt lat="43.2238" lon="0.88484">
        <ele>419</ele>
        <time>2019-02-17T14:32:53.000Z</time>
      </trkpt>
      <trkpt lat="43.22378" lon="0.88483">
        <ele>419</ele>
        <time>2019-02-17T14:32:55.000Z</time>
      </trkpt>
      <trkpt lat="43.22377" lon="0.88482">
        <ele>419</ele>
        <time>2019-02-17T14:32:57.000Z</time>
      </trkpt>
      <trkpt lat="43.22375" lon="0.88481">
        <ele>419</ele>
        <time>2019-02-17T14:32:59.000Z</time>
      </trkpt>
      <trkpt lat="43.22374" lon="0.88479">
        <ele>419</ele>
        <time>2019-02-17T14:33:01.000Z</time>
      </trkpt>
      <trkpt lat="43.22372" lon="0.88477">
        <ele>418</ele>
        <time>2019-02-17T14:33:03.000Z</time>
      </trkpt>
      <trkpt lat="43.22371" lon="0.88477">
        <ele>418</ele>
        <time>2019-02-17T14:33:05.000Z</time>
      </trkpt>
      <trkpt lat="43.2237" lon="0.88476">
        <ele>418</ele>
        <time>2019-02-17T14:33:07.000Z</time>
      </trkpt>
      <trkpt lat="43.22369" lon="0.88475">
        <ele>418</ele>
        <time>2019-02-17T14:33:09.000Z</time>
      </trkpt>
      <trkpt lat="43.22367" lon="0.88473">
        <ele>418</ele>
        <time>2019-02-17T14:33:11.000Z</time>
      </trkpt>
      <trkpt lat="43.22366" lon="0.88472">
        <ele>418</ele>
        <time>2019-02-17T14:33:13.000Z</time>
      </trkpt>
      <trkpt lat="43.22364" lon="0.88471">
        <ele>417</ele>
        <time>2019-02-17T14:33:15.000Z</time>
      </trkpt>
      <trkpt lat="43.22363" lon="0.8847">
        <ele>417</ele>
        <time>2019-02-17T14:33:17.000Z</time>
      </trkpt>
      <trkpt lat="43.22361" lon="0.88469">
        <ele>417</ele>
        <time>2019-02-17T14:33:19.000Z</time>
      </trkpt>
      <trkpt lat="43.2236" lon="0.88468">
        <ele>417</ele>
        <time>2019-02-17T14:33:21.000Z</time>
      </trkpt>
      <trkpt lat="43.22359" lon="0.88467">
        <ele>417</ele>
        <time>2019-02-17T14:33:23.000Z</time>
      </trkpt>
      <trkpt lat="43.22358" lon="0.88466">
        <ele>416</ele>
        <time>2019-02-17T14:33:25.000Z</time>
      </trkpt>
      <trkpt lat="43.22356" lon="0.88466">
        <ele>416</ele>
        <time>2019-02-17T14:33:27.000Z</time>
      </trkpt>
      <trkpt lat="43.22354" lon="0.88465">
        <ele>416</ele>
        <time>2019-02-17T14:33:29.000Z</time>
      </trkpt>
      <trkpt lat="43.22352" lon="0.88464">
        <ele>416</ele>
        <time>2019-02-17T14:33:31.000Z</time>
      </trkpt>
      <trkpt lat="43.2235" lon="0.88462">
        <ele>416</ele>
        <time>2019-02-17T14:33:33.000Z</time>
      </trkpt>
      <trkpt lat="43.22348" lon="0.8846">
        <ele>415</ele>
        <time>2019-02-17T14:33:35.000Z</time>
      </trkpt>
      <trkpt lat="43.22344" lon="0.88459">
        <ele>415</ele>
        <time>2019-02-17T14:33:37.000Z</time>
      </trkpt>
      <trkpt lat="43.22341" lon="0.88458">
        <ele>414</ele>
        <time>2019-02-17T14:33:39.000Z</time>
      </trkpt>
      <trkpt lat="43.22339" lon="0.88456">
        <ele>414</ele>
        <time>2019-02-17T14:33:41.000Z</time>
      </trkpt>
      <trkpt lat="43.22337" lon="0.88455">
        <ele>413</ele>
        <time>2019-02-17T14:33:43.000Z</time>
      </trkpt>
      <trkpt lat="43.22333" lon="0.88455">
        <ele>413</ele>
        <time>2019-02-17T14:33:45.000Z</time>
      </trkpt>
      <trkpt lat="43.2233" lon="0.88454">
        <ele>412</ele>
        <time>2019-02-17T14:33:47.000Z</time>
      </trkpt>
      <trkpt lat="43.22328" lon="0.88453">
        <ele>412</ele>
        <time>2019-02-17T14:33:49.000Z</time>
      </trkpt>
      <trkpt lat="43.22327" lon="0.88452">
        <ele>412</ele>
        <time>2019-02-17T14:33:51.000Z</time>
      </trkpt>
      <trkpt lat="43.22325" lon="0.88451">
        <ele>411</ele>
        <time>2019-02-17T14:33:53.000Z</time>
      </trkpt>
      <trkpt lat="43.22323" lon="0.8845">
        <ele>411</ele>
        <time>2019-02-17T14:33:55.000Z</time>
      </trkpt>
      <trkpt lat="43.22319" lon="0.8845">
        <ele>411</ele>
        <time>2019-02-17T14:33:57.000Z</time>
      </trkpt>
      <trkpt lat="43.22316" lon="0.88449">
        <ele>410</ele>
        <time>2019-02-17T14:33:59.000Z</time>
      </trkpt>
      <trkpt lat="43.22314" lon="0.88449">
        <ele>410</ele>
        <time>2019-02-17T14:34:01.000Z</time>
      </trkpt>
      <trkpt lat="43.22311" lon="0.88449">
        <ele>410</ele>
        <time>2019-02-17T14:34:03.000Z</time>
      </trkpt>
      <trkpt lat="43.22308" lon="0.88449">
        <ele>409</ele>
        <time>2019-02-17T14:34:05.000Z</time>
      </trkpt>
      <trkpt lat="43.22306" lon="0.88448">
        <ele>409</ele>
        <time>2019-02-17T14:34:07.000Z</time>
      </trkpt>
      <trkpt lat="43.22304" lon="0.88448">
        <ele>409</ele>
        <time>2019-02-17T14:34:09.000Z</time>
      </trkpt>
      <trkpt lat="43.22302" lon="0.88448">
        <ele>409</ele>
        <time>2019-02-17T14:34:11.000Z</time>
      </trkpt>
      <trkpt lat="43.22301" lon="0.88449">
        <ele>409</ele>
        <time>2019-02-17T14:34:13.000Z</time>
      </trkpt>
      <trkpt lat="43.22299" lon="0.88449">
        <ele>408</ele>
        <time>2019-02-17T14:34:15.000Z</time>
      </trkpt>
      <trkpt lat="43.22298" lon="0.88448">
        <ele>408</ele>
        <time>2019-02-17T14:34:17.000Z</time>
      </trkpt>
      <trkpt lat="43.22296" lon="0.88448">
        <ele>408</ele>
        <time>2019-02-17T14:34:19.000Z</time>
      </trkpt>
      <trkpt lat="43.22295" lon="0.88447">
        <ele>408</ele>
        <time>2019-02-17T14:34:21.000Z</time>
      </trkpt>
      <trkpt lat="43.22293" lon="0.88447">
        <ele>408</ele>
        <time>2019-02-17T14:34:23.000Z</time>
      </trkpt>
      <trkpt lat="43.22291" lon="0.88447">
        <ele>407</ele>
        <time>2019-02-17T14:34:25.000Z</time>
      </trkpt>
      <trkpt lat="43.2229" lon="0.88448">
        <ele>407</ele>
        <time>2019-02-17T14:34:27.000Z</time>
      </trkpt>
      <trkpt lat="43.22289" lon="0.88449">
        <ele>407</ele>
        <time>2019-02-17T14:34:29.000Z</time>
      </trkpt>
      <trkpt lat="43.22288" lon="0.88449">
        <ele>407</ele>
        <time>2019-02-17T14:34:31.000Z</time>
      </trkpt>
      <trkpt lat="43.22284" lon="0.8845">
        <ele>407</ele>
        <time>2019-02-17T14:34:33.000Z</time>
      </trkpt>
      <trkpt lat="43.22283" lon="0.8845">
        <ele>407</ele>
        <time>2019-02-17T14:34:35.000Z</time>
      </trkpt>
      <trkpt lat="43.2228" lon="0.8845">
        <ele>407</ele>
        <time>2019-02-17T14:34:37.000Z</time>
      </trkpt>
      <trkpt lat="43.22278" lon="0.8845">
        <ele>407</ele>
        <time>2019-02-17T14:34:39.000Z</time>
      </trkpt>
      <trkpt lat="43.22275" lon="0.8845">
        <ele>406</ele>
        <time>2019-02-17T14:34:41.000Z</time>
      </trkpt>
      <trkpt lat="43.22274" lon="0.8845">
        <ele>406</ele>
        <time>2019-02-17T14:34:43.000Z</time>
      </trkpt>
      <trkpt lat="43.22272" lon="0.8845">
        <ele>406</ele>
        <time>2019-02-17T14:34:45.000Z</time>
      </trkpt>
      <trkpt lat="43.22271" lon="0.8845">
        <ele>406</ele>
        <time>2019-02-17T14:34:47.000Z</time>
      </trkpt>
      <trkpt lat="43.22269" lon="0.8845">
        <ele>406</ele>
        <time>2019-02-17T14:34:49.000Z</time>
      </trkpt>
      <trkpt lat="43.22267" lon="0.8845">
        <ele>406</ele>
        <time>2019-02-17T14:34:52.000Z</time>
      </trkpt>
      <trkpt lat="43.22266" lon="0.8845">
        <ele>406</ele>
        <time>2019-02-17T14:34:54.000Z</time>
      </trkpt>
      <trkpt lat="43.22265" lon="0.8845">
        <ele>405</ele>
        <time>2019-02-17T14:34:56.000Z</time>
      </trkpt>
      <trkpt lat="43.22263" lon="0.88449">
        <ele>405</ele>
        <time>2019-02-17T14:34:58.000Z</time>
      </trkpt>
      <trkpt lat="43.22262" lon="0.88449">
        <ele>405</ele>
        <time>2019-02-17T14:35:00.000Z</time>
      </trkpt>
      <trkpt lat="43.22261" lon="0.8845">
        <ele>405</ele>
        <time>2019-02-17T14:35:02.000Z</time>
      </trkpt>
      <trkpt lat="43.2226" lon="0.88449">
        <ele>405</ele>
        <time>2019-02-17T14:35:04.000Z</time>
      </trkpt>
      <trkpt lat="43.22259" lon="0.88449">
        <ele>405</ele>
        <time>2019-02-17T14:35:06.000Z</time>
      </trkpt>
      <trkpt lat="43.22257" lon="0.88448">
        <ele>404</ele>
        <time>2019-02-17T14:35:08.000Z</time>
      </trkpt>
      <trkpt lat="43.22256" lon="0.88446">
        <ele>404</ele>
        <time>2019-02-17T14:35:10.000Z</time>
      </trkpt>
      <trkpt lat="43.22255" lon="0.88445">
        <ele>404</ele>
        <time>2019-02-17T14:35:12.000Z</time>
      </trkpt>
      <trkpt lat="43.22254" lon="0.88445">
        <ele>404</ele>
        <time>2019-02-17T14:35:14.000Z</time>
      </trkpt>
      <trkpt lat="43.22253" lon="0.88445">
        <ele>404</ele>
        <time>2019-02-17T14:35:16.000Z</time>
      </trkpt>
      <trkpt lat="43.22253" lon="0.88445">
        <ele>404</ele>
        <time>2019-02-17T14:35:18.000Z</time>
      </trkpt>
      <trkpt lat="43.22252" lon="0.88444">
        <ele>404</ele>
        <time>2019-02-17T14:35:20.000Z</time>
      </trkpt>
      <trkpt lat="43.22251" lon="0.88443">
        <ele>403</ele>
        <time>2019-02-17T14:35:22.000Z</time>
      </trkpt>
      <trkpt lat="43.2225" lon="0.88442">
        <ele>403</ele>
        <time>2019-02-17T14:35:24.000Z</time>
      </trkpt>
      <trkpt lat="43.22249" lon="0.88441">
        <ele>403</ele>
        <time>2019-02-17T14:35:26.000Z</time>
      </trkpt>
      <trkpt lat="43.22248" lon="0.8844">
        <ele>403</ele>
        <time>2019-02-17T14:35:28.000Z</time>
      </trkpt>
      <trkpt lat="43.22246" lon="0.88439">
        <ele>402</ele>
        <time>2019-02-17T14:35:30.000Z</time>
      </trkpt>
      <trkpt lat="43.22245" lon="0.88438">
        <ele>402</ele>
        <time>2019-02-17T14:35:32.000Z</time>
      </trkpt>
      <trkpt lat="43.22243" lon="0.88438">
        <ele>402</ele>
        <time>2019-02-17T14:35:34.000Z</time>
      </trkpt>
      <trkpt lat="43.22242" lon="0.88438">
        <ele>402</ele>
        <time>2019-02-17T14:35:36.000Z</time>
      </trkpt>
      <trkpt lat="43.2224" lon="0.88439">
        <ele>402</ele>
        <time>2019-02-17T14:35:38.000Z</time>
      </trkpt>
      <trkpt lat="43.22239" lon="0.88438">
        <ele>402</ele>
        <time>2019-02-17T14:35:40.000Z</time>
      </trkpt>
      <trkpt lat="43.22237" lon="0.88438">
        <ele>402</ele>
        <time>2019-02-17T14:35:42.000Z</time>
      </trkpt>
      <trkpt lat="43.22235" lon="0.88438">
        <ele>401</ele>
        <time>2019-02-17T14:35:44.000Z</time>
      </trkpt>
      <trkpt lat="43.22233" lon="0.88438">
        <ele>401</ele>
        <time>2019-02-17T14:35:46.000Z</time>
      </trkpt>
      <trkpt lat="43.22231" lon="0.88437">
        <ele>401</ele>
        <time>2019-02-17T14:35:48.000Z</time>
      </trkpt>
      <trkpt lat="43.22229" lon="0.88437">
        <ele>401</ele>
        <time>2019-02-17T14:35:50.000Z</time>
      </trkpt>
      <trkpt lat="43.22228" lon="0.88437">
        <ele>401</ele>
        <time>2019-02-17T14:35:52.000Z</time>
      </trkpt>
      <trkpt lat="43.22226" lon="0.88438">
        <ele>401</ele>
        <time>2019-02-17T14:35:54.000Z</time>
      </trkpt>
      <trkpt lat="43.22225" lon="0.88437">
        <ele>401</ele>
        <time>2019-02-17T14:35:56.000Z</time>
      </trkpt>
      <trkpt lat="43.22222" lon="0.88438">
        <ele>401</ele>
        <time>2019-02-17T14:35:58.000Z</time>
      </trkpt>
      <trkpt lat="43.2222" lon="0.88438">
        <ele>400</ele>
        <time>2019-02-17T14:36:00.000Z</time>
      </trkpt>
      <trkpt lat="43.22218" lon="0.88438">
        <ele>400</ele>
        <time>2019-02-17T14:36:02.000Z</time>
      </trkpt>
      <trkpt lat="43.22217" lon="0.88438">
        <ele>400</ele>
        <time>2019-02-17T14:36:04.000Z</time>
      </trkpt>
      <trkpt lat="43.22215" lon="0.88439">
        <ele>400</ele>
        <time>2019-02-17T14:36:06.000Z</time>
      </trkpt>
      <trkpt lat="43.22212" lon="0.8844">
        <ele>400</ele>
        <time>2019-02-17T14:36:08.000Z</time>
      </trkpt>
      <trkpt lat="43.22209" lon="0.88441">
        <ele>400</ele>
        <time>2019-02-17T14:36:10.000Z</time>
      </trkpt>
      <trkpt lat="43.22207" lon="0.88441">
        <ele>399</ele>
        <time>2019-02-17T14:36:12.000Z</time>
      </trkpt>
      <trkpt lat="43.22204" lon="0.88441">
        <ele>399</ele>
        <time>2019-02-17T14:36:14.000Z</time>
      </trkpt>
      <trkpt lat="43.22202" lon="0.88442">
        <ele>399</ele>
        <time>2019-02-17T14:36:16.000Z</time>
      </trkpt>
      <trkpt lat="43.222" lon="0.88442">
        <ele>399</ele>
        <time>2019-02-17T14:36:18.000Z</time>
      </trkpt>
      <trkpt lat="43.22199" lon="0.88442">
        <ele>399</ele>
        <time>2019-02-17T14:36:20.000Z</time>
      </trkpt>
      <trkpt lat="43.22196" lon="0.88442">
        <ele>399</ele>
        <time>2019-02-17T14:36:22.000Z</time>
      </trkpt>
      <trkpt lat="43.22194" lon="0.88443">
        <ele>398</ele>
        <time>2019-02-17T14:36:24.000Z</time>
      </trkpt>
      <trkpt lat="43.22192" lon="0.88443">
        <ele>398</ele>
        <time>2019-02-17T14:36:26.000Z</time>
      </trkpt>
      <trkpt lat="43.2219" lon="0.88443">
        <ele>398</ele>
        <time>2019-02-17T14:36:28.000Z</time>
      </trkpt>
      <trkpt lat="43.22188" lon="0.88443">
        <ele>398</ele>
        <time>2019-02-17T14:36:30.000Z</time>
      </trkpt>
      <trkpt lat="43.22187" lon="0.88443">
        <ele>398</ele>
        <time>2019-02-17T14:36:32.000Z</time>
      </trkpt>
      <trkpt lat="43.22185" lon="0.88443">
        <ele>398</ele>
        <time>2019-02-17T14:36:34.000Z</time>
      </trkpt>
      <trkpt lat="43.22184" lon="0.88442">
        <ele>397</ele>
        <time>2019-02-17T14:36:36.000Z</time>
      </trkpt>
      <trkpt lat="43.22183" lon="0.88442">
        <ele>397</ele>
        <time>2019-02-17T14:36:38.000Z</time>
      </trkpt>
      <trkpt lat="43.22181" lon="0.88441">
        <ele>397</ele>
        <time>2019-02-17T14:36:40.000Z</time>
      </trkpt>
      <trkpt lat="43.22178" lon="0.8844">
        <ele>397</ele>
        <time>2019-02-17T14:36:42.000Z</time>
      </trkpt>
      <trkpt lat="43.22176" lon="0.8844">
        <ele>396</ele>
        <time>2019-02-17T14:36:44.000Z</time>
      </trkpt>
      <trkpt lat="43.22175" lon="0.88438">
        <ele>396</ele>
        <time>2019-02-17T14:36:46.000Z</time>
      </trkpt>
      <trkpt lat="43.22173" lon="0.88438">
        <ele>396</ele>
        <time>2019-02-17T14:36:48.000Z</time>
      </trkpt>
      <trkpt lat="43.22172" lon="0.88437">
        <ele>395</ele>
        <time>2019-02-17T14:36:50.000Z</time>
      </trkpt>
      <trkpt lat="43.2217" lon="0.88436">
        <ele>395</ele>
        <time>2019-02-17T14:36:52.000Z</time>
      </trkpt>
      <trkpt lat="43.22169" lon="0.88436">
        <ele>395</ele>
        <time>2019-02-17T14:36:54.000Z</time>
      </trkpt>
      <trkpt lat="43.22167" lon="0.88435">
        <ele>395</ele>
        <time>2019-02-17T14:36:56.000Z</time>
      </trkpt>
      <trkpt lat="43.22165" lon="0.88434">
        <ele>394</ele>
        <time>2019-02-17T14:36:58.000Z</time>
      </trkpt>
      <trkpt lat="43.22164" lon="0.88434">
        <ele>394</ele>
        <time>2019-02-17T14:37:00.000Z</time>
      </trkpt>
      <trkpt lat="43.22163" lon="0.88433">
        <ele>394</ele>
        <time>2019-02-17T14:37:02.000Z</time>
      </trkpt>
      <trkpt lat="43.22161" lon="0.88433">
        <ele>394</ele>
        <time>2019-02-17T14:37:04.000Z</time>
      </trkpt>
      <trkpt lat="43.22159" lon="0.88432">
        <ele>393</ele>
        <time>2019-02-17T14:37:06.000Z</time>
      </trkpt>
      <trkpt lat="43.22157" lon="0.88431">
        <ele>393</ele>
        <time>2019-02-17T14:37:08.000Z</time>
      </trkpt>
      <trkpt lat="43.22156" lon="0.8843">
        <ele>393</ele>
        <time>2019-02-17T14:37:10.000Z</time>
      </trkpt>
      <trkpt lat="43.22154" lon="0.8843">
        <ele>392</ele>
        <time>2019-02-17T14:37:12.000Z</time>
      </trkpt>
      <trkpt lat="43.22152" lon="0.88428">
        <ele>392</ele>
        <time>2019-02-17T14:37:14.000Z</time>
      </trkpt>
      <trkpt lat="43.22152" lon="0.88427">
        <ele>392</ele>
        <time>2019-02-17T14:37:16.000Z</time>
      </trkpt>
      <trkpt lat="43.2215" lon="0.88426">
        <ele>391</ele>
        <time>2019-02-17T14:37:18.000Z</time>
      </trkpt>
      <trkpt lat="43.2215" lon="0.88425">
        <ele>391</ele>
        <time>2019-02-17T14:37:20.000Z</time>
      </trkpt>
      <trkpt lat="43.22148" lon="0.88425">
        <ele>391</ele>
        <time>2019-02-17T14:37:22.000Z</time>
      </trkpt>
      <trkpt lat="43.22146" lon="0.88424">
        <ele>391</ele>
        <time>2019-02-17T14:37:24.000Z</time>
      </trkpt>
      <trkpt lat="43.22145" lon="0.88422">
        <ele>390</ele>
        <time>2019-02-17T14:37:26.000Z</time>
      </trkpt>
      <trkpt lat="43.22144" lon="0.88421">
        <ele>390</ele>
        <time>2019-02-17T14:37:28.000Z</time>
      </trkpt>
      <trkpt lat="43.22142" lon="0.88421">
        <ele>390</ele>
        <time>2019-02-17T14:37:30.000Z</time>
      </trkpt>
      <trkpt lat="43.22141" lon="0.8842">
        <ele>389</ele>
        <time>2019-02-17T14:37:32.000Z</time>
      </trkpt>
      <trkpt lat="43.2214" lon="0.88419">
        <ele>389</ele>
        <time>2019-02-17T14:37:34.000Z</time>
      </trkpt>
      <trkpt lat="43.22138" lon="0.88418">
        <ele>389</ele>
        <time>2019-02-17T14:37:36.000Z</time>
      </trkpt>
      <trkpt lat="43.22137" lon="0.88418">
        <ele>389</ele>
        <time>2019-02-17T14:37:38.000Z</time>
      </trkpt>
      <trkpt lat="43.22134" lon="0.88417">
        <ele>388</ele>
        <time>2019-02-17T14:37:40.000Z</time>
      </trkpt>
      <trkpt lat="43.22132" lon="0.88418">
        <ele>388</ele>
        <time>2019-02-17T14:37:42.000Z</time>
      </trkpt>
      <trkpt lat="43.22131" lon="0.88418">
        <ele>388</ele>
        <time>2019-02-17T14:37:44.000Z</time>
      </trkpt>
      <trkpt lat="43.2213" lon="0.88417">
        <ele>388</ele>
        <time>2019-02-17T14:37:46.000Z</time>
      </trkpt>
      <trkpt lat="43.22128" lon="0.88418">
        <ele>388</ele>
        <time>2019-02-17T14:37:48.000Z</time>
      </trkpt>
      <trkpt lat="43.22126" lon="0.88417">
        <ele>387</ele>
        <time>2019-02-17T14:37:50.000Z</time>
      </trkpt>
      <trkpt lat="43.22124" lon="0.88417">
        <ele>387</ele>
        <time>2019-02-17T14:37:52.000Z</time>
      </trkpt>
      <trkpt lat="43.22123" lon="0.88416">
        <ele>387</ele>
        <time>2019-02-17T14:37:54.000Z</time>
      </trkpt>
      <trkpt lat="43.22121" lon="0.88416">
        <ele>387</ele>
        <time>2019-02-17T14:37:56.000Z</time>
      </trkpt>
      <trkpt lat="43.22119" lon="0.88416">
        <ele>386</ele>
        <time>2019-02-17T14:37:58.000Z</time>
      </trkpt>
      <trkpt lat="43.22117" lon="0.88416">
        <ele>386</ele>
        <time>2019-02-17T14:38:00.000Z</time>
      </trkpt>
      <trkpt lat="43.22115" lon="0.88416">
        <ele>386</ele>
        <time>2019-02-17T14:38:02.000Z</time>
      </trkpt>
      <trkpt lat="43.22112" lon="0.88417">
        <ele>386</ele>
        <time>2019-02-17T14:38:04.000Z</time>
      </trkpt>
      <trkpt lat="43.2211" lon="0.88416">
        <ele>386</ele>
        <time>2019-02-17T14:38:06.000Z</time>
      </trkpt>
      <trkpt lat="43.22108" lon="0.88417">
        <ele>385</ele>
        <time>2019-02-17T14:38:08.000Z</time>
      </trkpt>
      <trkpt lat="43.22105" lon="0.88417">
        <ele>385</ele>
        <time>2019-02-17T14:38:10.000Z</time>
      </trkpt>
      <trkpt lat="43.22103" lon="0.88417">
        <ele>385</ele>
        <time>2019-02-17T14:38:12.000Z</time>
      </trkpt>
      <trkpt lat="43.221" lon="0.88419">
        <ele>385</ele>
        <time>2019-02-17T14:38:14.000Z</time>
      </trkpt>
      <trkpt lat="43.22097" lon="0.88418">
        <ele>385</ele>
        <time>2019-02-17T14:38:16.000Z</time>
      </trkpt>
      <trkpt lat="43.22094" lon="0.88418">
        <ele>384</ele>
        <time>2019-02-17T14:38:18.000Z</time>
      </trkpt>
      <trkpt lat="43.22091" lon="0.88419">
        <ele>384</ele>
        <time>2019-02-17T14:38:20.000Z</time>
      </trkpt>
      <trkpt lat="43.22089" lon="0.88418">
        <ele>384</ele>
        <time>2019-02-17T14:38:22.000Z</time>
      </trkpt>
      <trkpt lat="43.22087" lon="0.88417">
        <ele>383</ele>
        <time>2019-02-17T14:38:24.000Z</time>
      </trkpt>
      <trkpt lat="43.22086" lon="0.88417">
        <ele>383</ele>
        <time>2019-02-17T14:38:26.000Z</time>
      </trkpt>
      <trkpt lat="43.22084" lon="0.88417">
        <ele>383</ele>
        <time>2019-02-17T14:38:28.000Z</time>
      </trkpt>
      <trkpt lat="43.22082" lon="0.88418">
        <ele>383</ele>
        <time>2019-02-17T14:38:30.000Z</time>
      </trkpt>
      <trkpt lat="43.2208" lon="0.88418">
        <ele>382</ele>
        <time>2019-02-17T14:38:32.000Z</time>
      </trkpt>
      <trkpt lat="43.22079" lon="0.88417">
        <ele>382</ele>
        <time>2019-02-17T14:38:34.000Z</time>
      </trkpt>
      <trkpt lat="43.22078" lon="0.88417">
        <ele>382</ele>
        <time>2019-02-17T14:38:36.000Z</time>
      </trkpt>
      <trkpt lat="43.22076" lon="0.88416">
        <ele>381</ele>
        <time>2019-02-17T14:38:38.000Z</time>
      </trkpt>
      <trkpt lat="43.22073" lon="0.88415">
        <ele>381</ele>
        <time>2019-02-17T14:38:40.000Z</time>
      </trkpt>
      <trkpt lat="43.22071" lon="0.88415">
        <ele>381</ele>
        <time>2019-02-17T14:38:42.000Z</time>
      </trkpt>
      <trkpt lat="43.22067" lon="0.88416">
        <ele>380</ele>
        <time>2019-02-17T14:38:44.000Z</time>
      </trkpt>
      <trkpt lat="43.22065" lon="0.88415">
        <ele>380</ele>
        <time>2019-02-17T14:38:46.000Z</time>
      </trkpt>
      <trkpt lat="43.22062" lon="0.88416">
        <ele>380</ele>
        <time>2019-02-17T14:38:48.000Z</time>
      </trkpt>
      <trkpt lat="43.2206" lon="0.88415">
        <ele>379</ele>
        <time>2019-02-17T14:38:50.000Z</time>
      </trkpt>
      <trkpt lat="43.22058" lon="0.88416">
        <ele>379</ele>
        <time>2019-02-17T14:38:52.000Z</time>
      </trkpt>
      <trkpt lat="43.22056" lon="0.88417">
        <ele>379</ele>
        <time>2019-02-17T14:38:54.000Z</time>
      </trkpt>
      <trkpt lat="43.22055" lon="0.88417">
        <ele>379</ele>
        <time>2019-02-17T14:38:56.000Z</time>
      </trkpt>
      <trkpt lat="43.22054" lon="0.88418">
        <ele>379</ele>
        <time>2019-02-17T14:38:58.000Z</time>
      </trkpt>
      <trkpt lat="43.22053" lon="0.88419">
        <ele>379</ele>
        <time>2019-02-17T14:39:00.000Z</time>
      </trkpt>
      <trkpt lat="43.22052" lon="0.88419">
        <ele>379</ele>
        <time>2019-02-17T14:39:02.000Z</time>
      </trkpt>
      <trkpt lat="43.2205" lon="0.88419">
        <ele>379</ele>
        <time>2019-02-17T14:39:04.000Z</time>
      </trkpt>
      <trkpt lat="43.22048" lon="0.88419">
        <ele>378</ele>
        <time>2019-02-17T14:39:06.000Z</time>
      </trkpt>
      <trkpt lat="43.22047" lon="0.88419">
        <ele>378</ele>
        <time>2019-02-17T14:39:08.000Z</time>
      </trkpt>
      <trkpt lat="43.22044" lon="0.88419">
        <ele>378</ele>
        <time>2019-02-17T14:39:10.000Z</time>
      </trkpt>
      <trkpt lat="43.22042" lon="0.88421">
        <ele>378</ele>
        <time>2019-02-17T14:39:12.000Z</time>
      </trkpt>
      <trkpt lat="43.2204" lon="0.88421">
        <ele>377</ele>
        <time>2019-02-17T14:39:14.000Z</time>
      </trkpt>
      <trkpt lat="43.22038" lon="0.8842">
        <ele>377</ele>
        <time>2019-02-17T14:39:16.000Z</time>
      </trkpt>
      <trkpt lat="43.22035" lon="0.8842">
        <ele>376</ele>
        <time>2019-02-17T14:39:18.000Z</time>
      </trkpt>
      <trkpt lat="43.22034" lon="0.8842">
        <ele>376</ele>
        <time>2019-02-17T14:39:20.000Z</time>
      </trkpt>
      <trkpt lat="43.22031" lon="0.8842">
        <ele>375</ele>
        <time>2019-02-17T14:39:22.000Z</time>
      </trkpt>
      <trkpt lat="43.22028" lon="0.88422">
        <ele>375</ele>
        <time>2019-02-17T14:39:24.000Z</time>
      </trkpt>
      <trkpt lat="43.22027" lon="0.88421">
        <ele>374</ele>
        <time>2019-02-17T14:39:26.000Z</time>
      </trkpt>
      <trkpt lat="43.22025" lon="0.88422">
        <ele>374</ele>
        <time>2019-02-17T14:39:28.000Z</time>
      </trkpt>
      <trkpt lat="43.22024" lon="0.88422">
        <ele>374</ele>
        <time>2019-02-17T14:39:30.000Z</time>
      </trkpt>
      <trkpt lat="43.22021" lon="0.88422">
        <ele>373</ele>
        <time>2019-02-17T14:39:32.000Z</time>
      </trkpt>
      <trkpt lat="43.22019" lon="0.88422">
        <ele>372</ele>
        <time>2019-02-17T14:39:34.000Z</time>
      </trkpt>
      <trkpt lat="43.22019" lon="0.88422">
        <ele>372</ele>
        <time>2019-02-17T14:39:36.000Z</time>
      </trkpt>
      <trkpt lat="43.22016" lon="0.88423">
        <ele>372</ele>
        <time>2019-02-17T14:39:38.000Z</time>
      </trkpt>
      <trkpt lat="43.22015" lon="0.88423">
        <ele>372</ele>
        <time>2019-02-17T14:39:40.000Z</time>
      </trkpt>
      <trkpt lat="43.22014" lon="0.88423">
        <ele>371</ele>
        <time>2019-02-17T14:39:42.000Z</time>
      </trkpt>
      <trkpt lat="43.22013" lon="0.88422">
        <ele>371</ele>
        <time>2019-02-17T14:39:44.000Z</time>
      </trkpt>
      <trkpt lat="43.22013" lon="0.88422">
        <ele>371</ele>
        <time>2019-02-17T14:39:46.000Z</time>
      </trkpt>
      <trkpt lat="43.22014" lon="0.88422">
        <ele>371</ele>
        <time>2019-02-17T14:39:48.000Z</time>
      </trkpt>
      <trkpt lat="43.22014" lon="0.88422">
        <ele>371</ele>
        <time>2019-02-17T14:39:50.000Z</time>
      </trkpt>
      <trkpt lat="43.22013" lon="0.88422">
        <ele>371</ele>
        <time>2019-02-17T14:39:52.000Z</time>
      </trkpt>
      <trkpt lat="43.22012" lon="0.88422">
        <ele>371</ele>
        <time>2019-02-17T14:39:54.000Z</time>
      </trkpt>
      <trkpt lat="43.22011" lon="0.88421">
        <ele>371</ele>
        <time>2019-02-17T14:39:56.000Z</time>
      </trkpt>
      <trkpt lat="43.2201" lon="0.8842">
        <ele>371</ele>
        <time>2019-02-17T14:39:58.000Z</time>
      </trkpt>
      <trkpt lat="43.22009" lon="0.88419">
        <ele>371</ele>
        <time>2019-02-17T14:40:00.000Z</time>
      </trkpt>
      <trkpt lat="43.22007" lon="0.88419">
        <ele>371</ele>
        <time>2019-02-17T14:40:02.000Z</time>
      </trkpt>
      <trkpt lat="43.22005" lon="0.88419">
        <ele>371</ele>
        <time>2019-02-17T14:40:04.000Z</time>
      </trkpt>
      <trkpt lat="43.22001" lon="0.88419">
        <ele>371</ele>
        <time>2019-02-17T14:40:06.000Z</time>
      </trkpt>
      <trkpt lat="43.21999" lon="0.88419">
        <ele>370</ele>
        <time>2019-02-17T14:40:08.000Z</time>
      </trkpt>
      <trkpt lat="43.21997" lon="0.88419">
        <ele>370</ele>
        <time>2019-02-17T14:40:10.000Z</time>
      </trkpt>
      <trkpt lat="43.21995" lon="0.88418">
        <ele>370</ele>
        <time>2019-02-17T14:40:12.000Z</time>
      </trkpt>
      <trkpt lat="43.21992" lon="0.88417">
        <ele>370</ele>
        <time>2019-02-17T14:40:14.000Z</time>
      </trkpt>
      <trkpt lat="43.2199" lon="0.88417">
        <ele>370</ele>
        <time>2019-02-17T14:40:16.000Z</time>
      </trkpt>
      <trkpt lat="43.21988" lon="0.88417">
        <ele>370</ele>
        <time>2019-02-17T14:40:18.000Z</time>
      </trkpt>
      <trkpt lat="43.21986" lon="0.88417">
        <ele>370</ele>
        <time>2019-02-17T14:40:20.000Z</time>
      </trkpt>
      <trkpt lat="43.21984" lon="0.88415">
        <ele>370</ele>
        <time>2019-02-17T14:40:22.000Z</time>
      </trkpt>
      <trkpt lat="43.21983" lon="0.88414">
        <ele>370</ele>
        <time>2019-02-17T14:40:24.000Z</time>
      </trkpt>
      <trkpt lat="43.21982" lon="0.88413">
        <ele>370</ele>
        <time>2019-02-17T14:40:26.000Z</time>
      </trkpt>
      <trkpt lat="43.21982" lon="0.88413">
        <ele>370</ele>
        <time>2019-02-17T14:40:28.000Z</time>
      </trkpt>
      <trkpt lat="43.21981" lon="0.88412">
        <ele>370</ele>
        <time>2019-02-17T14:40:30.000Z</time>
      </trkpt>
      <trkpt lat="43.2198" lon="0.88411">
        <ele>370</ele>
        <time>2019-02-17T14:40:32.000Z</time>
      </trkpt>
      <trkpt lat="43.21978" lon="0.88411">
        <ele>369</ele>
        <time>2019-02-17T14:40:34.000Z</time>
      </trkpt>
      <trkpt lat="43.21977" lon="0.88411">
        <ele>369</ele>
        <time>2019-02-17T14:40:36.000Z</time>
      </trkpt>
      <trkpt lat="43.21975" lon="0.88411">
        <ele>369</ele>
        <time>2019-02-17T14:40:38.000Z</time>
      </trkpt>
      <trkpt lat="43.21973" lon="0.88411">
        <ele>369</ele>
        <time>2019-02-17T14:40:40.000Z</time>
      </trkpt>
      <trkpt lat="43.21971" lon="0.8841">
        <ele>369</ele>
        <time>2019-02-17T14:40:42.000Z</time>
      </trkpt>
      <trkpt lat="43.2197" lon="0.8841">
        <ele>369</ele>
        <time>2019-02-17T14:40:44.000Z</time>
      </trkpt>
      <trkpt lat="43.21968" lon="0.88409">
        <ele>369</ele>
        <time>2019-02-17T14:40:46.000Z</time>
      </trkpt>
      <trkpt lat="43.21966" lon="0.88409">
        <ele>369</ele>
        <time>2019-02-17T14:40:48.000Z</time>
      </trkpt>
      <trkpt lat="43.21965" lon="0.8841">
        <ele>369</ele>
        <time>2019-02-17T14:40:50.000Z</time>
      </trkpt>
      <trkpt lat="43.21963" lon="0.8841">
        <ele>369</ele>
        <time>2019-02-17T14:40:52.000Z</time>
      </trkpt>
      <trkpt lat="43.21961" lon="0.8841">
        <ele>369</ele>
        <time>2019-02-17T14:40:54.000Z</time>
      </trkpt>
      <trkpt lat="43.2196" lon="0.8841">
        <ele>369</ele>
        <time>2019-02-17T14:40:56.000Z</time>
      </trkpt>
      <trkpt lat="43.21958" lon="0.88409">
        <ele>369</ele>
        <time>2019-02-17T14:40:58.000Z</time>
      </trkpt>
      <trkpt lat="43.21955" lon="0.8841">
        <ele>369</ele>
        <time>2019-02-17T14:41:00.000Z</time>
      </trkpt>
      <trkpt lat="43.21953" lon="0.8841">
        <ele>369</ele>
        <time>2019-02-17T14:41:02.000Z</time>
      </trkpt>
      <trkpt lat="43.21951" lon="0.88409">
        <ele>369</ele>
        <time>2019-02-17T14:41:04.000Z</time>
      </trkpt>
      <trkpt lat="43.21949" lon="0.8841">
        <ele>369</ele>
        <time>2019-02-17T14:41:06.000Z</time>
      </trkpt>
      <trkpt lat="43.21948" lon="0.88409">
        <ele>369</ele>
        <time>2019-02-17T14:41:08.000Z</time>
      </trkpt>
      <trkpt lat="43.21946" lon="0.88409">
        <ele>369</ele>
        <time>2019-02-17T14:41:10.000Z</time>
      </trkpt>
      <trkpt lat="43.21945" lon="0.88409">
        <ele>368</ele>
        <time>2019-02-17T14:41:12.000Z</time>
      </trkpt>
      <trkpt lat="43.21943" lon="0.88409">
        <ele>368</ele>
        <time>2019-02-17T14:41:14.000Z</time>
      </trkpt>
      <trkpt lat="43.21941" lon="0.8841">
        <ele>368</ele>
        <time>2019-02-17T14:41:16.000Z</time>
      </trkpt>
      <trkpt lat="43.21939" lon="0.8841">
        <ele>368</ele>
        <time>2019-02-17T14:41:18.000Z</time>
      </trkpt>
      <trkpt lat="43.21938" lon="0.88411">
        <ele>368</ele>
        <time>2019-02-17T14:41:20.000Z</time>
      </trkpt>
      <trkpt lat="43.21936" lon="0.88411">
        <ele>368</ele>
        <time>2019-02-17T14:41:22.000Z</time>
      </trkpt>
      <trkpt lat="43.21935" lon="0.88412">
        <ele>368</ele>
        <time>2019-02-17T14:41:24.000Z</time>
      </trkpt>
      <trkpt lat="43.21933" lon="0.88413">
        <ele>368</ele>
        <time>2019-02-17T14:41:26.000Z</time>
      </trkpt>
      <trkpt lat="43.21931" lon="0.88414">
        <ele>368</ele>
        <time>2019-02-17T14:41:28.000Z</time>
      </trkpt>
      <trkpt lat="43.2193" lon="0.88414">
        <ele>368</ele>
        <time>2019-02-17T14:41:30.000Z</time>
      </trkpt>
      <trkpt lat="43.21928" lon="0.88414">
        <ele>368</ele>
        <time>2019-02-17T14:41:32.000Z</time>
      </trkpt>
      <trkpt lat="43.21927" lon="0.88414">
        <ele>368</ele>
        <time>2019-02-17T14:41:34.000Z</time>
      </trkpt>
      <trkpt lat="43.21925" lon="0.88415">
        <ele>368</ele>
        <time>2019-02-17T14:41:36.000Z</time>
      </trkpt>
      <trkpt lat="43.21924" lon="0.88415">
        <ele>369</ele>
        <time>2019-02-17T14:41:38.000Z</time>
      </trkpt>
      <trkpt lat="43.21924" lon="0.88415">
        <ele>369</ele>
        <time>2019-02-17T14:41:40.000Z</time>
      </trkpt>
      <trkpt lat="43.21923" lon="0.88415">
        <ele>369</ele>
        <time>2019-02-17T14:41:42.000Z</time>
      </trkpt>
      <trkpt lat="43.21922" lon="0.88415">
        <ele>369</ele>
        <time>2019-02-17T14:41:44.000Z</time>
      </trkpt>
      <trkpt lat="43.2192" lon="0.88415">
        <ele>369</ele>
        <time>2019-02-17T14:41:46.000Z</time>
      </trkpt>
      <trkpt lat="43.21919" lon="0.88416">
        <ele>369</ele>
        <time>2019-02-17T14:41:48.000Z</time>
      </trkpt>
      <trkpt lat="43.21917" lon="0.88417">
        <ele>369</ele>
        <time>2019-02-17T14:41:50.000Z</time>
      </trkpt>
      <trkpt lat="43.21915" lon="0.88417">
        <ele>370</ele>
        <time>2019-02-17T14:41:52.000Z</time>
      </trkpt>
      <trkpt lat="43.21913" lon="0.88418">
        <ele>370</ele>
        <time>2019-02-17T14:41:54.000Z</time>
      </trkpt>
      <trkpt lat="43.21911" lon="0.88419">
        <ele>370</ele>
        <time>2019-02-17T14:41:56.000Z</time>
      </trkpt>
      <trkpt lat="43.21909" lon="0.8842">
        <ele>370</ele>
        <time>2019-02-17T14:41:58.000Z</time>
      </trkpt>
      <trkpt lat="43.21907" lon="0.8842">
        <ele>370</ele>
        <time>2019-02-17T14:42:00.000Z</time>
      </trkpt>
      <trkpt lat="43.21906" lon="0.88421">
        <ele>370</ele>
        <time>2019-02-17T14:42:02.000Z</time>
      </trkpt>
      <trkpt lat="43.21905" lon="0.88422">
        <ele>370</ele>
        <time>2019-02-17T14:42:04.000Z</time>
      </trkpt>
      <trkpt lat="43.21904" lon="0.88422">
        <ele>371</ele>
        <time>2019-02-17T14:42:06.000Z</time>
      </trkpt>
      <trkpt lat="43.21903" lon="0.88422">
        <ele>371</ele>
        <time>2019-02-17T14:42:08.000Z</time>
      </trkpt>
      <trkpt lat="43.21902" lon="0.88422">
        <ele>371</ele>
        <time>2019-02-17T14:42:10.000Z</time>
      </trkpt>
      <trkpt lat="43.219" lon="0.88423">
        <ele>371</ele>
        <time>2019-02-17T14:42:12.000Z</time>
      </trkpt>
      <trkpt lat="43.21899" lon="0.88423">
        <ele>371</ele>
        <time>2019-02-17T14:42:14.000Z</time>
      </trkpt>
      <trkpt lat="43.21898" lon="0.88423">
        <ele>371</ele>
        <time>2019-02-17T14:42:16.000Z</time>
      </trkpt>
      <trkpt lat="43.21897" lon="0.88424">
        <ele>371</ele>
        <time>2019-02-17T14:42:18.000Z</time>
      </trkpt>
      <trkpt lat="43.21896" lon="0.88424">
        <ele>371</ele>
        <time>2019-02-17T14:42:20.000Z</time>
      </trkpt>
      <trkpt lat="43.21896" lon="0.88424">
        <ele>371</ele>
        <time>2019-02-17T14:42:22.000Z</time>
      </trkpt>
      <trkpt lat="43.21896" lon="0.88424">
        <ele>371</ele>
        <time>2019-02-17T14:42:24.000Z</time>
      </trkpt>
      <trkpt lat="43.21893" lon="0.88425">
        <ele>372</ele>
        <time>2019-02-17T14:42:26.000Z</time>
      </trkpt>
      <trkpt lat="43.21892" lon="0.88425">
        <ele>372</ele>
        <time>2019-02-17T14:42:28.000Z</time>
      </trkpt>
      <trkpt lat="43.2189" lon="0.88426">
        <ele>372</ele>
        <time>2019-02-17T14:42:30.000Z</time>
      </trkpt>
      <trkpt lat="43.21888" lon="0.88426">
        <ele>372</ele>
        <time>2019-02-17T14:42:32.000Z</time>
      </trkpt>
      <trkpt lat="43.21887" lon="0.88426">
        <ele>372</ele>
        <time>2019-02-17T14:42:34.000Z</time>
      </trkpt>
      <trkpt lat="43.21885" lon="0.88428">
        <ele>372</ele>
        <time>2019-02-17T14:42:36.000Z</time>
      </trkpt>
      <trkpt lat="43.21884" lon="0.88428">
        <ele>373</ele>
        <time>2019-02-17T14:42:38.000Z</time>
      </trkpt>
      <trkpt lat="43.21883" lon="0.8843">
        <ele>373</ele>
        <time>2019-02-17T14:42:40.000Z</time>
      </trkpt>
      <trkpt lat="43.21881" lon="0.88431">
        <ele>373</ele>
        <time>2019-02-17T14:42:42.000Z</time>
      </trkpt>
      <trkpt lat="43.21879" lon="0.88432">
        <ele>373</ele>
        <time>2019-02-17T14:42:44.000Z</time>
      </trkpt>
      <trkpt lat="43.21878" lon="0.88432">
        <ele>373</ele>
        <time>2019-02-17T14:42:46.000Z</time>
      </trkpt>
      <trkpt lat="43.21876" lon="0.88433">
        <ele>374</ele>
        <time>2019-02-17T14:42:48.000Z</time>
      </trkpt>
      <trkpt lat="43.21874" lon="0.88433">
        <ele>374</ele>
        <time>2019-02-17T14:42:50.000Z</time>
      </trkpt>
      <trkpt lat="43.21872" lon="0.88434">
        <ele>374</ele>
        <time>2019-02-17T14:42:52.000Z</time>
      </trkpt>
      <trkpt lat="43.2187" lon="0.88434">
        <ele>374</ele>
        <time>2019-02-17T14:42:54.000Z</time>
      </trkpt>
      <trkpt lat="43.21869" lon="0.88435">
        <ele>374</ele>
        <time>2019-02-17T14:42:56.000Z</time>
      </trkpt>
      <trkpt lat="43.21867" lon="0.88436">
        <ele>374</ele>
        <time>2019-02-17T14:42:58.000Z</time>
      </trkpt>
      <trkpt lat="43.21865" lon="0.88437">
        <ele>375</ele>
        <time>2019-02-17T14:43:00.000Z</time>
      </trkpt>
      <trkpt lat="43.21863" lon="0.88438">
        <ele>375</ele>
        <time>2019-02-17T14:43:02.000Z</time>
      </trkpt>
      <trkpt lat="43.21861" lon="0.88438">
        <ele>375</ele>
        <time>2019-02-17T14:43:04.000Z</time>
      </trkpt>
      <trkpt lat="43.2186" lon="0.88439">
        <ele>375</ele>
        <time>2019-02-17T14:43:06.000Z</time>
      </trkpt>
      <trkpt lat="43.21858" lon="0.8844">
        <ele>375</ele>
        <time>2019-02-17T14:43:08.000Z</time>
      </trkpt>
      <trkpt lat="43.21856" lon="0.8844">
        <ele>376</ele>
        <time>2019-02-17T14:43:10.000Z</time>
      </trkpt>
      <trkpt lat="43.21853" lon="0.88441">
        <ele>376</ele>
        <time>2019-02-17T14:43:12.000Z</time>
      </trkpt>
      <trkpt lat="43.21851" lon="0.88442">
        <ele>376</ele>
        <time>2019-02-17T14:43:14.000Z</time>
      </trkpt>
      <trkpt lat="43.2185" lon="0.88443">
        <ele>376</ele>
        <time>2019-02-17T14:43:16.000Z</time>
      </trkpt>
      <trkpt lat="43.21848" lon="0.88443">
        <ele>376</ele>
        <time>2019-02-17T14:43:18.000Z</time>
      </trkpt>
      <trkpt lat="43.21846" lon="0.88443">
        <ele>376</ele>
        <time>2019-02-17T14:43:20.000Z</time>
      </trkpt>
      <trkpt lat="43.21845" lon="0.88444">
        <ele>377</ele>
        <time>2019-02-17T14:43:22.000Z</time>
      </trkpt>
      <trkpt lat="43.21842" lon="0.88445">
        <ele>377</ele>
        <time>2019-02-17T14:43:24.000Z</time>
      </trkpt>
      <trkpt lat="43.21841" lon="0.88444">
        <ele>377</ele>
        <time>2019-02-17T14:43:26.000Z</time>
      </trkpt>
      <trkpt lat="43.2184" lon="0.88443">
        <ele>377</ele>
        <time>2019-02-17T14:43:28.000Z</time>
      </trkpt>
      <trkpt lat="43.21838" lon="0.88441">
        <ele>377</ele>
        <time>2019-02-17T14:43:30.000Z</time>
      </trkpt>
      <trkpt lat="43.21837" lon="0.8844">
        <ele>377</ele>
        <time>2019-02-17T14:43:32.000Z</time>
      </trkpt>
      <trkpt lat="43.21836" lon="0.88438">
        <ele>377</ele>
        <time>2019-02-17T14:43:34.000Z</time>
      </trkpt>
      <trkpt lat="43.21835" lon="0.88436">
        <ele>377</ele>
        <time>2019-02-17T14:43:36.000Z</time>
      </trkpt>
      <trkpt lat="43.21834" lon="0.88434">
        <ele>377</ele>
        <time>2019-02-17T14:43:38.000Z</time>
      </trkpt>
      <trkpt lat="43.21833" lon="0.88431">
        <ele>377</ele>
        <time>2019-02-17T14:43:40.000Z</time>
      </trkpt>
      <trkpt lat="43.21832" lon="0.88428">
        <ele>377</ele>
        <time>2019-02-17T14:43:42.000Z</time>
      </trkpt>
      <trkpt lat="43.21832" lon="0.88425">
        <ele>376</ele>
        <time>2019-02-17T14:43:44.000Z</time>
      </trkpt>
      <trkpt lat="43.2183" lon="0.88422">
        <ele>376</ele>
        <time>2019-02-17T14:43:46.000Z</time>
      </trkpt>
      <trkpt lat="43.2183" lon="0.88419">
        <ele>376</ele>
        <time>2019-02-17T14:43:48.000Z</time>
      </trkpt>
      <trkpt lat="43.21829" lon="0.88417">
        <ele>376</ele>
        <time>2019-02-17T14:43:50.000Z</time>
      </trkpt>
      <trkpt lat="43.21828" lon="0.88415">
        <ele>376</ele>
        <time>2019-02-17T14:43:52.000Z</time>
      </trkpt>
      <trkpt lat="43.21828" lon="0.88411">
        <ele>376</ele>
        <time>2019-02-17T14:43:54.000Z</time>
      </trkpt>
      <trkpt lat="43.21827" lon="0.88409">
        <ele>376</ele>
        <time>2019-02-17T14:43:56.000Z</time>
      </trkpt>
      <trkpt lat="43.21826" lon="0.88405">
        <ele>376</ele>
        <time>2019-02-17T14:43:58.000Z</time>
      </trkpt>
      <trkpt lat="43.21826" lon="0.88403">
        <ele>376</ele>
        <time>2019-02-17T14:44:00.000Z</time>
      </trkpt>
      <trkpt lat="43.21825" lon="0.884">
        <ele>376</ele>
        <time>2019-02-17T14:44:02.000Z</time>
      </trkpt>
      <trkpt lat="43.21824" lon="0.88397">
        <ele>376</ele>
        <time>2019-02-17T14:44:04.000Z</time>
      </trkpt>
      <trkpt lat="43.21823" lon="0.88394">
        <ele>376</ele>
        <time>2019-02-17T14:44:06.000Z</time>
      </trkpt>
      <trkpt lat="43.21822" lon="0.88392">
        <ele>375</ele>
        <time>2019-02-17T14:44:08.000Z</time>
      </trkpt>
      <trkpt lat="43.21821" lon="0.88389">
        <ele>375</ele>
        <time>2019-02-17T14:44:10.000Z</time>
      </trkpt>
      <trkpt lat="43.2182" lon="0.88386">
        <ele>376</ele>
        <time>2019-02-17T14:44:12.000Z</time>
      </trkpt>
      <trkpt lat="43.21819" lon="0.88384">
        <ele>376</ele>
        <time>2019-02-17T14:44:14.000Z</time>
      </trkpt>
      <trkpt lat="43.21818" lon="0.88383">
        <ele>376</ele>
        <time>2019-02-17T14:44:16.000Z</time>
      </trkpt>
      <trkpt lat="43.21816" lon="0.88381">
        <ele>376</ele>
        <time>2019-02-17T14:44:18.000Z</time>
      </trkpt>
      <trkpt lat="43.21814" lon="0.8838">
        <ele>376</ele>
        <time>2019-02-17T14:44:20.000Z</time>
      </trkpt>
      <trkpt lat="43.21813" lon="0.88378">
        <ele>376</ele>
        <time>2019-02-17T14:44:22.000Z</time>
      </trkpt>
      <trkpt lat="43.21811" lon="0.88377">
        <ele>376</ele>
        <time>2019-02-17T14:44:24.000Z</time>
      </trkpt>
      <trkpt lat="43.21809" lon="0.88375">
        <ele>376</ele>
        <time>2019-02-17T14:44:26.000Z</time>
      </trkpt>
      <trkpt lat="43.21808" lon="0.88374">
        <ele>376</ele>
        <time>2019-02-17T14:44:28.000Z</time>
      </trkpt>
      <trkpt lat="43.21807" lon="0.88372">
        <ele>377</ele>
        <time>2019-02-17T14:44:30.000Z</time>
      </trkpt>
      <trkpt lat="43.21806" lon="0.8837">
        <ele>377</ele>
        <time>2019-02-17T14:44:32.000Z</time>
      </trkpt>
      <trkpt lat="43.21804" lon="0.88368">
        <ele>377</ele>
        <time>2019-02-17T14:44:34.000Z</time>
      </trkpt>
      <trkpt lat="43.21803" lon="0.88366">
        <ele>377</ele>
        <time>2019-02-17T14:44:36.000Z</time>
      </trkpt>
      <trkpt lat="43.21802" lon="0.88364">
        <ele>377</ele>
        <time>2019-02-17T14:44:38.000Z</time>
      </trkpt>
      <trkpt lat="43.21801" lon="0.88362">
        <ele>377</ele>
        <time>2019-02-17T14:44:40.000Z</time>
      </trkpt>
      <trkpt lat="43.218" lon="0.88359">
        <ele>377</ele>
        <time>2019-02-17T14:44:42.000Z</time>
      </trkpt>
      <trkpt lat="43.21799" lon="0.88356">
        <ele>377</ele>
        <time>2019-02-17T14:44:44.000Z</time>
      </trkpt>
      <trkpt lat="43.21797" lon="0.88354">
        <ele>377</ele>
        <time>2019-02-17T14:44:46.000Z</time>
      </trkpt>
      <trkpt lat="43.21796" lon="0.88353">
        <ele>377</ele>
        <time>2019-02-17T14:44:48.000Z</time>
      </trkpt>
      <trkpt lat="43.21795" lon="0.88351">
        <ele>378</ele>
        <time>2019-02-17T14:44:50.000Z</time>
      </trkpt>
      <trkpt lat="43.21794" lon="0.88349">
        <ele>378</ele>
        <time>2019-02-17T14:44:52.000Z</time>
      </trkpt>
      <trkpt lat="43.21793" lon="0.88347">
        <ele>378</ele>
        <time>2019-02-17T14:44:54.000Z</time>
      </trkpt>
      <trkpt lat="43.21792" lon="0.88344">
        <ele>378</ele>
        <time>2019-02-17T14:44:56.000Z</time>
      </trkpt>
      <trkpt lat="43.21791" lon="0.88342">
        <ele>378</ele>
        <time>2019-02-17T14:44:58.000Z</time>
      </trkpt>
      <trkpt lat="43.2179" lon="0.8834">
        <ele>378</ele>
        <time>2019-02-17T14:45:00.000Z</time>
      </trkpt>
      <trkpt lat="43.21789" lon="0.88338">
        <ele>378</ele>
        <time>2019-02-17T14:45:02.000Z</time>
      </trkpt>
      <trkpt lat="43.21788" lon="0.88336">
        <ele>378</ele>
        <time>2019-02-17T14:45:04.000Z</time>
      </trkpt>
      <trkpt lat="43.21787" lon="0.88334">
        <ele>378</ele>
        <time>2019-02-17T14:45:06.000Z</time>
      </trkpt>
      <trkpt lat="43.21787" lon="0.88333">
        <ele>378</ele>
        <time>2019-02-17T14:45:08.000Z</time>
      </trkpt>
      <trkpt lat="43.21787" lon="0.88332">
        <ele>378</ele>
        <time>2019-02-17T14:45:10.000Z</time>
      </trkpt>
      <trkpt lat="43.21788" lon="0.88332">
        <ele>378</ele>
        <time>2019-02-17T14:45:12.000Z</time>
      </trkpt>
      <trkpt lat="43.21787" lon="0.88332">
        <ele>378</ele>
        <time>2019-02-17T14:45:14.000Z</time>
      </trkpt>
      <trkpt lat="43.21787" lon="0.88332">
        <ele>378</ele>
        <time>2019-02-17T14:45:16.000Z</time>
      </trkpt>
      <trkpt lat="43.21787" lon="0.88332">
        <ele>378</ele>
        <time>2019-02-17T14:45:18.000Z</time>
      </trkpt>
      <trkpt lat="43.21787" lon="0.88332">
        <ele>378</ele>
        <time>2019-02-17T14:45:20.000Z</time>
      </trkpt>
      <trkpt lat="43.21787" lon="0.88332">
        <ele>378</ele>
        <time>2019-02-17T14:45:22.000Z</time>
      </trkpt>
      <trkpt lat="43.21787" lon="0.88332">
        <ele>378</ele>
        <time>2019-02-17T14:45:24.000Z</time>
      </trkpt>
      <trkpt lat="43.21787" lon="0.88332">
        <ele>378</ele>
        <time>2019-02-17T14:45:26.000Z</time>
      </trkpt>
      <trkpt lat="43.21787" lon="0.88332">
        <ele>378</ele>
        <time>2019-02-17T14:45:28.000Z</time>
      </trkpt>
      <trkpt lat="43.21787" lon="0.88332">
        <ele>378</ele>
        <time>2019-02-17T14:45:30.000Z</time>
      </trkpt>
      <trkpt lat="43.21786" lon="0.88333">
        <ele>378</ele>
        <time>2019-02-17T14:45:32.000Z</time>
      </trkpt>
      <trkpt lat="43.21786" lon="0.88333">
        <ele>378</ele>
        <time>2019-02-17T14:45:34.000Z</time>
      </trkpt>
      <trkpt lat="43.21786" lon="0.88334">
        <ele>378</ele>
        <time>2019-02-17T14:45:36.000Z</time>
      </trkpt>
      <trkpt lat="43.21786" lon="0.88334">
        <ele>378</ele>
        <time>2019-02-17T14:45:38.000Z</time>
      </trkpt>
      <trkpt lat="43.21786" lon="0.88334">
        <ele>378</ele>
        <time>2019-02-17T14:45:40.000Z</time>
      </trkpt>
      <trkpt lat="43.21786" lon="0.88334">
        <ele>378</ele>
        <time>2019-02-17T14:45:42.000Z</time>
      </trkpt>
      <trkpt lat="43.21786" lon="0.88334">
        <ele>378</ele>
        <time>2019-02-17T14:45:44.000Z</time>
      </trkpt>
      <trkpt lat="43.21786" lon="0.88334">
        <ele>378</ele>
        <time>2019-02-17T14:45:46.000Z</time>
      </trkpt>
      <trkpt lat="43.21786" lon="0.88334">
        <ele>378</ele>
        <time>2019-02-17T14:45:48.000Z</time>
      </trkpt>
      <trkpt lat="43.21786" lon="0.88334">
        <ele>378</ele>
        <time>2019-02-17T14:45:50.000Z</time>
      </trkpt>
      <trkpt lat="43.21786" lon="0.88334">
        <ele>378</ele>
        <time>2019-02-17T14:45:52.000Z</time>
      </trkpt>
      <trkpt lat="43.21786" lon="0.88333">
        <ele>378</ele>
        <time>2019-02-17T14:45:54.000Z</time>
      </trkpt>
      <trkpt lat="43.21786" lon="0.88333">
        <ele>378</ele>
        <time>2019-02-17T14:45:56.000Z</time>
      </trkpt>
      <trkpt lat="43.21787" lon="0.88333">
        <ele>378</ele>
        <time>2019-02-17T14:45:58.000Z</time>
      </trkpt>
      <trkpt lat="43.21786" lon="0.88333">
        <ele>378</ele>
        <time>2019-02-17T14:46:00.000Z</time>
      </trkpt>
      <trkpt lat="43.21787" lon="0.88332">
        <ele>378</ele>
        <time>2019-02-17T14:46:02.000Z</time>
      </trkpt>
      <trkpt lat="43.21787" lon="0.88332">
        <ele>378</ele>
        <time>2019-02-17T14:46:04.000Z</time>
      </trkpt>
      <trkpt lat="43.21787" lon="0.88332">
        <ele>378</ele>
        <time>2019-02-17T14:46:06.000Z</time>
      </trkpt>
      <trkpt lat="43.21788" lon="0.88332">
        <ele>378</ele>
        <time>2019-02-17T14:46:08.000Z</time>
      </trkpt>
      <trkpt lat="43.21788" lon="0.88332">
        <ele>378</ele>
        <time>2019-02-17T14:46:10.000Z</time>
      </trkpt>
      <trkpt lat="43.21788" lon="0.88332">
        <ele>378</ele>
        <time>2019-02-17T14:46:12.000Z</time>
      </trkpt>
      <trkpt lat="43.21788" lon="0.88332">
        <ele>378</ele>
        <time>2019-02-17T14:46:14.000Z</time>
      </trkpt>
      <trkpt lat="43.21787" lon="0.88332">
        <ele>378</ele>
        <time>2019-02-17T14:46:16.000Z</time>
      </trkpt>
      <trkpt lat="43.21787" lon="0.88332">
        <ele>378</ele>
        <time>2019-02-17T14:46:18.000Z</time>
      </trkpt>
      <trkpt lat="43.21787" lon="0.88332">
        <ele>378</ele>
        <time>2019-02-17T14:46:20.000Z</time>
      </trkpt>
      <trkpt lat="43.21787" lon="0.88332">
        <ele>378</ele>
        <time>2019-02-17T14:46:22.000Z</time>
      </trkpt>
      <trkpt lat="43.21787" lon="0.88332">
        <ele>378</ele>
        <time>2019-02-17T14:46:24.000Z</time>
      </trkpt>
      <trkpt lat="43.21788" lon="0.88332">
        <ele>378</ele>
        <time>2019-02-17T14:46:26.000Z</time>
      </trkpt>
      <trkpt lat="43.21788" lon="0.88332">
        <ele>378</ele>
        <time>2019-02-17T14:46:28.000Z</time>
      </trkpt>
      <trkpt lat="43.21788" lon="0.88332">
        <ele>378</ele>
        <time>2019-02-17T14:46:30.000Z</time>
      </trkpt>
      <trkpt lat="43.21788" lon="0.88331">
        <ele>378</ele>
        <time>2019-02-17T14:46:32.000Z</time>
      </trkpt>
      <trkpt lat="43.21788" lon="0.88331">
        <ele>378</ele>
        <time>2019-02-17T14:46:34.000Z</time>
      </trkpt>
      <trkpt lat="43.21788" lon="0.88331">
        <ele>378</ele>
        <time>2019-02-17T14:46:36.000Z</time>
      </trkpt>
      <trkpt lat="43.21788" lon="0.88331">
        <ele>378</ele>
        <time>2019-02-17T14:46:38.000Z</time>
      </trkpt>
      <trkpt lat="43.21788" lon="0.8833">
        <ele>378</ele>
        <time>2019-02-17T14:46:40.000Z</time>
      </trkpt>
      <trkpt lat="43.21788" lon="0.8833">
        <ele>378</ele>
        <time>2019-02-17T14:46:42.000Z</time>
      </trkpt>
      <trkpt lat="43.21788" lon="0.8833">
        <ele>378</ele>
        <time>2019-02-17T14:46:44.000Z</time>
      </trkpt>
      <trkpt lat="43.21788" lon="0.8833">
        <ele>378</ele>
        <time>2019-02-17T14:46:46.000Z</time>
      </trkpt>
      <trkpt lat="43.21788" lon="0.8833">
        <ele>378</ele>
        <time>2019-02-17T14:46:48.000Z</time>
      </trkpt>
      <trkpt lat="43.21787" lon="0.8833">
        <ele>378</ele>
        <time>2019-02-17T14:46:50.000Z</time>
      </trkpt>
      <trkpt lat="43.21787" lon="0.8833">
        <ele>378</ele>
        <time>2019-02-17T14:46:52.000Z</time>
      </trkpt>
      <trkpt lat="43.21787" lon="0.8833">
        <ele>378</ele>
        <time>2019-02-17T14:46:54.000Z</time>
      </trkpt>
      <trkpt lat="43.21787" lon="0.8833">
        <ele>378</ele>
        <time>2019-02-17T14:46:56.000Z</time>
      </trkpt>
      <trkpt lat="43.21787" lon="0.8833">
        <ele>378</ele>
        <time>2019-02-17T14:46:58.000Z</time>
      </trkpt>
      <trkpt lat="43.21787" lon="0.88331">
        <ele>378</ele>
        <time>2019-02-17T14:47:00.000Z</time>
      </trkpt>
      <trkpt lat="43.21786" lon="0.88331">
        <ele>378</ele>
        <time>2019-02-17T14:47:02.000Z</time>
      </trkpt>
      <trkpt lat="43.21786" lon="0.88331">
        <ele>378</ele>
        <time>2019-02-17T14:47:04.000Z</time>
      </trkpt>
      <trkpt lat="43.21786" lon="0.88331">
        <ele>378</ele>
        <time>2019-02-17T14:47:06.000Z</time>
      </trkpt>
      <trkpt lat="43.21786" lon="0.88331">
        <ele>378</ele>
        <time>2019-02-17T14:47:08.000Z</time>
      </trkpt>
      <trkpt lat="43.21786" lon="0.88331">
        <ele>378</ele>
        <time>2019-02-17T14:47:10.000Z</time>
      </trkpt>
      <trkpt lat="43.21786" lon="0.88331">
        <ele>378</ele>
        <time>2019-02-17T14:47:12.000Z</time>
      </trkpt>
      <trkpt lat="43.21786" lon="0.88331">
        <ele>378</ele>
        <time>2019-02-17T14:47:14.000Z</time>
      </trkpt>
      <trkpt lat="43.21786" lon="0.8833">
        <ele>378</ele>
        <time>2019-02-17T14:47:16.000Z</time>
      </trkpt>
      <trkpt lat="43.21786" lon="0.8833">
        <ele>378</ele>
        <time>2019-02-17T14:47:18.000Z</time>
      </trkpt>
      <trkpt lat="43.21786" lon="0.8833">
        <ele>378</ele>
        <time>2019-02-17T14:47:20.000Z</time>
      </trkpt>
      <trkpt lat="43.21786" lon="0.8833">
        <ele>378</ele>
        <time>2019-02-17T14:47:22.000Z</time>
      </trkpt>
      <trkpt lat="43.21787" lon="0.88329">
        <ele>378</ele>
        <time>2019-02-17T14:47:24.000Z</time>
      </trkpt>
      <trkpt lat="43.21787" lon="0.88329">
        <ele>378</ele>
        <time>2019-02-17T14:47:26.000Z</time>
      </trkpt>
      <trkpt lat="43.21787" lon="0.88328">
        <ele>378</ele>
        <time>2019-02-17T14:47:28.000Z</time>
      </trkpt>
      <trkpt lat="43.21787" lon="0.88329">
        <ele>378</ele>
        <time>2019-02-17T14:47:30.000Z</time>
      </trkpt>
      <trkpt lat="43.21787" lon="0.88328">
        <ele>378</ele>
        <time>2019-02-17T14:47:32.000Z</time>
      </trkpt>
      <trkpt lat="43.21787" lon="0.88328">
        <ele>378</ele>
        <time>2019-02-17T14:47:34.000Z</time>
      </trkpt>
      <trkpt lat="43.21787" lon="0.88328">
        <ele>378</ele>
        <time>2019-02-17T14:47:36.000Z</time>
      </trkpt>
      <trkpt lat="43.21786" lon="0.88328">
        <ele>378</ele>
        <time>2019-02-17T14:47:38.000Z</time>
      </trkpt>
      <trkpt lat="43.21787" lon="0.88328">
        <ele>378</ele>
        <time>2019-02-17T14:47:40.000Z</time>
      </trkpt>
      <trkpt lat="43.21787" lon="0.88327">
        <ele>378</ele>
        <time>2019-02-17T14:47:42.000Z</time>
      </trkpt>
      <trkpt lat="43.21786" lon="0.88325">
        <ele>378</ele>
        <time>2019-02-17T14:47:44.000Z</time>
      </trkpt>
      <trkpt lat="43.21785" lon="0.88324">
        <ele>378</ele>
        <time>2019-02-17T14:47:46.000Z</time>
      </trkpt>
      <trkpt lat="43.21785" lon="0.88322">
        <ele>378</ele>
        <time>2019-02-17T14:47:48.000Z</time>
      </trkpt>
      <trkpt lat="43.21784" lon="0.88321">
        <ele>378</ele>
        <time>2019-02-17T14:47:50.000Z</time>
      </trkpt>
      <trkpt lat="43.21783" lon="0.8832">
        <ele>378</ele>
        <time>2019-02-17T14:47:52.000Z</time>
      </trkpt>
      <trkpt lat="43.21781" lon="0.88318">
        <ele>378</ele>
        <time>2019-02-17T14:47:54.000Z</time>
      </trkpt>
      <trkpt lat="43.2178" lon="0.88316">
        <ele>378</ele>
        <time>2019-02-17T14:47:56.000Z</time>
      </trkpt>
      <trkpt lat="43.2178" lon="0.88315">
        <ele>378</ele>
        <time>2019-02-17T14:47:58.000Z</time>
      </trkpt>
      <trkpt lat="43.21779" lon="0.88313">
        <ele>378</ele>
        <time>2019-02-17T14:48:00.000Z</time>
      </trkpt>
      <trkpt lat="43.21778" lon="0.88311">
        <ele>378</ele>
        <time>2019-02-17T14:48:02.000Z</time>
      </trkpt>
      <trkpt lat="43.21777" lon="0.88309">
        <ele>378</ele>
        <time>2019-02-17T14:48:04.000Z</time>
      </trkpt>
      <trkpt lat="43.21776" lon="0.88307">
        <ele>378</ele>
        <time>2019-02-17T14:48:06.000Z</time>
      </trkpt>
      <trkpt lat="43.21775" lon="0.88305">
        <ele>379</ele>
        <time>2019-02-17T14:48:08.000Z</time>
      </trkpt>
      <trkpt lat="43.21774" lon="0.88304">
        <ele>379</ele>
        <time>2019-02-17T14:48:10.000Z</time>
      </trkpt>
      <trkpt lat="43.21772" lon="0.88302">
        <ele>379</ele>
        <time>2019-02-17T14:48:12.000Z</time>
      </trkpt>
      <trkpt lat="43.21771" lon="0.883">
        <ele>379</ele>
        <time>2019-02-17T14:48:14.000Z</time>
      </trkpt>
      <trkpt lat="43.21771" lon="0.88298">
        <ele>380</ele>
        <time>2019-02-17T14:48:16.000Z</time>
      </trkpt>
      <trkpt lat="43.2177" lon="0.88296">
        <ele>380</ele>
        <time>2019-02-17T14:48:18.000Z</time>
      </trkpt>
      <trkpt lat="43.21769" lon="0.88294">
        <ele>380</ele>
        <time>2019-02-17T14:48:20.000Z</time>
      </trkpt>
      <trkpt lat="43.21769" lon="0.88292">
        <ele>380</ele>
        <time>2019-02-17T14:48:22.000Z</time>
      </trkpt>
      <trkpt lat="43.21768" lon="0.8829">
        <ele>380</ele>
        <time>2019-02-17T14:48:24.000Z</time>
      </trkpt>
      <trkpt lat="43.21767" lon="0.88288">
        <ele>381</ele>
        <time>2019-02-17T14:48:26.000Z</time>
      </trkpt>
      <trkpt lat="43.21765" lon="0.88287">
        <ele>381</ele>
        <time>2019-02-17T14:48:28.000Z</time>
      </trkpt>
      <trkpt lat="43.21764" lon="0.88285">
        <ele>381</ele>
        <time>2019-02-17T14:48:30.000Z</time>
      </trkpt>
      <trkpt lat="43.21763" lon="0.88282">
        <ele>382</ele>
        <time>2019-02-17T14:48:32.000Z</time>
      </trkpt>
      <trkpt lat="43.21762" lon="0.88279">
        <ele>382</ele>
        <time>2019-02-17T14:48:34.000Z</time>
      </trkpt>
      <trkpt lat="43.21761" lon="0.88276">
        <ele>382</ele>
        <time>2019-02-17T14:48:36.000Z</time>
      </trkpt>
      <trkpt lat="43.2176" lon="0.88274">
        <ele>383</ele>
        <time>2019-02-17T14:48:38.000Z</time>
      </trkpt>
      <trkpt lat="43.2176" lon="0.88272">
        <ele>383</ele>
        <time>2019-02-17T14:48:40.000Z</time>
      </trkpt>
      <trkpt lat="43.21759" lon="0.88269">
        <ele>383</ele>
        <time>2019-02-17T14:48:42.000Z</time>
      </trkpt>
      <trkpt lat="43.21759" lon="0.88268">
        <ele>383</ele>
        <time>2019-02-17T14:48:44.000Z</time>
      </trkpt>
      <trkpt lat="43.21758" lon="0.88265">
        <ele>383</ele>
        <time>2019-02-17T14:48:46.000Z</time>
      </trkpt>
      <trkpt lat="43.21757" lon="0.88263">
        <ele>384</ele>
        <time>2019-02-17T14:48:48.000Z</time>
      </trkpt>
      <trkpt lat="43.21757" lon="0.88261">
        <ele>384</ele>
        <time>2019-02-17T14:48:50.000Z</time>
      </trkpt>
      <trkpt lat="43.21756" lon="0.88258">
        <ele>384</ele>
        <time>2019-02-17T14:48:52.000Z</time>
      </trkpt>
      <trkpt lat="43.21754" lon="0.88256">
        <ele>384</ele>
        <time>2019-02-17T14:48:54.000Z</time>
      </trkpt>
      <trkpt lat="43.21754" lon="0.88254">
        <ele>384</ele>
        <time>2019-02-17T14:48:56.000Z</time>
      </trkpt>
      <trkpt lat="43.21753" lon="0.88252">
        <ele>385</ele>
        <time>2019-02-17T14:48:58.000Z</time>
      </trkpt>
      <trkpt lat="43.21752" lon="0.8825">
        <ele>385</ele>
        <time>2019-02-17T14:49:00.000Z</time>
      </trkpt>
      <trkpt lat="43.21752" lon="0.88248">
        <ele>385</ele>
        <time>2019-02-17T14:49:02.000Z</time>
      </trkpt>
      <trkpt lat="43.21752" lon="0.88246">
        <ele>385</ele>
        <time>2019-02-17T14:49:04.000Z</time>
      </trkpt>
      <trkpt lat="43.21751" lon="0.88244">
        <ele>385</ele>
        <time>2019-02-17T14:49:06.000Z</time>
      </trkpt>
      <trkpt lat="43.2175" lon="0.88243">
        <ele>386</ele>
        <time>2019-02-17T14:49:08.000Z</time>
      </trkpt>
      <trkpt lat="43.21749" lon="0.8824">
        <ele>386</ele>
        <time>2019-02-17T14:49:10.000Z</time>
      </trkpt>
      <trkpt lat="43.21748" lon="0.88238">
        <ele>386</ele>
        <time>2019-02-17T14:49:12.000Z</time>
      </trkpt>
      <trkpt lat="43.21747" lon="0.88237">
        <ele>386</ele>
        <time>2019-02-17T14:49:14.000Z</time>
      </trkpt>
      <trkpt lat="43.21747" lon="0.88235">
        <ele>386</ele>
        <time>2019-02-17T14:49:16.000Z</time>
      </trkpt>
      <trkpt lat="43.21746" lon="0.88233">
        <ele>387</ele>
        <time>2019-02-17T14:49:18.000Z</time>
      </trkpt>
      <trkpt lat="43.21745" lon="0.88232">
        <ele>387</ele>
        <time>2019-02-17T14:49:20.000Z</time>
      </trkpt>
      <trkpt lat="43.21744" lon="0.88232">
        <ele>387</ele>
        <time>2019-02-17T14:49:22.000Z</time>
      </trkpt>
      <trkpt lat="43.21744" lon="0.88231">
        <ele>387</ele>
        <time>2019-02-17T14:49:24.000Z</time>
      </trkpt>
      <trkpt lat="43.21744" lon="0.88229">
        <ele>387</ele>
        <time>2019-02-17T14:49:26.000Z</time>
      </trkpt>
      <trkpt lat="43.21744" lon="0.88227">
        <ele>387</ele>
        <time>2019-02-17T14:49:28.000Z</time>
      </trkpt>
      <trkpt lat="43.21743" lon="0.88225">
        <ele>387</ele>
        <time>2019-02-17T14:49:30.000Z</time>
      </trkpt>
      <trkpt lat="43.21742" lon="0.88223">
        <ele>388</ele>
        <time>2019-02-17T14:49:32.000Z</time>
      </trkpt>
      <trkpt lat="43.21742" lon="0.88221">
        <ele>388</ele>
        <time>2019-02-17T14:49:34.000Z</time>
      </trkpt>
      <trkpt lat="43.21741" lon="0.8822">
        <ele>388</ele>
        <time>2019-02-17T14:49:36.000Z</time>
      </trkpt>
      <trkpt lat="43.21741" lon="0.88217">
        <ele>388</ele>
        <time>2019-02-17T14:49:38.000Z</time>
      </trkpt>
      <trkpt lat="43.2174" lon="0.88216">
        <ele>388</ele>
        <time>2019-02-17T14:49:40.000Z</time>
      </trkpt>
      <trkpt lat="43.21739" lon="0.88214">
        <ele>388</ele>
        <time>2019-02-17T14:49:42.000Z</time>
      </trkpt>
      <trkpt lat="43.21738" lon="0.88212">
        <ele>388</ele>
        <time>2019-02-17T14:49:44.000Z</time>
      </trkpt>
      <trkpt lat="43.21738" lon="0.8821">
        <ele>388</ele>
        <time>2019-02-17T14:49:46.000Z</time>
      </trkpt>
      <trkpt lat="43.21737" lon="0.88208">
        <ele>388</ele>
        <time>2019-02-17T14:49:48.000Z</time>
      </trkpt>
      <trkpt lat="43.21737" lon="0.88206">
        <ele>388</ele>
        <time>2019-02-17T14:49:50.000Z</time>
      </trkpt>
      <trkpt lat="43.21736" lon="0.88204">
        <ele>388</ele>
        <time>2019-02-17T14:49:52.000Z</time>
      </trkpt>
      <trkpt lat="43.21736" lon="0.88201">
        <ele>388</ele>
        <time>2019-02-17T14:49:54.000Z</time>
      </trkpt>
      <trkpt lat="43.21737" lon="0.88197">
        <ele>388</ele>
        <time>2019-02-17T14:49:56.000Z</time>
      </trkpt>
      <trkpt lat="43.21737" lon="0.88195">
        <ele>388</ele>
        <time>2019-02-17T14:49:58.000Z</time>
      </trkpt>
      <trkpt lat="43.21738" lon="0.88193">
        <ele>388</ele>
        <time>2019-02-17T14:50:00.000Z</time>
      </trkpt>
      <trkpt lat="43.21736" lon="0.88193">
        <ele>388</ele>
        <time>2019-02-17T14:50:02.000Z</time>
      </trkpt>
      <trkpt lat="43.21734" lon="0.88192">
        <ele>388</ele>
        <time>2019-02-17T14:50:04.000Z</time>
      </trkpt>
      <trkpt lat="43.21733" lon="0.88191">
        <ele>388</ele>
        <time>2019-02-17T14:50:06.000Z</time>
      </trkpt>
      <trkpt lat="43.21732" lon="0.8819">
        <ele>388</ele>
        <time>2019-02-17T14:50:08.000Z</time>
      </trkpt>
      <trkpt lat="43.21731" lon="0.88189">
        <ele>389</ele>
        <time>2019-02-17T14:50:10.000Z</time>
      </trkpt>
      <trkpt lat="43.21729" lon="0.88189">
        <ele>389</ele>
        <time>2019-02-17T14:50:12.000Z</time>
      </trkpt>
      <trkpt lat="43.21727" lon="0.88188">
        <ele>389</ele>
        <time>2019-02-17T14:50:14.000Z</time>
      </trkpt>
      <trkpt lat="43.21726" lon="0.88187">
        <ele>389</ele>
        <time>2019-02-17T14:50:16.000Z</time>
      </trkpt>
      <trkpt lat="43.21724" lon="0.88186">
        <ele>389</ele>
        <time>2019-02-17T14:50:18.000Z</time>
      </trkpt>
      <trkpt lat="43.21723" lon="0.88185">
        <ele>389</ele>
        <time>2019-02-17T14:50:20.000Z</time>
      </trkpt>
      <trkpt lat="43.21721" lon="0.88186">
        <ele>389</ele>
        <time>2019-02-17T14:50:22.000Z</time>
      </trkpt>
      <trkpt lat="43.2172" lon="0.88186">
        <ele>389</ele>
        <time>2019-02-17T14:50:24.000Z</time>
      </trkpt>
      <trkpt lat="43.21725" lon="0.8818">
        <ele>389</ele>
        <time>2019-02-17T14:50:26.000Z</time>
      </trkpt>
      <trkpt lat="43.21731" lon="0.88173">
        <ele>390</ele>
        <time>2019-02-17T14:50:28.000Z</time>
      </trkpt>
      <trkpt lat="43.21732" lon="0.88171">
        <ele>391</ele>
        <time>2019-02-17T14:50:30.000Z</time>
      </trkpt>
      <trkpt lat="43.21731" lon="0.88171">
        <ele>391</ele>
        <time>2019-02-17T14:50:32.000Z</time>
      </trkpt>
      <trkpt lat="43.21731" lon="0.8817">
        <ele>391</ele>
        <time>2019-02-17T14:50:34.000Z</time>
      </trkpt>
      <trkpt lat="43.2173" lon="0.88168">
        <ele>391</ele>
        <time>2019-02-17T14:50:36.000Z</time>
      </trkpt>
      <trkpt lat="43.21731" lon="0.88165">
        <ele>391</ele>
        <time>2019-02-17T14:50:38.000Z</time>
      </trkpt>
      <trkpt lat="43.21732" lon="0.88163">
        <ele>391</ele>
        <time>2019-02-17T14:50:40.000Z</time>
      </trkpt>
      <trkpt lat="43.21731" lon="0.88161">
        <ele>392</ele>
        <time>2019-02-17T14:50:42.000Z</time>
      </trkpt>
      <trkpt lat="43.21729" lon="0.8816">
        <ele>392</ele>
        <time>2019-02-17T14:50:44.000Z</time>
      </trkpt>
      <trkpt lat="43.21728" lon="0.88159">
        <ele>392</ele>
        <time>2019-02-17T14:50:46.000Z</time>
      </trkpt>
      <trkpt lat="43.21727" lon="0.88158">
        <ele>392</ele>
        <time>2019-02-17T14:50:48.000Z</time>
      </trkpt>
      <trkpt lat="43.21724" lon="0.88158">
        <ele>392</ele>
        <time>2019-02-17T14:50:50.000Z</time>
      </trkpt>
      <trkpt lat="43.21723" lon="0.88158">
        <ele>392</ele>
        <time>2019-02-17T14:50:52.000Z</time>
      </trkpt>
      <trkpt lat="43.21722" lon="0.88159">
        <ele>392</ele>
        <time>2019-02-17T14:50:54.000Z</time>
      </trkpt>
      <trkpt lat="43.21722" lon="0.88159">
        <ele>391</ele>
        <time>2019-02-17T14:50:56.000Z</time>
      </trkpt>
      <trkpt lat="43.2172" lon="0.8816">
        <ele>391</ele>
        <time>2019-02-17T14:50:58.000Z</time>
      </trkpt>
      <trkpt lat="43.21719" lon="0.88159">
        <ele>391</ele>
        <time>2019-02-17T14:51:00.000Z</time>
      </trkpt>
      <trkpt lat="43.21718" lon="0.8816">
        <ele>391</ele>
        <time>2019-02-17T14:51:02.000Z</time>
      </trkpt>
      <trkpt lat="43.21717" lon="0.88161">
        <ele>391</ele>
        <time>2019-02-17T14:51:04.000Z</time>
      </trkpt>
      <trkpt lat="43.21716" lon="0.88161">
        <ele>391</ele>
        <time>2019-02-17T14:51:06.000Z</time>
      </trkpt>
      <trkpt lat="43.21716" lon="0.88161">
        <ele>391</ele>
        <time>2019-02-17T14:51:08.000Z</time>
      </trkpt>
      <trkpt lat="43.21716" lon="0.88161">
        <ele>391</ele>
        <time>2019-02-17T14:51:10.000Z</time>
      </trkpt>
      <trkpt lat="43.21715" lon="0.88161">
        <ele>391</ele>
        <time>2019-02-17T14:51:12.000Z</time>
      </trkpt>
      <trkpt lat="43.21715" lon="0.8816">
        <ele>391</ele>
        <time>2019-02-17T14:51:14.000Z</time>
      </trkpt>
      <trkpt lat="43.21714" lon="0.8816">
        <ele>391</ele>
        <time>2019-02-17T14:51:16.000Z</time>
      </trkpt>
      <trkpt lat="43.21713" lon="0.88162">
        <ele>391</ele>
        <time>2019-02-17T14:51:18.000Z</time>
      </trkpt>
      <trkpt lat="43.21713" lon="0.88162">
        <ele>391</ele>
        <time>2019-02-17T14:51:20.000Z</time>
      </trkpt>
      <trkpt lat="43.21713" lon="0.88162">
        <ele>391</ele>
        <time>2019-02-17T14:51:22.000Z</time>
      </trkpt>
      <trkpt lat="43.21713" lon="0.88163">
        <ele>391</ele>
        <time>2019-02-17T14:51:24.000Z</time>
      </trkpt>
      <trkpt lat="43.21712" lon="0.88164">
        <ele>391</ele>
        <time>2019-02-17T14:51:26.000Z</time>
      </trkpt>
      <trkpt lat="43.21712" lon="0.88164">
        <ele>391</ele>
        <time>2019-02-17T14:51:28.000Z</time>
      </trkpt>
      <trkpt lat="43.21712" lon="0.88165">
        <ele>390</ele>
        <time>2019-02-17T14:51:30.000Z</time>
      </trkpt>
      <trkpt lat="43.21712" lon="0.88165">
        <ele>390</ele>
        <time>2019-02-17T14:51:32.000Z</time>
      </trkpt>
      <trkpt lat="43.21712" lon="0.88166">
        <ele>390</ele>
        <time>2019-02-17T14:51:34.000Z</time>
      </trkpt>
      <trkpt lat="43.21711" lon="0.88166">
        <ele>390</ele>
        <time>2019-02-17T14:51:36.000Z</time>
      </trkpt>
      <trkpt lat="43.21711" lon="0.88167">
        <ele>390</ele>
        <time>2019-02-17T14:51:38.000Z</time>
      </trkpt>
      <trkpt lat="43.21711" lon="0.88166">
        <ele>390</ele>
        <time>2019-02-17T14:51:40.000Z</time>
      </trkpt>
      <trkpt lat="43.21711" lon="0.88166">
        <ele>390</ele>
        <time>2019-02-17T14:51:42.000Z</time>
      </trkpt>
      <trkpt lat="43.21711" lon="0.88165">
        <ele>390</ele>
        <time>2019-02-17T14:51:44.000Z</time>
      </trkpt>
      <trkpt lat="43.2171" lon="0.88164">
        <ele>391</ele>
        <time>2019-02-17T14:51:46.000Z</time>
      </trkpt>
      <trkpt lat="43.21709" lon="0.88163">
        <ele>391</ele>
        <time>2019-02-17T14:51:48.000Z</time>
      </trkpt>
      <trkpt lat="43.21708" lon="0.88162">
        <ele>391</ele>
        <time>2019-02-17T14:51:50.000Z</time>
      </trkpt>
      <trkpt lat="43.21708" lon="0.88161">
        <ele>391</ele>
        <time>2019-02-17T14:51:52.000Z</time>
      </trkpt>
      <trkpt lat="43.21707" lon="0.88161">
        <ele>391</ele>
        <time>2019-02-17T14:51:54.000Z</time>
      </trkpt>
      <trkpt lat="43.21707" lon="0.8816">
        <ele>391</ele>
        <time>2019-02-17T14:51:56.000Z</time>
      </trkpt>
      <trkpt lat="43.21706" lon="0.8816">
        <ele>391</ele>
        <time>2019-02-17T14:51:58.000Z</time>
      </trkpt>
      <trkpt lat="43.21706" lon="0.8816">
        <ele>391</ele>
        <time>2019-02-17T14:52:00.000Z</time>
      </trkpt>
      <trkpt lat="43.21706" lon="0.8816">
        <ele>391</ele>
        <time>2019-02-17T14:52:02.000Z</time>
      </trkpt>
      <trkpt lat="43.21706" lon="0.8816">
        <ele>391</ele>
        <time>2019-02-17T14:52:04.000Z</time>
      </trkpt>
      <trkpt lat="43.21706" lon="0.88161">
        <ele>391</ele>
        <time>2019-02-17T14:52:06.000Z</time>
      </trkpt>
      <trkpt lat="43.21706" lon="0.88162">
        <ele>391</ele>
        <time>2019-02-17T14:52:08.000Z</time>
      </trkpt>
      <trkpt lat="43.21707" lon="0.88162">
        <ele>391</ele>
        <time>2019-02-17T14:52:10.000Z</time>
      </trkpt>
      <trkpt lat="43.21707" lon="0.88162">
        <ele>391</ele>
        <time>2019-02-17T14:52:12.000Z</time>
      </trkpt>
      <trkpt lat="43.21707" lon="0.88161">
        <ele>391</ele>
        <time>2019-02-17T14:52:14.000Z</time>
      </trkpt>
      <trkpt lat="43.21706" lon="0.88161">
        <ele>391</ele>
        <time>2019-02-17T14:52:16.000Z</time>
      </trkpt>
      <trkpt lat="43.21707" lon="0.88161">
        <ele>391</ele>
        <time>2019-02-17T14:52:18.000Z</time>
      </trkpt>
      <trkpt lat="43.21707" lon="0.8816">
        <ele>391</ele>
        <time>2019-02-17T14:52:20.000Z</time>
      </trkpt>
      <trkpt lat="43.21707" lon="0.8816">
        <ele>391</ele>
        <time>2019-02-17T14:52:22.000Z</time>
      </trkpt>
      <trkpt lat="43.21707" lon="0.8816">
        <ele>391</ele>
        <time>2019-02-17T14:52:24.000Z</time>
      </trkpt>
      <trkpt lat="43.21707" lon="0.88159">
        <ele>391</ele>
        <time>2019-02-17T14:52:26.000Z</time>
      </trkpt>
      <trkpt lat="43.21707" lon="0.88159">
        <ele>391</ele>
        <time>2019-02-17T14:52:28.000Z</time>
      </trkpt>
      <trkpt lat="43.21707" lon="0.88158">
        <ele>391</ele>
        <time>2019-02-17T14:52:30.000Z</time>
      </trkpt>
      <trkpt lat="43.21707" lon="0.88157">
        <ele>391</ele>
        <time>2019-02-17T14:52:32.000Z</time>
      </trkpt>
      <trkpt lat="43.21706" lon="0.88158">
        <ele>391</ele>
        <time>2019-02-17T14:52:34.000Z</time>
      </trkpt>
      <trkpt lat="43.21706" lon="0.88158">
        <ele>391</ele>
        <time>2019-02-17T14:52:36.000Z</time>
      </trkpt>
      <trkpt lat="43.21706" lon="0.88158">
        <ele>391</ele>
        <time>2019-02-17T14:52:38.000Z</time>
      </trkpt>
      <trkpt lat="43.21706" lon="0.88158">
        <ele>391</ele>
        <time>2019-02-17T14:52:40.000Z</time>
      </trkpt>
      <trkpt lat="43.21706" lon="0.88158">
        <ele>391</ele>
        <time>2019-02-17T14:52:42.000Z</time>
      </trkpt>
      <trkpt lat="43.21706" lon="0.88158">
        <ele>391</ele>
        <time>2019-02-17T14:52:44.000Z</time>
      </trkpt>
      <trkpt lat="43.21706" lon="0.88159">
        <ele>391</ele>
        <time>2019-02-17T14:52:46.000Z</time>
      </trkpt>
      <trkpt lat="43.21707" lon="0.88159">
        <ele>391</ele>
        <time>2019-02-17T14:52:48.000Z</time>
      </trkpt>
      <trkpt lat="43.21707" lon="0.88159">
        <ele>391</ele>
        <time>2019-02-17T14:52:50.000Z</time>
      </trkpt>
      <trkpt lat="43.21707" lon="0.88159">
        <ele>391</ele>
        <time>2019-02-17T14:52:52.000Z</time>
      </trkpt>
      <trkpt lat="43.21706" lon="0.88158">
        <ele>391</ele>
        <time>2019-02-17T14:52:54.000Z</time>
      </trkpt>
      <trkpt lat="43.21705" lon="0.88158">
        <ele>391</ele>
        <time>2019-02-17T14:52:56.000Z</time>
      </trkpt>
      <trkpt lat="43.21705" lon="0.88158">
        <ele>391</ele>
        <time>2019-02-17T14:52:58.000Z</time>
      </trkpt>
      <trkpt lat="43.21705" lon="0.88158">
        <ele>391</ele>
        <time>2019-02-17T14:53:00.000Z</time>
      </trkpt>
      <trkpt lat="43.21706" lon="0.88158">
        <ele>391</ele>
        <time>2019-02-17T14:53:02.000Z</time>
      </trkpt>
      <trkpt lat="43.21705" lon="0.88158">
        <ele>391</ele>
        <time>2019-02-17T14:53:04.000Z</time>
      </trkpt>
      <trkpt lat="43.21706" lon="0.88159">
        <ele>391</ele>
        <time>2019-02-17T14:53:06.000Z</time>
      </trkpt>
      <trkpt lat="43.21705" lon="0.88158">
        <ele>391</ele>
        <time>2019-02-17T14:53:08.000Z</time>
      </trkpt>
      <trkpt lat="43.21705" lon="0.88158">
        <ele>391</ele>
        <time>2019-02-17T14:53:10.000Z</time>
      </trkpt>
      <trkpt lat="43.21705" lon="0.88159">
        <ele>391</ele>
        <time>2019-02-17T14:53:12.000Z</time>
      </trkpt>
      <trkpt lat="43.21705" lon="0.88159">
        <ele>391</ele>
        <time>2019-02-17T14:53:14.000Z</time>
      </trkpt>
      <trkpt lat="43.21705" lon="0.88159">
        <ele>391</ele>
        <time>2019-02-17T14:53:16.000Z</time>
      </trkpt>
      <trkpt lat="43.21705" lon="0.88159">
        <ele>391</ele>
        <time>2019-02-17T14:53:18.000Z</time>
      </trkpt>
      <trkpt lat="43.21705" lon="0.8816">
        <ele>391</ele>
        <time>2019-02-17T14:53:20.000Z</time>
      </trkpt>
      <trkpt lat="43.21706" lon="0.88161">
        <ele>391</ele>
        <time>2019-02-17T14:53:22.000Z</time>
      </trkpt>
      <trkpt lat="43.21706" lon="0.88161">
        <ele>391</ele>
        <time>2019-02-17T14:53:24.000Z</time>
      </trkpt>
      <trkpt lat="43.21705" lon="0.88161">
        <ele>391</ele>
        <time>2019-02-17T14:53:26.000Z</time>
      </trkpt>
      <trkpt lat="43.21705" lon="0.88161">
        <ele>391</ele>
        <time>2019-02-17T14:53:28.000Z</time>
      </trkpt>
      <trkpt lat="43.21705" lon="0.8816">
        <ele>391</ele>
        <time>2019-02-17T14:53:30.000Z</time>
      </trkpt>
      <trkpt lat="43.21705" lon="0.8816">
        <ele>391</ele>
        <time>2019-02-17T14:53:32.000Z</time>
      </trkpt>
      <trkpt lat="43.21705" lon="0.8816">
        <ele>391</ele>
        <time>2019-02-17T14:53:34.000Z</time>
      </trkpt>
      <trkpt lat="43.21705" lon="0.8816">
        <ele>391</ele>
        <time>2019-02-17T14:53:36.000Z</time>
      </trkpt>
      <trkpt lat="43.21705" lon="0.8816">
        <ele>391</ele>
        <time>2019-02-17T14:53:38.000Z</time>
      </trkpt>
      <trkpt lat="43.21705" lon="0.8816">
        <ele>391</ele>
        <time>2019-02-17T14:53:40.000Z</time>
      </trkpt>
      <trkpt lat="43.21705" lon="0.8816">
        <ele>391</ele>
        <time>2019-02-17T14:53:42.000Z</time>
      </trkpt>
      <trkpt lat="43.21705" lon="0.8816">
        <ele>391</ele>
        <time>2019-02-17T14:53:44.000Z</time>
      </trkpt>
      <trkpt lat="43.21706" lon="0.8816">
        <ele>391</ele>
        <time>2019-02-17T14:53:46.000Z</time>
      </trkpt>
      <trkpt lat="43.21706" lon="0.8816">
        <ele>391</ele>
        <time>2019-02-17T14:53:48.000Z</time>
      </trkpt>
      <trkpt lat="43.21706" lon="0.8816">
        <ele>391</ele>
        <time>2019-02-17T14:53:50.000Z</time>
      </trkpt>
      <trkpt lat="43.21706" lon="0.8816">
        <ele>391</ele>
        <time>2019-02-17T14:53:52.000Z</time>
      </trkpt>
      <trkpt lat="43.21705" lon="0.88159">
        <ele>391</ele>
        <time>2019-02-17T14:53:54.000Z</time>
      </trkpt>
      <trkpt lat="43.21705" lon="0.88159">
        <ele>391</ele>
        <time>2019-02-17T14:53:56.000Z</time>
      </trkpt>
      <trkpt lat="43.21705" lon="0.88159">
        <ele>391</ele>
        <time>2019-02-17T14:53:58.000Z</time>
      </trkpt>
      <trkpt lat="43.21705" lon="0.88159">
        <ele>391</ele>
        <time>2019-02-17T14:54:00.000Z</time>
      </trkpt>
      <trkpt lat="43.21705" lon="0.88159">
        <ele>391</ele>
        <time>2019-02-17T14:54:02.000Z</time>
      </trkpt>
      <trkpt lat="43.21705" lon="0.88159">
        <ele>391</ele>
        <time>2019-02-17T14:54:04.000Z</time>
      </trkpt>
      <trkpt lat="43.21705" lon="0.88158">
        <ele>391</ele>
        <time>2019-02-17T14:54:06.000Z</time>
      </trkpt>
      <trkpt lat="43.21705" lon="0.88159">
        <ele>391</ele>
        <time>2019-02-17T14:54:08.000Z</time>
      </trkpt>
      <trkpt lat="43.21705" lon="0.88159">
        <ele>391</ele>
        <time>2019-02-17T14:54:10.000Z</time>
      </trkpt>
      <trkpt lat="43.21704" lon="0.88159">
        <ele>391</ele>
        <time>2019-02-17T14:54:12.000Z</time>
      </trkpt>
      <trkpt lat="43.21704" lon="0.88159">
        <ele>391</ele>
        <time>2019-02-17T14:54:14.000Z</time>
      </trkpt>
      <trkpt lat="43.21704" lon="0.88159">
        <ele>391</ele>
        <time>2019-02-17T14:54:16.000Z</time>
      </trkpt>
      <trkpt lat="43.21704" lon="0.8816">
        <ele>391</ele>
        <time>2019-02-17T14:54:18.000Z</time>
      </trkpt>
      <trkpt lat="43.21703" lon="0.88161">
        <ele>391</ele>
        <time>2019-02-17T14:54:20.000Z</time>
      </trkpt>
      <trkpt lat="43.21703" lon="0.88162">
        <ele>390</ele>
        <time>2019-02-17T14:54:22.000Z</time>
      </trkpt>
      <trkpt lat="43.21702" lon="0.88162">
        <ele>390</ele>
        <time>2019-02-17T14:54:24.000Z</time>
      </trkpt>
      <trkpt lat="43.21701" lon="0.88163">
        <ele>390</ele>
        <time>2019-02-17T14:54:26.000Z</time>
      </trkpt>
      <trkpt lat="43.21701" lon="0.88163">
        <ele>390</ele>
        <time>2019-02-17T14:54:28.000Z</time>
      </trkpt>
      <trkpt lat="43.21701" lon="0.88163">
        <ele>390</ele>
        <time>2019-02-17T14:54:30.000Z</time>
      </trkpt>
      <trkpt lat="43.21701" lon="0.88164">
        <ele>390</ele>
        <time>2019-02-17T14:54:32.000Z</time>
      </trkpt>
      <trkpt lat="43.21701" lon="0.88164">
        <ele>390</ele>
        <time>2019-02-17T14:54:34.000Z</time>
      </trkpt>
      <trkpt lat="43.21702" lon="0.88164">
        <ele>390</ele>
        <time>2019-02-17T14:54:36.000Z</time>
      </trkpt>
      <trkpt lat="43.21703" lon="0.88165">
        <ele>390</ele>
        <time>2019-02-17T14:54:38.000Z</time>
      </trkpt>
      <trkpt lat="43.21703" lon="0.88166">
        <ele>390</ele>
        <time>2019-02-17T14:54:40.000Z</time>
      </trkpt>
      <trkpt lat="43.21703" lon="0.88166">
        <ele>390</ele>
        <time>2019-02-17T14:54:42.000Z</time>
      </trkpt>
      <trkpt lat="43.21704" lon="0.88167">
        <ele>390</ele>
        <time>2019-02-17T14:54:44.000Z</time>
      </trkpt>
      <trkpt lat="43.21704" lon="0.88167">
        <ele>390</ele>
        <time>2019-02-17T14:54:46.000Z</time>
      </trkpt>
      <trkpt lat="43.21703" lon="0.88168">
        <ele>390</ele>
        <time>2019-02-17T14:54:48.000Z</time>
      </trkpt>
      <trkpt lat="43.21704" lon="0.88168">
        <ele>390</ele>
        <time>2019-02-17T14:54:50.000Z</time>
      </trkpt>
      <trkpt lat="43.21703" lon="0.88165">
        <ele>390</ele>
        <time>2019-02-17T14:54:52.000Z</time>
      </trkpt>
      <trkpt lat="43.21704" lon="0.88166">
        <ele>390</ele>
        <time>2019-02-17T14:54:54.000Z</time>
      </trkpt>
      <trkpt lat="43.21704" lon="0.88166">
        <ele>390</ele>
        <time>2019-02-17T14:54:56.000Z</time>
      </trkpt>
      <trkpt lat="43.21703" lon="0.88165">
        <ele>390</ele>
        <time>2019-02-17T14:54:58.000Z</time>
      </trkpt>
      <trkpt lat="43.21702" lon="0.88165">
        <ele>390</ele>
        <time>2019-02-17T14:55:00.000Z</time>
      </trkpt>
      <trkpt lat="43.21702" lon="0.88164">
        <ele>390</ele>
        <time>2019-02-17T14:55:02.000Z</time>
      </trkpt>
      <trkpt lat="43.21703" lon="0.88161">
        <ele>391</ele>
        <time>2019-02-17T14:55:04.000Z</time>
      </trkpt>
      <trkpt lat="43.21704" lon="0.88161">
        <ele>391</ele>
        <time>2019-02-17T14:55:06.000Z</time>
      </trkpt>
      <trkpt lat="43.21704" lon="0.88159">
        <ele>391</ele>
        <time>2019-02-17T14:55:08.000Z</time>
      </trkpt>
      <trkpt lat="43.21705" lon="0.88158">
        <ele>391</ele>
        <time>2019-02-17T14:55:10.000Z</time>
      </trkpt>
      <trkpt lat="43.21705" lon="0.88156">
        <ele>391</ele>
        <time>2019-02-17T14:55:12.000Z</time>
      </trkpt>
      <trkpt lat="43.21705" lon="0.88156">
        <ele>391</ele>
        <time>2019-02-17T14:55:14.000Z</time>
      </trkpt>
      <trkpt lat="43.21704" lon="0.88159">
        <ele>391</ele>
        <time>2019-02-17T14:55:16.000Z</time>
      </trkpt>
      <trkpt lat="43.21704" lon="0.88159">
        <ele>391</ele>
        <time>2019-02-17T14:55:18.000Z</time>
      </trkpt>
      <trkpt lat="43.21704" lon="0.8816">
        <ele>391</ele>
        <time>2019-02-17T14:55:20.000Z</time>
      </trkpt>
      <trkpt lat="43.21704" lon="0.88159">
        <ele>391</ele>
        <time>2019-02-17T14:55:22.000Z</time>
      </trkpt>
      <trkpt lat="43.21704" lon="0.8816">
        <ele>391</ele>
        <time>2019-02-17T14:55:24.000Z</time>
      </trkpt>
      <trkpt lat="43.21704" lon="0.88159">
        <ele>391</ele>
        <time>2019-02-17T14:55:26.000Z</time>
      </trkpt>
      <trkpt lat="43.21704" lon="0.88158">
        <ele>391</ele>
        <time>2019-02-17T14:55:28.000Z</time>
      </trkpt>
      <trkpt lat="43.21705" lon="0.88158">
        <ele>391</ele>
        <time>2019-02-17T14:55:30.000Z</time>
      </trkpt>
      <trkpt lat="43.21705" lon="0.88158">
        <ele>391</ele>
        <time>2019-02-17T14:55:32.000Z</time>
      </trkpt>
      <trkpt lat="43.21705" lon="0.88158">
        <ele>391</ele>
        <time>2019-02-17T14:55:34.000Z</time>
      </trkpt>
      <trkpt lat="43.21706" lon="0.88159">
        <ele>391</ele>
        <time>2019-02-17T14:55:36.000Z</time>
      </trkpt>
      <trkpt lat="43.21707" lon="0.8816">
        <ele>391</ele>
        <time>2019-02-17T14:55:38.000Z</time>
      </trkpt>
      <trkpt lat="43.21707" lon="0.8816">
        <ele>391</ele>
        <time>2019-02-17T14:55:40.000Z</time>
      </trkpt>
      <trkpt lat="43.21706" lon="0.8816">
        <ele>391</ele>
        <time>2019-02-17T14:55:42.000Z</time>
      </trkpt>
      <trkpt lat="43.21706" lon="0.88159">
        <ele>391</ele>
        <time>2019-02-17T14:55:44.000Z</time>
      </trkpt>
      <trkpt lat="43.21706" lon="0.88159">
        <ele>391</ele>
        <time>2019-02-17T14:55:46.000Z</time>
      </trkpt>
      <trkpt lat="43.21706" lon="0.88159">
        <ele>391</ele>
        <time>2019-02-17T14:55:48.000Z</time>
      </trkpt>
      <trkpt lat="43.21706" lon="0.88159">
        <ele>391</ele>
        <time>2019-02-17T14:55:50.000Z</time>
      </trkpt>
      <trkpt lat="43.21706" lon="0.88158">
        <ele>391</ele>
        <time>2019-02-17T14:55:52.000Z</time>
      </trkpt>
      <trkpt lat="43.21706" lon="0.88159">
        <ele>391</ele>
        <time>2019-02-17T14:55:54.000Z</time>
      </trkpt>
      <trkpt lat="43.21706" lon="0.88159">
        <ele>391</ele>
        <time>2019-02-17T14:55:56.000Z</time>
      </trkpt>
      <trkpt lat="43.21706" lon="0.88159">
        <ele>391</ele>
        <time>2019-02-17T14:55:58.000Z</time>
      </trkpt>
      <trkpt lat="43.21706" lon="0.8816">
        <ele>391</ele>
        <time>2019-02-17T14:56:00.000Z</time>
      </trkpt>
      <trkpt lat="43.21706" lon="0.8816">
        <ele>391</ele>
        <time>2019-02-17T14:56:02.000Z</time>
      </trkpt>
      <trkpt lat="43.21706" lon="0.8816">
        <ele>391</ele>
        <time>2019-02-17T14:56:04.000Z</time>
      </trkpt>
      <trkpt lat="43.21707" lon="0.8816">
        <ele>391</ele>
        <time>2019-02-17T14:56:06.000Z</time>
      </trkpt>
      <trkpt lat="43.21707" lon="0.88161">
        <ele>391</ele>
        <time>2019-02-17T14:56:08.000Z</time>
      </trkpt>
      <trkpt lat="43.21707" lon="0.88161">
        <ele>391</ele>
        <time>2019-02-17T14:56:10.000Z</time>
      </trkpt>
      <trkpt lat="43.21707" lon="0.88161">
        <ele>391</ele>
        <time>2019-02-17T14:56:12.000Z</time>
      </trkpt>
      <trkpt lat="43.21707" lon="0.88162">
        <ele>391</ele>
        <time>2019-02-17T14:56:14.000Z</time>
      </trkpt>
      <trkpt lat="43.21707" lon="0.88162">
        <ele>391</ele>
        <time>2019-02-17T14:56:16.000Z</time>
      </trkpt>
      <trkpt lat="43.21707" lon="0.88162">
        <ele>391</ele>
        <time>2019-02-17T14:56:18.000Z</time>
      </trkpt>
      <trkpt lat="43.21707" lon="0.88162">
        <ele>391</ele>
        <time>2019-02-17T14:56:20.000Z</time>
      </trkpt>
      <trkpt lat="43.21707" lon="0.88162">
        <ele>391</ele>
        <time>2019-02-17T14:56:22.000Z</time>
      </trkpt>
      <trkpt lat="43.21707" lon="0.88162">
        <ele>391</ele>
        <time>2019-02-17T14:56:24.000Z</time>
      </trkpt>
      <trkpt lat="43.21706" lon="0.88162">
        <ele>391</ele>
        <time>2019-02-17T14:56:26.000Z</time>
      </trkpt>
      <trkpt lat="43.21706" lon="0.88163">
        <ele>391</ele>
        <time>2019-02-17T14:56:28.000Z</time>
      </trkpt>
      <trkpt lat="43.21706" lon="0.88163">
        <ele>391</ele>
        <time>2019-02-17T14:56:30.000Z</time>
      </trkpt>
      <trkpt lat="43.21706" lon="0.88163">
        <ele>390</ele>
        <time>2019-02-17T14:56:32.000Z</time>
      </trkpt>
      <trkpt lat="43.21706" lon="0.88163">
        <ele>391</ele>
        <time>2019-02-17T14:56:34.000Z</time>
      </trkpt>
      <trkpt lat="43.21706" lon="0.88162">
        <ele>391</ele>
        <time>2019-02-17T14:56:36.000Z</time>
      </trkpt>
      <trkpt lat="43.21706" lon="0.88162">
        <ele>391</ele>
        <time>2019-02-17T14:56:38.000Z</time>
      </trkpt>
      <trkpt lat="43.21706" lon="0.88161">
        <ele>391</ele>
        <time>2019-02-17T14:56:40.000Z</time>
      </trkpt>
      <trkpt lat="43.21706" lon="0.88161">
        <ele>391</ele>
        <time>2019-02-17T14:56:42.000Z</time>
      </trkpt>
      <trkpt lat="43.21706" lon="0.88161">
        <ele>391</ele>
        <time>2019-02-17T14:56:44.000Z</time>
      </trkpt>
      <trkpt lat="43.21707" lon="0.88161">
        <ele>391</ele>
        <time>2019-02-17T14:56:46.000Z</time>
      </trkpt>
      <trkpt lat="43.21707" lon="0.88161">
        <ele>391</ele>
        <time>2019-02-17T14:56:48.000Z</time>
      </trkpt>
      <trkpt lat="43.21706" lon="0.88161">
        <ele>391</ele>
        <time>2019-02-17T14:56:50.000Z</time>
      </trkpt>
      <trkpt lat="43.21706" lon="0.88161">
        <ele>391</ele>
        <time>2019-02-17T14:56:52.000Z</time>
      </trkpt>
      <trkpt lat="43.21707" lon="0.88161">
        <ele>391</ele>
        <time>2019-02-17T14:56:54.000Z</time>
      </trkpt>
      <trkpt lat="43.21706" lon="0.88161">
        <ele>391</ele>
        <time>2019-02-17T14:56:56.000Z</time>
      </trkpt>
      <trkpt lat="43.21707" lon="0.88161">
        <ele>391</ele>
        <time>2019-02-17T14:56:58.000Z</time>
      </trkpt>
      <trkpt lat="43.21707" lon="0.88161">
        <ele>391</ele>
        <time>2019-02-17T14:57:00.000Z</time>
      </trkpt>
      <trkpt lat="43.21707" lon="0.88161">
        <ele>391</ele>
        <time>2019-02-17T14:57:02.000Z</time>
      </trkpt>
      <trkpt lat="43.21707" lon="0.88162">
        <ele>391</ele>
        <time>2019-02-17T14:57:04.000Z</time>
      </trkpt>
      <trkpt lat="43.21707" lon="0.88162">
        <ele>391</ele>
        <time>2019-02-17T14:57:06.000Z</time>
      </trkpt>
      <trkpt lat="43.21706" lon="0.88162">
        <ele>391</ele>
        <time>2019-02-17T14:57:08.000Z</time>
      </trkpt>
      <trkpt lat="43.21706" lon="0.88163">
        <ele>391</ele>
        <time>2019-02-17T14:57:10.000Z</time>
      </trkpt>
      <trkpt lat="43.21706" lon="0.88163">
        <ele>391</ele>
        <time>2019-02-17T14:57:12.000Z</time>
      </trkpt>
      <trkpt lat="43.21705" lon="0.88163">
        <ele>390</ele>
        <time>2019-02-17T14:57:14.000Z</time>
      </trkpt>
      <trkpt lat="43.21705" lon="0.88163">
        <ele>390</ele>
        <time>2019-02-17T14:57:16.000Z</time>
      </trkpt>
      <trkpt lat="43.21705" lon="0.88163">
        <ele>390</ele>
        <time>2019-02-17T14:57:18.000Z</time>
      </trkpt>
      <trkpt lat="43.21705" lon="0.88163">
        <ele>390</ele>
        <time>2019-02-17T14:57:20.000Z</time>
      </trkpt>
      <trkpt lat="43.21705" lon="0.88164">
        <ele>390</ele>
        <time>2019-02-17T14:57:22.000Z</time>
      </trkpt>
      <trkpt lat="43.21705" lon="0.88163">
        <ele>390</ele>
        <time>2019-02-17T14:57:24.000Z</time>
      </trkpt>
      <trkpt lat="43.21705" lon="0.88163">
        <ele>390</ele>
        <time>2019-02-17T14:57:26.000Z</time>
      </trkpt>
      <trkpt lat="43.21705" lon="0.88162">
        <ele>390</ele>
        <time>2019-02-17T14:57:28.000Z</time>
      </trkpt>
      <trkpt lat="43.21705" lon="0.88162">
        <ele>391</ele>
        <time>2019-02-17T14:57:30.000Z</time>
      </trkpt>
      <trkpt lat="43.21705" lon="0.88162">
        <ele>391</ele>
        <time>2019-02-17T14:57:32.000Z</time>
      </trkpt>
      <trkpt lat="43.21705" lon="0.88162">
        <ele>391</ele>
        <time>2019-02-17T14:57:34.000Z</time>
      </trkpt>
      <trkpt lat="43.21705" lon="0.88162">
        <ele>391</ele>
        <time>2019-02-17T14:57:36.000Z</time>
      </trkpt>
      <trkpt lat="43.21705" lon="0.88162">
        <ele>391</ele>
        <time>2019-02-17T14:57:38.000Z</time>
      </trkpt>
      <trkpt lat="43.21705" lon="0.88162">
        <ele>391</ele>
        <time>2019-02-17T14:57:40.000Z</time>
      </trkpt>
      <trkpt lat="43.21705" lon="0.88163">
        <ele>390</ele>
        <time>2019-02-17T14:57:42.000Z</time>
      </trkpt>
      <trkpt lat="43.21705" lon="0.88163">
        <ele>390</ele>
        <time>2019-02-17T14:57:44.000Z</time>
      </trkpt>
      <trkpt lat="43.21705" lon="0.88162">
        <ele>390</ele>
        <time>2019-02-17T14:57:46.000Z</time>
      </trkpt>
      <trkpt lat="43.21705" lon="0.88163">
        <ele>390</ele>
        <time>2019-02-17T14:57:48.000Z</time>
      </trkpt>
      <trkpt lat="43.21705" lon="0.88163">
        <ele>390</ele>
        <time>2019-02-17T14:57:50.000Z</time>
      </trkpt>
      <trkpt lat="43.21706" lon="0.88164">
        <ele>390</ele>
        <time>2019-02-17T14:57:52.000Z</time>
      </trkpt>
      <trkpt lat="43.21706" lon="0.88164">
        <ele>390</ele>
        <time>2019-02-17T14:57:54.000Z</time>
      </trkpt>
      <trkpt lat="43.21706" lon="0.88164">
        <ele>390</ele>
        <time>2019-02-17T14:57:56.000Z</time>
      </trkpt>
      <trkpt lat="43.21706" lon="0.88165">
        <ele>390</ele>
        <time>2019-02-17T14:57:58.000Z</time>
      </trkpt>
      <trkpt lat="43.21706" lon="0.88165">
        <ele>390</ele>
        <time>2019-02-17T14:58:00.000Z</time>
      </trkpt>
      <trkpt lat="43.21706" lon="0.88165">
        <ele>390</ele>
        <time>2019-02-17T14:58:02.000Z</time>
      </trkpt>
      <trkpt lat="43.21707" lon="0.88165">
        <ele>390</ele>
        <time>2019-02-17T14:58:04.000Z</time>
      </trkpt>
      <trkpt lat="43.21707" lon="0.88165">
        <ele>390</ele>
        <time>2019-02-17T14:58:06.000Z</time>
      </trkpt>
      <trkpt lat="43.21707" lon="0.88165">
        <ele>390</ele>
        <time>2019-02-17T14:58:08.000Z</time>
      </trkpt>
      <trkpt lat="43.21707" lon="0.88165">
        <ele>390</ele>
        <time>2019-02-17T14:58:10.000Z</time>
      </trkpt>
      <trkpt lat="43.21707" lon="0.88165">
        <ele>390</ele>
        <time>2019-02-17T14:58:12.000Z</time>
      </trkpt>
      <trkpt lat="43.21707" lon="0.88166">
        <ele>390</ele>
        <time>2019-02-17T14:58:14.000Z</time>
      </trkpt>
      <trkpt lat="43.21708" lon="0.88167">
        <ele>390</ele>
        <time>2019-02-17T14:58:16.000Z</time>
      </trkpt>
      <trkpt lat="43.21707" lon="0.88166">
        <ele>390</ele>
        <time>2019-02-17T14:58:18.000Z</time>
      </trkpt>
      <trkpt lat="43.21707" lon="0.88166">
        <ele>390</ele>
        <time>2019-02-17T14:58:20.000Z</time>
      </trkpt>
      <trkpt lat="43.21707" lon="0.88167">
        <ele>390</ele>
        <time>2019-02-17T14:58:22.000Z</time>
      </trkpt>
      <trkpt lat="43.21707" lon="0.88167">
        <ele>390</ele>
        <time>2019-02-17T14:58:24.000Z</time>
      </trkpt>
      <trkpt lat="43.21708" lon="0.88167">
        <ele>390</ele>
        <time>2019-02-17T14:58:26.000Z</time>
      </trkpt>
      <trkpt lat="43.21707" lon="0.88167">
        <ele>390</ele>
        <time>2019-02-17T14:58:28.000Z</time>
      </trkpt>
      <trkpt lat="43.21707" lon="0.88167">
        <ele>390</ele>
        <time>2019-02-17T14:58:30.000Z</time>
      </trkpt>
      <trkpt lat="43.21706" lon="0.88168">
        <ele>390</ele>
        <time>2019-02-17T14:58:32.000Z</time>
      </trkpt>
      <trkpt lat="43.21706" lon="0.88168">
        <ele>390</ele>
        <time>2019-02-17T14:58:34.000Z</time>
      </trkpt>
      <trkpt lat="43.21707" lon="0.88168">
        <ele>390</ele>
        <time>2019-02-17T14:58:36.000Z</time>
      </trkpt>
      <trkpt lat="43.21707" lon="0.88167">
        <ele>390</ele>
        <time>2019-02-17T14:58:38.000Z</time>
      </trkpt>
      <trkpt lat="43.21707" lon="0.88167">
        <ele>390</ele>
        <time>2019-02-17T14:58:40.000Z</time>
      </trkpt>
      <trkpt lat="43.21707" lon="0.88167">
        <ele>390</ele>
        <time>2019-02-17T14:58:42.000Z</time>
      </trkpt>
      <trkpt lat="43.21706" lon="0.88166">
        <ele>390</ele>
        <time>2019-02-17T14:58:44.000Z</time>
      </trkpt>
      <trkpt lat="43.21706" lon="0.88166">
        <ele>390</ele>
        <time>2019-02-17T14:58:46.000Z</time>
      </trkpt>
      <trkpt lat="43.21706" lon="0.88165">
        <ele>390</ele>
        <time>2019-02-17T14:58:48.000Z</time>
      </trkpt>
      <trkpt lat="43.21705" lon="0.88164">
        <ele>390</ele>
        <time>2019-02-17T14:58:50.000Z</time>
      </trkpt>
      <trkpt lat="43.21706" lon="0.88164">
        <ele>390</ele>
        <time>2019-02-17T14:58:52.000Z</time>
      </trkpt>
      <trkpt lat="43.21705" lon="0.88163">
        <ele>390</ele>
        <time>2019-02-17T14:58:54.000Z</time>
      </trkpt>
      <trkpt lat="43.21705" lon="0.88162">
        <ele>391</ele>
        <time>2019-02-17T14:58:56.000Z</time>
      </trkpt>
      <trkpt lat="43.21704" lon="0.88162">
        <ele>391</ele>
        <time>2019-02-17T14:58:58.000Z</time>
      </trkpt>
      <trkpt lat="43.21705" lon="0.88162">
        <ele>391</ele>
        <time>2019-02-17T14:59:00.000Z</time>
      </trkpt>
      <trkpt lat="43.21705" lon="0.88163">
        <ele>390</ele>
        <time>2019-02-17T14:59:02.000Z</time>
      </trkpt>
      <trkpt lat="43.21706" lon="0.88163">
        <ele>390</ele>
        <time>2019-02-17T14:59:04.000Z</time>
      </trkpt>
      <trkpt lat="43.21705" lon="0.88164">
        <ele>390</ele>
        <time>2019-02-17T14:59:06.000Z</time>
      </trkpt>
      <trkpt lat="43.21706" lon="0.88164">
        <ele>390</ele>
        <time>2019-02-17T14:59:08.000Z</time>
      </trkpt>
      <trkpt lat="43.21706" lon="0.88164">
        <ele>390</ele>
        <time>2019-02-17T14:59:10.000Z</time>
      </trkpt>
      <trkpt lat="43.21706" lon="0.88165">
        <ele>390</ele>
        <time>2019-02-17T14:59:12.000Z</time>
      </trkpt>
      <trkpt lat="43.21706" lon="0.88166">
        <ele>390</ele>
        <time>2019-02-17T14:59:14.000Z</time>
      </trkpt>
      <trkpt lat="43.21707" lon="0.88168">
        <ele>390</ele>
        <time>2019-02-17T14:59:16.000Z</time>
      </trkpt>
      <trkpt lat="43.21707" lon="0.88169">
        <ele>390</ele>
        <time>2019-02-17T14:59:18.000Z</time>
      </trkpt>
      <trkpt lat="43.21708" lon="0.8817">
        <ele>390</ele>
        <time>2019-02-17T14:59:20.000Z</time>
      </trkpt>
      <trkpt lat="43.21707" lon="0.8817">
        <ele>390</ele>
        <time>2019-02-17T14:59:22.000Z</time>
      </trkpt>
      <trkpt lat="43.21707" lon="0.88171">
        <ele>390</ele>
        <time>2019-02-17T14:59:24.000Z</time>
      </trkpt>
    </trkseg>
  </trk>
</gpx>